<?xml version="1.0" encoding="UTF-8" standalone="no" ?>
<gpx xmlns="http://www.topografix.com/GPX/1/1" xmlns:xsi="http://www.w3.org/2001/XMLSchema-instance" xsi:schemaLocation="http://www.topografix.com/GPX/1/1 http://www.topografix.com/GPX/1/1/gpx.xsd" version="1.1" creator="VisuGPX - https://www.visugpx.com">
  <metadata>
    <name>SORTIE VELO- 7 MAI 2010</name>
    <desc><![CDATA[Tour foret de chaux]]></desc>
  </metadata>
  <wpt lat="47.09129" lon="5.4871">
    <ele>-48</ele>
  </wpt>
  <trk>
    <name><![CDATA[SORTIE VELO- 7 MAI 2010_1]]></name>
    <trkseg>
      <trkpt lat="47.09129" lon="5.4871">
        <ele>-48</ele>
        <time>2010-05-07T11:26:03Z</time>
      </trkpt>
      <trkpt lat="47.09118" lon="5.48705">
        <ele>-48</ele>
        <time>2010-05-07T11:26:10Z</time>
      </trkpt>
      <trkpt lat="47.09131" lon="5.48705">
        <ele>-48</ele>
        <time>2010-05-07T11:26:11Z</time>
      </trkpt>
      <trkpt lat="47.09143" lon="5.48705">
        <ele>-48</ele>
        <time>2010-05-07T11:26:19Z</time>
      </trkpt>
      <trkpt lat="47.09134" lon="5.48702">
        <ele>-48</ele>
        <time>2010-05-07T11:26:20Z</time>
      </trkpt>
      <trkpt lat="47.09147" lon="5.48713">
        <ele>-48</ele>
        <time>2010-05-07T11:26:21Z</time>
      </trkpt>
      <trkpt lat="47.09119" lon="5.4868">
        <ele>-48</ele>
        <time>2010-05-07T11:26:22Z</time>
      </trkpt>
      <trkpt lat="47.09138" lon="5.48711">
        <ele>-48</ele>
        <time>2010-05-07T11:26:23Z</time>
      </trkpt>
      <trkpt lat="47.09154" lon="5.48744">
        <ele>-48</ele>
        <time>2010-05-07T11:26:29Z</time>
      </trkpt>
      <trkpt lat="47.09168" lon="5.48784">
        <ele>-48</ele>
        <time>2010-05-07T11:26:31Z</time>
      </trkpt>
      <trkpt lat="47.09145" lon="5.48755">
        <ele>-48</ele>
        <time>2010-05-07T11:26:32Z</time>
      </trkpt>
      <trkpt lat="47.09124" lon="5.48734">
        <ele>-48</ele>
        <time>2010-05-07T11:26:33Z</time>
      </trkpt>
      <trkpt lat="47.09121" lon="5.48719">
        <ele>-48</ele>
        <time>2010-05-07T11:26:36Z</time>
      </trkpt>
      <trkpt lat="47.0914" lon="5.48757">
        <ele>-48</ele>
        <time>2010-05-07T11:26:46Z</time>
      </trkpt>
      <trkpt lat="47.09157" lon="5.48764">
        <ele>-48</ele>
        <time>2010-05-07T11:26:47Z</time>
      </trkpt>
      <trkpt lat="47.09005" lon="5.48567">
        <ele>-48</ele>
        <time>2010-05-07T11:27:21Z</time>
      </trkpt>
      <trkpt lat="47.08838" lon="5.48315">
        <ele>243</ele>
        <time>2010-05-07T11:27:22Z</time>
      </trkpt>
      <trkpt lat="47.08841" lon="5.48328">
        <ele>210</ele>
        <time>2010-05-07T11:27:23Z</time>
      </trkpt>
      <trkpt lat="47.08835" lon="5.48316">
        <ele>203</ele>
        <time>2010-05-07T11:27:25Z</time>
      </trkpt>
      <trkpt lat="47.08823" lon="5.48298">
        <ele>223</ele>
        <time>2010-05-07T11:27:27Z</time>
      </trkpt>
      <trkpt lat="47.08816" lon="5.48285">
        <ele>223</ele>
        <time>2010-05-07T11:27:29Z</time>
      </trkpt>
      <trkpt lat="47.08808" lon="5.48273">
        <ele>223</ele>
        <time>2010-05-07T11:27:31Z</time>
      </trkpt>
      <trkpt lat="47.088" lon="5.48263">
        <ele>229</ele>
        <time>2010-05-07T11:27:33Z</time>
      </trkpt>
      <trkpt lat="47.08789" lon="5.48263">
        <ele>229</ele>
        <time>2010-05-07T11:27:35Z</time>
      </trkpt>
      <trkpt lat="47.08779" lon="5.4827">
        <ele>229</ele>
        <time>2010-05-07T11:27:37Z</time>
      </trkpt>
      <trkpt lat="47.0877" lon="5.48281">
        <ele>229</ele>
        <time>2010-05-07T11:27:39Z</time>
      </trkpt>
      <trkpt lat="47.0876" lon="5.48294">
        <ele>229</ele>
        <time>2010-05-07T11:27:41Z</time>
      </trkpt>
      <trkpt lat="47.08749" lon="5.48307">
        <ele>229</ele>
        <time>2010-05-07T11:27:43Z</time>
      </trkpt>
      <trkpt lat="47.08737" lon="5.48322">
        <ele>229</ele>
        <time>2010-05-07T11:27:45Z</time>
      </trkpt>
      <trkpt lat="47.08725" lon="5.48336">
        <ele>229</ele>
        <time>2010-05-07T11:27:47Z</time>
      </trkpt>
      <trkpt lat="47.08711" lon="5.48351">
        <ele>229</ele>
        <time>2010-05-07T11:27:49Z</time>
      </trkpt>
      <trkpt lat="47.08699" lon="5.48366">
        <ele>229</ele>
        <time>2010-05-07T11:27:51Z</time>
      </trkpt>
      <trkpt lat="47.08687" lon="5.48378">
        <ele>229</ele>
        <time>2010-05-07T11:27:53Z</time>
      </trkpt>
      <trkpt lat="47.0868" lon="5.48388">
        <ele>229</ele>
        <time>2010-05-07T11:27:55Z</time>
      </trkpt>
      <trkpt lat="47.08673" lon="5.48401">
        <ele>229</ele>
        <time>2010-05-07T11:27:59Z</time>
      </trkpt>
      <trkpt lat="47.08673" lon="5.48414">
        <ele>214</ele>
        <time>2010-05-07T11:28:06Z</time>
      </trkpt>
      <trkpt lat="47.08674" lon="5.48431">
        <ele>221</ele>
        <time>2010-05-07T11:28:14Z</time>
      </trkpt>
      <trkpt lat="47.0867" lon="5.48447">
        <ele>221</ele>
        <time>2010-05-07T11:28:17Z</time>
      </trkpt>
      <trkpt lat="47.08665" lon="5.48463">
        <ele>221</ele>
        <time>2010-05-07T11:28:19Z</time>
      </trkpt>
      <trkpt lat="47.08659" lon="5.48483">
        <ele>221</ele>
        <time>2010-05-07T11:28:21Z</time>
      </trkpt>
      <trkpt lat="47.08653" lon="5.48503">
        <ele>221</ele>
        <time>2010-05-07T11:28:23Z</time>
      </trkpt>
      <trkpt lat="47.08647" lon="5.48524">
        <ele>221</ele>
        <time>2010-05-07T11:28:25Z</time>
      </trkpt>
      <trkpt lat="47.08639" lon="5.48545">
        <ele>221</ele>
        <time>2010-05-07T11:28:27Z</time>
      </trkpt>
      <trkpt lat="47.08627" lon="5.48558">
        <ele>221</ele>
        <time>2010-05-07T11:28:29Z</time>
      </trkpt>
      <trkpt lat="47.08615" lon="5.48567">
        <ele>227</ele>
        <time>2010-05-07T11:28:31Z</time>
      </trkpt>
      <trkpt lat="47.08606" lon="5.48572">
        <ele>227</ele>
        <time>2010-05-07T11:28:32Z</time>
      </trkpt>
      <trkpt lat="47.08589" lon="5.48577">
        <ele>222</ele>
        <time>2010-05-07T11:28:34Z</time>
      </trkpt>
      <trkpt lat="47.08575" lon="5.48581">
        <ele>222</ele>
        <time>2010-05-07T11:28:36Z</time>
      </trkpt>
      <trkpt lat="47.08561" lon="5.48586">
        <ele>222</ele>
        <time>2010-05-07T11:28:38Z</time>
      </trkpt>
      <trkpt lat="47.08549" lon="5.4859">
        <ele>228</ele>
        <time>2010-05-07T11:28:40Z</time>
      </trkpt>
      <trkpt lat="47.0854" lon="5.48598">
        <ele>228</ele>
        <time>2010-05-07T11:28:42Z</time>
      </trkpt>
      <trkpt lat="47.08531" lon="5.48606">
        <ele>228</ele>
        <time>2010-05-07T11:28:44Z</time>
      </trkpt>
      <trkpt lat="47.08523" lon="5.48614">
        <ele>223</ele>
        <time>2010-05-07T11:28:48Z</time>
      </trkpt>
      <trkpt lat="47.08523" lon="5.4863">
        <ele>223</ele>
        <time>2010-05-07T11:28:52Z</time>
      </trkpt>
      <trkpt lat="47.08529" lon="5.48642">
        <ele>223</ele>
        <time>2010-05-07T11:29:26Z</time>
      </trkpt>
      <trkpt lat="47.08538" lon="5.48654">
        <ele>214</ele>
        <time>2010-05-07T11:29:30Z</time>
      </trkpt>
      <trkpt lat="47.08546" lon="5.48662">
        <ele>214</ele>
        <time>2010-05-07T11:29:33Z</time>
      </trkpt>
      <trkpt lat="47.08554" lon="5.48672">
        <ele>214</ele>
        <time>2010-05-07T11:29:36Z</time>
      </trkpt>
      <trkpt lat="47.08563" lon="5.48689">
        <ele>214</ele>
        <time>2010-05-07T11:29:39Z</time>
      </trkpt>
      <trkpt lat="47.08569" lon="5.48699">
        <ele>214</ele>
        <time>2010-05-07T11:29:41Z</time>
      </trkpt>
      <trkpt lat="47.08576" lon="5.48713">
        <ele>214</ele>
        <time>2010-05-07T11:29:43Z</time>
      </trkpt>
      <trkpt lat="47.08583" lon="5.48728">
        <ele>208</ele>
        <time>2010-05-07T11:29:45Z</time>
      </trkpt>
      <trkpt lat="47.0859" lon="5.48742">
        <ele>208</ele>
        <time>2010-05-07T11:29:47Z</time>
      </trkpt>
      <trkpt lat="47.08597" lon="5.48758">
        <ele>208</ele>
        <time>2010-05-07T11:29:49Z</time>
      </trkpt>
      <trkpt lat="47.08603" lon="5.48773">
        <ele>208</ele>
        <time>2010-05-07T11:29:51Z</time>
      </trkpt>
      <trkpt lat="47.0861" lon="5.48786">
        <ele>208</ele>
        <time>2010-05-07T11:29:53Z</time>
      </trkpt>
      <trkpt lat="47.08615" lon="5.48801">
        <ele>208</ele>
        <time>2010-05-07T11:29:55Z</time>
      </trkpt>
      <trkpt lat="47.08622" lon="5.48816">
        <ele>208</ele>
        <time>2010-05-07T11:29:58Z</time>
      </trkpt>
      <trkpt lat="47.0863" lon="5.48833">
        <ele>208</ele>
        <time>2010-05-07T11:30:01Z</time>
      </trkpt>
      <trkpt lat="47.08637" lon="5.48849">
        <ele>208</ele>
        <time>2010-05-07T11:30:04Z</time>
      </trkpt>
      <trkpt lat="47.08644" lon="5.48864">
        <ele>208</ele>
        <time>2010-05-07T11:30:06Z</time>
      </trkpt>
      <trkpt lat="47.08649" lon="5.48879">
        <ele>208</ele>
        <time>2010-05-07T11:30:08Z</time>
      </trkpt>
      <trkpt lat="47.08656" lon="5.48891">
        <ele>208</ele>
        <time>2010-05-07T11:30:10Z</time>
      </trkpt>
      <trkpt lat="47.08661" lon="5.48903">
        <ele>208</ele>
        <time>2010-05-07T11:30:12Z</time>
      </trkpt>
      <trkpt lat="47.08667" lon="5.48915">
        <ele>201</ele>
        <time>2010-05-07T11:30:14Z</time>
      </trkpt>
      <trkpt lat="47.08675" lon="5.48931">
        <ele>201</ele>
        <time>2010-05-07T11:30:16Z</time>
      </trkpt>
      <trkpt lat="47.08681" lon="5.48948">
        <ele>201</ele>
        <time>2010-05-07T11:30:18Z</time>
      </trkpt>
      <trkpt lat="47.08688" lon="5.48963">
        <ele>201</ele>
        <time>2010-05-07T11:30:20Z</time>
      </trkpt>
      <trkpt lat="47.08695" lon="5.48982">
        <ele>193</ele>
        <time>2010-05-07T11:30:22Z</time>
      </trkpt>
      <trkpt lat="47.08702" lon="5.48998">
        <ele>193</ele>
        <time>2010-05-07T11:30:24Z</time>
      </trkpt>
      <trkpt lat="47.08708" lon="5.49014">
        <ele>193</ele>
        <time>2010-05-07T11:30:26Z</time>
      </trkpt>
      <trkpt lat="47.08714" lon="5.49028">
        <ele>193</ele>
        <time>2010-05-07T11:30:28Z</time>
      </trkpt>
      <trkpt lat="47.0872" lon="5.49042">
        <ele>193</ele>
        <time>2010-05-07T11:30:30Z</time>
      </trkpt>
      <trkpt lat="47.08726" lon="5.49057">
        <ele>193</ele>
        <time>2010-05-07T11:30:32Z</time>
      </trkpt>
      <trkpt lat="47.08732" lon="5.49072">
        <ele>193</ele>
        <time>2010-05-07T11:30:34Z</time>
      </trkpt>
      <trkpt lat="47.08738" lon="5.49087">
        <ele>193</ele>
        <time>2010-05-07T11:30:36Z</time>
      </trkpt>
      <trkpt lat="47.08746" lon="5.49101">
        <ele>193</ele>
        <time>2010-05-07T11:30:38Z</time>
      </trkpt>
      <trkpt lat="47.08756" lon="5.49113">
        <ele>193</ele>
        <time>2010-05-07T11:30:40Z</time>
      </trkpt>
      <trkpt lat="47.08765" lon="5.49124">
        <ele>193</ele>
        <time>2010-05-07T11:30:42Z</time>
      </trkpt>
      <trkpt lat="47.08774" lon="5.49134">
        <ele>193</ele>
        <time>2010-05-07T11:30:44Z</time>
      </trkpt>
      <trkpt lat="47.08784" lon="5.49142">
        <ele>193</ele>
        <time>2010-05-07T11:30:46Z</time>
      </trkpt>
      <trkpt lat="47.08794" lon="5.4915">
        <ele>193</ele>
        <time>2010-05-07T11:30:48Z</time>
      </trkpt>
      <trkpt lat="47.08804" lon="5.49156">
        <ele>199</ele>
        <time>2010-05-07T11:30:50Z</time>
      </trkpt>
      <trkpt lat="47.08813" lon="5.49163">
        <ele>199</ele>
        <time>2010-05-07T11:30:52Z</time>
      </trkpt>
      <trkpt lat="47.08824" lon="5.49169">
        <ele>199</ele>
        <time>2010-05-07T11:30:54Z</time>
      </trkpt>
      <trkpt lat="47.08835" lon="5.49174">
        <ele>199</ele>
        <time>2010-05-07T11:30:56Z</time>
      </trkpt>
      <trkpt lat="47.08844" lon="5.49182">
        <ele>199</ele>
        <time>2010-05-07T11:30:58Z</time>
      </trkpt>
      <trkpt lat="47.08853" lon="5.49196">
        <ele>199</ele>
        <time>2010-05-07T11:31:01Z</time>
      </trkpt>
      <trkpt lat="47.08859" lon="5.49207">
        <ele>199</ele>
        <time>2010-05-07T11:31:03Z</time>
      </trkpt>
      <trkpt lat="47.08865" lon="5.49219">
        <ele>199</ele>
        <time>2010-05-07T11:31:05Z</time>
      </trkpt>
      <trkpt lat="47.08872" lon="5.49233">
        <ele>199</ele>
        <time>2010-05-07T11:31:07Z</time>
      </trkpt>
      <trkpt lat="47.08877" lon="5.49247">
        <ele>199</ele>
        <time>2010-05-07T11:31:09Z</time>
      </trkpt>
      <trkpt lat="47.08876" lon="5.49262">
        <ele>208</ele>
        <time>2010-05-07T11:31:11Z</time>
      </trkpt>
      <trkpt lat="47.08868" lon="5.49274">
        <ele>214</ele>
        <time>2010-05-07T11:31:15Z</time>
      </trkpt>
      <trkpt lat="47.08865" lon="5.49287">
        <ele>214</ele>
        <time>2010-05-07T11:31:19Z</time>
      </trkpt>
      <trkpt lat="47.08872" lon="5.49303">
        <ele>214</ele>
        <time>2010-05-07T11:31:22Z</time>
      </trkpt>
      <trkpt lat="47.08875" lon="5.49316">
        <ele>214</ele>
        <time>2010-05-07T11:31:24Z</time>
      </trkpt>
      <trkpt lat="47.08878" lon="5.49329">
        <ele>214</ele>
        <time>2010-05-07T11:31:26Z</time>
      </trkpt>
      <trkpt lat="47.08882" lon="5.49341">
        <ele>219</ele>
        <time>2010-05-07T11:31:28Z</time>
      </trkpt>
      <trkpt lat="47.08886" lon="5.49354">
        <ele>225</ele>
        <time>2010-05-07T11:31:32Z</time>
      </trkpt>
      <trkpt lat="47.08888" lon="5.4937">
        <ele>218</ele>
        <time>2010-05-07T11:31:36Z</time>
      </trkpt>
      <trkpt lat="47.08888" lon="5.49386">
        <ele>218</ele>
        <time>2010-05-07T11:31:40Z</time>
      </trkpt>
      <trkpt lat="47.0888" lon="5.49401">
        <ele>211</ele>
        <time>2010-05-07T11:31:43Z</time>
      </trkpt>
      <trkpt lat="47.08872" lon="5.4941">
        <ele>211</ele>
        <time>2010-05-07T11:31:45Z</time>
      </trkpt>
      <trkpt lat="47.08865" lon="5.49422">
        <ele>211</ele>
        <time>2010-05-07T11:31:47Z</time>
      </trkpt>
      <trkpt lat="47.08857" lon="5.49433">
        <ele>211</ele>
        <time>2010-05-07T11:31:49Z</time>
      </trkpt>
      <trkpt lat="47.0885" lon="5.49441">
        <ele>211</ele>
        <time>2010-05-07T11:31:51Z</time>
      </trkpt>
      <trkpt lat="47.08842" lon="5.4945">
        <ele>211</ele>
        <time>2010-05-07T11:31:53Z</time>
      </trkpt>
      <trkpt lat="47.08834" lon="5.49458">
        <ele>211</ele>
        <time>2010-05-07T11:31:55Z</time>
      </trkpt>
      <trkpt lat="47.08825" lon="5.49464">
        <ele>211</ele>
        <time>2010-05-07T11:31:57Z</time>
      </trkpt>
      <trkpt lat="47.08816" lon="5.49472">
        <ele>211</ele>
        <time>2010-05-07T11:31:59Z</time>
      </trkpt>
      <trkpt lat="47.08808" lon="5.49477">
        <ele>211</ele>
        <time>2010-05-07T11:32:01Z</time>
      </trkpt>
      <trkpt lat="47.08799" lon="5.49483">
        <ele>211</ele>
        <time>2010-05-07T11:32:03Z</time>
      </trkpt>
      <trkpt lat="47.0879" lon="5.4949">
        <ele>211</ele>
        <time>2010-05-07T11:32:05Z</time>
      </trkpt>
      <trkpt lat="47.08781" lon="5.49496">
        <ele>211</ele>
        <time>2010-05-07T11:32:07Z</time>
      </trkpt>
      <trkpt lat="47.08772" lon="5.49503">
        <ele>211</ele>
        <time>2010-05-07T11:32:09Z</time>
      </trkpt>
      <trkpt lat="47.08761" lon="5.49509">
        <ele>211</ele>
        <time>2010-05-07T11:32:11Z</time>
      </trkpt>
      <trkpt lat="47.08751" lon="5.49517">
        <ele>211</ele>
        <time>2010-05-07T11:32:13Z</time>
      </trkpt>
      <trkpt lat="47.08741" lon="5.49524">
        <ele>211</ele>
        <time>2010-05-07T11:32:15Z</time>
      </trkpt>
      <trkpt lat="47.08732" lon="5.49526">
        <ele>211</ele>
        <time>2010-05-07T11:32:17Z</time>
      </trkpt>
      <trkpt lat="47.0872" lon="5.49524">
        <ele>211</ele>
        <time>2010-05-07T11:32:19Z</time>
      </trkpt>
      <trkpt lat="47.0871" lon="5.49515">
        <ele>211</ele>
        <time>2010-05-07T11:32:21Z</time>
      </trkpt>
      <trkpt lat="47.08703" lon="5.495">
        <ele>211</ele>
        <time>2010-05-07T11:32:23Z</time>
      </trkpt>
      <trkpt lat="47.087" lon="5.49481">
        <ele>211</ele>
        <time>2010-05-07T11:32:25Z</time>
      </trkpt>
      <trkpt lat="47.087" lon="5.49457">
        <ele>211</ele>
        <time>2010-05-07T11:32:27Z</time>
      </trkpt>
      <trkpt lat="47.087" lon="5.49436">
        <ele>211</ele>
        <time>2010-05-07T11:32:29Z</time>
      </trkpt>
      <trkpt lat="47.08697" lon="5.49415">
        <ele>211</ele>
        <time>2010-05-07T11:32:31Z</time>
      </trkpt>
      <trkpt lat="47.08694" lon="5.49395">
        <ele>211</ele>
        <time>2010-05-07T11:32:33Z</time>
      </trkpt>
      <trkpt lat="47.08689" lon="5.49379">
        <ele>211</ele>
        <time>2010-05-07T11:32:35Z</time>
      </trkpt>
      <trkpt lat="47.08684" lon="5.49362">
        <ele>211</ele>
        <time>2010-05-07T11:32:37Z</time>
      </trkpt>
      <trkpt lat="47.0868" lon="5.49345">
        <ele>211</ele>
        <time>2010-05-07T11:32:39Z</time>
      </trkpt>
      <trkpt lat="47.08674" lon="5.4933">
        <ele>211</ele>
        <time>2010-05-07T11:32:41Z</time>
      </trkpt>
      <trkpt lat="47.08669" lon="5.49314">
        <ele>211</ele>
        <time>2010-05-07T11:32:43Z</time>
      </trkpt>
      <trkpt lat="47.08665" lon="5.49296">
        <ele>211</ele>
        <time>2010-05-07T11:32:45Z</time>
      </trkpt>
      <trkpt lat="47.0866" lon="5.49282">
        <ele>211</ele>
        <time>2010-05-07T11:32:47Z</time>
      </trkpt>
      <trkpt lat="47.08656" lon="5.49266">
        <ele>211</ele>
        <time>2010-05-07T11:32:49Z</time>
      </trkpt>
      <trkpt lat="47.08652" lon="5.49252">
        <ele>211</ele>
        <time>2010-05-07T11:32:51Z</time>
      </trkpt>
      <trkpt lat="47.08646" lon="5.4924">
        <ele>211</ele>
        <time>2010-05-07T11:32:53Z</time>
      </trkpt>
      <trkpt lat="47.08641" lon="5.49226">
        <ele>211</ele>
        <time>2010-05-07T11:32:55Z</time>
      </trkpt>
      <trkpt lat="47.08638" lon="5.49212">
        <ele>211</ele>
        <time>2010-05-07T11:32:57Z</time>
      </trkpt>
      <trkpt lat="47.08632" lon="5.49199">
        <ele>211</ele>
        <time>2010-05-07T11:32:59Z</time>
      </trkpt>
      <trkpt lat="47.08626" lon="5.49187">
        <ele>211</ele>
        <time>2010-05-07T11:33:01Z</time>
      </trkpt>
      <trkpt lat="47.08619" lon="5.49174">
        <ele>211</ele>
        <time>2010-05-07T11:33:03Z</time>
      </trkpt>
      <trkpt lat="47.08613" lon="5.49164">
        <ele>211</ele>
        <time>2010-05-07T11:33:05Z</time>
      </trkpt>
      <trkpt lat="47.08605" lon="5.49153">
        <ele>211</ele>
        <time>2010-05-07T11:33:07Z</time>
      </trkpt>
      <trkpt lat="47.08597" lon="5.49144">
        <ele>211</ele>
        <time>2010-05-07T11:33:09Z</time>
      </trkpt>
      <trkpt lat="47.08588" lon="5.49135">
        <ele>211</ele>
        <time>2010-05-07T11:33:11Z</time>
      </trkpt>
      <trkpt lat="47.0858" lon="5.49126">
        <ele>211</ele>
        <time>2010-05-07T11:33:13Z</time>
      </trkpt>
      <trkpt lat="47.08572" lon="5.49117">
        <ele>211</ele>
        <time>2010-05-07T11:33:15Z</time>
      </trkpt>
      <trkpt lat="47.08564" lon="5.49109">
        <ele>211</ele>
        <time>2010-05-07T11:33:17Z</time>
      </trkpt>
      <trkpt lat="47.08556" lon="5.491">
        <ele>211</ele>
        <time>2010-05-07T11:33:19Z</time>
      </trkpt>
      <trkpt lat="47.08548" lon="5.49091">
        <ele>211</ele>
        <time>2010-05-07T11:33:21Z</time>
      </trkpt>
      <trkpt lat="47.0854" lon="5.49083">
        <ele>211</ele>
        <time>2010-05-07T11:33:23Z</time>
      </trkpt>
      <trkpt lat="47.08532" lon="5.49073">
        <ele>211</ele>
        <time>2010-05-07T11:33:25Z</time>
      </trkpt>
      <trkpt lat="47.08524" lon="5.49063">
        <ele>211</ele>
        <time>2010-05-07T11:33:27Z</time>
      </trkpt>
      <trkpt lat="47.08517" lon="5.49051">
        <ele>211</ele>
        <time>2010-05-07T11:33:29Z</time>
      </trkpt>
      <trkpt lat="47.0851" lon="5.4904">
        <ele>211</ele>
        <time>2010-05-07T11:33:31Z</time>
      </trkpt>
      <trkpt lat="47.08503" lon="5.49029">
        <ele>211</ele>
        <time>2010-05-07T11:33:33Z</time>
      </trkpt>
      <trkpt lat="47.08497" lon="5.49017">
        <ele>211</ele>
        <time>2010-05-07T11:33:35Z</time>
      </trkpt>
      <trkpt lat="47.0849" lon="5.49005">
        <ele>211</ele>
        <time>2010-05-07T11:33:37Z</time>
      </trkpt>
      <trkpt lat="47.08483" lon="5.48994">
        <ele>211</ele>
        <time>2010-05-07T11:33:39Z</time>
      </trkpt>
      <trkpt lat="47.08476" lon="5.48983">
        <ele>211</ele>
        <time>2010-05-07T11:33:41Z</time>
      </trkpt>
      <trkpt lat="47.08469" lon="5.48971">
        <ele>211</ele>
        <time>2010-05-07T11:33:43Z</time>
      </trkpt>
      <trkpt lat="47.08462" lon="5.4896">
        <ele>211</ele>
        <time>2010-05-07T11:33:45Z</time>
      </trkpt>
      <trkpt lat="47.08456" lon="5.48948">
        <ele>211</ele>
        <time>2010-05-07T11:33:47Z</time>
      </trkpt>
      <trkpt lat="47.08449" lon="5.48936">
        <ele>211</ele>
        <time>2010-05-07T11:33:49Z</time>
      </trkpt>
      <trkpt lat="47.08443" lon="5.48925">
        <ele>211</ele>
        <time>2010-05-07T11:33:51Z</time>
      </trkpt>
      <trkpt lat="47.08436" lon="5.48914">
        <ele>211</ele>
        <time>2010-05-07T11:33:53Z</time>
      </trkpt>
      <trkpt lat="47.08429" lon="5.48902">
        <ele>211</ele>
        <time>2010-05-07T11:33:55Z</time>
      </trkpt>
      <trkpt lat="47.08422" lon="5.48891">
        <ele>211</ele>
        <time>2010-05-07T11:33:57Z</time>
      </trkpt>
      <trkpt lat="47.08416" lon="5.48881">
        <ele>211</ele>
        <time>2010-05-07T11:33:59Z</time>
      </trkpt>
      <trkpt lat="47.08408" lon="5.4887">
        <ele>211</ele>
        <time>2010-05-07T11:34:01Z</time>
      </trkpt>
      <trkpt lat="47.08404" lon="5.48856">
        <ele>211</ele>
        <time>2010-05-07T11:34:03Z</time>
      </trkpt>
      <trkpt lat="47.08402" lon="5.48841">
        <ele>211</ele>
        <time>2010-05-07T11:34:05Z</time>
      </trkpt>
      <trkpt lat="47.08397" lon="5.48828">
        <ele>211</ele>
        <time>2010-05-07T11:34:07Z</time>
      </trkpt>
      <trkpt lat="47.08387" lon="5.48822">
        <ele>211</ele>
        <time>2010-05-07T11:34:09Z</time>
      </trkpt>
      <trkpt lat="47.08378" lon="5.48816">
        <ele>211</ele>
        <time>2010-05-07T11:34:11Z</time>
      </trkpt>
      <trkpt lat="47.08369" lon="5.48805">
        <ele>211</ele>
        <time>2010-05-07T11:34:13Z</time>
      </trkpt>
      <trkpt lat="47.08361" lon="5.48793">
        <ele>211</ele>
        <time>2010-05-07T11:34:15Z</time>
      </trkpt>
      <trkpt lat="47.08353" lon="5.4878">
        <ele>211</ele>
        <time>2010-05-07T11:34:17Z</time>
      </trkpt>
      <trkpt lat="47.08345" lon="5.48768">
        <ele>211</ele>
        <time>2010-05-07T11:34:19Z</time>
      </trkpt>
      <trkpt lat="47.08338" lon="5.48756">
        <ele>211</ele>
        <time>2010-05-07T11:34:21Z</time>
      </trkpt>
      <trkpt lat="47.0833" lon="5.48743">
        <ele>211</ele>
        <time>2010-05-07T11:34:23Z</time>
      </trkpt>
      <trkpt lat="47.08322" lon="5.48731">
        <ele>211</ele>
        <time>2010-05-07T11:34:25Z</time>
      </trkpt>
      <trkpt lat="47.08314" lon="5.48718">
        <ele>211</ele>
        <time>2010-05-07T11:34:27Z</time>
      </trkpt>
      <trkpt lat="47.08308" lon="5.48705">
        <ele>211</ele>
        <time>2010-05-07T11:34:29Z</time>
      </trkpt>
      <trkpt lat="47.083" lon="5.48694">
        <ele>211</ele>
        <time>2010-05-07T11:34:31Z</time>
      </trkpt>
      <trkpt lat="47.08293" lon="5.48682">
        <ele>211</ele>
        <time>2010-05-07T11:34:33Z</time>
      </trkpt>
      <trkpt lat="47.08286" lon="5.4867">
        <ele>211</ele>
        <time>2010-05-07T11:34:35Z</time>
      </trkpt>
      <trkpt lat="47.08278" lon="5.48658">
        <ele>211</ele>
        <time>2010-05-07T11:34:37Z</time>
      </trkpt>
      <trkpt lat="47.0827" lon="5.48646">
        <ele>211</ele>
        <time>2010-05-07T11:34:39Z</time>
      </trkpt>
      <trkpt lat="47.08262" lon="5.48634">
        <ele>211</ele>
        <time>2010-05-07T11:34:41Z</time>
      </trkpt>
      <trkpt lat="47.08254" lon="5.48622">
        <ele>211</ele>
        <time>2010-05-07T11:34:43Z</time>
      </trkpt>
      <trkpt lat="47.08245" lon="5.48611">
        <ele>211</ele>
        <time>2010-05-07T11:34:45Z</time>
      </trkpt>
      <trkpt lat="47.08236" lon="5.486">
        <ele>211</ele>
        <time>2010-05-07T11:34:47Z</time>
      </trkpt>
      <trkpt lat="47.08228" lon="5.4859">
        <ele>211</ele>
        <time>2010-05-07T11:34:49Z</time>
      </trkpt>
      <trkpt lat="47.08219" lon="5.48581">
        <ele>211</ele>
        <time>2010-05-07T11:34:51Z</time>
      </trkpt>
      <trkpt lat="47.08209" lon="5.48572">
        <ele>211</ele>
        <time>2010-05-07T11:34:53Z</time>
      </trkpt>
      <trkpt lat="47.082" lon="5.48563">
        <ele>211</ele>
        <time>2010-05-07T11:34:55Z</time>
      </trkpt>
      <trkpt lat="47.0819" lon="5.48554">
        <ele>211</ele>
        <time>2010-05-07T11:34:57Z</time>
      </trkpt>
      <trkpt lat="47.0818" lon="5.48545">
        <ele>211</ele>
        <time>2010-05-07T11:34:59Z</time>
      </trkpt>
      <trkpt lat="47.0817" lon="5.48538">
        <ele>211</ele>
        <time>2010-05-07T11:35:01Z</time>
      </trkpt>
      <trkpt lat="47.0816" lon="5.48531">
        <ele>211</ele>
        <time>2010-05-07T11:35:03Z</time>
      </trkpt>
      <trkpt lat="47.0815" lon="5.48524">
        <ele>211</ele>
        <time>2010-05-07T11:35:05Z</time>
      </trkpt>
      <trkpt lat="47.0814" lon="5.48516">
        <ele>211</ele>
        <time>2010-05-07T11:35:07Z</time>
      </trkpt>
      <trkpt lat="47.0813" lon="5.48509">
        <ele>211</ele>
        <time>2010-05-07T11:35:09Z</time>
      </trkpt>
      <trkpt lat="47.0812" lon="5.48501">
        <ele>211</ele>
        <time>2010-05-07T11:35:11Z</time>
      </trkpt>
      <trkpt lat="47.0811" lon="5.48492">
        <ele>211</ele>
        <time>2010-05-07T11:35:13Z</time>
      </trkpt>
      <trkpt lat="47.081" lon="5.48485">
        <ele>211</ele>
        <time>2010-05-07T11:35:15Z</time>
      </trkpt>
      <trkpt lat="47.08089" lon="5.48478">
        <ele>211</ele>
        <time>2010-05-07T11:35:17Z</time>
      </trkpt>
      <trkpt lat="47.08079" lon="5.48473">
        <ele>211</ele>
        <time>2010-05-07T11:35:19Z</time>
      </trkpt>
      <trkpt lat="47.08067" lon="5.48474">
        <ele>211</ele>
        <time>2010-05-07T11:35:21Z</time>
      </trkpt>
      <trkpt lat="47.08056" lon="5.48481">
        <ele>211</ele>
        <time>2010-05-07T11:35:23Z</time>
      </trkpt>
      <trkpt lat="47.08049" lon="5.48492">
        <ele>211</ele>
        <time>2010-05-07T11:35:25Z</time>
      </trkpt>
      <trkpt lat="47.08044" lon="5.48507">
        <ele>211</ele>
        <time>2010-05-07T11:35:27Z</time>
      </trkpt>
      <trkpt lat="47.08039" lon="5.48523">
        <ele>211</ele>
        <time>2010-05-07T11:35:29Z</time>
      </trkpt>
      <trkpt lat="47.08035" lon="5.48538">
        <ele>211</ele>
        <time>2010-05-07T11:35:31Z</time>
      </trkpt>
      <trkpt lat="47.0803" lon="5.48554">
        <ele>211</ele>
        <time>2010-05-07T11:35:33Z</time>
      </trkpt>
      <trkpt lat="47.08027" lon="5.48568">
        <ele>211</ele>
        <time>2010-05-07T11:35:35Z</time>
      </trkpt>
      <trkpt lat="47.08022" lon="5.48583">
        <ele>211</ele>
        <time>2010-05-07T11:35:37Z</time>
      </trkpt>
      <trkpt lat="47.08017" lon="5.48597">
        <ele>211</ele>
        <time>2010-05-07T11:35:39Z</time>
      </trkpt>
      <trkpt lat="47.08011" lon="5.48611">
        <ele>211</ele>
        <time>2010-05-07T11:35:41Z</time>
      </trkpt>
      <trkpt lat="47.08006" lon="5.48625">
        <ele>211</ele>
        <time>2010-05-07T11:35:43Z</time>
      </trkpt>
      <trkpt lat="47.08001" lon="5.48639">
        <ele>211</ele>
        <time>2010-05-07T11:35:45Z</time>
      </trkpt>
      <trkpt lat="47.07996" lon="5.48652">
        <ele>211</ele>
        <time>2010-05-07T11:35:47Z</time>
      </trkpt>
      <trkpt lat="47.07991" lon="5.48668">
        <ele>211</ele>
        <time>2010-05-07T11:35:49Z</time>
      </trkpt>
      <trkpt lat="47.07986" lon="5.48682">
        <ele>211</ele>
        <time>2010-05-07T11:35:51Z</time>
      </trkpt>
      <trkpt lat="47.07982" lon="5.48696">
        <ele>211</ele>
        <time>2010-05-07T11:35:53Z</time>
      </trkpt>
      <trkpt lat="47.07977" lon="5.48711">
        <ele>211</ele>
        <time>2010-05-07T11:35:55Z</time>
      </trkpt>
      <trkpt lat="47.07972" lon="5.48724">
        <ele>211</ele>
        <time>2010-05-07T11:35:57Z</time>
      </trkpt>
      <trkpt lat="47.07967" lon="5.48738">
        <ele>211</ele>
        <time>2010-05-07T11:35:59Z</time>
      </trkpt>
      <trkpt lat="47.07962" lon="5.48752">
        <ele>211</ele>
        <time>2010-05-07T11:36:01Z</time>
      </trkpt>
      <trkpt lat="47.07958" lon="5.48766">
        <ele>211</ele>
        <time>2010-05-07T11:36:03Z</time>
      </trkpt>
      <trkpt lat="47.07953" lon="5.48779">
        <ele>211</ele>
        <time>2010-05-07T11:36:05Z</time>
      </trkpt>
      <trkpt lat="47.07949" lon="5.48793">
        <ele>211</ele>
        <time>2010-05-07T11:36:07Z</time>
      </trkpt>
      <trkpt lat="47.07942" lon="5.48811">
        <ele>211</ele>
        <time>2010-05-07T11:36:09Z</time>
      </trkpt>
      <trkpt lat="47.07938" lon="5.48824">
        <ele>211</ele>
        <time>2010-05-07T11:36:11Z</time>
      </trkpt>
      <trkpt lat="47.07933" lon="5.48837">
        <ele>211</ele>
        <time>2010-05-07T11:36:13Z</time>
      </trkpt>
      <trkpt lat="47.07928" lon="5.48852">
        <ele>211</ele>
        <time>2010-05-07T11:36:15Z</time>
      </trkpt>
      <trkpt lat="47.07924" lon="5.48864">
        <ele>211</ele>
        <time>2010-05-07T11:36:17Z</time>
      </trkpt>
      <trkpt lat="47.07919" lon="5.48879">
        <ele>211</ele>
        <time>2010-05-07T11:36:19Z</time>
      </trkpt>
      <trkpt lat="47.07914" lon="5.48893">
        <ele>211</ele>
        <time>2010-05-07T11:36:21Z</time>
      </trkpt>
      <trkpt lat="47.07911" lon="5.48908">
        <ele>206</ele>
        <time>2010-05-07T11:36:23Z</time>
      </trkpt>
      <trkpt lat="47.07906" lon="5.48923">
        <ele>206</ele>
        <time>2010-05-07T11:36:25Z</time>
      </trkpt>
      <trkpt lat="47.07898" lon="5.48934">
        <ele>206</ele>
        <time>2010-05-07T11:36:27Z</time>
      </trkpt>
      <trkpt lat="47.07891" lon="5.48943">
        <ele>206</ele>
        <time>2010-05-07T11:36:29Z</time>
      </trkpt>
      <trkpt lat="47.07881" lon="5.48951">
        <ele>206</ele>
        <time>2010-05-07T11:36:31Z</time>
      </trkpt>
      <trkpt lat="47.07869" lon="5.48956">
        <ele>206</ele>
        <time>2010-05-07T11:36:33Z</time>
      </trkpt>
      <trkpt lat="47.07857" lon="5.48959">
        <ele>206</ele>
        <time>2010-05-07T11:36:35Z</time>
      </trkpt>
      <trkpt lat="47.07846" lon="5.48959">
        <ele>206</ele>
        <time>2010-05-07T11:36:37Z</time>
      </trkpt>
      <trkpt lat="47.07835" lon="5.48957">
        <ele>206</ele>
        <time>2010-05-07T11:36:39Z</time>
      </trkpt>
      <trkpt lat="47.07824" lon="5.48952">
        <ele>206</ele>
        <time>2010-05-07T11:36:41Z</time>
      </trkpt>
      <trkpt lat="47.07814" lon="5.48943">
        <ele>206</ele>
        <time>2010-05-07T11:36:43Z</time>
      </trkpt>
      <trkpt lat="47.07809" lon="5.4893">
        <ele>206</ele>
        <time>2010-05-07T11:36:45Z</time>
      </trkpt>
      <trkpt lat="47.07806" lon="5.48916">
        <ele>206</ele>
        <time>2010-05-07T11:36:47Z</time>
      </trkpt>
      <trkpt lat="47.07801" lon="5.48901">
        <ele>206</ele>
        <time>2010-05-07T11:36:49Z</time>
      </trkpt>
      <trkpt lat="47.07795" lon="5.4889">
        <ele>206</ele>
        <time>2010-05-07T11:36:51Z</time>
      </trkpt>
      <trkpt lat="47.07787" lon="5.48881">
        <ele>206</ele>
        <time>2010-05-07T11:36:53Z</time>
      </trkpt>
      <trkpt lat="47.07777" lon="5.48878">
        <ele>206</ele>
        <time>2010-05-07T11:36:55Z</time>
      </trkpt>
      <trkpt lat="47.07766" lon="5.48881">
        <ele>206</ele>
        <time>2010-05-07T11:36:57Z</time>
      </trkpt>
      <trkpt lat="47.07757" lon="5.48889">
        <ele>206</ele>
        <time>2010-05-07T11:36:59Z</time>
      </trkpt>
      <trkpt lat="47.0775" lon="5.489">
        <ele>206</ele>
        <time>2010-05-07T11:37:01Z</time>
      </trkpt>
      <trkpt lat="47.07746" lon="5.48915">
        <ele>206</ele>
        <time>2010-05-07T11:37:03Z</time>
      </trkpt>
      <trkpt lat="47.07743" lon="5.48931">
        <ele>206</ele>
        <time>2010-05-07T11:37:05Z</time>
      </trkpt>
      <trkpt lat="47.07736" lon="5.48945">
        <ele>206</ele>
        <time>2010-05-07T11:37:07Z</time>
      </trkpt>
      <trkpt lat="47.07728" lon="5.48956">
        <ele>200</ele>
        <time>2010-05-07T11:37:09Z</time>
      </trkpt>
      <trkpt lat="47.0772" lon="5.48965">
        <ele>200</ele>
        <time>2010-05-07T11:37:11Z</time>
      </trkpt>
      <trkpt lat="47.07711" lon="5.48973">
        <ele>200</ele>
        <time>2010-05-07T11:37:13Z</time>
      </trkpt>
      <trkpt lat="47.07701" lon="5.48982">
        <ele>200</ele>
        <time>2010-05-07T11:37:15Z</time>
      </trkpt>
      <trkpt lat="47.07692" lon="5.48991">
        <ele>200</ele>
        <time>2010-05-07T11:37:17Z</time>
      </trkpt>
      <trkpt lat="47.07682" lon="5.49">
        <ele>200</ele>
        <time>2010-05-07T11:37:19Z</time>
      </trkpt>
      <trkpt lat="47.07673" lon="5.49009">
        <ele>200</ele>
        <time>2010-05-07T11:37:21Z</time>
      </trkpt>
      <trkpt lat="47.07665" lon="5.49018">
        <ele>200</ele>
        <time>2010-05-07T11:37:23Z</time>
      </trkpt>
      <trkpt lat="47.07656" lon="5.49029">
        <ele>200</ele>
        <time>2010-05-07T11:37:25Z</time>
      </trkpt>
      <trkpt lat="47.07647" lon="5.49039">
        <ele>200</ele>
        <time>2010-05-07T11:37:27Z</time>
      </trkpt>
      <trkpt lat="47.07639" lon="5.49049">
        <ele>200</ele>
        <time>2010-05-07T11:37:29Z</time>
      </trkpt>
      <trkpt lat="47.07631" lon="5.49059">
        <ele>200</ele>
        <time>2010-05-07T11:37:31Z</time>
      </trkpt>
      <trkpt lat="47.07623" lon="5.4907">
        <ele>200</ele>
        <time>2010-05-07T11:37:33Z</time>
      </trkpt>
      <trkpt lat="47.07616" lon="5.49082">
        <ele>200</ele>
        <time>2010-05-07T11:37:35Z</time>
      </trkpt>
      <trkpt lat="47.07609" lon="5.49093">
        <ele>200</ele>
        <time>2010-05-07T11:37:37Z</time>
      </trkpt>
      <trkpt lat="47.07602" lon="5.49103">
        <ele>200</ele>
        <time>2010-05-07T11:37:39Z</time>
      </trkpt>
      <trkpt lat="47.07595" lon="5.49115">
        <ele>200</ele>
        <time>2010-05-07T11:37:41Z</time>
      </trkpt>
      <trkpt lat="47.07588" lon="5.49127">
        <ele>200</ele>
        <time>2010-05-07T11:37:43Z</time>
      </trkpt>
      <trkpt lat="47.07582" lon="5.49139">
        <ele>200</ele>
        <time>2010-05-07T11:37:45Z</time>
      </trkpt>
      <trkpt lat="47.07576" lon="5.49151">
        <ele>200</ele>
        <time>2010-05-07T11:37:47Z</time>
      </trkpt>
      <trkpt lat="47.0757" lon="5.49163">
        <ele>200</ele>
        <time>2010-05-07T11:37:49Z</time>
      </trkpt>
      <trkpt lat="47.07565" lon="5.49176">
        <ele>200</ele>
        <time>2010-05-07T11:37:51Z</time>
      </trkpt>
      <trkpt lat="47.07558" lon="5.49188">
        <ele>200</ele>
        <time>2010-05-07T11:37:53Z</time>
      </trkpt>
      <trkpt lat="47.07552" lon="5.492">
        <ele>200</ele>
        <time>2010-05-07T11:37:55Z</time>
      </trkpt>
      <trkpt lat="47.07546" lon="5.49213">
        <ele>200</ele>
        <time>2010-05-07T11:37:57Z</time>
      </trkpt>
      <trkpt lat="47.07541" lon="5.49226">
        <ele>200</ele>
        <time>2010-05-07T11:37:59Z</time>
      </trkpt>
      <trkpt lat="47.07534" lon="5.49239">
        <ele>200</ele>
        <time>2010-05-07T11:38:01Z</time>
      </trkpt>
      <trkpt lat="47.07528" lon="5.49251">
        <ele>200</ele>
        <time>2010-05-07T11:38:03Z</time>
      </trkpt>
      <trkpt lat="47.07522" lon="5.49263">
        <ele>200</ele>
        <time>2010-05-07T11:38:05Z</time>
      </trkpt>
      <trkpt lat="47.07515" lon="5.49275">
        <ele>200</ele>
        <time>2010-05-07T11:38:07Z</time>
      </trkpt>
      <trkpt lat="47.07509" lon="5.49287">
        <ele>200</ele>
        <time>2010-05-07T11:38:09Z</time>
      </trkpt>
      <trkpt lat="47.07504" lon="5.49297">
        <ele>200</ele>
        <time>2010-05-07T11:38:11Z</time>
      </trkpt>
      <trkpt lat="47.07498" lon="5.49308">
        <ele>200</ele>
        <time>2010-05-07T11:38:13Z</time>
      </trkpt>
      <trkpt lat="47.07491" lon="5.49323">
        <ele>200</ele>
        <time>2010-05-07T11:38:16Z</time>
      </trkpt>
      <trkpt lat="47.07483" lon="5.49337">
        <ele>206</ele>
        <time>2010-05-07T11:38:19Z</time>
      </trkpt>
      <trkpt lat="47.07475" lon="5.49349">
        <ele>206</ele>
        <time>2010-05-07T11:38:22Z</time>
      </trkpt>
      <trkpt lat="47.07467" lon="5.49363">
        <ele>206</ele>
        <time>2010-05-07T11:38:25Z</time>
      </trkpt>
      <trkpt lat="47.07461" lon="5.49378">
        <ele>206</ele>
        <time>2010-05-07T11:38:28Z</time>
      </trkpt>
      <trkpt lat="47.07453" lon="5.49391">
        <ele>206</ele>
        <time>2010-05-07T11:38:31Z</time>
      </trkpt>
      <trkpt lat="47.07445" lon="5.49403">
        <ele>206</ele>
        <time>2010-05-07T11:38:34Z</time>
      </trkpt>
      <trkpt lat="47.07436" lon="5.49411">
        <ele>212</ele>
        <time>2010-05-07T11:38:37Z</time>
      </trkpt>
      <trkpt lat="47.07425" lon="5.49413">
        <ele>212</ele>
        <time>2010-05-07T11:38:40Z</time>
      </trkpt>
      <trkpt lat="47.07414" lon="5.4941">
        <ele>212</ele>
        <time>2010-05-07T11:38:43Z</time>
      </trkpt>
      <trkpt lat="47.07404" lon="5.49402">
        <ele>212</ele>
        <time>2010-05-07T11:38:46Z</time>
      </trkpt>
      <trkpt lat="47.07394" lon="5.49391">
        <ele>212</ele>
        <time>2010-05-07T11:38:49Z</time>
      </trkpt>
      <trkpt lat="47.07385" lon="5.49381">
        <ele>212</ele>
        <time>2010-05-07T11:38:52Z</time>
      </trkpt>
      <trkpt lat="47.07377" lon="5.4937">
        <ele>212</ele>
        <time>2010-05-07T11:38:55Z</time>
      </trkpt>
      <trkpt lat="47.07369" lon="5.49359">
        <ele>212</ele>
        <time>2010-05-07T11:38:58Z</time>
      </trkpt>
      <trkpt lat="47.0736" lon="5.49349">
        <ele>212</ele>
        <time>2010-05-07T11:39:01Z</time>
      </trkpt>
      <trkpt lat="47.0735" lon="5.49341">
        <ele>212</ele>
        <time>2010-05-07T11:39:04Z</time>
      </trkpt>
      <trkpt lat="47.0734" lon="5.49332">
        <ele>212</ele>
        <time>2010-05-07T11:39:07Z</time>
      </trkpt>
      <trkpt lat="47.07331" lon="5.49322">
        <ele>212</ele>
        <time>2010-05-07T11:39:10Z</time>
      </trkpt>
      <trkpt lat="47.07324" lon="5.49309">
        <ele>212</ele>
        <time>2010-05-07T11:39:13Z</time>
      </trkpt>
      <trkpt lat="47.07317" lon="5.49297">
        <ele>217</ele>
        <time>2010-05-07T11:39:16Z</time>
      </trkpt>
      <trkpt lat="47.07309" lon="5.49286">
        <ele>217</ele>
        <time>2010-05-07T11:39:19Z</time>
      </trkpt>
      <trkpt lat="47.07299" lon="5.49272">
        <ele>217</ele>
        <time>2010-05-07T11:39:22Z</time>
      </trkpt>
      <trkpt lat="47.0729" lon="5.4926">
        <ele>217</ele>
        <time>2010-05-07T11:39:25Z</time>
      </trkpt>
      <trkpt lat="47.07283" lon="5.49251">
        <ele>217</ele>
        <time>2010-05-07T11:39:27Z</time>
      </trkpt>
      <trkpt lat="47.07276" lon="5.49241">
        <ele>217</ele>
        <time>2010-05-07T11:39:29Z</time>
      </trkpt>
      <trkpt lat="47.07269" lon="5.49232">
        <ele>217</ele>
        <time>2010-05-07T11:39:31Z</time>
      </trkpt>
      <trkpt lat="47.07261" lon="5.49222">
        <ele>217</ele>
        <time>2010-05-07T11:39:33Z</time>
      </trkpt>
      <trkpt lat="47.07254" lon="5.49212">
        <ele>217</ele>
        <time>2010-05-07T11:39:35Z</time>
      </trkpt>
      <trkpt lat="47.07247" lon="5.492">
        <ele>217</ele>
        <time>2010-05-07T11:39:37Z</time>
      </trkpt>
      <trkpt lat="47.0724" lon="5.49188">
        <ele>217</ele>
        <time>2010-05-07T11:39:39Z</time>
      </trkpt>
      <trkpt lat="47.07233" lon="5.49176">
        <ele>217</ele>
        <time>2010-05-07T11:39:41Z</time>
      </trkpt>
      <trkpt lat="47.07225" lon="5.49167">
        <ele>217</ele>
        <time>2010-05-07T11:39:43Z</time>
      </trkpt>
      <trkpt lat="47.07215" lon="5.49169">
        <ele>217</ele>
        <time>2010-05-07T11:39:45Z</time>
      </trkpt>
      <trkpt lat="47.07207" lon="5.49177">
        <ele>217</ele>
        <time>2010-05-07T11:39:47Z</time>
      </trkpt>
      <trkpt lat="47.07199" lon="5.49187">
        <ele>217</ele>
        <time>2010-05-07T11:39:49Z</time>
      </trkpt>
      <trkpt lat="47.07193" lon="5.49199">
        <ele>217</ele>
        <time>2010-05-07T11:39:51Z</time>
      </trkpt>
      <trkpt lat="47.07188" lon="5.49212">
        <ele>217</ele>
        <time>2010-05-07T11:39:53Z</time>
      </trkpt>
      <trkpt lat="47.07183" lon="5.49229">
        <ele>217</ele>
        <time>2010-05-07T11:39:56Z</time>
      </trkpt>
      <trkpt lat="47.07178" lon="5.49241">
        <ele>223</ele>
        <time>2010-05-07T11:39:58Z</time>
      </trkpt>
      <trkpt lat="47.07171" lon="5.49257">
        <ele>223</ele>
        <time>2010-05-07T11:40:01Z</time>
      </trkpt>
      <trkpt lat="47.07167" lon="5.4927">
        <ele>223</ele>
        <time>2010-05-07T11:40:03Z</time>
      </trkpt>
      <trkpt lat="47.07162" lon="5.49288">
        <ele>223</ele>
        <time>2010-05-07T11:40:06Z</time>
      </trkpt>
      <trkpt lat="47.07158" lon="5.49299">
        <ele>223</ele>
        <time>2010-05-07T11:40:08Z</time>
      </trkpt>
      <trkpt lat="47.0715" lon="5.49314">
        <ele>223</ele>
        <time>2010-05-07T11:40:11Z</time>
      </trkpt>
      <trkpt lat="47.07143" lon="5.49331">
        <ele>223</ele>
        <time>2010-05-07T11:40:14Z</time>
      </trkpt>
      <trkpt lat="47.0714" lon="5.49343">
        <ele>223</ele>
        <time>2010-05-07T11:40:16Z</time>
      </trkpt>
      <trkpt lat="47.07137" lon="5.49356">
        <ele>223</ele>
        <time>2010-05-07T11:40:18Z</time>
      </trkpt>
      <trkpt lat="47.07131" lon="5.49372">
        <ele>223</ele>
        <time>2010-05-07T11:40:21Z</time>
      </trkpt>
      <trkpt lat="47.07125" lon="5.49388">
        <ele>223</ele>
        <time>2010-05-07T11:40:24Z</time>
      </trkpt>
      <trkpt lat="47.07118" lon="5.49404">
        <ele>223</ele>
        <time>2010-05-07T11:40:27Z</time>
      </trkpt>
      <trkpt lat="47.07115" lon="5.49421">
        <ele>223</ele>
        <time>2010-05-07T11:40:30Z</time>
      </trkpt>
      <trkpt lat="47.0711" lon="5.49434">
        <ele>223</ele>
        <time>2010-05-07T11:40:32Z</time>
      </trkpt>
      <trkpt lat="47.07105" lon="5.49447">
        <ele>223</ele>
        <time>2010-05-07T11:40:34Z</time>
      </trkpt>
      <trkpt lat="47.07101" lon="5.4946">
        <ele>223</ele>
        <time>2010-05-07T11:40:36Z</time>
      </trkpt>
      <trkpt lat="47.07096" lon="5.49473">
        <ele>223</ele>
        <time>2010-05-07T11:40:38Z</time>
      </trkpt>
      <trkpt lat="47.0709" lon="5.49485">
        <ele>223</ele>
        <time>2010-05-07T11:40:40Z</time>
      </trkpt>
      <trkpt lat="47.07084" lon="5.49498">
        <ele>223</ele>
        <time>2010-05-07T11:40:42Z</time>
      </trkpt>
      <trkpt lat="47.07078" lon="5.49511">
        <ele>223</ele>
        <time>2010-05-07T11:40:44Z</time>
      </trkpt>
      <trkpt lat="47.07072" lon="5.49524">
        <ele>223</ele>
        <time>2010-05-07T11:40:46Z</time>
      </trkpt>
      <trkpt lat="47.07066" lon="5.49537">
        <ele>223</ele>
        <time>2010-05-07T11:40:48Z</time>
      </trkpt>
      <trkpt lat="47.0706" lon="5.4955">
        <ele>223</ele>
        <time>2010-05-07T11:40:50Z</time>
      </trkpt>
      <trkpt lat="47.07055" lon="5.49563">
        <ele>223</ele>
        <time>2010-05-07T11:40:52Z</time>
      </trkpt>
      <trkpt lat="47.07051" lon="5.49577">
        <ele>223</ele>
        <time>2010-05-07T11:40:54Z</time>
      </trkpt>
      <trkpt lat="47.07046" lon="5.49588">
        <ele>223</ele>
        <time>2010-05-07T11:40:56Z</time>
      </trkpt>
      <trkpt lat="47.0704" lon="5.496">
        <ele>223</ele>
        <time>2010-05-07T11:40:58Z</time>
      </trkpt>
      <trkpt lat="47.07035" lon="5.49611">
        <ele>223</ele>
        <time>2010-05-07T11:41:00Z</time>
      </trkpt>
      <trkpt lat="47.07029" lon="5.49624">
        <ele>223</ele>
        <time>2010-05-07T11:41:03Z</time>
      </trkpt>
      <trkpt lat="47.07024" lon="5.49638">
        <ele>223</ele>
        <time>2010-05-07T11:42:00Z</time>
      </trkpt>
      <trkpt lat="47.07019" lon="5.49649">
        <ele>223</ele>
        <time>2010-05-07T11:42:06Z</time>
      </trkpt>
      <trkpt lat="47.07018" lon="5.49664">
        <ele>223</ele>
        <time>2010-05-07T11:42:11Z</time>
      </trkpt>
      <trkpt lat="47.07029" lon="5.49671">
        <ele>223</ele>
        <time>2010-05-07T11:42:14Z</time>
      </trkpt>
      <trkpt lat="47.07037" lon="5.49675">
        <ele>223</ele>
        <time>2010-05-07T11:42:16Z</time>
      </trkpt>
      <trkpt lat="47.07047" lon="5.49678">
        <ele>223</ele>
        <time>2010-05-07T11:42:18Z</time>
      </trkpt>
      <trkpt lat="47.07056" lon="5.49683">
        <ele>223</ele>
        <time>2010-05-07T11:42:20Z</time>
      </trkpt>
      <trkpt lat="47.07066" lon="5.49688">
        <ele>223</ele>
        <time>2010-05-07T11:42:22Z</time>
      </trkpt>
      <trkpt lat="47.07075" lon="5.49693">
        <ele>223</ele>
        <time>2010-05-07T11:42:24Z</time>
      </trkpt>
      <trkpt lat="47.07085" lon="5.49696">
        <ele>223</ele>
        <time>2010-05-07T11:42:26Z</time>
      </trkpt>
      <trkpt lat="47.07096" lon="5.49701">
        <ele>223</ele>
        <time>2010-05-07T11:42:28Z</time>
      </trkpt>
      <trkpt lat="47.07105" lon="5.49705">
        <ele>223</ele>
        <time>2010-05-07T11:42:30Z</time>
      </trkpt>
      <trkpt lat="47.07115" lon="5.4971">
        <ele>223</ele>
        <time>2010-05-07T11:42:32Z</time>
      </trkpt>
      <trkpt lat="47.07125" lon="5.49713">
        <ele>223</ele>
        <time>2010-05-07T11:42:34Z</time>
      </trkpt>
      <trkpt lat="47.07136" lon="5.49719">
        <ele>223</ele>
        <time>2010-05-07T11:42:36Z</time>
      </trkpt>
      <trkpt lat="47.07146" lon="5.49722">
        <ele>223</ele>
        <time>2010-05-07T11:42:38Z</time>
      </trkpt>
      <trkpt lat="47.07156" lon="5.49726">
        <ele>223</ele>
        <time>2010-05-07T11:42:40Z</time>
      </trkpt>
      <trkpt lat="47.07166" lon="5.49729">
        <ele>223</ele>
        <time>2010-05-07T11:42:42Z</time>
      </trkpt>
      <trkpt lat="47.07175" lon="5.49733">
        <ele>218</ele>
        <time>2010-05-07T11:42:44Z</time>
      </trkpt>
      <trkpt lat="47.07185" lon="5.49735">
        <ele>218</ele>
        <time>2010-05-07T11:42:46Z</time>
      </trkpt>
      <trkpt lat="47.07196" lon="5.49738">
        <ele>218</ele>
        <time>2010-05-07T11:42:48Z</time>
      </trkpt>
      <trkpt lat="47.07207" lon="5.49743">
        <ele>218</ele>
        <time>2010-05-07T11:42:50Z</time>
      </trkpt>
      <trkpt lat="47.07218" lon="5.49747">
        <ele>218</ele>
        <time>2010-05-07T11:42:52Z</time>
      </trkpt>
      <trkpt lat="47.07229" lon="5.49752">
        <ele>218</ele>
        <time>2010-05-07T11:42:54Z</time>
      </trkpt>
      <trkpt lat="47.0724" lon="5.49756">
        <ele>218</ele>
        <time>2010-05-07T11:42:56Z</time>
      </trkpt>
      <trkpt lat="47.07251" lon="5.4976">
        <ele>218</ele>
        <time>2010-05-07T11:42:58Z</time>
      </trkpt>
      <trkpt lat="47.07262" lon="5.49764">
        <ele>218</ele>
        <time>2010-05-07T11:43:00Z</time>
      </trkpt>
      <trkpt lat="47.07273" lon="5.49768">
        <ele>218</ele>
        <time>2010-05-07T11:43:02Z</time>
      </trkpt>
      <trkpt lat="47.07283" lon="5.49771">
        <ele>218</ele>
        <time>2010-05-07T11:43:04Z</time>
      </trkpt>
      <trkpt lat="47.07293" lon="5.49771">
        <ele>218</ele>
        <time>2010-05-07T11:43:06Z</time>
      </trkpt>
      <trkpt lat="47.07302" lon="5.49773">
        <ele>218</ele>
        <time>2010-05-07T11:43:08Z</time>
      </trkpt>
      <trkpt lat="47.07311" lon="5.4978">
        <ele>218</ele>
        <time>2010-05-07T11:43:10Z</time>
      </trkpt>
      <trkpt lat="47.07322" lon="5.49784">
        <ele>218</ele>
        <time>2010-05-07T11:43:12Z</time>
      </trkpt>
      <trkpt lat="47.07332" lon="5.49781">
        <ele>218</ele>
        <time>2010-05-07T11:43:14Z</time>
      </trkpt>
      <trkpt lat="47.0734" lon="5.4977">
        <ele>218</ele>
        <time>2010-05-07T11:43:16Z</time>
      </trkpt>
      <trkpt lat="47.07344" lon="5.49755">
        <ele>218</ele>
        <time>2010-05-07T11:43:18Z</time>
      </trkpt>
      <trkpt lat="47.07343" lon="5.49738">
        <ele>218</ele>
        <time>2010-05-07T11:43:20Z</time>
      </trkpt>
      <trkpt lat="47.07339" lon="5.49722">
        <ele>218</ele>
        <time>2010-05-07T11:43:22Z</time>
      </trkpt>
      <trkpt lat="47.07338" lon="5.49706">
        <ele>218</ele>
        <time>2010-05-07T11:43:24Z</time>
      </trkpt>
      <trkpt lat="47.07341" lon="5.49689">
        <ele>218</ele>
        <time>2010-05-07T11:43:26Z</time>
      </trkpt>
      <trkpt lat="47.07346" lon="5.49672">
        <ele>218</ele>
        <time>2010-05-07T11:43:28Z</time>
      </trkpt>
      <trkpt lat="47.07352" lon="5.49655">
        <ele>218</ele>
        <time>2010-05-07T11:43:30Z</time>
      </trkpt>
      <trkpt lat="47.07357" lon="5.49638">
        <ele>218</ele>
        <time>2010-05-07T11:43:32Z</time>
      </trkpt>
      <trkpt lat="47.07363" lon="5.4962">
        <ele>218</ele>
        <time>2010-05-07T11:43:34Z</time>
      </trkpt>
      <trkpt lat="47.07369" lon="5.49602">
        <ele>218</ele>
        <time>2010-05-07T11:43:36Z</time>
      </trkpt>
      <trkpt lat="47.07375" lon="5.49583">
        <ele>218</ele>
        <time>2010-05-07T11:43:38Z</time>
      </trkpt>
      <trkpt lat="47.07382" lon="5.49564">
        <ele>218</ele>
        <time>2010-05-07T11:43:40Z</time>
      </trkpt>
      <trkpt lat="47.0739" lon="5.49545">
        <ele>218</ele>
        <time>2010-05-07T11:43:42Z</time>
      </trkpt>
      <trkpt lat="47.07397" lon="5.49528">
        <ele>212</ele>
        <time>2010-05-07T11:43:44Z</time>
      </trkpt>
      <trkpt lat="47.07404" lon="5.49511">
        <ele>212</ele>
        <time>2010-05-07T11:43:46Z</time>
      </trkpt>
      <trkpt lat="47.07411" lon="5.49495">
        <ele>212</ele>
        <time>2010-05-07T11:43:48Z</time>
      </trkpt>
      <trkpt lat="47.07417" lon="5.49481">
        <ele>212</ele>
        <time>2010-05-07T11:43:50Z</time>
      </trkpt>
      <trkpt lat="47.07425" lon="5.49468">
        <ele>212</ele>
        <time>2010-05-07T11:43:52Z</time>
      </trkpt>
      <trkpt lat="47.07437" lon="5.49467">
        <ele>212</ele>
        <time>2010-05-07T11:43:55Z</time>
      </trkpt>
      <trkpt lat="47.07439" lon="5.49481">
        <ele>212</ele>
        <time>2010-05-07T11:43:58Z</time>
      </trkpt>
      <trkpt lat="47.07433" lon="5.49494">
        <ele>212</ele>
        <time>2010-05-07T11:44:02Z</time>
      </trkpt>
      <trkpt lat="47.07429" lon="5.49506">
        <ele>212</ele>
        <time>2010-05-07T11:44:06Z</time>
      </trkpt>
      <trkpt lat="47.07423" lon="5.49496">
        <ele>212</ele>
        <time>2010-05-07T11:56:03Z</time>
      </trkpt>
      <trkpt lat="47.07424" lon="5.49509">
        <ele>212</ele>
        <time>2010-05-07T12:00:13Z</time>
      </trkpt>
      <trkpt lat="47.07432" lon="5.49502">
        <ele>212</ele>
        <time>2010-05-07T12:00:29Z</time>
      </trkpt>
      <trkpt lat="47.07438" lon="5.49491">
        <ele>212</ele>
        <time>2010-05-07T12:00:32Z</time>
      </trkpt>
      <trkpt lat="47.07441" lon="5.49478">
        <ele>212</ele>
        <time>2010-05-07T12:00:37Z</time>
      </trkpt>
      <trkpt lat="47.07447" lon="5.49464">
        <ele>212</ele>
        <time>2010-05-07T12:01:25Z</time>
      </trkpt>
      <trkpt lat="47.07452" lon="5.49448">
        <ele>212</ele>
        <time>2010-05-07T12:01:28Z</time>
      </trkpt>
      <trkpt lat="47.07453" lon="5.49428">
        <ele>212</ele>
        <time>2010-05-07T12:01:31Z</time>
      </trkpt>
      <trkpt lat="47.07449" lon="5.49416">
        <ele>212</ele>
        <time>2010-05-07T12:01:33Z</time>
      </trkpt>
      <trkpt lat="47.07439" lon="5.49413">
        <ele>212</ele>
        <time>2010-05-07T12:01:35Z</time>
      </trkpt>
      <trkpt lat="47.07428" lon="5.49413">
        <ele>212</ele>
        <time>2010-05-07T12:01:37Z</time>
      </trkpt>
      <trkpt lat="47.07418" lon="5.49408">
        <ele>212</ele>
        <time>2010-05-07T12:01:40Z</time>
      </trkpt>
      <trkpt lat="47.07411" lon="5.49397">
        <ele>212</ele>
        <time>2010-05-07T12:01:43Z</time>
      </trkpt>
      <trkpt lat="47.07403" lon="5.49387">
        <ele>206</ele>
        <time>2010-05-07T12:01:46Z</time>
      </trkpt>
      <trkpt lat="47.07395" lon="5.49377">
        <ele>206</ele>
        <time>2010-05-07T12:01:49Z</time>
      </trkpt>
      <trkpt lat="47.07386" lon="5.49368">
        <ele>206</ele>
        <time>2010-05-07T12:01:52Z</time>
      </trkpt>
      <trkpt lat="47.07379" lon="5.49359">
        <ele>206</ele>
        <time>2010-05-07T12:01:55Z</time>
      </trkpt>
      <trkpt lat="47.0737" lon="5.4935">
        <ele>206</ele>
        <time>2010-05-07T12:01:58Z</time>
      </trkpt>
      <trkpt lat="47.07364" lon="5.49341">
        <ele>206</ele>
        <time>2010-05-07T12:02:01Z</time>
      </trkpt>
      <trkpt lat="47.07356" lon="5.49331">
        <ele>206</ele>
        <time>2010-05-07T12:02:04Z</time>
      </trkpt>
      <trkpt lat="47.07348" lon="5.49321">
        <ele>206</ele>
        <time>2010-05-07T12:02:07Z</time>
      </trkpt>
      <trkpt lat="47.07339" lon="5.49311">
        <ele>206</ele>
        <time>2010-05-07T12:02:10Z</time>
      </trkpt>
      <trkpt lat="47.07331" lon="5.493">
        <ele>206</ele>
        <time>2010-05-07T12:02:13Z</time>
      </trkpt>
      <trkpt lat="47.07323" lon="5.4929">
        <ele>206</ele>
        <time>2010-05-07T12:02:16Z</time>
      </trkpt>
      <trkpt lat="47.07314" lon="5.49279">
        <ele>206</ele>
        <time>2010-05-07T12:02:19Z</time>
      </trkpt>
      <trkpt lat="47.07308" lon="5.49269">
        <ele>206</ele>
        <time>2010-05-07T12:02:22Z</time>
      </trkpt>
      <trkpt lat="47.07298" lon="5.49256">
        <ele>206</ele>
        <time>2010-05-07T12:02:25Z</time>
      </trkpt>
      <trkpt lat="47.07291" lon="5.49248">
        <ele>206</ele>
        <time>2010-05-07T12:02:27Z</time>
      </trkpt>
      <trkpt lat="47.07284" lon="5.49239">
        <ele>206</ele>
        <time>2010-05-07T12:02:29Z</time>
      </trkpt>
      <trkpt lat="47.07277" lon="5.4923">
        <ele>206</ele>
        <time>2010-05-07T12:02:31Z</time>
      </trkpt>
      <trkpt lat="47.0727" lon="5.49221">
        <ele>206</ele>
        <time>2010-05-07T12:02:33Z</time>
      </trkpt>
      <trkpt lat="47.0726" lon="5.49208">
        <ele>206</ele>
        <time>2010-05-07T12:02:36Z</time>
      </trkpt>
      <trkpt lat="47.07253" lon="5.49198">
        <ele>206</ele>
        <time>2010-05-07T12:02:38Z</time>
      </trkpt>
      <trkpt lat="47.07247" lon="5.49187">
        <ele>206</ele>
        <time>2010-05-07T12:02:40Z</time>
      </trkpt>
      <trkpt lat="47.0724" lon="5.49176">
        <ele>206</ele>
        <time>2010-05-07T12:02:42Z</time>
      </trkpt>
      <trkpt lat="47.07234" lon="5.49163">
        <ele>206</ele>
        <time>2010-05-07T12:02:44Z</time>
      </trkpt>
      <trkpt lat="47.07229" lon="5.49146">
        <ele>206</ele>
        <time>2010-05-07T12:02:46Z</time>
      </trkpt>
      <trkpt lat="47.07225" lon="5.49131">
        <ele>206</ele>
        <time>2010-05-07T12:02:48Z</time>
      </trkpt>
      <trkpt lat="47.0722" lon="5.49116">
        <ele>206</ele>
        <time>2010-05-07T12:02:50Z</time>
      </trkpt>
      <trkpt lat="47.07217" lon="5.49102">
        <ele>211</ele>
        <time>2010-05-07T12:02:52Z</time>
      </trkpt>
      <trkpt lat="47.07214" lon="5.49089">
        <ele>211</ele>
        <time>2010-05-07T12:02:54Z</time>
      </trkpt>
      <trkpt lat="47.0721" lon="5.49069">
        <ele>211</ele>
        <time>2010-05-07T12:02:57Z</time>
      </trkpt>
      <trkpt lat="47.07206" lon="5.49054">
        <ele>211</ele>
        <time>2010-05-07T12:02:59Z</time>
      </trkpt>
      <trkpt lat="47.07199" lon="5.49038">
        <ele>211</ele>
        <time>2010-05-07T12:03:01Z</time>
      </trkpt>
      <trkpt lat="47.07191" lon="5.49022">
        <ele>211</ele>
        <time>2010-05-07T12:03:03Z</time>
      </trkpt>
      <trkpt lat="47.07183" lon="5.49006">
        <ele>211</ele>
        <time>2010-05-07T12:03:05Z</time>
      </trkpt>
      <trkpt lat="47.07175" lon="5.48992">
        <ele>211</ele>
        <time>2010-05-07T12:03:07Z</time>
      </trkpt>
      <trkpt lat="47.07166" lon="5.48978">
        <ele>211</ele>
        <time>2010-05-07T12:03:09Z</time>
      </trkpt>
      <trkpt lat="47.07156" lon="5.48965">
        <ele>211</ele>
        <time>2010-05-07T12:03:11Z</time>
      </trkpt>
      <trkpt lat="47.07147" lon="5.48952">
        <ele>211</ele>
        <time>2010-05-07T12:03:13Z</time>
      </trkpt>
      <trkpt lat="47.07138" lon="5.48937">
        <ele>211</ele>
        <time>2010-05-07T12:03:15Z</time>
      </trkpt>
      <trkpt lat="47.07129" lon="5.48923">
        <ele>206</ele>
        <time>2010-05-07T12:03:17Z</time>
      </trkpt>
      <trkpt lat="47.07122" lon="5.48908">
        <ele>206</ele>
        <time>2010-05-07T12:03:19Z</time>
      </trkpt>
      <trkpt lat="47.07115" lon="5.48895">
        <ele>206</ele>
        <time>2010-05-07T12:03:21Z</time>
      </trkpt>
      <trkpt lat="47.07109" lon="5.48881">
        <ele>206</ele>
        <time>2010-05-07T12:03:23Z</time>
      </trkpt>
      <trkpt lat="47.07102" lon="5.4887">
        <ele>206</ele>
        <time>2010-05-07T12:03:25Z</time>
      </trkpt>
      <trkpt lat="47.07096" lon="5.48857">
        <ele>206</ele>
        <time>2010-05-07T12:03:27Z</time>
      </trkpt>
      <trkpt lat="47.07089" lon="5.48846">
        <ele>206</ele>
        <time>2010-05-07T12:03:29Z</time>
      </trkpt>
      <trkpt lat="47.07082" lon="5.48834">
        <ele>206</ele>
        <time>2010-05-07T12:03:31Z</time>
      </trkpt>
      <trkpt lat="47.07075" lon="5.48823">
        <ele>206</ele>
        <time>2010-05-07T12:03:33Z</time>
      </trkpt>
      <trkpt lat="47.07067" lon="5.48813">
        <ele>206</ele>
        <time>2010-05-07T12:03:35Z</time>
      </trkpt>
      <trkpt lat="47.07059" lon="5.48805">
        <ele>206</ele>
        <time>2010-05-07T12:03:37Z</time>
      </trkpt>
      <trkpt lat="47.0705" lon="5.48794">
        <ele>206</ele>
        <time>2010-05-07T12:03:40Z</time>
      </trkpt>
      <trkpt lat="47.07043" lon="5.4878">
        <ele>206</ele>
        <time>2010-05-07T12:03:43Z</time>
      </trkpt>
      <trkpt lat="47.07035" lon="5.48773">
        <ele>206</ele>
        <time>2010-05-07T12:03:45Z</time>
      </trkpt>
      <trkpt lat="47.07024" lon="5.48764">
        <ele>206</ele>
        <time>2010-05-07T12:03:47Z</time>
      </trkpt>
      <trkpt lat="47.07013" lon="5.48754">
        <ele>206</ele>
        <time>2010-05-07T12:03:49Z</time>
      </trkpt>
      <trkpt lat="47.07004" lon="5.48742">
        <ele>206</ele>
        <time>2010-05-07T12:03:51Z</time>
      </trkpt>
      <trkpt lat="47.06994" lon="5.48731">
        <ele>206</ele>
        <time>2010-05-07T12:03:53Z</time>
      </trkpt>
      <trkpt lat="47.06988" lon="5.48719">
        <ele>206</ele>
        <time>2010-05-07T12:03:55Z</time>
      </trkpt>
      <trkpt lat="47.06981" lon="5.48707">
        <ele>206</ele>
        <time>2010-05-07T12:03:57Z</time>
      </trkpt>
      <trkpt lat="47.0697" lon="5.48702">
        <ele>206</ele>
        <time>2010-05-07T12:03:59Z</time>
      </trkpt>
      <trkpt lat="47.06958" lon="5.48699">
        <ele>206</ele>
        <time>2010-05-07T12:04:01Z</time>
      </trkpt>
      <trkpt lat="47.06947" lon="5.48697">
        <ele>206</ele>
        <time>2010-05-07T12:04:03Z</time>
      </trkpt>
      <trkpt lat="47.06935" lon="5.48695">
        <ele>206</ele>
        <time>2010-05-07T12:04:05Z</time>
      </trkpt>
      <trkpt lat="47.06924" lon="5.48695">
        <ele>206</ele>
        <time>2010-05-07T12:04:07Z</time>
      </trkpt>
      <trkpt lat="47.06913" lon="5.48697">
        <ele>206</ele>
        <time>2010-05-07T12:04:09Z</time>
      </trkpt>
      <trkpt lat="47.06903" lon="5.487">
        <ele>206</ele>
        <time>2010-05-07T12:04:11Z</time>
      </trkpt>
      <trkpt lat="47.06893" lon="5.48704">
        <ele>206</ele>
        <time>2010-05-07T12:04:13Z</time>
      </trkpt>
      <trkpt lat="47.06883" lon="5.48707">
        <ele>212</ele>
        <time>2010-05-07T12:04:15Z</time>
      </trkpt>
      <trkpt lat="47.06873" lon="5.48713">
        <ele>212</ele>
        <time>2010-05-07T12:04:17Z</time>
      </trkpt>
      <trkpt lat="47.06865" lon="5.48722">
        <ele>212</ele>
        <time>2010-05-07T12:04:19Z</time>
      </trkpt>
      <trkpt lat="47.06856" lon="5.4873">
        <ele>212</ele>
        <time>2010-05-07T12:04:21Z</time>
      </trkpt>
      <trkpt lat="47.06847" lon="5.48735">
        <ele>212</ele>
        <time>2010-05-07T12:04:23Z</time>
      </trkpt>
      <trkpt lat="47.06838" lon="5.48741">
        <ele>217</ele>
        <time>2010-05-07T12:04:25Z</time>
      </trkpt>
      <trkpt lat="47.0683" lon="5.48749">
        <ele>217</ele>
        <time>2010-05-07T12:04:27Z</time>
      </trkpt>
      <trkpt lat="47.06821" lon="5.48757">
        <ele>217</ele>
        <time>2010-05-07T12:04:29Z</time>
      </trkpt>
      <trkpt lat="47.06813" lon="5.48765">
        <ele>217</ele>
        <time>2010-05-07T12:04:31Z</time>
      </trkpt>
      <trkpt lat="47.06805" lon="5.48773">
        <ele>217</ele>
        <time>2010-05-07T12:04:33Z</time>
      </trkpt>
      <trkpt lat="47.06796" lon="5.4878">
        <ele>224</ele>
        <time>2010-05-07T12:04:35Z</time>
      </trkpt>
      <trkpt lat="47.06789" lon="5.4879">
        <ele>224</ele>
        <time>2010-05-07T12:04:37Z</time>
      </trkpt>
      <trkpt lat="47.06781" lon="5.48798">
        <ele>224</ele>
        <time>2010-05-07T12:04:39Z</time>
      </trkpt>
      <trkpt lat="47.06773" lon="5.48805">
        <ele>224</ele>
        <time>2010-05-07T12:04:41Z</time>
      </trkpt>
      <trkpt lat="47.06765" lon="5.48813">
        <ele>224</ele>
        <time>2010-05-07T12:04:43Z</time>
      </trkpt>
      <trkpt lat="47.06757" lon="5.4882">
        <ele>224</ele>
        <time>2010-05-07T12:04:45Z</time>
      </trkpt>
      <trkpt lat="47.06746" lon="5.48831">
        <ele>224</ele>
        <time>2010-05-07T12:04:48Z</time>
      </trkpt>
      <trkpt lat="47.06736" lon="5.48838">
        <ele>224</ele>
        <time>2010-05-07T12:04:51Z</time>
      </trkpt>
      <trkpt lat="47.06724" lon="5.48842">
        <ele>224</ele>
        <time>2010-05-07T12:04:54Z</time>
      </trkpt>
      <trkpt lat="47.06711" lon="5.48836">
        <ele>217</ele>
        <time>2010-05-07T12:04:57Z</time>
      </trkpt>
      <trkpt lat="47.06703" lon="5.48828">
        <ele>217</ele>
        <time>2010-05-07T12:04:59Z</time>
      </trkpt>
      <trkpt lat="47.06696" lon="5.48818">
        <ele>217</ele>
        <time>2010-05-07T12:05:01Z</time>
      </trkpt>
      <trkpt lat="47.06689" lon="5.48808">
        <ele>217</ele>
        <time>2010-05-07T12:05:03Z</time>
      </trkpt>
      <trkpt lat="47.06681" lon="5.48796">
        <ele>211</ele>
        <time>2010-05-07T12:05:05Z</time>
      </trkpt>
      <trkpt lat="47.06674" lon="5.48784">
        <ele>211</ele>
        <time>2010-05-07T12:05:07Z</time>
      </trkpt>
      <trkpt lat="47.06668" lon="5.48768">
        <ele>211</ele>
        <time>2010-05-07T12:05:09Z</time>
      </trkpt>
      <trkpt lat="47.06658" lon="5.48753">
        <ele>205</ele>
        <time>2010-05-07T12:05:11Z</time>
      </trkpt>
      <trkpt lat="47.06651" lon="5.48738">
        <ele>205</ele>
        <time>2010-05-07T12:05:13Z</time>
      </trkpt>
      <trkpt lat="47.06645" lon="5.4872">
        <ele>205</ele>
        <time>2010-05-07T12:05:15Z</time>
      </trkpt>
      <trkpt lat="47.06643" lon="5.48702">
        <ele>205</ele>
        <time>2010-05-07T12:05:17Z</time>
      </trkpt>
      <trkpt lat="47.06643" lon="5.48684">
        <ele>205</ele>
        <time>2010-05-07T12:05:19Z</time>
      </trkpt>
      <trkpt lat="47.06644" lon="5.48665">
        <ele>205</ele>
        <time>2010-05-07T12:05:21Z</time>
      </trkpt>
      <trkpt lat="47.06645" lon="5.48648">
        <ele>205</ele>
        <time>2010-05-07T12:05:23Z</time>
      </trkpt>
      <trkpt lat="47.0665" lon="5.48631">
        <ele>199</ele>
        <time>2010-05-07T12:05:25Z</time>
      </trkpt>
      <trkpt lat="47.06656" lon="5.48615">
        <ele>199</ele>
        <time>2010-05-07T12:05:27Z</time>
      </trkpt>
      <trkpt lat="47.06662" lon="5.486">
        <ele>199</ele>
        <time>2010-05-07T12:05:29Z</time>
      </trkpt>
      <trkpt lat="47.06666" lon="5.48586">
        <ele>199</ele>
        <time>2010-05-07T12:05:31Z</time>
      </trkpt>
      <trkpt lat="47.06668" lon="5.48572">
        <ele>199</ele>
        <time>2010-05-07T12:05:33Z</time>
      </trkpt>
      <trkpt lat="47.0667" lon="5.48558">
        <ele>205</ele>
        <time>2010-05-07T12:05:35Z</time>
      </trkpt>
      <trkpt lat="47.0667" lon="5.48539">
        <ele>205</ele>
        <time>2010-05-07T12:05:38Z</time>
      </trkpt>
      <trkpt lat="47.0667" lon="5.48525">
        <ele>205</ele>
        <time>2010-05-07T12:05:40Z</time>
      </trkpt>
      <trkpt lat="47.06673" lon="5.48506">
        <ele>205</ele>
        <time>2010-05-07T12:05:43Z</time>
      </trkpt>
      <trkpt lat="47.06676" lon="5.48488">
        <ele>211</ele>
        <time>2010-05-07T12:05:46Z</time>
      </trkpt>
      <trkpt lat="47.06675" lon="5.48469">
        <ele>211</ele>
        <time>2010-05-07T12:05:49Z</time>
      </trkpt>
      <trkpt lat="47.06664" lon="5.48457">
        <ele>211</ele>
        <time>2010-05-07T12:05:51Z</time>
      </trkpt>
      <trkpt lat="47.06654" lon="5.48448">
        <ele>211</ele>
        <time>2010-05-07T12:05:53Z</time>
      </trkpt>
      <trkpt lat="47.06642" lon="5.48441">
        <ele>211</ele>
        <time>2010-05-07T12:05:55Z</time>
      </trkpt>
      <trkpt lat="47.06632" lon="5.48438">
        <ele>211</ele>
        <time>2010-05-07T12:05:57Z</time>
      </trkpt>
      <trkpt lat="47.06622" lon="5.48435">
        <ele>211</ele>
        <time>2010-05-07T12:05:59Z</time>
      </trkpt>
      <trkpt lat="47.06611" lon="5.48433">
        <ele>206</ele>
        <time>2010-05-07T12:06:01Z</time>
      </trkpt>
      <trkpt lat="47.066" lon="5.4843">
        <ele>206</ele>
        <time>2010-05-07T12:06:03Z</time>
      </trkpt>
      <trkpt lat="47.06589" lon="5.48424">
        <ele>206</ele>
        <time>2010-05-07T12:06:05Z</time>
      </trkpt>
      <trkpt lat="47.0658" lon="5.48413">
        <ele>206</ele>
        <time>2010-05-07T12:06:07Z</time>
      </trkpt>
      <trkpt lat="47.06573" lon="5.48397">
        <ele>206</ele>
        <time>2010-05-07T12:06:09Z</time>
      </trkpt>
      <trkpt lat="47.06569" lon="5.48381">
        <ele>206</ele>
        <time>2010-05-07T12:06:11Z</time>
      </trkpt>
      <trkpt lat="47.06566" lon="5.48365">
        <ele>206</ele>
        <time>2010-05-07T12:06:13Z</time>
      </trkpt>
      <trkpt lat="47.06564" lon="5.48349">
        <ele>206</ele>
        <time>2010-05-07T12:06:15Z</time>
      </trkpt>
      <trkpt lat="47.0656" lon="5.48333">
        <ele>206</ele>
        <time>2010-05-07T12:06:17Z</time>
      </trkpt>
      <trkpt lat="47.06555" lon="5.48319">
        <ele>206</ele>
        <time>2010-05-07T12:06:19Z</time>
      </trkpt>
      <trkpt lat="47.06549" lon="5.48307">
        <ele>206</ele>
        <time>2010-05-07T12:06:21Z</time>
      </trkpt>
      <trkpt lat="47.0654" lon="5.48297">
        <ele>206</ele>
        <time>2010-05-07T12:06:23Z</time>
      </trkpt>
      <trkpt lat="47.06529" lon="5.48289">
        <ele>206</ele>
        <time>2010-05-07T12:06:25Z</time>
      </trkpt>
      <trkpt lat="47.06519" lon="5.48281">
        <ele>206</ele>
        <time>2010-05-07T12:06:27Z</time>
      </trkpt>
      <trkpt lat="47.0651" lon="5.48275">
        <ele>206</ele>
        <time>2010-05-07T12:06:29Z</time>
      </trkpt>
      <trkpt lat="47.065" lon="5.48271">
        <ele>206</ele>
        <time>2010-05-07T12:06:31Z</time>
      </trkpt>
      <trkpt lat="47.06489" lon="5.48268">
        <ele>206</ele>
        <time>2010-05-07T12:06:33Z</time>
      </trkpt>
      <trkpt lat="47.06479" lon="5.48266">
        <ele>200</ele>
        <time>2010-05-07T12:06:35Z</time>
      </trkpt>
      <trkpt lat="47.06469" lon="5.48265">
        <ele>200</ele>
        <time>2010-05-07T12:06:37Z</time>
      </trkpt>
      <trkpt lat="47.06458" lon="5.48264">
        <ele>200</ele>
        <time>2010-05-07T12:06:39Z</time>
      </trkpt>
      <trkpt lat="47.06446" lon="5.48262">
        <ele>200</ele>
        <time>2010-05-07T12:06:41Z</time>
      </trkpt>
      <trkpt lat="47.06435" lon="5.48258">
        <ele>200</ele>
        <time>2010-05-07T12:06:43Z</time>
      </trkpt>
      <trkpt lat="47.06425" lon="5.48253">
        <ele>200</ele>
        <time>2010-05-07T12:06:45Z</time>
      </trkpt>
      <trkpt lat="47.06413" lon="5.48247">
        <ele>200</ele>
        <time>2010-05-07T12:06:47Z</time>
      </trkpt>
      <trkpt lat="47.06402" lon="5.48242">
        <ele>200</ele>
        <time>2010-05-07T12:06:49Z</time>
      </trkpt>
      <trkpt lat="47.0639" lon="5.48236">
        <ele>200</ele>
        <time>2010-05-07T12:06:51Z</time>
      </trkpt>
      <trkpt lat="47.06378" lon="5.48231">
        <ele>200</ele>
        <time>2010-05-07T12:06:53Z</time>
      </trkpt>
      <trkpt lat="47.06365" lon="5.48226">
        <ele>200</ele>
        <time>2010-05-07T12:06:55Z</time>
      </trkpt>
      <trkpt lat="47.06352" lon="5.48219">
        <ele>200</ele>
        <time>2010-05-07T12:06:57Z</time>
      </trkpt>
      <trkpt lat="47.06338" lon="5.48214">
        <ele>200</ele>
        <time>2010-05-07T12:06:59Z</time>
      </trkpt>
      <trkpt lat="47.06323" lon="5.4821">
        <ele>200</ele>
        <time>2010-05-07T12:07:01Z</time>
      </trkpt>
      <trkpt lat="47.06307" lon="5.48207">
        <ele>200</ele>
        <time>2010-05-07T12:07:03Z</time>
      </trkpt>
      <trkpt lat="47.06291" lon="5.48204">
        <ele>200</ele>
        <time>2010-05-07T12:07:05Z</time>
      </trkpt>
      <trkpt lat="47.06276" lon="5.48203">
        <ele>200</ele>
        <time>2010-05-07T12:07:07Z</time>
      </trkpt>
      <trkpt lat="47.06262" lon="5.48202">
        <ele>200</ele>
        <time>2010-05-07T12:07:09Z</time>
      </trkpt>
      <trkpt lat="47.06247" lon="5.48201">
        <ele>200</ele>
        <time>2010-05-07T12:07:11Z</time>
      </trkpt>
      <trkpt lat="47.06234" lon="5.48203">
        <ele>200</ele>
        <time>2010-05-07T12:07:13Z</time>
      </trkpt>
      <trkpt lat="47.0622" lon="5.48206">
        <ele>200</ele>
        <time>2010-05-07T12:07:15Z</time>
      </trkpt>
      <trkpt lat="47.06208" lon="5.48208">
        <ele>200</ele>
        <time>2010-05-07T12:07:17Z</time>
      </trkpt>
      <trkpt lat="47.06195" lon="5.48211">
        <ele>206</ele>
        <time>2010-05-07T12:07:19Z</time>
      </trkpt>
      <trkpt lat="47.06182" lon="5.48215">
        <ele>206</ele>
        <time>2010-05-07T12:07:21Z</time>
      </trkpt>
      <trkpt lat="47.06171" lon="5.48219">
        <ele>206</ele>
        <time>2010-05-07T12:07:23Z</time>
      </trkpt>
      <trkpt lat="47.06158" lon="5.48222">
        <ele>213</ele>
        <time>2010-05-07T12:07:25Z</time>
      </trkpt>
      <trkpt lat="47.06146" lon="5.48225">
        <ele>213</ele>
        <time>2010-05-07T12:07:27Z</time>
      </trkpt>
      <trkpt lat="47.06133" lon="5.48231">
        <ele>218</ele>
        <time>2010-05-07T12:07:29Z</time>
      </trkpt>
      <trkpt lat="47.0612" lon="5.48237">
        <ele>218</ele>
        <time>2010-05-07T12:07:31Z</time>
      </trkpt>
      <trkpt lat="47.06107" lon="5.48243">
        <ele>218</ele>
        <time>2010-05-07T12:07:33Z</time>
      </trkpt>
      <trkpt lat="47.06094" lon="5.48249">
        <ele>224</ele>
        <time>2010-05-07T12:07:35Z</time>
      </trkpt>
      <trkpt lat="47.0608" lon="5.48255">
        <ele>224</ele>
        <time>2010-05-07T12:07:37Z</time>
      </trkpt>
      <trkpt lat="47.0607" lon="5.4826">
        <ele>224</ele>
        <time>2010-05-07T12:07:39Z</time>
      </trkpt>
      <trkpt lat="47.06059" lon="5.48265">
        <ele>219</ele>
        <time>2010-05-07T12:07:41Z</time>
      </trkpt>
      <trkpt lat="47.06049" lon="5.48271">
        <ele>219</ele>
        <time>2010-05-07T12:07:43Z</time>
      </trkpt>
      <trkpt lat="47.06037" lon="5.48278">
        <ele>209</ele>
        <time>2010-05-07T12:07:45Z</time>
      </trkpt>
      <trkpt lat="47.06027" lon="5.48283">
        <ele>202</ele>
        <time>2010-05-07T12:07:47Z</time>
      </trkpt>
      <trkpt lat="47.06015" lon="5.48287">
        <ele>202</ele>
        <time>2010-05-07T12:07:49Z</time>
      </trkpt>
      <trkpt lat="47.06003" lon="5.48289">
        <ele>196</ele>
        <time>2010-05-07T12:07:51Z</time>
      </trkpt>
      <trkpt lat="47.05991" lon="5.4829">
        <ele>196</ele>
        <time>2010-05-07T12:07:53Z</time>
      </trkpt>
      <trkpt lat="47.05978" lon="5.48293">
        <ele>196</ele>
        <time>2010-05-07T12:07:55Z</time>
      </trkpt>
      <trkpt lat="47.05966" lon="5.48296">
        <ele>196</ele>
        <time>2010-05-07T12:07:57Z</time>
      </trkpt>
      <trkpt lat="47.05953" lon="5.48298">
        <ele>196</ele>
        <time>2010-05-07T12:07:59Z</time>
      </trkpt>
      <trkpt lat="47.0594" lon="5.48303">
        <ele>196</ele>
        <time>2010-05-07T12:08:01Z</time>
      </trkpt>
      <trkpt lat="47.05928" lon="5.48307">
        <ele>196</ele>
        <time>2010-05-07T12:08:03Z</time>
      </trkpt>
      <trkpt lat="47.05916" lon="5.48314">
        <ele>196</ele>
        <time>2010-05-07T12:08:05Z</time>
      </trkpt>
      <trkpt lat="47.05905" lon="5.48321">
        <ele>196</ele>
        <time>2010-05-07T12:08:07Z</time>
      </trkpt>
      <trkpt lat="47.05893" lon="5.48327">
        <ele>196</ele>
        <time>2010-05-07T12:08:09Z</time>
      </trkpt>
      <trkpt lat="47.05882" lon="5.48333">
        <ele>196</ele>
        <time>2010-05-07T12:08:11Z</time>
      </trkpt>
      <trkpt lat="47.0587" lon="5.48339">
        <ele>196</ele>
        <time>2010-05-07T12:08:13Z</time>
      </trkpt>
      <trkpt lat="47.05859" lon="5.48345">
        <ele>196</ele>
        <time>2010-05-07T12:08:15Z</time>
      </trkpt>
      <trkpt lat="47.05848" lon="5.48351">
        <ele>196</ele>
        <time>2010-05-07T12:08:17Z</time>
      </trkpt>
      <trkpt lat="47.05837" lon="5.48358">
        <ele>196</ele>
        <time>2010-05-07T12:08:19Z</time>
      </trkpt>
      <trkpt lat="47.05826" lon="5.48364">
        <ele>196</ele>
        <time>2010-05-07T12:08:21Z</time>
      </trkpt>
      <trkpt lat="47.05814" lon="5.48369">
        <ele>196</ele>
        <time>2010-05-07T12:08:23Z</time>
      </trkpt>
      <trkpt lat="47.05803" lon="5.48375">
        <ele>196</ele>
        <time>2010-05-07T12:08:25Z</time>
      </trkpt>
      <trkpt lat="47.05791" lon="5.48378">
        <ele>202</ele>
        <time>2010-05-07T12:08:27Z</time>
      </trkpt>
      <trkpt lat="47.05779" lon="5.48383">
        <ele>202</ele>
        <time>2010-05-07T12:08:29Z</time>
      </trkpt>
      <trkpt lat="47.05768" lon="5.48388">
        <ele>202</ele>
        <time>2010-05-07T12:08:31Z</time>
      </trkpt>
      <trkpt lat="47.05759" lon="5.48393">
        <ele>202</ele>
        <time>2010-05-07T12:08:33Z</time>
      </trkpt>
      <trkpt lat="47.05746" lon="5.48393">
        <ele>202</ele>
        <time>2010-05-07T12:08:36Z</time>
      </trkpt>
      <trkpt lat="47.05738" lon="5.48385">
        <ele>202</ele>
        <time>2010-05-07T12:08:38Z</time>
      </trkpt>
      <trkpt lat="47.05731" lon="5.48372">
        <ele>195</ele>
        <time>2010-05-07T12:08:40Z</time>
      </trkpt>
      <trkpt lat="47.05723" lon="5.48357">
        <ele>195</ele>
        <time>2010-05-07T12:08:42Z</time>
      </trkpt>
      <trkpt lat="47.05717" lon="5.48342">
        <ele>195</ele>
        <time>2010-05-07T12:08:44Z</time>
      </trkpt>
      <trkpt lat="47.05711" lon="5.48326">
        <ele>195</ele>
        <time>2010-05-07T12:08:46Z</time>
      </trkpt>
      <trkpt lat="47.05705" lon="5.48313">
        <ele>190</ele>
        <time>2010-05-07T12:08:48Z</time>
      </trkpt>
      <trkpt lat="47.05699" lon="5.48302">
        <ele>190</ele>
        <time>2010-05-07T12:08:50Z</time>
      </trkpt>
      <trkpt lat="47.05689" lon="5.48289">
        <ele>190</ele>
        <time>2010-05-07T12:08:53Z</time>
      </trkpt>
      <trkpt lat="47.05674" lon="5.48281">
        <ele>190</ele>
        <time>2010-05-07T12:08:55Z</time>
      </trkpt>
      <trkpt lat="47.0566" lon="5.48277">
        <ele>190</ele>
        <time>2010-05-07T12:08:57Z</time>
      </trkpt>
      <trkpt lat="47.05647" lon="5.48272">
        <ele>190</ele>
        <time>2010-05-07T12:08:59Z</time>
      </trkpt>
      <trkpt lat="47.05634" lon="5.48271">
        <ele>190</ele>
        <time>2010-05-07T12:09:01Z</time>
      </trkpt>
      <trkpt lat="47.05622" lon="5.4827">
        <ele>190</ele>
        <time>2010-05-07T12:09:03Z</time>
      </trkpt>
      <trkpt lat="47.0561" lon="5.48271">
        <ele>190</ele>
        <time>2010-05-07T12:09:05Z</time>
      </trkpt>
      <trkpt lat="47.05598" lon="5.48272">
        <ele>190</ele>
        <time>2010-05-07T12:09:07Z</time>
      </trkpt>
      <trkpt lat="47.05586" lon="5.48272">
        <ele>190</ele>
        <time>2010-05-07T12:09:09Z</time>
      </trkpt>
      <trkpt lat="47.05575" lon="5.48272">
        <ele>190</ele>
        <time>2010-05-07T12:09:11Z</time>
      </trkpt>
      <trkpt lat="47.05564" lon="5.48274">
        <ele>190</ele>
        <time>2010-05-07T12:09:13Z</time>
      </trkpt>
      <trkpt lat="47.05552" lon="5.48277">
        <ele>190</ele>
        <time>2010-05-07T12:09:15Z</time>
      </trkpt>
      <trkpt lat="47.05537" lon="5.48282">
        <ele>190</ele>
        <time>2010-05-07T12:09:17Z</time>
      </trkpt>
      <trkpt lat="47.05525" lon="5.48289">
        <ele>190</ele>
        <time>2010-05-07T12:09:19Z</time>
      </trkpt>
      <trkpt lat="47.05511" lon="5.48295">
        <ele>190</ele>
        <time>2010-05-07T12:09:21Z</time>
      </trkpt>
      <trkpt lat="47.05498" lon="5.48302">
        <ele>195</ele>
        <time>2010-05-07T12:09:23Z</time>
      </trkpt>
      <trkpt lat="47.05486" lon="5.48307">
        <ele>195</ele>
        <time>2010-05-07T12:09:25Z</time>
      </trkpt>
      <trkpt lat="47.05473" lon="5.48312">
        <ele>195</ele>
        <time>2010-05-07T12:09:27Z</time>
      </trkpt>
      <trkpt lat="47.05462" lon="5.48317">
        <ele>195</ele>
        <time>2010-05-07T12:09:29Z</time>
      </trkpt>
      <trkpt lat="47.0545" lon="5.48322">
        <ele>195</ele>
        <time>2010-05-07T12:09:31Z</time>
      </trkpt>
      <trkpt lat="47.05438" lon="5.48325">
        <ele>202</ele>
        <time>2010-05-07T12:09:33Z</time>
      </trkpt>
      <trkpt lat="47.05425" lon="5.48328">
        <ele>202</ele>
        <time>2010-05-07T12:09:35Z</time>
      </trkpt>
      <trkpt lat="47.05412" lon="5.48329">
        <ele>202</ele>
        <time>2010-05-07T12:09:37Z</time>
      </trkpt>
      <trkpt lat="47.05401" lon="5.48329">
        <ele>202</ele>
        <time>2010-05-07T12:09:39Z</time>
      </trkpt>
      <trkpt lat="47.05388" lon="5.48328">
        <ele>202</ele>
        <time>2010-05-07T12:09:41Z</time>
      </trkpt>
      <trkpt lat="47.05375" lon="5.48327">
        <ele>202</ele>
        <time>2010-05-07T12:09:43Z</time>
      </trkpt>
      <trkpt lat="47.05363" lon="5.48325">
        <ele>202</ele>
        <time>2010-05-07T12:09:45Z</time>
      </trkpt>
      <trkpt lat="47.0535" lon="5.48321">
        <ele>197</ele>
        <time>2010-05-07T12:09:47Z</time>
      </trkpt>
      <trkpt lat="47.05339" lon="5.48316">
        <ele>197</ele>
        <time>2010-05-07T12:09:49Z</time>
      </trkpt>
      <trkpt lat="47.05328" lon="5.48311">
        <ele>197</ele>
        <time>2010-05-07T12:09:51Z</time>
      </trkpt>
      <trkpt lat="47.05317" lon="5.48305">
        <ele>191</ele>
        <time>2010-05-07T12:09:53Z</time>
      </trkpt>
      <trkpt lat="47.05305" lon="5.48298">
        <ele>191</ele>
        <time>2010-05-07T12:09:55Z</time>
      </trkpt>
      <trkpt lat="47.05294" lon="5.48291">
        <ele>191</ele>
        <time>2010-05-07T12:09:57Z</time>
      </trkpt>
      <trkpt lat="47.05283" lon="5.48285">
        <ele>191</ele>
        <time>2010-05-07T12:09:59Z</time>
      </trkpt>
      <trkpt lat="47.05271" lon="5.48277">
        <ele>191</ele>
        <time>2010-05-07T12:10:01Z</time>
      </trkpt>
      <trkpt lat="47.0526" lon="5.48269">
        <ele>191</ele>
        <time>2010-05-07T12:10:03Z</time>
      </trkpt>
      <trkpt lat="47.05249" lon="5.4826">
        <ele>191</ele>
        <time>2010-05-07T12:10:05Z</time>
      </trkpt>
      <trkpt lat="47.05238" lon="5.4825">
        <ele>191</ele>
        <time>2010-05-07T12:10:07Z</time>
      </trkpt>
      <trkpt lat="47.05227" lon="5.48239">
        <ele>191</ele>
        <time>2010-05-07T12:10:09Z</time>
      </trkpt>
      <trkpt lat="47.05217" lon="5.48228">
        <ele>191</ele>
        <time>2010-05-07T12:10:11Z</time>
      </trkpt>
      <trkpt lat="47.05207" lon="5.48217">
        <ele>191</ele>
        <time>2010-05-07T12:10:13Z</time>
      </trkpt>
      <trkpt lat="47.05197" lon="5.48205">
        <ele>191</ele>
        <time>2010-05-07T12:10:15Z</time>
      </trkpt>
      <trkpt lat="47.05188" lon="5.48192">
        <ele>191</ele>
        <time>2010-05-07T12:10:17Z</time>
      </trkpt>
      <trkpt lat="47.05178" lon="5.4818">
        <ele>191</ele>
        <time>2010-05-07T12:10:19Z</time>
      </trkpt>
      <trkpt lat="47.05169" lon="5.48168">
        <ele>191</ele>
        <time>2010-05-07T12:10:21Z</time>
      </trkpt>
      <trkpt lat="47.05163" lon="5.48156">
        <ele>191</ele>
        <time>2010-05-07T12:10:23Z</time>
      </trkpt>
      <trkpt lat="47.05155" lon="5.48144">
        <ele>191</ele>
        <time>2010-05-07T12:10:25Z</time>
      </trkpt>
      <trkpt lat="47.05145" lon="5.4813">
        <ele>191</ele>
        <time>2010-05-07T12:10:27Z</time>
      </trkpt>
      <trkpt lat="47.05138" lon="5.48115">
        <ele>191</ele>
        <time>2010-05-07T12:10:29Z</time>
      </trkpt>
      <trkpt lat="47.05131" lon="5.48101">
        <ele>191</ele>
        <time>2010-05-07T12:10:31Z</time>
      </trkpt>
      <trkpt lat="47.05124" lon="5.48086">
        <ele>191</ele>
        <time>2010-05-07T12:10:33Z</time>
      </trkpt>
      <trkpt lat="47.05117" lon="5.48071">
        <ele>191</ele>
        <time>2010-05-07T12:10:35Z</time>
      </trkpt>
      <trkpt lat="47.0511" lon="5.48054">
        <ele>191</ele>
        <time>2010-05-07T12:10:37Z</time>
      </trkpt>
      <trkpt lat="47.05104" lon="5.48039">
        <ele>191</ele>
        <time>2010-05-07T12:10:39Z</time>
      </trkpt>
      <trkpt lat="47.05099" lon="5.48024">
        <ele>191</ele>
        <time>2010-05-07T12:10:41Z</time>
      </trkpt>
      <trkpt lat="47.05093" lon="5.48008">
        <ele>191</ele>
        <time>2010-05-07T12:10:43Z</time>
      </trkpt>
      <trkpt lat="47.05089" lon="5.47993">
        <ele>191</ele>
        <time>2010-05-07T12:10:45Z</time>
      </trkpt>
      <trkpt lat="47.05083" lon="5.47979">
        <ele>191</ele>
        <time>2010-05-07T12:10:47Z</time>
      </trkpt>
      <trkpt lat="47.05075" lon="5.47965">
        <ele>191</ele>
        <time>2010-05-07T12:10:49Z</time>
      </trkpt>
      <trkpt lat="47.05066" lon="5.47954">
        <ele>191</ele>
        <time>2010-05-07T12:10:51Z</time>
      </trkpt>
      <trkpt lat="47.05055" lon="5.47945">
        <ele>191</ele>
        <time>2010-05-07T12:10:53Z</time>
      </trkpt>
      <trkpt lat="47.05044" lon="5.47936">
        <ele>191</ele>
        <time>2010-05-07T12:10:55Z</time>
      </trkpt>
      <trkpt lat="47.05032" lon="5.47927">
        <ele>191</ele>
        <time>2010-05-07T12:10:57Z</time>
      </trkpt>
      <trkpt lat="47.0502" lon="5.47919">
        <ele>191</ele>
        <time>2010-05-07T12:10:59Z</time>
      </trkpt>
      <trkpt lat="47.05009" lon="5.47911">
        <ele>191</ele>
        <time>2010-05-07T12:11:01Z</time>
      </trkpt>
      <trkpt lat="47.04998" lon="5.47902">
        <ele>191</ele>
        <time>2010-05-07T12:11:03Z</time>
      </trkpt>
      <trkpt lat="47.04987" lon="5.47894">
        <ele>191</ele>
        <time>2010-05-07T12:11:05Z</time>
      </trkpt>
      <trkpt lat="47.04976" lon="5.47885">
        <ele>191</ele>
        <time>2010-05-07T12:11:07Z</time>
      </trkpt>
      <trkpt lat="47.04966" lon="5.47877">
        <ele>191</ele>
        <time>2010-05-07T12:11:09Z</time>
      </trkpt>
      <trkpt lat="47.04955" lon="5.47868">
        <ele>191</ele>
        <time>2010-05-07T12:11:11Z</time>
      </trkpt>
      <trkpt lat="47.04945" lon="5.4786">
        <ele>191</ele>
        <time>2010-05-07T12:11:13Z</time>
      </trkpt>
      <trkpt lat="47.04934" lon="5.47852">
        <ele>191</ele>
        <time>2010-05-07T12:11:15Z</time>
      </trkpt>
      <trkpt lat="47.04923" lon="5.47845">
        <ele>191</ele>
        <time>2010-05-07T12:11:17Z</time>
      </trkpt>
      <trkpt lat="47.04911" lon="5.47838">
        <ele>191</ele>
        <time>2010-05-07T12:11:19Z</time>
      </trkpt>
      <trkpt lat="47.049" lon="5.47831">
        <ele>191</ele>
        <time>2010-05-07T12:11:21Z</time>
      </trkpt>
      <trkpt lat="47.04888" lon="5.47826">
        <ele>191</ele>
        <time>2010-05-07T12:11:23Z</time>
      </trkpt>
      <trkpt lat="47.04876" lon="5.47822">
        <ele>191</ele>
        <time>2010-05-07T12:11:25Z</time>
      </trkpt>
      <trkpt lat="47.04865" lon="5.47819">
        <ele>191</ele>
        <time>2010-05-07T12:11:27Z</time>
      </trkpt>
      <trkpt lat="47.04853" lon="5.47815">
        <ele>191</ele>
        <time>2010-05-07T12:11:29Z</time>
      </trkpt>
      <trkpt lat="47.0484" lon="5.47812">
        <ele>191</ele>
        <time>2010-05-07T12:11:31Z</time>
      </trkpt>
      <trkpt lat="47.04828" lon="5.47809">
        <ele>191</ele>
        <time>2010-05-07T12:11:33Z</time>
      </trkpt>
      <trkpt lat="47.04816" lon="5.47805">
        <ele>191</ele>
        <time>2010-05-07T12:11:35Z</time>
      </trkpt>
      <trkpt lat="47.04803" lon="5.47803">
        <ele>191</ele>
        <time>2010-05-07T12:11:37Z</time>
      </trkpt>
      <trkpt lat="47.04792" lon="5.47799">
        <ele>191</ele>
        <time>2010-05-07T12:11:39Z</time>
      </trkpt>
      <trkpt lat="47.04781" lon="5.47796">
        <ele>191</ele>
        <time>2010-05-07T12:11:41Z</time>
      </trkpt>
      <trkpt lat="47.04768" lon="5.47793">
        <ele>191</ele>
        <time>2010-05-07T12:11:43Z</time>
      </trkpt>
      <trkpt lat="47.04757" lon="5.47789">
        <ele>191</ele>
        <time>2010-05-07T12:11:45Z</time>
      </trkpt>
      <trkpt lat="47.04745" lon="5.47785">
        <ele>191</ele>
        <time>2010-05-07T12:11:47Z</time>
      </trkpt>
      <trkpt lat="47.04733" lon="5.4778">
        <ele>191</ele>
        <time>2010-05-07T12:11:49Z</time>
      </trkpt>
      <trkpt lat="47.04721" lon="5.47774">
        <ele>191</ele>
        <time>2010-05-07T12:11:51Z</time>
      </trkpt>
      <trkpt lat="47.04709" lon="5.47768">
        <ele>191</ele>
        <time>2010-05-07T12:11:53Z</time>
      </trkpt>
      <trkpt lat="47.04698" lon="5.47759">
        <ele>191</ele>
        <time>2010-05-07T12:11:55Z</time>
      </trkpt>
      <trkpt lat="47.04686" lon="5.47751">
        <ele>191</ele>
        <time>2010-05-07T12:11:57Z</time>
      </trkpt>
      <trkpt lat="47.04676" lon="5.47742">
        <ele>191</ele>
        <time>2010-05-07T12:11:59Z</time>
      </trkpt>
      <trkpt lat="47.04665" lon="5.47733">
        <ele>191</ele>
        <time>2010-05-07T12:12:01Z</time>
      </trkpt>
      <trkpt lat="47.04654" lon="5.47724">
        <ele>191</ele>
        <time>2010-05-07T12:12:03Z</time>
      </trkpt>
      <trkpt lat="47.04643" lon="5.47714">
        <ele>191</ele>
        <time>2010-05-07T12:12:05Z</time>
      </trkpt>
      <trkpt lat="47.04632" lon="5.47704">
        <ele>191</ele>
        <time>2010-05-07T12:12:07Z</time>
      </trkpt>
      <trkpt lat="47.04621" lon="5.47693">
        <ele>191</ele>
        <time>2010-05-07T12:12:09Z</time>
      </trkpt>
      <trkpt lat="47.0461" lon="5.47682">
        <ele>191</ele>
        <time>2010-05-07T12:12:11Z</time>
      </trkpt>
      <trkpt lat="47.04601" lon="5.47671">
        <ele>191</ele>
        <time>2010-05-07T12:12:13Z</time>
      </trkpt>
      <trkpt lat="47.04591" lon="5.47661">
        <ele>191</ele>
        <time>2010-05-07T12:12:15Z</time>
      </trkpt>
      <trkpt lat="47.04582" lon="5.4765">
        <ele>191</ele>
        <time>2010-05-07T12:12:17Z</time>
      </trkpt>
      <trkpt lat="47.04571" lon="5.47639">
        <ele>191</ele>
        <time>2010-05-07T12:12:19Z</time>
      </trkpt>
      <trkpt lat="47.04561" lon="5.47627">
        <ele>191</ele>
        <time>2010-05-07T12:12:21Z</time>
      </trkpt>
      <trkpt lat="47.0455" lon="5.47616">
        <ele>191</ele>
        <time>2010-05-07T12:12:23Z</time>
      </trkpt>
      <trkpt lat="47.04541" lon="5.47603">
        <ele>191</ele>
        <time>2010-05-07T12:12:25Z</time>
      </trkpt>
      <trkpt lat="47.04531" lon="5.47591">
        <ele>191</ele>
        <time>2010-05-07T12:12:27Z</time>
      </trkpt>
      <trkpt lat="47.04522" lon="5.47579">
        <ele>191</ele>
        <time>2010-05-07T12:12:29Z</time>
      </trkpt>
      <trkpt lat="47.04511" lon="5.47566">
        <ele>191</ele>
        <time>2010-05-07T12:12:31Z</time>
      </trkpt>
      <trkpt lat="47.04502" lon="5.47555">
        <ele>191</ele>
        <time>2010-05-07T12:12:33Z</time>
      </trkpt>
      <trkpt lat="47.04492" lon="5.47543">
        <ele>191</ele>
        <time>2010-05-07T12:12:35Z</time>
      </trkpt>
      <trkpt lat="47.04482" lon="5.47531">
        <ele>191</ele>
        <time>2010-05-07T12:12:37Z</time>
      </trkpt>
      <trkpt lat="47.04473" lon="5.47519">
        <ele>191</ele>
        <time>2010-05-07T12:12:39Z</time>
      </trkpt>
      <trkpt lat="47.04463" lon="5.47506">
        <ele>191</ele>
        <time>2010-05-07T12:12:41Z</time>
      </trkpt>
      <trkpt lat="47.04454" lon="5.47494">
        <ele>191</ele>
        <time>2010-05-07T12:12:43Z</time>
      </trkpt>
      <trkpt lat="47.04445" lon="5.47484">
        <ele>191</ele>
        <time>2010-05-07T12:12:45Z</time>
      </trkpt>
      <trkpt lat="47.04434" lon="5.47474">
        <ele>191</ele>
        <time>2010-05-07T12:12:47Z</time>
      </trkpt>
      <trkpt lat="47.04425" lon="5.47464">
        <ele>191</ele>
        <time>2010-05-07T12:12:49Z</time>
      </trkpt>
      <trkpt lat="47.04414" lon="5.47455">
        <ele>191</ele>
        <time>2010-05-07T12:12:51Z</time>
      </trkpt>
      <trkpt lat="47.04402" lon="5.47447">
        <ele>191</ele>
        <time>2010-05-07T12:12:53Z</time>
      </trkpt>
      <trkpt lat="47.04391" lon="5.47439">
        <ele>191</ele>
        <time>2010-05-07T12:12:55Z</time>
      </trkpt>
      <trkpt lat="47.04381" lon="5.47431">
        <ele>191</ele>
        <time>2010-05-07T12:12:57Z</time>
      </trkpt>
      <trkpt lat="47.0437" lon="5.47423">
        <ele>191</ele>
        <time>2010-05-07T12:12:59Z</time>
      </trkpt>
      <trkpt lat="47.04359" lon="5.47415">
        <ele>191</ele>
        <time>2010-05-07T12:13:01Z</time>
      </trkpt>
      <trkpt lat="47.04348" lon="5.47406">
        <ele>191</ele>
        <time>2010-05-07T12:13:03Z</time>
      </trkpt>
      <trkpt lat="47.04337" lon="5.47398">
        <ele>191</ele>
        <time>2010-05-07T12:13:05Z</time>
      </trkpt>
      <trkpt lat="47.04326" lon="5.4739">
        <ele>191</ele>
        <time>2010-05-07T12:13:07Z</time>
      </trkpt>
      <trkpt lat="47.04316" lon="5.47383">
        <ele>191</ele>
        <time>2010-05-07T12:13:09Z</time>
      </trkpt>
      <trkpt lat="47.04307" lon="5.47377">
        <ele>191</ele>
        <time>2010-05-07T12:13:11Z</time>
      </trkpt>
      <trkpt lat="47.04298" lon="5.47371">
        <ele>191</ele>
        <time>2010-05-07T12:13:13Z</time>
      </trkpt>
      <trkpt lat="47.0429" lon="5.47364">
        <ele>191</ele>
        <time>2010-05-07T12:13:15Z</time>
      </trkpt>
      <trkpt lat="47.04282" lon="5.47358">
        <ele>191</ele>
        <time>2010-05-07T12:13:17Z</time>
      </trkpt>
      <trkpt lat="47.0427" lon="5.47353">
        <ele>191</ele>
        <time>2010-05-07T12:13:20Z</time>
      </trkpt>
      <trkpt lat="47.04259" lon="5.47358">
        <ele>191</ele>
        <time>2010-05-07T12:13:22Z</time>
      </trkpt>
      <trkpt lat="47.04253" lon="5.47369">
        <ele>191</ele>
        <time>2010-05-07T12:13:24Z</time>
      </trkpt>
      <trkpt lat="47.04246" lon="5.47383">
        <ele>191</ele>
        <time>2010-05-07T12:13:26Z</time>
      </trkpt>
      <trkpt lat="47.04241" lon="5.47398">
        <ele>198</ele>
        <time>2010-05-07T12:13:28Z</time>
      </trkpt>
      <trkpt lat="47.04236" lon="5.47415">
        <ele>198</ele>
        <time>2010-05-07T12:13:30Z</time>
      </trkpt>
      <trkpt lat="47.04232" lon="5.47431">
        <ele>198</ele>
        <time>2010-05-07T12:13:32Z</time>
      </trkpt>
      <trkpt lat="47.0423" lon="5.47448">
        <ele>198</ele>
        <time>2010-05-07T12:13:34Z</time>
      </trkpt>
      <trkpt lat="47.04229" lon="5.47465">
        <ele>198</ele>
        <time>2010-05-07T12:13:36Z</time>
      </trkpt>
      <trkpt lat="47.04229" lon="5.47482">
        <ele>198</ele>
        <time>2010-05-07T12:13:38Z</time>
      </trkpt>
      <trkpt lat="47.04229" lon="5.475">
        <ele>198</ele>
        <time>2010-05-07T12:13:40Z</time>
      </trkpt>
      <trkpt lat="47.04229" lon="5.47517">
        <ele>198</ele>
        <time>2010-05-07T12:13:42Z</time>
      </trkpt>
      <trkpt lat="47.0423" lon="5.47535">
        <ele>198</ele>
        <time>2010-05-07T12:13:44Z</time>
      </trkpt>
      <trkpt lat="47.0423" lon="5.47552">
        <ele>198</ele>
        <time>2010-05-07T12:13:46Z</time>
      </trkpt>
      <trkpt lat="47.04231" lon="5.47569">
        <ele>198</ele>
        <time>2010-05-07T12:13:48Z</time>
      </trkpt>
      <trkpt lat="47.04231" lon="5.47586">
        <ele>198</ele>
        <time>2010-05-07T12:13:50Z</time>
      </trkpt>
      <trkpt lat="47.04232" lon="5.47604">
        <ele>198</ele>
        <time>2010-05-07T12:13:52Z</time>
      </trkpt>
      <trkpt lat="47.04232" lon="5.47622">
        <ele>198</ele>
        <time>2010-05-07T12:13:54Z</time>
      </trkpt>
      <trkpt lat="47.04234" lon="5.4764">
        <ele>198</ele>
        <time>2010-05-07T12:13:56Z</time>
      </trkpt>
      <trkpt lat="47.04235" lon="5.47659">
        <ele>198</ele>
        <time>2010-05-07T12:13:58Z</time>
      </trkpt>
      <trkpt lat="47.04237" lon="5.47677">
        <ele>198</ele>
        <time>2010-05-07T12:14:00Z</time>
      </trkpt>
      <trkpt lat="47.0424" lon="5.47695">
        <ele>198</ele>
        <time>2010-05-07T12:14:02Z</time>
      </trkpt>
      <trkpt lat="47.04242" lon="5.47712">
        <ele>198</ele>
        <time>2010-05-07T12:14:04Z</time>
      </trkpt>
      <trkpt lat="47.04245" lon="5.4773">
        <ele>198</ele>
        <time>2010-05-07T12:14:06Z</time>
      </trkpt>
      <trkpt lat="47.04248" lon="5.47747">
        <ele>198</ele>
        <time>2010-05-07T12:14:08Z</time>
      </trkpt>
      <trkpt lat="47.04251" lon="5.47764">
        <ele>198</ele>
        <time>2010-05-07T12:14:10Z</time>
      </trkpt>
      <trkpt lat="47.04254" lon="5.47781">
        <ele>198</ele>
        <time>2010-05-07T12:14:12Z</time>
      </trkpt>
      <trkpt lat="47.04258" lon="5.47798">
        <ele>198</ele>
        <time>2010-05-07T12:14:14Z</time>
      </trkpt>
      <trkpt lat="47.04262" lon="5.47814">
        <ele>198</ele>
        <time>2010-05-07T12:14:16Z</time>
      </trkpt>
      <trkpt lat="47.04267" lon="5.47831">
        <ele>198</ele>
        <time>2010-05-07T12:14:18Z</time>
      </trkpt>
      <trkpt lat="47.04272" lon="5.47848">
        <ele>198</ele>
        <time>2010-05-07T12:14:20Z</time>
      </trkpt>
      <trkpt lat="47.04275" lon="5.47865">
        <ele>198</ele>
        <time>2010-05-07T12:14:22Z</time>
      </trkpt>
      <trkpt lat="47.0428" lon="5.47881">
        <ele>198</ele>
        <time>2010-05-07T12:14:24Z</time>
      </trkpt>
      <trkpt lat="47.04284" lon="5.47897">
        <ele>198</ele>
        <time>2010-05-07T12:14:26Z</time>
      </trkpt>
      <trkpt lat="47.04289" lon="5.47914">
        <ele>198</ele>
        <time>2010-05-07T12:14:28Z</time>
      </trkpt>
      <trkpt lat="47.04294" lon="5.47932">
        <ele>198</ele>
        <time>2010-05-07T12:14:30Z</time>
      </trkpt>
      <trkpt lat="47.04298" lon="5.47949">
        <ele>198</ele>
        <time>2010-05-07T12:14:32Z</time>
      </trkpt>
      <trkpt lat="47.04303" lon="5.47966">
        <ele>198</ele>
        <time>2010-05-07T12:14:34Z</time>
      </trkpt>
      <trkpt lat="47.04307" lon="5.47983">
        <ele>198</ele>
        <time>2010-05-07T12:14:36Z</time>
      </trkpt>
      <trkpt lat="47.04312" lon="5.48001">
        <ele>198</ele>
        <time>2010-05-07T12:14:38Z</time>
      </trkpt>
      <trkpt lat="47.04316" lon="5.48017">
        <ele>198</ele>
        <time>2010-05-07T12:14:40Z</time>
      </trkpt>
      <trkpt lat="47.0432" lon="5.48034">
        <ele>198</ele>
        <time>2010-05-07T12:14:42Z</time>
      </trkpt>
      <trkpt lat="47.04324" lon="5.48051">
        <ele>198</ele>
        <time>2010-05-07T12:14:44Z</time>
      </trkpt>
      <trkpt lat="47.04329" lon="5.48068">
        <ele>198</ele>
        <time>2010-05-07T12:14:46Z</time>
      </trkpt>
      <trkpt lat="47.04333" lon="5.48084">
        <ele>198</ele>
        <time>2010-05-07T12:14:48Z</time>
      </trkpt>
      <trkpt lat="47.04337" lon="5.481">
        <ele>198</ele>
        <time>2010-05-07T12:14:50Z</time>
      </trkpt>
      <trkpt lat="47.04342" lon="5.48116">
        <ele>198</ele>
        <time>2010-05-07T12:14:52Z</time>
      </trkpt>
      <trkpt lat="47.04345" lon="5.48132">
        <ele>198</ele>
        <time>2010-05-07T12:14:54Z</time>
      </trkpt>
      <trkpt lat="47.0435" lon="5.48148">
        <ele>198</ele>
        <time>2010-05-07T12:14:56Z</time>
      </trkpt>
      <trkpt lat="47.04354" lon="5.48165">
        <ele>198</ele>
        <time>2010-05-07T12:14:58Z</time>
      </trkpt>
      <trkpt lat="47.04359" lon="5.48182">
        <ele>198</ele>
        <time>2010-05-07T12:15:00Z</time>
      </trkpt>
      <trkpt lat="47.04364" lon="5.48198">
        <ele>198</ele>
        <time>2010-05-07T12:15:02Z</time>
      </trkpt>
      <trkpt lat="47.04369" lon="5.48214">
        <ele>198</ele>
        <time>2010-05-07T12:15:04Z</time>
      </trkpt>
      <trkpt lat="47.04373" lon="5.48231">
        <ele>198</ele>
        <time>2010-05-07T12:15:06Z</time>
      </trkpt>
      <trkpt lat="47.04378" lon="5.48247">
        <ele>198</ele>
        <time>2010-05-07T12:15:08Z</time>
      </trkpt>
      <trkpt lat="47.04383" lon="5.48263">
        <ele>198</ele>
        <time>2010-05-07T12:15:10Z</time>
      </trkpt>
      <trkpt lat="47.04388" lon="5.4828">
        <ele>198</ele>
        <time>2010-05-07T12:15:12Z</time>
      </trkpt>
      <trkpt lat="47.04393" lon="5.48296">
        <ele>198</ele>
        <time>2010-05-07T12:15:14Z</time>
      </trkpt>
      <trkpt lat="47.04397" lon="5.48312">
        <ele>198</ele>
        <time>2010-05-07T12:15:16Z</time>
      </trkpt>
      <trkpt lat="47.04402" lon="5.48328">
        <ele>198</ele>
        <time>2010-05-07T12:15:18Z</time>
      </trkpt>
      <trkpt lat="47.04407" lon="5.48343">
        <ele>198</ele>
        <time>2010-05-07T12:15:20Z</time>
      </trkpt>
      <trkpt lat="47.04411" lon="5.4836">
        <ele>198</ele>
        <time>2010-05-07T12:15:22Z</time>
      </trkpt>
      <trkpt lat="47.04416" lon="5.48375">
        <ele>198</ele>
        <time>2010-05-07T12:15:24Z</time>
      </trkpt>
      <trkpt lat="47.0442" lon="5.48391">
        <ele>198</ele>
        <time>2010-05-07T12:15:26Z</time>
      </trkpt>
      <trkpt lat="47.04425" lon="5.48407">
        <ele>198</ele>
        <time>2010-05-07T12:15:28Z</time>
      </trkpt>
      <trkpt lat="47.04429" lon="5.48423">
        <ele>198</ele>
        <time>2010-05-07T12:15:30Z</time>
      </trkpt>
      <trkpt lat="47.04434" lon="5.48439">
        <ele>198</ele>
        <time>2010-05-07T12:15:32Z</time>
      </trkpt>
      <trkpt lat="47.04439" lon="5.48456">
        <ele>198</ele>
        <time>2010-05-07T12:15:34Z</time>
      </trkpt>
      <trkpt lat="47.04443" lon="5.48473">
        <ele>198</ele>
        <time>2010-05-07T12:15:36Z</time>
      </trkpt>
      <trkpt lat="47.04447" lon="5.4849">
        <ele>198</ele>
        <time>2010-05-07T12:15:38Z</time>
      </trkpt>
      <trkpt lat="47.0445" lon="5.48507">
        <ele>198</ele>
        <time>2010-05-07T12:15:40Z</time>
      </trkpt>
      <trkpt lat="47.04452" lon="5.48524">
        <ele>198</ele>
        <time>2010-05-07T12:15:42Z</time>
      </trkpt>
      <trkpt lat="47.04454" lon="5.48541">
        <ele>198</ele>
        <time>2010-05-07T12:15:44Z</time>
      </trkpt>
      <trkpt lat="47.04455" lon="5.48558">
        <ele>198</ele>
        <time>2010-05-07T12:15:46Z</time>
      </trkpt>
      <trkpt lat="47.04457" lon="5.48576">
        <ele>198</ele>
        <time>2010-05-07T12:15:48Z</time>
      </trkpt>
      <trkpt lat="47.04458" lon="5.48593">
        <ele>198</ele>
        <time>2010-05-07T12:15:50Z</time>
      </trkpt>
      <trkpt lat="47.04459" lon="5.4861">
        <ele>198</ele>
        <time>2010-05-07T12:15:52Z</time>
      </trkpt>
      <trkpt lat="47.0446" lon="5.48628">
        <ele>198</ele>
        <time>2010-05-07T12:15:54Z</time>
      </trkpt>
      <trkpt lat="47.04461" lon="5.48645">
        <ele>198</ele>
        <time>2010-05-07T12:15:56Z</time>
      </trkpt>
      <trkpt lat="47.04463" lon="5.48663">
        <ele>198</ele>
        <time>2010-05-07T12:15:58Z</time>
      </trkpt>
      <trkpt lat="47.04464" lon="5.4868">
        <ele>198</ele>
        <time>2010-05-07T12:16:00Z</time>
      </trkpt>
      <trkpt lat="47.04465" lon="5.48698">
        <ele>198</ele>
        <time>2010-05-07T12:16:02Z</time>
      </trkpt>
      <trkpt lat="47.04466" lon="5.48715">
        <ele>198</ele>
        <time>2010-05-07T12:16:04Z</time>
      </trkpt>
      <trkpt lat="47.04468" lon="5.48733">
        <ele>198</ele>
        <time>2010-05-07T12:16:06Z</time>
      </trkpt>
      <trkpt lat="47.0447" lon="5.48752">
        <ele>198</ele>
        <time>2010-05-07T12:16:08Z</time>
      </trkpt>
      <trkpt lat="47.04474" lon="5.48769">
        <ele>198</ele>
        <time>2010-05-07T12:16:10Z</time>
      </trkpt>
      <trkpt lat="47.0448" lon="5.48784">
        <ele>198</ele>
        <time>2010-05-07T12:16:12Z</time>
      </trkpt>
      <trkpt lat="47.04489" lon="5.48799">
        <ele>198</ele>
        <time>2010-05-07T12:16:14Z</time>
      </trkpt>
      <trkpt lat="47.04499" lon="5.48811">
        <ele>198</ele>
        <time>2010-05-07T12:16:16Z</time>
      </trkpt>
      <trkpt lat="47.04509" lon="5.4882">
        <ele>198</ele>
        <time>2010-05-07T12:16:18Z</time>
      </trkpt>
      <trkpt lat="47.04522" lon="5.48827">
        <ele>198</ele>
        <time>2010-05-07T12:16:20Z</time>
      </trkpt>
      <trkpt lat="47.04533" lon="5.48829">
        <ele>198</ele>
        <time>2010-05-07T12:16:22Z</time>
      </trkpt>
      <trkpt lat="47.04545" lon="5.48831">
        <ele>198</ele>
        <time>2010-05-07T12:16:24Z</time>
      </trkpt>
      <trkpt lat="47.04557" lon="5.48833">
        <ele>198</ele>
        <time>2010-05-07T12:16:26Z</time>
      </trkpt>
      <trkpt lat="47.04568" lon="5.48836">
        <ele>198</ele>
        <time>2010-05-07T12:16:28Z</time>
      </trkpt>
      <trkpt lat="47.04577" lon="5.48844">
        <ele>198</ele>
        <time>2010-05-07T12:16:30Z</time>
      </trkpt>
      <trkpt lat="47.04582" lon="5.48857">
        <ele>198</ele>
        <time>2010-05-07T12:16:32Z</time>
      </trkpt>
      <trkpt lat="47.04584" lon="5.48873">
        <ele>198</ele>
        <time>2010-05-07T12:16:34Z</time>
      </trkpt>
      <trkpt lat="47.04582" lon="5.4889">
        <ele>198</ele>
        <time>2010-05-07T12:16:36Z</time>
      </trkpt>
      <trkpt lat="47.04581" lon="5.48907">
        <ele>198</ele>
        <time>2010-05-07T12:16:38Z</time>
      </trkpt>
      <trkpt lat="47.04579" lon="5.48924">
        <ele>198</ele>
        <time>2010-05-07T12:16:40Z</time>
      </trkpt>
      <trkpt lat="47.04577" lon="5.48941">
        <ele>198</ele>
        <time>2010-05-07T12:16:42Z</time>
      </trkpt>
      <trkpt lat="47.04575" lon="5.48958">
        <ele>198</ele>
        <time>2010-05-07T12:16:44Z</time>
      </trkpt>
      <trkpt lat="47.04573" lon="5.48975">
        <ele>198</ele>
        <time>2010-05-07T12:16:46Z</time>
      </trkpt>
      <trkpt lat="47.04571" lon="5.48992">
        <ele>198</ele>
        <time>2010-05-07T12:16:48Z</time>
      </trkpt>
      <trkpt lat="47.0457" lon="5.4901">
        <ele>198</ele>
        <time>2010-05-07T12:16:50Z</time>
      </trkpt>
      <trkpt lat="47.04568" lon="5.49027">
        <ele>198</ele>
        <time>2010-05-07T12:16:52Z</time>
      </trkpt>
      <trkpt lat="47.04566" lon="5.49044">
        <ele>198</ele>
        <time>2010-05-07T12:16:54Z</time>
      </trkpt>
      <trkpt lat="47.04564" lon="5.49061">
        <ele>198</ele>
        <time>2010-05-07T12:16:56Z</time>
      </trkpt>
      <trkpt lat="47.04562" lon="5.49079">
        <ele>198</ele>
        <time>2010-05-07T12:16:58Z</time>
      </trkpt>
      <trkpt lat="47.0456" lon="5.49096">
        <ele>198</ele>
        <time>2010-05-07T12:17:00Z</time>
      </trkpt>
      <trkpt lat="47.04558" lon="5.49113">
        <ele>198</ele>
        <time>2010-05-07T12:17:02Z</time>
      </trkpt>
      <trkpt lat="47.04556" lon="5.4913">
        <ele>198</ele>
        <time>2010-05-07T12:17:04Z</time>
      </trkpt>
      <trkpt lat="47.04554" lon="5.49146">
        <ele>198</ele>
        <time>2010-05-07T12:17:06Z</time>
      </trkpt>
      <trkpt lat="47.0455" lon="5.49163">
        <ele>198</ele>
        <time>2010-05-07T12:17:08Z</time>
      </trkpt>
      <trkpt lat="47.04549" lon="5.49179">
        <ele>198</ele>
        <time>2010-05-07T12:17:10Z</time>
      </trkpt>
      <trkpt lat="47.04546" lon="5.49195">
        <ele>198</ele>
        <time>2010-05-07T12:17:12Z</time>
      </trkpt>
      <trkpt lat="47.04542" lon="5.49211">
        <ele>198</ele>
        <time>2010-05-07T12:17:14Z</time>
      </trkpt>
      <trkpt lat="47.04538" lon="5.49225">
        <ele>198</ele>
        <time>2010-05-07T12:17:16Z</time>
      </trkpt>
      <trkpt lat="47.04534" lon="5.49239">
        <ele>198</ele>
        <time>2010-05-07T12:17:18Z</time>
      </trkpt>
      <trkpt lat="47.04528" lon="5.49252">
        <ele>203</ele>
        <time>2010-05-07T12:17:20Z</time>
      </trkpt>
      <trkpt lat="47.04523" lon="5.49267">
        <ele>203</ele>
        <time>2010-05-07T12:17:22Z</time>
      </trkpt>
      <trkpt lat="47.04519" lon="5.4928">
        <ele>203</ele>
        <time>2010-05-07T12:17:24Z</time>
      </trkpt>
      <trkpt lat="47.04514" lon="5.49296">
        <ele>203</ele>
        <time>2010-05-07T12:17:26Z</time>
      </trkpt>
      <trkpt lat="47.0451" lon="5.49313">
        <ele>203</ele>
        <time>2010-05-07T12:17:28Z</time>
      </trkpt>
      <trkpt lat="47.04509" lon="5.49331">
        <ele>203</ele>
        <time>2010-05-07T12:17:30Z</time>
      </trkpt>
      <trkpt lat="47.04507" lon="5.49349">
        <ele>203</ele>
        <time>2010-05-07T12:17:32Z</time>
      </trkpt>
      <trkpt lat="47.04506" lon="5.49366">
        <ele>203</ele>
        <time>2010-05-07T12:17:34Z</time>
      </trkpt>
      <trkpt lat="47.04504" lon="5.49382">
        <ele>203</ele>
        <time>2010-05-07T12:17:36Z</time>
      </trkpt>
      <trkpt lat="47.04503" lon="5.49398">
        <ele>203</ele>
        <time>2010-05-07T12:17:38Z</time>
      </trkpt>
      <trkpt lat="47.04501" lon="5.49414">
        <ele>203</ele>
        <time>2010-05-07T12:17:40Z</time>
      </trkpt>
      <trkpt lat="47.045" lon="5.4943">
        <ele>203</ele>
        <time>2010-05-07T12:17:42Z</time>
      </trkpt>
      <trkpt lat="47.04499" lon="5.49446">
        <ele>203</ele>
        <time>2010-05-07T12:17:44Z</time>
      </trkpt>
      <trkpt lat="47.04498" lon="5.4946">
        <ele>203</ele>
        <time>2010-05-07T12:17:46Z</time>
      </trkpt>
      <trkpt lat="47.04498" lon="5.49474">
        <ele>203</ele>
        <time>2010-05-07T12:17:48Z</time>
      </trkpt>
      <trkpt lat="47.04498" lon="5.49492">
        <ele>203</ele>
        <time>2010-05-07T12:17:51Z</time>
      </trkpt>
      <trkpt lat="47.045" lon="5.49506">
        <ele>203</ele>
        <time>2010-05-07T12:17:54Z</time>
      </trkpt>
      <trkpt lat="47.04501" lon="5.4952">
        <ele>203</ele>
        <time>2010-05-07T12:18:01Z</time>
      </trkpt>
      <trkpt lat="47.04498" lon="5.49535">
        <ele>203</ele>
        <time>2010-05-07T12:18:08Z</time>
      </trkpt>
      <trkpt lat="47.04495" lon="5.49549">
        <ele>209</ele>
        <time>2010-05-07T12:18:12Z</time>
      </trkpt>
      <trkpt lat="47.04495" lon="5.49563">
        <ele>209</ele>
        <time>2010-05-07T12:18:17Z</time>
      </trkpt>
      <trkpt lat="47.04494" lon="5.4958">
        <ele>209</ele>
        <time>2010-05-07T12:18:22Z</time>
      </trkpt>
      <trkpt lat="47.04494" lon="5.49594">
        <ele>203</ele>
        <time>2010-05-07T12:18:25Z</time>
      </trkpt>
      <trkpt lat="47.04494" lon="5.49609">
        <ele>203</ele>
        <time>2010-05-07T12:18:28Z</time>
      </trkpt>
      <trkpt lat="47.04498" lon="5.49623">
        <ele>203</ele>
        <time>2010-05-07T12:18:31Z</time>
      </trkpt>
      <trkpt lat="47.04504" lon="5.49635">
        <ele>203</ele>
        <time>2010-05-07T12:18:34Z</time>
      </trkpt>
      <trkpt lat="47.04512" lon="5.49646">
        <ele>203</ele>
        <time>2010-05-07T12:18:38Z</time>
      </trkpt>
      <trkpt lat="47.0452" lon="5.49652">
        <ele>203</ele>
        <time>2010-05-07T12:18:41Z</time>
      </trkpt>
      <trkpt lat="47.04531" lon="5.49661">
        <ele>203</ele>
        <time>2010-05-07T12:18:45Z</time>
      </trkpt>
      <trkpt lat="47.04541" lon="5.49667">
        <ele>203</ele>
        <time>2010-05-07T12:18:48Z</time>
      </trkpt>
      <trkpt lat="47.04551" lon="5.49673">
        <ele>203</ele>
        <time>2010-05-07T12:18:51Z</time>
      </trkpt>
      <trkpt lat="47.04561" lon="5.49678">
        <ele>203</ele>
        <time>2010-05-07T12:18:54Z</time>
      </trkpt>
      <trkpt lat="47.04571" lon="5.49685">
        <ele>203</ele>
        <time>2010-05-07T12:18:58Z</time>
      </trkpt>
      <trkpt lat="47.04573" lon="5.49701">
        <ele>203</ele>
        <time>2010-05-07T12:19:04Z</time>
      </trkpt>
      <trkpt lat="47.04567" lon="5.49713">
        <ele>203</ele>
        <time>2010-05-07T12:19:08Z</time>
      </trkpt>
      <trkpt lat="47.04559" lon="5.49726">
        <ele>209</ele>
        <time>2010-05-07T12:19:12Z</time>
      </trkpt>
      <trkpt lat="47.04552" lon="5.49739">
        <ele>209</ele>
        <time>2010-05-07T12:19:15Z</time>
      </trkpt>
      <trkpt lat="47.04545" lon="5.49755">
        <ele>209</ele>
        <time>2010-05-07T12:19:18Z</time>
      </trkpt>
      <trkpt lat="47.04538" lon="5.49768">
        <ele>216</ele>
        <time>2010-05-07T12:19:21Z</time>
      </trkpt>
      <trkpt lat="47.04532" lon="5.49782">
        <ele>216</ele>
        <time>2010-05-07T12:19:24Z</time>
      </trkpt>
      <trkpt lat="47.04527" lon="5.49797">
        <ele>222</ele>
        <time>2010-05-07T12:19:27Z</time>
      </trkpt>
      <trkpt lat="47.04521" lon="5.49811">
        <ele>222</ele>
        <time>2010-05-07T12:19:30Z</time>
      </trkpt>
      <trkpt lat="47.04515" lon="5.49828">
        <ele>228</ele>
        <time>2010-05-07T12:19:33Z</time>
      </trkpt>
      <trkpt lat="47.04509" lon="5.49841">
        <ele>228</ele>
        <time>2010-05-07T12:19:35Z</time>
      </trkpt>
      <trkpt lat="47.04505" lon="5.49856">
        <ele>228</ele>
        <time>2010-05-07T12:19:37Z</time>
      </trkpt>
      <trkpt lat="47.04501" lon="5.49871">
        <ele>228</ele>
        <time>2010-05-07T12:19:39Z</time>
      </trkpt>
      <trkpt lat="47.04499" lon="5.49888">
        <ele>228</ele>
        <time>2010-05-07T12:19:41Z</time>
      </trkpt>
      <trkpt lat="47.04498" lon="5.49904">
        <ele>222</ele>
        <time>2010-05-07T12:19:43Z</time>
      </trkpt>
      <trkpt lat="47.04498" lon="5.49921">
        <ele>222</ele>
        <time>2010-05-07T12:19:45Z</time>
      </trkpt>
      <trkpt lat="47.04499" lon="5.49938">
        <ele>222</ele>
        <time>2010-05-07T12:19:47Z</time>
      </trkpt>
      <trkpt lat="47.04502" lon="5.49954">
        <ele>222</ele>
        <time>2010-05-07T12:19:49Z</time>
      </trkpt>
      <trkpt lat="47.04506" lon="5.49969">
        <ele>217</ele>
        <time>2010-05-07T12:19:51Z</time>
      </trkpt>
      <trkpt lat="47.04511" lon="5.49984">
        <ele>217</ele>
        <time>2010-05-07T12:19:53Z</time>
      </trkpt>
      <trkpt lat="47.04517" lon="5.49998">
        <ele>217</ele>
        <time>2010-05-07T12:19:55Z</time>
      </trkpt>
      <trkpt lat="47.04527" lon="5.50016">
        <ele>209</ele>
        <time>2010-05-07T12:19:57Z</time>
      </trkpt>
      <trkpt lat="47.04535" lon="5.5003">
        <ele>209</ele>
        <time>2010-05-07T12:19:59Z</time>
      </trkpt>
      <trkpt lat="47.04542" lon="5.50044">
        <ele>209</ele>
        <time>2010-05-07T12:20:01Z</time>
      </trkpt>
      <trkpt lat="47.0455" lon="5.50056">
        <ele>203</ele>
        <time>2010-05-07T12:20:03Z</time>
      </trkpt>
      <trkpt lat="47.04556" lon="5.5007">
        <ele>203</ele>
        <time>2010-05-07T12:20:05Z</time>
      </trkpt>
      <trkpt lat="47.04563" lon="5.50083">
        <ele>203</ele>
        <time>2010-05-07T12:20:07Z</time>
      </trkpt>
      <trkpt lat="47.04569" lon="5.50097">
        <ele>203</ele>
        <time>2010-05-07T12:20:09Z</time>
      </trkpt>
      <trkpt lat="47.04576" lon="5.50109">
        <ele>203</ele>
        <time>2010-05-07T12:20:11Z</time>
      </trkpt>
      <trkpt lat="47.04582" lon="5.50123">
        <ele>203</ele>
        <time>2010-05-07T12:20:13Z</time>
      </trkpt>
      <trkpt lat="47.04588" lon="5.50136">
        <ele>203</ele>
        <time>2010-05-07T12:20:15Z</time>
      </trkpt>
      <trkpt lat="47.04594" lon="5.50147">
        <ele>203</ele>
        <time>2010-05-07T12:20:17Z</time>
      </trkpt>
      <trkpt lat="47.04601" lon="5.5016">
        <ele>203</ele>
        <time>2010-05-07T12:20:19Z</time>
      </trkpt>
      <trkpt lat="47.04607" lon="5.50171">
        <ele>203</ele>
        <time>2010-05-07T12:20:21Z</time>
      </trkpt>
      <trkpt lat="47.04613" lon="5.50184">
        <ele>203</ele>
        <time>2010-05-07T12:20:23Z</time>
      </trkpt>
      <trkpt lat="47.04619" lon="5.50196">
        <ele>203</ele>
        <time>2010-05-07T12:20:25Z</time>
      </trkpt>
      <trkpt lat="47.04625" lon="5.50207">
        <ele>203</ele>
        <time>2010-05-07T12:20:27Z</time>
      </trkpt>
      <trkpt lat="47.04631" lon="5.50218">
        <ele>203</ele>
        <time>2010-05-07T12:20:29Z</time>
      </trkpt>
      <trkpt lat="47.04636" lon="5.50229">
        <ele>203</ele>
        <time>2010-05-07T12:20:31Z</time>
      </trkpt>
      <trkpt lat="47.04644" lon="5.50243">
        <ele>203</ele>
        <time>2010-05-07T12:20:34Z</time>
      </trkpt>
      <trkpt lat="47.04652" lon="5.50257">
        <ele>203</ele>
        <time>2010-05-07T12:20:37Z</time>
      </trkpt>
      <trkpt lat="47.04659" lon="5.50271">
        <ele>203</ele>
        <time>2010-05-07T12:20:40Z</time>
      </trkpt>
      <trkpt lat="47.04663" lon="5.50285">
        <ele>203</ele>
        <time>2010-05-07T12:20:43Z</time>
      </trkpt>
      <trkpt lat="47.04667" lon="5.503">
        <ele>203</ele>
        <time>2010-05-07T12:20:46Z</time>
      </trkpt>
      <trkpt lat="47.04668" lon="5.50315">
        <ele>203</ele>
        <time>2010-05-07T12:20:49Z</time>
      </trkpt>
      <trkpt lat="47.04668" lon="5.50329">
        <ele>203</ele>
        <time>2010-05-07T12:20:51Z</time>
      </trkpt>
      <trkpt lat="47.04664" lon="5.50347">
        <ele>208</ele>
        <time>2010-05-07T12:20:54Z</time>
      </trkpt>
      <trkpt lat="47.0466" lon="5.5036">
        <ele>208</ele>
        <time>2010-05-07T12:20:56Z</time>
      </trkpt>
      <trkpt lat="47.04655" lon="5.50372">
        <ele>208</ele>
        <time>2010-05-07T12:20:58Z</time>
      </trkpt>
      <trkpt lat="47.04651" lon="5.50384">
        <ele>208</ele>
        <time>2010-05-07T12:21:00Z</time>
      </trkpt>
      <trkpt lat="47.04647" lon="5.50397">
        <ele>208</ele>
        <time>2010-05-07T12:21:02Z</time>
      </trkpt>
      <trkpt lat="47.04643" lon="5.50409">
        <ele>208</ele>
        <time>2010-05-07T12:21:04Z</time>
      </trkpt>
      <trkpt lat="47.04639" lon="5.50421">
        <ele>208</ele>
        <time>2010-05-07T12:21:06Z</time>
      </trkpt>
      <trkpt lat="47.04635" lon="5.50433">
        <ele>208</ele>
        <time>2010-05-07T12:21:08Z</time>
      </trkpt>
      <trkpt lat="47.0463" lon="5.50446">
        <ele>208</ele>
        <time>2010-05-07T12:21:10Z</time>
      </trkpt>
      <trkpt lat="47.04624" lon="5.5046">
        <ele>208</ele>
        <time>2010-05-07T12:21:12Z</time>
      </trkpt>
      <trkpt lat="47.04619" lon="5.50474">
        <ele>208</ele>
        <time>2010-05-07T12:21:14Z</time>
      </trkpt>
      <trkpt lat="47.04612" lon="5.50488">
        <ele>208</ele>
        <time>2010-05-07T12:21:16Z</time>
      </trkpt>
      <trkpt lat="47.04604" lon="5.505">
        <ele>208</ele>
        <time>2010-05-07T12:21:18Z</time>
      </trkpt>
      <trkpt lat="47.04597" lon="5.50513">
        <ele>208</ele>
        <time>2010-05-07T12:21:20Z</time>
      </trkpt>
      <trkpt lat="47.04589" lon="5.50524">
        <ele>208</ele>
        <time>2010-05-07T12:21:22Z</time>
      </trkpt>
      <trkpt lat="47.04581" lon="5.50535">
        <ele>208</ele>
        <time>2010-05-07T12:21:24Z</time>
      </trkpt>
      <trkpt lat="47.04573" lon="5.50545">
        <ele>208</ele>
        <time>2010-05-07T12:21:26Z</time>
      </trkpt>
      <trkpt lat="47.04565" lon="5.50556">
        <ele>208</ele>
        <time>2010-05-07T12:21:28Z</time>
      </trkpt>
      <trkpt lat="47.04557" lon="5.50567">
        <ele>208</ele>
        <time>2010-05-07T12:21:30Z</time>
      </trkpt>
      <trkpt lat="47.04548" lon="5.50577">
        <ele>208</ele>
        <time>2010-05-07T12:21:32Z</time>
      </trkpt>
      <trkpt lat="47.0454" lon="5.50587">
        <ele>208</ele>
        <time>2010-05-07T12:21:34Z</time>
      </trkpt>
      <trkpt lat="47.04531" lon="5.50597">
        <ele>213</ele>
        <time>2010-05-07T12:21:36Z</time>
      </trkpt>
      <trkpt lat="47.04524" lon="5.50608">
        <ele>213</ele>
        <time>2010-05-07T12:21:38Z</time>
      </trkpt>
      <trkpt lat="47.04515" lon="5.50618">
        <ele>213</ele>
        <time>2010-05-07T12:21:40Z</time>
      </trkpt>
      <trkpt lat="47.04507" lon="5.50627">
        <ele>213</ele>
        <time>2010-05-07T12:21:42Z</time>
      </trkpt>
      <trkpt lat="47.04496" lon="5.50639">
        <ele>219</ele>
        <time>2010-05-07T12:21:45Z</time>
      </trkpt>
      <trkpt lat="47.04488" lon="5.50648">
        <ele>219</ele>
        <time>2010-05-07T12:21:47Z</time>
      </trkpt>
      <trkpt lat="47.04479" lon="5.50658">
        <ele>219</ele>
        <time>2010-05-07T12:21:49Z</time>
      </trkpt>
      <trkpt lat="47.04468" lon="5.50666">
        <ele>219</ele>
        <time>2010-05-07T12:21:51Z</time>
      </trkpt>
      <trkpt lat="47.04453" lon="5.5068">
        <ele>226</ele>
        <time>2010-05-07T12:21:54Z</time>
      </trkpt>
      <trkpt lat="47.04444" lon="5.50694">
        <ele>226</ele>
        <time>2010-05-07T12:21:56Z</time>
      </trkpt>
      <trkpt lat="47.04434" lon="5.5071">
        <ele>226</ele>
        <time>2010-05-07T12:21:58Z</time>
      </trkpt>
      <trkpt lat="47.04424" lon="5.50724">
        <ele>226</ele>
        <time>2010-05-07T12:22:00Z</time>
      </trkpt>
      <trkpt lat="47.04414" lon="5.50736">
        <ele>226</ele>
        <time>2010-05-07T12:22:02Z</time>
      </trkpt>
      <trkpt lat="47.04404" lon="5.50747">
        <ele>226</ele>
        <time>2010-05-07T12:22:04Z</time>
      </trkpt>
      <trkpt lat="47.04394" lon="5.50758">
        <ele>226</ele>
        <time>2010-05-07T12:22:06Z</time>
      </trkpt>
      <trkpt lat="47.04385" lon="5.50772">
        <ele>226</ele>
        <time>2010-05-07T12:22:08Z</time>
      </trkpt>
      <trkpt lat="47.04376" lon="5.50783">
        <ele>221</ele>
        <time>2010-05-07T12:22:10Z</time>
      </trkpt>
      <trkpt lat="47.04367" lon="5.50796">
        <ele>221</ele>
        <time>2010-05-07T12:22:12Z</time>
      </trkpt>
      <trkpt lat="47.04355" lon="5.50805">
        <ele>221</ele>
        <time>2010-05-07T12:22:14Z</time>
      </trkpt>
      <trkpt lat="47.04341" lon="5.50809">
        <ele>221</ele>
        <time>2010-05-07T12:22:16Z</time>
      </trkpt>
      <trkpt lat="47.04329" lon="5.50816">
        <ele>221</ele>
        <time>2010-05-07T12:22:18Z</time>
      </trkpt>
      <trkpt lat="47.04315" lon="5.50823">
        <ele>221</ele>
        <time>2010-05-07T12:22:20Z</time>
      </trkpt>
      <trkpt lat="47.04304" lon="5.50825">
        <ele>212</ele>
        <time>2010-05-07T12:22:22Z</time>
      </trkpt>
      <trkpt lat="47.04291" lon="5.50828">
        <ele>207</ele>
        <time>2010-05-07T12:22:24Z</time>
      </trkpt>
      <trkpt lat="47.04278" lon="5.50831">
        <ele>207</ele>
        <time>2010-05-07T12:22:26Z</time>
      </trkpt>
      <trkpt lat="47.04255" lon="5.50837">
        <ele>207</ele>
        <time>2010-05-07T12:22:30Z</time>
      </trkpt>
      <trkpt lat="47.04246" lon="5.50841">
        <ele>207</ele>
        <time>2010-05-07T12:22:31Z</time>
      </trkpt>
      <trkpt lat="47.04235" lon="5.50845">
        <ele>207</ele>
        <time>2010-05-07T12:22:32Z</time>
      </trkpt>
      <trkpt lat="47.04227" lon="5.50849">
        <ele>207</ele>
        <time>2010-05-07T12:22:33Z</time>
      </trkpt>
      <trkpt lat="47.04211" lon="5.50857">
        <ele>207</ele>
        <time>2010-05-07T12:22:35Z</time>
      </trkpt>
      <trkpt lat="47.042" lon="5.50873">
        <ele>207</ele>
        <time>2010-05-07T12:22:37Z</time>
      </trkpt>
      <trkpt lat="47.04189" lon="5.50887">
        <ele>207</ele>
        <time>2010-05-07T12:22:39Z</time>
      </trkpt>
      <trkpt lat="47.04181" lon="5.50904">
        <ele>207</ele>
        <time>2010-05-07T12:22:41Z</time>
      </trkpt>
      <trkpt lat="47.04172" lon="5.50922">
        <ele>207</ele>
        <time>2010-05-07T12:22:43Z</time>
      </trkpt>
      <trkpt lat="47.04166" lon="5.5094">
        <ele>207</ele>
        <time>2010-05-07T12:22:45Z</time>
      </trkpt>
      <trkpt lat="47.04161" lon="5.50959">
        <ele>207</ele>
        <time>2010-05-07T12:22:47Z</time>
      </trkpt>
      <trkpt lat="47.04154" lon="5.50975">
        <ele>207</ele>
        <time>2010-05-07T12:22:49Z</time>
      </trkpt>
      <trkpt lat="47.04147" lon="5.50991">
        <ele>207</ele>
        <time>2010-05-07T12:22:51Z</time>
      </trkpt>
      <trkpt lat="47.0414" lon="5.51005">
        <ele>207</ele>
        <time>2010-05-07T12:22:53Z</time>
      </trkpt>
      <trkpt lat="47.04134" lon="5.51022">
        <ele>207</ele>
        <time>2010-05-07T12:22:55Z</time>
      </trkpt>
      <trkpt lat="47.04129" lon="5.51038">
        <ele>207</ele>
        <time>2010-05-07T12:22:57Z</time>
      </trkpt>
      <trkpt lat="47.04123" lon="5.51054">
        <ele>207</ele>
        <time>2010-05-07T12:22:59Z</time>
      </trkpt>
      <trkpt lat="47.04117" lon="5.5107">
        <ele>207</ele>
        <time>2010-05-07T12:23:01Z</time>
      </trkpt>
      <trkpt lat="47.04111" lon="5.51085">
        <ele>207</ele>
        <time>2010-05-07T12:23:03Z</time>
      </trkpt>
      <trkpt lat="47.04104" lon="5.511">
        <ele>207</ele>
        <time>2010-05-07T12:23:05Z</time>
      </trkpt>
      <trkpt lat="47.04097" lon="5.51116">
        <ele>207</ele>
        <time>2010-05-07T12:23:07Z</time>
      </trkpt>
      <trkpt lat="47.04089" lon="5.51129">
        <ele>207</ele>
        <time>2010-05-07T12:23:09Z</time>
      </trkpt>
      <trkpt lat="47.04081" lon="5.51143">
        <ele>207</ele>
        <time>2010-05-07T12:23:11Z</time>
      </trkpt>
      <trkpt lat="47.04074" lon="5.51156">
        <ele>207</ele>
        <time>2010-05-07T12:23:13Z</time>
      </trkpt>
      <trkpt lat="47.04066" lon="5.51169">
        <ele>207</ele>
        <time>2010-05-07T12:23:15Z</time>
      </trkpt>
      <trkpt lat="47.04057" lon="5.5118">
        <ele>207</ele>
        <time>2010-05-07T12:23:17Z</time>
      </trkpt>
      <trkpt lat="47.04049" lon="5.51192">
        <ele>207</ele>
        <time>2010-05-07T12:23:19Z</time>
      </trkpt>
      <trkpt lat="47.04041" lon="5.51204">
        <ele>207</ele>
        <time>2010-05-07T12:23:21Z</time>
      </trkpt>
      <trkpt lat="47.04033" lon="5.51214">
        <ele>207</ele>
        <time>2010-05-07T12:23:23Z</time>
      </trkpt>
      <trkpt lat="47.04024" lon="5.51225">
        <ele>207</ele>
        <time>2010-05-07T12:23:25Z</time>
      </trkpt>
      <trkpt lat="47.04015" lon="5.51236">
        <ele>207</ele>
        <time>2010-05-07T12:23:27Z</time>
      </trkpt>
      <trkpt lat="47.04006" lon="5.51246">
        <ele>207</ele>
        <time>2010-05-07T12:23:29Z</time>
      </trkpt>
      <trkpt lat="47.03998" lon="5.51258">
        <ele>207</ele>
        <time>2010-05-07T12:23:31Z</time>
      </trkpt>
      <trkpt lat="47.03991" lon="5.51271">
        <ele>207</ele>
        <time>2010-05-07T12:23:33Z</time>
      </trkpt>
      <trkpt lat="47.03984" lon="5.51285">
        <ele>207</ele>
        <time>2010-05-07T12:23:35Z</time>
      </trkpt>
      <trkpt lat="47.03978" lon="5.513">
        <ele>207</ele>
        <time>2010-05-07T12:23:37Z</time>
      </trkpt>
      <trkpt lat="47.03973" lon="5.51314">
        <ele>207</ele>
        <time>2010-05-07T12:23:39Z</time>
      </trkpt>
      <trkpt lat="47.03967" lon="5.51329">
        <ele>207</ele>
        <time>2010-05-07T12:23:41Z</time>
      </trkpt>
      <trkpt lat="47.03963" lon="5.51344">
        <ele>207</ele>
        <time>2010-05-07T12:23:43Z</time>
      </trkpt>
      <trkpt lat="47.03958" lon="5.51357">
        <ele>207</ele>
        <time>2010-05-07T12:23:45Z</time>
      </trkpt>
      <trkpt lat="47.03954" lon="5.51372">
        <ele>207</ele>
        <time>2010-05-07T12:23:47Z</time>
      </trkpt>
      <trkpt lat="47.03951" lon="5.51387">
        <ele>207</ele>
        <time>2010-05-07T12:23:49Z</time>
      </trkpt>
      <trkpt lat="47.03951" lon="5.51404">
        <ele>207</ele>
        <time>2010-05-07T12:23:51Z</time>
      </trkpt>
      <trkpt lat="47.03951" lon="5.51422">
        <ele>207</ele>
        <time>2010-05-07T12:23:53Z</time>
      </trkpt>
      <trkpt lat="47.0395" lon="5.51439">
        <ele>207</ele>
        <time>2010-05-07T12:23:55Z</time>
      </trkpt>
      <trkpt lat="47.0395" lon="5.51457">
        <ele>207</ele>
        <time>2010-05-07T12:23:57Z</time>
      </trkpt>
      <trkpt lat="47.03952" lon="5.51477">
        <ele>207</ele>
        <time>2010-05-07T12:23:59Z</time>
      </trkpt>
      <trkpt lat="47.03952" lon="5.51494">
        <ele>207</ele>
        <time>2010-05-07T12:24:01Z</time>
      </trkpt>
      <trkpt lat="47.03952" lon="5.51512">
        <ele>207</ele>
        <time>2010-05-07T12:24:03Z</time>
      </trkpt>
      <trkpt lat="47.03952" lon="5.51529">
        <ele>207</ele>
        <time>2010-05-07T12:24:05Z</time>
      </trkpt>
      <trkpt lat="47.03952" lon="5.51545">
        <ele>207</ele>
        <time>2010-05-07T12:24:07Z</time>
      </trkpt>
      <trkpt lat="47.03952" lon="5.51562">
        <ele>207</ele>
        <time>2010-05-07T12:24:09Z</time>
      </trkpt>
      <trkpt lat="47.0395" lon="5.51579">
        <ele>207</ele>
        <time>2010-05-07T12:24:11Z</time>
      </trkpt>
      <trkpt lat="47.0395" lon="5.51597">
        <ele>207</ele>
        <time>2010-05-07T12:24:13Z</time>
      </trkpt>
      <trkpt lat="47.0395" lon="5.51616">
        <ele>207</ele>
        <time>2010-05-07T12:24:15Z</time>
      </trkpt>
      <trkpt lat="47.03951" lon="5.51634">
        <ele>207</ele>
        <time>2010-05-07T12:24:17Z</time>
      </trkpt>
      <trkpt lat="47.03952" lon="5.51652">
        <ele>207</ele>
        <time>2010-05-07T12:24:19Z</time>
      </trkpt>
      <trkpt lat="47.03955" lon="5.51672">
        <ele>207</ele>
        <time>2010-05-07T12:24:21Z</time>
      </trkpt>
      <trkpt lat="47.03954" lon="5.5169">
        <ele>207</ele>
        <time>2010-05-07T12:24:23Z</time>
      </trkpt>
      <trkpt lat="47.03954" lon="5.51706">
        <ele>207</ele>
        <time>2010-05-07T12:24:25Z</time>
      </trkpt>
      <trkpt lat="47.03954" lon="5.5172">
        <ele>207</ele>
        <time>2010-05-07T12:24:27Z</time>
      </trkpt>
      <trkpt lat="47.03954" lon="5.51735">
        <ele>207</ele>
        <time>2010-05-07T12:24:29Z</time>
      </trkpt>
      <trkpt lat="47.03954" lon="5.51749">
        <ele>207</ele>
        <time>2010-05-07T12:24:31Z</time>
      </trkpt>
      <trkpt lat="47.03954" lon="5.51763">
        <ele>207</ele>
        <time>2010-05-07T12:24:33Z</time>
      </trkpt>
      <trkpt lat="47.03954" lon="5.51779">
        <ele>207</ele>
        <time>2010-05-07T12:24:35Z</time>
      </trkpt>
      <trkpt lat="47.03951" lon="5.51794">
        <ele>207</ele>
        <time>2010-05-07T12:24:37Z</time>
      </trkpt>
      <trkpt lat="47.03948" lon="5.5181">
        <ele>207</ele>
        <time>2010-05-07T12:24:39Z</time>
      </trkpt>
      <trkpt lat="47.03945" lon="5.51827">
        <ele>207</ele>
        <time>2010-05-07T12:24:41Z</time>
      </trkpt>
      <trkpt lat="47.03941" lon="5.51841">
        <ele>207</ele>
        <time>2010-05-07T12:24:43Z</time>
      </trkpt>
      <trkpt lat="47.03943" lon="5.51856">
        <ele>207</ele>
        <time>2010-05-07T12:24:45Z</time>
      </trkpt>
      <trkpt lat="47.03947" lon="5.51867">
        <ele>207</ele>
        <time>2010-05-07T12:24:47Z</time>
      </trkpt>
      <trkpt lat="47.03954" lon="5.5188">
        <ele>207</ele>
        <time>2010-05-07T12:24:49Z</time>
      </trkpt>
      <trkpt lat="47.03962" lon="5.51895">
        <ele>207</ele>
        <time>2010-05-07T12:24:52Z</time>
      </trkpt>
      <trkpt lat="47.03966" lon="5.51907">
        <ele>207</ele>
        <time>2010-05-07T12:24:54Z</time>
      </trkpt>
      <trkpt lat="47.03973" lon="5.51922">
        <ele>207</ele>
        <time>2010-05-07T12:24:57Z</time>
      </trkpt>
      <trkpt lat="47.03981" lon="5.51935">
        <ele>207</ele>
        <time>2010-05-07T12:25:00Z</time>
      </trkpt>
      <trkpt lat="47.03992" lon="5.51946">
        <ele>207</ele>
        <time>2010-05-07T12:25:03Z</time>
      </trkpt>
      <trkpt lat="47.04004" lon="5.51953">
        <ele>207</ele>
        <time>2010-05-07T12:25:06Z</time>
      </trkpt>
      <trkpt lat="47.04015" lon="5.5196">
        <ele>207</ele>
        <time>2010-05-07T12:25:09Z</time>
      </trkpt>
      <trkpt lat="47.04027" lon="5.51968">
        <ele>207</ele>
        <time>2010-05-07T12:25:12Z</time>
      </trkpt>
      <trkpt lat="47.04037" lon="5.51978">
        <ele>207</ele>
        <time>2010-05-07T12:25:15Z</time>
      </trkpt>
      <trkpt lat="47.04048" lon="5.51987">
        <ele>207</ele>
        <time>2010-05-07T12:25:18Z</time>
      </trkpt>
      <trkpt lat="47.04056" lon="5.51993">
        <ele>207</ele>
        <time>2010-05-07T12:25:20Z</time>
      </trkpt>
      <trkpt lat="47.04067" lon="5.52002">
        <ele>207</ele>
        <time>2010-05-07T12:25:23Z</time>
      </trkpt>
      <trkpt lat="47.04075" lon="5.52009">
        <ele>207</ele>
        <time>2010-05-07T12:25:25Z</time>
      </trkpt>
      <trkpt lat="47.04086" lon="5.52017">
        <ele>207</ele>
        <time>2010-05-07T12:25:28Z</time>
      </trkpt>
      <trkpt lat="47.04094" lon="5.52023">
        <ele>207</ele>
        <time>2010-05-07T12:25:30Z</time>
      </trkpt>
      <trkpt lat="47.04106" lon="5.52031">
        <ele>207</ele>
        <time>2010-05-07T12:25:33Z</time>
      </trkpt>
      <trkpt lat="47.04114" lon="5.52037">
        <ele>207</ele>
        <time>2010-05-07T12:25:35Z</time>
      </trkpt>
      <trkpt lat="47.04126" lon="5.52046">
        <ele>207</ele>
        <time>2010-05-07T12:25:38Z</time>
      </trkpt>
      <trkpt lat="47.04134" lon="5.52054">
        <ele>207</ele>
        <time>2010-05-07T12:25:40Z</time>
      </trkpt>
      <trkpt lat="47.04142" lon="5.52061">
        <ele>207</ele>
        <time>2010-05-07T12:25:42Z</time>
      </trkpt>
      <trkpt lat="47.04151" lon="5.52074">
        <ele>207</ele>
        <time>2010-05-07T12:25:45Z</time>
      </trkpt>
      <trkpt lat="47.04157" lon="5.52084">
        <ele>212</ele>
        <time>2010-05-07T12:25:47Z</time>
      </trkpt>
      <trkpt lat="47.04167" lon="5.52097">
        <ele>212</ele>
        <time>2010-05-07T12:25:50Z</time>
      </trkpt>
      <trkpt lat="47.04173" lon="5.52107">
        <ele>212</ele>
        <time>2010-05-07T12:25:52Z</time>
      </trkpt>
      <trkpt lat="47.04181" lon="5.52122">
        <ele>212</ele>
        <time>2010-05-07T12:25:55Z</time>
      </trkpt>
      <trkpt lat="47.04191" lon="5.52136">
        <ele>212</ele>
        <time>2010-05-07T12:25:58Z</time>
      </trkpt>
      <trkpt lat="47.042" lon="5.52149">
        <ele>212</ele>
        <time>2010-05-07T12:26:01Z</time>
      </trkpt>
      <trkpt lat="47.0421" lon="5.5216">
        <ele>212</ele>
        <time>2010-05-07T12:26:04Z</time>
      </trkpt>
      <trkpt lat="47.04219" lon="5.52174">
        <ele>212</ele>
        <time>2010-05-07T12:26:07Z</time>
      </trkpt>
      <trkpt lat="47.04228" lon="5.52186">
        <ele>212</ele>
        <time>2010-05-07T12:26:10Z</time>
      </trkpt>
      <trkpt lat="47.04237" lon="5.52198">
        <ele>212</ele>
        <time>2010-05-07T12:26:13Z</time>
      </trkpt>
      <trkpt lat="47.04246" lon="5.52209">
        <ele>212</ele>
        <time>2010-05-07T12:26:16Z</time>
      </trkpt>
      <trkpt lat="47.04258" lon="5.52217">
        <ele>212</ele>
        <time>2010-05-07T12:26:19Z</time>
      </trkpt>
      <trkpt lat="47.0427" lon="5.5222">
        <ele>212</ele>
        <time>2010-05-07T12:26:22Z</time>
      </trkpt>
      <trkpt lat="47.04283" lon="5.52222">
        <ele>212</ele>
        <time>2010-05-07T12:26:25Z</time>
      </trkpt>
      <trkpt lat="47.04294" lon="5.52225">
        <ele>217</ele>
        <time>2010-05-07T12:26:28Z</time>
      </trkpt>
      <trkpt lat="47.04307" lon="5.52226">
        <ele>217</ele>
        <time>2010-05-07T12:26:31Z</time>
      </trkpt>
      <trkpt lat="47.04319" lon="5.52226">
        <ele>217</ele>
        <time>2010-05-07T12:26:34Z</time>
      </trkpt>
      <trkpt lat="47.04328" lon="5.52225">
        <ele>217</ele>
        <time>2010-05-07T12:26:36Z</time>
      </trkpt>
      <trkpt lat="47.0434" lon="5.52225">
        <ele>217</ele>
        <time>2010-05-07T12:26:39Z</time>
      </trkpt>
      <trkpt lat="47.0435" lon="5.52229">
        <ele>217</ele>
        <time>2010-05-07T12:26:42Z</time>
      </trkpt>
      <trkpt lat="47.04355" lon="5.52243">
        <ele>217</ele>
        <time>2010-05-07T12:26:46Z</time>
      </trkpt>
      <trkpt lat="47.04347" lon="5.52254">
        <ele>224</ele>
        <time>2010-05-07T12:26:50Z</time>
      </trkpt>
      <trkpt lat="47.0434" lon="5.52265">
        <ele>224</ele>
        <time>2010-05-07T12:26:53Z</time>
      </trkpt>
      <trkpt lat="47.04333" lon="5.52278">
        <ele>224</ele>
        <time>2010-05-07T12:26:56Z</time>
      </trkpt>
      <trkpt lat="47.04324" lon="5.52291">
        <ele>224</ele>
        <time>2010-05-07T12:26:59Z</time>
      </trkpt>
      <trkpt lat="47.04317" lon="5.52305">
        <ele>224</ele>
        <time>2010-05-07T12:27:02Z</time>
      </trkpt>
      <trkpt lat="47.04309" lon="5.52319">
        <ele>229</ele>
        <time>2010-05-07T12:27:05Z</time>
      </trkpt>
      <trkpt lat="47.04301" lon="5.52335">
        <ele>229</ele>
        <time>2010-05-07T12:27:08Z</time>
      </trkpt>
      <trkpt lat="47.04292" lon="5.52345">
        <ele>229</ele>
        <time>2010-05-07T12:27:11Z</time>
      </trkpt>
      <trkpt lat="47.04283" lon="5.52359">
        <ele>236</ele>
        <time>2010-05-07T12:27:14Z</time>
      </trkpt>
      <trkpt lat="47.04278" lon="5.52371">
        <ele>236</ele>
        <time>2010-05-07T12:27:16Z</time>
      </trkpt>
      <trkpt lat="47.0427" lon="5.52384">
        <ele>243</ele>
        <time>2010-05-07T12:27:19Z</time>
      </trkpt>
      <trkpt lat="47.0426" lon="5.52396">
        <ele>249</ele>
        <time>2010-05-07T12:27:22Z</time>
      </trkpt>
      <trkpt lat="47.04253" lon="5.52405">
        <ele>249</ele>
        <time>2010-05-07T12:27:24Z</time>
      </trkpt>
      <trkpt lat="47.04245" lon="5.52418">
        <ele>256</ele>
        <time>2010-05-07T12:27:27Z</time>
      </trkpt>
      <trkpt lat="47.04237" lon="5.52425">
        <ele>256</ele>
        <time>2010-05-07T12:27:29Z</time>
      </trkpt>
      <trkpt lat="47.04227" lon="5.52437">
        <ele>265</ele>
        <time>2010-05-07T12:27:32Z</time>
      </trkpt>
      <trkpt lat="47.04217" lon="5.52447">
        <ele>272</ele>
        <time>2010-05-07T12:27:35Z</time>
      </trkpt>
      <trkpt lat="47.04208" lon="5.52456">
        <ele>272</ele>
        <time>2010-05-07T12:27:37Z</time>
      </trkpt>
      <trkpt lat="47.042" lon="5.52468">
        <ele>280</ele>
        <time>2010-05-07T12:27:39Z</time>
      </trkpt>
      <trkpt lat="47.04193" lon="5.52477">
        <ele>280</ele>
        <time>2010-05-07T12:27:41Z</time>
      </trkpt>
      <trkpt lat="47.04186" lon="5.52489">
        <ele>280</ele>
        <time>2010-05-07T12:27:43Z</time>
      </trkpt>
      <trkpt lat="47.04179" lon="5.52503">
        <ele>286</ele>
        <time>2010-05-07T12:27:45Z</time>
      </trkpt>
      <trkpt lat="47.04172" lon="5.52513">
        <ele>286</ele>
        <time>2010-05-07T12:27:47Z</time>
      </trkpt>
      <trkpt lat="47.04165" lon="5.52527">
        <ele>286</ele>
        <time>2010-05-07T12:27:49Z</time>
      </trkpt>
      <trkpt lat="47.04157" lon="5.52542">
        <ele>286</ele>
        <time>2010-05-07T12:27:51Z</time>
      </trkpt>
      <trkpt lat="47.04152" lon="5.52558">
        <ele>286</ele>
        <time>2010-05-07T12:27:53Z</time>
      </trkpt>
      <trkpt lat="47.04147" lon="5.52574">
        <ele>281</ele>
        <time>2010-05-07T12:27:55Z</time>
      </trkpt>
      <trkpt lat="47.0414" lon="5.52583">
        <ele>281</ele>
        <time>2010-05-07T12:27:57Z</time>
      </trkpt>
      <trkpt lat="47.04132" lon="5.52593">
        <ele>281</ele>
        <time>2010-05-07T12:27:59Z</time>
      </trkpt>
      <trkpt lat="47.04124" lon="5.52605">
        <ele>290</ele>
        <time>2010-05-07T12:28:01Z</time>
      </trkpt>
      <trkpt lat="47.04118" lon="5.52616">
        <ele>290</ele>
        <time>2010-05-07T12:28:03Z</time>
      </trkpt>
      <trkpt lat="47.04111" lon="5.52624">
        <ele>298</ele>
        <time>2010-05-07T12:28:05Z</time>
      </trkpt>
      <trkpt lat="47.04102" lon="5.52633">
        <ele>298</ele>
        <time>2010-05-07T12:28:07Z</time>
      </trkpt>
      <trkpt lat="47.04094" lon="5.52642">
        <ele>298</ele>
        <time>2010-05-07T12:28:09Z</time>
      </trkpt>
      <trkpt lat="47.04085" lon="5.5265">
        <ele>305</ele>
        <time>2010-05-07T12:28:11Z</time>
      </trkpt>
      <trkpt lat="47.04076" lon="5.5266">
        <ele>310</ele>
        <time>2010-05-07T12:28:13Z</time>
      </trkpt>
      <trkpt lat="47.04067" lon="5.52671">
        <ele>310</ele>
        <time>2010-05-07T12:28:15Z</time>
      </trkpt>
      <trkpt lat="47.04058" lon="5.52683">
        <ele>317</ele>
        <time>2010-05-07T12:28:17Z</time>
      </trkpt>
      <trkpt lat="47.04049" lon="5.52695">
        <ele>317</ele>
        <time>2010-05-07T12:28:19Z</time>
      </trkpt>
      <trkpt lat="47.04041" lon="5.52706">
        <ele>323</ele>
        <time>2010-05-07T12:28:21Z</time>
      </trkpt>
      <trkpt lat="47.04034" lon="5.52715">
        <ele>323</ele>
        <time>2010-05-07T12:28:23Z</time>
      </trkpt>
      <trkpt lat="47.04024" lon="5.52727">
        <ele>332</ele>
        <time>2010-05-07T12:28:25Z</time>
      </trkpt>
      <trkpt lat="47.04013" lon="5.52738">
        <ele>332</ele>
        <time>2010-05-07T12:28:27Z</time>
      </trkpt>
      <trkpt lat="47.04003" lon="5.52751">
        <ele>338</ele>
        <time>2010-05-07T12:28:29Z</time>
      </trkpt>
      <trkpt lat="47.03992" lon="5.52762">
        <ele>338</ele>
        <time>2010-05-07T12:28:31Z</time>
      </trkpt>
      <trkpt lat="47.03981" lon="5.52775">
        <ele>338</ele>
        <time>2010-05-07T12:28:33Z</time>
      </trkpt>
      <trkpt lat="47.0397" lon="5.52788">
        <ele>338</ele>
        <time>2010-05-07T12:28:35Z</time>
      </trkpt>
      <trkpt lat="47.03958" lon="5.52803">
        <ele>338</ele>
        <time>2010-05-07T12:28:37Z</time>
      </trkpt>
      <trkpt lat="47.03947" lon="5.52819">
        <ele>338</ele>
        <time>2010-05-07T12:28:39Z</time>
      </trkpt>
      <trkpt lat="47.03936" lon="5.52835">
        <ele>343</ele>
        <time>2010-05-07T12:28:41Z</time>
      </trkpt>
      <trkpt lat="47.03924" lon="5.52852">
        <ele>343</ele>
        <time>2010-05-07T12:28:43Z</time>
      </trkpt>
      <trkpt lat="47.03918" lon="5.52862">
        <ele>343</ele>
        <time>2010-05-07T12:28:44Z</time>
      </trkpt>
      <trkpt lat="47.03906" lon="5.52881">
        <ele>343</ele>
        <time>2010-05-07T12:28:46Z</time>
      </trkpt>
      <trkpt lat="47.03895" lon="5.52898">
        <ele>343</ele>
        <time>2010-05-07T12:28:48Z</time>
      </trkpt>
      <trkpt lat="47.03886" lon="5.52914">
        <ele>343</ele>
        <time>2010-05-07T12:28:50Z</time>
      </trkpt>
      <trkpt lat="47.03879" lon="5.52931">
        <ele>336</ele>
        <time>2010-05-07T12:28:52Z</time>
      </trkpt>
      <trkpt lat="47.03868" lon="5.52945">
        <ele>336</ele>
        <time>2010-05-07T12:28:54Z</time>
      </trkpt>
      <trkpt lat="47.03851" lon="5.52966">
        <ele>336</ele>
        <time>2010-05-07T12:28:58Z</time>
      </trkpt>
      <trkpt lat="47.03847" lon="5.52985">
        <ele>343</ele>
        <time>2010-05-07T12:29:00Z</time>
      </trkpt>
      <trkpt lat="47.03842" lon="5.52999">
        <ele>343</ele>
        <time>2010-05-07T12:29:02Z</time>
      </trkpt>
      <trkpt lat="47.03842" lon="5.53016">
        <ele>333</ele>
        <time>2010-05-07T12:29:04Z</time>
      </trkpt>
      <trkpt lat="47.0384" lon="5.53033">
        <ele>327</ele>
        <time>2010-05-07T12:29:06Z</time>
      </trkpt>
      <trkpt lat="47.03837" lon="5.53051">
        <ele>321</ele>
        <time>2010-05-07T12:29:08Z</time>
      </trkpt>
      <trkpt lat="47.03834" lon="5.5307">
        <ele>315</ele>
        <time>2010-05-07T12:29:10Z</time>
      </trkpt>
      <trkpt lat="47.0383" lon="5.53089">
        <ele>315</ele>
        <time>2010-05-07T12:29:12Z</time>
      </trkpt>
      <trkpt lat="47.03826" lon="5.5311">
        <ele>303</ele>
        <time>2010-05-07T12:29:14Z</time>
      </trkpt>
      <trkpt lat="47.03821" lon="5.5313">
        <ele>303</ele>
        <time>2010-05-07T12:29:16Z</time>
      </trkpt>
      <trkpt lat="47.03817" lon="5.53149">
        <ele>293</ele>
        <time>2010-05-07T12:29:18Z</time>
      </trkpt>
      <trkpt lat="47.03812" lon="5.53169">
        <ele>293</ele>
        <time>2010-05-07T12:29:20Z</time>
      </trkpt>
      <trkpt lat="47.03807" lon="5.5319">
        <ele>283</ele>
        <time>2010-05-07T12:29:22Z</time>
      </trkpt>
      <trkpt lat="47.03803" lon="5.5321">
        <ele>283</ele>
        <time>2010-05-07T12:29:24Z</time>
      </trkpt>
      <trkpt lat="47.038" lon="5.53231">
        <ele>271</ele>
        <time>2010-05-07T12:29:26Z</time>
      </trkpt>
      <trkpt lat="47.03797" lon="5.53254">
        <ele>262</ele>
        <time>2010-05-07T12:29:28Z</time>
      </trkpt>
      <trkpt lat="47.03792" lon="5.53272">
        <ele>262</ele>
        <time>2010-05-07T12:29:30Z</time>
      </trkpt>
      <trkpt lat="47.03789" lon="5.53285">
        <ele>252</ele>
        <time>2010-05-07T12:29:31Z</time>
      </trkpt>
      <trkpt lat="47.03784" lon="5.53307">
        <ele>244</ele>
        <time>2010-05-07T12:29:33Z</time>
      </trkpt>
      <trkpt lat="47.0378" lon="5.53326">
        <ele>238</ele>
        <time>2010-05-07T12:29:35Z</time>
      </trkpt>
      <trkpt lat="47.03775" lon="5.53343">
        <ele>238</ele>
        <time>2010-05-07T12:29:37Z</time>
      </trkpt>
      <trkpt lat="47.03771" lon="5.53358">
        <ele>231</ele>
        <time>2010-05-07T12:29:39Z</time>
      </trkpt>
      <trkpt lat="47.03766" lon="5.53372">
        <ele>231</ele>
        <time>2010-05-07T12:29:41Z</time>
      </trkpt>
      <trkpt lat="47.03761" lon="5.53387">
        <ele>231</ele>
        <time>2010-05-07T12:29:43Z</time>
      </trkpt>
      <trkpt lat="47.03755" lon="5.53401">
        <ele>231</ele>
        <time>2010-05-07T12:29:45Z</time>
      </trkpt>
      <trkpt lat="47.0375" lon="5.53415">
        <ele>231</ele>
        <time>2010-05-07T12:29:47Z</time>
      </trkpt>
      <trkpt lat="47.03744" lon="5.5343">
        <ele>231</ele>
        <time>2010-05-07T12:29:49Z</time>
      </trkpt>
      <trkpt lat="47.03737" lon="5.53444">
        <ele>231</ele>
        <time>2010-05-07T12:29:51Z</time>
      </trkpt>
      <trkpt lat="47.03732" lon="5.53458">
        <ele>226</ele>
        <time>2010-05-07T12:29:53Z</time>
      </trkpt>
      <trkpt lat="47.03726" lon="5.53473">
        <ele>226</ele>
        <time>2010-05-07T12:29:55Z</time>
      </trkpt>
      <trkpt lat="47.0372" lon="5.53487">
        <ele>226</ele>
        <time>2010-05-07T12:29:57Z</time>
      </trkpt>
      <trkpt lat="47.03713" lon="5.53502">
        <ele>226</ele>
        <time>2010-05-07T12:29:59Z</time>
      </trkpt>
      <trkpt lat="47.03708" lon="5.53517">
        <ele>226</ele>
        <time>2010-05-07T12:30:01Z</time>
      </trkpt>
      <trkpt lat="47.03701" lon="5.53531">
        <ele>226</ele>
        <time>2010-05-07T12:30:03Z</time>
      </trkpt>
      <trkpt lat="47.03695" lon="5.53546">
        <ele>226</ele>
        <time>2010-05-07T12:30:05Z</time>
      </trkpt>
      <trkpt lat="47.03686" lon="5.5356">
        <ele>226</ele>
        <time>2010-05-07T12:30:07Z</time>
      </trkpt>
      <trkpt lat="47.03678" lon="5.53575">
        <ele>226</ele>
        <time>2010-05-07T12:30:09Z</time>
      </trkpt>
      <trkpt lat="47.03667" lon="5.5359">
        <ele>226</ele>
        <time>2010-05-07T12:30:11Z</time>
      </trkpt>
      <trkpt lat="47.03656" lon="5.53606">
        <ele>226</ele>
        <time>2010-05-07T12:30:13Z</time>
      </trkpt>
      <trkpt lat="47.03644" lon="5.53622">
        <ele>226</ele>
        <time>2010-05-07T12:30:15Z</time>
      </trkpt>
      <trkpt lat="47.03631" lon="5.53639">
        <ele>226</ele>
        <time>2010-05-07T12:30:17Z</time>
      </trkpt>
      <trkpt lat="47.03619" lon="5.53659">
        <ele>220</ele>
        <time>2010-05-07T12:30:19Z</time>
      </trkpt>
      <trkpt lat="47.03613" lon="5.53669">
        <ele>220</ele>
        <time>2010-05-07T12:30:20Z</time>
      </trkpt>
      <trkpt lat="47.03608" lon="5.5368">
        <ele>220</ele>
        <time>2010-05-07T12:30:21Z</time>
      </trkpt>
      <trkpt lat="47.03602" lon="5.53691">
        <ele>220</ele>
        <time>2010-05-07T12:30:22Z</time>
      </trkpt>
      <trkpt lat="47.03596" lon="5.53703">
        <ele>220</ele>
        <time>2010-05-07T12:30:23Z</time>
      </trkpt>
      <trkpt lat="47.03591" lon="5.53716">
        <ele>220</ele>
        <time>2010-05-07T12:30:24Z</time>
      </trkpt>
      <trkpt lat="47.03586" lon="5.5373">
        <ele>220</ele>
        <time>2010-05-07T12:30:25Z</time>
      </trkpt>
      <trkpt lat="47.03582" lon="5.53744">
        <ele>220</ele>
        <time>2010-05-07T12:30:26Z</time>
      </trkpt>
      <trkpt lat="47.03578" lon="5.53758">
        <ele>220</ele>
        <time>2010-05-07T12:30:27Z</time>
      </trkpt>
      <trkpt lat="47.03575" lon="5.53775">
        <ele>220</ele>
        <time>2010-05-07T12:30:28Z</time>
      </trkpt>
      <trkpt lat="47.03573" lon="5.5379">
        <ele>220</ele>
        <time>2010-05-07T12:30:29Z</time>
      </trkpt>
      <trkpt lat="47.0357" lon="5.53806">
        <ele>220</ele>
        <time>2010-05-07T12:30:30Z</time>
      </trkpt>
      <trkpt lat="47.03569" lon="5.53821">
        <ele>220</ele>
        <time>2010-05-07T12:30:31Z</time>
      </trkpt>
      <trkpt lat="47.03567" lon="5.53837">
        <ele>220</ele>
        <time>2010-05-07T12:30:32Z</time>
      </trkpt>
      <trkpt lat="47.03567" lon="5.53853">
        <ele>220</ele>
        <time>2010-05-07T12:30:33Z</time>
      </trkpt>
      <trkpt lat="47.03565" lon="5.53868">
        <ele>220</ele>
        <time>2010-05-07T12:30:34Z</time>
      </trkpt>
      <trkpt lat="47.03564" lon="5.53884">
        <ele>220</ele>
        <time>2010-05-07T12:30:35Z</time>
      </trkpt>
      <trkpt lat="47.03563" lon="5.539">
        <ele>220</ele>
        <time>2010-05-07T12:30:36Z</time>
      </trkpt>
      <trkpt lat="47.03562" lon="5.53917">
        <ele>220</ele>
        <time>2010-05-07T12:30:37Z</time>
      </trkpt>
      <trkpt lat="47.03561" lon="5.53933">
        <ele>214</ele>
        <time>2010-05-07T12:30:38Z</time>
      </trkpt>
      <trkpt lat="47.03559" lon="5.53949">
        <ele>214</ele>
        <time>2010-05-07T12:30:39Z</time>
      </trkpt>
      <trkpt lat="47.03559" lon="5.53966">
        <ele>214</ele>
        <time>2010-05-07T12:30:40Z</time>
      </trkpt>
      <trkpt lat="47.03557" lon="5.53981">
        <ele>214</ele>
        <time>2010-05-07T12:30:41Z</time>
      </trkpt>
      <trkpt lat="47.03556" lon="5.53996">
        <ele>214</ele>
        <time>2010-05-07T12:30:42Z</time>
      </trkpt>
      <trkpt lat="47.03556" lon="5.5401">
        <ele>214</ele>
        <time>2010-05-07T12:30:43Z</time>
      </trkpt>
      <trkpt lat="47.03555" lon="5.54024">
        <ele>214</ele>
        <time>2010-05-07T12:30:44Z</time>
      </trkpt>
      <trkpt lat="47.03555" lon="5.54038">
        <ele>214</ele>
        <time>2010-05-07T12:30:45Z</time>
      </trkpt>
      <trkpt lat="47.03556" lon="5.54065">
        <ele>214</ele>
        <time>2010-05-07T12:30:47Z</time>
      </trkpt>
      <trkpt lat="47.03557" lon="5.54091">
        <ele>214</ele>
        <time>2010-05-07T12:30:49Z</time>
      </trkpt>
      <trkpt lat="47.03557" lon="5.54116">
        <ele>214</ele>
        <time>2010-05-07T12:30:51Z</time>
      </trkpt>
      <trkpt lat="47.03557" lon="5.5414">
        <ele>214</ele>
        <time>2010-05-07T12:30:53Z</time>
      </trkpt>
      <trkpt lat="47.03558" lon="5.54164">
        <ele>209</ele>
        <time>2010-05-07T12:30:55Z</time>
      </trkpt>
      <trkpt lat="47.03558" lon="5.54186">
        <ele>209</ele>
        <time>2010-05-07T12:30:57Z</time>
      </trkpt>
      <trkpt lat="47.03559" lon="5.54208">
        <ele>209</ele>
        <time>2010-05-07T12:30:59Z</time>
      </trkpt>
      <trkpt lat="47.03559" lon="5.5423">
        <ele>209</ele>
        <time>2010-05-07T12:31:01Z</time>
      </trkpt>
      <trkpt lat="47.0356" lon="5.54252">
        <ele>209</ele>
        <time>2010-05-07T12:31:03Z</time>
      </trkpt>
      <trkpt lat="47.0356" lon="5.54272">
        <ele>209</ele>
        <time>2010-05-07T12:31:05Z</time>
      </trkpt>
      <trkpt lat="47.03559" lon="5.54292">
        <ele>209</ele>
        <time>2010-05-07T12:31:07Z</time>
      </trkpt>
      <trkpt lat="47.03559" lon="5.54311">
        <ele>209</ele>
        <time>2010-05-07T12:31:09Z</time>
      </trkpt>
      <trkpt lat="47.03557" lon="5.54328">
        <ele>209</ele>
        <time>2010-05-07T12:31:11Z</time>
      </trkpt>
      <trkpt lat="47.03555" lon="5.54345">
        <ele>209</ele>
        <time>2010-05-07T12:31:13Z</time>
      </trkpt>
      <trkpt lat="47.03553" lon="5.54361">
        <ele>209</ele>
        <time>2010-05-07T12:31:15Z</time>
      </trkpt>
      <trkpt lat="47.03551" lon="5.54376">
        <ele>209</ele>
        <time>2010-05-07T12:31:17Z</time>
      </trkpt>
      <trkpt lat="47.03548" lon="5.54391">
        <ele>209</ele>
        <time>2010-05-07T12:31:19Z</time>
      </trkpt>
      <trkpt lat="47.03545" lon="5.54405">
        <ele>209</ele>
        <time>2010-05-07T12:31:21Z</time>
      </trkpt>
      <trkpt lat="47.03542" lon="5.5442">
        <ele>209</ele>
        <time>2010-05-07T12:31:23Z</time>
      </trkpt>
      <trkpt lat="47.03538" lon="5.54432">
        <ele>209</ele>
        <time>2010-05-07T12:31:25Z</time>
      </trkpt>
      <trkpt lat="47.03532" lon="5.54448">
        <ele>216</ele>
        <time>2010-05-07T12:31:28Z</time>
      </trkpt>
      <trkpt lat="47.03526" lon="5.54464">
        <ele>216</ele>
        <time>2010-05-07T12:31:31Z</time>
      </trkpt>
      <trkpt lat="47.03518" lon="5.54477">
        <ele>216</ele>
        <time>2010-05-07T12:31:34Z</time>
      </trkpt>
      <trkpt lat="47.03509" lon="5.5449">
        <ele>222</ele>
        <time>2010-05-07T12:31:37Z</time>
      </trkpt>
      <trkpt lat="47.035" lon="5.545">
        <ele>222</ele>
        <time>2010-05-07T12:31:40Z</time>
      </trkpt>
      <trkpt lat="47.03491" lon="5.54512">
        <ele>222</ele>
        <time>2010-05-07T12:31:43Z</time>
      </trkpt>
      <trkpt lat="47.03481" lon="5.54522">
        <ele>222</ele>
        <time>2010-05-07T12:31:46Z</time>
      </trkpt>
      <trkpt lat="47.03471" lon="5.54531">
        <ele>222</ele>
        <time>2010-05-07T12:31:49Z</time>
      </trkpt>
      <trkpt lat="47.0346" lon="5.54538">
        <ele>222</ele>
        <time>2010-05-07T12:31:52Z</time>
      </trkpt>
      <trkpt lat="47.03448" lon="5.54544">
        <ele>222</ele>
        <time>2010-05-07T12:31:55Z</time>
      </trkpt>
      <trkpt lat="47.03436" lon="5.5455">
        <ele>222</ele>
        <time>2010-05-07T12:31:58Z</time>
      </trkpt>
      <trkpt lat="47.03425" lon="5.54554">
        <ele>222</ele>
        <time>2010-05-07T12:32:01Z</time>
      </trkpt>
      <trkpt lat="47.03413" lon="5.54558">
        <ele>222</ele>
        <time>2010-05-07T12:32:04Z</time>
      </trkpt>
      <trkpt lat="47.03403" lon="5.54562">
        <ele>222</ele>
        <time>2010-05-07T12:32:07Z</time>
      </trkpt>
      <trkpt lat="47.03391" lon="5.54565">
        <ele>222</ele>
        <time>2010-05-07T12:32:10Z</time>
      </trkpt>
      <trkpt lat="47.03379" lon="5.54567">
        <ele>222</ele>
        <time>2010-05-07T12:32:13Z</time>
      </trkpt>
      <trkpt lat="47.03367" lon="5.5457">
        <ele>222</ele>
        <time>2010-05-07T12:32:16Z</time>
      </trkpt>
      <trkpt lat="47.03356" lon="5.54571">
        <ele>222</ele>
        <time>2010-05-07T12:32:19Z</time>
      </trkpt>
      <trkpt lat="47.03344" lon="5.54573">
        <ele>222</ele>
        <time>2010-05-07T12:32:22Z</time>
      </trkpt>
      <trkpt lat="47.03332" lon="5.54575">
        <ele>222</ele>
        <time>2010-05-07T12:32:25Z</time>
      </trkpt>
      <trkpt lat="47.03319" lon="5.54575">
        <ele>228</ele>
        <time>2010-05-07T12:32:28Z</time>
      </trkpt>
      <trkpt lat="47.03307" lon="5.54579">
        <ele>228</ele>
        <time>2010-05-07T12:32:31Z</time>
      </trkpt>
      <trkpt lat="47.03296" lon="5.54583">
        <ele>228</ele>
        <time>2010-05-07T12:32:34Z</time>
      </trkpt>
      <trkpt lat="47.03284" lon="5.54588">
        <ele>228</ele>
        <time>2010-05-07T12:32:37Z</time>
      </trkpt>
      <trkpt lat="47.03272" lon="5.54593">
        <ele>228</ele>
        <time>2010-05-07T12:32:40Z</time>
      </trkpt>
      <trkpt lat="47.03263" lon="5.54597">
        <ele>228</ele>
        <time>2010-05-07T12:32:42Z</time>
      </trkpt>
      <trkpt lat="47.03255" lon="5.54604">
        <ele>228</ele>
        <time>2010-05-07T12:32:44Z</time>
      </trkpt>
      <trkpt lat="47.03247" lon="5.54612">
        <ele>228</ele>
        <time>2010-05-07T12:32:46Z</time>
      </trkpt>
      <trkpt lat="47.0324" lon="5.54621">
        <ele>228</ele>
        <time>2010-05-07T12:32:48Z</time>
      </trkpt>
      <trkpt lat="47.03233" lon="5.5463">
        <ele>228</ele>
        <time>2010-05-07T12:32:50Z</time>
      </trkpt>
      <trkpt lat="47.03226" lon="5.5464">
        <ele>228</ele>
        <time>2010-05-07T12:32:52Z</time>
      </trkpt>
      <trkpt lat="47.0322" lon="5.54651">
        <ele>228</ele>
        <time>2010-05-07T12:32:54Z</time>
      </trkpt>
      <trkpt lat="47.03214" lon="5.54664">
        <ele>228</ele>
        <time>2010-05-07T12:32:56Z</time>
      </trkpt>
      <trkpt lat="47.03207" lon="5.54677">
        <ele>228</ele>
        <time>2010-05-07T12:32:58Z</time>
      </trkpt>
      <trkpt lat="47.03201" lon="5.54688">
        <ele>228</ele>
        <time>2010-05-07T12:33:00Z</time>
      </trkpt>
      <trkpt lat="47.03195" lon="5.547">
        <ele>228</ele>
        <time>2010-05-07T12:33:02Z</time>
      </trkpt>
      <trkpt lat="47.03188" lon="5.54712">
        <ele>228</ele>
        <time>2010-05-07T12:33:04Z</time>
      </trkpt>
      <trkpt lat="47.03181" lon="5.54725">
        <ele>228</ele>
        <time>2010-05-07T12:33:06Z</time>
      </trkpt>
      <trkpt lat="47.03175" lon="5.54739">
        <ele>228</ele>
        <time>2010-05-07T12:33:08Z</time>
      </trkpt>
      <trkpt lat="47.03169" lon="5.54753">
        <ele>228</ele>
        <time>2010-05-07T12:33:10Z</time>
      </trkpt>
      <trkpt lat="47.03162" lon="5.54766">
        <ele>228</ele>
        <time>2010-05-07T12:33:12Z</time>
      </trkpt>
      <trkpt lat="47.03156" lon="5.54781">
        <ele>228</ele>
        <time>2010-05-07T12:33:14Z</time>
      </trkpt>
      <trkpt lat="47.03149" lon="5.54794">
        <ele>228</ele>
        <time>2010-05-07T12:33:16Z</time>
      </trkpt>
      <trkpt lat="47.03142" lon="5.54807">
        <ele>228</ele>
        <time>2010-05-07T12:33:18Z</time>
      </trkpt>
      <trkpt lat="47.03136" lon="5.5482">
        <ele>228</ele>
        <time>2010-05-07T12:33:20Z</time>
      </trkpt>
      <trkpt lat="47.03129" lon="5.54833">
        <ele>228</ele>
        <time>2010-05-07T12:33:22Z</time>
      </trkpt>
      <trkpt lat="47.03123" lon="5.54845">
        <ele>228</ele>
        <time>2010-05-07T12:33:24Z</time>
      </trkpt>
      <trkpt lat="47.03116" lon="5.54857">
        <ele>228</ele>
        <time>2010-05-07T12:33:26Z</time>
      </trkpt>
      <trkpt lat="47.03111" lon="5.54869">
        <ele>228</ele>
        <time>2010-05-07T12:33:28Z</time>
      </trkpt>
      <trkpt lat="47.03105" lon="5.5488">
        <ele>228</ele>
        <time>2010-05-07T12:33:30Z</time>
      </trkpt>
      <trkpt lat="47.03099" lon="5.54893">
        <ele>228</ele>
        <time>2010-05-07T12:33:32Z</time>
      </trkpt>
      <trkpt lat="47.03093" lon="5.54904">
        <ele>228</ele>
        <time>2010-05-07T12:33:34Z</time>
      </trkpt>
      <trkpt lat="47.03087" lon="5.54915">
        <ele>228</ele>
        <time>2010-05-07T12:33:36Z</time>
      </trkpt>
      <trkpt lat="47.03081" lon="5.54925">
        <ele>228</ele>
        <time>2010-05-07T12:33:38Z</time>
      </trkpt>
      <trkpt lat="47.03075" lon="5.54936">
        <ele>228</ele>
        <time>2010-05-07T12:33:40Z</time>
      </trkpt>
      <trkpt lat="47.03069" lon="5.54948">
        <ele>228</ele>
        <time>2010-05-07T12:33:42Z</time>
      </trkpt>
      <trkpt lat="47.03062" lon="5.54959">
        <ele>228</ele>
        <time>2010-05-07T12:33:44Z</time>
      </trkpt>
      <trkpt lat="47.03054" lon="5.54968">
        <ele>228</ele>
        <time>2010-05-07T12:33:46Z</time>
      </trkpt>
      <trkpt lat="47.03048" lon="5.5498">
        <ele>228</ele>
        <time>2010-05-07T12:33:48Z</time>
      </trkpt>
      <trkpt lat="47.03042" lon="5.54994">
        <ele>228</ele>
        <time>2010-05-07T12:33:50Z</time>
      </trkpt>
      <trkpt lat="47.03034" lon="5.55005">
        <ele>228</ele>
        <time>2010-05-07T12:33:52Z</time>
      </trkpt>
      <trkpt lat="47.03027" lon="5.55018">
        <ele>233</ele>
        <time>2010-05-07T12:33:54Z</time>
      </trkpt>
      <trkpt lat="47.03021" lon="5.5503">
        <ele>233</ele>
        <time>2010-05-07T12:33:56Z</time>
      </trkpt>
      <trkpt lat="47.03015" lon="5.55042">
        <ele>233</ele>
        <time>2010-05-07T12:33:58Z</time>
      </trkpt>
      <trkpt lat="47.03009" lon="5.55053">
        <ele>233</ele>
        <time>2010-05-07T12:34:00Z</time>
      </trkpt>
      <trkpt lat="47.03003" lon="5.55067">
        <ele>233</ele>
        <time>2010-05-07T12:34:02Z</time>
      </trkpt>
      <trkpt lat="47.02996" lon="5.55079">
        <ele>233</ele>
        <time>2010-05-07T12:34:04Z</time>
      </trkpt>
      <trkpt lat="47.02989" lon="5.55092">
        <ele>233</ele>
        <time>2010-05-07T12:34:06Z</time>
      </trkpt>
      <trkpt lat="47.02982" lon="5.55105">
        <ele>233</ele>
        <time>2010-05-07T12:34:08Z</time>
      </trkpt>
      <trkpt lat="47.02976" lon="5.55118">
        <ele>233</ele>
        <time>2010-05-07T12:34:10Z</time>
      </trkpt>
      <trkpt lat="47.0297" lon="5.55135">
        <ele>233</ele>
        <time>2010-05-07T12:34:12Z</time>
      </trkpt>
      <trkpt lat="47.02962" lon="5.55148">
        <ele>233</ele>
        <time>2010-05-07T12:34:14Z</time>
      </trkpt>
      <trkpt lat="47.02953" lon="5.55162">
        <ele>233</ele>
        <time>2010-05-07T12:34:16Z</time>
      </trkpt>
      <trkpt lat="47.02945" lon="5.55175">
        <ele>233</ele>
        <time>2010-05-07T12:34:18Z</time>
      </trkpt>
      <trkpt lat="47.02937" lon="5.55188">
        <ele>233</ele>
        <time>2010-05-07T12:34:20Z</time>
      </trkpt>
      <trkpt lat="47.02929" lon="5.55199">
        <ele>233</ele>
        <time>2010-05-07T12:34:22Z</time>
      </trkpt>
      <trkpt lat="47.0292" lon="5.55213">
        <ele>233</ele>
        <time>2010-05-07T12:34:24Z</time>
      </trkpt>
      <trkpt lat="47.02911" lon="5.55224">
        <ele>233</ele>
        <time>2010-05-07T12:34:26Z</time>
      </trkpt>
      <trkpt lat="47.02904" lon="5.55237">
        <ele>233</ele>
        <time>2010-05-07T12:34:28Z</time>
      </trkpt>
      <trkpt lat="47.02896" lon="5.55249">
        <ele>233</ele>
        <time>2010-05-07T12:34:30Z</time>
      </trkpt>
      <trkpt lat="47.02887" lon="5.5526">
        <ele>233</ele>
        <time>2010-05-07T12:34:32Z</time>
      </trkpt>
      <trkpt lat="47.02878" lon="5.5527">
        <ele>233</ele>
        <time>2010-05-07T12:34:34Z</time>
      </trkpt>
      <trkpt lat="47.02868" lon="5.5528">
        <ele>233</ele>
        <time>2010-05-07T12:34:36Z</time>
      </trkpt>
      <trkpt lat="47.02859" lon="5.55291">
        <ele>233</ele>
        <time>2010-05-07T12:34:38Z</time>
      </trkpt>
      <trkpt lat="47.02851" lon="5.55303">
        <ele>233</ele>
        <time>2010-05-07T12:34:40Z</time>
      </trkpt>
      <trkpt lat="47.02841" lon="5.55313">
        <ele>233</ele>
        <time>2010-05-07T12:34:42Z</time>
      </trkpt>
      <trkpt lat="47.02834" lon="5.55328">
        <ele>233</ele>
        <time>2010-05-07T12:34:44Z</time>
      </trkpt>
      <trkpt lat="47.02825" lon="5.55339">
        <ele>233</ele>
        <time>2010-05-07T12:34:46Z</time>
      </trkpt>
      <trkpt lat="47.02817" lon="5.55351">
        <ele>233</ele>
        <time>2010-05-07T12:34:48Z</time>
      </trkpt>
      <trkpt lat="47.02809" lon="5.55365">
        <ele>233</ele>
        <time>2010-05-07T12:34:50Z</time>
      </trkpt>
      <trkpt lat="47.02801" lon="5.55379">
        <ele>233</ele>
        <time>2010-05-07T12:34:52Z</time>
      </trkpt>
      <trkpt lat="47.02795" lon="5.55394">
        <ele>233</ele>
        <time>2010-05-07T12:34:54Z</time>
      </trkpt>
      <trkpt lat="47.02787" lon="5.55409">
        <ele>233</ele>
        <time>2010-05-07T12:34:56Z</time>
      </trkpt>
      <trkpt lat="47.02779" lon="5.55422">
        <ele>233</ele>
        <time>2010-05-07T12:34:58Z</time>
      </trkpt>
      <trkpt lat="47.02772" lon="5.55436">
        <ele>233</ele>
        <time>2010-05-07T12:35:00Z</time>
      </trkpt>
      <trkpt lat="47.02765" lon="5.55448">
        <ele>233</ele>
        <time>2010-05-07T12:35:02Z</time>
      </trkpt>
      <trkpt lat="47.02756" lon="5.55461">
        <ele>233</ele>
        <time>2010-05-07T12:35:04Z</time>
      </trkpt>
      <trkpt lat="47.02749" lon="5.55474">
        <ele>233</ele>
        <time>2010-05-07T12:35:06Z</time>
      </trkpt>
      <trkpt lat="47.02743" lon="5.5549">
        <ele>233</ele>
        <time>2010-05-07T12:35:08Z</time>
      </trkpt>
      <trkpt lat="47.02737" lon="5.55505">
        <ele>233</ele>
        <time>2010-05-07T12:35:10Z</time>
      </trkpt>
      <trkpt lat="47.02733" lon="5.55521">
        <ele>233</ele>
        <time>2010-05-07T12:35:12Z</time>
      </trkpt>
      <trkpt lat="47.0273" lon="5.5554">
        <ele>233</ele>
        <time>2010-05-07T12:35:14Z</time>
      </trkpt>
      <trkpt lat="47.02724" lon="5.55557">
        <ele>233</ele>
        <time>2010-05-07T12:35:16Z</time>
      </trkpt>
      <trkpt lat="47.02717" lon="5.55574">
        <ele>233</ele>
        <time>2010-05-07T12:35:18Z</time>
      </trkpt>
      <trkpt lat="47.02712" lon="5.55593">
        <ele>233</ele>
        <time>2010-05-07T12:35:20Z</time>
      </trkpt>
      <trkpt lat="47.02706" lon="5.55613">
        <ele>233</ele>
        <time>2010-05-07T12:35:22Z</time>
      </trkpt>
      <trkpt lat="47.02703" lon="5.55636">
        <ele>233</ele>
        <time>2010-05-07T12:35:24Z</time>
      </trkpt>
      <trkpt lat="47.02699" lon="5.55656">
        <ele>233</ele>
        <time>2010-05-07T12:35:26Z</time>
      </trkpt>
      <trkpt lat="47.02696" lon="5.55676">
        <ele>233</ele>
        <time>2010-05-07T12:35:28Z</time>
      </trkpt>
      <trkpt lat="47.02689" lon="5.55693">
        <ele>233</ele>
        <time>2010-05-07T12:35:30Z</time>
      </trkpt>
      <trkpt lat="47.0268" lon="5.55706">
        <ele>233</ele>
        <time>2010-05-07T12:35:32Z</time>
      </trkpt>
      <trkpt lat="47.02671" lon="5.55715">
        <ele>233</ele>
        <time>2010-05-07T12:35:34Z</time>
      </trkpt>
      <trkpt lat="47.0266" lon="5.55724">
        <ele>233</ele>
        <time>2010-05-07T12:35:36Z</time>
      </trkpt>
      <trkpt lat="47.02652" lon="5.55737">
        <ele>233</ele>
        <time>2010-05-07T12:35:38Z</time>
      </trkpt>
      <trkpt lat="47.02643" lon="5.55748">
        <ele>233</ele>
        <time>2010-05-07T12:35:40Z</time>
      </trkpt>
      <trkpt lat="47.02634" lon="5.5576">
        <ele>233</ele>
        <time>2010-05-07T12:35:42Z</time>
      </trkpt>
      <trkpt lat="47.02627" lon="5.55774">
        <ele>233</ele>
        <time>2010-05-07T12:35:44Z</time>
      </trkpt>
      <trkpt lat="47.02619" lon="5.55788">
        <ele>233</ele>
        <time>2010-05-07T12:35:46Z</time>
      </trkpt>
      <trkpt lat="47.02612" lon="5.558">
        <ele>233</ele>
        <time>2010-05-07T12:35:48Z</time>
      </trkpt>
      <trkpt lat="47.02605" lon="5.55813">
        <ele>233</ele>
        <time>2010-05-07T12:35:50Z</time>
      </trkpt>
      <trkpt lat="47.02601" lon="5.55826">
        <ele>233</ele>
        <time>2010-05-07T12:35:52Z</time>
      </trkpt>
      <trkpt lat="47.02595" lon="5.5584">
        <ele>233</ele>
        <time>2010-05-07T12:35:54Z</time>
      </trkpt>
      <trkpt lat="47.02592" lon="5.55852">
        <ele>233</ele>
        <time>2010-05-07T12:35:56Z</time>
      </trkpt>
      <trkpt lat="47.02586" lon="5.55871">
        <ele>240</ele>
        <time>2010-05-07T12:35:59Z</time>
      </trkpt>
      <trkpt lat="47.0258" lon="5.55884">
        <ele>240</ele>
        <time>2010-05-07T12:36:01Z</time>
      </trkpt>
      <trkpt lat="47.02572" lon="5.55897">
        <ele>240</ele>
        <time>2010-05-07T12:36:04Z</time>
      </trkpt>
      <trkpt lat="47.02565" lon="5.55907">
        <ele>240</ele>
        <time>2010-05-07T12:36:06Z</time>
      </trkpt>
      <trkpt lat="47.02559" lon="5.55923">
        <ele>240</ele>
        <time>2010-05-07T12:36:08Z</time>
      </trkpt>
      <trkpt lat="47.02554" lon="5.55938">
        <ele>240</ele>
        <time>2010-05-07T12:36:10Z</time>
      </trkpt>
      <trkpt lat="47.02547" lon="5.5595">
        <ele>240</ele>
        <time>2010-05-07T12:36:12Z</time>
      </trkpt>
      <trkpt lat="47.02543" lon="5.55964">
        <ele>240</ele>
        <time>2010-05-07T12:36:14Z</time>
      </trkpt>
      <trkpt lat="47.02541" lon="5.5598">
        <ele>240</ele>
        <time>2010-05-07T12:36:16Z</time>
      </trkpt>
      <trkpt lat="47.02538" lon="5.55993">
        <ele>240</ele>
        <time>2010-05-07T12:36:18Z</time>
      </trkpt>
      <trkpt lat="47.02531" lon="5.56005">
        <ele>240</ele>
        <time>2010-05-07T12:36:20Z</time>
      </trkpt>
      <trkpt lat="47.02528" lon="5.56019">
        <ele>240</ele>
        <time>2010-05-07T12:36:22Z</time>
      </trkpt>
      <trkpt lat="47.02522" lon="5.56037">
        <ele>240</ele>
        <time>2010-05-07T12:36:25Z</time>
      </trkpt>
      <trkpt lat="47.02519" lon="5.56053">
        <ele>240</ele>
        <time>2010-05-07T12:36:27Z</time>
      </trkpt>
      <trkpt lat="47.02518" lon="5.5607">
        <ele>240</ele>
        <time>2010-05-07T12:36:29Z</time>
      </trkpt>
      <trkpt lat="47.02517" lon="5.56086">
        <ele>240</ele>
        <time>2010-05-07T12:36:31Z</time>
      </trkpt>
      <trkpt lat="47.02516" lon="5.561">
        <ele>240</ele>
        <time>2010-05-07T12:36:33Z</time>
      </trkpt>
      <trkpt lat="47.02513" lon="5.56114">
        <ele>240</ele>
        <time>2010-05-07T12:36:35Z</time>
      </trkpt>
      <trkpt lat="47.0251" lon="5.56128">
        <ele>240</ele>
        <time>2010-05-07T12:36:37Z</time>
      </trkpt>
      <trkpt lat="47.02507" lon="5.56145">
        <ele>240</ele>
        <time>2010-05-07T12:36:39Z</time>
      </trkpt>
      <trkpt lat="47.02504" lon="5.56161">
        <ele>240</ele>
        <time>2010-05-07T12:36:41Z</time>
      </trkpt>
      <trkpt lat="47.02503" lon="5.56178">
        <ele>240</ele>
        <time>2010-05-07T12:36:43Z</time>
      </trkpt>
      <trkpt lat="47.02502" lon="5.56195">
        <ele>240</ele>
        <time>2010-05-07T12:36:45Z</time>
      </trkpt>
      <trkpt lat="47.025" lon="5.5621">
        <ele>240</ele>
        <time>2010-05-07T12:36:47Z</time>
      </trkpt>
      <trkpt lat="47.02497" lon="5.56224">
        <ele>240</ele>
        <time>2010-05-07T12:36:49Z</time>
      </trkpt>
      <trkpt lat="47.02494" lon="5.56239">
        <ele>240</ele>
        <time>2010-05-07T12:36:51Z</time>
      </trkpt>
      <trkpt lat="47.02492" lon="5.56254">
        <ele>240</ele>
        <time>2010-05-07T12:36:53Z</time>
      </trkpt>
      <trkpt lat="47.02488" lon="5.56269">
        <ele>240</ele>
        <time>2010-05-07T12:36:55Z</time>
      </trkpt>
      <trkpt lat="47.02484" lon="5.56284">
        <ele>240</ele>
        <time>2010-05-07T12:36:57Z</time>
      </trkpt>
      <trkpt lat="47.02478" lon="5.56296">
        <ele>240</ele>
        <time>2010-05-07T12:36:59Z</time>
      </trkpt>
      <trkpt lat="47.02471" lon="5.56307">
        <ele>240</ele>
        <time>2010-05-07T12:37:01Z</time>
      </trkpt>
      <trkpt lat="47.02463" lon="5.56317">
        <ele>234</ele>
        <time>2010-05-07T12:37:04Z</time>
      </trkpt>
      <trkpt lat="47.02453" lon="5.56318">
        <ele>234</ele>
        <time>2010-05-07T12:37:06Z</time>
      </trkpt>
      <trkpt lat="47.02441" lon="5.56316">
        <ele>234</ele>
        <time>2010-05-07T12:37:08Z</time>
      </trkpt>
      <trkpt lat="47.02427" lon="5.56315">
        <ele>228</ele>
        <time>2010-05-07T12:37:10Z</time>
      </trkpt>
      <trkpt lat="47.02413" lon="5.5632">
        <ele>228</ele>
        <time>2010-05-07T12:37:12Z</time>
      </trkpt>
      <trkpt lat="47.024" lon="5.56329">
        <ele>228</ele>
        <time>2010-05-07T12:37:14Z</time>
      </trkpt>
      <trkpt lat="47.02388" lon="5.56345">
        <ele>228</ele>
        <time>2010-05-07T12:37:16Z</time>
      </trkpt>
      <trkpt lat="47.02377" lon="5.56362">
        <ele>228</ele>
        <time>2010-05-07T12:37:18Z</time>
      </trkpt>
      <trkpt lat="47.02368" lon="5.56378">
        <ele>228</ele>
        <time>2010-05-07T12:37:20Z</time>
      </trkpt>
      <trkpt lat="47.02361" lon="5.56393">
        <ele>228</ele>
        <time>2010-05-07T12:37:22Z</time>
      </trkpt>
      <trkpt lat="47.02355" lon="5.56408">
        <ele>223</ele>
        <time>2010-05-07T12:37:24Z</time>
      </trkpt>
      <trkpt lat="47.0235" lon="5.5642">
        <ele>223</ele>
        <time>2010-05-07T12:37:26Z</time>
      </trkpt>
      <trkpt lat="47.02343" lon="5.56435">
        <ele>223</ele>
        <time>2010-05-07T12:37:29Z</time>
      </trkpt>
      <trkpt lat="47.02339" lon="5.56447">
        <ele>223</ele>
        <time>2010-05-07T12:37:31Z</time>
      </trkpt>
      <trkpt lat="47.02335" lon="5.56459">
        <ele>223</ele>
        <time>2010-05-07T12:37:33Z</time>
      </trkpt>
      <trkpt lat="47.02329" lon="5.5647">
        <ele>223</ele>
        <time>2010-05-07T12:37:35Z</time>
      </trkpt>
      <trkpt lat="47.02327" lon="5.56486">
        <ele>223</ele>
        <time>2010-05-07T12:37:37Z</time>
      </trkpt>
      <trkpt lat="47.02322" lon="5.56504">
        <ele>228</ele>
        <time>2010-05-07T12:37:40Z</time>
      </trkpt>
      <trkpt lat="47.02319" lon="5.56516">
        <ele>228</ele>
        <time>2010-05-07T12:37:42Z</time>
      </trkpt>
      <trkpt lat="47.02317" lon="5.5653">
        <ele>228</ele>
        <time>2010-05-07T12:37:44Z</time>
      </trkpt>
      <trkpt lat="47.02316" lon="5.56543">
        <ele>228</ele>
        <time>2010-05-07T12:37:46Z</time>
      </trkpt>
      <trkpt lat="47.02315" lon="5.56562">
        <ele>228</ele>
        <time>2010-05-07T12:37:49Z</time>
      </trkpt>
      <trkpt lat="47.02315" lon="5.56576">
        <ele>228</ele>
        <time>2010-05-07T12:37:51Z</time>
      </trkpt>
      <trkpt lat="47.02314" lon="5.56594">
        <ele>228</ele>
        <time>2010-05-07T12:37:54Z</time>
      </trkpt>
      <trkpt lat="47.02312" lon="5.56614">
        <ele>233</ele>
        <time>2010-05-07T12:37:57Z</time>
      </trkpt>
      <trkpt lat="47.0231" lon="5.56633">
        <ele>233</ele>
        <time>2010-05-07T12:38:00Z</time>
      </trkpt>
      <trkpt lat="47.02309" lon="5.56647">
        <ele>233</ele>
        <time>2010-05-07T12:38:02Z</time>
      </trkpt>
      <trkpt lat="47.02307" lon="5.5666">
        <ele>233</ele>
        <time>2010-05-07T12:38:04Z</time>
      </trkpt>
      <trkpt lat="47.02306" lon="5.56673">
        <ele>233</ele>
        <time>2010-05-07T12:38:06Z</time>
      </trkpt>
      <trkpt lat="47.02304" lon="5.56692">
        <ele>233</ele>
        <time>2010-05-07T12:38:09Z</time>
      </trkpt>
      <trkpt lat="47.02301" lon="5.56706">
        <ele>233</ele>
        <time>2010-05-07T12:38:11Z</time>
      </trkpt>
      <trkpt lat="47.023" lon="5.56719">
        <ele>233</ele>
        <time>2010-05-07T12:38:13Z</time>
      </trkpt>
      <trkpt lat="47.023" lon="5.56735">
        <ele>233</ele>
        <time>2010-05-07T12:38:15Z</time>
      </trkpt>
      <trkpt lat="47.02296" lon="5.56748">
        <ele>233</ele>
        <time>2010-05-07T12:38:17Z</time>
      </trkpt>
      <trkpt lat="47.02295" lon="5.56763">
        <ele>233</ele>
        <time>2010-05-07T12:38:19Z</time>
      </trkpt>
      <trkpt lat="47.02293" lon="5.56779">
        <ele>233</ele>
        <time>2010-05-07T12:38:21Z</time>
      </trkpt>
      <trkpt lat="47.0229" lon="5.56792">
        <ele>233</ele>
        <time>2010-05-07T12:38:23Z</time>
      </trkpt>
      <trkpt lat="47.02287" lon="5.56806">
        <ele>233</ele>
        <time>2010-05-07T12:38:25Z</time>
      </trkpt>
      <trkpt lat="47.02282" lon="5.5682">
        <ele>233</ele>
        <time>2010-05-07T12:38:27Z</time>
      </trkpt>
      <trkpt lat="47.02277" lon="5.56834">
        <ele>233</ele>
        <time>2010-05-07T12:38:29Z</time>
      </trkpt>
      <trkpt lat="47.02272" lon="5.56848">
        <ele>233</ele>
        <time>2010-05-07T12:38:31Z</time>
      </trkpt>
      <trkpt lat="47.02266" lon="5.5686">
        <ele>233</ele>
        <time>2010-05-07T12:38:33Z</time>
      </trkpt>
      <trkpt lat="47.02261" lon="5.56875">
        <ele>233</ele>
        <time>2010-05-07T12:38:35Z</time>
      </trkpt>
      <trkpt lat="47.02254" lon="5.56889">
        <ele>233</ele>
        <time>2010-05-07T12:38:37Z</time>
      </trkpt>
      <trkpt lat="47.02247" lon="5.56904">
        <ele>233</ele>
        <time>2010-05-07T12:38:39Z</time>
      </trkpt>
      <trkpt lat="47.02239" lon="5.5692">
        <ele>233</ele>
        <time>2010-05-07T12:38:41Z</time>
      </trkpt>
      <trkpt lat="47.02231" lon="5.56936">
        <ele>228</ele>
        <time>2010-05-07T12:38:43Z</time>
      </trkpt>
      <trkpt lat="47.02223" lon="5.56952">
        <ele>228</ele>
        <time>2010-05-07T12:38:45Z</time>
      </trkpt>
      <trkpt lat="47.02215" lon="5.56967">
        <ele>228</ele>
        <time>2010-05-07T12:38:47Z</time>
      </trkpt>
      <trkpt lat="47.02208" lon="5.56983">
        <ele>228</ele>
        <time>2010-05-07T12:38:49Z</time>
      </trkpt>
      <trkpt lat="47.02201" lon="5.57">
        <ele>228</ele>
        <time>2010-05-07T12:38:51Z</time>
      </trkpt>
      <trkpt lat="47.02194" lon="5.57016">
        <ele>228</ele>
        <time>2010-05-07T12:38:53Z</time>
      </trkpt>
      <trkpt lat="47.02187" lon="5.57032">
        <ele>228</ele>
        <time>2010-05-07T12:38:55Z</time>
      </trkpt>
      <trkpt lat="47.02182" lon="5.57049">
        <ele>228</ele>
        <time>2010-05-07T12:38:57Z</time>
      </trkpt>
      <trkpt lat="47.0218" lon="5.57069">
        <ele>228</ele>
        <time>2010-05-07T12:38:59Z</time>
      </trkpt>
      <trkpt lat="47.02178" lon="5.57088">
        <ele>228</ele>
        <time>2010-05-07T12:39:01Z</time>
      </trkpt>
      <trkpt lat="47.02176" lon="5.57105">
        <ele>228</ele>
        <time>2010-05-07T12:39:03Z</time>
      </trkpt>
      <trkpt lat="47.02174" lon="5.57123">
        <ele>228</ele>
        <time>2010-05-07T12:39:05Z</time>
      </trkpt>
      <trkpt lat="47.02172" lon="5.5714">
        <ele>228</ele>
        <time>2010-05-07T12:39:07Z</time>
      </trkpt>
      <trkpt lat="47.02169" lon="5.57156">
        <ele>228</ele>
        <time>2010-05-07T12:39:09Z</time>
      </trkpt>
      <trkpt lat="47.02168" lon="5.57172">
        <ele>228</ele>
        <time>2010-05-07T12:39:11Z</time>
      </trkpt>
      <trkpt lat="47.02167" lon="5.57189">
        <ele>228</ele>
        <time>2010-05-07T12:39:13Z</time>
      </trkpt>
      <trkpt lat="47.02166" lon="5.57205">
        <ele>228</ele>
        <time>2010-05-07T12:39:15Z</time>
      </trkpt>
      <trkpt lat="47.02166" lon="5.57221">
        <ele>228</ele>
        <time>2010-05-07T12:39:17Z</time>
      </trkpt>
      <trkpt lat="47.02164" lon="5.57234">
        <ele>228</ele>
        <time>2010-05-07T12:39:19Z</time>
      </trkpt>
      <trkpt lat="47.02163" lon="5.57248">
        <ele>228</ele>
        <time>2010-05-07T12:39:21Z</time>
      </trkpt>
      <trkpt lat="47.02163" lon="5.57264">
        <ele>228</ele>
        <time>2010-05-07T12:39:23Z</time>
      </trkpt>
      <trkpt lat="47.02161" lon="5.57278">
        <ele>234</ele>
        <time>2010-05-07T12:39:25Z</time>
      </trkpt>
      <trkpt lat="47.02161" lon="5.57292">
        <ele>234</ele>
        <time>2010-05-07T12:39:27Z</time>
      </trkpt>
      <trkpt lat="47.0216" lon="5.57308">
        <ele>234</ele>
        <time>2010-05-07T12:39:29Z</time>
      </trkpt>
      <trkpt lat="47.02159" lon="5.57322">
        <ele>234</ele>
        <time>2010-05-07T12:39:31Z</time>
      </trkpt>
      <trkpt lat="47.02158" lon="5.57336">
        <ele>234</ele>
        <time>2010-05-07T12:39:33Z</time>
      </trkpt>
      <trkpt lat="47.02158" lon="5.57351">
        <ele>234</ele>
        <time>2010-05-07T12:39:35Z</time>
      </trkpt>
      <trkpt lat="47.02159" lon="5.57367">
        <ele>234</ele>
        <time>2010-05-07T12:39:37Z</time>
      </trkpt>
      <trkpt lat="47.02159" lon="5.57381">
        <ele>234</ele>
        <time>2010-05-07T12:39:39Z</time>
      </trkpt>
      <trkpt lat="47.02159" lon="5.57397">
        <ele>234</ele>
        <time>2010-05-07T12:39:41Z</time>
      </trkpt>
      <trkpt lat="47.02159" lon="5.57414">
        <ele>234</ele>
        <time>2010-05-07T12:39:43Z</time>
      </trkpt>
      <trkpt lat="47.0216" lon="5.57429">
        <ele>234</ele>
        <time>2010-05-07T12:39:45Z</time>
      </trkpt>
      <trkpt lat="47.0216" lon="5.57446">
        <ele>234</ele>
        <time>2010-05-07T12:39:47Z</time>
      </trkpt>
      <trkpt lat="47.0216" lon="5.57464">
        <ele>234</ele>
        <time>2010-05-07T12:39:49Z</time>
      </trkpt>
      <trkpt lat="47.0216" lon="5.57484">
        <ele>234</ele>
        <time>2010-05-07T12:39:51Z</time>
      </trkpt>
      <trkpt lat="47.02158" lon="5.57503">
        <ele>234</ele>
        <time>2010-05-07T12:39:53Z</time>
      </trkpt>
      <trkpt lat="47.02155" lon="5.57522">
        <ele>234</ele>
        <time>2010-05-07T12:39:55Z</time>
      </trkpt>
      <trkpt lat="47.0215" lon="5.5754">
        <ele>234</ele>
        <time>2010-05-07T12:39:57Z</time>
      </trkpt>
      <trkpt lat="47.02145" lon="5.57557">
        <ele>234</ele>
        <time>2010-05-07T12:39:59Z</time>
      </trkpt>
      <trkpt lat="47.02139" lon="5.57574">
        <ele>228</ele>
        <time>2010-05-07T12:40:01Z</time>
      </trkpt>
      <trkpt lat="47.02134" lon="5.5759">
        <ele>228</ele>
        <time>2010-05-07T12:40:03Z</time>
      </trkpt>
      <trkpt lat="47.02128" lon="5.57605">
        <ele>228</ele>
        <time>2010-05-07T12:40:05Z</time>
      </trkpt>
      <trkpt lat="47.02123" lon="5.57621">
        <ele>228</ele>
        <time>2010-05-07T12:40:07Z</time>
      </trkpt>
      <trkpt lat="47.02117" lon="5.57637">
        <ele>228</ele>
        <time>2010-05-07T12:40:09Z</time>
      </trkpt>
      <trkpt lat="47.02111" lon="5.57654">
        <ele>228</ele>
        <time>2010-05-07T12:40:11Z</time>
      </trkpt>
      <trkpt lat="47.02105" lon="5.57671">
        <ele>228</ele>
        <time>2010-05-07T12:40:13Z</time>
      </trkpt>
      <trkpt lat="47.02099" lon="5.57689">
        <ele>228</ele>
        <time>2010-05-07T12:40:15Z</time>
      </trkpt>
      <trkpt lat="47.02092" lon="5.57706">
        <ele>228</ele>
        <time>2010-05-07T12:40:17Z</time>
      </trkpt>
      <trkpt lat="47.02086" lon="5.57723">
        <ele>228</ele>
        <time>2010-05-07T12:40:19Z</time>
      </trkpt>
      <trkpt lat="47.0208" lon="5.5774">
        <ele>228</ele>
        <time>2010-05-07T12:40:21Z</time>
      </trkpt>
      <trkpt lat="47.02073" lon="5.57756">
        <ele>228</ele>
        <time>2010-05-07T12:40:23Z</time>
      </trkpt>
      <trkpt lat="47.02067" lon="5.57772">
        <ele>228</ele>
        <time>2010-05-07T12:40:25Z</time>
      </trkpt>
      <trkpt lat="47.02059" lon="5.57787">
        <ele>228</ele>
        <time>2010-05-07T12:40:27Z</time>
      </trkpt>
      <trkpt lat="47.02051" lon="5.57803">
        <ele>228</ele>
        <time>2010-05-07T12:40:29Z</time>
      </trkpt>
      <trkpt lat="47.02042" lon="5.57818">
        <ele>228</ele>
        <time>2010-05-07T12:40:31Z</time>
      </trkpt>
      <trkpt lat="47.02033" lon="5.57832">
        <ele>228</ele>
        <time>2010-05-07T12:40:33Z</time>
      </trkpt>
      <trkpt lat="47.02024" lon="5.57848">
        <ele>228</ele>
        <time>2010-05-07T12:40:35Z</time>
      </trkpt>
      <trkpt lat="47.02016" lon="5.57865">
        <ele>228</ele>
        <time>2010-05-07T12:40:37Z</time>
      </trkpt>
      <trkpt lat="47.02007" lon="5.5788">
        <ele>228</ele>
        <time>2010-05-07T12:40:39Z</time>
      </trkpt>
      <trkpt lat="47.01998" lon="5.57895">
        <ele>228</ele>
        <time>2010-05-07T12:40:41Z</time>
      </trkpt>
      <trkpt lat="47.01989" lon="5.57911">
        <ele>228</ele>
        <time>2010-05-07T12:40:43Z</time>
      </trkpt>
      <trkpt lat="47.01979" lon="5.57928">
        <ele>228</ele>
        <time>2010-05-07T12:40:45Z</time>
      </trkpt>
      <trkpt lat="47.01968" lon="5.57945">
        <ele>228</ele>
        <time>2010-05-07T12:40:47Z</time>
      </trkpt>
      <trkpt lat="47.01958" lon="5.57961">
        <ele>228</ele>
        <time>2010-05-07T12:40:49Z</time>
      </trkpt>
      <trkpt lat="47.01948" lon="5.57975">
        <ele>223</ele>
        <time>2010-05-07T12:40:51Z</time>
      </trkpt>
      <trkpt lat="47.0194" lon="5.57989">
        <ele>223</ele>
        <time>2010-05-07T12:40:53Z</time>
      </trkpt>
      <trkpt lat="47.0193" lon="5.58001">
        <ele>223</ele>
        <time>2010-05-07T12:40:55Z</time>
      </trkpt>
      <trkpt lat="47.01921" lon="5.58015">
        <ele>223</ele>
        <time>2010-05-07T12:40:57Z</time>
      </trkpt>
      <trkpt lat="47.01911" lon="5.58026">
        <ele>223</ele>
        <time>2010-05-07T12:40:59Z</time>
      </trkpt>
      <trkpt lat="47.01903" lon="5.58039">
        <ele>223</ele>
        <time>2010-05-07T12:41:01Z</time>
      </trkpt>
      <trkpt lat="47.01893" lon="5.58051">
        <ele>223</ele>
        <time>2010-05-07T12:41:03Z</time>
      </trkpt>
      <trkpt lat="47.01884" lon="5.58066">
        <ele>223</ele>
        <time>2010-05-07T12:41:05Z</time>
      </trkpt>
      <trkpt lat="47.01874" lon="5.58078">
        <ele>223</ele>
        <time>2010-05-07T12:41:07Z</time>
      </trkpt>
      <trkpt lat="47.01864" lon="5.58092">
        <ele>223</ele>
        <time>2010-05-07T12:41:09Z</time>
      </trkpt>
      <trkpt lat="47.01855" lon="5.58106">
        <ele>223</ele>
        <time>2010-05-07T12:41:11Z</time>
      </trkpt>
      <trkpt lat="47.01846" lon="5.58121">
        <ele>223</ele>
        <time>2010-05-07T12:41:13Z</time>
      </trkpt>
      <trkpt lat="47.01836" lon="5.58135">
        <ele>223</ele>
        <time>2010-05-07T12:41:15Z</time>
      </trkpt>
      <trkpt lat="47.01825" lon="5.58143">
        <ele>223</ele>
        <time>2010-05-07T12:41:17Z</time>
      </trkpt>
      <trkpt lat="47.01814" lon="5.58142">
        <ele>218</ele>
        <time>2010-05-07T12:41:19Z</time>
      </trkpt>
      <trkpt lat="47.01797" lon="5.58135">
        <ele>218</ele>
        <time>2010-05-07T12:41:21Z</time>
      </trkpt>
      <trkpt lat="47.01788" lon="5.58132">
        <ele>218</ele>
        <time>2010-05-07T12:41:22Z</time>
      </trkpt>
      <trkpt lat="47.01771" lon="5.58125">
        <ele>218</ele>
        <time>2010-05-07T12:41:24Z</time>
      </trkpt>
      <trkpt lat="47.01756" lon="5.58123">
        <ele>218</ele>
        <time>2010-05-07T12:41:26Z</time>
      </trkpt>
      <trkpt lat="47.01742" lon="5.58134">
        <ele>218</ele>
        <time>2010-05-07T12:41:28Z</time>
      </trkpt>
      <trkpt lat="47.01732" lon="5.58148">
        <ele>218</ele>
        <time>2010-05-07T12:41:30Z</time>
      </trkpt>
      <trkpt lat="47.01725" lon="5.58166">
        <ele>218</ele>
        <time>2010-05-07T12:41:32Z</time>
      </trkpt>
      <trkpt lat="47.01722" lon="5.58189">
        <ele>218</ele>
        <time>2010-05-07T12:41:34Z</time>
      </trkpt>
      <trkpt lat="47.01721" lon="5.58214">
        <ele>218</ele>
        <time>2010-05-07T12:41:36Z</time>
      </trkpt>
      <trkpt lat="47.01718" lon="5.58236">
        <ele>218</ele>
        <time>2010-05-07T12:41:38Z</time>
      </trkpt>
      <trkpt lat="47.01717" lon="5.58259">
        <ele>218</ele>
        <time>2010-05-07T12:41:40Z</time>
      </trkpt>
      <trkpt lat="47.01717" lon="5.58281">
        <ele>218</ele>
        <time>2010-05-07T12:41:42Z</time>
      </trkpt>
      <trkpt lat="47.01717" lon="5.58302">
        <ele>218</ele>
        <time>2010-05-07T12:41:44Z</time>
      </trkpt>
      <trkpt lat="47.01717" lon="5.58323">
        <ele>218</ele>
        <time>2010-05-07T12:41:46Z</time>
      </trkpt>
      <trkpt lat="47.01717" lon="5.58343">
        <ele>218</ele>
        <time>2010-05-07T12:41:48Z</time>
      </trkpt>
      <trkpt lat="47.01717" lon="5.58364">
        <ele>218</ele>
        <time>2010-05-07T12:41:50Z</time>
      </trkpt>
      <trkpt lat="47.01718" lon="5.58384">
        <ele>218</ele>
        <time>2010-05-07T12:41:52Z</time>
      </trkpt>
      <trkpt lat="47.01718" lon="5.58403">
        <ele>218</ele>
        <time>2010-05-07T12:41:54Z</time>
      </trkpt>
      <trkpt lat="47.01718" lon="5.5842">
        <ele>218</ele>
        <time>2010-05-07T12:41:56Z</time>
      </trkpt>
      <trkpt lat="47.01717" lon="5.58435">
        <ele>218</ele>
        <time>2010-05-07T12:41:58Z</time>
      </trkpt>
      <trkpt lat="47.01715" lon="5.58452">
        <ele>218</ele>
        <time>2010-05-07T12:42:00Z</time>
      </trkpt>
      <trkpt lat="47.01711" lon="5.58471">
        <ele>218</ele>
        <time>2010-05-07T12:42:02Z</time>
      </trkpt>
      <trkpt lat="47.01706" lon="5.5849">
        <ele>218</ele>
        <time>2010-05-07T12:42:04Z</time>
      </trkpt>
      <trkpt lat="47.01699" lon="5.58507">
        <ele>218</ele>
        <time>2010-05-07T12:42:06Z</time>
      </trkpt>
      <trkpt lat="47.01693" lon="5.58525">
        <ele>218</ele>
        <time>2010-05-07T12:42:08Z</time>
      </trkpt>
      <trkpt lat="47.01686" lon="5.58541">
        <ele>218</ele>
        <time>2010-05-07T12:42:10Z</time>
      </trkpt>
      <trkpt lat="47.0168" lon="5.58558">
        <ele>218</ele>
        <time>2010-05-07T12:42:12Z</time>
      </trkpt>
      <trkpt lat="47.01677" lon="5.58577">
        <ele>218</ele>
        <time>2010-05-07T12:42:14Z</time>
      </trkpt>
      <trkpt lat="47.01673" lon="5.58597">
        <ele>218</ele>
        <time>2010-05-07T12:42:16Z</time>
      </trkpt>
      <trkpt lat="47.01672" lon="5.58617">
        <ele>218</ele>
        <time>2010-05-07T12:42:18Z</time>
      </trkpt>
      <trkpt lat="47.01671" lon="5.58638">
        <ele>218</ele>
        <time>2010-05-07T12:42:20Z</time>
      </trkpt>
      <trkpt lat="47.01672" lon="5.5866">
        <ele>218</ele>
        <time>2010-05-07T12:42:22Z</time>
      </trkpt>
      <trkpt lat="47.01672" lon="5.58681">
        <ele>218</ele>
        <time>2010-05-07T12:42:24Z</time>
      </trkpt>
      <trkpt lat="47.01672" lon="5.58703">
        <ele>218</ele>
        <time>2010-05-07T12:42:26Z</time>
      </trkpt>
      <trkpt lat="47.01672" lon="5.58723">
        <ele>218</ele>
        <time>2010-05-07T12:42:28Z</time>
      </trkpt>
      <trkpt lat="47.01671" lon="5.58743">
        <ele>218</ele>
        <time>2010-05-07T12:42:30Z</time>
      </trkpt>
      <trkpt lat="47.0167" lon="5.58763">
        <ele>218</ele>
        <time>2010-05-07T12:42:32Z</time>
      </trkpt>
      <trkpt lat="47.01669" lon="5.58782">
        <ele>218</ele>
        <time>2010-05-07T12:42:34Z</time>
      </trkpt>
      <trkpt lat="47.01668" lon="5.58801">
        <ele>218</ele>
        <time>2010-05-07T12:42:36Z</time>
      </trkpt>
      <trkpt lat="47.01667" lon="5.5882">
        <ele>218</ele>
        <time>2010-05-07T12:42:38Z</time>
      </trkpt>
      <trkpt lat="47.01664" lon="5.58838">
        <ele>218</ele>
        <time>2010-05-07T12:42:40Z</time>
      </trkpt>
      <trkpt lat="47.01662" lon="5.58856">
        <ele>218</ele>
        <time>2010-05-07T12:42:42Z</time>
      </trkpt>
      <trkpt lat="47.0166" lon="5.58874">
        <ele>218</ele>
        <time>2010-05-07T12:42:44Z</time>
      </trkpt>
      <trkpt lat="47.01658" lon="5.58892">
        <ele>218</ele>
        <time>2010-05-07T12:42:46Z</time>
      </trkpt>
      <trkpt lat="47.01656" lon="5.58911">
        <ele>218</ele>
        <time>2010-05-07T12:42:48Z</time>
      </trkpt>
      <trkpt lat="47.01655" lon="5.58929">
        <ele>218</ele>
        <time>2010-05-07T12:42:50Z</time>
      </trkpt>
      <trkpt lat="47.01656" lon="5.58947">
        <ele>218</ele>
        <time>2010-05-07T12:42:52Z</time>
      </trkpt>
      <trkpt lat="47.01657" lon="5.58965">
        <ele>218</ele>
        <time>2010-05-07T12:42:54Z</time>
      </trkpt>
      <trkpt lat="47.01658" lon="5.58984">
        <ele>213</ele>
        <time>2010-05-07T12:42:56Z</time>
      </trkpt>
      <trkpt lat="47.01661" lon="5.59003">
        <ele>213</ele>
        <time>2010-05-07T12:42:58Z</time>
      </trkpt>
      <trkpt lat="47.01663" lon="5.5902">
        <ele>213</ele>
        <time>2010-05-07T12:43:00Z</time>
      </trkpt>
      <trkpt lat="47.01666" lon="5.59038">
        <ele>213</ele>
        <time>2010-05-07T12:43:02Z</time>
      </trkpt>
      <trkpt lat="47.01668" lon="5.59054">
        <ele>213</ele>
        <time>2010-05-07T12:43:04Z</time>
      </trkpt>
      <trkpt lat="47.0167" lon="5.5907">
        <ele>213</ele>
        <time>2010-05-07T12:43:06Z</time>
      </trkpt>
      <trkpt lat="47.01673" lon="5.59086">
        <ele>213</ele>
        <time>2010-05-07T12:43:08Z</time>
      </trkpt>
      <trkpt lat="47.01677" lon="5.59102">
        <ele>213</ele>
        <time>2010-05-07T12:43:10Z</time>
      </trkpt>
      <trkpt lat="47.01681" lon="5.59119">
        <ele>213</ele>
        <time>2010-05-07T12:43:12Z</time>
      </trkpt>
      <trkpt lat="47.01685" lon="5.59137">
        <ele>213</ele>
        <time>2010-05-07T12:43:14Z</time>
      </trkpt>
      <trkpt lat="47.01688" lon="5.59154">
        <ele>213</ele>
        <time>2010-05-07T12:43:16Z</time>
      </trkpt>
      <trkpt lat="47.01691" lon="5.59171">
        <ele>213</ele>
        <time>2010-05-07T12:43:18Z</time>
      </trkpt>
      <trkpt lat="47.01693" lon="5.59191">
        <ele>208</ele>
        <time>2010-05-07T12:43:20Z</time>
      </trkpt>
      <trkpt lat="47.01686" lon="5.59209">
        <ele>208</ele>
        <time>2010-05-07T12:43:22Z</time>
      </trkpt>
      <trkpt lat="47.01675" lon="5.5922">
        <ele>208</ele>
        <time>2010-05-07T12:43:24Z</time>
      </trkpt>
      <trkpt lat="47.01663" lon="5.59229">
        <ele>208</ele>
        <time>2010-05-07T12:43:26Z</time>
      </trkpt>
      <trkpt lat="47.01652" lon="5.59237">
        <ele>213</ele>
        <time>2010-05-07T12:43:28Z</time>
      </trkpt>
      <trkpt lat="47.0164" lon="5.59244">
        <ele>213</ele>
        <time>2010-05-07T12:43:30Z</time>
      </trkpt>
      <trkpt lat="47.01629" lon="5.59254">
        <ele>213</ele>
        <time>2010-05-07T12:43:32Z</time>
      </trkpt>
      <trkpt lat="47.01617" lon="5.59262">
        <ele>213</ele>
        <time>2010-05-07T12:43:34Z</time>
      </trkpt>
      <trkpt lat="47.01605" lon="5.59271">
        <ele>219</ele>
        <time>2010-05-07T12:43:36Z</time>
      </trkpt>
      <trkpt lat="47.01594" lon="5.59278">
        <ele>219</ele>
        <time>2010-05-07T12:43:38Z</time>
      </trkpt>
      <trkpt lat="47.01582" lon="5.59284">
        <ele>219</ele>
        <time>2010-05-07T12:43:40Z</time>
      </trkpt>
      <trkpt lat="47.0157" lon="5.5929">
        <ele>219</ele>
        <time>2010-05-07T12:43:42Z</time>
      </trkpt>
      <trkpt lat="47.01558" lon="5.59297">
        <ele>219</ele>
        <time>2010-05-07T12:43:44Z</time>
      </trkpt>
      <trkpt lat="47.01549" lon="5.59309">
        <ele>219</ele>
        <time>2010-05-07T12:43:46Z</time>
      </trkpt>
      <trkpt lat="47.01541" lon="5.59323">
        <ele>219</ele>
        <time>2010-05-07T12:43:48Z</time>
      </trkpt>
      <trkpt lat="47.01537" lon="5.59337">
        <ele>219</ele>
        <time>2010-05-07T12:43:50Z</time>
      </trkpt>
      <trkpt lat="47.0154" lon="5.59352">
        <ele>219</ele>
        <time>2010-05-07T12:43:52Z</time>
      </trkpt>
      <trkpt lat="47.01544" lon="5.59369">
        <ele>219</ele>
        <time>2010-05-07T12:43:54Z</time>
      </trkpt>
      <trkpt lat="47.01548" lon="5.59387">
        <ele>219</ele>
        <time>2010-05-07T12:43:56Z</time>
      </trkpt>
      <trkpt lat="47.01552" lon="5.59404">
        <ele>219</ele>
        <time>2010-05-07T12:43:58Z</time>
      </trkpt>
      <trkpt lat="47.01557" lon="5.59424">
        <ele>219</ele>
        <time>2010-05-07T12:44:00Z</time>
      </trkpt>
      <trkpt lat="47.01562" lon="5.59444">
        <ele>219</ele>
        <time>2010-05-07T12:44:02Z</time>
      </trkpt>
      <trkpt lat="47.01564" lon="5.59462">
        <ele>219</ele>
        <time>2010-05-07T12:44:04Z</time>
      </trkpt>
      <trkpt lat="47.01566" lon="5.59482">
        <ele>219</ele>
        <time>2010-05-07T12:44:06Z</time>
      </trkpt>
      <trkpt lat="47.01568" lon="5.59501">
        <ele>212</ele>
        <time>2010-05-07T12:44:08Z</time>
      </trkpt>
      <trkpt lat="47.01572" lon="5.59517">
        <ele>212</ele>
        <time>2010-05-07T12:44:10Z</time>
      </trkpt>
      <trkpt lat="47.01578" lon="5.59532">
        <ele>212</ele>
        <time>2010-05-07T12:44:12Z</time>
      </trkpt>
      <trkpt lat="47.01584" lon="5.59545">
        <ele>212</ele>
        <time>2010-05-07T12:44:14Z</time>
      </trkpt>
      <trkpt lat="47.01589" lon="5.59558">
        <ele>212</ele>
        <time>2010-05-07T12:44:16Z</time>
      </trkpt>
      <trkpt lat="47.01595" lon="5.59571">
        <ele>212</ele>
        <time>2010-05-07T12:44:18Z</time>
      </trkpt>
      <trkpt lat="47.016" lon="5.59582">
        <ele>212</ele>
        <time>2010-05-07T12:44:20Z</time>
      </trkpt>
      <trkpt lat="47.01605" lon="5.59595">
        <ele>212</ele>
        <time>2010-05-07T12:44:22Z</time>
      </trkpt>
      <trkpt lat="47.0161" lon="5.59607">
        <ele>212</ele>
        <time>2010-05-07T12:44:24Z</time>
      </trkpt>
      <trkpt lat="47.01616" lon="5.59619">
        <ele>212</ele>
        <time>2010-05-07T12:44:26Z</time>
      </trkpt>
      <trkpt lat="47.01621" lon="5.59633">
        <ele>212</ele>
        <time>2010-05-07T12:44:28Z</time>
      </trkpt>
      <trkpt lat="47.01627" lon="5.5965">
        <ele>218</ele>
        <time>2010-05-07T12:44:31Z</time>
      </trkpt>
      <trkpt lat="47.01634" lon="5.59663">
        <ele>218</ele>
        <time>2010-05-07T12:44:33Z</time>
      </trkpt>
      <trkpt lat="47.0164" lon="5.59679">
        <ele>218</ele>
        <time>2010-05-07T12:44:36Z</time>
      </trkpt>
      <trkpt lat="47.01647" lon="5.59694">
        <ele>218</ele>
        <time>2010-05-07T12:44:39Z</time>
      </trkpt>
      <trkpt lat="47.01654" lon="5.5971">
        <ele>218</ele>
        <time>2010-05-07T12:44:42Z</time>
      </trkpt>
      <trkpt lat="47.0166" lon="5.5972">
        <ele>218</ele>
        <time>2010-05-07T12:44:44Z</time>
      </trkpt>
      <trkpt lat="47.0167" lon="5.59746">
        <ele>218</ele>
        <time>2010-05-07T12:44:49Z</time>
      </trkpt>
      <trkpt lat="47.01676" lon="5.59757">
        <ele>218</ele>
        <time>2010-05-07T12:44:51Z</time>
      </trkpt>
      <trkpt lat="47.01681" lon="5.59768">
        <ele>224</ele>
        <time>2010-05-07T12:44:53Z</time>
      </trkpt>
      <trkpt lat="47.01686" lon="5.5978">
        <ele>224</ele>
        <time>2010-05-07T12:44:55Z</time>
      </trkpt>
      <trkpt lat="47.01691" lon="5.59795">
        <ele>224</ele>
        <time>2010-05-07T12:44:58Z</time>
      </trkpt>
      <trkpt lat="47.01697" lon="5.59813">
        <ele>224</ele>
        <time>2010-05-07T12:45:01Z</time>
      </trkpt>
      <trkpt lat="47.01702" lon="5.59827">
        <ele>224</ele>
        <time>2010-05-07T12:45:04Z</time>
      </trkpt>
      <trkpt lat="47.01707" lon="5.59844">
        <ele>224</ele>
        <time>2010-05-07T12:45:07Z</time>
      </trkpt>
      <trkpt lat="47.0171" lon="5.59861">
        <ele>224</ele>
        <time>2010-05-07T12:45:10Z</time>
      </trkpt>
      <trkpt lat="47.01712" lon="5.59876">
        <ele>224</ele>
        <time>2010-05-07T12:45:13Z</time>
      </trkpt>
      <trkpt lat="47.01713" lon="5.59892">
        <ele>230</ele>
        <time>2010-05-07T12:45:16Z</time>
      </trkpt>
      <trkpt lat="47.01713" lon="5.59909">
        <ele>230</ele>
        <time>2010-05-07T12:45:19Z</time>
      </trkpt>
      <trkpt lat="47.01713" lon="5.59926">
        <ele>230</ele>
        <time>2010-05-07T12:45:22Z</time>
      </trkpt>
      <trkpt lat="47.01713" lon="5.59945">
        <ele>230</ele>
        <time>2010-05-07T12:45:25Z</time>
      </trkpt>
      <trkpt lat="47.01714" lon="5.59964">
        <ele>230</ele>
        <time>2010-05-07T12:45:28Z</time>
      </trkpt>
      <trkpt lat="47.01715" lon="5.59982">
        <ele>236</ele>
        <time>2010-05-07T12:45:31Z</time>
      </trkpt>
      <trkpt lat="47.01716" lon="5.60001">
        <ele>236</ele>
        <time>2010-05-07T12:45:34Z</time>
      </trkpt>
      <trkpt lat="47.01717" lon="5.60015">
        <ele>236</ele>
        <time>2010-05-07T12:45:36Z</time>
      </trkpt>
      <trkpt lat="47.01718" lon="5.60029">
        <ele>236</ele>
        <time>2010-05-07T12:45:38Z</time>
      </trkpt>
      <trkpt lat="47.01718" lon="5.60044">
        <ele>236</ele>
        <time>2010-05-07T12:45:40Z</time>
      </trkpt>
      <trkpt lat="47.01718" lon="5.60059">
        <ele>236</ele>
        <time>2010-05-07T12:45:42Z</time>
      </trkpt>
      <trkpt lat="47.01716" lon="5.60078">
        <ele>243</ele>
        <time>2010-05-07T12:45:45Z</time>
      </trkpt>
      <trkpt lat="47.01717" lon="5.60093">
        <ele>243</ele>
        <time>2010-05-07T12:45:47Z</time>
      </trkpt>
      <trkpt lat="47.01718" lon="5.60108">
        <ele>243</ele>
        <time>2010-05-07T12:45:49Z</time>
      </trkpt>
      <trkpt lat="47.01718" lon="5.60121">
        <ele>243</ele>
        <time>2010-05-07T12:45:51Z</time>
      </trkpt>
      <trkpt lat="47.01716" lon="5.60136">
        <ele>243</ele>
        <time>2010-05-07T12:45:53Z</time>
      </trkpt>
      <trkpt lat="47.01714" lon="5.60154">
        <ele>250</ele>
        <time>2010-05-07T12:45:56Z</time>
      </trkpt>
      <trkpt lat="47.01714" lon="5.60168">
        <ele>250</ele>
        <time>2010-05-07T12:45:58Z</time>
      </trkpt>
      <trkpt lat="47.01714" lon="5.60183">
        <ele>250</ele>
        <time>2010-05-07T12:46:00Z</time>
      </trkpt>
      <trkpt lat="47.01714" lon="5.602">
        <ele>250</ele>
        <time>2010-05-07T12:46:02Z</time>
      </trkpt>
      <trkpt lat="47.01713" lon="5.60217">
        <ele>250</ele>
        <time>2010-05-07T12:46:04Z</time>
      </trkpt>
      <trkpt lat="47.01715" lon="5.60235">
        <ele>250</ele>
        <time>2010-05-07T12:46:06Z</time>
      </trkpt>
      <trkpt lat="47.01716" lon="5.60254">
        <ele>250</ele>
        <time>2010-05-07T12:46:08Z</time>
      </trkpt>
      <trkpt lat="47.01718" lon="5.60271">
        <ele>250</ele>
        <time>2010-05-07T12:46:10Z</time>
      </trkpt>
      <trkpt lat="47.01722" lon="5.60291">
        <ele>250</ele>
        <time>2010-05-07T12:46:12Z</time>
      </trkpt>
      <trkpt lat="47.01726" lon="5.60311">
        <ele>250</ele>
        <time>2010-05-07T12:46:14Z</time>
      </trkpt>
      <trkpt lat="47.01728" lon="5.6033">
        <ele>245</ele>
        <time>2010-05-07T12:46:16Z</time>
      </trkpt>
      <trkpt lat="47.01732" lon="5.60351">
        <ele>245</ele>
        <time>2010-05-07T12:46:18Z</time>
      </trkpt>
      <trkpt lat="47.01734" lon="5.60372">
        <ele>245</ele>
        <time>2010-05-07T12:46:20Z</time>
      </trkpt>
      <trkpt lat="47.01736" lon="5.60392">
        <ele>245</ele>
        <time>2010-05-07T12:46:22Z</time>
      </trkpt>
      <trkpt lat="47.01739" lon="5.60412">
        <ele>245</ele>
        <time>2010-05-07T12:46:24Z</time>
      </trkpt>
      <trkpt lat="47.01741" lon="5.60432">
        <ele>245</ele>
        <time>2010-05-07T12:46:26Z</time>
      </trkpt>
      <trkpt lat="47.01742" lon="5.60453">
        <ele>245</ele>
        <time>2010-05-07T12:46:28Z</time>
      </trkpt>
      <trkpt lat="47.01747" lon="5.60475">
        <ele>237</ele>
        <time>2010-05-07T12:46:30Z</time>
      </trkpt>
      <trkpt lat="47.01748" lon="5.60495">
        <ele>237</ele>
        <time>2010-05-07T12:46:32Z</time>
      </trkpt>
      <trkpt lat="47.0175" lon="5.60516">
        <ele>237</ele>
        <time>2010-05-07T12:46:34Z</time>
      </trkpt>
      <trkpt lat="47.01752" lon="5.60535">
        <ele>237</ele>
        <time>2010-05-07T12:46:36Z</time>
      </trkpt>
      <trkpt lat="47.01753" lon="5.60556">
        <ele>237</ele>
        <time>2010-05-07T12:46:38Z</time>
      </trkpt>
      <trkpt lat="47.01754" lon="5.60577">
        <ele>237</ele>
        <time>2010-05-07T12:46:40Z</time>
      </trkpt>
      <trkpt lat="47.01756" lon="5.60595">
        <ele>237</ele>
        <time>2010-05-07T12:46:42Z</time>
      </trkpt>
      <trkpt lat="47.01758" lon="5.60614">
        <ele>237</ele>
        <time>2010-05-07T12:46:44Z</time>
      </trkpt>
      <trkpt lat="47.01759" lon="5.60631">
        <ele>237</ele>
        <time>2010-05-07T12:46:46Z</time>
      </trkpt>
      <trkpt lat="47.0176" lon="5.60648">
        <ele>237</ele>
        <time>2010-05-07T12:46:48Z</time>
      </trkpt>
      <trkpt lat="47.0176" lon="5.60664">
        <ele>237</ele>
        <time>2010-05-07T12:46:50Z</time>
      </trkpt>
      <trkpt lat="47.01761" lon="5.60681">
        <ele>237</ele>
        <time>2010-05-07T12:46:52Z</time>
      </trkpt>
      <trkpt lat="47.01762" lon="5.60699">
        <ele>237</ele>
        <time>2010-05-07T12:46:54Z</time>
      </trkpt>
      <trkpt lat="47.01763" lon="5.60717">
        <ele>237</ele>
        <time>2010-05-07T12:46:56Z</time>
      </trkpt>
      <trkpt lat="47.01764" lon="5.60735">
        <ele>237</ele>
        <time>2010-05-07T12:46:58Z</time>
      </trkpt>
      <trkpt lat="47.01766" lon="5.60753">
        <ele>237</ele>
        <time>2010-05-07T12:47:00Z</time>
      </trkpt>
      <trkpt lat="47.01767" lon="5.60772">
        <ele>237</ele>
        <time>2010-05-07T12:47:02Z</time>
      </trkpt>
      <trkpt lat="47.01769" lon="5.6079">
        <ele>237</ele>
        <time>2010-05-07T12:47:04Z</time>
      </trkpt>
      <trkpt lat="47.01771" lon="5.60808">
        <ele>232</ele>
        <time>2010-05-07T12:47:06Z</time>
      </trkpt>
      <trkpt lat="47.01772" lon="5.60827">
        <ele>232</ele>
        <time>2010-05-07T12:47:08Z</time>
      </trkpt>
      <trkpt lat="47.01772" lon="5.60846">
        <ele>232</ele>
        <time>2010-05-07T12:47:10Z</time>
      </trkpt>
      <trkpt lat="47.01772" lon="5.60867">
        <ele>232</ele>
        <time>2010-05-07T12:47:12Z</time>
      </trkpt>
      <trkpt lat="47.01772" lon="5.60887">
        <ele>232</ele>
        <time>2010-05-07T12:47:14Z</time>
      </trkpt>
      <trkpt lat="47.01772" lon="5.6091">
        <ele>232</ele>
        <time>2010-05-07T12:47:16Z</time>
      </trkpt>
      <trkpt lat="47.01773" lon="5.60932">
        <ele>232</ele>
        <time>2010-05-07T12:47:18Z</time>
      </trkpt>
      <trkpt lat="47.01774" lon="5.60958">
        <ele>232</ele>
        <time>2010-05-07T12:47:20Z</time>
      </trkpt>
      <trkpt lat="47.01775" lon="5.60984">
        <ele>232</ele>
        <time>2010-05-07T12:47:22Z</time>
      </trkpt>
      <trkpt lat="47.01775" lon="5.60998">
        <ele>232</ele>
        <time>2010-05-07T12:47:23Z</time>
      </trkpt>
      <trkpt lat="47.01777" lon="5.61013">
        <ele>232</ele>
        <time>2010-05-07T12:47:24Z</time>
      </trkpt>
      <trkpt lat="47.01778" lon="5.61028">
        <ele>232</ele>
        <time>2010-05-07T12:47:25Z</time>
      </trkpt>
      <trkpt lat="47.01779" lon="5.61043">
        <ele>232</ele>
        <time>2010-05-07T12:47:26Z</time>
      </trkpt>
      <trkpt lat="47.0178" lon="5.61057">
        <ele>232</ele>
        <time>2010-05-07T12:47:27Z</time>
      </trkpt>
      <trkpt lat="47.01781" lon="5.61074">
        <ele>232</ele>
        <time>2010-05-07T12:47:28Z</time>
      </trkpt>
      <trkpt lat="47.01782" lon="5.6109">
        <ele>232</ele>
        <time>2010-05-07T12:47:29Z</time>
      </trkpt>
      <trkpt lat="47.01783" lon="5.61106">
        <ele>226</ele>
        <time>2010-05-07T12:47:30Z</time>
      </trkpt>
      <trkpt lat="47.01785" lon="5.6112">
        <ele>226</ele>
        <time>2010-05-07T12:47:31Z</time>
      </trkpt>
      <trkpt lat="47.01787" lon="5.61135">
        <ele>226</ele>
        <time>2010-05-07T12:47:32Z</time>
      </trkpt>
      <trkpt lat="47.01789" lon="5.6115">
        <ele>226</ele>
        <time>2010-05-07T12:47:33Z</time>
      </trkpt>
      <trkpt lat="47.0179" lon="5.61165">
        <ele>226</ele>
        <time>2010-05-07T12:47:34Z</time>
      </trkpt>
      <trkpt lat="47.01792" lon="5.61179">
        <ele>226</ele>
        <time>2010-05-07T12:47:35Z</time>
      </trkpt>
      <trkpt lat="47.01794" lon="5.61192">
        <ele>221</ele>
        <time>2010-05-07T12:47:36Z</time>
      </trkpt>
      <trkpt lat="47.01796" lon="5.61205">
        <ele>221</ele>
        <time>2010-05-07T12:47:37Z</time>
      </trkpt>
      <trkpt lat="47.01796" lon="5.61219">
        <ele>221</ele>
        <time>2010-05-07T12:47:38Z</time>
      </trkpt>
      <trkpt lat="47.01798" lon="5.61245">
        <ele>221</ele>
        <time>2010-05-07T12:47:40Z</time>
      </trkpt>
      <trkpt lat="47.018" lon="5.6127">
        <ele>221</ele>
        <time>2010-05-07T12:47:42Z</time>
      </trkpt>
      <trkpt lat="47.01801" lon="5.61284">
        <ele>221</ele>
        <time>2010-05-07T12:47:43Z</time>
      </trkpt>
      <trkpt lat="47.01803" lon="5.6131">
        <ele>221</ele>
        <time>2010-05-07T12:47:45Z</time>
      </trkpt>
      <trkpt lat="47.01803" lon="5.61331">
        <ele>221</ele>
        <time>2010-05-07T12:47:47Z</time>
      </trkpt>
      <trkpt lat="47.01806" lon="5.61351">
        <ele>221</ele>
        <time>2010-05-07T12:47:49Z</time>
      </trkpt>
      <trkpt lat="47.01808" lon="5.6137">
        <ele>221</ele>
        <time>2010-05-07T12:47:51Z</time>
      </trkpt>
      <trkpt lat="47.01805" lon="5.61382">
        <ele>221</ele>
        <time>2010-05-07T12:47:53Z</time>
      </trkpt>
      <trkpt lat="47.01806" lon="5.61396">
        <ele>221</ele>
        <time>2010-05-07T12:47:55Z</time>
      </trkpt>
      <trkpt lat="47.01809" lon="5.6141">
        <ele>221</ele>
        <time>2010-05-07T12:47:57Z</time>
      </trkpt>
      <trkpt lat="47.01809" lon="5.61424">
        <ele>227</ele>
        <time>2010-05-07T12:47:59Z</time>
      </trkpt>
      <trkpt lat="47.01809" lon="5.61438">
        <ele>227</ele>
        <time>2010-05-07T12:48:01Z</time>
      </trkpt>
      <trkpt lat="47.0181" lon="5.61452">
        <ele>227</ele>
        <time>2010-05-07T12:48:03Z</time>
      </trkpt>
      <trkpt lat="47.01809" lon="5.6147">
        <ele>235</ele>
        <time>2010-05-07T12:48:06Z</time>
      </trkpt>
      <trkpt lat="47.01811" lon="5.61488">
        <ele>235</ele>
        <time>2010-05-07T12:48:08Z</time>
      </trkpt>
      <trkpt lat="47.01812" lon="5.61504">
        <ele>235</ele>
        <time>2010-05-07T12:48:10Z</time>
      </trkpt>
      <trkpt lat="47.01814" lon="5.6152">
        <ele>235</ele>
        <time>2010-05-07T12:48:12Z</time>
      </trkpt>
      <trkpt lat="47.01815" lon="5.61535">
        <ele>235</ele>
        <time>2010-05-07T12:48:14Z</time>
      </trkpt>
      <trkpt lat="47.01813" lon="5.6155">
        <ele>235</ele>
        <time>2010-05-07T12:48:17Z</time>
      </trkpt>
      <trkpt lat="47.0181" lon="5.61569">
        <ele>235</ele>
        <time>2010-05-07T12:48:20Z</time>
      </trkpt>
      <trkpt lat="47.01807" lon="5.61584">
        <ele>235</ele>
        <time>2010-05-07T12:48:22Z</time>
      </trkpt>
      <trkpt lat="47.01809" lon="5.61599">
        <ele>241</ele>
        <time>2010-05-07T12:48:24Z</time>
      </trkpt>
      <trkpt lat="47.01807" lon="5.61618">
        <ele>241</ele>
        <time>2010-05-07T12:48:27Z</time>
      </trkpt>
      <trkpt lat="47.01803" lon="5.61631">
        <ele>241</ele>
        <time>2010-05-07T12:48:29Z</time>
      </trkpt>
      <trkpt lat="47.01805" lon="5.61648">
        <ele>246</ele>
        <time>2010-05-07T12:48:31Z</time>
      </trkpt>
      <trkpt lat="47.01807" lon="5.61664">
        <ele>246</ele>
        <time>2010-05-07T12:48:33Z</time>
      </trkpt>
      <trkpt lat="47.01808" lon="5.61682">
        <ele>246</ele>
        <time>2010-05-07T12:48:35Z</time>
      </trkpt>
      <trkpt lat="47.01809" lon="5.617">
        <ele>246</ele>
        <time>2010-05-07T12:48:37Z</time>
      </trkpt>
      <trkpt lat="47.01809" lon="5.61717">
        <ele>246</ele>
        <time>2010-05-07T12:48:39Z</time>
      </trkpt>
      <trkpt lat="47.01809" lon="5.61735">
        <ele>246</ele>
        <time>2010-05-07T12:48:41Z</time>
      </trkpt>
      <trkpt lat="47.0181" lon="5.61753">
        <ele>246</ele>
        <time>2010-05-07T12:48:43Z</time>
      </trkpt>
      <trkpt lat="47.01812" lon="5.6177">
        <ele>246</ele>
        <time>2010-05-07T12:48:45Z</time>
      </trkpt>
      <trkpt lat="47.01814" lon="5.61788">
        <ele>246</ele>
        <time>2010-05-07T12:48:47Z</time>
      </trkpt>
      <trkpt lat="47.01816" lon="5.61804">
        <ele>246</ele>
        <time>2010-05-07T12:48:49Z</time>
      </trkpt>
      <trkpt lat="47.01819" lon="5.6182">
        <ele>246</ele>
        <time>2010-05-07T12:48:51Z</time>
      </trkpt>
      <trkpt lat="47.01823" lon="5.61836">
        <ele>246</ele>
        <time>2010-05-07T12:48:53Z</time>
      </trkpt>
      <trkpt lat="47.01826" lon="5.61851">
        <ele>246</ele>
        <time>2010-05-07T12:48:55Z</time>
      </trkpt>
      <trkpt lat="47.01831" lon="5.61867">
        <ele>246</ele>
        <time>2010-05-07T12:48:57Z</time>
      </trkpt>
      <trkpt lat="47.01836" lon="5.61881">
        <ele>246</ele>
        <time>2010-05-07T12:48:59Z</time>
      </trkpt>
      <trkpt lat="47.01841" lon="5.61895">
        <ele>246</ele>
        <time>2010-05-07T12:49:01Z</time>
      </trkpt>
      <trkpt lat="47.01847" lon="5.6191">
        <ele>246</ele>
        <time>2010-05-07T12:49:03Z</time>
      </trkpt>
      <trkpt lat="47.01852" lon="5.61924">
        <ele>246</ele>
        <time>2010-05-07T12:49:05Z</time>
      </trkpt>
      <trkpt lat="47.01857" lon="5.6194">
        <ele>246</ele>
        <time>2010-05-07T12:49:07Z</time>
      </trkpt>
      <trkpt lat="47.01862" lon="5.61956">
        <ele>241</ele>
        <time>2010-05-07T12:49:09Z</time>
      </trkpt>
      <trkpt lat="47.01868" lon="5.61973">
        <ele>241</ele>
        <time>2010-05-07T12:49:11Z</time>
      </trkpt>
      <trkpt lat="47.01873" lon="5.61991">
        <ele>241</ele>
        <time>2010-05-07T12:49:13Z</time>
      </trkpt>
      <trkpt lat="47.01877" lon="5.62008">
        <ele>241</ele>
        <time>2010-05-07T12:49:15Z</time>
      </trkpt>
      <trkpt lat="47.01883" lon="5.62026">
        <ele>236</ele>
        <time>2010-05-07T12:49:17Z</time>
      </trkpt>
      <trkpt lat="47.01887" lon="5.62044">
        <ele>236</ele>
        <time>2010-05-07T12:49:19Z</time>
      </trkpt>
      <trkpt lat="47.01888" lon="5.62058">
        <ele>236</ele>
        <time>2010-05-07T12:49:21Z</time>
      </trkpt>
      <trkpt lat="47.01892" lon="5.62078">
        <ele>236</ele>
        <time>2010-05-07T12:49:24Z</time>
      </trkpt>
      <trkpt lat="47.01896" lon="5.62094">
        <ele>236</ele>
        <time>2010-05-07T12:49:26Z</time>
      </trkpt>
      <trkpt lat="47.01898" lon="5.6211">
        <ele>236</ele>
        <time>2010-05-07T12:49:28Z</time>
      </trkpt>
      <trkpt lat="47.01902" lon="5.62125">
        <ele>236</ele>
        <time>2010-05-07T12:49:30Z</time>
      </trkpt>
      <trkpt lat="47.01906" lon="5.62143">
        <ele>236</ele>
        <time>2010-05-07T12:49:32Z</time>
      </trkpt>
      <trkpt lat="47.01912" lon="5.62165">
        <ele>236</ele>
        <time>2010-05-07T12:49:34Z</time>
      </trkpt>
      <trkpt lat="47.0192" lon="5.62185">
        <ele>236</ele>
        <time>2010-05-07T12:49:36Z</time>
      </trkpt>
      <trkpt lat="47.0193" lon="5.62204">
        <ele>236</ele>
        <time>2010-05-07T12:49:38Z</time>
      </trkpt>
      <trkpt lat="47.01935" lon="5.62215">
        <ele>236</ele>
        <time>2010-05-07T12:49:39Z</time>
      </trkpt>
      <trkpt lat="47.01941" lon="5.62226">
        <ele>236</ele>
        <time>2010-05-07T12:49:40Z</time>
      </trkpt>
      <trkpt lat="47.01951" lon="5.62244">
        <ele>236</ele>
        <time>2010-05-07T12:49:42Z</time>
      </trkpt>
      <trkpt lat="47.0196" lon="5.62263">
        <ele>236</ele>
        <time>2010-05-07T12:49:44Z</time>
      </trkpt>
      <trkpt lat="47.0197" lon="5.62281">
        <ele>236</ele>
        <time>2010-05-07T12:49:46Z</time>
      </trkpt>
      <trkpt lat="47.0198" lon="5.62299">
        <ele>236</ele>
        <time>2010-05-07T12:49:48Z</time>
      </trkpt>
      <trkpt lat="47.01989" lon="5.62316">
        <ele>236</ele>
        <time>2010-05-07T12:49:50Z</time>
      </trkpt>
      <trkpt lat="47.01997" lon="5.62334">
        <ele>236</ele>
        <time>2010-05-07T12:49:52Z</time>
      </trkpt>
      <trkpt lat="47.02006" lon="5.62351">
        <ele>236</ele>
        <time>2010-05-07T12:49:54Z</time>
      </trkpt>
      <trkpt lat="47.02015" lon="5.62369">
        <ele>236</ele>
        <time>2010-05-07T12:49:56Z</time>
      </trkpt>
      <trkpt lat="47.02024" lon="5.62386">
        <ele>236</ele>
        <time>2010-05-07T12:49:58Z</time>
      </trkpt>
      <trkpt lat="47.02032" lon="5.62404">
        <ele>236</ele>
        <time>2010-05-07T12:50:00Z</time>
      </trkpt>
      <trkpt lat="47.02043" lon="5.62422">
        <ele>236</ele>
        <time>2010-05-07T12:50:02Z</time>
      </trkpt>
      <trkpt lat="47.02054" lon="5.62439">
        <ele>231</ele>
        <time>2010-05-07T12:50:04Z</time>
      </trkpt>
      <trkpt lat="47.02064" lon="5.62457">
        <ele>231</ele>
        <time>2010-05-07T12:50:06Z</time>
      </trkpt>
      <trkpt lat="47.02073" lon="5.62475">
        <ele>231</ele>
        <time>2010-05-07T12:50:08Z</time>
      </trkpt>
      <trkpt lat="47.02082" lon="5.62494">
        <ele>231</ele>
        <time>2010-05-07T12:50:10Z</time>
      </trkpt>
      <trkpt lat="47.02089" lon="5.62514">
        <ele>226</ele>
        <time>2010-05-07T12:50:12Z</time>
      </trkpt>
      <trkpt lat="47.02097" lon="5.62534">
        <ele>226</ele>
        <time>2010-05-07T12:50:14Z</time>
      </trkpt>
      <trkpt lat="47.02102" lon="5.62552">
        <ele>226</ele>
        <time>2010-05-07T12:50:16Z</time>
      </trkpt>
      <trkpt lat="47.02107" lon="5.62572">
        <ele>226</ele>
        <time>2010-05-07T12:50:18Z</time>
      </trkpt>
      <trkpt lat="47.0211" lon="5.62591">
        <ele>226</ele>
        <time>2010-05-07T12:50:20Z</time>
      </trkpt>
      <trkpt lat="47.0211" lon="5.62611">
        <ele>226</ele>
        <time>2010-05-07T12:50:22Z</time>
      </trkpt>
      <trkpt lat="47.0211" lon="5.62632">
        <ele>226</ele>
        <time>2010-05-07T12:50:24Z</time>
      </trkpt>
      <trkpt lat="47.02111" lon="5.62651">
        <ele>226</ele>
        <time>2010-05-07T12:50:26Z</time>
      </trkpt>
      <trkpt lat="47.0211" lon="5.6267">
        <ele>226</ele>
        <time>2010-05-07T12:50:28Z</time>
      </trkpt>
      <trkpt lat="47.02109" lon="5.62688">
        <ele>226</ele>
        <time>2010-05-07T12:50:30Z</time>
      </trkpt>
      <trkpt lat="47.02107" lon="5.62705">
        <ele>226</ele>
        <time>2010-05-07T12:50:32Z</time>
      </trkpt>
      <trkpt lat="47.02104" lon="5.62723">
        <ele>231</ele>
        <time>2010-05-07T12:50:34Z</time>
      </trkpt>
      <trkpt lat="47.02101" lon="5.62741">
        <ele>231</ele>
        <time>2010-05-07T12:50:36Z</time>
      </trkpt>
      <trkpt lat="47.02099" lon="5.6276">
        <ele>231</ele>
        <time>2010-05-07T12:50:38Z</time>
      </trkpt>
      <trkpt lat="47.02096" lon="5.62778">
        <ele>231</ele>
        <time>2010-05-07T12:50:40Z</time>
      </trkpt>
      <trkpt lat="47.02094" lon="5.62795">
        <ele>231</ele>
        <time>2010-05-07T12:50:42Z</time>
      </trkpt>
      <trkpt lat="47.02091" lon="5.62813">
        <ele>231</ele>
        <time>2010-05-07T12:50:44Z</time>
      </trkpt>
      <trkpt lat="47.02088" lon="5.6283">
        <ele>231</ele>
        <time>2010-05-07T12:50:46Z</time>
      </trkpt>
      <trkpt lat="47.02086" lon="5.62847">
        <ele>231</ele>
        <time>2010-05-07T12:50:48Z</time>
      </trkpt>
      <trkpt lat="47.02084" lon="5.62863">
        <ele>231</ele>
        <time>2010-05-07T12:50:50Z</time>
      </trkpt>
      <trkpt lat="47.02081" lon="5.62878">
        <ele>231</ele>
        <time>2010-05-07T12:50:52Z</time>
      </trkpt>
      <trkpt lat="47.02079" lon="5.62893">
        <ele>236</ele>
        <time>2010-05-07T12:50:54Z</time>
      </trkpt>
      <trkpt lat="47.02078" lon="5.62909">
        <ele>236</ele>
        <time>2010-05-07T12:50:56Z</time>
      </trkpt>
      <trkpt lat="47.02075" lon="5.62923">
        <ele>236</ele>
        <time>2010-05-07T12:50:58Z</time>
      </trkpt>
      <trkpt lat="47.02072" lon="5.62938">
        <ele>236</ele>
        <time>2010-05-07T12:51:00Z</time>
      </trkpt>
      <trkpt lat="47.02069" lon="5.62954">
        <ele>236</ele>
        <time>2010-05-07T12:51:02Z</time>
      </trkpt>
      <trkpt lat="47.02067" lon="5.62969">
        <ele>236</ele>
        <time>2010-05-07T12:51:04Z</time>
      </trkpt>
      <trkpt lat="47.02064" lon="5.62986">
        <ele>236</ele>
        <time>2010-05-07T12:51:06Z</time>
      </trkpt>
      <trkpt lat="47.02062" lon="5.63001">
        <ele>236</ele>
        <time>2010-05-07T12:51:08Z</time>
      </trkpt>
      <trkpt lat="47.02059" lon="5.63017">
        <ele>236</ele>
        <time>2010-05-07T12:51:10Z</time>
      </trkpt>
      <trkpt lat="47.02056" lon="5.63033">
        <ele>236</ele>
        <time>2010-05-07T12:51:12Z</time>
      </trkpt>
      <trkpt lat="47.02054" lon="5.63048">
        <ele>236</ele>
        <time>2010-05-07T12:51:14Z</time>
      </trkpt>
      <trkpt lat="47.02052" lon="5.63063">
        <ele>242</ele>
        <time>2010-05-07T12:51:16Z</time>
      </trkpt>
      <trkpt lat="47.0205" lon="5.63078">
        <ele>242</ele>
        <time>2010-05-07T12:51:18Z</time>
      </trkpt>
      <trkpt lat="47.02048" lon="5.63094">
        <ele>242</ele>
        <time>2010-05-07T12:51:20Z</time>
      </trkpt>
      <trkpt lat="47.02048" lon="5.63108">
        <ele>242</ele>
        <time>2010-05-07T12:51:22Z</time>
      </trkpt>
      <trkpt lat="47.02049" lon="5.63124">
        <ele>247</ele>
        <time>2010-05-07T12:51:24Z</time>
      </trkpt>
      <trkpt lat="47.02049" lon="5.63139">
        <ele>247</ele>
        <time>2010-05-07T12:51:26Z</time>
      </trkpt>
      <trkpt lat="47.0205" lon="5.63154">
        <ele>247</ele>
        <time>2010-05-07T12:51:28Z</time>
      </trkpt>
      <trkpt lat="47.02049" lon="5.63167">
        <ele>247</ele>
        <time>2010-05-07T12:51:30Z</time>
      </trkpt>
      <trkpt lat="47.02046" lon="5.6318">
        <ele>247</ele>
        <time>2010-05-07T12:51:32Z</time>
      </trkpt>
      <trkpt lat="47.02043" lon="5.63193">
        <ele>254</ele>
        <time>2010-05-07T12:51:34Z</time>
      </trkpt>
      <trkpt lat="47.02037" lon="5.63209">
        <ele>254</ele>
        <time>2010-05-07T12:51:37Z</time>
      </trkpt>
      <trkpt lat="47.02036" lon="5.63224">
        <ele>254</ele>
        <time>2010-05-07T12:51:39Z</time>
      </trkpt>
      <trkpt lat="47.02036" lon="5.63239">
        <ele>254</ele>
        <time>2010-05-07T12:51:41Z</time>
      </trkpt>
      <trkpt lat="47.02036" lon="5.63254">
        <ele>259</ele>
        <time>2010-05-07T12:51:43Z</time>
      </trkpt>
      <trkpt lat="47.02036" lon="5.63272">
        <ele>259</ele>
        <time>2010-05-07T12:51:45Z</time>
      </trkpt>
      <trkpt lat="47.02037" lon="5.6329">
        <ele>259</ele>
        <time>2010-05-07T12:51:47Z</time>
      </trkpt>
      <trkpt lat="47.02041" lon="5.63309">
        <ele>259</ele>
        <time>2010-05-07T12:51:49Z</time>
      </trkpt>
      <trkpt lat="47.02041" lon="5.63329">
        <ele>259</ele>
        <time>2010-05-07T12:51:51Z</time>
      </trkpt>
      <trkpt lat="47.0204" lon="5.6335">
        <ele>259</ele>
        <time>2010-05-07T12:51:53Z</time>
      </trkpt>
      <trkpt lat="47.02038" lon="5.63368">
        <ele>259</ele>
        <time>2010-05-07T12:51:55Z</time>
      </trkpt>
      <trkpt lat="47.02039" lon="5.63388">
        <ele>253</ele>
        <time>2010-05-07T12:51:57Z</time>
      </trkpt>
      <trkpt lat="47.02043" lon="5.63401">
        <ele>253</ele>
        <time>2010-05-07T12:51:58Z</time>
      </trkpt>
      <trkpt lat="47.02048" lon="5.63423">
        <ele>253</ele>
        <time>2010-05-07T12:52:00Z</time>
      </trkpt>
      <trkpt lat="47.02053" lon="5.63447">
        <ele>253</ele>
        <time>2010-05-07T12:52:02Z</time>
      </trkpt>
      <trkpt lat="47.02057" lon="5.6347">
        <ele>253</ele>
        <time>2010-05-07T12:52:04Z</time>
      </trkpt>
      <trkpt lat="47.02061" lon="5.63492">
        <ele>253</ele>
        <time>2010-05-07T12:52:06Z</time>
      </trkpt>
      <trkpt lat="47.02063" lon="5.63512">
        <ele>247</ele>
        <time>2010-05-07T12:52:08Z</time>
      </trkpt>
      <trkpt lat="47.02065" lon="5.63533">
        <ele>247</ele>
        <time>2010-05-07T12:52:10Z</time>
      </trkpt>
      <trkpt lat="47.02064" lon="5.63553">
        <ele>247</ele>
        <time>2010-05-07T12:52:12Z</time>
      </trkpt>
      <trkpt lat="47.02064" lon="5.63573">
        <ele>247</ele>
        <time>2010-05-07T12:52:14Z</time>
      </trkpt>
      <trkpt lat="47.02065" lon="5.63593">
        <ele>247</ele>
        <time>2010-05-07T12:52:16Z</time>
      </trkpt>
      <trkpt lat="47.02067" lon="5.63616">
        <ele>247</ele>
        <time>2010-05-07T12:52:18Z</time>
      </trkpt>
      <trkpt lat="47.0207" lon="5.63637">
        <ele>247</ele>
        <time>2010-05-07T12:52:20Z</time>
      </trkpt>
      <trkpt lat="47.02074" lon="5.63658">
        <ele>247</ele>
        <time>2010-05-07T12:52:22Z</time>
      </trkpt>
      <trkpt lat="47.02079" lon="5.63678">
        <ele>247</ele>
        <time>2010-05-07T12:52:24Z</time>
      </trkpt>
      <trkpt lat="47.02083" lon="5.63697">
        <ele>247</ele>
        <time>2010-05-07T12:52:26Z</time>
      </trkpt>
      <trkpt lat="47.02087" lon="5.63718">
        <ele>247</ele>
        <time>2010-05-07T12:52:28Z</time>
      </trkpt>
      <trkpt lat="47.02089" lon="5.63738">
        <ele>242</ele>
        <time>2010-05-07T12:52:30Z</time>
      </trkpt>
      <trkpt lat="47.02092" lon="5.63758">
        <ele>242</ele>
        <time>2010-05-07T12:52:32Z</time>
      </trkpt>
      <trkpt lat="47.02094" lon="5.63776">
        <ele>242</ele>
        <time>2010-05-07T12:52:34Z</time>
      </trkpt>
      <trkpt lat="47.02094" lon="5.63794">
        <ele>242</ele>
        <time>2010-05-07T12:52:36Z</time>
      </trkpt>
      <trkpt lat="47.02094" lon="5.63811">
        <ele>242</ele>
        <time>2010-05-07T12:52:38Z</time>
      </trkpt>
      <trkpt lat="47.02091" lon="5.63829">
        <ele>242</ele>
        <time>2010-05-07T12:52:40Z</time>
      </trkpt>
      <trkpt lat="47.02089" lon="5.63848">
        <ele>242</ele>
        <time>2010-05-07T12:52:42Z</time>
      </trkpt>
      <trkpt lat="47.02083" lon="5.63864">
        <ele>242</ele>
        <time>2010-05-07T12:52:44Z</time>
      </trkpt>
      <trkpt lat="47.02077" lon="5.6388">
        <ele>242</ele>
        <time>2010-05-07T12:52:46Z</time>
      </trkpt>
      <trkpt lat="47.02072" lon="5.63898">
        <ele>242</ele>
        <time>2010-05-07T12:52:48Z</time>
      </trkpt>
      <trkpt lat="47.02067" lon="5.63915">
        <ele>242</ele>
        <time>2010-05-07T12:52:50Z</time>
      </trkpt>
      <trkpt lat="47.0206" lon="5.63932">
        <ele>236</ele>
        <time>2010-05-07T12:52:52Z</time>
      </trkpt>
      <trkpt lat="47.02052" lon="5.6395">
        <ele>236</ele>
        <time>2010-05-07T12:52:54Z</time>
      </trkpt>
      <trkpt lat="47.02043" lon="5.63967">
        <ele>236</ele>
        <time>2010-05-07T12:52:56Z</time>
      </trkpt>
      <trkpt lat="47.02032" lon="5.63981">
        <ele>236</ele>
        <time>2010-05-07T12:52:58Z</time>
      </trkpt>
      <trkpt lat="47.02021" lon="5.63995">
        <ele>236</ele>
        <time>2010-05-07T12:53:00Z</time>
      </trkpt>
      <trkpt lat="47.02007" lon="5.64007">
        <ele>230</ele>
        <time>2010-05-07T12:53:02Z</time>
      </trkpt>
      <trkpt lat="47.01999" lon="5.64014">
        <ele>230</ele>
        <time>2010-05-07T12:53:03Z</time>
      </trkpt>
      <trkpt lat="47.01985" lon="5.64027">
        <ele>230</ele>
        <time>2010-05-07T12:53:05Z</time>
      </trkpt>
      <trkpt lat="47.0197" lon="5.6404">
        <ele>230</ele>
        <time>2010-05-07T12:53:07Z</time>
      </trkpt>
      <trkpt lat="47.01962" lon="5.64047">
        <ele>230</ele>
        <time>2010-05-07T12:53:08Z</time>
      </trkpt>
      <trkpt lat="47.01955" lon="5.64057">
        <ele>230</ele>
        <time>2010-05-07T12:53:09Z</time>
      </trkpt>
      <trkpt lat="47.01949" lon="5.64067">
        <ele>230</ele>
        <time>2010-05-07T12:53:10Z</time>
      </trkpt>
      <trkpt lat="47.01944" lon="5.64078">
        <ele>230</ele>
        <time>2010-05-07T12:53:11Z</time>
      </trkpt>
      <trkpt lat="47.01921" lon="5.64113">
        <ele>230</ele>
        <time>2010-05-07T12:53:15Z</time>
      </trkpt>
      <trkpt lat="47.01912" lon="5.64129">
        <ele>230</ele>
        <time>2010-05-07T12:53:17Z</time>
      </trkpt>
      <trkpt lat="47.01903" lon="5.64142">
        <ele>230</ele>
        <time>2010-05-07T12:53:19Z</time>
      </trkpt>
      <trkpt lat="47.01897" lon="5.64159">
        <ele>230</ele>
        <time>2010-05-07T12:53:21Z</time>
      </trkpt>
      <trkpt lat="47.01898" lon="5.64184">
        <ele>230</ele>
        <time>2010-05-07T12:53:23Z</time>
      </trkpt>
      <trkpt lat="47.019" lon="5.64198">
        <ele>230</ele>
        <time>2010-05-07T12:53:24Z</time>
      </trkpt>
      <trkpt lat="47.01902" lon="5.64211">
        <ele>230</ele>
        <time>2010-05-07T12:53:25Z</time>
      </trkpt>
      <trkpt lat="47.01903" lon="5.64226">
        <ele>224</ele>
        <time>2010-05-07T12:53:26Z</time>
      </trkpt>
      <trkpt lat="47.01905" lon="5.64239">
        <ele>224</ele>
        <time>2010-05-07T12:53:27Z</time>
      </trkpt>
      <trkpt lat="47.01906" lon="5.64253">
        <ele>224</ele>
        <time>2010-05-07T12:53:28Z</time>
      </trkpt>
      <trkpt lat="47.01905" lon="5.64279">
        <ele>224</ele>
        <time>2010-05-07T12:53:30Z</time>
      </trkpt>
      <trkpt lat="47.01903" lon="5.64304">
        <ele>224</ele>
        <time>2010-05-07T12:53:32Z</time>
      </trkpt>
      <trkpt lat="47.01901" lon="5.64329">
        <ele>224</ele>
        <time>2010-05-07T12:53:34Z</time>
      </trkpt>
      <trkpt lat="47.01895" lon="5.6435">
        <ele>224</ele>
        <time>2010-05-07T12:53:36Z</time>
      </trkpt>
      <trkpt lat="47.01889" lon="5.64372">
        <ele>224</ele>
        <time>2010-05-07T12:53:38Z</time>
      </trkpt>
      <trkpt lat="47.01881" lon="5.64392">
        <ele>224</ele>
        <time>2010-05-07T12:53:40Z</time>
      </trkpt>
      <trkpt lat="47.01875" lon="5.64411">
        <ele>224</ele>
        <time>2010-05-07T12:53:42Z</time>
      </trkpt>
      <trkpt lat="47.0187" lon="5.64429">
        <ele>224</ele>
        <time>2010-05-07T12:53:44Z</time>
      </trkpt>
      <trkpt lat="47.01867" lon="5.64447">
        <ele>224</ele>
        <time>2010-05-07T12:53:46Z</time>
      </trkpt>
      <trkpt lat="47.01861" lon="5.64465">
        <ele>224</ele>
        <time>2010-05-07T12:53:48Z</time>
      </trkpt>
      <trkpt lat="47.01858" lon="5.64484">
        <ele>224</ele>
        <time>2010-05-07T12:53:50Z</time>
      </trkpt>
      <trkpt lat="47.01858" lon="5.64504">
        <ele>224</ele>
        <time>2010-05-07T12:53:52Z</time>
      </trkpt>
      <trkpt lat="47.0186" lon="5.64525">
        <ele>224</ele>
        <time>2010-05-07T12:53:54Z</time>
      </trkpt>
      <trkpt lat="47.0186" lon="5.64544">
        <ele>224</ele>
        <time>2010-05-07T12:53:56Z</time>
      </trkpt>
      <trkpt lat="47.01861" lon="5.64563">
        <ele>224</ele>
        <time>2010-05-07T12:53:58Z</time>
      </trkpt>
      <trkpt lat="47.01862" lon="5.64583">
        <ele>224</ele>
        <time>2010-05-07T12:54:00Z</time>
      </trkpt>
      <trkpt lat="47.01861" lon="5.64602">
        <ele>224</ele>
        <time>2010-05-07T12:54:02Z</time>
      </trkpt>
      <trkpt lat="47.01859" lon="5.64621">
        <ele>219</ele>
        <time>2010-05-07T12:54:04Z</time>
      </trkpt>
      <trkpt lat="47.01856" lon="5.6464">
        <ele>219</ele>
        <time>2010-05-07T12:54:06Z</time>
      </trkpt>
      <trkpt lat="47.01852" lon="5.64659">
        <ele>219</ele>
        <time>2010-05-07T12:54:08Z</time>
      </trkpt>
      <trkpt lat="47.01848" lon="5.64678">
        <ele>219</ele>
        <time>2010-05-07T12:54:10Z</time>
      </trkpt>
      <trkpt lat="47.01846" lon="5.64698">
        <ele>219</ele>
        <time>2010-05-07T12:54:12Z</time>
      </trkpt>
      <trkpt lat="47.01846" lon="5.64717">
        <ele>219</ele>
        <time>2010-05-07T12:54:14Z</time>
      </trkpt>
      <trkpt lat="47.01846" lon="5.64736">
        <ele>219</ele>
        <time>2010-05-07T12:54:16Z</time>
      </trkpt>
      <trkpt lat="47.01849" lon="5.64753">
        <ele>219</ele>
        <time>2010-05-07T12:54:18Z</time>
      </trkpt>
      <trkpt lat="47.01852" lon="5.64768">
        <ele>219</ele>
        <time>2010-05-07T12:54:20Z</time>
      </trkpt>
      <trkpt lat="47.01856" lon="5.64784">
        <ele>219</ele>
        <time>2010-05-07T12:54:22Z</time>
      </trkpt>
      <trkpt lat="47.01861" lon="5.648">
        <ele>219</ele>
        <time>2010-05-07T12:54:24Z</time>
      </trkpt>
      <trkpt lat="47.01866" lon="5.64814">
        <ele>219</ele>
        <time>2010-05-07T12:54:26Z</time>
      </trkpt>
      <trkpt lat="47.01872" lon="5.64828">
        <ele>219</ele>
        <time>2010-05-07T12:54:28Z</time>
      </trkpt>
      <trkpt lat="47.01879" lon="5.64842">
        <ele>219</ele>
        <time>2010-05-07T12:54:30Z</time>
      </trkpt>
      <trkpt lat="47.01887" lon="5.64855">
        <ele>219</ele>
        <time>2010-05-07T12:54:32Z</time>
      </trkpt>
      <trkpt lat="47.01895" lon="5.64866">
        <ele>219</ele>
        <time>2010-05-07T12:54:34Z</time>
      </trkpt>
      <trkpt lat="47.01904" lon="5.64876">
        <ele>219</ele>
        <time>2010-05-07T12:54:36Z</time>
      </trkpt>
      <trkpt lat="47.01914" lon="5.64884">
        <ele>219</ele>
        <time>2010-05-07T12:54:38Z</time>
      </trkpt>
      <trkpt lat="47.01923" lon="5.64892">
        <ele>219</ele>
        <time>2010-05-07T12:54:40Z</time>
      </trkpt>
      <trkpt lat="47.01933" lon="5.649">
        <ele>219</ele>
        <time>2010-05-07T12:54:42Z</time>
      </trkpt>
      <trkpt lat="47.01943" lon="5.64909">
        <ele>219</ele>
        <time>2010-05-07T12:54:44Z</time>
      </trkpt>
      <trkpt lat="47.01952" lon="5.64919">
        <ele>219</ele>
        <time>2010-05-07T12:54:46Z</time>
      </trkpt>
      <trkpt lat="47.01962" lon="5.6493">
        <ele>219</ele>
        <time>2010-05-07T12:54:48Z</time>
      </trkpt>
      <trkpt lat="47.01971" lon="5.64942">
        <ele>219</ele>
        <time>2010-05-07T12:54:50Z</time>
      </trkpt>
      <trkpt lat="47.01979" lon="5.64954">
        <ele>219</ele>
        <time>2010-05-07T12:54:52Z</time>
      </trkpt>
      <trkpt lat="47.01986" lon="5.64967">
        <ele>219</ele>
        <time>2010-05-07T12:54:54Z</time>
      </trkpt>
      <trkpt lat="47.01993" lon="5.6498">
        <ele>219</ele>
        <time>2010-05-07T12:54:56Z</time>
      </trkpt>
      <trkpt lat="47.01998" lon="5.64995">
        <ele>219</ele>
        <time>2010-05-07T12:54:58Z</time>
      </trkpt>
      <trkpt lat="47.02004" lon="5.6501">
        <ele>219</ele>
        <time>2010-05-07T12:55:00Z</time>
      </trkpt>
      <trkpt lat="47.02008" lon="5.65024">
        <ele>219</ele>
        <time>2010-05-07T12:55:02Z</time>
      </trkpt>
      <trkpt lat="47.02013" lon="5.65039">
        <ele>219</ele>
        <time>2010-05-07T12:55:04Z</time>
      </trkpt>
      <trkpt lat="47.02016" lon="5.65055">
        <ele>219</ele>
        <time>2010-05-07T12:55:06Z</time>
      </trkpt>
      <trkpt lat="47.02019" lon="5.6507">
        <ele>219</ele>
        <time>2010-05-07T12:55:08Z</time>
      </trkpt>
      <trkpt lat="47.02023" lon="5.65086">
        <ele>219</ele>
        <time>2010-05-07T12:55:10Z</time>
      </trkpt>
      <trkpt lat="47.02026" lon="5.65102">
        <ele>219</ele>
        <time>2010-05-07T12:55:12Z</time>
      </trkpt>
      <trkpt lat="47.02027" lon="5.65119">
        <ele>219</ele>
        <time>2010-05-07T12:55:14Z</time>
      </trkpt>
      <trkpt lat="47.02028" lon="5.65136">
        <ele>219</ele>
        <time>2010-05-07T12:55:16Z</time>
      </trkpt>
      <trkpt lat="47.0203" lon="5.65154">
        <ele>219</ele>
        <time>2010-05-07T12:55:18Z</time>
      </trkpt>
      <trkpt lat="47.02031" lon="5.65171">
        <ele>219</ele>
        <time>2010-05-07T12:55:20Z</time>
      </trkpt>
      <trkpt lat="47.02032" lon="5.65189">
        <ele>219</ele>
        <time>2010-05-07T12:55:22Z</time>
      </trkpt>
      <trkpt lat="47.0203" lon="5.65207">
        <ele>219</ele>
        <time>2010-05-07T12:55:24Z</time>
      </trkpt>
      <trkpt lat="47.02028" lon="5.65225">
        <ele>219</ele>
        <time>2010-05-07T12:55:26Z</time>
      </trkpt>
      <trkpt lat="47.02024" lon="5.65243">
        <ele>219</ele>
        <time>2010-05-07T12:55:28Z</time>
      </trkpt>
      <trkpt lat="47.02021" lon="5.65261">
        <ele>219</ele>
        <time>2010-05-07T12:55:30Z</time>
      </trkpt>
      <trkpt lat="47.02018" lon="5.65279">
        <ele>219</ele>
        <time>2010-05-07T12:55:32Z</time>
      </trkpt>
      <trkpt lat="47.02014" lon="5.65297">
        <ele>219</ele>
        <time>2010-05-07T12:55:34Z</time>
      </trkpt>
      <trkpt lat="47.02013" lon="5.65316">
        <ele>219</ele>
        <time>2010-05-07T12:55:36Z</time>
      </trkpt>
      <trkpt lat="47.02013" lon="5.65334">
        <ele>219</ele>
        <time>2010-05-07T12:55:38Z</time>
      </trkpt>
      <trkpt lat="47.02013" lon="5.6535">
        <ele>219</ele>
        <time>2010-05-07T12:55:40Z</time>
      </trkpt>
      <trkpt lat="47.02014" lon="5.65367">
        <ele>219</ele>
        <time>2010-05-07T12:55:42Z</time>
      </trkpt>
      <trkpt lat="47.02018" lon="5.65383">
        <ele>219</ele>
        <time>2010-05-07T12:55:44Z</time>
      </trkpt>
      <trkpt lat="47.02022" lon="5.65399">
        <ele>219</ele>
        <time>2010-05-07T12:55:46Z</time>
      </trkpt>
      <trkpt lat="47.02026" lon="5.65415">
        <ele>219</ele>
        <time>2010-05-07T12:55:48Z</time>
      </trkpt>
      <trkpt lat="47.0203" lon="5.65431">
        <ele>219</ele>
        <time>2010-05-07T12:55:50Z</time>
      </trkpt>
      <trkpt lat="47.02034" lon="5.65447">
        <ele>219</ele>
        <time>2010-05-07T12:55:52Z</time>
      </trkpt>
      <trkpt lat="47.02038" lon="5.65463">
        <ele>219</ele>
        <time>2010-05-07T12:55:54Z</time>
      </trkpt>
      <trkpt lat="47.02042" lon="5.65481">
        <ele>219</ele>
        <time>2010-05-07T12:55:56Z</time>
      </trkpt>
      <trkpt lat="47.02045" lon="5.65499">
        <ele>219</ele>
        <time>2010-05-07T12:55:58Z</time>
      </trkpt>
      <trkpt lat="47.02048" lon="5.65516">
        <ele>219</ele>
        <time>2010-05-07T12:56:00Z</time>
      </trkpt>
      <trkpt lat="47.02051" lon="5.65532">
        <ele>219</ele>
        <time>2010-05-07T12:56:02Z</time>
      </trkpt>
      <trkpt lat="47.02053" lon="5.65548">
        <ele>219</ele>
        <time>2010-05-07T12:56:04Z</time>
      </trkpt>
      <trkpt lat="47.02054" lon="5.65562">
        <ele>219</ele>
        <time>2010-05-07T12:56:06Z</time>
      </trkpt>
      <trkpt lat="47.02057" lon="5.65578">
        <ele>219</ele>
        <time>2010-05-07T12:56:08Z</time>
      </trkpt>
      <trkpt lat="47.02059" lon="5.65595">
        <ele>219</ele>
        <time>2010-05-07T12:56:10Z</time>
      </trkpt>
      <trkpt lat="47.02062" lon="5.65612">
        <ele>219</ele>
        <time>2010-05-07T12:56:12Z</time>
      </trkpt>
      <trkpt lat="47.02063" lon="5.65628">
        <ele>219</ele>
        <time>2010-05-07T12:56:14Z</time>
      </trkpt>
      <trkpt lat="47.02065" lon="5.65643">
        <ele>219</ele>
        <time>2010-05-07T12:56:16Z</time>
      </trkpt>
      <trkpt lat="47.02065" lon="5.65658">
        <ele>219</ele>
        <time>2010-05-07T12:56:18Z</time>
      </trkpt>
      <trkpt lat="47.02068" lon="5.65673">
        <ele>224</ele>
        <time>2010-05-07T12:56:20Z</time>
      </trkpt>
      <trkpt lat="47.02072" lon="5.65687">
        <ele>224</ele>
        <time>2010-05-07T12:56:22Z</time>
      </trkpt>
      <trkpt lat="47.02076" lon="5.65701">
        <ele>224</ele>
        <time>2010-05-07T12:56:24Z</time>
      </trkpt>
      <trkpt lat="47.02081" lon="5.65715">
        <ele>224</ele>
        <time>2010-05-07T12:56:26Z</time>
      </trkpt>
      <trkpt lat="47.02088" lon="5.65728">
        <ele>224</ele>
        <time>2010-05-07T12:56:28Z</time>
      </trkpt>
      <trkpt lat="47.02094" lon="5.6574">
        <ele>224</ele>
        <time>2010-05-07T12:56:30Z</time>
      </trkpt>
      <trkpt lat="47.02099" lon="5.65754">
        <ele>224</ele>
        <time>2010-05-07T12:56:32Z</time>
      </trkpt>
      <trkpt lat="47.02104" lon="5.65771">
        <ele>224</ele>
        <time>2010-05-07T12:56:34Z</time>
      </trkpt>
      <trkpt lat="47.02108" lon="5.65788">
        <ele>224</ele>
        <time>2010-05-07T12:56:36Z</time>
      </trkpt>
      <trkpt lat="47.02109" lon="5.65804">
        <ele>224</ele>
        <time>2010-05-07T12:56:38Z</time>
      </trkpt>
      <trkpt lat="47.02111" lon="5.65821">
        <ele>224</ele>
        <time>2010-05-07T12:56:40Z</time>
      </trkpt>
      <trkpt lat="47.02111" lon="5.65842">
        <ele>224</ele>
        <time>2010-05-07T12:56:42Z</time>
      </trkpt>
      <trkpt lat="47.0211" lon="5.65861">
        <ele>224</ele>
        <time>2010-05-07T12:56:44Z</time>
      </trkpt>
      <trkpt lat="47.02108" lon="5.65879">
        <ele>224</ele>
        <time>2010-05-07T12:56:46Z</time>
      </trkpt>
      <trkpt lat="47.02106" lon="5.65897">
        <ele>224</ele>
        <time>2010-05-07T12:56:48Z</time>
      </trkpt>
      <trkpt lat="47.02105" lon="5.65916">
        <ele>224</ele>
        <time>2010-05-07T12:56:50Z</time>
      </trkpt>
      <trkpt lat="47.02104" lon="5.65935">
        <ele>224</ele>
        <time>2010-05-07T12:56:52Z</time>
      </trkpt>
      <trkpt lat="47.02104" lon="5.65954">
        <ele>224</ele>
        <time>2010-05-07T12:56:54Z</time>
      </trkpt>
      <trkpt lat="47.02106" lon="5.65973">
        <ele>224</ele>
        <time>2010-05-07T12:56:56Z</time>
      </trkpt>
      <trkpt lat="47.0211" lon="5.6599">
        <ele>224</ele>
        <time>2010-05-07T12:56:58Z</time>
      </trkpt>
      <trkpt lat="47.02114" lon="5.66007">
        <ele>224</ele>
        <time>2010-05-07T12:57:00Z</time>
      </trkpt>
      <trkpt lat="47.02119" lon="5.66025">
        <ele>224</ele>
        <time>2010-05-07T12:57:02Z</time>
      </trkpt>
      <trkpt lat="47.02124" lon="5.66042">
        <ele>224</ele>
        <time>2010-05-07T12:57:04Z</time>
      </trkpt>
      <trkpt lat="47.02128" lon="5.6606">
        <ele>224</ele>
        <time>2010-05-07T12:57:06Z</time>
      </trkpt>
      <trkpt lat="47.02134" lon="5.66077">
        <ele>224</ele>
        <time>2010-05-07T12:57:08Z</time>
      </trkpt>
      <trkpt lat="47.02139" lon="5.66093">
        <ele>224</ele>
        <time>2010-05-07T12:57:10Z</time>
      </trkpt>
      <trkpt lat="47.02145" lon="5.6611">
        <ele>224</ele>
        <time>2010-05-07T12:57:12Z</time>
      </trkpt>
      <trkpt lat="47.02151" lon="5.66126">
        <ele>224</ele>
        <time>2010-05-07T12:57:14Z</time>
      </trkpt>
      <trkpt lat="47.02156" lon="5.66141">
        <ele>224</ele>
        <time>2010-05-07T12:57:16Z</time>
      </trkpt>
      <trkpt lat="47.02163" lon="5.66157">
        <ele>224</ele>
        <time>2010-05-07T12:57:18Z</time>
      </trkpt>
      <trkpt lat="47.02169" lon="5.66172">
        <ele>219</ele>
        <time>2010-05-07T12:57:20Z</time>
      </trkpt>
      <trkpt lat="47.02177" lon="5.66186">
        <ele>219</ele>
        <time>2010-05-07T12:57:22Z</time>
      </trkpt>
      <trkpt lat="47.02187" lon="5.66198">
        <ele>219</ele>
        <time>2010-05-07T12:57:24Z</time>
      </trkpt>
      <trkpt lat="47.02198" lon="5.66205">
        <ele>219</ele>
        <time>2010-05-07T12:57:26Z</time>
      </trkpt>
      <trkpt lat="47.02209" lon="5.66203">
        <ele>219</ele>
        <time>2010-05-07T12:57:28Z</time>
      </trkpt>
      <trkpt lat="47.0222" lon="5.66195">
        <ele>219</ele>
        <time>2010-05-07T12:57:30Z</time>
      </trkpt>
      <trkpt lat="47.02231" lon="5.66188">
        <ele>219</ele>
        <time>2010-05-07T12:57:32Z</time>
      </trkpt>
      <trkpt lat="47.02241" lon="5.6618">
        <ele>219</ele>
        <time>2010-05-07T12:57:34Z</time>
      </trkpt>
      <trkpt lat="47.02252" lon="5.66173">
        <ele>219</ele>
        <time>2010-05-07T12:57:36Z</time>
      </trkpt>
      <trkpt lat="47.02262" lon="5.66169">
        <ele>219</ele>
        <time>2010-05-07T12:57:38Z</time>
      </trkpt>
      <trkpt lat="47.02272" lon="5.66169">
        <ele>219</ele>
        <time>2010-05-07T12:57:40Z</time>
      </trkpt>
      <trkpt lat="47.02282" lon="5.66169">
        <ele>219</ele>
        <time>2010-05-07T12:57:42Z</time>
      </trkpt>
      <trkpt lat="47.02292" lon="5.6617">
        <ele>224</ele>
        <time>2010-05-07T12:57:44Z</time>
      </trkpt>
      <trkpt lat="47.02301" lon="5.6617">
        <ele>224</ele>
        <time>2010-05-07T12:57:46Z</time>
      </trkpt>
      <trkpt lat="47.0231" lon="5.6617">
        <ele>224</ele>
        <time>2010-05-07T12:57:48Z</time>
      </trkpt>
      <trkpt lat="47.02323" lon="5.6617">
        <ele>224</ele>
        <time>2010-05-07T12:57:51Z</time>
      </trkpt>
      <trkpt lat="47.02335" lon="5.66172">
        <ele>224</ele>
        <time>2010-05-07T12:57:54Z</time>
      </trkpt>
      <trkpt lat="47.02346" lon="5.66177">
        <ele>224</ele>
        <time>2010-05-07T12:57:57Z</time>
      </trkpt>
      <trkpt lat="47.02355" lon="5.66185">
        <ele>224</ele>
        <time>2010-05-07T12:58:00Z</time>
      </trkpt>
      <trkpt lat="47.0236" lon="5.66196">
        <ele>230</ele>
        <time>2010-05-07T12:58:03Z</time>
      </trkpt>
      <trkpt lat="47.02364" lon="5.66211">
        <ele>230</ele>
        <time>2010-05-07T12:58:06Z</time>
      </trkpt>
      <trkpt lat="47.02366" lon="5.66226">
        <ele>230</ele>
        <time>2010-05-07T12:58:09Z</time>
      </trkpt>
      <trkpt lat="47.02369" lon="5.66243">
        <ele>230</ele>
        <time>2010-05-07T12:58:12Z</time>
      </trkpt>
      <trkpt lat="47.0237" lon="5.66263">
        <ele>230</ele>
        <time>2010-05-07T12:58:15Z</time>
      </trkpt>
      <trkpt lat="47.02369" lon="5.66276">
        <ele>230</ele>
        <time>2010-05-07T12:58:17Z</time>
      </trkpt>
      <trkpt lat="47.02367" lon="5.6629">
        <ele>230</ele>
        <time>2010-05-07T12:58:19Z</time>
      </trkpt>
      <trkpt lat="47.02366" lon="5.66304">
        <ele>230</ele>
        <time>2010-05-07T12:58:21Z</time>
      </trkpt>
      <trkpt lat="47.02366" lon="5.6632">
        <ele>230</ele>
        <time>2010-05-07T12:58:23Z</time>
      </trkpt>
      <trkpt lat="47.0237" lon="5.66334">
        <ele>230</ele>
        <time>2010-05-07T12:58:25Z</time>
      </trkpt>
      <trkpt lat="47.02378" lon="5.66347">
        <ele>230</ele>
        <time>2010-05-07T12:58:27Z</time>
      </trkpt>
      <trkpt lat="47.02386" lon="5.66358">
        <ele>230</ele>
        <time>2010-05-07T12:58:29Z</time>
      </trkpt>
      <trkpt lat="47.02394" lon="5.66369">
        <ele>230</ele>
        <time>2010-05-07T12:58:31Z</time>
      </trkpt>
      <trkpt lat="47.02402" lon="5.66379">
        <ele>230</ele>
        <time>2010-05-07T12:58:33Z</time>
      </trkpt>
      <trkpt lat="47.02409" lon="5.6639">
        <ele>230</ele>
        <time>2010-05-07T12:58:35Z</time>
      </trkpt>
      <trkpt lat="47.02416" lon="5.66401">
        <ele>230</ele>
        <time>2010-05-07T12:58:37Z</time>
      </trkpt>
      <trkpt lat="47.02422" lon="5.66413">
        <ele>230</ele>
        <time>2010-05-07T12:58:39Z</time>
      </trkpt>
      <trkpt lat="47.0243" lon="5.66429">
        <ele>230</ele>
        <time>2010-05-07T12:58:42Z</time>
      </trkpt>
      <trkpt lat="47.02437" lon="5.6644">
        <ele>230</ele>
        <time>2010-05-07T12:58:44Z</time>
      </trkpt>
      <trkpt lat="47.02443" lon="5.6645">
        <ele>230</ele>
        <time>2010-05-07T12:58:46Z</time>
      </trkpt>
      <trkpt lat="47.0245" lon="5.66461">
        <ele>230</ele>
        <time>2010-05-07T12:58:48Z</time>
      </trkpt>
      <trkpt lat="47.02457" lon="5.66472">
        <ele>230</ele>
        <time>2010-05-07T12:58:50Z</time>
      </trkpt>
      <trkpt lat="47.02463" lon="5.66484">
        <ele>230</ele>
        <time>2010-05-07T12:58:52Z</time>
      </trkpt>
      <trkpt lat="47.02469" lon="5.66495">
        <ele>230</ele>
        <time>2010-05-07T12:58:54Z</time>
      </trkpt>
      <trkpt lat="47.02476" lon="5.66504">
        <ele>230</ele>
        <time>2010-05-07T12:58:56Z</time>
      </trkpt>
      <trkpt lat="47.02482" lon="5.66514">
        <ele>236</ele>
        <time>2010-05-07T12:58:58Z</time>
      </trkpt>
      <trkpt lat="47.02489" lon="5.66523">
        <ele>236</ele>
        <time>2010-05-07T12:59:00Z</time>
      </trkpt>
      <trkpt lat="47.02497" lon="5.66532">
        <ele>236</ele>
        <time>2010-05-07T12:59:02Z</time>
      </trkpt>
      <trkpt lat="47.02505" lon="5.66542">
        <ele>236</ele>
        <time>2010-05-07T12:59:04Z</time>
      </trkpt>
      <trkpt lat="47.02511" lon="5.66552">
        <ele>236</ele>
        <time>2010-05-07T12:59:06Z</time>
      </trkpt>
      <trkpt lat="47.02519" lon="5.66562">
        <ele>236</ele>
        <time>2010-05-07T12:59:08Z</time>
      </trkpt>
      <trkpt lat="47.02526" lon="5.66573">
        <ele>236</ele>
        <time>2010-05-07T12:59:10Z</time>
      </trkpt>
      <trkpt lat="47.02532" lon="5.66585">
        <ele>236</ele>
        <time>2010-05-07T12:59:12Z</time>
      </trkpt>
      <trkpt lat="47.02539" lon="5.66598">
        <ele>236</ele>
        <time>2010-05-07T12:59:14Z</time>
      </trkpt>
      <trkpt lat="47.02545" lon="5.66612">
        <ele>236</ele>
        <time>2010-05-07T12:59:16Z</time>
      </trkpt>
      <trkpt lat="47.0255" lon="5.66627">
        <ele>236</ele>
        <time>2010-05-07T12:59:18Z</time>
      </trkpt>
      <trkpt lat="47.02554" lon="5.66644">
        <ele>236</ele>
        <time>2010-05-07T12:59:20Z</time>
      </trkpt>
      <trkpt lat="47.02558" lon="5.66663">
        <ele>236</ele>
        <time>2010-05-07T12:59:22Z</time>
      </trkpt>
      <trkpt lat="47.02562" lon="5.66682">
        <ele>236</ele>
        <time>2010-05-07T12:59:24Z</time>
      </trkpt>
      <trkpt lat="47.02564" lon="5.667">
        <ele>236</ele>
        <time>2010-05-07T12:59:26Z</time>
      </trkpt>
      <trkpt lat="47.02566" lon="5.66719">
        <ele>236</ele>
        <time>2010-05-07T12:59:28Z</time>
      </trkpt>
      <trkpt lat="47.02569" lon="5.66737">
        <ele>236</ele>
        <time>2010-05-07T12:59:30Z</time>
      </trkpt>
      <trkpt lat="47.02571" lon="5.66754">
        <ele>236</ele>
        <time>2010-05-07T12:59:32Z</time>
      </trkpt>
      <trkpt lat="47.02573" lon="5.66772">
        <ele>236</ele>
        <time>2010-05-07T12:59:34Z</time>
      </trkpt>
      <trkpt lat="47.02576" lon="5.66789">
        <ele>236</ele>
        <time>2010-05-07T12:59:36Z</time>
      </trkpt>
      <trkpt lat="47.02578" lon="5.66806">
        <ele>236</ele>
        <time>2010-05-07T12:59:38Z</time>
      </trkpt>
      <trkpt lat="47.0258" lon="5.66823">
        <ele>236</ele>
        <time>2010-05-07T12:59:40Z</time>
      </trkpt>
      <trkpt lat="47.02581" lon="5.66839">
        <ele>236</ele>
        <time>2010-05-07T12:59:42Z</time>
      </trkpt>
      <trkpt lat="47.02584" lon="5.66856">
        <ele>236</ele>
        <time>2010-05-07T12:59:44Z</time>
      </trkpt>
      <trkpt lat="47.02586" lon="5.66874">
        <ele>236</ele>
        <time>2010-05-07T12:59:46Z</time>
      </trkpt>
      <trkpt lat="47.02588" lon="5.66891">
        <ele>236</ele>
        <time>2010-05-07T12:59:48Z</time>
      </trkpt>
      <trkpt lat="47.0259" lon="5.66907">
        <ele>236</ele>
        <time>2010-05-07T12:59:50Z</time>
      </trkpt>
      <trkpt lat="47.02592" lon="5.66924">
        <ele>236</ele>
        <time>2010-05-07T12:59:52Z</time>
      </trkpt>
      <trkpt lat="47.02594" lon="5.6694">
        <ele>236</ele>
        <time>2010-05-07T12:59:54Z</time>
      </trkpt>
      <trkpt lat="47.02597" lon="5.66957">
        <ele>236</ele>
        <time>2010-05-07T12:59:56Z</time>
      </trkpt>
      <trkpt lat="47.02599" lon="5.66974">
        <ele>236</ele>
        <time>2010-05-07T12:59:58Z</time>
      </trkpt>
      <trkpt lat="47.02601" lon="5.66989">
        <ele>236</ele>
        <time>2010-05-07T13:00:00Z</time>
      </trkpt>
      <trkpt lat="47.02603" lon="5.67005">
        <ele>236</ele>
        <time>2010-05-07T13:00:02Z</time>
      </trkpt>
      <trkpt lat="47.02605" lon="5.67022">
        <ele>236</ele>
        <time>2010-05-07T13:00:04Z</time>
      </trkpt>
      <trkpt lat="47.02607" lon="5.67041">
        <ele>236</ele>
        <time>2010-05-07T13:00:06Z</time>
      </trkpt>
      <trkpt lat="47.0261" lon="5.6706">
        <ele>236</ele>
        <time>2010-05-07T13:00:08Z</time>
      </trkpt>
      <trkpt lat="47.02612" lon="5.6708">
        <ele>236</ele>
        <time>2010-05-07T13:00:10Z</time>
      </trkpt>
      <trkpt lat="47.02615" lon="5.671">
        <ele>236</ele>
        <time>2010-05-07T13:00:12Z</time>
      </trkpt>
      <trkpt lat="47.02618" lon="5.67121">
        <ele>236</ele>
        <time>2010-05-07T13:00:14Z</time>
      </trkpt>
      <trkpt lat="47.0262" lon="5.67142">
        <ele>236</ele>
        <time>2010-05-07T13:00:16Z</time>
      </trkpt>
      <trkpt lat="47.02623" lon="5.67162">
        <ele>236</ele>
        <time>2010-05-07T13:00:18Z</time>
      </trkpt>
      <trkpt lat="47.02624" lon="5.67183">
        <ele>236</ele>
        <time>2010-05-07T13:00:20Z</time>
      </trkpt>
      <trkpt lat="47.02628" lon="5.67203">
        <ele>231</ele>
        <time>2010-05-07T13:00:22Z</time>
      </trkpt>
      <trkpt lat="47.0263" lon="5.67222">
        <ele>231</ele>
        <time>2010-05-07T13:00:24Z</time>
      </trkpt>
      <trkpt lat="47.02632" lon="5.67242">
        <ele>231</ele>
        <time>2010-05-07T13:00:26Z</time>
      </trkpt>
      <trkpt lat="47.02634" lon="5.67262">
        <ele>231</ele>
        <time>2010-05-07T13:00:28Z</time>
      </trkpt>
      <trkpt lat="47.02637" lon="5.67282">
        <ele>231</ele>
        <time>2010-05-07T13:00:30Z</time>
      </trkpt>
      <trkpt lat="47.02639" lon="5.673">
        <ele>231</ele>
        <time>2010-05-07T13:00:32Z</time>
      </trkpt>
      <trkpt lat="47.0264" lon="5.67316">
        <ele>231</ele>
        <time>2010-05-07T13:00:34Z</time>
      </trkpt>
      <trkpt lat="47.02642" lon="5.67332">
        <ele>231</ele>
        <time>2010-05-07T13:00:36Z</time>
      </trkpt>
      <trkpt lat="47.02644" lon="5.67348">
        <ele>231</ele>
        <time>2010-05-07T13:00:38Z</time>
      </trkpt>
      <trkpt lat="47.02645" lon="5.67364">
        <ele>231</ele>
        <time>2010-05-07T13:00:40Z</time>
      </trkpt>
      <trkpt lat="47.02648" lon="5.6738">
        <ele>236</ele>
        <time>2010-05-07T13:00:42Z</time>
      </trkpt>
      <trkpt lat="47.0265" lon="5.67397">
        <ele>236</ele>
        <time>2010-05-07T13:00:44Z</time>
      </trkpt>
      <trkpt lat="47.02651" lon="5.67413">
        <ele>236</ele>
        <time>2010-05-07T13:00:46Z</time>
      </trkpt>
      <trkpt lat="47.02653" lon="5.6743">
        <ele>236</ele>
        <time>2010-05-07T13:00:48Z</time>
      </trkpt>
      <trkpt lat="47.02655" lon="5.67446">
        <ele>236</ele>
        <time>2010-05-07T13:00:50Z</time>
      </trkpt>
      <trkpt lat="47.02656" lon="5.67462">
        <ele>236</ele>
        <time>2010-05-07T13:00:52Z</time>
      </trkpt>
      <trkpt lat="47.02658" lon="5.67479">
        <ele>236</ele>
        <time>2010-05-07T13:00:54Z</time>
      </trkpt>
      <trkpt lat="47.0266" lon="5.67497">
        <ele>236</ele>
        <time>2010-05-07T13:00:56Z</time>
      </trkpt>
      <trkpt lat="47.02663" lon="5.67515">
        <ele>236</ele>
        <time>2010-05-07T13:00:58Z</time>
      </trkpt>
      <trkpt lat="47.02665" lon="5.67534">
        <ele>236</ele>
        <time>2010-05-07T13:01:00Z</time>
      </trkpt>
      <trkpt lat="47.02668" lon="5.67555">
        <ele>236</ele>
        <time>2010-05-07T13:01:02Z</time>
      </trkpt>
      <trkpt lat="47.02671" lon="5.67575">
        <ele>236</ele>
        <time>2010-05-07T13:01:04Z</time>
      </trkpt>
      <trkpt lat="47.02675" lon="5.67596">
        <ele>236</ele>
        <time>2010-05-07T13:01:06Z</time>
      </trkpt>
      <trkpt lat="47.02679" lon="5.67618">
        <ele>236</ele>
        <time>2010-05-07T13:01:08Z</time>
      </trkpt>
      <trkpt lat="47.02682" lon="5.6764">
        <ele>236</ele>
        <time>2010-05-07T13:01:10Z</time>
      </trkpt>
      <trkpt lat="47.02686" lon="5.67662">
        <ele>236</ele>
        <time>2010-05-07T13:01:12Z</time>
      </trkpt>
      <trkpt lat="47.0269" lon="5.67684">
        <ele>231</ele>
        <time>2010-05-07T13:01:14Z</time>
      </trkpt>
      <trkpt lat="47.02693" lon="5.67706">
        <ele>231</ele>
        <time>2010-05-07T13:01:16Z</time>
      </trkpt>
      <trkpt lat="47.02697" lon="5.67727">
        <ele>231</ele>
        <time>2010-05-07T13:01:18Z</time>
      </trkpt>
      <trkpt lat="47.02701" lon="5.67748">
        <ele>231</ele>
        <time>2010-05-07T13:01:20Z</time>
      </trkpt>
      <trkpt lat="47.02702" lon="5.67769">
        <ele>231</ele>
        <time>2010-05-07T13:01:22Z</time>
      </trkpt>
      <trkpt lat="47.02704" lon="5.67791">
        <ele>231</ele>
        <time>2010-05-07T13:01:24Z</time>
      </trkpt>
      <trkpt lat="47.02704" lon="5.67813">
        <ele>231</ele>
        <time>2010-05-07T13:01:26Z</time>
      </trkpt>
      <trkpt lat="47.02704" lon="5.67833">
        <ele>231</ele>
        <time>2010-05-07T13:01:28Z</time>
      </trkpt>
      <trkpt lat="47.02704" lon="5.67852">
        <ele>231</ele>
        <time>2010-05-07T13:01:30Z</time>
      </trkpt>
      <trkpt lat="47.02704" lon="5.67869">
        <ele>231</ele>
        <time>2010-05-07T13:01:32Z</time>
      </trkpt>
      <trkpt lat="47.02704" lon="5.67886">
        <ele>231</ele>
        <time>2010-05-07T13:01:34Z</time>
      </trkpt>
      <trkpt lat="47.02703" lon="5.67903">
        <ele>231</ele>
        <time>2010-05-07T13:01:36Z</time>
      </trkpt>
      <trkpt lat="47.02704" lon="5.67921">
        <ele>231</ele>
        <time>2010-05-07T13:01:38Z</time>
      </trkpt>
      <trkpt lat="47.02704" lon="5.67938">
        <ele>231</ele>
        <time>2010-05-07T13:01:40Z</time>
      </trkpt>
      <trkpt lat="47.02704" lon="5.67955">
        <ele>231</ele>
        <time>2010-05-07T13:01:42Z</time>
      </trkpt>
      <trkpt lat="47.02703" lon="5.67972">
        <ele>231</ele>
        <time>2010-05-07T13:01:44Z</time>
      </trkpt>
      <trkpt lat="47.02703" lon="5.6799">
        <ele>231</ele>
        <time>2010-05-07T13:01:46Z</time>
      </trkpt>
      <trkpt lat="47.02703" lon="5.68007">
        <ele>231</ele>
        <time>2010-05-07T13:01:48Z</time>
      </trkpt>
      <trkpt lat="47.02702" lon="5.68025">
        <ele>231</ele>
        <time>2010-05-07T13:01:50Z</time>
      </trkpt>
      <trkpt lat="47.02702" lon="5.68042">
        <ele>231</ele>
        <time>2010-05-07T13:01:52Z</time>
      </trkpt>
      <trkpt lat="47.02702" lon="5.68059">
        <ele>231</ele>
        <time>2010-05-07T13:01:54Z</time>
      </trkpt>
      <trkpt lat="47.02702" lon="5.68077">
        <ele>231</ele>
        <time>2010-05-07T13:01:56Z</time>
      </trkpt>
      <trkpt lat="47.02702" lon="5.68095">
        <ele>231</ele>
        <time>2010-05-07T13:01:58Z</time>
      </trkpt>
      <trkpt lat="47.02702" lon="5.68112">
        <ele>231</ele>
        <time>2010-05-07T13:02:00Z</time>
      </trkpt>
      <trkpt lat="47.02702" lon="5.6813">
        <ele>231</ele>
        <time>2010-05-07T13:02:02Z</time>
      </trkpt>
      <trkpt lat="47.02702" lon="5.68148">
        <ele>231</ele>
        <time>2010-05-07T13:02:04Z</time>
      </trkpt>
      <trkpt lat="47.02703" lon="5.68165">
        <ele>231</ele>
        <time>2010-05-07T13:02:06Z</time>
      </trkpt>
      <trkpt lat="47.02704" lon="5.68183">
        <ele>231</ele>
        <time>2010-05-07T13:02:08Z</time>
      </trkpt>
      <trkpt lat="47.02704" lon="5.68201">
        <ele>231</ele>
        <time>2010-05-07T13:02:10Z</time>
      </trkpt>
      <trkpt lat="47.02704" lon="5.68219">
        <ele>231</ele>
        <time>2010-05-07T13:02:12Z</time>
      </trkpt>
      <trkpt lat="47.02705" lon="5.68237">
        <ele>231</ele>
        <time>2010-05-07T13:02:14Z</time>
      </trkpt>
      <trkpt lat="47.02706" lon="5.68255">
        <ele>231</ele>
        <time>2010-05-07T13:02:16Z</time>
      </trkpt>
      <trkpt lat="47.02708" lon="5.68273">
        <ele>231</ele>
        <time>2010-05-07T13:02:18Z</time>
      </trkpt>
      <trkpt lat="47.0271" lon="5.6829">
        <ele>231</ele>
        <time>2010-05-07T13:02:20Z</time>
      </trkpt>
      <trkpt lat="47.02714" lon="5.68308">
        <ele>231</ele>
        <time>2010-05-07T13:02:22Z</time>
      </trkpt>
      <trkpt lat="47.02717" lon="5.68325">
        <ele>231</ele>
        <time>2010-05-07T13:02:24Z</time>
      </trkpt>
      <trkpt lat="47.02719" lon="5.68342">
        <ele>231</ele>
        <time>2010-05-07T13:02:26Z</time>
      </trkpt>
      <trkpt lat="47.02722" lon="5.68358">
        <ele>231</ele>
        <time>2010-05-07T13:02:28Z</time>
      </trkpt>
      <trkpt lat="47.02725" lon="5.68374">
        <ele>231</ele>
        <time>2010-05-07T13:02:30Z</time>
      </trkpt>
      <trkpt lat="47.02728" lon="5.68391">
        <ele>231</ele>
        <time>2010-05-07T13:02:32Z</time>
      </trkpt>
      <trkpt lat="47.02732" lon="5.68407">
        <ele>231</ele>
        <time>2010-05-07T13:02:34Z</time>
      </trkpt>
      <trkpt lat="47.02734" lon="5.68423">
        <ele>231</ele>
        <time>2010-05-07T13:02:36Z</time>
      </trkpt>
      <trkpt lat="47.02737" lon="5.68438">
        <ele>231</ele>
        <time>2010-05-07T13:02:38Z</time>
      </trkpt>
      <trkpt lat="47.02741" lon="5.68452">
        <ele>231</ele>
        <time>2010-05-07T13:02:40Z</time>
      </trkpt>
      <trkpt lat="47.02745" lon="5.68466">
        <ele>231</ele>
        <time>2010-05-07T13:02:42Z</time>
      </trkpt>
      <trkpt lat="47.02749" lon="5.68479">
        <ele>231</ele>
        <time>2010-05-07T13:02:44Z</time>
      </trkpt>
      <trkpt lat="47.02753" lon="5.68493">
        <ele>231</ele>
        <time>2010-05-07T13:02:46Z</time>
      </trkpt>
      <trkpt lat="47.02759" lon="5.68505">
        <ele>231</ele>
        <time>2010-05-07T13:02:48Z</time>
      </trkpt>
      <trkpt lat="47.02766" lon="5.6852">
        <ele>231</ele>
        <time>2010-05-07T13:02:50Z</time>
      </trkpt>
      <trkpt lat="47.02771" lon="5.68532">
        <ele>231</ele>
        <time>2010-05-07T13:02:52Z</time>
      </trkpt>
      <trkpt lat="47.02777" lon="5.68546">
        <ele>231</ele>
        <time>2010-05-07T13:02:54Z</time>
      </trkpt>
      <trkpt lat="47.02781" lon="5.68562">
        <ele>231</ele>
        <time>2010-05-07T13:02:56Z</time>
      </trkpt>
      <trkpt lat="47.02781" lon="5.68581">
        <ele>231</ele>
        <time>2010-05-07T13:02:58Z</time>
      </trkpt>
      <trkpt lat="47.02775" lon="5.68599">
        <ele>231</ele>
        <time>2010-05-07T13:03:00Z</time>
      </trkpt>
      <trkpt lat="47.0276" lon="5.68608">
        <ele>231</ele>
        <time>2010-05-07T13:03:02Z</time>
      </trkpt>
      <trkpt lat="47.02746" lon="5.68618">
        <ele>231</ele>
        <time>2010-05-07T13:03:04Z</time>
      </trkpt>
      <trkpt lat="47.02732" lon="5.68626">
        <ele>231</ele>
        <time>2010-05-07T13:03:06Z</time>
      </trkpt>
      <trkpt lat="47.02717" lon="5.68635">
        <ele>231</ele>
        <time>2010-05-07T13:03:08Z</time>
      </trkpt>
      <trkpt lat="47.02703" lon="5.68643">
        <ele>231</ele>
        <time>2010-05-07T13:03:10Z</time>
      </trkpt>
      <trkpt lat="47.02691" lon="5.68651">
        <ele>231</ele>
        <time>2010-05-07T13:03:12Z</time>
      </trkpt>
      <trkpt lat="47.02679" lon="5.68663">
        <ele>231</ele>
        <time>2010-05-07T13:03:14Z</time>
      </trkpt>
      <trkpt lat="47.02671" lon="5.68676">
        <ele>231</ele>
        <time>2010-05-07T13:03:16Z</time>
      </trkpt>
      <trkpt lat="47.02669" lon="5.68691">
        <ele>231</ele>
        <time>2010-05-07T13:03:18Z</time>
      </trkpt>
      <trkpt lat="47.02676" lon="5.68714">
        <ele>231</ele>
        <time>2010-05-07T13:03:20Z</time>
      </trkpt>
      <trkpt lat="47.02682" lon="5.68726">
        <ele>231</ele>
        <time>2010-05-07T13:03:21Z</time>
      </trkpt>
      <trkpt lat="47.02688" lon="5.6875">
        <ele>231</ele>
        <time>2010-05-07T13:03:23Z</time>
      </trkpt>
      <trkpt lat="47.02693" lon="5.68774">
        <ele>231</ele>
        <time>2010-05-07T13:03:25Z</time>
      </trkpt>
      <trkpt lat="47.02689" lon="5.68792">
        <ele>231</ele>
        <time>2010-05-07T13:03:27Z</time>
      </trkpt>
      <trkpt lat="47.02674" lon="5.68802">
        <ele>237</ele>
        <time>2010-05-07T13:03:29Z</time>
      </trkpt>
      <trkpt lat="47.02662" lon="5.68805">
        <ele>237</ele>
        <time>2010-05-07T13:03:30Z</time>
      </trkpt>
      <trkpt lat="47.0265" lon="5.68805">
        <ele>237</ele>
        <time>2010-05-07T13:03:31Z</time>
      </trkpt>
      <trkpt lat="47.02639" lon="5.68802">
        <ele>237</ele>
        <time>2010-05-07T13:03:32Z</time>
      </trkpt>
      <trkpt lat="47.02628" lon="5.68801">
        <ele>237</ele>
        <time>2010-05-07T13:03:33Z</time>
      </trkpt>
      <trkpt lat="47.02618" lon="5.68801">
        <ele>237</ele>
        <time>2010-05-07T13:03:34Z</time>
      </trkpt>
      <trkpt lat="47.02604" lon="5.68796">
        <ele>237</ele>
        <time>2010-05-07T13:03:36Z</time>
      </trkpt>
      <trkpt lat="47.02588" lon="5.68792">
        <ele>237</ele>
        <time>2010-05-07T13:03:38Z</time>
      </trkpt>
      <trkpt lat="47.02572" lon="5.68793">
        <ele>237</ele>
        <time>2010-05-07T13:03:40Z</time>
      </trkpt>
      <trkpt lat="47.02554" lon="5.68793">
        <ele>237</ele>
        <time>2010-05-07T13:03:42Z</time>
      </trkpt>
      <trkpt lat="47.02545" lon="5.68794">
        <ele>237</ele>
        <time>2010-05-07T13:03:43Z</time>
      </trkpt>
      <trkpt lat="47.02529" lon="5.68796">
        <ele>231</ele>
        <time>2010-05-07T13:03:45Z</time>
      </trkpt>
      <trkpt lat="47.02516" lon="5.68802">
        <ele>231</ele>
        <time>2010-05-07T13:03:47Z</time>
      </trkpt>
      <trkpt lat="47.02503" lon="5.6881">
        <ele>231</ele>
        <time>2010-05-07T13:03:49Z</time>
      </trkpt>
      <trkpt lat="47.02491" lon="5.6882">
        <ele>231</ele>
        <time>2010-05-07T13:03:51Z</time>
      </trkpt>
      <trkpt lat="47.02478" lon="5.68832">
        <ele>231</ele>
        <time>2010-05-07T13:03:53Z</time>
      </trkpt>
      <trkpt lat="47.02469" lon="5.6885">
        <ele>231</ele>
        <time>2010-05-07T13:03:55Z</time>
      </trkpt>
      <trkpt lat="47.02464" lon="5.68871">
        <ele>231</ele>
        <time>2010-05-07T13:03:57Z</time>
      </trkpt>
      <trkpt lat="47.02464" lon="5.68891">
        <ele>231</ele>
        <time>2010-05-07T13:03:59Z</time>
      </trkpt>
      <trkpt lat="47.02464" lon="5.68911">
        <ele>231</ele>
        <time>2010-05-07T13:04:01Z</time>
      </trkpt>
      <trkpt lat="47.02465" lon="5.68929">
        <ele>231</ele>
        <time>2010-05-07T13:04:03Z</time>
      </trkpt>
      <trkpt lat="47.02467" lon="5.68949">
        <ele>231</ele>
        <time>2010-05-07T13:04:05Z</time>
      </trkpt>
      <trkpt lat="47.02468" lon="5.68969">
        <ele>231</ele>
        <time>2010-05-07T13:04:07Z</time>
      </trkpt>
      <trkpt lat="47.0247" lon="5.68988">
        <ele>231</ele>
        <time>2010-05-07T13:04:09Z</time>
      </trkpt>
      <trkpt lat="47.02472" lon="5.69007">
        <ele>231</ele>
        <time>2010-05-07T13:04:11Z</time>
      </trkpt>
      <trkpt lat="47.02472" lon="5.69027">
        <ele>231</ele>
        <time>2010-05-07T13:04:13Z</time>
      </trkpt>
      <trkpt lat="47.02475" lon="5.69048">
        <ele>224</ele>
        <time>2010-05-07T13:04:15Z</time>
      </trkpt>
      <trkpt lat="47.02476" lon="5.69068">
        <ele>224</ele>
        <time>2010-05-07T13:04:17Z</time>
      </trkpt>
      <trkpt lat="47.02479" lon="5.69089">
        <ele>224</ele>
        <time>2010-05-07T13:04:19Z</time>
      </trkpt>
      <trkpt lat="47.02478" lon="5.69106">
        <ele>224</ele>
        <time>2010-05-07T13:04:21Z</time>
      </trkpt>
      <trkpt lat="47.02478" lon="5.69123">
        <ele>224</ele>
        <time>2010-05-07T13:04:23Z</time>
      </trkpt>
      <trkpt lat="47.02478" lon="5.69142">
        <ele>224</ele>
        <time>2010-05-07T13:04:25Z</time>
      </trkpt>
      <trkpt lat="47.02477" lon="5.69161">
        <ele>224</ele>
        <time>2010-05-07T13:04:27Z</time>
      </trkpt>
      <trkpt lat="47.02476" lon="5.6918">
        <ele>224</ele>
        <time>2010-05-07T13:04:29Z</time>
      </trkpt>
      <trkpt lat="47.02475" lon="5.69198">
        <ele>224</ele>
        <time>2010-05-07T13:04:31Z</time>
      </trkpt>
      <trkpt lat="47.02474" lon="5.69217">
        <ele>224</ele>
        <time>2010-05-07T13:04:33Z</time>
      </trkpt>
      <trkpt lat="47.02472" lon="5.69235">
        <ele>224</ele>
        <time>2010-05-07T13:04:35Z</time>
      </trkpt>
      <trkpt lat="47.0247" lon="5.69254">
        <ele>224</ele>
        <time>2010-05-07T13:04:37Z</time>
      </trkpt>
      <trkpt lat="47.02468" lon="5.69274">
        <ele>224</ele>
        <time>2010-05-07T13:04:39Z</time>
      </trkpt>
      <trkpt lat="47.02465" lon="5.69292">
        <ele>224</ele>
        <time>2010-05-07T13:04:41Z</time>
      </trkpt>
      <trkpt lat="47.02463" lon="5.69311">
        <ele>224</ele>
        <time>2010-05-07T13:04:43Z</time>
      </trkpt>
      <trkpt lat="47.02459" lon="5.6933">
        <ele>224</ele>
        <time>2010-05-07T13:04:45Z</time>
      </trkpt>
      <trkpt lat="47.02455" lon="5.69348">
        <ele>224</ele>
        <time>2010-05-07T13:04:47Z</time>
      </trkpt>
      <trkpt lat="47.02451" lon="5.69366">
        <ele>224</ele>
        <time>2010-05-07T13:04:49Z</time>
      </trkpt>
      <trkpt lat="47.02447" lon="5.69384">
        <ele>224</ele>
        <time>2010-05-07T13:04:51Z</time>
      </trkpt>
      <trkpt lat="47.02443" lon="5.69401">
        <ele>224</ele>
        <time>2010-05-07T13:04:53Z</time>
      </trkpt>
      <trkpt lat="47.02438" lon="5.69419">
        <ele>224</ele>
        <time>2010-05-07T13:04:55Z</time>
      </trkpt>
      <trkpt lat="47.02434" lon="5.69436">
        <ele>224</ele>
        <time>2010-05-07T13:04:57Z</time>
      </trkpt>
      <trkpt lat="47.02429" lon="5.69454">
        <ele>224</ele>
        <time>2010-05-07T13:04:59Z</time>
      </trkpt>
      <trkpt lat="47.02425" lon="5.69471">
        <ele>224</ele>
        <time>2010-05-07T13:05:01Z</time>
      </trkpt>
      <trkpt lat="47.0242" lon="5.69489">
        <ele>224</ele>
        <time>2010-05-07T13:05:03Z</time>
      </trkpt>
      <trkpt lat="47.02415" lon="5.69506">
        <ele>224</ele>
        <time>2010-05-07T13:05:05Z</time>
      </trkpt>
      <trkpt lat="47.02409" lon="5.69524">
        <ele>224</ele>
        <time>2010-05-07T13:05:07Z</time>
      </trkpt>
      <trkpt lat="47.02405" lon="5.6954">
        <ele>224</ele>
        <time>2010-05-07T13:05:09Z</time>
      </trkpt>
      <trkpt lat="47.024" lon="5.69558">
        <ele>224</ele>
        <time>2010-05-07T13:05:11Z</time>
      </trkpt>
      <trkpt lat="47.02393" lon="5.69574">
        <ele>224</ele>
        <time>2010-05-07T13:05:13Z</time>
      </trkpt>
      <trkpt lat="47.02387" lon="5.6959">
        <ele>224</ele>
        <time>2010-05-07T13:05:15Z</time>
      </trkpt>
      <trkpt lat="47.02381" lon="5.69607">
        <ele>224</ele>
        <time>2010-05-07T13:05:17Z</time>
      </trkpt>
      <trkpt lat="47.02376" lon="5.69624">
        <ele>224</ele>
        <time>2010-05-07T13:05:19Z</time>
      </trkpt>
      <trkpt lat="47.0237" lon="5.69641">
        <ele>224</ele>
        <time>2010-05-07T13:05:21Z</time>
      </trkpt>
      <trkpt lat="47.02365" lon="5.69659">
        <ele>224</ele>
        <time>2010-05-07T13:05:23Z</time>
      </trkpt>
      <trkpt lat="47.02362" lon="5.69677">
        <ele>224</ele>
        <time>2010-05-07T13:05:25Z</time>
      </trkpt>
      <trkpt lat="47.02358" lon="5.69696">
        <ele>224</ele>
        <time>2010-05-07T13:05:27Z</time>
      </trkpt>
      <trkpt lat="47.02356" lon="5.69714">
        <ele>224</ele>
        <time>2010-05-07T13:05:29Z</time>
      </trkpt>
      <trkpt lat="47.02354" lon="5.69732">
        <ele>224</ele>
        <time>2010-05-07T13:05:31Z</time>
      </trkpt>
      <trkpt lat="47.02352" lon="5.69751">
        <ele>224</ele>
        <time>2010-05-07T13:05:33Z</time>
      </trkpt>
      <trkpt lat="47.02351" lon="5.69769">
        <ele>224</ele>
        <time>2010-05-07T13:05:35Z</time>
      </trkpt>
      <trkpt lat="47.02349" lon="5.69788">
        <ele>224</ele>
        <time>2010-05-07T13:05:37Z</time>
      </trkpt>
      <trkpt lat="47.02349" lon="5.69807">
        <ele>224</ele>
        <time>2010-05-07T13:05:39Z</time>
      </trkpt>
      <trkpt lat="47.02347" lon="5.69824">
        <ele>224</ele>
        <time>2010-05-07T13:05:41Z</time>
      </trkpt>
      <trkpt lat="47.02346" lon="5.69843">
        <ele>224</ele>
        <time>2010-05-07T13:05:43Z</time>
      </trkpt>
      <trkpt lat="47.02344" lon="5.69861">
        <ele>224</ele>
        <time>2010-05-07T13:05:45Z</time>
      </trkpt>
      <trkpt lat="47.02343" lon="5.6988">
        <ele>224</ele>
        <time>2010-05-07T13:05:47Z</time>
      </trkpt>
      <trkpt lat="47.02341" lon="5.69898">
        <ele>224</ele>
        <time>2010-05-07T13:05:49Z</time>
      </trkpt>
      <trkpt lat="47.02339" lon="5.69916">
        <ele>224</ele>
        <time>2010-05-07T13:05:51Z</time>
      </trkpt>
      <trkpt lat="47.02336" lon="5.69934">
        <ele>224</ele>
        <time>2010-05-07T13:05:53Z</time>
      </trkpt>
      <trkpt lat="47.02333" lon="5.69952">
        <ele>224</ele>
        <time>2010-05-07T13:05:55Z</time>
      </trkpt>
      <trkpt lat="47.0233" lon="5.6997">
        <ele>224</ele>
        <time>2010-05-07T13:05:57Z</time>
      </trkpt>
      <trkpt lat="47.02325" lon="5.69987">
        <ele>224</ele>
        <time>2010-05-07T13:05:59Z</time>
      </trkpt>
      <trkpt lat="47.02321" lon="5.70004">
        <ele>224</ele>
        <time>2010-05-07T13:06:01Z</time>
      </trkpt>
      <trkpt lat="47.02317" lon="5.70022">
        <ele>224</ele>
        <time>2010-05-07T13:06:03Z</time>
      </trkpt>
      <trkpt lat="47.02314" lon="5.70039">
        <ele>224</ele>
        <time>2010-05-07T13:06:05Z</time>
      </trkpt>
      <trkpt lat="47.0231" lon="5.70057">
        <ele>224</ele>
        <time>2010-05-07T13:06:07Z</time>
      </trkpt>
      <trkpt lat="47.02305" lon="5.70074">
        <ele>224</ele>
        <time>2010-05-07T13:06:09Z</time>
      </trkpt>
      <trkpt lat="47.02301" lon="5.70091">
        <ele>224</ele>
        <time>2010-05-07T13:06:11Z</time>
      </trkpt>
      <trkpt lat="47.02297" lon="5.70109">
        <ele>224</ele>
        <time>2010-05-07T13:06:13Z</time>
      </trkpt>
      <trkpt lat="47.02293" lon="5.70127">
        <ele>224</ele>
        <time>2010-05-07T13:06:15Z</time>
      </trkpt>
      <trkpt lat="47.0229" lon="5.70145">
        <ele>224</ele>
        <time>2010-05-07T13:06:17Z</time>
      </trkpt>
      <trkpt lat="47.02285" lon="5.70162">
        <ele>224</ele>
        <time>2010-05-07T13:06:19Z</time>
      </trkpt>
      <trkpt lat="47.02282" lon="5.7018">
        <ele>224</ele>
        <time>2010-05-07T13:06:21Z</time>
      </trkpt>
      <trkpt lat="47.02278" lon="5.70198">
        <ele>224</ele>
        <time>2010-05-07T13:06:23Z</time>
      </trkpt>
      <trkpt lat="47.02274" lon="5.70215">
        <ele>224</ele>
        <time>2010-05-07T13:06:25Z</time>
      </trkpt>
      <trkpt lat="47.02271" lon="5.70232">
        <ele>224</ele>
        <time>2010-05-07T13:06:27Z</time>
      </trkpt>
      <trkpt lat="47.02268" lon="5.70249">
        <ele>224</ele>
        <time>2010-05-07T13:06:29Z</time>
      </trkpt>
      <trkpt lat="47.02264" lon="5.70266">
        <ele>224</ele>
        <time>2010-05-07T13:06:31Z</time>
      </trkpt>
      <trkpt lat="47.02262" lon="5.70283">
        <ele>224</ele>
        <time>2010-05-07T13:06:33Z</time>
      </trkpt>
      <trkpt lat="47.0226" lon="5.703">
        <ele>224</ele>
        <time>2010-05-07T13:06:35Z</time>
      </trkpt>
      <trkpt lat="47.02257" lon="5.70317">
        <ele>224</ele>
        <time>2010-05-07T13:06:37Z</time>
      </trkpt>
      <trkpt lat="47.02255" lon="5.70335">
        <ele>224</ele>
        <time>2010-05-07T13:06:39Z</time>
      </trkpt>
      <trkpt lat="47.02253" lon="5.70353">
        <ele>224</ele>
        <time>2010-05-07T13:06:41Z</time>
      </trkpt>
      <trkpt lat="47.02253" lon="5.70372">
        <ele>224</ele>
        <time>2010-05-07T13:06:43Z</time>
      </trkpt>
      <trkpt lat="47.02252" lon="5.70391">
        <ele>224</ele>
        <time>2010-05-07T13:06:45Z</time>
      </trkpt>
      <trkpt lat="47.02252" lon="5.7041">
        <ele>224</ele>
        <time>2010-05-07T13:06:47Z</time>
      </trkpt>
      <trkpt lat="47.02251" lon="5.70428">
        <ele>224</ele>
        <time>2010-05-07T13:06:49Z</time>
      </trkpt>
      <trkpt lat="47.02252" lon="5.70447">
        <ele>224</ele>
        <time>2010-05-07T13:06:51Z</time>
      </trkpt>
      <trkpt lat="47.02251" lon="5.70465">
        <ele>224</ele>
        <time>2010-05-07T13:06:53Z</time>
      </trkpt>
      <trkpt lat="47.02251" lon="5.70482">
        <ele>224</ele>
        <time>2010-05-07T13:06:55Z</time>
      </trkpt>
      <trkpt lat="47.02252" lon="5.70501">
        <ele>224</ele>
        <time>2010-05-07T13:06:57Z</time>
      </trkpt>
      <trkpt lat="47.02252" lon="5.70519">
        <ele>224</ele>
        <time>2010-05-07T13:06:59Z</time>
      </trkpt>
      <trkpt lat="47.02252" lon="5.70537">
        <ele>224</ele>
        <time>2010-05-07T13:07:01Z</time>
      </trkpt>
      <trkpt lat="47.02253" lon="5.70556">
        <ele>224</ele>
        <time>2010-05-07T13:07:03Z</time>
      </trkpt>
      <trkpt lat="47.02254" lon="5.70576">
        <ele>224</ele>
        <time>2010-05-07T13:07:05Z</time>
      </trkpt>
      <trkpt lat="47.02253" lon="5.70596">
        <ele>224</ele>
        <time>2010-05-07T13:07:07Z</time>
      </trkpt>
      <trkpt lat="47.02254" lon="5.70615">
        <ele>224</ele>
        <time>2010-05-07T13:07:09Z</time>
      </trkpt>
      <trkpt lat="47.02254" lon="5.70636">
        <ele>224</ele>
        <time>2010-05-07T13:07:11Z</time>
      </trkpt>
      <trkpt lat="47.02253" lon="5.70655">
        <ele>224</ele>
        <time>2010-05-07T13:07:13Z</time>
      </trkpt>
      <trkpt lat="47.0225" lon="5.70674">
        <ele>224</ele>
        <time>2010-05-07T13:07:15Z</time>
      </trkpt>
      <trkpt lat="47.02247" lon="5.70692">
        <ele>224</ele>
        <time>2010-05-07T13:07:17Z</time>
      </trkpt>
      <trkpt lat="47.02244" lon="5.70709">
        <ele>224</ele>
        <time>2010-05-07T13:07:19Z</time>
      </trkpt>
      <trkpt lat="47.02242" lon="5.70728">
        <ele>224</ele>
        <time>2010-05-07T13:07:21Z</time>
      </trkpt>
      <trkpt lat="47.02239" lon="5.70746">
        <ele>224</ele>
        <time>2010-05-07T13:07:23Z</time>
      </trkpt>
      <trkpt lat="47.02237" lon="5.70764">
        <ele>224</ele>
        <time>2010-05-07T13:07:25Z</time>
      </trkpt>
      <trkpt lat="47.02234" lon="5.70782">
        <ele>224</ele>
        <time>2010-05-07T13:07:27Z</time>
      </trkpt>
      <trkpt lat="47.02233" lon="5.70802">
        <ele>224</ele>
        <time>2010-05-07T13:07:29Z</time>
      </trkpt>
      <trkpt lat="47.02231" lon="5.70821">
        <ele>224</ele>
        <time>2010-05-07T13:07:31Z</time>
      </trkpt>
      <trkpt lat="47.02231" lon="5.70841">
        <ele>224</ele>
        <time>2010-05-07T13:07:33Z</time>
      </trkpt>
      <trkpt lat="47.0223" lon="5.70861">
        <ele>224</ele>
        <time>2010-05-07T13:07:35Z</time>
      </trkpt>
      <trkpt lat="47.02228" lon="5.7088">
        <ele>224</ele>
        <time>2010-05-07T13:07:37Z</time>
      </trkpt>
      <trkpt lat="47.02225" lon="5.709">
        <ele>224</ele>
        <time>2010-05-07T13:07:39Z</time>
      </trkpt>
      <trkpt lat="47.02219" lon="5.70919">
        <ele>224</ele>
        <time>2010-05-07T13:07:41Z</time>
      </trkpt>
      <trkpt lat="47.02212" lon="5.70936">
        <ele>224</ele>
        <time>2010-05-07T13:07:43Z</time>
      </trkpt>
      <trkpt lat="47.02202" lon="5.7095">
        <ele>224</ele>
        <time>2010-05-07T13:07:45Z</time>
      </trkpt>
      <trkpt lat="47.02193" lon="5.70964">
        <ele>224</ele>
        <time>2010-05-07T13:07:47Z</time>
      </trkpt>
      <trkpt lat="47.02185" lon="5.70979">
        <ele>224</ele>
        <time>2010-05-07T13:07:49Z</time>
      </trkpt>
      <trkpt lat="47.02176" lon="5.70993">
        <ele>224</ele>
        <time>2010-05-07T13:07:51Z</time>
      </trkpt>
      <trkpt lat="47.02167" lon="5.71007">
        <ele>224</ele>
        <time>2010-05-07T13:07:53Z</time>
      </trkpt>
      <trkpt lat="47.02158" lon="5.7102">
        <ele>224</ele>
        <time>2010-05-07T13:07:55Z</time>
      </trkpt>
      <trkpt lat="47.0215" lon="5.71035">
        <ele>224</ele>
        <time>2010-05-07T13:07:57Z</time>
      </trkpt>
      <trkpt lat="47.02143" lon="5.71049">
        <ele>224</ele>
        <time>2010-05-07T13:07:59Z</time>
      </trkpt>
      <trkpt lat="47.02135" lon="5.71064">
        <ele>224</ele>
        <time>2010-05-07T13:08:01Z</time>
      </trkpt>
      <trkpt lat="47.02129" lon="5.71081">
        <ele>224</ele>
        <time>2010-05-07T13:08:03Z</time>
      </trkpt>
      <trkpt lat="47.02126" lon="5.711">
        <ele>224</ele>
        <time>2010-05-07T13:08:05Z</time>
      </trkpt>
      <trkpt lat="47.02125" lon="5.71119">
        <ele>224</ele>
        <time>2010-05-07T13:08:07Z</time>
      </trkpt>
      <trkpt lat="47.02125" lon="5.71139">
        <ele>224</ele>
        <time>2010-05-07T13:08:09Z</time>
      </trkpt>
      <trkpt lat="47.02126" lon="5.71159">
        <ele>224</ele>
        <time>2010-05-07T13:08:11Z</time>
      </trkpt>
      <trkpt lat="47.02126" lon="5.71179">
        <ele>224</ele>
        <time>2010-05-07T13:08:13Z</time>
      </trkpt>
      <trkpt lat="47.02126" lon="5.71198">
        <ele>224</ele>
        <time>2010-05-07T13:08:15Z</time>
      </trkpt>
      <trkpt lat="47.02126" lon="5.71218">
        <ele>224</ele>
        <time>2010-05-07T13:08:17Z</time>
      </trkpt>
      <trkpt lat="47.02126" lon="5.71238">
        <ele>224</ele>
        <time>2010-05-07T13:08:19Z</time>
      </trkpt>
      <trkpt lat="47.02127" lon="5.71258">
        <ele>224</ele>
        <time>2010-05-07T13:08:21Z</time>
      </trkpt>
      <trkpt lat="47.02127" lon="5.71278">
        <ele>224</ele>
        <time>2010-05-07T13:08:23Z</time>
      </trkpt>
      <trkpt lat="47.0213" lon="5.71298">
        <ele>224</ele>
        <time>2010-05-07T13:08:25Z</time>
      </trkpt>
      <trkpt lat="47.02133" lon="5.71318">
        <ele>224</ele>
        <time>2010-05-07T13:08:27Z</time>
      </trkpt>
      <trkpt lat="47.02139" lon="5.71336">
        <ele>224</ele>
        <time>2010-05-07T13:08:29Z</time>
      </trkpt>
      <trkpt lat="47.02145" lon="5.71354">
        <ele>224</ele>
        <time>2010-05-07T13:08:31Z</time>
      </trkpt>
      <trkpt lat="47.02153" lon="5.7137">
        <ele>224</ele>
        <time>2010-05-07T13:08:33Z</time>
      </trkpt>
      <trkpt lat="47.0216" lon="5.71386">
        <ele>224</ele>
        <time>2010-05-07T13:08:35Z</time>
      </trkpt>
      <trkpt lat="47.02167" lon="5.71403">
        <ele>224</ele>
        <time>2010-05-07T13:08:37Z</time>
      </trkpt>
      <trkpt lat="47.02175" lon="5.7142">
        <ele>224</ele>
        <time>2010-05-07T13:08:39Z</time>
      </trkpt>
      <trkpt lat="47.02182" lon="5.71436">
        <ele>224</ele>
        <time>2010-05-07T13:08:41Z</time>
      </trkpt>
      <trkpt lat="47.02186" lon="5.71454">
        <ele>224</ele>
        <time>2010-05-07T13:08:43Z</time>
      </trkpt>
      <trkpt lat="47.02187" lon="5.71472">
        <ele>224</ele>
        <time>2010-05-07T13:08:45Z</time>
      </trkpt>
      <trkpt lat="47.02188" lon="5.71493">
        <ele>224</ele>
        <time>2010-05-07T13:08:47Z</time>
      </trkpt>
      <trkpt lat="47.02186" lon="5.71512">
        <ele>224</ele>
        <time>2010-05-07T13:08:49Z</time>
      </trkpt>
      <trkpt lat="47.02179" lon="5.71527">
        <ele>230</ele>
        <time>2010-05-07T13:08:51Z</time>
      </trkpt>
      <trkpt lat="47.02176" lon="5.71545">
        <ele>230</ele>
        <time>2010-05-07T13:08:53Z</time>
      </trkpt>
      <trkpt lat="47.02173" lon="5.71564">
        <ele>230</ele>
        <time>2010-05-07T13:08:55Z</time>
      </trkpt>
      <trkpt lat="47.02169" lon="5.71583">
        <ele>230</ele>
        <time>2010-05-07T13:08:57Z</time>
      </trkpt>
      <trkpt lat="47.02166" lon="5.71601">
        <ele>230</ele>
        <time>2010-05-07T13:08:59Z</time>
      </trkpt>
      <trkpt lat="47.02163" lon="5.7162">
        <ele>230</ele>
        <time>2010-05-07T13:09:01Z</time>
      </trkpt>
      <trkpt lat="47.02159" lon="5.71638">
        <ele>230</ele>
        <time>2010-05-07T13:09:03Z</time>
      </trkpt>
      <trkpt lat="47.02156" lon="5.71656">
        <ele>230</ele>
        <time>2010-05-07T13:09:05Z</time>
      </trkpt>
      <trkpt lat="47.02155" lon="5.71675">
        <ele>230</ele>
        <time>2010-05-07T13:09:07Z</time>
      </trkpt>
      <trkpt lat="47.02153" lon="5.71693">
        <ele>230</ele>
        <time>2010-05-07T13:09:09Z</time>
      </trkpt>
      <trkpt lat="47.0215" lon="5.71709">
        <ele>230</ele>
        <time>2010-05-07T13:09:11Z</time>
      </trkpt>
      <trkpt lat="47.02145" lon="5.71726">
        <ele>230</ele>
        <time>2010-05-07T13:09:13Z</time>
      </trkpt>
      <trkpt lat="47.02135" lon="5.71737">
        <ele>230</ele>
        <time>2010-05-07T13:09:15Z</time>
      </trkpt>
      <trkpt lat="47.02124" lon="5.71743">
        <ele>230</ele>
        <time>2010-05-07T13:09:17Z</time>
      </trkpt>
      <trkpt lat="47.02111" lon="5.71744">
        <ele>230</ele>
        <time>2010-05-07T13:09:19Z</time>
      </trkpt>
      <trkpt lat="47.02099" lon="5.71744">
        <ele>230</ele>
        <time>2010-05-07T13:09:21Z</time>
      </trkpt>
      <trkpt lat="47.02086" lon="5.71746">
        <ele>230</ele>
        <time>2010-05-07T13:09:23Z</time>
      </trkpt>
      <trkpt lat="47.02075" lon="5.71752">
        <ele>225</ele>
        <time>2010-05-07T13:09:25Z</time>
      </trkpt>
      <trkpt lat="47.02067" lon="5.71761">
        <ele>225</ele>
        <time>2010-05-07T13:09:27Z</time>
      </trkpt>
      <trkpt lat="47.02067" lon="5.71774">
        <ele>225</ele>
        <time>2010-05-07T13:09:29Z</time>
      </trkpt>
      <trkpt lat="47.02069" lon="5.71789">
        <ele>225</ele>
        <time>2010-05-07T13:09:31Z</time>
      </trkpt>
      <trkpt lat="47.02072" lon="5.71806">
        <ele>225</ele>
        <time>2010-05-07T13:09:33Z</time>
      </trkpt>
      <trkpt lat="47.02077" lon="5.71824">
        <ele>225</ele>
        <time>2010-05-07T13:09:35Z</time>
      </trkpt>
      <trkpt lat="47.02081" lon="5.71841">
        <ele>225</ele>
        <time>2010-05-07T13:09:37Z</time>
      </trkpt>
      <trkpt lat="47.02088" lon="5.71859">
        <ele>225</ele>
        <time>2010-05-07T13:09:39Z</time>
      </trkpt>
      <trkpt lat="47.02093" lon="5.71877">
        <ele>225</ele>
        <time>2010-05-07T13:09:41Z</time>
      </trkpt>
      <trkpt lat="47.02099" lon="5.71895">
        <ele>225</ele>
        <time>2010-05-07T13:09:43Z</time>
      </trkpt>
      <trkpt lat="47.02105" lon="5.71913">
        <ele>225</ele>
        <time>2010-05-07T13:09:45Z</time>
      </trkpt>
      <trkpt lat="47.0211" lon="5.71929">
        <ele>225</ele>
        <time>2010-05-07T13:09:47Z</time>
      </trkpt>
      <trkpt lat="47.02115" lon="5.71946">
        <ele>225</ele>
        <time>2010-05-07T13:09:49Z</time>
      </trkpt>
      <trkpt lat="47.0212" lon="5.71962">
        <ele>225</ele>
        <time>2010-05-07T13:09:51Z</time>
      </trkpt>
      <trkpt lat="47.02124" lon="5.71979">
        <ele>225</ele>
        <time>2010-05-07T13:09:53Z</time>
      </trkpt>
      <trkpt lat="47.02131" lon="5.71997">
        <ele>225</ele>
        <time>2010-05-07T13:09:55Z</time>
      </trkpt>
      <trkpt lat="47.02138" lon="5.72014">
        <ele>225</ele>
        <time>2010-05-07T13:09:57Z</time>
      </trkpt>
      <trkpt lat="47.02143" lon="5.7203">
        <ele>225</ele>
        <time>2010-05-07T13:09:59Z</time>
      </trkpt>
      <trkpt lat="47.02147" lon="5.72046">
        <ele>225</ele>
        <time>2010-05-07T13:10:01Z</time>
      </trkpt>
      <trkpt lat="47.02152" lon="5.72062">
        <ele>225</ele>
        <time>2010-05-07T13:10:03Z</time>
      </trkpt>
      <trkpt lat="47.02156" lon="5.72081">
        <ele>225</ele>
        <time>2010-05-07T13:10:05Z</time>
      </trkpt>
      <trkpt lat="47.02158" lon="5.721">
        <ele>225</ele>
        <time>2010-05-07T13:10:07Z</time>
      </trkpt>
      <trkpt lat="47.0216" lon="5.72119">
        <ele>225</ele>
        <time>2010-05-07T13:10:09Z</time>
      </trkpt>
      <trkpt lat="47.02162" lon="5.72138">
        <ele>225</ele>
        <time>2010-05-07T13:10:11Z</time>
      </trkpt>
      <trkpt lat="47.02165" lon="5.72157">
        <ele>225</ele>
        <time>2010-05-07T13:10:13Z</time>
      </trkpt>
      <trkpt lat="47.02166" lon="5.72174">
        <ele>225</ele>
        <time>2010-05-07T13:10:15Z</time>
      </trkpt>
      <trkpt lat="47.0217" lon="5.72191">
        <ele>225</ele>
        <time>2010-05-07T13:10:17Z</time>
      </trkpt>
      <trkpt lat="47.02176" lon="5.72209">
        <ele>225</ele>
        <time>2010-05-07T13:10:19Z</time>
      </trkpt>
      <trkpt lat="47.02183" lon="5.72227">
        <ele>225</ele>
        <time>2010-05-07T13:10:21Z</time>
      </trkpt>
      <trkpt lat="47.0219" lon="5.72243">
        <ele>225</ele>
        <time>2010-05-07T13:10:23Z</time>
      </trkpt>
      <trkpt lat="47.02197" lon="5.72262">
        <ele>225</ele>
        <time>2010-05-07T13:10:25Z</time>
      </trkpt>
      <trkpt lat="47.02204" lon="5.72278">
        <ele>225</ele>
        <time>2010-05-07T13:10:27Z</time>
      </trkpt>
      <trkpt lat="47.02211" lon="5.72296">
        <ele>225</ele>
        <time>2010-05-07T13:10:29Z</time>
      </trkpt>
      <trkpt lat="47.02219" lon="5.72314">
        <ele>225</ele>
        <time>2010-05-07T13:10:31Z</time>
      </trkpt>
      <trkpt lat="47.02227" lon="5.72332">
        <ele>225</ele>
        <time>2010-05-07T13:10:33Z</time>
      </trkpt>
      <trkpt lat="47.02234" lon="5.72349">
        <ele>225</ele>
        <time>2010-05-07T13:10:35Z</time>
      </trkpt>
      <trkpt lat="47.02241" lon="5.72365">
        <ele>225</ele>
        <time>2010-05-07T13:10:37Z</time>
      </trkpt>
      <trkpt lat="47.02249" lon="5.72381">
        <ele>225</ele>
        <time>2010-05-07T13:10:39Z</time>
      </trkpt>
      <trkpt lat="47.02255" lon="5.72398">
        <ele>225</ele>
        <time>2010-05-07T13:10:41Z</time>
      </trkpt>
      <trkpt lat="47.02263" lon="5.72415">
        <ele>225</ele>
        <time>2010-05-07T13:10:43Z</time>
      </trkpt>
      <trkpt lat="47.02269" lon="5.72431">
        <ele>225</ele>
        <time>2010-05-07T13:10:45Z</time>
      </trkpt>
      <trkpt lat="47.02275" lon="5.72447">
        <ele>225</ele>
        <time>2010-05-07T13:10:47Z</time>
      </trkpt>
      <trkpt lat="47.02282" lon="5.72463">
        <ele>225</ele>
        <time>2010-05-07T13:10:49Z</time>
      </trkpt>
      <trkpt lat="47.0229" lon="5.72477">
        <ele>225</ele>
        <time>2010-05-07T13:10:51Z</time>
      </trkpt>
      <trkpt lat="47.02299" lon="5.72493">
        <ele>225</ele>
        <time>2010-05-07T13:10:53Z</time>
      </trkpt>
      <trkpt lat="47.02306" lon="5.72509">
        <ele>225</ele>
        <time>2010-05-07T13:10:55Z</time>
      </trkpt>
      <trkpt lat="47.02312" lon="5.72523">
        <ele>225</ele>
        <time>2010-05-07T13:10:57Z</time>
      </trkpt>
      <trkpt lat="47.02319" lon="5.72538">
        <ele>225</ele>
        <time>2010-05-07T13:10:59Z</time>
      </trkpt>
      <trkpt lat="47.02327" lon="5.72553">
        <ele>225</ele>
        <time>2010-05-07T13:11:01Z</time>
      </trkpt>
      <trkpt lat="47.02333" lon="5.72567">
        <ele>225</ele>
        <time>2010-05-07T13:11:03Z</time>
      </trkpt>
      <trkpt lat="47.0234" lon="5.72582">
        <ele>225</ele>
        <time>2010-05-07T13:11:05Z</time>
      </trkpt>
      <trkpt lat="47.02347" lon="5.72596">
        <ele>225</ele>
        <time>2010-05-07T13:11:07Z</time>
      </trkpt>
      <trkpt lat="47.02354" lon="5.7261">
        <ele>225</ele>
        <time>2010-05-07T13:11:09Z</time>
      </trkpt>
      <trkpt lat="47.02362" lon="5.72625">
        <ele>225</ele>
        <time>2010-05-07T13:11:11Z</time>
      </trkpt>
      <trkpt lat="47.02368" lon="5.72639">
        <ele>225</ele>
        <time>2010-05-07T13:11:13Z</time>
      </trkpt>
      <trkpt lat="47.02375" lon="5.72654">
        <ele>225</ele>
        <time>2010-05-07T13:11:15Z</time>
      </trkpt>
      <trkpt lat="47.02382" lon="5.72669">
        <ele>225</ele>
        <time>2010-05-07T13:11:17Z</time>
      </trkpt>
      <trkpt lat="47.02387" lon="5.72685">
        <ele>225</ele>
        <time>2010-05-07T13:11:19Z</time>
      </trkpt>
      <trkpt lat="47.02393" lon="5.727">
        <ele>225</ele>
        <time>2010-05-07T13:11:21Z</time>
      </trkpt>
      <trkpt lat="47.02398" lon="5.72716">
        <ele>225</ele>
        <time>2010-05-07T13:11:23Z</time>
      </trkpt>
      <trkpt lat="47.02403" lon="5.72734">
        <ele>225</ele>
        <time>2010-05-07T13:11:25Z</time>
      </trkpt>
      <trkpt lat="47.02408" lon="5.72751">
        <ele>225</ele>
        <time>2010-05-07T13:11:27Z</time>
      </trkpt>
      <trkpt lat="47.02412" lon="5.72767">
        <ele>225</ele>
        <time>2010-05-07T13:11:29Z</time>
      </trkpt>
      <trkpt lat="47.02417" lon="5.72783">
        <ele>225</ele>
        <time>2010-05-07T13:11:31Z</time>
      </trkpt>
      <trkpt lat="47.02421" lon="5.72799">
        <ele>225</ele>
        <time>2010-05-07T13:11:33Z</time>
      </trkpt>
      <trkpt lat="47.02425" lon="5.72816">
        <ele>225</ele>
        <time>2010-05-07T13:11:35Z</time>
      </trkpt>
      <trkpt lat="47.02432" lon="5.72832">
        <ele>225</ele>
        <time>2010-05-07T13:11:37Z</time>
      </trkpt>
      <trkpt lat="47.02438" lon="5.72849">
        <ele>225</ele>
        <time>2010-05-07T13:11:39Z</time>
      </trkpt>
      <trkpt lat="47.02444" lon="5.72864">
        <ele>225</ele>
        <time>2010-05-07T13:11:41Z</time>
      </trkpt>
      <trkpt lat="47.02451" lon="5.72878">
        <ele>225</ele>
        <time>2010-05-07T13:11:43Z</time>
      </trkpt>
      <trkpt lat="47.02459" lon="5.72893">
        <ele>225</ele>
        <time>2010-05-07T13:11:45Z</time>
      </trkpt>
      <trkpt lat="47.02466" lon="5.72906">
        <ele>225</ele>
        <time>2010-05-07T13:11:47Z</time>
      </trkpt>
      <trkpt lat="47.02475" lon="5.72922">
        <ele>225</ele>
        <time>2010-05-07T13:11:49Z</time>
      </trkpt>
      <trkpt lat="47.02483" lon="5.72937">
        <ele>225</ele>
        <time>2010-05-07T13:11:51Z</time>
      </trkpt>
      <trkpt lat="47.02491" lon="5.72951">
        <ele>225</ele>
        <time>2010-05-07T13:11:53Z</time>
      </trkpt>
      <trkpt lat="47.02499" lon="5.72966">
        <ele>225</ele>
        <time>2010-05-07T13:11:55Z</time>
      </trkpt>
      <trkpt lat="47.02506" lon="5.72981">
        <ele>225</ele>
        <time>2010-05-07T13:11:57Z</time>
      </trkpt>
      <trkpt lat="47.02513" lon="5.72996">
        <ele>225</ele>
        <time>2010-05-07T13:11:59Z</time>
      </trkpt>
      <trkpt lat="47.02521" lon="5.73012">
        <ele>225</ele>
        <time>2010-05-07T13:12:01Z</time>
      </trkpt>
      <trkpt lat="47.02527" lon="5.73028">
        <ele>225</ele>
        <time>2010-05-07T13:12:03Z</time>
      </trkpt>
      <trkpt lat="47.02533" lon="5.73043">
        <ele>225</ele>
        <time>2010-05-07T13:12:05Z</time>
      </trkpt>
      <trkpt lat="47.02538" lon="5.7306">
        <ele>225</ele>
        <time>2010-05-07T13:12:07Z</time>
      </trkpt>
      <trkpt lat="47.02545" lon="5.73075">
        <ele>225</ele>
        <time>2010-05-07T13:12:09Z</time>
      </trkpt>
      <trkpt lat="47.02551" lon="5.73091">
        <ele>225</ele>
        <time>2010-05-07T13:12:11Z</time>
      </trkpt>
      <trkpt lat="47.02556" lon="5.73108">
        <ele>225</ele>
        <time>2010-05-07T13:12:13Z</time>
      </trkpt>
      <trkpt lat="47.02562" lon="5.73124">
        <ele>225</ele>
        <time>2010-05-07T13:12:15Z</time>
      </trkpt>
      <trkpt lat="47.02567" lon="5.7314">
        <ele>225</ele>
        <time>2010-05-07T13:12:17Z</time>
      </trkpt>
      <trkpt lat="47.02572" lon="5.73158">
        <ele>225</ele>
        <time>2010-05-07T13:12:19Z</time>
      </trkpt>
      <trkpt lat="47.02577" lon="5.73174">
        <ele>225</ele>
        <time>2010-05-07T13:12:21Z</time>
      </trkpt>
      <trkpt lat="47.02582" lon="5.73191">
        <ele>225</ele>
        <time>2010-05-07T13:12:23Z</time>
      </trkpt>
      <trkpt lat="47.02588" lon="5.7321">
        <ele>225</ele>
        <time>2010-05-07T13:12:25Z</time>
      </trkpt>
      <trkpt lat="47.02592" lon="5.73227">
        <ele>225</ele>
        <time>2010-05-07T13:12:27Z</time>
      </trkpt>
      <trkpt lat="47.02596" lon="5.73245">
        <ele>225</ele>
        <time>2010-05-07T13:12:29Z</time>
      </trkpt>
      <trkpt lat="47.02599" lon="5.73263">
        <ele>225</ele>
        <time>2010-05-07T13:12:31Z</time>
      </trkpt>
      <trkpt lat="47.02604" lon="5.73281">
        <ele>225</ele>
        <time>2010-05-07T13:12:33Z</time>
      </trkpt>
      <trkpt lat="47.02608" lon="5.73299">
        <ele>225</ele>
        <time>2010-05-07T13:12:35Z</time>
      </trkpt>
      <trkpt lat="47.02612" lon="5.73316">
        <ele>225</ele>
        <time>2010-05-07T13:12:37Z</time>
      </trkpt>
      <trkpt lat="47.02616" lon="5.73334">
        <ele>225</ele>
        <time>2010-05-07T13:12:39Z</time>
      </trkpt>
      <trkpt lat="47.0262" lon="5.73352">
        <ele>225</ele>
        <time>2010-05-07T13:12:41Z</time>
      </trkpt>
      <trkpt lat="47.02623" lon="5.7337">
        <ele>225</ele>
        <time>2010-05-07T13:12:43Z</time>
      </trkpt>
      <trkpt lat="47.02627" lon="5.73388">
        <ele>225</ele>
        <time>2010-05-07T13:12:45Z</time>
      </trkpt>
      <trkpt lat="47.0263" lon="5.73405">
        <ele>225</ele>
        <time>2010-05-07T13:12:47Z</time>
      </trkpt>
      <trkpt lat="47.02634" lon="5.73424">
        <ele>225</ele>
        <time>2010-05-07T13:12:49Z</time>
      </trkpt>
      <trkpt lat="47.02639" lon="5.73443">
        <ele>225</ele>
        <time>2010-05-07T13:12:51Z</time>
      </trkpt>
      <trkpt lat="47.02644" lon="5.73462">
        <ele>225</ele>
        <time>2010-05-07T13:12:53Z</time>
      </trkpt>
      <trkpt lat="47.02648" lon="5.7348">
        <ele>225</ele>
        <time>2010-05-07T13:12:55Z</time>
      </trkpt>
      <trkpt lat="47.02651" lon="5.73499">
        <ele>225</ele>
        <time>2010-05-07T13:12:57Z</time>
      </trkpt>
      <trkpt lat="47.02655" lon="5.73517">
        <ele>225</ele>
        <time>2010-05-07T13:12:59Z</time>
      </trkpt>
      <trkpt lat="47.02658" lon="5.73536">
        <ele>225</ele>
        <time>2010-05-07T13:13:01Z</time>
      </trkpt>
      <trkpt lat="47.02661" lon="5.73554">
        <ele>225</ele>
        <time>2010-05-07T13:13:03Z</time>
      </trkpt>
      <trkpt lat="47.02664" lon="5.73573">
        <ele>225</ele>
        <time>2010-05-07T13:13:05Z</time>
      </trkpt>
      <trkpt lat="47.02667" lon="5.73592">
        <ele>225</ele>
        <time>2010-05-07T13:13:07Z</time>
      </trkpt>
      <trkpt lat="47.02669" lon="5.73611">
        <ele>225</ele>
        <time>2010-05-07T13:13:09Z</time>
      </trkpt>
      <trkpt lat="47.02673" lon="5.73631">
        <ele>225</ele>
        <time>2010-05-07T13:13:11Z</time>
      </trkpt>
      <trkpt lat="47.02675" lon="5.7365">
        <ele>225</ele>
        <time>2010-05-07T13:13:13Z</time>
      </trkpt>
      <trkpt lat="47.02678" lon="5.73669">
        <ele>225</ele>
        <time>2010-05-07T13:13:15Z</time>
      </trkpt>
      <trkpt lat="47.0268" lon="5.73688">
        <ele>225</ele>
        <time>2010-05-07T13:13:17Z</time>
      </trkpt>
      <trkpt lat="47.02683" lon="5.73707">
        <ele>225</ele>
        <time>2010-05-07T13:13:19Z</time>
      </trkpt>
      <trkpt lat="47.02685" lon="5.73726">
        <ele>225</ele>
        <time>2010-05-07T13:13:21Z</time>
      </trkpt>
      <trkpt lat="47.02688" lon="5.73746">
        <ele>225</ele>
        <time>2010-05-07T13:13:23Z</time>
      </trkpt>
      <trkpt lat="47.0269" lon="5.73765">
        <ele>225</ele>
        <time>2010-05-07T13:13:25Z</time>
      </trkpt>
      <trkpt lat="47.02693" lon="5.73785">
        <ele>225</ele>
        <time>2010-05-07T13:13:27Z</time>
      </trkpt>
      <trkpt lat="47.02695" lon="5.73804">
        <ele>225</ele>
        <time>2010-05-07T13:13:29Z</time>
      </trkpt>
      <trkpt lat="47.02698" lon="5.73823">
        <ele>225</ele>
        <time>2010-05-07T13:13:31Z</time>
      </trkpt>
      <trkpt lat="47.02701" lon="5.73841">
        <ele>225</ele>
        <time>2010-05-07T13:13:33Z</time>
      </trkpt>
      <trkpt lat="47.02705" lon="5.7386">
        <ele>225</ele>
        <time>2010-05-07T13:13:35Z</time>
      </trkpt>
      <trkpt lat="47.0271" lon="5.73878">
        <ele>225</ele>
        <time>2010-05-07T13:13:37Z</time>
      </trkpt>
      <trkpt lat="47.02716" lon="5.73896">
        <ele>225</ele>
        <time>2010-05-07T13:13:39Z</time>
      </trkpt>
      <trkpt lat="47.02723" lon="5.73913">
        <ele>231</ele>
        <time>2010-05-07T13:13:41Z</time>
      </trkpt>
      <trkpt lat="47.0273" lon="5.7393">
        <ele>231</ele>
        <time>2010-05-07T13:13:43Z</time>
      </trkpt>
      <trkpt lat="47.02736" lon="5.73947">
        <ele>231</ele>
        <time>2010-05-07T13:13:45Z</time>
      </trkpt>
      <trkpt lat="47.02742" lon="5.73965">
        <ele>231</ele>
        <time>2010-05-07T13:13:47Z</time>
      </trkpt>
      <trkpt lat="47.02748" lon="5.73984">
        <ele>231</ele>
        <time>2010-05-07T13:13:49Z</time>
      </trkpt>
      <trkpt lat="47.02752" lon="5.74003">
        <ele>231</ele>
        <time>2010-05-07T13:13:51Z</time>
      </trkpt>
      <trkpt lat="47.02755" lon="5.74023">
        <ele>231</ele>
        <time>2010-05-07T13:13:53Z</time>
      </trkpt>
      <trkpt lat="47.02758" lon="5.74041">
        <ele>231</ele>
        <time>2010-05-07T13:13:55Z</time>
      </trkpt>
      <trkpt lat="47.02758" lon="5.74061">
        <ele>231</ele>
        <time>2010-05-07T13:13:57Z</time>
      </trkpt>
      <trkpt lat="47.0276" lon="5.74081">
        <ele>231</ele>
        <time>2010-05-07T13:13:59Z</time>
      </trkpt>
      <trkpt lat="47.0276" lon="5.74101">
        <ele>231</ele>
        <time>2010-05-07T13:14:01Z</time>
      </trkpt>
      <trkpt lat="47.02761" lon="5.74121">
        <ele>231</ele>
        <time>2010-05-07T13:14:03Z</time>
      </trkpt>
      <trkpt lat="47.02763" lon="5.74141">
        <ele>231</ele>
        <time>2010-05-07T13:14:05Z</time>
      </trkpt>
      <trkpt lat="47.02763" lon="5.74161">
        <ele>231</ele>
        <time>2010-05-07T13:14:07Z</time>
      </trkpt>
      <trkpt lat="47.02763" lon="5.74182">
        <ele>231</ele>
        <time>2010-05-07T13:14:09Z</time>
      </trkpt>
      <trkpt lat="47.02763" lon="5.74201">
        <ele>231</ele>
        <time>2010-05-07T13:14:11Z</time>
      </trkpt>
      <trkpt lat="47.02763" lon="5.74221">
        <ele>231</ele>
        <time>2010-05-07T13:14:13Z</time>
      </trkpt>
      <trkpt lat="47.02761" lon="5.7424">
        <ele>231</ele>
        <time>2010-05-07T13:14:15Z</time>
      </trkpt>
      <trkpt lat="47.02758" lon="5.74259">
        <ele>231</ele>
        <time>2010-05-07T13:14:17Z</time>
      </trkpt>
      <trkpt lat="47.02756" lon="5.74278">
        <ele>231</ele>
        <time>2010-05-07T13:14:19Z</time>
      </trkpt>
      <trkpt lat="47.02753" lon="5.74297">
        <ele>231</ele>
        <time>2010-05-07T13:14:21Z</time>
      </trkpt>
      <trkpt lat="47.02751" lon="5.74315">
        <ele>231</ele>
        <time>2010-05-07T13:14:23Z</time>
      </trkpt>
      <trkpt lat="47.0275" lon="5.74333">
        <ele>231</ele>
        <time>2010-05-07T13:14:25Z</time>
      </trkpt>
      <trkpt lat="47.02748" lon="5.74352">
        <ele>231</ele>
        <time>2010-05-07T13:14:27Z</time>
      </trkpt>
      <trkpt lat="47.02746" lon="5.74372">
        <ele>231</ele>
        <time>2010-05-07T13:14:29Z</time>
      </trkpt>
      <trkpt lat="47.02745" lon="5.74391">
        <ele>231</ele>
        <time>2010-05-07T13:14:31Z</time>
      </trkpt>
      <trkpt lat="47.02744" lon="5.7441">
        <ele>231</ele>
        <time>2010-05-07T13:14:33Z</time>
      </trkpt>
      <trkpt lat="47.02742" lon="5.7443">
        <ele>231</ele>
        <time>2010-05-07T13:14:35Z</time>
      </trkpt>
      <trkpt lat="47.02741" lon="5.74449">
        <ele>231</ele>
        <time>2010-05-07T13:14:37Z</time>
      </trkpt>
      <trkpt lat="47.02741" lon="5.74469">
        <ele>231</ele>
        <time>2010-05-07T13:14:39Z</time>
      </trkpt>
      <trkpt lat="47.02739" lon="5.74489">
        <ele>231</ele>
        <time>2010-05-07T13:14:41Z</time>
      </trkpt>
      <trkpt lat="47.02737" lon="5.74509">
        <ele>231</ele>
        <time>2010-05-07T13:14:43Z</time>
      </trkpt>
      <trkpt lat="47.02736" lon="5.74527">
        <ele>231</ele>
        <time>2010-05-07T13:14:45Z</time>
      </trkpt>
      <trkpt lat="47.02736" lon="5.74545">
        <ele>231</ele>
        <time>2010-05-07T13:14:47Z</time>
      </trkpt>
      <trkpt lat="47.02737" lon="5.74565">
        <ele>231</ele>
        <time>2010-05-07T13:14:49Z</time>
      </trkpt>
      <trkpt lat="47.02739" lon="5.74583">
        <ele>231</ele>
        <time>2010-05-07T13:14:51Z</time>
      </trkpt>
      <trkpt lat="47.02741" lon="5.74602">
        <ele>231</ele>
        <time>2010-05-07T13:14:53Z</time>
      </trkpt>
      <trkpt lat="47.02746" lon="5.74622">
        <ele>231</ele>
        <time>2010-05-07T13:14:55Z</time>
      </trkpt>
      <trkpt lat="47.02752" lon="5.74642">
        <ele>231</ele>
        <time>2010-05-07T13:14:57Z</time>
      </trkpt>
      <trkpt lat="47.02757" lon="5.7466">
        <ele>231</ele>
        <time>2010-05-07T13:14:59Z</time>
      </trkpt>
      <trkpt lat="47.02762" lon="5.74679">
        <ele>231</ele>
        <time>2010-05-07T13:15:01Z</time>
      </trkpt>
      <trkpt lat="47.02766" lon="5.74699">
        <ele>231</ele>
        <time>2010-05-07T13:15:03Z</time>
      </trkpt>
      <trkpt lat="47.02771" lon="5.74718">
        <ele>231</ele>
        <time>2010-05-07T13:15:05Z</time>
      </trkpt>
      <trkpt lat="47.02775" lon="5.74738">
        <ele>231</ele>
        <time>2010-05-07T13:15:07Z</time>
      </trkpt>
      <trkpt lat="47.02778" lon="5.74757">
        <ele>231</ele>
        <time>2010-05-07T13:15:09Z</time>
      </trkpt>
      <trkpt lat="47.02781" lon="5.74778">
        <ele>231</ele>
        <time>2010-05-07T13:15:11Z</time>
      </trkpt>
      <trkpt lat="47.02784" lon="5.74798">
        <ele>231</ele>
        <time>2010-05-07T13:15:13Z</time>
      </trkpt>
      <trkpt lat="47.02786" lon="5.74818">
        <ele>231</ele>
        <time>2010-05-07T13:15:15Z</time>
      </trkpt>
      <trkpt lat="47.02788" lon="5.74838">
        <ele>231</ele>
        <time>2010-05-07T13:15:17Z</time>
      </trkpt>
      <trkpt lat="47.0279" lon="5.74858">
        <ele>231</ele>
        <time>2010-05-07T13:15:19Z</time>
      </trkpt>
      <trkpt lat="47.02791" lon="5.74877">
        <ele>231</ele>
        <time>2010-05-07T13:15:21Z</time>
      </trkpt>
      <trkpt lat="47.02793" lon="5.74896">
        <ele>231</ele>
        <time>2010-05-07T13:15:23Z</time>
      </trkpt>
      <trkpt lat="47.02793" lon="5.74916">
        <ele>231</ele>
        <time>2010-05-07T13:15:25Z</time>
      </trkpt>
      <trkpt lat="47.02795" lon="5.74934">
        <ele>231</ele>
        <time>2010-05-07T13:15:27Z</time>
      </trkpt>
      <trkpt lat="47.02795" lon="5.74954">
        <ele>231</ele>
        <time>2010-05-07T13:15:29Z</time>
      </trkpt>
      <trkpt lat="47.02796" lon="5.74974">
        <ele>231</ele>
        <time>2010-05-07T13:15:31Z</time>
      </trkpt>
      <trkpt lat="47.02797" lon="5.74994">
        <ele>231</ele>
        <time>2010-05-07T13:15:33Z</time>
      </trkpt>
      <trkpt lat="47.02798" lon="5.75013">
        <ele>231</ele>
        <time>2010-05-07T13:15:35Z</time>
      </trkpt>
      <trkpt lat="47.02798" lon="5.75032">
        <ele>231</ele>
        <time>2010-05-07T13:15:37Z</time>
      </trkpt>
      <trkpt lat="47.02799" lon="5.75053">
        <ele>231</ele>
        <time>2010-05-07T13:15:39Z</time>
      </trkpt>
      <trkpt lat="47.028" lon="5.75073">
        <ele>231</ele>
        <time>2010-05-07T13:15:41Z</time>
      </trkpt>
      <trkpt lat="47.02801" lon="5.75093">
        <ele>231</ele>
        <time>2010-05-07T13:15:43Z</time>
      </trkpt>
      <trkpt lat="47.02802" lon="5.75113">
        <ele>231</ele>
        <time>2010-05-07T13:15:45Z</time>
      </trkpt>
      <trkpt lat="47.02804" lon="5.75133">
        <ele>231</ele>
        <time>2010-05-07T13:15:47Z</time>
      </trkpt>
      <trkpt lat="47.02805" lon="5.75153">
        <ele>231</ele>
        <time>2010-05-07T13:15:49Z</time>
      </trkpt>
      <trkpt lat="47.02807" lon="5.75173">
        <ele>231</ele>
        <time>2010-05-07T13:15:51Z</time>
      </trkpt>
      <trkpt lat="47.02808" lon="5.75194">
        <ele>231</ele>
        <time>2010-05-07T13:15:53Z</time>
      </trkpt>
      <trkpt lat="47.0281" lon="5.75215">
        <ele>231</ele>
        <time>2010-05-07T13:15:55Z</time>
      </trkpt>
      <trkpt lat="47.02812" lon="5.75235">
        <ele>231</ele>
        <time>2010-05-07T13:15:57Z</time>
      </trkpt>
      <trkpt lat="47.02813" lon="5.75255">
        <ele>231</ele>
        <time>2010-05-07T13:15:59Z</time>
      </trkpt>
      <trkpt lat="47.02815" lon="5.75275">
        <ele>231</ele>
        <time>2010-05-07T13:16:01Z</time>
      </trkpt>
      <trkpt lat="47.02816" lon="5.75295">
        <ele>231</ele>
        <time>2010-05-07T13:16:03Z</time>
      </trkpt>
      <trkpt lat="47.02818" lon="5.75315">
        <ele>231</ele>
        <time>2010-05-07T13:16:05Z</time>
      </trkpt>
      <trkpt lat="47.0282" lon="5.75334">
        <ele>231</ele>
        <time>2010-05-07T13:16:07Z</time>
      </trkpt>
      <trkpt lat="47.02821" lon="5.75354">
        <ele>231</ele>
        <time>2010-05-07T13:16:09Z</time>
      </trkpt>
      <trkpt lat="47.02822" lon="5.75373">
        <ele>231</ele>
        <time>2010-05-07T13:16:11Z</time>
      </trkpt>
      <trkpt lat="47.02824" lon="5.75393">
        <ele>231</ele>
        <time>2010-05-07T13:16:13Z</time>
      </trkpt>
      <trkpt lat="47.02826" lon="5.75411">
        <ele>231</ele>
        <time>2010-05-07T13:16:15Z</time>
      </trkpt>
      <trkpt lat="47.02828" lon="5.7543">
        <ele>231</ele>
        <time>2010-05-07T13:16:17Z</time>
      </trkpt>
      <trkpt lat="47.02829" lon="5.7545">
        <ele>231</ele>
        <time>2010-05-07T13:16:19Z</time>
      </trkpt>
      <trkpt lat="47.02831" lon="5.75469">
        <ele>231</ele>
        <time>2010-05-07T13:16:21Z</time>
      </trkpt>
      <trkpt lat="47.02832" lon="5.75488">
        <ele>231</ele>
        <time>2010-05-07T13:16:23Z</time>
      </trkpt>
      <trkpt lat="47.02834" lon="5.75506">
        <ele>231</ele>
        <time>2010-05-07T13:16:25Z</time>
      </trkpt>
      <trkpt lat="47.02835" lon="5.75524">
        <ele>231</ele>
        <time>2010-05-07T13:16:27Z</time>
      </trkpt>
      <trkpt lat="47.02837" lon="5.75543">
        <ele>231</ele>
        <time>2010-05-07T13:16:29Z</time>
      </trkpt>
      <trkpt lat="47.02838" lon="5.75561">
        <ele>231</ele>
        <time>2010-05-07T13:16:31Z</time>
      </trkpt>
      <trkpt lat="47.0284" lon="5.75579">
        <ele>231</ele>
        <time>2010-05-07T13:16:33Z</time>
      </trkpt>
      <trkpt lat="47.02842" lon="5.75598">
        <ele>231</ele>
        <time>2010-05-07T13:16:35Z</time>
      </trkpt>
      <trkpt lat="47.02844" lon="5.75617">
        <ele>231</ele>
        <time>2010-05-07T13:16:37Z</time>
      </trkpt>
      <trkpt lat="47.02845" lon="5.75636">
        <ele>231</ele>
        <time>2010-05-07T13:16:39Z</time>
      </trkpt>
      <trkpt lat="47.02847" lon="5.75655">
        <ele>231</ele>
        <time>2010-05-07T13:16:41Z</time>
      </trkpt>
      <trkpt lat="47.02849" lon="5.75674">
        <ele>231</ele>
        <time>2010-05-07T13:16:43Z</time>
      </trkpt>
      <trkpt lat="47.02851" lon="5.75692">
        <ele>231</ele>
        <time>2010-05-07T13:16:45Z</time>
      </trkpt>
      <trkpt lat="47.02852" lon="5.75709">
        <ele>231</ele>
        <time>2010-05-07T13:16:47Z</time>
      </trkpt>
      <trkpt lat="47.02854" lon="5.75727">
        <ele>231</ele>
        <time>2010-05-07T13:16:49Z</time>
      </trkpt>
      <trkpt lat="47.02857" lon="5.75745">
        <ele>231</ele>
        <time>2010-05-07T13:16:51Z</time>
      </trkpt>
      <trkpt lat="47.02858" lon="5.75763">
        <ele>231</ele>
        <time>2010-05-07T13:16:53Z</time>
      </trkpt>
      <trkpt lat="47.0286" lon="5.7578">
        <ele>231</ele>
        <time>2010-05-07T13:16:55Z</time>
      </trkpt>
      <trkpt lat="47.02862" lon="5.75799">
        <ele>231</ele>
        <time>2010-05-07T13:16:57Z</time>
      </trkpt>
      <trkpt lat="47.02864" lon="5.75817">
        <ele>231</ele>
        <time>2010-05-07T13:16:59Z</time>
      </trkpt>
      <trkpt lat="47.02865" lon="5.75836">
        <ele>231</ele>
        <time>2010-05-07T13:17:01Z</time>
      </trkpt>
      <trkpt lat="47.02866" lon="5.75855">
        <ele>231</ele>
        <time>2010-05-07T13:17:03Z</time>
      </trkpt>
      <trkpt lat="47.02868" lon="5.75874">
        <ele>231</ele>
        <time>2010-05-07T13:17:05Z</time>
      </trkpt>
      <trkpt lat="47.0287" lon="5.75893">
        <ele>231</ele>
        <time>2010-05-07T13:17:07Z</time>
      </trkpt>
      <trkpt lat="47.02871" lon="5.75913">
        <ele>231</ele>
        <time>2010-05-07T13:17:09Z</time>
      </trkpt>
      <trkpt lat="47.02873" lon="5.75932">
        <ele>231</ele>
        <time>2010-05-07T13:17:11Z</time>
      </trkpt>
      <trkpt lat="47.02874" lon="5.75952">
        <ele>231</ele>
        <time>2010-05-07T13:17:13Z</time>
      </trkpt>
      <trkpt lat="47.02876" lon="5.75971">
        <ele>231</ele>
        <time>2010-05-07T13:17:15Z</time>
      </trkpt>
      <trkpt lat="47.02877" lon="5.7599">
        <ele>231</ele>
        <time>2010-05-07T13:17:17Z</time>
      </trkpt>
      <trkpt lat="47.02878" lon="5.76009">
        <ele>231</ele>
        <time>2010-05-07T13:17:19Z</time>
      </trkpt>
      <trkpt lat="47.0288" lon="5.76029">
        <ele>231</ele>
        <time>2010-05-07T13:17:21Z</time>
      </trkpt>
      <trkpt lat="47.02881" lon="5.76049">
        <ele>231</ele>
        <time>2010-05-07T13:17:23Z</time>
      </trkpt>
      <trkpt lat="47.02881" lon="5.76069">
        <ele>231</ele>
        <time>2010-05-07T13:17:25Z</time>
      </trkpt>
      <trkpt lat="47.0288" lon="5.7609">
        <ele>231</ele>
        <time>2010-05-07T13:17:27Z</time>
      </trkpt>
      <trkpt lat="47.0288" lon="5.76111">
        <ele>231</ele>
        <time>2010-05-07T13:17:29Z</time>
      </trkpt>
      <trkpt lat="47.02879" lon="5.76131">
        <ele>231</ele>
        <time>2010-05-07T13:17:31Z</time>
      </trkpt>
      <trkpt lat="47.02881" lon="5.76153">
        <ele>231</ele>
        <time>2010-05-07T13:17:33Z</time>
      </trkpt>
      <trkpt lat="47.02882" lon="5.76172">
        <ele>231</ele>
        <time>2010-05-07T13:17:35Z</time>
      </trkpt>
      <trkpt lat="47.02882" lon="5.76192">
        <ele>231</ele>
        <time>2010-05-07T13:17:37Z</time>
      </trkpt>
      <trkpt lat="47.02882" lon="5.76211">
        <ele>231</ele>
        <time>2010-05-07T13:17:39Z</time>
      </trkpt>
      <trkpt lat="47.02884" lon="5.7623">
        <ele>231</ele>
        <time>2010-05-07T13:17:41Z</time>
      </trkpt>
      <trkpt lat="47.02888" lon="5.7625">
        <ele>231</ele>
        <time>2010-05-07T13:17:43Z</time>
      </trkpt>
      <trkpt lat="47.02892" lon="5.76269">
        <ele>231</ele>
        <time>2010-05-07T13:17:45Z</time>
      </trkpt>
      <trkpt lat="47.02897" lon="5.76288">
        <ele>231</ele>
        <time>2010-05-07T13:17:47Z</time>
      </trkpt>
      <trkpt lat="47.02901" lon="5.76307">
        <ele>231</ele>
        <time>2010-05-07T13:17:49Z</time>
      </trkpt>
      <trkpt lat="47.02907" lon="5.76329">
        <ele>231</ele>
        <time>2010-05-07T13:17:51Z</time>
      </trkpt>
      <trkpt lat="47.02913" lon="5.76349">
        <ele>231</ele>
        <time>2010-05-07T13:17:53Z</time>
      </trkpt>
      <trkpt lat="47.02917" lon="5.76369">
        <ele>231</ele>
        <time>2010-05-07T13:17:55Z</time>
      </trkpt>
      <trkpt lat="47.0292" lon="5.7639">
        <ele>231</ele>
        <time>2010-05-07T13:17:57Z</time>
      </trkpt>
      <trkpt lat="47.02922" lon="5.76409">
        <ele>231</ele>
        <time>2010-05-07T13:17:59Z</time>
      </trkpt>
      <trkpt lat="47.02925" lon="5.76428">
        <ele>231</ele>
        <time>2010-05-07T13:18:01Z</time>
      </trkpt>
      <trkpt lat="47.02925" lon="5.76447">
        <ele>231</ele>
        <time>2010-05-07T13:18:03Z</time>
      </trkpt>
      <trkpt lat="47.02925" lon="5.76464">
        <ele>231</ele>
        <time>2010-05-07T13:18:05Z</time>
      </trkpt>
      <trkpt lat="47.02926" lon="5.76484">
        <ele>231</ele>
        <time>2010-05-07T13:18:07Z</time>
      </trkpt>
      <trkpt lat="47.02927" lon="5.76504">
        <ele>231</ele>
        <time>2010-05-07T13:18:09Z</time>
      </trkpt>
      <trkpt lat="47.02928" lon="5.76523">
        <ele>231</ele>
        <time>2010-05-07T13:18:11Z</time>
      </trkpt>
      <trkpt lat="47.02929" lon="5.76543">
        <ele>231</ele>
        <time>2010-05-07T13:18:13Z</time>
      </trkpt>
      <trkpt lat="47.02929" lon="5.76563">
        <ele>231</ele>
        <time>2010-05-07T13:18:15Z</time>
      </trkpt>
      <trkpt lat="47.02929" lon="5.76582">
        <ele>231</ele>
        <time>2010-05-07T13:18:17Z</time>
      </trkpt>
      <trkpt lat="47.02929" lon="5.76601">
        <ele>231</ele>
        <time>2010-05-07T13:18:19Z</time>
      </trkpt>
      <trkpt lat="47.02929" lon="5.76621">
        <ele>231</ele>
        <time>2010-05-07T13:18:21Z</time>
      </trkpt>
      <trkpt lat="47.02929" lon="5.76639">
        <ele>231</ele>
        <time>2010-05-07T13:18:23Z</time>
      </trkpt>
      <trkpt lat="47.0293" lon="5.76658">
        <ele>231</ele>
        <time>2010-05-07T13:18:25Z</time>
      </trkpt>
      <trkpt lat="47.02934" lon="5.7668">
        <ele>231</ele>
        <time>2010-05-07T13:18:27Z</time>
      </trkpt>
      <trkpt lat="47.0294" lon="5.767">
        <ele>231</ele>
        <time>2010-05-07T13:18:29Z</time>
      </trkpt>
      <trkpt lat="47.02948" lon="5.7672">
        <ele>231</ele>
        <time>2010-05-07T13:18:31Z</time>
      </trkpt>
      <trkpt lat="47.02954" lon="5.76739">
        <ele>231</ele>
        <time>2010-05-07T13:18:33Z</time>
      </trkpt>
      <trkpt lat="47.02961" lon="5.76759">
        <ele>231</ele>
        <time>2010-05-07T13:18:35Z</time>
      </trkpt>
      <trkpt lat="47.02968" lon="5.76779">
        <ele>231</ele>
        <time>2010-05-07T13:18:37Z</time>
      </trkpt>
      <trkpt lat="47.02974" lon="5.76797">
        <ele>231</ele>
        <time>2010-05-07T13:18:39Z</time>
      </trkpt>
      <trkpt lat="47.02981" lon="5.76815">
        <ele>231</ele>
        <time>2010-05-07T13:18:41Z</time>
      </trkpt>
      <trkpt lat="47.02987" lon="5.76833">
        <ele>231</ele>
        <time>2010-05-07T13:18:43Z</time>
      </trkpt>
      <trkpt lat="47.02993" lon="5.76851">
        <ele>231</ele>
        <time>2010-05-07T13:18:45Z</time>
      </trkpt>
      <trkpt lat="47.02999" lon="5.76867">
        <ele>231</ele>
        <time>2010-05-07T13:18:47Z</time>
      </trkpt>
      <trkpt lat="47.03005" lon="5.76881">
        <ele>231</ele>
        <time>2010-05-07T13:18:49Z</time>
      </trkpt>
      <trkpt lat="47.03012" lon="5.76895">
        <ele>231</ele>
        <time>2010-05-07T13:18:51Z</time>
      </trkpt>
      <trkpt lat="47.03019" lon="5.76907">
        <ele>231</ele>
        <time>2010-05-07T13:18:53Z</time>
      </trkpt>
      <trkpt lat="47.03029" lon="5.76918">
        <ele>231</ele>
        <time>2010-05-07T13:18:55Z</time>
      </trkpt>
      <trkpt lat="47.03037" lon="5.7693">
        <ele>231</ele>
        <time>2010-05-07T13:18:57Z</time>
      </trkpt>
      <trkpt lat="47.03046" lon="5.76942">
        <ele>231</ele>
        <time>2010-05-07T13:18:59Z</time>
      </trkpt>
      <trkpt lat="47.03054" lon="5.76957">
        <ele>231</ele>
        <time>2010-05-07T13:19:01Z</time>
      </trkpt>
      <trkpt lat="47.03061" lon="5.76974">
        <ele>231</ele>
        <time>2010-05-07T13:19:03Z</time>
      </trkpt>
      <trkpt lat="47.03067" lon="5.76991">
        <ele>231</ele>
        <time>2010-05-07T13:19:05Z</time>
      </trkpt>
      <trkpt lat="47.03074" lon="5.77008">
        <ele>231</ele>
        <time>2010-05-07T13:19:07Z</time>
      </trkpt>
      <trkpt lat="47.03081" lon="5.77025">
        <ele>231</ele>
        <time>2010-05-07T13:19:09Z</time>
      </trkpt>
      <trkpt lat="47.03085" lon="5.77044">
        <ele>231</ele>
        <time>2010-05-07T13:19:11Z</time>
      </trkpt>
      <trkpt lat="47.03088" lon="5.77063">
        <ele>231</ele>
        <time>2010-05-07T13:19:13Z</time>
      </trkpt>
      <trkpt lat="47.03088" lon="5.77082">
        <ele>231</ele>
        <time>2010-05-07T13:19:15Z</time>
      </trkpt>
      <trkpt lat="47.03084" lon="5.77101">
        <ele>231</ele>
        <time>2010-05-07T13:19:17Z</time>
      </trkpt>
      <trkpt lat="47.03077" lon="5.77119">
        <ele>231</ele>
        <time>2010-05-07T13:19:19Z</time>
      </trkpt>
      <trkpt lat="47.03067" lon="5.77134">
        <ele>231</ele>
        <time>2010-05-07T13:19:21Z</time>
      </trkpt>
      <trkpt lat="47.03056" lon="5.77147">
        <ele>231</ele>
        <time>2010-05-07T13:19:23Z</time>
      </trkpt>
      <trkpt lat="47.03045" lon="5.7716">
        <ele>231</ele>
        <time>2010-05-07T13:19:25Z</time>
      </trkpt>
      <trkpt lat="47.03036" lon="5.77174">
        <ele>231</ele>
        <time>2010-05-07T13:19:27Z</time>
      </trkpt>
      <trkpt lat="47.03026" lon="5.77186">
        <ele>231</ele>
        <time>2010-05-07T13:19:29Z</time>
      </trkpt>
      <trkpt lat="47.03017" lon="5.77199">
        <ele>231</ele>
        <time>2010-05-07T13:19:31Z</time>
      </trkpt>
      <trkpt lat="47.03007" lon="5.77211">
        <ele>231</ele>
        <time>2010-05-07T13:19:33Z</time>
      </trkpt>
      <trkpt lat="47.02998" lon="5.77223">
        <ele>231</ele>
        <time>2010-05-07T13:19:35Z</time>
      </trkpt>
      <trkpt lat="47.02989" lon="5.77238">
        <ele>231</ele>
        <time>2010-05-07T13:19:37Z</time>
      </trkpt>
      <trkpt lat="47.02981" lon="5.77253">
        <ele>231</ele>
        <time>2010-05-07T13:19:39Z</time>
      </trkpt>
      <trkpt lat="47.02975" lon="5.7727">
        <ele>231</ele>
        <time>2010-05-07T13:19:41Z</time>
      </trkpt>
      <trkpt lat="47.02969" lon="5.77286">
        <ele>231</ele>
        <time>2010-05-07T13:19:43Z</time>
      </trkpt>
      <trkpt lat="47.02967" lon="5.77304">
        <ele>231</ele>
        <time>2010-05-07T13:19:45Z</time>
      </trkpt>
      <trkpt lat="47.02971" lon="5.77323">
        <ele>231</ele>
        <time>2010-05-07T13:19:47Z</time>
      </trkpt>
      <trkpt lat="47.02978" lon="5.77341">
        <ele>231</ele>
        <time>2010-05-07T13:19:49Z</time>
      </trkpt>
      <trkpt lat="47.02986" lon="5.7736">
        <ele>231</ele>
        <time>2010-05-07T13:19:51Z</time>
      </trkpt>
      <trkpt lat="47.02992" lon="5.77378">
        <ele>231</ele>
        <time>2010-05-07T13:19:53Z</time>
      </trkpt>
      <trkpt lat="47.02999" lon="5.77396">
        <ele>231</ele>
        <time>2010-05-07T13:19:55Z</time>
      </trkpt>
      <trkpt lat="47.03005" lon="5.77412">
        <ele>231</ele>
        <time>2010-05-07T13:19:57Z</time>
      </trkpt>
      <trkpt lat="47.03011" lon="5.7743">
        <ele>231</ele>
        <time>2010-05-07T13:19:59Z</time>
      </trkpt>
      <trkpt lat="47.03018" lon="5.77447">
        <ele>231</ele>
        <time>2010-05-07T13:20:01Z</time>
      </trkpt>
      <trkpt lat="47.03024" lon="5.77464">
        <ele>231</ele>
        <time>2010-05-07T13:20:03Z</time>
      </trkpt>
      <trkpt lat="47.0303" lon="5.7748">
        <ele>231</ele>
        <time>2010-05-07T13:20:05Z</time>
      </trkpt>
      <trkpt lat="47.03035" lon="5.77496">
        <ele>231</ele>
        <time>2010-05-07T13:20:07Z</time>
      </trkpt>
      <trkpt lat="47.03042" lon="5.77513">
        <ele>231</ele>
        <time>2010-05-07T13:20:09Z</time>
      </trkpt>
      <trkpt lat="47.03048" lon="5.7753">
        <ele>231</ele>
        <time>2010-05-07T13:20:11Z</time>
      </trkpt>
      <trkpt lat="47.03053" lon="5.77546">
        <ele>231</ele>
        <time>2010-05-07T13:20:13Z</time>
      </trkpt>
      <trkpt lat="47.03057" lon="5.77559">
        <ele>231</ele>
        <time>2010-05-07T13:20:15Z</time>
      </trkpt>
      <trkpt lat="47.03062" lon="5.77573">
        <ele>231</ele>
        <time>2010-05-07T13:20:17Z</time>
      </trkpt>
      <trkpt lat="47.03067" lon="5.77587">
        <ele>231</ele>
        <time>2010-05-07T13:20:20Z</time>
      </trkpt>
      <trkpt lat="47.0307" lon="5.77601">
        <ele>231</ele>
        <time>2010-05-07T13:20:25Z</time>
      </trkpt>
      <trkpt lat="47.03075" lon="5.77612">
        <ele>237</ele>
        <time>2010-05-07T13:21:52Z</time>
      </trkpt>
      <trkpt lat="47.0308" lon="5.77627">
        <ele>237</ele>
        <time>2010-05-07T13:21:58Z</time>
      </trkpt>
      <trkpt lat="47.03084" lon="5.7764">
        <ele>237</ele>
        <time>2010-05-07T13:22:01Z</time>
      </trkpt>
      <trkpt lat="47.03089" lon="5.77656">
        <ele>237</ele>
        <time>2010-05-07T13:22:04Z</time>
      </trkpt>
      <trkpt lat="47.03096" lon="5.77673">
        <ele>237</ele>
        <time>2010-05-07T13:22:07Z</time>
      </trkpt>
      <trkpt lat="47.03099" lon="5.77686">
        <ele>237</ele>
        <time>2010-05-07T13:22:09Z</time>
      </trkpt>
      <trkpt lat="47.03104" lon="5.77699">
        <ele>237</ele>
        <time>2010-05-07T13:22:11Z</time>
      </trkpt>
      <trkpt lat="47.03107" lon="5.77711">
        <ele>237</ele>
        <time>2010-05-07T13:22:13Z</time>
      </trkpt>
      <trkpt lat="47.03112" lon="5.77724">
        <ele>237</ele>
        <time>2010-05-07T13:22:15Z</time>
      </trkpt>
      <trkpt lat="47.03116" lon="5.77736">
        <ele>237</ele>
        <time>2010-05-07T13:22:17Z</time>
      </trkpt>
      <trkpt lat="47.03121" lon="5.77753">
        <ele>237</ele>
        <time>2010-05-07T13:22:20Z</time>
      </trkpt>
      <trkpt lat="47.03126" lon="5.77765">
        <ele>237</ele>
        <time>2010-05-07T13:22:22Z</time>
      </trkpt>
      <trkpt lat="47.03131" lon="5.7778">
        <ele>237</ele>
        <time>2010-05-07T13:22:25Z</time>
      </trkpt>
      <trkpt lat="47.03137" lon="5.77796">
        <ele>237</ele>
        <time>2010-05-07T13:22:28Z</time>
      </trkpt>
      <trkpt lat="47.03142" lon="5.77807">
        <ele>237</ele>
        <time>2010-05-07T13:22:30Z</time>
      </trkpt>
      <trkpt lat="47.03147" lon="5.7782">
        <ele>237</ele>
        <time>2010-05-07T13:22:32Z</time>
      </trkpt>
      <trkpt lat="47.03153" lon="5.77832">
        <ele>237</ele>
        <time>2010-05-07T13:22:34Z</time>
      </trkpt>
      <trkpt lat="47.03158" lon="5.77846">
        <ele>237</ele>
        <time>2010-05-07T13:22:36Z</time>
      </trkpt>
      <trkpt lat="47.03164" lon="5.77859">
        <ele>237</ele>
        <time>2010-05-07T13:22:38Z</time>
      </trkpt>
      <trkpt lat="47.03169" lon="5.77873">
        <ele>237</ele>
        <time>2010-05-07T13:22:40Z</time>
      </trkpt>
      <trkpt lat="47.03175" lon="5.7789">
        <ele>237</ele>
        <time>2010-05-07T13:22:43Z</time>
      </trkpt>
      <trkpt lat="47.03182" lon="5.77905">
        <ele>237</ele>
        <time>2010-05-07T13:22:45Z</time>
      </trkpt>
      <trkpt lat="47.03186" lon="5.77921">
        <ele>237</ele>
        <time>2010-05-07T13:22:47Z</time>
      </trkpt>
      <trkpt lat="47.03193" lon="5.77937">
        <ele>237</ele>
        <time>2010-05-07T13:22:49Z</time>
      </trkpt>
      <trkpt lat="47.03199" lon="5.77952">
        <ele>237</ele>
        <time>2010-05-07T13:22:51Z</time>
      </trkpt>
      <trkpt lat="47.03206" lon="5.77969">
        <ele>242</ele>
        <time>2010-05-07T13:22:53Z</time>
      </trkpt>
      <trkpt lat="47.03212" lon="5.77986">
        <ele>242</ele>
        <time>2010-05-07T13:22:55Z</time>
      </trkpt>
      <trkpt lat="47.03218" lon="5.78001">
        <ele>242</ele>
        <time>2010-05-07T13:22:57Z</time>
      </trkpt>
      <trkpt lat="47.03225" lon="5.78016">
        <ele>242</ele>
        <time>2010-05-07T13:22:59Z</time>
      </trkpt>
      <trkpt lat="47.0323" lon="5.78029">
        <ele>242</ele>
        <time>2010-05-07T13:23:01Z</time>
      </trkpt>
      <trkpt lat="47.03236" lon="5.78041">
        <ele>242</ele>
        <time>2010-05-07T13:23:03Z</time>
      </trkpt>
      <trkpt lat="47.03241" lon="5.78053">
        <ele>242</ele>
        <time>2010-05-07T13:23:05Z</time>
      </trkpt>
      <trkpt lat="47.03247" lon="5.78068">
        <ele>242</ele>
        <time>2010-05-07T13:23:07Z</time>
      </trkpt>
      <trkpt lat="47.03252" lon="5.78082">
        <ele>242</ele>
        <time>2010-05-07T13:23:09Z</time>
      </trkpt>
      <trkpt lat="47.03255" lon="5.78095">
        <ele>242</ele>
        <time>2010-05-07T13:23:11Z</time>
      </trkpt>
      <trkpt lat="47.03259" lon="5.78112">
        <ele>236</ele>
        <time>2010-05-07T13:23:14Z</time>
      </trkpt>
      <trkpt lat="47.03263" lon="5.78127">
        <ele>236</ele>
        <time>2010-05-07T13:23:16Z</time>
      </trkpt>
      <trkpt lat="47.03271" lon="5.78143">
        <ele>241</ele>
        <time>2010-05-07T13:23:19Z</time>
      </trkpt>
      <trkpt lat="47.03277" lon="5.78161">
        <ele>241</ele>
        <time>2010-05-07T13:23:21Z</time>
      </trkpt>
      <trkpt lat="47.03282" lon="5.78179">
        <ele>241</ele>
        <time>2010-05-07T13:23:23Z</time>
      </trkpt>
      <trkpt lat="47.03289" lon="5.78198">
        <ele>241</ele>
        <time>2010-05-07T13:23:25Z</time>
      </trkpt>
      <trkpt lat="47.03296" lon="5.78217">
        <ele>241</ele>
        <time>2010-05-07T13:23:27Z</time>
      </trkpt>
      <trkpt lat="47.03302" lon="5.78236">
        <ele>241</ele>
        <time>2010-05-07T13:23:29Z</time>
      </trkpt>
      <trkpt lat="47.0331" lon="5.78253">
        <ele>247</ele>
        <time>2010-05-07T13:23:31Z</time>
      </trkpt>
      <trkpt lat="47.03317" lon="5.78269">
        <ele>247</ele>
        <time>2010-05-07T13:23:33Z</time>
      </trkpt>
      <trkpt lat="47.03323" lon="5.78287">
        <ele>247</ele>
        <time>2010-05-07T13:23:35Z</time>
      </trkpt>
      <trkpt lat="47.03328" lon="5.78305">
        <ele>247</ele>
        <time>2010-05-07T13:23:37Z</time>
      </trkpt>
      <trkpt lat="47.03333" lon="5.78322">
        <ele>247</ele>
        <time>2010-05-07T13:23:39Z</time>
      </trkpt>
      <trkpt lat="47.03338" lon="5.78341">
        <ele>247</ele>
        <time>2010-05-07T13:23:41Z</time>
      </trkpt>
      <trkpt lat="47.03341" lon="5.7836">
        <ele>247</ele>
        <time>2010-05-07T13:23:43Z</time>
      </trkpt>
      <trkpt lat="47.03345" lon="5.78379">
        <ele>241</ele>
        <time>2010-05-07T13:23:45Z</time>
      </trkpt>
      <trkpt lat="47.03349" lon="5.78397">
        <ele>241</ele>
        <time>2010-05-07T13:23:47Z</time>
      </trkpt>
      <trkpt lat="47.03354" lon="5.78414">
        <ele>241</ele>
        <time>2010-05-07T13:23:49Z</time>
      </trkpt>
      <trkpt lat="47.03358" lon="5.78432">
        <ele>241</ele>
        <time>2010-05-07T13:23:51Z</time>
      </trkpt>
      <trkpt lat="47.03362" lon="5.78448">
        <ele>241</ele>
        <time>2010-05-07T13:23:53Z</time>
      </trkpt>
      <trkpt lat="47.03367" lon="5.78461">
        <ele>241</ele>
        <time>2010-05-07T13:23:55Z</time>
      </trkpt>
      <trkpt lat="47.03373" lon="5.78474">
        <ele>241</ele>
        <time>2010-05-07T13:23:57Z</time>
      </trkpt>
      <trkpt lat="47.03381" lon="5.78486">
        <ele>241</ele>
        <time>2010-05-07T13:23:59Z</time>
      </trkpt>
      <trkpt lat="47.03389" lon="5.78497">
        <ele>241</ele>
        <time>2010-05-07T13:24:01Z</time>
      </trkpt>
      <trkpt lat="47.03397" lon="5.78508">
        <ele>241</ele>
        <time>2010-05-07T13:24:03Z</time>
      </trkpt>
      <trkpt lat="47.03406" lon="5.78519">
        <ele>241</ele>
        <time>2010-05-07T13:24:05Z</time>
      </trkpt>
      <trkpt lat="47.03416" lon="5.7853">
        <ele>241</ele>
        <time>2010-05-07T13:24:07Z</time>
      </trkpt>
      <trkpt lat="47.03425" lon="5.78542">
        <ele>241</ele>
        <time>2010-05-07T13:24:09Z</time>
      </trkpt>
      <trkpt lat="47.03435" lon="5.78554">
        <ele>241</ele>
        <time>2010-05-07T13:24:11Z</time>
      </trkpt>
      <trkpt lat="47.03445" lon="5.78565">
        <ele>241</ele>
        <time>2010-05-07T13:24:13Z</time>
      </trkpt>
      <trkpt lat="47.03454" lon="5.78575">
        <ele>235</ele>
        <time>2010-05-07T13:24:15Z</time>
      </trkpt>
      <trkpt lat="47.03464" lon="5.78586">
        <ele>235</ele>
        <time>2010-05-07T13:24:17Z</time>
      </trkpt>
      <trkpt lat="47.03473" lon="5.78597">
        <ele>235</ele>
        <time>2010-05-07T13:24:19Z</time>
      </trkpt>
      <trkpt lat="47.03481" lon="5.78607">
        <ele>235</ele>
        <time>2010-05-07T13:24:21Z</time>
      </trkpt>
      <trkpt lat="47.0349" lon="5.78617">
        <ele>235</ele>
        <time>2010-05-07T13:24:23Z</time>
      </trkpt>
      <trkpt lat="47.03498" lon="5.78627">
        <ele>235</ele>
        <time>2010-05-07T13:24:25Z</time>
      </trkpt>
      <trkpt lat="47.03506" lon="5.78638">
        <ele>235</ele>
        <time>2010-05-07T13:24:27Z</time>
      </trkpt>
      <trkpt lat="47.03514" lon="5.78648">
        <ele>235</ele>
        <time>2010-05-07T13:24:29Z</time>
      </trkpt>
      <trkpt lat="47.03521" lon="5.7866">
        <ele>235</ele>
        <time>2010-05-07T13:24:31Z</time>
      </trkpt>
      <trkpt lat="47.03527" lon="5.7867">
        <ele>235</ele>
        <time>2010-05-07T13:24:33Z</time>
      </trkpt>
      <trkpt lat="47.03533" lon="5.78679">
        <ele>235</ele>
        <time>2010-05-07T13:24:35Z</time>
      </trkpt>
      <trkpt lat="47.03541" lon="5.78694">
        <ele>235</ele>
        <time>2010-05-07T13:24:38Z</time>
      </trkpt>
      <trkpt lat="47.03547" lon="5.78704">
        <ele>235</ele>
        <time>2010-05-07T13:24:40Z</time>
      </trkpt>
      <trkpt lat="47.03554" lon="5.78715">
        <ele>235</ele>
        <time>2010-05-07T13:24:42Z</time>
      </trkpt>
      <trkpt lat="47.03559" lon="5.78726">
        <ele>242</ele>
        <time>2010-05-07T13:24:44Z</time>
      </trkpt>
      <trkpt lat="47.03565" lon="5.78737">
        <ele>242</ele>
        <time>2010-05-07T13:24:46Z</time>
      </trkpt>
      <trkpt lat="47.03571" lon="5.78747">
        <ele>242</ele>
        <time>2010-05-07T13:24:48Z</time>
      </trkpt>
      <trkpt lat="47.03579" lon="5.78761">
        <ele>242</ele>
        <time>2010-05-07T13:24:51Z</time>
      </trkpt>
      <trkpt lat="47.03587" lon="5.78777">
        <ele>248</ele>
        <time>2010-05-07T13:24:54Z</time>
      </trkpt>
      <trkpt lat="47.03594" lon="5.78788">
        <ele>248</ele>
        <time>2010-05-07T13:24:56Z</time>
      </trkpt>
      <trkpt lat="47.036" lon="5.78798">
        <ele>248</ele>
        <time>2010-05-07T13:24:58Z</time>
      </trkpt>
      <trkpt lat="47.03611" lon="5.78807">
        <ele>248</ele>
        <time>2010-05-07T13:25:01Z</time>
      </trkpt>
      <trkpt lat="47.03621" lon="5.78816">
        <ele>248</ele>
        <time>2010-05-07T13:25:04Z</time>
      </trkpt>
      <trkpt lat="47.03632" lon="5.78824">
        <ele>248</ele>
        <time>2010-05-07T13:25:07Z</time>
      </trkpt>
      <trkpt lat="47.03642" lon="5.78833">
        <ele>248</ele>
        <time>2010-05-07T13:25:10Z</time>
      </trkpt>
      <trkpt lat="47.03653" lon="5.7884">
        <ele>248</ele>
        <time>2010-05-07T13:25:13Z</time>
      </trkpt>
      <trkpt lat="47.03664" lon="5.78847">
        <ele>248</ele>
        <time>2010-05-07T13:25:16Z</time>
      </trkpt>
      <trkpt lat="47.03675" lon="5.78854">
        <ele>248</ele>
        <time>2010-05-07T13:25:19Z</time>
      </trkpt>
      <trkpt lat="47.03684" lon="5.78865">
        <ele>254</ele>
        <time>2010-05-07T13:25:22Z</time>
      </trkpt>
      <trkpt lat="47.03692" lon="5.78876">
        <ele>254</ele>
        <time>2010-05-07T13:25:24Z</time>
      </trkpt>
      <trkpt lat="47.03696" lon="5.78888">
        <ele>254</ele>
        <time>2010-05-07T13:25:26Z</time>
      </trkpt>
      <trkpt lat="47.03702" lon="5.78906">
        <ele>254</ele>
        <time>2010-05-07T13:25:29Z</time>
      </trkpt>
      <trkpt lat="47.03707" lon="5.78918">
        <ele>254</ele>
        <time>2010-05-07T13:25:31Z</time>
      </trkpt>
      <trkpt lat="47.03715" lon="5.78928">
        <ele>254</ele>
        <time>2010-05-07T13:25:33Z</time>
      </trkpt>
      <trkpt lat="47.03723" lon="5.78936">
        <ele>254</ele>
        <time>2010-05-07T13:25:35Z</time>
      </trkpt>
      <trkpt lat="47.03733" lon="5.78944">
        <ele>254</ele>
        <time>2010-05-07T13:25:37Z</time>
      </trkpt>
      <trkpt lat="47.03747" lon="5.78947">
        <ele>254</ele>
        <time>2010-05-07T13:25:39Z</time>
      </trkpt>
      <trkpt lat="47.03761" lon="5.78946">
        <ele>254</ele>
        <time>2010-05-07T13:25:41Z</time>
      </trkpt>
      <trkpt lat="47.03775" lon="5.78945">
        <ele>254</ele>
        <time>2010-05-07T13:25:43Z</time>
      </trkpt>
      <trkpt lat="47.03791" lon="5.78942">
        <ele>254</ele>
        <time>2010-05-07T13:25:45Z</time>
      </trkpt>
      <trkpt lat="47.03806" lon="5.78937">
        <ele>248</ele>
        <time>2010-05-07T13:25:47Z</time>
      </trkpt>
      <trkpt lat="47.0382" lon="5.78933">
        <ele>248</ele>
        <time>2010-05-07T13:25:49Z</time>
      </trkpt>
      <trkpt lat="47.03836" lon="5.78933">
        <ele>248</ele>
        <time>2010-05-07T13:25:51Z</time>
      </trkpt>
      <trkpt lat="47.0385" lon="5.78931">
        <ele>248</ele>
        <time>2010-05-07T13:25:53Z</time>
      </trkpt>
      <trkpt lat="47.03863" lon="5.78932">
        <ele>248</ele>
        <time>2010-05-07T13:25:55Z</time>
      </trkpt>
      <trkpt lat="47.03873" lon="5.78932">
        <ele>248</ele>
        <time>2010-05-07T13:25:57Z</time>
      </trkpt>
      <trkpt lat="47.03884" lon="5.78931">
        <ele>248</ele>
        <time>2010-05-07T13:25:59Z</time>
      </trkpt>
      <trkpt lat="47.03893" lon="5.78931">
        <ele>248</ele>
        <time>2010-05-07T13:26:01Z</time>
      </trkpt>
      <trkpt lat="47.03903" lon="5.7893">
        <ele>248</ele>
        <time>2010-05-07T13:26:03Z</time>
      </trkpt>
      <trkpt lat="47.03915" lon="5.78934">
        <ele>248</ele>
        <time>2010-05-07T13:26:06Z</time>
      </trkpt>
      <trkpt lat="47.03924" lon="5.78937">
        <ele>248</ele>
        <time>2010-05-07T13:26:08Z</time>
      </trkpt>
      <trkpt lat="47.03937" lon="5.78944">
        <ele>248</ele>
        <time>2010-05-07T13:26:11Z</time>
      </trkpt>
      <trkpt lat="47.03949" lon="5.78952">
        <ele>248</ele>
        <time>2010-05-07T13:26:14Z</time>
      </trkpt>
      <trkpt lat="47.03961" lon="5.78961">
        <ele>248</ele>
        <time>2010-05-07T13:26:17Z</time>
      </trkpt>
      <trkpt lat="47.0397" lon="5.78968">
        <ele>248</ele>
        <time>2010-05-07T13:26:19Z</time>
      </trkpt>
      <trkpt lat="47.03979" lon="5.78977">
        <ele>254</ele>
        <time>2010-05-07T13:26:21Z</time>
      </trkpt>
      <trkpt lat="47.03989" lon="5.78989">
        <ele>254</ele>
        <time>2010-05-07T13:26:23Z</time>
      </trkpt>
      <trkpt lat="47.03999" lon="5.78999">
        <ele>254</ele>
        <time>2010-05-07T13:26:25Z</time>
      </trkpt>
      <trkpt lat="47.04011" lon="5.7901">
        <ele>254</ele>
        <time>2010-05-07T13:26:27Z</time>
      </trkpt>
      <trkpt lat="47.04025" lon="5.7902">
        <ele>254</ele>
        <time>2010-05-07T13:26:29Z</time>
      </trkpt>
      <trkpt lat="47.0404" lon="5.79029">
        <ele>254</ele>
        <time>2010-05-07T13:26:31Z</time>
      </trkpt>
      <trkpt lat="47.04054" lon="5.79036">
        <ele>254</ele>
        <time>2010-05-07T13:26:33Z</time>
      </trkpt>
      <trkpt lat="47.0407" lon="5.79042">
        <ele>254</ele>
        <time>2010-05-07T13:26:35Z</time>
      </trkpt>
      <trkpt lat="47.04086" lon="5.79047">
        <ele>248</ele>
        <time>2010-05-07T13:26:37Z</time>
      </trkpt>
      <trkpt lat="47.04101" lon="5.79054">
        <ele>248</ele>
        <time>2010-05-07T13:26:39Z</time>
      </trkpt>
      <trkpt lat="47.04116" lon="5.79062">
        <ele>248</ele>
        <time>2010-05-07T13:26:41Z</time>
      </trkpt>
      <trkpt lat="47.0413" lon="5.79073">
        <ele>248</ele>
        <time>2010-05-07T13:26:43Z</time>
      </trkpt>
      <trkpt lat="47.04142" lon="5.79084">
        <ele>248</ele>
        <time>2010-05-07T13:26:45Z</time>
      </trkpt>
      <trkpt lat="47.04154" lon="5.79095">
        <ele>248</ele>
        <time>2010-05-07T13:26:47Z</time>
      </trkpt>
      <trkpt lat="47.04165" lon="5.79107">
        <ele>248</ele>
        <time>2010-05-07T13:26:49Z</time>
      </trkpt>
      <trkpt lat="47.04176" lon="5.7912">
        <ele>248</ele>
        <time>2010-05-07T13:26:51Z</time>
      </trkpt>
      <trkpt lat="47.04186" lon="5.79132">
        <ele>248</ele>
        <time>2010-05-07T13:26:53Z</time>
      </trkpt>
      <trkpt lat="47.04197" lon="5.79146">
        <ele>248</ele>
        <time>2010-05-07T13:26:55Z</time>
      </trkpt>
      <trkpt lat="47.04206" lon="5.79158">
        <ele>248</ele>
        <time>2010-05-07T13:26:57Z</time>
      </trkpt>
      <trkpt lat="47.04215" lon="5.79172">
        <ele>248</ele>
        <time>2010-05-07T13:26:59Z</time>
      </trkpt>
      <trkpt lat="47.04225" lon="5.79183">
        <ele>248</ele>
        <time>2010-05-07T13:27:01Z</time>
      </trkpt>
      <trkpt lat="47.04234" lon="5.79197">
        <ele>248</ele>
        <time>2010-05-07T13:27:03Z</time>
      </trkpt>
      <trkpt lat="47.04243" lon="5.79209">
        <ele>248</ele>
        <time>2010-05-07T13:27:05Z</time>
      </trkpt>
      <trkpt lat="47.04253" lon="5.79224">
        <ele>248</ele>
        <time>2010-05-07T13:27:07Z</time>
      </trkpt>
      <trkpt lat="47.04262" lon="5.79238">
        <ele>248</ele>
        <time>2010-05-07T13:27:09Z</time>
      </trkpt>
      <trkpt lat="47.04272" lon="5.79252">
        <ele>248</ele>
        <time>2010-05-07T13:27:11Z</time>
      </trkpt>
      <trkpt lat="47.04281" lon="5.79266">
        <ele>248</ele>
        <time>2010-05-07T13:27:13Z</time>
      </trkpt>
      <trkpt lat="47.04289" lon="5.7928">
        <ele>248</ele>
        <time>2010-05-07T13:27:15Z</time>
      </trkpt>
      <trkpt lat="47.04299" lon="5.79292">
        <ele>248</ele>
        <time>2010-05-07T13:27:17Z</time>
      </trkpt>
      <trkpt lat="47.04308" lon="5.79306">
        <ele>248</ele>
        <time>2010-05-07T13:27:19Z</time>
      </trkpt>
      <trkpt lat="47.04317" lon="5.79318">
        <ele>248</ele>
        <time>2010-05-07T13:27:21Z</time>
      </trkpt>
      <trkpt lat="47.04326" lon="5.79331">
        <ele>248</ele>
        <time>2010-05-07T13:27:23Z</time>
      </trkpt>
      <trkpt lat="47.04335" lon="5.79343">
        <ele>248</ele>
        <time>2010-05-07T13:27:25Z</time>
      </trkpt>
      <trkpt lat="47.04344" lon="5.79355">
        <ele>248</ele>
        <time>2010-05-07T13:27:27Z</time>
      </trkpt>
      <trkpt lat="47.04353" lon="5.79368">
        <ele>248</ele>
        <time>2010-05-07T13:27:29Z</time>
      </trkpt>
      <trkpt lat="47.04362" lon="5.79382">
        <ele>248</ele>
        <time>2010-05-07T13:27:31Z</time>
      </trkpt>
      <trkpt lat="47.04371" lon="5.79395">
        <ele>248</ele>
        <time>2010-05-07T13:27:33Z</time>
      </trkpt>
      <trkpt lat="47.04381" lon="5.79409">
        <ele>248</ele>
        <time>2010-05-07T13:27:35Z</time>
      </trkpt>
      <trkpt lat="47.04391" lon="5.79423">
        <ele>248</ele>
        <time>2010-05-07T13:27:37Z</time>
      </trkpt>
      <trkpt lat="47.044" lon="5.79436">
        <ele>248</ele>
        <time>2010-05-07T13:27:39Z</time>
      </trkpt>
      <trkpt lat="47.0441" lon="5.7945">
        <ele>248</ele>
        <time>2010-05-07T13:27:41Z</time>
      </trkpt>
      <trkpt lat="47.0442" lon="5.79464">
        <ele>248</ele>
        <time>2010-05-07T13:27:43Z</time>
      </trkpt>
      <trkpt lat="47.04429" lon="5.79478">
        <ele>248</ele>
        <time>2010-05-07T13:27:45Z</time>
      </trkpt>
      <trkpt lat="47.04439" lon="5.79492">
        <ele>248</ele>
        <time>2010-05-07T13:27:47Z</time>
      </trkpt>
      <trkpt lat="47.0445" lon="5.79507">
        <ele>248</ele>
        <time>2010-05-07T13:27:49Z</time>
      </trkpt>
      <trkpt lat="47.0446" lon="5.79522">
        <ele>248</ele>
        <time>2010-05-07T13:27:51Z</time>
      </trkpt>
      <trkpt lat="47.04471" lon="5.79537">
        <ele>248</ele>
        <time>2010-05-07T13:27:53Z</time>
      </trkpt>
      <trkpt lat="47.04481" lon="5.79553">
        <ele>248</ele>
        <time>2010-05-07T13:27:55Z</time>
      </trkpt>
      <trkpt lat="47.04492" lon="5.79569">
        <ele>248</ele>
        <time>2010-05-07T13:27:57Z</time>
      </trkpt>
      <trkpt lat="47.04503" lon="5.79584">
        <ele>248</ele>
        <time>2010-05-07T13:27:59Z</time>
      </trkpt>
      <trkpt lat="47.04514" lon="5.79599">
        <ele>248</ele>
        <time>2010-05-07T13:28:01Z</time>
      </trkpt>
      <trkpt lat="47.04524" lon="5.79615">
        <ele>248</ele>
        <time>2010-05-07T13:28:03Z</time>
      </trkpt>
      <trkpt lat="47.04535" lon="5.7963">
        <ele>248</ele>
        <time>2010-05-07T13:28:05Z</time>
      </trkpt>
      <trkpt lat="47.04546" lon="5.79645">
        <ele>248</ele>
        <time>2010-05-07T13:28:07Z</time>
      </trkpt>
      <trkpt lat="47.04556" lon="5.7966">
        <ele>248</ele>
        <time>2010-05-07T13:28:09Z</time>
      </trkpt>
      <trkpt lat="47.04566" lon="5.79676">
        <ele>248</ele>
        <time>2010-05-07T13:28:11Z</time>
      </trkpt>
      <trkpt lat="47.04577" lon="5.7969">
        <ele>248</ele>
        <time>2010-05-07T13:28:13Z</time>
      </trkpt>
      <trkpt lat="47.04588" lon="5.79704">
        <ele>248</ele>
        <time>2010-05-07T13:28:15Z</time>
      </trkpt>
      <trkpt lat="47.04598" lon="5.79718">
        <ele>248</ele>
        <time>2010-05-07T13:28:17Z</time>
      </trkpt>
      <trkpt lat="47.04607" lon="5.79731">
        <ele>248</ele>
        <time>2010-05-07T13:28:19Z</time>
      </trkpt>
      <trkpt lat="47.04616" lon="5.79744">
        <ele>248</ele>
        <time>2010-05-07T13:28:21Z</time>
      </trkpt>
      <trkpt lat="47.04625" lon="5.79756">
        <ele>248</ele>
        <time>2010-05-07T13:28:23Z</time>
      </trkpt>
      <trkpt lat="47.04633" lon="5.79767">
        <ele>248</ele>
        <time>2010-05-07T13:28:25Z</time>
      </trkpt>
      <trkpt lat="47.04642" lon="5.79779">
        <ele>248</ele>
        <time>2010-05-07T13:28:27Z</time>
      </trkpt>
      <trkpt lat="47.0465" lon="5.79791">
        <ele>248</ele>
        <time>2010-05-07T13:28:29Z</time>
      </trkpt>
      <trkpt lat="47.04659" lon="5.79803">
        <ele>248</ele>
        <time>2010-05-07T13:28:31Z</time>
      </trkpt>
      <trkpt lat="47.04667" lon="5.79815">
        <ele>248</ele>
        <time>2010-05-07T13:28:33Z</time>
      </trkpt>
      <trkpt lat="47.04676" lon="5.79828">
        <ele>248</ele>
        <time>2010-05-07T13:28:35Z</time>
      </trkpt>
      <trkpt lat="47.04685" lon="5.7984">
        <ele>248</ele>
        <time>2010-05-07T13:28:37Z</time>
      </trkpt>
      <trkpt lat="47.04694" lon="5.79854">
        <ele>248</ele>
        <time>2010-05-07T13:28:39Z</time>
      </trkpt>
      <trkpt lat="47.04702" lon="5.79866">
        <ele>248</ele>
        <time>2010-05-07T13:28:41Z</time>
      </trkpt>
      <trkpt lat="47.0471" lon="5.7988">
        <ele>248</ele>
        <time>2010-05-07T13:28:43Z</time>
      </trkpt>
      <trkpt lat="47.04718" lon="5.79893">
        <ele>248</ele>
        <time>2010-05-07T13:28:45Z</time>
      </trkpt>
      <trkpt lat="47.04727" lon="5.79906">
        <ele>248</ele>
        <time>2010-05-07T13:28:47Z</time>
      </trkpt>
      <trkpt lat="47.04735" lon="5.79916">
        <ele>248</ele>
        <time>2010-05-07T13:28:49Z</time>
      </trkpt>
      <trkpt lat="47.04744" lon="5.79928">
        <ele>248</ele>
        <time>2010-05-07T13:28:51Z</time>
      </trkpt>
      <trkpt lat="47.04754" lon="5.79939">
        <ele>248</ele>
        <time>2010-05-07T13:28:53Z</time>
      </trkpt>
      <trkpt lat="47.04764" lon="5.7995">
        <ele>248</ele>
        <time>2010-05-07T13:28:55Z</time>
      </trkpt>
      <trkpt lat="47.04776" lon="5.79961">
        <ele>248</ele>
        <time>2010-05-07T13:28:57Z</time>
      </trkpt>
      <trkpt lat="47.04787" lon="5.79973">
        <ele>248</ele>
        <time>2010-05-07T13:28:59Z</time>
      </trkpt>
      <trkpt lat="47.04798" lon="5.79986">
        <ele>248</ele>
        <time>2010-05-07T13:29:01Z</time>
      </trkpt>
      <trkpt lat="47.0481" lon="5.79998">
        <ele>248</ele>
        <time>2010-05-07T13:29:03Z</time>
      </trkpt>
      <trkpt lat="47.04822" lon="5.80012">
        <ele>248</ele>
        <time>2010-05-07T13:29:05Z</time>
      </trkpt>
      <trkpt lat="47.04834" lon="5.80025">
        <ele>248</ele>
        <time>2010-05-07T13:29:07Z</time>
      </trkpt>
      <trkpt lat="47.04845" lon="5.80038">
        <ele>248</ele>
        <time>2010-05-07T13:29:09Z</time>
      </trkpt>
      <trkpt lat="47.04856" lon="5.8005">
        <ele>248</ele>
        <time>2010-05-07T13:29:11Z</time>
      </trkpt>
      <trkpt lat="47.04867" lon="5.80061">
        <ele>248</ele>
        <time>2010-05-07T13:29:13Z</time>
      </trkpt>
      <trkpt lat="47.04876" lon="5.80073">
        <ele>248</ele>
        <time>2010-05-07T13:29:15Z</time>
      </trkpt>
      <trkpt lat="47.04887" lon="5.80085">
        <ele>248</ele>
        <time>2010-05-07T13:29:17Z</time>
      </trkpt>
      <trkpt lat="47.04899" lon="5.80097">
        <ele>248</ele>
        <time>2010-05-07T13:29:19Z</time>
      </trkpt>
      <trkpt lat="47.04909" lon="5.80108">
        <ele>248</ele>
        <time>2010-05-07T13:29:21Z</time>
      </trkpt>
      <trkpt lat="47.04918" lon="5.80118">
        <ele>248</ele>
        <time>2010-05-07T13:29:23Z</time>
      </trkpt>
      <trkpt lat="47.04928" lon="5.80126">
        <ele>248</ele>
        <time>2010-05-07T13:29:25Z</time>
      </trkpt>
      <trkpt lat="47.04937" lon="5.80133">
        <ele>248</ele>
        <time>2010-05-07T13:29:27Z</time>
      </trkpt>
      <trkpt lat="47.04946" lon="5.8014">
        <ele>248</ele>
        <time>2010-05-07T13:29:29Z</time>
      </trkpt>
      <trkpt lat="47.04954" lon="5.80146">
        <ele>248</ele>
        <time>2010-05-07T13:29:31Z</time>
      </trkpt>
      <trkpt lat="47.04964" lon="5.80158">
        <ele>248</ele>
        <time>2010-05-07T13:29:33Z</time>
      </trkpt>
      <trkpt lat="47.04973" lon="5.8017">
        <ele>248</ele>
        <time>2010-05-07T13:29:35Z</time>
      </trkpt>
      <trkpt lat="47.04982" lon="5.80181">
        <ele>248</ele>
        <time>2010-05-07T13:29:37Z</time>
      </trkpt>
      <trkpt lat="47.04993" lon="5.80195">
        <ele>248</ele>
        <time>2010-05-07T13:29:39Z</time>
      </trkpt>
      <trkpt lat="47.05002" lon="5.80208">
        <ele>248</ele>
        <time>2010-05-07T13:29:41Z</time>
      </trkpt>
      <trkpt lat="47.05013" lon="5.80222">
        <ele>248</ele>
        <time>2010-05-07T13:29:43Z</time>
      </trkpt>
      <trkpt lat="47.05024" lon="5.80236">
        <ele>248</ele>
        <time>2010-05-07T13:29:45Z</time>
      </trkpt>
      <trkpt lat="47.05036" lon="5.80251">
        <ele>248</ele>
        <time>2010-05-07T13:29:47Z</time>
      </trkpt>
      <trkpt lat="47.05047" lon="5.80265">
        <ele>248</ele>
        <time>2010-05-07T13:29:49Z</time>
      </trkpt>
      <trkpt lat="47.05058" lon="5.80279">
        <ele>248</ele>
        <time>2010-05-07T13:29:51Z</time>
      </trkpt>
      <trkpt lat="47.0507" lon="5.80294">
        <ele>248</ele>
        <time>2010-05-07T13:29:53Z</time>
      </trkpt>
      <trkpt lat="47.05081" lon="5.80308">
        <ele>248</ele>
        <time>2010-05-07T13:29:55Z</time>
      </trkpt>
      <trkpt lat="47.05092" lon="5.80323">
        <ele>248</ele>
        <time>2010-05-07T13:29:57Z</time>
      </trkpt>
      <trkpt lat="47.05104" lon="5.80337">
        <ele>248</ele>
        <time>2010-05-07T13:29:59Z</time>
      </trkpt>
      <trkpt lat="47.05114" lon="5.80349">
        <ele>248</ele>
        <time>2010-05-07T13:30:01Z</time>
      </trkpt>
      <trkpt lat="47.05125" lon="5.80363">
        <ele>248</ele>
        <time>2010-05-07T13:30:03Z</time>
      </trkpt>
      <trkpt lat="47.05135" lon="5.80375">
        <ele>248</ele>
        <time>2010-05-07T13:30:05Z</time>
      </trkpt>
      <trkpt lat="47.05145" lon="5.80386">
        <ele>248</ele>
        <time>2010-05-07T13:30:07Z</time>
      </trkpt>
      <trkpt lat="47.05156" lon="5.80396">
        <ele>248</ele>
        <time>2010-05-07T13:30:09Z</time>
      </trkpt>
      <trkpt lat="47.05166" lon="5.80405">
        <ele>248</ele>
        <time>2010-05-07T13:30:11Z</time>
      </trkpt>
      <trkpt lat="47.05176" lon="5.80413">
        <ele>248</ele>
        <time>2010-05-07T13:30:13Z</time>
      </trkpt>
      <trkpt lat="47.05186" lon="5.80422">
        <ele>248</ele>
        <time>2010-05-07T13:30:15Z</time>
      </trkpt>
      <trkpt lat="47.05196" lon="5.80431">
        <ele>248</ele>
        <time>2010-05-07T13:30:17Z</time>
      </trkpt>
      <trkpt lat="47.05207" lon="5.80439">
        <ele>248</ele>
        <time>2010-05-07T13:30:19Z</time>
      </trkpt>
      <trkpt lat="47.05217" lon="5.80447">
        <ele>248</ele>
        <time>2010-05-07T13:30:21Z</time>
      </trkpt>
      <trkpt lat="47.05226" lon="5.80456">
        <ele>248</ele>
        <time>2010-05-07T13:30:23Z</time>
      </trkpt>
      <trkpt lat="47.05236" lon="5.80465">
        <ele>248</ele>
        <time>2010-05-07T13:30:25Z</time>
      </trkpt>
      <trkpt lat="47.05246" lon="5.80475">
        <ele>248</ele>
        <time>2010-05-07T13:30:27Z</time>
      </trkpt>
      <trkpt lat="47.05255" lon="5.80485">
        <ele>248</ele>
        <time>2010-05-07T13:30:29Z</time>
      </trkpt>
      <trkpt lat="47.05264" lon="5.80495">
        <ele>248</ele>
        <time>2010-05-07T13:30:31Z</time>
      </trkpt>
      <trkpt lat="47.05273" lon="5.80505">
        <ele>248</ele>
        <time>2010-05-07T13:30:33Z</time>
      </trkpt>
      <trkpt lat="47.05282" lon="5.80516">
        <ele>248</ele>
        <time>2010-05-07T13:30:35Z</time>
      </trkpt>
      <trkpt lat="47.05292" lon="5.80526">
        <ele>248</ele>
        <time>2010-05-07T13:30:37Z</time>
      </trkpt>
      <trkpt lat="47.05301" lon="5.80536">
        <ele>248</ele>
        <time>2010-05-07T13:30:39Z</time>
      </trkpt>
      <trkpt lat="47.0531" lon="5.80545">
        <ele>248</ele>
        <time>2010-05-07T13:30:41Z</time>
      </trkpt>
      <trkpt lat="47.05319" lon="5.80553">
        <ele>248</ele>
        <time>2010-05-07T13:30:43Z</time>
      </trkpt>
      <trkpt lat="47.05328" lon="5.80561">
        <ele>248</ele>
        <time>2010-05-07T13:30:45Z</time>
      </trkpt>
      <trkpt lat="47.05338" lon="5.80569">
        <ele>248</ele>
        <time>2010-05-07T13:30:47Z</time>
      </trkpt>
      <trkpt lat="47.05347" lon="5.80576">
        <ele>253</ele>
        <time>2010-05-07T13:30:49Z</time>
      </trkpt>
      <trkpt lat="47.05357" lon="5.80584">
        <ele>253</ele>
        <time>2010-05-07T13:30:51Z</time>
      </trkpt>
      <trkpt lat="47.05366" lon="5.80591">
        <ele>253</ele>
        <time>2010-05-07T13:30:53Z</time>
      </trkpt>
      <trkpt lat="47.05377" lon="5.80599">
        <ele>253</ele>
        <time>2010-05-07T13:30:55Z</time>
      </trkpt>
      <trkpt lat="47.05387" lon="5.80609">
        <ele>253</ele>
        <time>2010-05-07T13:30:57Z</time>
      </trkpt>
      <trkpt lat="47.05398" lon="5.80619">
        <ele>253</ele>
        <time>2010-05-07T13:30:59Z</time>
      </trkpt>
      <trkpt lat="47.05409" lon="5.80631">
        <ele>253</ele>
        <time>2010-05-07T13:31:01Z</time>
      </trkpt>
      <trkpt lat="47.05419" lon="5.80643">
        <ele>253</ele>
        <time>2010-05-07T13:31:03Z</time>
      </trkpt>
      <trkpt lat="47.05428" lon="5.80657">
        <ele>253</ele>
        <time>2010-05-07T13:31:05Z</time>
      </trkpt>
      <trkpt lat="47.05438" lon="5.80671">
        <ele>253</ele>
        <time>2010-05-07T13:31:07Z</time>
      </trkpt>
      <trkpt lat="47.05449" lon="5.80685">
        <ele>253</ele>
        <time>2010-05-07T13:31:09Z</time>
      </trkpt>
      <trkpt lat="47.05459" lon="5.80699">
        <ele>253</ele>
        <time>2010-05-07T13:31:11Z</time>
      </trkpt>
      <trkpt lat="47.05469" lon="5.80713">
        <ele>253</ele>
        <time>2010-05-07T13:31:13Z</time>
      </trkpt>
      <trkpt lat="47.05479" lon="5.80727">
        <ele>253</ele>
        <time>2010-05-07T13:31:15Z</time>
      </trkpt>
      <trkpt lat="47.05489" lon="5.8074">
        <ele>253</ele>
        <time>2010-05-07T13:31:17Z</time>
      </trkpt>
      <trkpt lat="47.055" lon="5.80753">
        <ele>253</ele>
        <time>2010-05-07T13:31:19Z</time>
      </trkpt>
      <trkpt lat="47.0551" lon="5.80765">
        <ele>253</ele>
        <time>2010-05-07T13:31:21Z</time>
      </trkpt>
      <trkpt lat="47.05521" lon="5.80778">
        <ele>253</ele>
        <time>2010-05-07T13:31:23Z</time>
      </trkpt>
      <trkpt lat="47.05531" lon="5.8079">
        <ele>253</ele>
        <time>2010-05-07T13:31:25Z</time>
      </trkpt>
      <trkpt lat="47.05541" lon="5.80801">
        <ele>253</ele>
        <time>2010-05-07T13:31:27Z</time>
      </trkpt>
      <trkpt lat="47.05551" lon="5.80813">
        <ele>253</ele>
        <time>2010-05-07T13:31:29Z</time>
      </trkpt>
      <trkpt lat="47.0556" lon="5.80825">
        <ele>253</ele>
        <time>2010-05-07T13:31:31Z</time>
      </trkpt>
      <trkpt lat="47.0557" lon="5.80835">
        <ele>253</ele>
        <time>2010-05-07T13:31:33Z</time>
      </trkpt>
      <trkpt lat="47.0558" lon="5.80847">
        <ele>253</ele>
        <time>2010-05-07T13:31:35Z</time>
      </trkpt>
      <trkpt lat="47.0559" lon="5.80858">
        <ele>253</ele>
        <time>2010-05-07T13:31:37Z</time>
      </trkpt>
      <trkpt lat="47.056" lon="5.80869">
        <ele>253</ele>
        <time>2010-05-07T13:31:39Z</time>
      </trkpt>
      <trkpt lat="47.05609" lon="5.80879">
        <ele>253</ele>
        <time>2010-05-07T13:31:41Z</time>
      </trkpt>
      <trkpt lat="47.05618" lon="5.80889">
        <ele>253</ele>
        <time>2010-05-07T13:31:43Z</time>
      </trkpt>
      <trkpt lat="47.05626" lon="5.80899">
        <ele>253</ele>
        <time>2010-05-07T13:31:45Z</time>
      </trkpt>
      <trkpt lat="47.05636" lon="5.80908">
        <ele>253</ele>
        <time>2010-05-07T13:31:47Z</time>
      </trkpt>
      <trkpt lat="47.05648" lon="5.80918">
        <ele>253</ele>
        <time>2010-05-07T13:31:49Z</time>
      </trkpt>
      <trkpt lat="47.05661" lon="5.80927">
        <ele>253</ele>
        <time>2010-05-07T13:31:51Z</time>
      </trkpt>
      <trkpt lat="47.05675" lon="5.80935">
        <ele>253</ele>
        <time>2010-05-07T13:31:53Z</time>
      </trkpt>
      <trkpt lat="47.05688" lon="5.80943">
        <ele>253</ele>
        <time>2010-05-07T13:31:55Z</time>
      </trkpt>
      <trkpt lat="47.05701" lon="5.8095">
        <ele>253</ele>
        <time>2010-05-07T13:31:57Z</time>
      </trkpt>
      <trkpt lat="47.05715" lon="5.80959">
        <ele>253</ele>
        <time>2010-05-07T13:31:59Z</time>
      </trkpt>
      <trkpt lat="47.05729" lon="5.80966">
        <ele>253</ele>
        <time>2010-05-07T13:32:01Z</time>
      </trkpt>
      <trkpt lat="47.05742" lon="5.80974">
        <ele>253</ele>
        <time>2010-05-07T13:32:03Z</time>
      </trkpt>
      <trkpt lat="47.05754" lon="5.80979">
        <ele>253</ele>
        <time>2010-05-07T13:32:05Z</time>
      </trkpt>
      <trkpt lat="47.05766" lon="5.80985">
        <ele>253</ele>
        <time>2010-05-07T13:32:07Z</time>
      </trkpt>
      <trkpt lat="47.05778" lon="5.80992">
        <ele>253</ele>
        <time>2010-05-07T13:32:09Z</time>
      </trkpt>
      <trkpt lat="47.05788" lon="5.80999">
        <ele>253</ele>
        <time>2010-05-07T13:32:11Z</time>
      </trkpt>
      <trkpt lat="47.05798" lon="5.81005">
        <ele>253</ele>
        <time>2010-05-07T13:32:13Z</time>
      </trkpt>
      <trkpt lat="47.05807" lon="5.81013">
        <ele>253</ele>
        <time>2010-05-07T13:32:15Z</time>
      </trkpt>
      <trkpt lat="47.05815" lon="5.8102">
        <ele>253</ele>
        <time>2010-05-07T13:32:17Z</time>
      </trkpt>
      <trkpt lat="47.05823" lon="5.81028">
        <ele>253</ele>
        <time>2010-05-07T13:32:19Z</time>
      </trkpt>
      <trkpt lat="47.05831" lon="5.81038">
        <ele>253</ele>
        <time>2010-05-07T13:32:21Z</time>
      </trkpt>
      <trkpt lat="47.0584" lon="5.8105">
        <ele>253</ele>
        <time>2010-05-07T13:32:23Z</time>
      </trkpt>
      <trkpt lat="47.05848" lon="5.81063">
        <ele>253</ele>
        <time>2010-05-07T13:32:25Z</time>
      </trkpt>
      <trkpt lat="47.05858" lon="5.81077">
        <ele>253</ele>
        <time>2010-05-07T13:32:27Z</time>
      </trkpt>
      <trkpt lat="47.05868" lon="5.81092">
        <ele>253</ele>
        <time>2010-05-07T13:32:29Z</time>
      </trkpt>
      <trkpt lat="47.05878" lon="5.81108">
        <ele>253</ele>
        <time>2010-05-07T13:32:31Z</time>
      </trkpt>
      <trkpt lat="47.05889" lon="5.81122">
        <ele>253</ele>
        <time>2010-05-07T13:32:33Z</time>
      </trkpt>
      <trkpt lat="47.059" lon="5.81137">
        <ele>253</ele>
        <time>2010-05-07T13:32:35Z</time>
      </trkpt>
      <trkpt lat="47.0591" lon="5.81153">
        <ele>253</ele>
        <time>2010-05-07T13:32:37Z</time>
      </trkpt>
      <trkpt lat="47.0592" lon="5.8117">
        <ele>253</ele>
        <time>2010-05-07T13:32:39Z</time>
      </trkpt>
      <trkpt lat="47.05929" lon="5.81187">
        <ele>253</ele>
        <time>2010-05-07T13:32:41Z</time>
      </trkpt>
      <trkpt lat="47.05936" lon="5.81205">
        <ele>253</ele>
        <time>2010-05-07T13:32:43Z</time>
      </trkpt>
      <trkpt lat="47.05942" lon="5.81223">
        <ele>253</ele>
        <time>2010-05-07T13:32:45Z</time>
      </trkpt>
      <trkpt lat="47.05948" lon="5.81241">
        <ele>253</ele>
        <time>2010-05-07T13:32:47Z</time>
      </trkpt>
      <trkpt lat="47.05955" lon="5.81258">
        <ele>253</ele>
        <time>2010-05-07T13:32:49Z</time>
      </trkpt>
      <trkpt lat="47.05962" lon="5.81275">
        <ele>253</ele>
        <time>2010-05-07T13:32:51Z</time>
      </trkpt>
      <trkpt lat="47.05969" lon="5.81291">
        <ele>253</ele>
        <time>2010-05-07T13:32:53Z</time>
      </trkpt>
      <trkpt lat="47.05977" lon="5.81306">
        <ele>253</ele>
        <time>2010-05-07T13:32:55Z</time>
      </trkpt>
      <trkpt lat="47.05984" lon="5.81321">
        <ele>253</ele>
        <time>2010-05-07T13:32:57Z</time>
      </trkpt>
      <trkpt lat="47.05991" lon="5.81334">
        <ele>253</ele>
        <time>2010-05-07T13:32:59Z</time>
      </trkpt>
      <trkpt lat="47.05998" lon="5.81347">
        <ele>253</ele>
        <time>2010-05-07T13:33:01Z</time>
      </trkpt>
      <trkpt lat="47.06004" lon="5.81362">
        <ele>253</ele>
        <time>2010-05-07T13:33:03Z</time>
      </trkpt>
      <trkpt lat="47.06013" lon="5.81375">
        <ele>253</ele>
        <time>2010-05-07T13:33:05Z</time>
      </trkpt>
      <trkpt lat="47.0602" lon="5.81392">
        <ele>253</ele>
        <time>2010-05-07T13:33:07Z</time>
      </trkpt>
      <trkpt lat="47.06025" lon="5.81411">
        <ele>253</ele>
        <time>2010-05-07T13:33:09Z</time>
      </trkpt>
      <trkpt lat="47.06032" lon="5.81429">
        <ele>253</ele>
        <time>2010-05-07T13:33:11Z</time>
      </trkpt>
      <trkpt lat="47.0604" lon="5.81447">
        <ele>253</ele>
        <time>2010-05-07T13:33:13Z</time>
      </trkpt>
      <trkpt lat="47.0605" lon="5.81462">
        <ele>253</ele>
        <time>2010-05-07T13:33:15Z</time>
      </trkpt>
      <trkpt lat="47.0606" lon="5.81476">
        <ele>253</ele>
        <time>2010-05-07T13:33:17Z</time>
      </trkpt>
      <trkpt lat="47.06069" lon="5.81492">
        <ele>253</ele>
        <time>2010-05-07T13:33:19Z</time>
      </trkpt>
      <trkpt lat="47.06078" lon="5.81507">
        <ele>253</ele>
        <time>2010-05-07T13:33:21Z</time>
      </trkpt>
      <trkpt lat="47.06088" lon="5.8152">
        <ele>253</ele>
        <time>2010-05-07T13:33:23Z</time>
      </trkpt>
      <trkpt lat="47.06096" lon="5.81533">
        <ele>248</ele>
        <time>2010-05-07T13:33:25Z</time>
      </trkpt>
      <trkpt lat="47.06104" lon="5.81544">
        <ele>248</ele>
        <time>2010-05-07T13:33:27Z</time>
      </trkpt>
      <trkpt lat="47.06111" lon="5.81553">
        <ele>248</ele>
        <time>2010-05-07T13:33:29Z</time>
      </trkpt>
      <trkpt lat="47.06125" lon="5.8156">
        <ele>248</ele>
        <time>2010-05-07T13:33:32Z</time>
      </trkpt>
      <trkpt lat="47.06136" lon="5.81565">
        <ele>248</ele>
        <time>2010-05-07T13:33:34Z</time>
      </trkpt>
      <trkpt lat="47.06145" lon="5.81572">
        <ele>248</ele>
        <time>2010-05-07T13:33:37Z</time>
      </trkpt>
      <trkpt lat="47.06154" lon="5.81576">
        <ele>255</ele>
        <time>2010-05-07T13:33:39Z</time>
      </trkpt>
      <trkpt lat="47.06166" lon="5.81582">
        <ele>255</ele>
        <time>2010-05-07T13:33:41Z</time>
      </trkpt>
      <trkpt lat="47.06177" lon="5.8159">
        <ele>255</ele>
        <time>2010-05-07T13:33:43Z</time>
      </trkpt>
      <trkpt lat="47.06188" lon="5.81596">
        <ele>255</ele>
        <time>2010-05-07T13:33:45Z</time>
      </trkpt>
      <trkpt lat="47.06199" lon="5.81602">
        <ele>255</ele>
        <time>2010-05-07T13:33:47Z</time>
      </trkpt>
      <trkpt lat="47.06209" lon="5.81605">
        <ele>255</ele>
        <time>2010-05-07T13:33:49Z</time>
      </trkpt>
      <trkpt lat="47.06218" lon="5.81608">
        <ele>255</ele>
        <time>2010-05-07T13:33:51Z</time>
      </trkpt>
      <trkpt lat="47.06231" lon="5.81611">
        <ele>255</ele>
        <time>2010-05-07T13:33:54Z</time>
      </trkpt>
      <trkpt lat="47.06241" lon="5.81612">
        <ele>255</ele>
        <time>2010-05-07T13:33:56Z</time>
      </trkpt>
      <trkpt lat="47.06251" lon="5.81614">
        <ele>255</ele>
        <time>2010-05-07T13:33:58Z</time>
      </trkpt>
      <trkpt lat="47.06263" lon="5.81616">
        <ele>255</ele>
        <time>2010-05-07T13:34:00Z</time>
      </trkpt>
      <trkpt lat="47.06274" lon="5.81617">
        <ele>255</ele>
        <time>2010-05-07T13:34:02Z</time>
      </trkpt>
      <trkpt lat="47.06285" lon="5.81621">
        <ele>255</ele>
        <time>2010-05-07T13:34:04Z</time>
      </trkpt>
      <trkpt lat="47.06296" lon="5.81623">
        <ele>255</ele>
        <time>2010-05-07T13:34:06Z</time>
      </trkpt>
      <trkpt lat="47.06306" lon="5.81628">
        <ele>255</ele>
        <time>2010-05-07T13:34:08Z</time>
      </trkpt>
      <trkpt lat="47.06316" lon="5.81633">
        <ele>255</ele>
        <time>2010-05-07T13:34:10Z</time>
      </trkpt>
      <trkpt lat="47.06326" lon="5.81639">
        <ele>255</ele>
        <time>2010-05-07T13:34:12Z</time>
      </trkpt>
      <trkpt lat="47.06336" lon="5.81645">
        <ele>255</ele>
        <time>2010-05-07T13:34:14Z</time>
      </trkpt>
      <trkpt lat="47.06347" lon="5.81649">
        <ele>255</ele>
        <time>2010-05-07T13:34:16Z</time>
      </trkpt>
      <trkpt lat="47.0636" lon="5.81653">
        <ele>255</ele>
        <time>2010-05-07T13:34:18Z</time>
      </trkpt>
      <trkpt lat="47.06373" lon="5.81655">
        <ele>255</ele>
        <time>2010-05-07T13:34:20Z</time>
      </trkpt>
      <trkpt lat="47.06388" lon="5.81657">
        <ele>255</ele>
        <time>2010-05-07T13:34:22Z</time>
      </trkpt>
      <trkpt lat="47.06401" lon="5.81655">
        <ele>255</ele>
        <time>2010-05-07T13:34:24Z</time>
      </trkpt>
      <trkpt lat="47.06415" lon="5.81654">
        <ele>255</ele>
        <time>2010-05-07T13:34:26Z</time>
      </trkpt>
      <trkpt lat="47.06428" lon="5.81652">
        <ele>255</ele>
        <time>2010-05-07T13:34:28Z</time>
      </trkpt>
      <trkpt lat="47.06442" lon="5.8165">
        <ele>255</ele>
        <time>2010-05-07T13:34:30Z</time>
      </trkpt>
      <trkpt lat="47.06455" lon="5.81648">
        <ele>255</ele>
        <time>2010-05-07T13:34:32Z</time>
      </trkpt>
      <trkpt lat="47.06468" lon="5.81648">
        <ele>255</ele>
        <time>2010-05-07T13:34:34Z</time>
      </trkpt>
      <trkpt lat="47.06482" lon="5.81648">
        <ele>255</ele>
        <time>2010-05-07T13:34:36Z</time>
      </trkpt>
      <trkpt lat="47.06497" lon="5.81653">
        <ele>255</ele>
        <time>2010-05-07T13:34:38Z</time>
      </trkpt>
      <trkpt lat="47.06511" lon="5.81658">
        <ele>255</ele>
        <time>2010-05-07T13:34:40Z</time>
      </trkpt>
      <trkpt lat="47.06525" lon="5.81666">
        <ele>250</ele>
        <time>2010-05-07T13:34:42Z</time>
      </trkpt>
      <trkpt lat="47.06539" lon="5.81676">
        <ele>250</ele>
        <time>2010-05-07T13:34:44Z</time>
      </trkpt>
      <trkpt lat="47.06551" lon="5.81687">
        <ele>250</ele>
        <time>2010-05-07T13:34:46Z</time>
      </trkpt>
      <trkpt lat="47.06562" lon="5.817">
        <ele>250</ele>
        <time>2010-05-07T13:34:48Z</time>
      </trkpt>
      <trkpt lat="47.06574" lon="5.8171">
        <ele>250</ele>
        <time>2010-05-07T13:34:50Z</time>
      </trkpt>
      <trkpt lat="47.06584" lon="5.81722">
        <ele>250</ele>
        <time>2010-05-07T13:34:52Z</time>
      </trkpt>
      <trkpt lat="47.06595" lon="5.81733">
        <ele>250</ele>
        <time>2010-05-07T13:34:54Z</time>
      </trkpt>
      <trkpt lat="47.06605" lon="5.81745">
        <ele>250</ele>
        <time>2010-05-07T13:34:56Z</time>
      </trkpt>
      <trkpt lat="47.06615" lon="5.81755">
        <ele>250</ele>
        <time>2010-05-07T13:34:58Z</time>
      </trkpt>
      <trkpt lat="47.06625" lon="5.81766">
        <ele>250</ele>
        <time>2010-05-07T13:35:00Z</time>
      </trkpt>
      <trkpt lat="47.06635" lon="5.81777">
        <ele>250</ele>
        <time>2010-05-07T13:35:02Z</time>
      </trkpt>
      <trkpt lat="47.06645" lon="5.81789">
        <ele>250</ele>
        <time>2010-05-07T13:35:04Z</time>
      </trkpt>
      <trkpt lat="47.06654" lon="5.81801">
        <ele>250</ele>
        <time>2010-05-07T13:35:06Z</time>
      </trkpt>
      <trkpt lat="47.06663" lon="5.81813">
        <ele>250</ele>
        <time>2010-05-07T13:35:08Z</time>
      </trkpt>
      <trkpt lat="47.06672" lon="5.81825">
        <ele>250</ele>
        <time>2010-05-07T13:35:10Z</time>
      </trkpt>
      <trkpt lat="47.06681" lon="5.81836">
        <ele>250</ele>
        <time>2010-05-07T13:35:12Z</time>
      </trkpt>
      <trkpt lat="47.06691" lon="5.81848">
        <ele>250</ele>
        <time>2010-05-07T13:35:14Z</time>
      </trkpt>
      <trkpt lat="47.06701" lon="5.81859">
        <ele>250</ele>
        <time>2010-05-07T13:35:16Z</time>
      </trkpt>
      <trkpt lat="47.06711" lon="5.81869">
        <ele>250</ele>
        <time>2010-05-07T13:35:18Z</time>
      </trkpt>
      <trkpt lat="47.0672" lon="5.81879">
        <ele>250</ele>
        <time>2010-05-07T13:35:20Z</time>
      </trkpt>
      <trkpt lat="47.06729" lon="5.81887">
        <ele>250</ele>
        <time>2010-05-07T13:35:22Z</time>
      </trkpt>
      <trkpt lat="47.06738" lon="5.81895">
        <ele>250</ele>
        <time>2010-05-07T13:35:24Z</time>
      </trkpt>
      <trkpt lat="47.06747" lon="5.81903">
        <ele>250</ele>
        <time>2010-05-07T13:35:26Z</time>
      </trkpt>
      <trkpt lat="47.06756" lon="5.81911">
        <ele>250</ele>
        <time>2010-05-07T13:35:28Z</time>
      </trkpt>
      <trkpt lat="47.06765" lon="5.81918">
        <ele>250</ele>
        <time>2010-05-07T13:35:30Z</time>
      </trkpt>
      <trkpt lat="47.06774" lon="5.81926">
        <ele>255</ele>
        <time>2010-05-07T13:35:32Z</time>
      </trkpt>
      <trkpt lat="47.06784" lon="5.81934">
        <ele>255</ele>
        <time>2010-05-07T13:35:34Z</time>
      </trkpt>
      <trkpt lat="47.06794" lon="5.81943">
        <ele>255</ele>
        <time>2010-05-07T13:35:36Z</time>
      </trkpt>
      <trkpt lat="47.06803" lon="5.81951">
        <ele>255</ele>
        <time>2010-05-07T13:35:38Z</time>
      </trkpt>
      <trkpt lat="47.06812" lon="5.8196">
        <ele>255</ele>
        <time>2010-05-07T13:35:40Z</time>
      </trkpt>
      <trkpt lat="47.06821" lon="5.81967">
        <ele>255</ele>
        <time>2010-05-07T13:35:42Z</time>
      </trkpt>
      <trkpt lat="47.06831" lon="5.81976">
        <ele>255</ele>
        <time>2010-05-07T13:35:44Z</time>
      </trkpt>
      <trkpt lat="47.06842" lon="5.81983">
        <ele>255</ele>
        <time>2010-05-07T13:35:46Z</time>
      </trkpt>
      <trkpt lat="47.06853" lon="5.8199">
        <ele>255</ele>
        <time>2010-05-07T13:35:48Z</time>
      </trkpt>
      <trkpt lat="47.06864" lon="5.81997">
        <ele>255</ele>
        <time>2010-05-07T13:35:50Z</time>
      </trkpt>
      <trkpt lat="47.06877" lon="5.82004">
        <ele>255</ele>
        <time>2010-05-07T13:35:52Z</time>
      </trkpt>
      <trkpt lat="47.06889" lon="5.8201">
        <ele>255</ele>
        <time>2010-05-07T13:35:54Z</time>
      </trkpt>
      <trkpt lat="47.06901" lon="5.82016">
        <ele>255</ele>
        <time>2010-05-07T13:35:56Z</time>
      </trkpt>
      <trkpt lat="47.06913" lon="5.8202">
        <ele>255</ele>
        <time>2010-05-07T13:35:58Z</time>
      </trkpt>
      <trkpt lat="47.06924" lon="5.82023">
        <ele>255</ele>
        <time>2010-05-07T13:36:00Z</time>
      </trkpt>
      <trkpt lat="47.06937" lon="5.82027">
        <ele>255</ele>
        <time>2010-05-07T13:36:02Z</time>
      </trkpt>
      <trkpt lat="47.06949" lon="5.82029">
        <ele>255</ele>
        <time>2010-05-07T13:36:04Z</time>
      </trkpt>
      <trkpt lat="47.06961" lon="5.82032">
        <ele>255</ele>
        <time>2010-05-07T13:36:06Z</time>
      </trkpt>
      <trkpt lat="47.06973" lon="5.82036">
        <ele>255</ele>
        <time>2010-05-07T13:36:08Z</time>
      </trkpt>
      <trkpt lat="47.06985" lon="5.82038">
        <ele>255</ele>
        <time>2010-05-07T13:36:10Z</time>
      </trkpt>
      <trkpt lat="47.06997" lon="5.82043">
        <ele>255</ele>
        <time>2010-05-07T13:36:12Z</time>
      </trkpt>
      <trkpt lat="47.07009" lon="5.82047">
        <ele>255</ele>
        <time>2010-05-07T13:36:14Z</time>
      </trkpt>
      <trkpt lat="47.07021" lon="5.82052">
        <ele>255</ele>
        <time>2010-05-07T13:36:16Z</time>
      </trkpt>
      <trkpt lat="47.07032" lon="5.82057">
        <ele>255</ele>
        <time>2010-05-07T13:36:18Z</time>
      </trkpt>
      <trkpt lat="47.07043" lon="5.82062">
        <ele>255</ele>
        <time>2010-05-07T13:36:20Z</time>
      </trkpt>
      <trkpt lat="47.07055" lon="5.82066">
        <ele>255</ele>
        <time>2010-05-07T13:36:22Z</time>
      </trkpt>
      <trkpt lat="47.07066" lon="5.82071">
        <ele>255</ele>
        <time>2010-05-07T13:36:24Z</time>
      </trkpt>
      <trkpt lat="47.07077" lon="5.82074">
        <ele>255</ele>
        <time>2010-05-07T13:36:26Z</time>
      </trkpt>
      <trkpt lat="47.07088" lon="5.82079">
        <ele>255</ele>
        <time>2010-05-07T13:36:28Z</time>
      </trkpt>
      <trkpt lat="47.07098" lon="5.82082">
        <ele>255</ele>
        <time>2010-05-07T13:36:30Z</time>
      </trkpt>
      <trkpt lat="47.07108" lon="5.82087">
        <ele>255</ele>
        <time>2010-05-07T13:36:32Z</time>
      </trkpt>
      <trkpt lat="47.07117" lon="5.82091">
        <ele>255</ele>
        <time>2010-05-07T13:36:34Z</time>
      </trkpt>
      <trkpt lat="47.07126" lon="5.82097">
        <ele>255</ele>
        <time>2010-05-07T13:36:36Z</time>
      </trkpt>
      <trkpt lat="47.07135" lon="5.82103">
        <ele>255</ele>
        <time>2010-05-07T13:36:38Z</time>
      </trkpt>
      <trkpt lat="47.07144" lon="5.82109">
        <ele>255</ele>
        <time>2010-05-07T13:36:40Z</time>
      </trkpt>
      <trkpt lat="47.07152" lon="5.82116">
        <ele>255</ele>
        <time>2010-05-07T13:36:42Z</time>
      </trkpt>
      <trkpt lat="47.0716" lon="5.82123">
        <ele>255</ele>
        <time>2010-05-07T13:36:44Z</time>
      </trkpt>
      <trkpt lat="47.07169" lon="5.82131">
        <ele>255</ele>
        <time>2010-05-07T13:36:46Z</time>
      </trkpt>
      <trkpt lat="47.07178" lon="5.82138">
        <ele>261</ele>
        <time>2010-05-07T13:36:48Z</time>
      </trkpt>
      <trkpt lat="47.07187" lon="5.82146">
        <ele>261</ele>
        <time>2010-05-07T13:36:50Z</time>
      </trkpt>
      <trkpt lat="47.07196" lon="5.82154">
        <ele>261</ele>
        <time>2010-05-07T13:36:52Z</time>
      </trkpt>
      <trkpt lat="47.07205" lon="5.82161">
        <ele>261</ele>
        <time>2010-05-07T13:36:54Z</time>
      </trkpt>
      <trkpt lat="47.07214" lon="5.82169">
        <ele>261</ele>
        <time>2010-05-07T13:36:56Z</time>
      </trkpt>
      <trkpt lat="47.07223" lon="5.82176">
        <ele>261</ele>
        <time>2010-05-07T13:36:58Z</time>
      </trkpt>
      <trkpt lat="47.07233" lon="5.82183">
        <ele>261</ele>
        <time>2010-05-07T13:37:00Z</time>
      </trkpt>
      <trkpt lat="47.07242" lon="5.8219">
        <ele>261</ele>
        <time>2010-05-07T13:37:02Z</time>
      </trkpt>
      <trkpt lat="47.07252" lon="5.82196">
        <ele>261</ele>
        <time>2010-05-07T13:37:04Z</time>
      </trkpt>
      <trkpt lat="47.0726" lon="5.82203">
        <ele>261</ele>
        <time>2010-05-07T13:37:06Z</time>
      </trkpt>
      <trkpt lat="47.07269" lon="5.82209">
        <ele>267</ele>
        <time>2010-05-07T13:37:08Z</time>
      </trkpt>
      <trkpt lat="47.07277" lon="5.82216">
        <ele>267</ele>
        <time>2010-05-07T13:37:10Z</time>
      </trkpt>
      <trkpt lat="47.0729" lon="5.82225">
        <ele>267</ele>
        <time>2010-05-07T13:37:13Z</time>
      </trkpt>
      <trkpt lat="47.07299" lon="5.82232">
        <ele>267</ele>
        <time>2010-05-07T13:37:15Z</time>
      </trkpt>
      <trkpt lat="47.07309" lon="5.82239">
        <ele>267</ele>
        <time>2010-05-07T13:37:17Z</time>
      </trkpt>
      <trkpt lat="47.07318" lon="5.82246">
        <ele>267</ele>
        <time>2010-05-07T13:37:19Z</time>
      </trkpt>
      <trkpt lat="47.07328" lon="5.82253">
        <ele>267</ele>
        <time>2010-05-07T13:37:21Z</time>
      </trkpt>
      <trkpt lat="47.07337" lon="5.8226">
        <ele>267</ele>
        <time>2010-05-07T13:37:23Z</time>
      </trkpt>
      <trkpt lat="47.07346" lon="5.82266">
        <ele>267</ele>
        <time>2010-05-07T13:37:25Z</time>
      </trkpt>
      <trkpt lat="47.07355" lon="5.82272">
        <ele>267</ele>
        <time>2010-05-07T13:37:27Z</time>
      </trkpt>
      <trkpt lat="47.07364" lon="5.82277">
        <ele>267</ele>
        <time>2010-05-07T13:37:29Z</time>
      </trkpt>
      <trkpt lat="47.07374" lon="5.82281">
        <ele>267</ele>
        <time>2010-05-07T13:37:31Z</time>
      </trkpt>
      <trkpt lat="47.07385" lon="5.82284">
        <ele>267</ele>
        <time>2010-05-07T13:37:33Z</time>
      </trkpt>
      <trkpt lat="47.07398" lon="5.82284">
        <ele>267</ele>
        <time>2010-05-07T13:37:35Z</time>
      </trkpt>
      <trkpt lat="47.07412" lon="5.82284">
        <ele>267</ele>
        <time>2010-05-07T13:37:37Z</time>
      </trkpt>
      <trkpt lat="47.07426" lon="5.82284">
        <ele>267</ele>
        <time>2010-05-07T13:37:39Z</time>
      </trkpt>
      <trkpt lat="47.07442" lon="5.82287">
        <ele>267</ele>
        <time>2010-05-07T13:37:41Z</time>
      </trkpt>
      <trkpt lat="47.07458" lon="5.82293">
        <ele>267</ele>
        <time>2010-05-07T13:37:43Z</time>
      </trkpt>
      <trkpt lat="47.07474" lon="5.82303">
        <ele>267</ele>
        <time>2010-05-07T13:37:45Z</time>
      </trkpt>
      <trkpt lat="47.07488" lon="5.82314">
        <ele>267</ele>
        <time>2010-05-07T13:37:47Z</time>
      </trkpt>
      <trkpt lat="47.07502" lon="5.82326">
        <ele>267</ele>
        <time>2010-05-07T13:37:49Z</time>
      </trkpt>
      <trkpt lat="47.07515" lon="5.82337">
        <ele>267</ele>
        <time>2010-05-07T13:37:51Z</time>
      </trkpt>
      <trkpt lat="47.07528" lon="5.82348">
        <ele>267</ele>
        <time>2010-05-07T13:37:53Z</time>
      </trkpt>
      <trkpt lat="47.07539" lon="5.82359">
        <ele>267</ele>
        <time>2010-05-07T13:37:55Z</time>
      </trkpt>
      <trkpt lat="47.07551" lon="5.82372">
        <ele>267</ele>
        <time>2010-05-07T13:37:57Z</time>
      </trkpt>
      <trkpt lat="47.07562" lon="5.82382">
        <ele>267</ele>
        <time>2010-05-07T13:37:59Z</time>
      </trkpt>
      <trkpt lat="47.07572" lon="5.82392">
        <ele>267</ele>
        <time>2010-05-07T13:38:01Z</time>
      </trkpt>
      <trkpt lat="47.07581" lon="5.824">
        <ele>267</ele>
        <time>2010-05-07T13:38:03Z</time>
      </trkpt>
      <trkpt lat="47.07589" lon="5.82407">
        <ele>267</ele>
        <time>2010-05-07T13:38:05Z</time>
      </trkpt>
      <trkpt lat="47.07598" lon="5.82413">
        <ele>267</ele>
        <time>2010-05-07T13:38:07Z</time>
      </trkpt>
      <trkpt lat="47.0761" lon="5.8242">
        <ele>267</ele>
        <time>2010-05-07T13:38:10Z</time>
      </trkpt>
      <trkpt lat="47.07619" lon="5.82425">
        <ele>267</ele>
        <time>2010-05-07T13:38:12Z</time>
      </trkpt>
      <trkpt lat="47.07627" lon="5.82428">
        <ele>267</ele>
        <time>2010-05-07T13:38:14Z</time>
      </trkpt>
      <trkpt lat="47.07639" lon="5.82432">
        <ele>272</ele>
        <time>2010-05-07T13:38:17Z</time>
      </trkpt>
      <trkpt lat="47.07652" lon="5.82434">
        <ele>272</ele>
        <time>2010-05-07T13:38:20Z</time>
      </trkpt>
      <trkpt lat="47.07662" lon="5.82435">
        <ele>272</ele>
        <time>2010-05-07T13:38:22Z</time>
      </trkpt>
      <trkpt lat="47.07675" lon="5.82436">
        <ele>272</ele>
        <time>2010-05-07T13:38:25Z</time>
      </trkpt>
      <trkpt lat="47.07689" lon="5.82436">
        <ele>272</ele>
        <time>2010-05-07T13:38:28Z</time>
      </trkpt>
      <trkpt lat="47.07701" lon="5.82435">
        <ele>272</ele>
        <time>2010-05-07T13:38:31Z</time>
      </trkpt>
      <trkpt lat="47.07714" lon="5.82434">
        <ele>272</ele>
        <time>2010-05-07T13:38:34Z</time>
      </trkpt>
      <trkpt lat="47.07727" lon="5.82434">
        <ele>272</ele>
        <time>2010-05-07T13:38:37Z</time>
      </trkpt>
      <trkpt lat="47.07738" lon="5.82433">
        <ele>272</ele>
        <time>2010-05-07T13:38:40Z</time>
      </trkpt>
      <trkpt lat="47.0775" lon="5.82431">
        <ele>272</ele>
        <time>2010-05-07T13:38:43Z</time>
      </trkpt>
      <trkpt lat="47.07762" lon="5.82429">
        <ele>272</ele>
        <time>2010-05-07T13:38:46Z</time>
      </trkpt>
      <trkpt lat="47.07774" lon="5.82428">
        <ele>272</ele>
        <time>2010-05-07T13:38:49Z</time>
      </trkpt>
      <trkpt lat="47.07787" lon="5.82426">
        <ele>272</ele>
        <time>2010-05-07T13:38:52Z</time>
      </trkpt>
      <trkpt lat="47.07799" lon="5.82425">
        <ele>277</ele>
        <time>2010-05-07T13:38:55Z</time>
      </trkpt>
      <trkpt lat="47.07811" lon="5.82423">
        <ele>277</ele>
        <time>2010-05-07T13:38:58Z</time>
      </trkpt>
      <trkpt lat="47.07822" lon="5.82422">
        <ele>277</ele>
        <time>2010-05-07T13:39:01Z</time>
      </trkpt>
      <trkpt lat="47.07833" lon="5.82423">
        <ele>277</ele>
        <time>2010-05-07T13:39:04Z</time>
      </trkpt>
      <trkpt lat="47.07844" lon="5.82425">
        <ele>277</ele>
        <time>2010-05-07T13:39:07Z</time>
      </trkpt>
      <trkpt lat="47.07854" lon="5.82429">
        <ele>277</ele>
        <time>2010-05-07T13:39:10Z</time>
      </trkpt>
      <trkpt lat="47.07865" lon="5.82434">
        <ele>277</ele>
        <time>2010-05-07T13:39:13Z</time>
      </trkpt>
      <trkpt lat="47.07874" lon="5.8244">
        <ele>277</ele>
        <time>2010-05-07T13:39:15Z</time>
      </trkpt>
      <trkpt lat="47.07883" lon="5.82445">
        <ele>277</ele>
        <time>2010-05-07T13:39:17Z</time>
      </trkpt>
      <trkpt lat="47.07893" lon="5.82452">
        <ele>277</ele>
        <time>2010-05-07T13:39:19Z</time>
      </trkpt>
      <trkpt lat="47.07903" lon="5.8246">
        <ele>277</ele>
        <time>2010-05-07T13:39:21Z</time>
      </trkpt>
      <trkpt lat="47.07914" lon="5.82467">
        <ele>277</ele>
        <time>2010-05-07T13:39:23Z</time>
      </trkpt>
      <trkpt lat="47.07927" lon="5.82474">
        <ele>277</ele>
        <time>2010-05-07T13:39:25Z</time>
      </trkpt>
      <trkpt lat="47.07939" lon="5.82482">
        <ele>283</ele>
        <time>2010-05-07T13:39:27Z</time>
      </trkpt>
      <trkpt lat="47.07952" lon="5.8249">
        <ele>283</ele>
        <time>2010-05-07T13:39:29Z</time>
      </trkpt>
      <trkpt lat="47.07964" lon="5.82498">
        <ele>283</ele>
        <time>2010-05-07T13:39:31Z</time>
      </trkpt>
      <trkpt lat="47.07974" lon="5.82505">
        <ele>289</ele>
        <time>2010-05-07T13:39:33Z</time>
      </trkpt>
      <trkpt lat="47.07984" lon="5.82513">
        <ele>289</ele>
        <time>2010-05-07T13:39:35Z</time>
      </trkpt>
      <trkpt lat="47.07994" lon="5.82523">
        <ele>289</ele>
        <time>2010-05-07T13:39:37Z</time>
      </trkpt>
      <trkpt lat="47.08004" lon="5.8253">
        <ele>289</ele>
        <time>2010-05-07T13:39:39Z</time>
      </trkpt>
      <trkpt lat="47.08016" lon="5.82537">
        <ele>289</ele>
        <time>2010-05-07T13:39:41Z</time>
      </trkpt>
      <trkpt lat="47.08026" lon="5.82542">
        <ele>289</ele>
        <time>2010-05-07T13:39:43Z</time>
      </trkpt>
      <trkpt lat="47.08036" lon="5.82548">
        <ele>289</ele>
        <time>2010-05-07T13:39:45Z</time>
      </trkpt>
      <trkpt lat="47.08048" lon="5.82553">
        <ele>289</ele>
        <time>2010-05-07T13:39:47Z</time>
      </trkpt>
      <trkpt lat="47.08059" lon="5.82559">
        <ele>289</ele>
        <time>2010-05-07T13:39:49Z</time>
      </trkpt>
      <trkpt lat="47.0807" lon="5.82567">
        <ele>289</ele>
        <time>2010-05-07T13:39:51Z</time>
      </trkpt>
      <trkpt lat="47.08083" lon="5.82574">
        <ele>289</ele>
        <time>2010-05-07T13:39:53Z</time>
      </trkpt>
      <trkpt lat="47.08094" lon="5.8258">
        <ele>289</ele>
        <time>2010-05-07T13:39:55Z</time>
      </trkpt>
      <trkpt lat="47.08105" lon="5.82587">
        <ele>289</ele>
        <time>2010-05-07T13:39:57Z</time>
      </trkpt>
      <trkpt lat="47.08114" lon="5.82593">
        <ele>289</ele>
        <time>2010-05-07T13:39:59Z</time>
      </trkpt>
      <trkpt lat="47.08129" lon="5.82597">
        <ele>280</ele>
        <time>2010-05-07T13:40:03Z</time>
      </trkpt>
      <trkpt lat="47.08141" lon="5.8261">
        <ele>280</ele>
        <time>2010-05-07T13:40:05Z</time>
      </trkpt>
      <trkpt lat="47.08155" lon="5.82622">
        <ele>280</ele>
        <time>2010-05-07T13:40:07Z</time>
      </trkpt>
      <trkpt lat="47.0817" lon="5.82628">
        <ele>280</ele>
        <time>2010-05-07T13:40:09Z</time>
      </trkpt>
      <trkpt lat="47.08183" lon="5.82631">
        <ele>280</ele>
        <time>2010-05-07T13:40:11Z</time>
      </trkpt>
      <trkpt lat="47.08195" lon="5.82632">
        <ele>280</ele>
        <time>2010-05-07T13:40:13Z</time>
      </trkpt>
      <trkpt lat="47.08206" lon="5.82629">
        <ele>280</ele>
        <time>2010-05-07T13:40:15Z</time>
      </trkpt>
      <trkpt lat="47.08217" lon="5.82627">
        <ele>280</ele>
        <time>2010-05-07T13:40:17Z</time>
      </trkpt>
      <trkpt lat="47.08229" lon="5.82624">
        <ele>280</ele>
        <time>2010-05-07T13:40:19Z</time>
      </trkpt>
      <trkpt lat="47.08242" lon="5.8262">
        <ele>280</ele>
        <time>2010-05-07T13:40:21Z</time>
      </trkpt>
      <trkpt lat="47.08257" lon="5.82616">
        <ele>280</ele>
        <time>2010-05-07T13:40:23Z</time>
      </trkpt>
      <trkpt lat="47.08273" lon="5.82611">
        <ele>280</ele>
        <time>2010-05-07T13:40:25Z</time>
      </trkpt>
      <trkpt lat="47.0829" lon="5.82606">
        <ele>280</ele>
        <time>2010-05-07T13:40:27Z</time>
      </trkpt>
      <trkpt lat="47.083" lon="5.82603">
        <ele>280</ele>
        <time>2010-05-07T13:40:28Z</time>
      </trkpt>
      <trkpt lat="47.08308" lon="5.826">
        <ele>280</ele>
        <time>2010-05-07T13:40:29Z</time>
      </trkpt>
      <trkpt lat="47.08325" lon="5.82594">
        <ele>280</ele>
        <time>2010-05-07T13:40:31Z</time>
      </trkpt>
      <trkpt lat="47.0834" lon="5.82588">
        <ele>280</ele>
        <time>2010-05-07T13:40:33Z</time>
      </trkpt>
      <trkpt lat="47.08355" lon="5.82582">
        <ele>280</ele>
        <time>2010-05-07T13:40:35Z</time>
      </trkpt>
      <trkpt lat="47.08368" lon="5.82575">
        <ele>280</ele>
        <time>2010-05-07T13:40:37Z</time>
      </trkpt>
      <trkpt lat="47.08383" lon="5.82566">
        <ele>280</ele>
        <time>2010-05-07T13:40:39Z</time>
      </trkpt>
      <trkpt lat="47.08395" lon="5.82561">
        <ele>280</ele>
        <time>2010-05-07T13:40:41Z</time>
      </trkpt>
      <trkpt lat="47.08408" lon="5.82554">
        <ele>280</ele>
        <time>2010-05-07T13:40:43Z</time>
      </trkpt>
      <trkpt lat="47.08417" lon="5.82549">
        <ele>280</ele>
        <time>2010-05-07T13:40:45Z</time>
      </trkpt>
      <trkpt lat="47.08425" lon="5.82543">
        <ele>280</ele>
        <time>2010-05-07T13:40:47Z</time>
      </trkpt>
      <trkpt lat="47.08435" lon="5.82535">
        <ele>280</ele>
        <time>2010-05-07T13:40:49Z</time>
      </trkpt>
      <trkpt lat="47.08445" lon="5.82527">
        <ele>280</ele>
        <time>2010-05-07T13:40:51Z</time>
      </trkpt>
      <trkpt lat="47.08457" lon="5.82515">
        <ele>275</ele>
        <time>2010-05-07T13:40:54Z</time>
      </trkpt>
      <trkpt lat="47.08467" lon="5.82507">
        <ele>268</ele>
        <time>2010-05-07T13:40:56Z</time>
      </trkpt>
      <trkpt lat="47.08475" lon="5.82501">
        <ele>262</ele>
        <time>2010-05-07T13:40:58Z</time>
      </trkpt>
      <trkpt lat="47.08487" lon="5.82494">
        <ele>262</ele>
        <time>2010-05-07T13:41:01Z</time>
      </trkpt>
      <trkpt lat="47.08501" lon="5.82484">
        <ele>248</ele>
        <time>2010-05-07T13:41:05Z</time>
      </trkpt>
      <trkpt lat="47.08511" lon="5.82478">
        <ele>248</ele>
        <time>2010-05-07T13:41:07Z</time>
      </trkpt>
      <trkpt lat="47.08521" lon="5.82474">
        <ele>248</ele>
        <time>2010-05-07T13:41:09Z</time>
      </trkpt>
      <trkpt lat="47.08531" lon="5.82472">
        <ele>248</ele>
        <time>2010-05-07T13:41:12Z</time>
      </trkpt>
      <trkpt lat="47.08541" lon="5.82468">
        <ele>264</ele>
        <time>2010-05-07T13:41:15Z</time>
      </trkpt>
      <trkpt lat="47.0855" lon="5.82461">
        <ele>264</ele>
        <time>2010-05-07T13:41:17Z</time>
      </trkpt>
      <trkpt lat="47.08562" lon="5.82455">
        <ele>271</ele>
        <time>2010-05-07T13:41:20Z</time>
      </trkpt>
      <trkpt lat="47.08572" lon="5.8245">
        <ele>281</ele>
        <time>2010-05-07T13:41:23Z</time>
      </trkpt>
      <trkpt lat="47.08583" lon="5.82448">
        <ele>291</ele>
        <time>2010-05-07T13:41:26Z</time>
      </trkpt>
      <trkpt lat="47.08594" lon="5.82444">
        <ele>300</ele>
        <time>2010-05-07T13:41:30Z</time>
      </trkpt>
      <trkpt lat="47.08606" lon="5.82439">
        <ele>306</ele>
        <time>2010-05-07T13:41:33Z</time>
      </trkpt>
      <trkpt lat="47.08614" lon="5.82432">
        <ele>306</ele>
        <time>2010-05-07T13:41:35Z</time>
      </trkpt>
      <trkpt lat="47.08624" lon="5.82425">
        <ele>306</ele>
        <time>2010-05-07T13:41:37Z</time>
      </trkpt>
      <trkpt lat="47.0863" lon="5.82416">
        <ele>306</ele>
        <time>2010-05-07T13:41:39Z</time>
      </trkpt>
      <trkpt lat="47.08641" lon="5.82406">
        <ele>299</ele>
        <time>2010-05-07T13:41:42Z</time>
      </trkpt>
      <trkpt lat="47.08649" lon="5.82399">
        <ele>299</ele>
        <time>2010-05-07T13:41:44Z</time>
      </trkpt>
      <trkpt lat="47.08658" lon="5.82392">
        <ele>299</ele>
        <time>2010-05-07T13:41:46Z</time>
      </trkpt>
      <trkpt lat="47.08669" lon="5.82383">
        <ele>299</ele>
        <time>2010-05-07T13:41:49Z</time>
      </trkpt>
      <trkpt lat="47.08681" lon="5.82379">
        <ele>305</ele>
        <time>2010-05-07T13:41:52Z</time>
      </trkpt>
      <trkpt lat="47.0869" lon="5.82377">
        <ele>305</ele>
        <time>2010-05-07T13:41:54Z</time>
      </trkpt>
      <trkpt lat="47.08702" lon="5.82381">
        <ele>305</ele>
        <time>2010-05-07T13:41:57Z</time>
      </trkpt>
      <trkpt lat="47.08711" lon="5.82376">
        <ele>312</ele>
        <time>2010-05-07T13:41:59Z</time>
      </trkpt>
      <trkpt lat="47.08721" lon="5.82375">
        <ele>312</ele>
        <time>2010-05-07T13:42:01Z</time>
      </trkpt>
      <trkpt lat="47.0873" lon="5.8238">
        <ele>312</ele>
        <time>2010-05-07T13:42:03Z</time>
      </trkpt>
      <trkpt lat="47.08741" lon="5.82385">
        <ele>321</ele>
        <time>2010-05-07T13:42:06Z</time>
      </trkpt>
      <trkpt lat="47.08751" lon="5.82396">
        <ele>331</ele>
        <time>2010-05-07T13:42:09Z</time>
      </trkpt>
      <trkpt lat="47.08761" lon="5.82399">
        <ele>331</ele>
        <time>2010-05-07T13:42:13Z</time>
      </trkpt>
      <trkpt lat="47.08769" lon="5.82404">
        <ele>331</ele>
        <time>2010-05-07T13:42:16Z</time>
      </trkpt>
      <trkpt lat="47.08778" lon="5.8241">
        <ele>331</ele>
        <time>2010-05-07T13:42:19Z</time>
      </trkpt>
      <trkpt lat="47.08787" lon="5.82425">
        <ele>331</ele>
        <time>2010-05-07T13:42:23Z</time>
      </trkpt>
      <trkpt lat="47.08795" lon="5.82437">
        <ele>331</ele>
        <time>2010-05-07T13:42:25Z</time>
      </trkpt>
      <trkpt lat="47.08805" lon="5.82446">
        <ele>336</ele>
        <time>2010-05-07T13:42:27Z</time>
      </trkpt>
      <trkpt lat="47.08813" lon="5.82454">
        <ele>336</ele>
        <time>2010-05-07T13:42:29Z</time>
      </trkpt>
      <trkpt lat="47.08819" lon="5.82468">
        <ele>342</ele>
        <time>2010-05-07T13:42:32Z</time>
      </trkpt>
      <trkpt lat="47.08829" lon="5.8248">
        <ele>342</ele>
        <time>2010-05-07T13:42:35Z</time>
      </trkpt>
      <trkpt lat="47.0884" lon="5.82487">
        <ele>334</ele>
        <time>2010-05-07T13:42:38Z</time>
      </trkpt>
      <trkpt lat="47.0885" lon="5.82496">
        <ele>334</ele>
        <time>2010-05-07T13:42:41Z</time>
      </trkpt>
      <trkpt lat="47.08859" lon="5.82503">
        <ele>334</ele>
        <time>2010-05-07T13:42:44Z</time>
      </trkpt>
      <trkpt lat="47.08867" lon="5.82514">
        <ele>329</ele>
        <time>2010-05-07T13:42:47Z</time>
      </trkpt>
      <trkpt lat="47.08875" lon="5.8252">
        <ele>329</ele>
        <time>2010-05-07T13:42:49Z</time>
      </trkpt>
      <trkpt lat="47.08883" lon="5.82527">
        <ele>329</ele>
        <time>2010-05-07T13:42:51Z</time>
      </trkpt>
      <trkpt lat="47.08891" lon="5.82535">
        <ele>319</ele>
        <time>2010-05-07T13:42:53Z</time>
      </trkpt>
      <trkpt lat="47.089" lon="5.82545">
        <ele>319</ele>
        <time>2010-05-07T13:42:56Z</time>
      </trkpt>
      <trkpt lat="47.08909" lon="5.82554">
        <ele>319</ele>
        <time>2010-05-07T13:42:59Z</time>
      </trkpt>
      <trkpt lat="47.08918" lon="5.82565">
        <ele>319</ele>
        <time>2010-05-07T13:43:02Z</time>
      </trkpt>
      <trkpt lat="47.08925" lon="5.82577">
        <ele>313</ele>
        <time>2010-05-07T13:43:05Z</time>
      </trkpt>
      <trkpt lat="47.08931" lon="5.8259">
        <ele>313</ele>
        <time>2010-05-07T13:43:08Z</time>
      </trkpt>
      <trkpt lat="47.08936" lon="5.82602">
        <ele>307</ele>
        <time>2010-05-07T13:43:11Z</time>
      </trkpt>
      <trkpt lat="47.08943" lon="5.82613">
        <ele>307</ele>
        <time>2010-05-07T13:43:14Z</time>
      </trkpt>
      <trkpt lat="47.08951" lon="5.82625">
        <ele>307</ele>
        <time>2010-05-07T13:43:17Z</time>
      </trkpt>
      <trkpt lat="47.08959" lon="5.82637">
        <ele>307</ele>
        <time>2010-05-07T13:43:20Z</time>
      </trkpt>
      <trkpt lat="47.08965" lon="5.82647">
        <ele>307</ele>
        <time>2010-05-07T13:43:23Z</time>
      </trkpt>
      <trkpt lat="47.08974" lon="5.82658">
        <ele>307</ele>
        <time>2010-05-07T13:43:26Z</time>
      </trkpt>
      <trkpt lat="47.08982" lon="5.82669">
        <ele>314</ele>
        <time>2010-05-07T13:43:29Z</time>
      </trkpt>
      <trkpt lat="47.0899" lon="5.82681">
        <ele>314</ele>
        <time>2010-05-07T13:43:33Z</time>
      </trkpt>
      <trkpt lat="47.08999" lon="5.82688">
        <ele>314</ele>
        <time>2010-05-07T13:43:36Z</time>
      </trkpt>
      <trkpt lat="47.0901" lon="5.82686">
        <ele>314</ele>
        <time>2010-05-07T13:43:39Z</time>
      </trkpt>
      <trkpt lat="47.0902" lon="5.82684">
        <ele>314</ele>
        <time>2010-05-07T13:43:42Z</time>
      </trkpt>
      <trkpt lat="47.0903" lon="5.82687">
        <ele>314</ele>
        <time>2010-05-07T13:43:45Z</time>
      </trkpt>
      <trkpt lat="47.09038" lon="5.82691">
        <ele>314</ele>
        <time>2010-05-07T13:43:48Z</time>
      </trkpt>
      <trkpt lat="47.09049" lon="5.82689">
        <ele>314</ele>
        <time>2010-05-07T13:43:51Z</time>
      </trkpt>
      <trkpt lat="47.09059" lon="5.82684">
        <ele>314</ele>
        <time>2010-05-07T13:43:54Z</time>
      </trkpt>
      <trkpt lat="47.09067" lon="5.82677">
        <ele>322</ele>
        <time>2010-05-07T13:43:57Z</time>
      </trkpt>
      <trkpt lat="47.09076" lon="5.82669">
        <ele>322</ele>
        <time>2010-05-07T13:44:00Z</time>
      </trkpt>
      <trkpt lat="47.09084" lon="5.82661">
        <ele>322</ele>
        <time>2010-05-07T13:44:03Z</time>
      </trkpt>
      <trkpt lat="47.09094" lon="5.82651">
        <ele>331</ele>
        <time>2010-05-07T13:44:07Z</time>
      </trkpt>
      <trkpt lat="47.09101" lon="5.8264">
        <ele>331</ele>
        <time>2010-05-07T13:44:10Z</time>
      </trkpt>
      <trkpt lat="47.0911" lon="5.82633">
        <ele>331</ele>
        <time>2010-05-07T13:44:13Z</time>
      </trkpt>
      <trkpt lat="47.09119" lon="5.82621">
        <ele>331</ele>
        <time>2010-05-07T13:44:17Z</time>
      </trkpt>
      <trkpt lat="47.09124" lon="5.82606">
        <ele>331</ele>
        <time>2010-05-07T13:44:20Z</time>
      </trkpt>
      <trkpt lat="47.09127" lon="5.82593">
        <ele>331</ele>
        <time>2010-05-07T13:44:22Z</time>
      </trkpt>
      <trkpt lat="47.09128" lon="5.82574">
        <ele>331</ele>
        <time>2010-05-07T13:44:25Z</time>
      </trkpt>
      <trkpt lat="47.09127" lon="5.82558">
        <ele>331</ele>
        <time>2010-05-07T13:44:27Z</time>
      </trkpt>
      <trkpt lat="47.09127" lon="5.82536">
        <ele>326</ele>
        <time>2010-05-07T13:44:29Z</time>
      </trkpt>
      <trkpt lat="47.09127" lon="5.82522">
        <ele>326</ele>
        <time>2010-05-07T13:44:31Z</time>
      </trkpt>
      <trkpt lat="47.09124" lon="5.82506">
        <ele>326</ele>
        <time>2010-05-07T13:44:33Z</time>
      </trkpt>
      <trkpt lat="47.09121" lon="5.82488">
        <ele>326</ele>
        <time>2010-05-07T13:44:35Z</time>
      </trkpt>
      <trkpt lat="47.09119" lon="5.82472">
        <ele>326</ele>
        <time>2010-05-07T13:44:37Z</time>
      </trkpt>
      <trkpt lat="47.09119" lon="5.82457">
        <ele>326</ele>
        <time>2010-05-07T13:44:39Z</time>
      </trkpt>
      <trkpt lat="47.09121" lon="5.82443">
        <ele>326</ele>
        <time>2010-05-07T13:44:41Z</time>
      </trkpt>
      <trkpt lat="47.09125" lon="5.82431">
        <ele>326</ele>
        <time>2010-05-07T13:44:43Z</time>
      </trkpt>
      <trkpt lat="47.09125" lon="5.82416">
        <ele>326</ele>
        <time>2010-05-07T13:44:45Z</time>
      </trkpt>
      <trkpt lat="47.09126" lon="5.82394">
        <ele>326</ele>
        <time>2010-05-07T13:44:47Z</time>
      </trkpt>
      <trkpt lat="47.09131" lon="5.82369">
        <ele>326</ele>
        <time>2010-05-07T13:44:49Z</time>
      </trkpt>
      <trkpt lat="47.09135" lon="5.82356">
        <ele>331</ele>
        <time>2010-05-07T13:44:50Z</time>
      </trkpt>
      <trkpt lat="47.09138" lon="5.82344">
        <ele>331</ele>
        <time>2010-05-07T13:44:51Z</time>
      </trkpt>
      <trkpt lat="47.09142" lon="5.82331">
        <ele>331</ele>
        <time>2010-05-07T13:44:52Z</time>
      </trkpt>
      <trkpt lat="47.09147" lon="5.82319">
        <ele>331</ele>
        <time>2010-05-07T13:44:53Z</time>
      </trkpt>
      <trkpt lat="47.09152" lon="5.82307">
        <ele>331</ele>
        <time>2010-05-07T13:44:54Z</time>
      </trkpt>
      <trkpt lat="47.09157" lon="5.82295">
        <ele>331</ele>
        <time>2010-05-07T13:44:55Z</time>
      </trkpt>
      <trkpt lat="47.09162" lon="5.82284">
        <ele>331</ele>
        <time>2010-05-07T13:44:56Z</time>
      </trkpt>
      <trkpt lat="47.09168" lon="5.82272">
        <ele>331</ele>
        <time>2010-05-07T13:44:57Z</time>
      </trkpt>
      <trkpt lat="47.09174" lon="5.82257">
        <ele>331</ele>
        <time>2010-05-07T13:44:58Z</time>
      </trkpt>
      <trkpt lat="47.0918" lon="5.82247">
        <ele>331</ele>
        <time>2010-05-07T13:44:59Z</time>
      </trkpt>
      <trkpt lat="47.09184" lon="5.82235">
        <ele>331</ele>
        <time>2010-05-07T13:45:00Z</time>
      </trkpt>
      <trkpt lat="47.0919" lon="5.82222">
        <ele>325</ele>
        <time>2010-05-07T13:45:01Z</time>
      </trkpt>
      <trkpt lat="47.09196" lon="5.8221">
        <ele>325</ele>
        <time>2010-05-07T13:45:02Z</time>
      </trkpt>
      <trkpt lat="47.09202" lon="5.82195">
        <ele>325</ele>
        <time>2010-05-07T13:45:03Z</time>
      </trkpt>
      <trkpt lat="47.09207" lon="5.82183">
        <ele>325</ele>
        <time>2010-05-07T13:45:04Z</time>
      </trkpt>
      <trkpt lat="47.09211" lon="5.82169">
        <ele>319</ele>
        <time>2010-05-07T13:45:05Z</time>
      </trkpt>
      <trkpt lat="47.09215" lon="5.82155">
        <ele>319</ele>
        <time>2010-05-07T13:45:06Z</time>
      </trkpt>
      <trkpt lat="47.09219" lon="5.82142">
        <ele>319</ele>
        <time>2010-05-07T13:45:07Z</time>
      </trkpt>
      <trkpt lat="47.09224" lon="5.82129">
        <ele>319</ele>
        <time>2010-05-07T13:45:08Z</time>
      </trkpt>
      <trkpt lat="47.09229" lon="5.82116">
        <ele>319</ele>
        <time>2010-05-07T13:45:09Z</time>
      </trkpt>
      <trkpt lat="47.09231" lon="5.82103">
        <ele>319</ele>
        <time>2010-05-07T13:45:10Z</time>
      </trkpt>
      <trkpt lat="47.09235" lon="5.8208">
        <ele>319</ele>
        <time>2010-05-07T13:45:12Z</time>
      </trkpt>
      <trkpt lat="47.09247" lon="5.82032">
        <ele>319</ele>
        <time>2010-05-07T13:45:16Z</time>
      </trkpt>
      <trkpt lat="47.09252" lon="5.82011">
        <ele>319</ele>
        <time>2010-05-07T13:45:17Z</time>
      </trkpt>
      <trkpt lat="47.09257" lon="5.81992">
        <ele>319</ele>
        <time>2010-05-07T13:45:18Z</time>
      </trkpt>
      <trkpt lat="47.09262" lon="5.81974">
        <ele>312</ele>
        <time>2010-05-07T13:45:19Z</time>
      </trkpt>
      <trkpt lat="47.09268" lon="5.81957">
        <ele>312</ele>
        <time>2010-05-07T13:45:20Z</time>
      </trkpt>
      <trkpt lat="47.09274" lon="5.81942">
        <ele>312</ele>
        <time>2010-05-07T13:45:21Z</time>
      </trkpt>
      <trkpt lat="47.09279" lon="5.81928">
        <ele>312</ele>
        <time>2010-05-07T13:45:22Z</time>
      </trkpt>
      <trkpt lat="47.09284" lon="5.81913">
        <ele>307</ele>
        <time>2010-05-07T13:45:23Z</time>
      </trkpt>
      <trkpt lat="47.0929" lon="5.81898">
        <ele>307</ele>
        <time>2010-05-07T13:45:24Z</time>
      </trkpt>
      <trkpt lat="47.09294" lon="5.81883">
        <ele>307</ele>
        <time>2010-05-07T13:45:25Z</time>
      </trkpt>
      <trkpt lat="47.09298" lon="5.81867">
        <ele>307</ele>
        <time>2010-05-07T13:45:26Z</time>
      </trkpt>
      <trkpt lat="47.093" lon="5.81851">
        <ele>302</ele>
        <time>2010-05-07T13:45:27Z</time>
      </trkpt>
      <trkpt lat="47.09302" lon="5.81833">
        <ele>302</ele>
        <time>2010-05-07T13:45:28Z</time>
      </trkpt>
      <trkpt lat="47.09302" lon="5.81816">
        <ele>302</ele>
        <time>2010-05-07T13:45:29Z</time>
      </trkpt>
      <trkpt lat="47.093" lon="5.81801">
        <ele>302</ele>
        <time>2010-05-07T13:45:30Z</time>
      </trkpt>
      <trkpt lat="47.09297" lon="5.81787">
        <ele>302</ele>
        <time>2010-05-07T13:45:31Z</time>
      </trkpt>
      <trkpt lat="47.09295" lon="5.81771">
        <ele>296</ele>
        <time>2010-05-07T13:45:32Z</time>
      </trkpt>
      <trkpt lat="47.09292" lon="5.81754">
        <ele>296</ele>
        <time>2010-05-07T13:45:33Z</time>
      </trkpt>
      <trkpt lat="47.09291" lon="5.81737">
        <ele>296</ele>
        <time>2010-05-07T13:45:34Z</time>
      </trkpt>
      <trkpt lat="47.09289" lon="5.8172">
        <ele>296</ele>
        <time>2010-05-07T13:45:35Z</time>
      </trkpt>
      <trkpt lat="47.09288" lon="5.81702">
        <ele>296</ele>
        <time>2010-05-07T13:45:36Z</time>
      </trkpt>
      <trkpt lat="47.09287" lon="5.81684">
        <ele>291</ele>
        <time>2010-05-07T13:45:37Z</time>
      </trkpt>
      <trkpt lat="47.09286" lon="5.81667">
        <ele>291</ele>
        <time>2010-05-07T13:45:38Z</time>
      </trkpt>
      <trkpt lat="47.09286" lon="5.81651">
        <ele>291</ele>
        <time>2010-05-07T13:45:39Z</time>
      </trkpt>
      <trkpt lat="47.09287" lon="5.81635">
        <ele>291</ele>
        <time>2010-05-07T13:45:40Z</time>
      </trkpt>
      <trkpt lat="47.09288" lon="5.81618">
        <ele>291</ele>
        <time>2010-05-07T13:45:41Z</time>
      </trkpt>
      <trkpt lat="47.0929" lon="5.81603">
        <ele>291</ele>
        <time>2010-05-07T13:45:42Z</time>
      </trkpt>
      <trkpt lat="47.09292" lon="5.81588">
        <ele>291</ele>
        <time>2010-05-07T13:45:43Z</time>
      </trkpt>
      <trkpt lat="47.09296" lon="5.81576">
        <ele>291</ele>
        <time>2010-05-07T13:45:44Z</time>
      </trkpt>
      <trkpt lat="47.093" lon="5.81563">
        <ele>291</ele>
        <time>2010-05-07T13:45:45Z</time>
      </trkpt>
      <trkpt lat="47.09311" lon="5.81542">
        <ele>291</ele>
        <time>2010-05-07T13:45:47Z</time>
      </trkpt>
      <trkpt lat="47.09317" lon="5.81532">
        <ele>291</ele>
        <time>2010-05-07T13:45:48Z</time>
      </trkpt>
      <trkpt lat="47.09323" lon="5.81521">
        <ele>291</ele>
        <time>2010-05-07T13:45:49Z</time>
      </trkpt>
      <trkpt lat="47.09335" lon="5.81503">
        <ele>291</ele>
        <time>2010-05-07T13:45:51Z</time>
      </trkpt>
      <trkpt lat="47.09346" lon="5.81489">
        <ele>291</ele>
        <time>2010-05-07T13:45:53Z</time>
      </trkpt>
      <trkpt lat="47.09357" lon="5.81475">
        <ele>291</ele>
        <time>2010-05-07T13:45:55Z</time>
      </trkpt>
      <trkpt lat="47.09367" lon="5.81464">
        <ele>291</ele>
        <time>2010-05-07T13:45:57Z</time>
      </trkpt>
      <trkpt lat="47.09377" lon="5.81455">
        <ele>291</ele>
        <time>2010-05-07T13:45:59Z</time>
      </trkpt>
      <trkpt lat="47.09387" lon="5.81446">
        <ele>291</ele>
        <time>2010-05-07T13:46:01Z</time>
      </trkpt>
      <trkpt lat="47.09397" lon="5.81438">
        <ele>291</ele>
        <time>2010-05-07T13:46:03Z</time>
      </trkpt>
      <trkpt lat="47.09409" lon="5.8143">
        <ele>291</ele>
        <time>2010-05-07T13:46:05Z</time>
      </trkpt>
      <trkpt lat="47.09423" lon="5.81423">
        <ele>291</ele>
        <time>2010-05-07T13:46:07Z</time>
      </trkpt>
      <trkpt lat="47.09438" lon="5.81414">
        <ele>291</ele>
        <time>2010-05-07T13:46:09Z</time>
      </trkpt>
      <trkpt lat="47.09456" lon="5.81409">
        <ele>291</ele>
        <time>2010-05-07T13:46:11Z</time>
      </trkpt>
      <trkpt lat="47.09465" lon="5.81407">
        <ele>291</ele>
        <time>2010-05-07T13:46:12Z</time>
      </trkpt>
      <trkpt lat="47.09476" lon="5.81406">
        <ele>291</ele>
        <time>2010-05-07T13:46:13Z</time>
      </trkpt>
      <trkpt lat="47.09486" lon="5.81406">
        <ele>291</ele>
        <time>2010-05-07T13:46:14Z</time>
      </trkpt>
      <trkpt lat="47.09495" lon="5.81407">
        <ele>291</ele>
        <time>2010-05-07T13:46:15Z</time>
      </trkpt>
      <trkpt lat="47.09506" lon="5.81408">
        <ele>291</ele>
        <time>2010-05-07T13:46:16Z</time>
      </trkpt>
      <trkpt lat="47.09516" lon="5.81409">
        <ele>291</ele>
        <time>2010-05-07T13:46:17Z</time>
      </trkpt>
      <trkpt lat="47.09526" lon="5.81412">
        <ele>291</ele>
        <time>2010-05-07T13:46:18Z</time>
      </trkpt>
      <trkpt lat="47.09535" lon="5.81417">
        <ele>291</ele>
        <time>2010-05-07T13:46:19Z</time>
      </trkpt>
      <trkpt lat="47.09544" lon="5.8142">
        <ele>291</ele>
        <time>2010-05-07T13:46:20Z</time>
      </trkpt>
      <trkpt lat="47.09561" lon="5.81429">
        <ele>291</ele>
        <time>2010-05-07T13:46:22Z</time>
      </trkpt>
      <trkpt lat="47.09569" lon="5.81433">
        <ele>291</ele>
        <time>2010-05-07T13:46:23Z</time>
      </trkpt>
      <trkpt lat="47.09586" lon="5.81437">
        <ele>291</ele>
        <time>2010-05-07T13:46:25Z</time>
      </trkpt>
      <trkpt lat="47.09595" lon="5.81437">
        <ele>291</ele>
        <time>2010-05-07T13:46:26Z</time>
      </trkpt>
      <trkpt lat="47.09613" lon="5.81434">
        <ele>291</ele>
        <time>2010-05-07T13:46:28Z</time>
      </trkpt>
      <trkpt lat="47.09629" lon="5.81428">
        <ele>291</ele>
        <time>2010-05-07T13:46:30Z</time>
      </trkpt>
      <trkpt lat="47.09642" lon="5.81424">
        <ele>291</ele>
        <time>2010-05-07T13:46:32Z</time>
      </trkpt>
      <trkpt lat="47.09654" lon="5.8142">
        <ele>291</ele>
        <time>2010-05-07T13:46:34Z</time>
      </trkpt>
      <trkpt lat="47.09664" lon="5.81418">
        <ele>291</ele>
        <time>2010-05-07T13:46:36Z</time>
      </trkpt>
      <trkpt lat="47.09673" lon="5.81413">
        <ele>291</ele>
        <time>2010-05-07T13:46:38Z</time>
      </trkpt>
      <trkpt lat="47.09681" lon="5.81407">
        <ele>291</ele>
        <time>2010-05-07T13:46:40Z</time>
      </trkpt>
      <trkpt lat="47.09689" lon="5.81399">
        <ele>291</ele>
        <time>2010-05-07T13:46:42Z</time>
      </trkpt>
      <trkpt lat="47.09699" lon="5.81392">
        <ele>291</ele>
        <time>2010-05-07T13:46:44Z</time>
      </trkpt>
      <trkpt lat="47.0971" lon="5.81385">
        <ele>291</ele>
        <time>2010-05-07T13:46:46Z</time>
      </trkpt>
      <trkpt lat="47.09722" lon="5.81378">
        <ele>291</ele>
        <time>2010-05-07T13:46:48Z</time>
      </trkpt>
      <trkpt lat="47.09735" lon="5.81368">
        <ele>291</ele>
        <time>2010-05-07T13:46:50Z</time>
      </trkpt>
      <trkpt lat="47.09747" lon="5.81356">
        <ele>291</ele>
        <time>2010-05-07T13:46:52Z</time>
      </trkpt>
      <trkpt lat="47.09759" lon="5.8134">
        <ele>291</ele>
        <time>2010-05-07T13:46:54Z</time>
      </trkpt>
      <trkpt lat="47.09767" lon="5.81333">
        <ele>291</ele>
        <time>2010-05-07T13:46:55Z</time>
      </trkpt>
      <trkpt lat="47.09783" lon="5.81325">
        <ele>291</ele>
        <time>2010-05-07T13:46:57Z</time>
      </trkpt>
      <trkpt lat="47.09797" lon="5.8132">
        <ele>291</ele>
        <time>2010-05-07T13:46:59Z</time>
      </trkpt>
      <trkpt lat="47.09813" lon="5.81312">
        <ele>291</ele>
        <time>2010-05-07T13:47:01Z</time>
      </trkpt>
      <trkpt lat="47.09827" lon="5.81304">
        <ele>291</ele>
        <time>2010-05-07T13:47:03Z</time>
      </trkpt>
      <trkpt lat="47.0984" lon="5.81294">
        <ele>291</ele>
        <time>2010-05-07T13:47:05Z</time>
      </trkpt>
      <trkpt lat="47.09849" lon="5.81277">
        <ele>291</ele>
        <time>2010-05-07T13:47:07Z</time>
      </trkpt>
      <trkpt lat="47.09857" lon="5.81258">
        <ele>286</ele>
        <time>2010-05-07T13:47:09Z</time>
      </trkpt>
      <trkpt lat="47.09864" lon="5.81237">
        <ele>286</ele>
        <time>2010-05-07T13:47:11Z</time>
      </trkpt>
      <trkpt lat="47.0987" lon="5.81213">
        <ele>286</ele>
        <time>2010-05-07T13:47:13Z</time>
      </trkpt>
      <trkpt lat="47.09876" lon="5.81188">
        <ele>280</ele>
        <time>2010-05-07T13:47:15Z</time>
      </trkpt>
      <trkpt lat="47.09883" lon="5.81164">
        <ele>280</ele>
        <time>2010-05-07T13:47:17Z</time>
      </trkpt>
      <trkpt lat="47.09888" lon="5.81143">
        <ele>280</ele>
        <time>2010-05-07T13:47:19Z</time>
      </trkpt>
      <trkpt lat="47.09893" lon="5.81125">
        <ele>280</ele>
        <time>2010-05-07T13:47:21Z</time>
      </trkpt>
      <trkpt lat="47.09897" lon="5.81109">
        <ele>275</ele>
        <time>2010-05-07T13:47:23Z</time>
      </trkpt>
      <trkpt lat="47.09901" lon="5.81094">
        <ele>275</ele>
        <time>2010-05-07T13:47:26Z</time>
      </trkpt>
      <trkpt lat="47.09913" lon="5.8109">
        <ele>275</ele>
        <time>2010-05-07T13:47:59Z</time>
      </trkpt>
      <trkpt lat="47.09924" lon="5.81093">
        <ele>275</ele>
        <time>2010-05-07T13:48:02Z</time>
      </trkpt>
      <trkpt lat="47.09933" lon="5.81096">
        <ele>275</ele>
        <time>2010-05-07T13:48:04Z</time>
      </trkpt>
      <trkpt lat="47.09942" lon="5.81099">
        <ele>275</ele>
        <time>2010-05-07T13:48:06Z</time>
      </trkpt>
      <trkpt lat="47.09952" lon="5.81102">
        <ele>275</ele>
        <time>2010-05-07T13:48:08Z</time>
      </trkpt>
      <trkpt lat="47.09962" lon="5.81105">
        <ele>275</ele>
        <time>2010-05-07T13:48:10Z</time>
      </trkpt>
      <trkpt lat="47.09971" lon="5.8111">
        <ele>275</ele>
        <time>2010-05-07T13:48:12Z</time>
      </trkpt>
      <trkpt lat="47.09981" lon="5.81116">
        <ele>275</ele>
        <time>2010-05-07T13:48:14Z</time>
      </trkpt>
      <trkpt lat="47.0999" lon="5.8112">
        <ele>275</ele>
        <time>2010-05-07T13:48:16Z</time>
      </trkpt>
      <trkpt lat="47.09999" lon="5.81124">
        <ele>275</ele>
        <time>2010-05-07T13:48:18Z</time>
      </trkpt>
      <trkpt lat="47.10008" lon="5.81127">
        <ele>275</ele>
        <time>2010-05-07T13:48:20Z</time>
      </trkpt>
      <trkpt lat="47.10018" lon="5.81131">
        <ele>275</ele>
        <time>2010-05-07T13:48:22Z</time>
      </trkpt>
      <trkpt lat="47.10028" lon="5.81135">
        <ele>275</ele>
        <time>2010-05-07T13:48:24Z</time>
      </trkpt>
      <trkpt lat="47.10038" lon="5.81138">
        <ele>280</ele>
        <time>2010-05-07T13:48:26Z</time>
      </trkpt>
      <trkpt lat="47.10049" lon="5.81142">
        <ele>280</ele>
        <time>2010-05-07T13:48:28Z</time>
      </trkpt>
      <trkpt lat="47.10061" lon="5.81146">
        <ele>280</ele>
        <time>2010-05-07T13:48:30Z</time>
      </trkpt>
      <trkpt lat="47.10073" lon="5.81151">
        <ele>280</ele>
        <time>2010-05-07T13:48:32Z</time>
      </trkpt>
      <trkpt lat="47.10085" lon="5.81155">
        <ele>280</ele>
        <time>2010-05-07T13:48:34Z</time>
      </trkpt>
      <trkpt lat="47.10095" lon="5.81156">
        <ele>280</ele>
        <time>2010-05-07T13:48:36Z</time>
      </trkpt>
      <trkpt lat="47.10105" lon="5.81154">
        <ele>280</ele>
        <time>2010-05-07T13:48:38Z</time>
      </trkpt>
      <trkpt lat="47.10116" lon="5.81151">
        <ele>280</ele>
        <time>2010-05-07T13:48:40Z</time>
      </trkpt>
      <trkpt lat="47.10126" lon="5.81144">
        <ele>280</ele>
        <time>2010-05-07T13:48:42Z</time>
      </trkpt>
      <trkpt lat="47.10137" lon="5.81137">
        <ele>280</ele>
        <time>2010-05-07T13:48:44Z</time>
      </trkpt>
      <trkpt lat="47.10147" lon="5.81129">
        <ele>280</ele>
        <time>2010-05-07T13:48:46Z</time>
      </trkpt>
      <trkpt lat="47.10157" lon="5.81124">
        <ele>280</ele>
        <time>2010-05-07T13:48:48Z</time>
      </trkpt>
      <trkpt lat="47.10167" lon="5.81119">
        <ele>280</ele>
        <time>2010-05-07T13:48:50Z</time>
      </trkpt>
      <trkpt lat="47.10179" lon="5.81116">
        <ele>280</ele>
        <time>2010-05-07T13:48:52Z</time>
      </trkpt>
      <trkpt lat="47.10192" lon="5.81117">
        <ele>274</ele>
        <time>2010-05-07T13:48:54Z</time>
      </trkpt>
      <trkpt lat="47.10206" lon="5.81114">
        <ele>274</ele>
        <time>2010-05-07T13:48:56Z</time>
      </trkpt>
      <trkpt lat="47.10219" lon="5.81113">
        <ele>274</ele>
        <time>2010-05-07T13:48:58Z</time>
      </trkpt>
      <trkpt lat="47.10232" lon="5.8111">
        <ele>274</ele>
        <time>2010-05-07T13:49:00Z</time>
      </trkpt>
      <trkpt lat="47.10246" lon="5.81108">
        <ele>268</ele>
        <time>2010-05-07T13:49:02Z</time>
      </trkpt>
      <trkpt lat="47.10259" lon="5.81104">
        <ele>268</ele>
        <time>2010-05-07T13:49:04Z</time>
      </trkpt>
      <trkpt lat="47.10271" lon="5.811">
        <ele>268</ele>
        <time>2010-05-07T13:49:06Z</time>
      </trkpt>
      <trkpt lat="47.10282" lon="5.81097">
        <ele>268</ele>
        <time>2010-05-07T13:49:08Z</time>
      </trkpt>
      <trkpt lat="47.10293" lon="5.81092">
        <ele>268</ele>
        <time>2010-05-07T13:49:10Z</time>
      </trkpt>
      <trkpt lat="47.10303" lon="5.81087">
        <ele>268</ele>
        <time>2010-05-07T13:49:12Z</time>
      </trkpt>
      <trkpt lat="47.10314" lon="5.81082">
        <ele>268</ele>
        <time>2010-05-07T13:49:14Z</time>
      </trkpt>
      <trkpt lat="47.10325" lon="5.81076">
        <ele>268</ele>
        <time>2010-05-07T13:49:16Z</time>
      </trkpt>
      <trkpt lat="47.10335" lon="5.81071">
        <ele>268</ele>
        <time>2010-05-07T13:49:18Z</time>
      </trkpt>
      <trkpt lat="47.10346" lon="5.81065">
        <ele>268</ele>
        <time>2010-05-07T13:49:20Z</time>
      </trkpt>
      <trkpt lat="47.10356" lon="5.81062">
        <ele>268</ele>
        <time>2010-05-07T13:49:22Z</time>
      </trkpt>
      <trkpt lat="47.10367" lon="5.81057">
        <ele>268</ele>
        <time>2010-05-07T13:49:24Z</time>
      </trkpt>
      <trkpt lat="47.10377" lon="5.81054">
        <ele>268</ele>
        <time>2010-05-07T13:49:26Z</time>
      </trkpt>
      <trkpt lat="47.10387" lon="5.81049">
        <ele>268</ele>
        <time>2010-05-07T13:49:28Z</time>
      </trkpt>
      <trkpt lat="47.10398" lon="5.81045">
        <ele>268</ele>
        <time>2010-05-07T13:49:30Z</time>
      </trkpt>
      <trkpt lat="47.10409" lon="5.81041">
        <ele>268</ele>
        <time>2010-05-07T13:49:32Z</time>
      </trkpt>
      <trkpt lat="47.1042" lon="5.81038">
        <ele>268</ele>
        <time>2010-05-07T13:49:34Z</time>
      </trkpt>
      <trkpt lat="47.10431" lon="5.81035">
        <ele>268</ele>
        <time>2010-05-07T13:49:36Z</time>
      </trkpt>
      <trkpt lat="47.10442" lon="5.81033">
        <ele>268</ele>
        <time>2010-05-07T13:49:38Z</time>
      </trkpt>
      <trkpt lat="47.10452" lon="5.81031">
        <ele>268</ele>
        <time>2010-05-07T13:49:40Z</time>
      </trkpt>
      <trkpt lat="47.10464" lon="5.8103">
        <ele>268</ele>
        <time>2010-05-07T13:49:42Z</time>
      </trkpt>
      <trkpt lat="47.10474" lon="5.81028">
        <ele>268</ele>
        <time>2010-05-07T13:49:44Z</time>
      </trkpt>
      <trkpt lat="47.10486" lon="5.81024">
        <ele>268</ele>
        <time>2010-05-07T13:49:46Z</time>
      </trkpt>
      <trkpt lat="47.10496" lon="5.8102">
        <ele>268</ele>
        <time>2010-05-07T13:49:48Z</time>
      </trkpt>
      <trkpt lat="47.10506" lon="5.81013">
        <ele>268</ele>
        <time>2010-05-07T13:49:50Z</time>
      </trkpt>
      <trkpt lat="47.10517" lon="5.81008">
        <ele>268</ele>
        <time>2010-05-07T13:49:52Z</time>
      </trkpt>
      <trkpt lat="47.10527" lon="5.81002">
        <ele>268</ele>
        <time>2010-05-07T13:49:54Z</time>
      </trkpt>
      <trkpt lat="47.10536" lon="5.80995">
        <ele>268</ele>
        <time>2010-05-07T13:49:56Z</time>
      </trkpt>
      <trkpt lat="47.10546" lon="5.8099">
        <ele>268</ele>
        <time>2010-05-07T13:49:58Z</time>
      </trkpt>
      <trkpt lat="47.10555" lon="5.80984">
        <ele>268</ele>
        <time>2010-05-07T13:50:00Z</time>
      </trkpt>
      <trkpt lat="47.10564" lon="5.80978">
        <ele>268</ele>
        <time>2010-05-07T13:50:02Z</time>
      </trkpt>
      <trkpt lat="47.10573" lon="5.80974">
        <ele>268</ele>
        <time>2010-05-07T13:50:04Z</time>
      </trkpt>
      <trkpt lat="47.10582" lon="5.80969">
        <ele>268</ele>
        <time>2010-05-07T13:50:06Z</time>
      </trkpt>
      <trkpt lat="47.10594" lon="5.80963">
        <ele>268</ele>
        <time>2010-05-07T13:50:09Z</time>
      </trkpt>
      <trkpt lat="47.10603" lon="5.80959">
        <ele>268</ele>
        <time>2010-05-07T13:50:11Z</time>
      </trkpt>
      <trkpt lat="47.10615" lon="5.80952">
        <ele>268</ele>
        <time>2010-05-07T13:50:14Z</time>
      </trkpt>
      <trkpt lat="47.10624" lon="5.80949">
        <ele>273</ele>
        <time>2010-05-07T13:50:16Z</time>
      </trkpt>
      <trkpt lat="47.10633" lon="5.80944">
        <ele>273</ele>
        <time>2010-05-07T13:50:18Z</time>
      </trkpt>
      <trkpt lat="47.10642" lon="5.8094">
        <ele>273</ele>
        <time>2010-05-07T13:50:20Z</time>
      </trkpt>
      <trkpt lat="47.10651" lon="5.80935">
        <ele>273</ele>
        <time>2010-05-07T13:50:22Z</time>
      </trkpt>
      <trkpt lat="47.1066" lon="5.80931">
        <ele>273</ele>
        <time>2010-05-07T13:50:24Z</time>
      </trkpt>
      <trkpt lat="47.1067" lon="5.80928">
        <ele>273</ele>
        <time>2010-05-07T13:50:26Z</time>
      </trkpt>
      <trkpt lat="47.1068" lon="5.80924">
        <ele>273</ele>
        <time>2010-05-07T13:50:28Z</time>
      </trkpt>
      <trkpt lat="47.1069" lon="5.80922">
        <ele>273</ele>
        <time>2010-05-07T13:50:30Z</time>
      </trkpt>
      <trkpt lat="47.10701" lon="5.80919">
        <ele>273</ele>
        <time>2010-05-07T13:50:32Z</time>
      </trkpt>
      <trkpt lat="47.10713" lon="5.80917">
        <ele>273</ele>
        <time>2010-05-07T13:50:34Z</time>
      </trkpt>
      <trkpt lat="47.10725" lon="5.80915">
        <ele>273</ele>
        <time>2010-05-07T13:50:36Z</time>
      </trkpt>
      <trkpt lat="47.10736" lon="5.80914">
        <ele>273</ele>
        <time>2010-05-07T13:50:38Z</time>
      </trkpt>
      <trkpt lat="47.10747" lon="5.80913">
        <ele>273</ele>
        <time>2010-05-07T13:50:40Z</time>
      </trkpt>
      <trkpt lat="47.10757" lon="5.80912">
        <ele>273</ele>
        <time>2010-05-07T13:50:42Z</time>
      </trkpt>
      <trkpt lat="47.10766" lon="5.8091">
        <ele>273</ele>
        <time>2010-05-07T13:50:44Z</time>
      </trkpt>
      <trkpt lat="47.10776" lon="5.80909">
        <ele>273</ele>
        <time>2010-05-07T13:50:46Z</time>
      </trkpt>
      <trkpt lat="47.10785" lon="5.80907">
        <ele>273</ele>
        <time>2010-05-07T13:50:48Z</time>
      </trkpt>
      <trkpt lat="47.10798" lon="5.80906">
        <ele>279</ele>
        <time>2010-05-07T13:50:51Z</time>
      </trkpt>
      <trkpt lat="47.10811" lon="5.80904">
        <ele>279</ele>
        <time>2010-05-07T13:50:54Z</time>
      </trkpt>
      <trkpt lat="47.1082" lon="5.80903">
        <ele>279</ele>
        <time>2010-05-07T13:50:56Z</time>
      </trkpt>
      <trkpt lat="47.10833" lon="5.80901">
        <ele>279</ele>
        <time>2010-05-07T13:50:59Z</time>
      </trkpt>
      <trkpt lat="47.10842" lon="5.809">
        <ele>279</ele>
        <time>2010-05-07T13:51:01Z</time>
      </trkpt>
      <trkpt lat="47.10851" lon="5.80899">
        <ele>279</ele>
        <time>2010-05-07T13:51:03Z</time>
      </trkpt>
      <trkpt lat="47.1086" lon="5.80899">
        <ele>279</ele>
        <time>2010-05-07T13:51:05Z</time>
      </trkpt>
      <trkpt lat="47.10874" lon="5.809">
        <ele>279</ele>
        <time>2010-05-07T13:51:08Z</time>
      </trkpt>
      <trkpt lat="47.10883" lon="5.809">
        <ele>279</ele>
        <time>2010-05-07T13:51:10Z</time>
      </trkpt>
      <trkpt lat="47.10892" lon="5.80901">
        <ele>279</ele>
        <time>2010-05-07T13:51:12Z</time>
      </trkpt>
      <trkpt lat="47.10906" lon="5.80902">
        <ele>279</ele>
        <time>2010-05-07T13:51:15Z</time>
      </trkpt>
      <trkpt lat="47.10919" lon="5.80902">
        <ele>279</ele>
        <time>2010-05-07T13:51:18Z</time>
      </trkpt>
      <trkpt lat="47.10931" lon="5.80902">
        <ele>286</ele>
        <time>2010-05-07T13:51:21Z</time>
      </trkpt>
      <trkpt lat="47.10943" lon="5.80902">
        <ele>286</ele>
        <time>2010-05-07T13:51:24Z</time>
      </trkpt>
      <trkpt lat="47.10955" lon="5.80902">
        <ele>286</ele>
        <time>2010-05-07T13:51:27Z</time>
      </trkpt>
      <trkpt lat="47.10966" lon="5.80898">
        <ele>286</ele>
        <time>2010-05-07T13:51:30Z</time>
      </trkpt>
      <trkpt lat="47.10977" lon="5.80892">
        <ele>292</ele>
        <time>2010-05-07T13:51:33Z</time>
      </trkpt>
      <trkpt lat="47.10984" lon="5.80879">
        <ele>292</ele>
        <time>2010-05-07T13:51:36Z</time>
      </trkpt>
      <trkpt lat="47.10991" lon="5.80866">
        <ele>292</ele>
        <time>2010-05-07T13:51:39Z</time>
      </trkpt>
      <trkpt lat="47.10998" lon="5.80851">
        <ele>292</ele>
        <time>2010-05-07T13:51:42Z</time>
      </trkpt>
      <trkpt lat="47.11003" lon="5.80839">
        <ele>292</ele>
        <time>2010-05-07T13:51:44Z</time>
      </trkpt>
      <trkpt lat="47.11009" lon="5.80824">
        <ele>297</ele>
        <time>2010-05-07T13:51:47Z</time>
      </trkpt>
      <trkpt lat="47.11015" lon="5.80808">
        <ele>297</ele>
        <time>2010-05-07T13:51:50Z</time>
      </trkpt>
      <trkpt lat="47.11022" lon="5.80795">
        <ele>297</ele>
        <time>2010-05-07T13:51:53Z</time>
      </trkpt>
      <trkpt lat="47.11027" lon="5.80783">
        <ele>297</ele>
        <time>2010-05-07T13:51:55Z</time>
      </trkpt>
      <trkpt lat="47.11033" lon="5.80772">
        <ele>302</ele>
        <time>2010-05-07T13:51:57Z</time>
      </trkpt>
      <trkpt lat="47.11038" lon="5.8076">
        <ele>302</ele>
        <time>2010-05-07T13:51:59Z</time>
      </trkpt>
      <trkpt lat="47.11046" lon="5.80745">
        <ele>302</ele>
        <time>2010-05-07T13:52:02Z</time>
      </trkpt>
      <trkpt lat="47.11053" lon="5.80736">
        <ele>302</ele>
        <time>2010-05-07T13:52:04Z</time>
      </trkpt>
      <trkpt lat="47.11061" lon="5.80732">
        <ele>302</ele>
        <time>2010-05-07T13:52:06Z</time>
      </trkpt>
      <trkpt lat="47.11071" lon="5.80734">
        <ele>302</ele>
        <time>2010-05-07T13:52:08Z</time>
      </trkpt>
      <trkpt lat="47.11079" lon="5.80739">
        <ele>302</ele>
        <time>2010-05-07T13:52:10Z</time>
      </trkpt>
      <trkpt lat="47.11087" lon="5.80746">
        <ele>302</ele>
        <time>2010-05-07T13:52:12Z</time>
      </trkpt>
      <trkpt lat="47.11096" lon="5.80751">
        <ele>302</ele>
        <time>2010-05-07T13:52:14Z</time>
      </trkpt>
      <trkpt lat="47.11104" lon="5.80757">
        <ele>302</ele>
        <time>2010-05-07T13:52:16Z</time>
      </trkpt>
      <trkpt lat="47.11112" lon="5.80764">
        <ele>302</ele>
        <time>2010-05-07T13:52:18Z</time>
      </trkpt>
      <trkpt lat="47.1112" lon="5.8077">
        <ele>302</ele>
        <time>2010-05-07T13:52:20Z</time>
      </trkpt>
      <trkpt lat="47.11132" lon="5.80775">
        <ele>302</ele>
        <time>2010-05-07T13:52:23Z</time>
      </trkpt>
      <trkpt lat="47.11142" lon="5.80776">
        <ele>302</ele>
        <time>2010-05-07T13:52:25Z</time>
      </trkpt>
      <trkpt lat="47.11153" lon="5.80777">
        <ele>302</ele>
        <time>2010-05-07T13:52:27Z</time>
      </trkpt>
      <trkpt lat="47.11163" lon="5.80773">
        <ele>302</ele>
        <time>2010-05-07T13:52:29Z</time>
      </trkpt>
      <trkpt lat="47.11176" lon="5.80767">
        <ele>302</ele>
        <time>2010-05-07T13:52:31Z</time>
      </trkpt>
      <trkpt lat="47.11187" lon="5.8076">
        <ele>297</ele>
        <time>2010-05-07T13:52:33Z</time>
      </trkpt>
      <trkpt lat="47.11199" lon="5.80753">
        <ele>297</ele>
        <time>2010-05-07T13:52:35Z</time>
      </trkpt>
      <trkpt lat="47.11214" lon="5.80747">
        <ele>297</ele>
        <time>2010-05-07T13:52:37Z</time>
      </trkpt>
      <trkpt lat="47.11229" lon="5.80741">
        <ele>291</ele>
        <time>2010-05-07T13:52:39Z</time>
      </trkpt>
      <trkpt lat="47.11245" lon="5.80738">
        <ele>291</ele>
        <time>2010-05-07T13:52:41Z</time>
      </trkpt>
      <trkpt lat="47.11261" lon="5.80735">
        <ele>291</ele>
        <time>2010-05-07T13:52:43Z</time>
      </trkpt>
      <trkpt lat="47.11277" lon="5.8073">
        <ele>291</ele>
        <time>2010-05-07T13:52:45Z</time>
      </trkpt>
      <trkpt lat="47.11291" lon="5.80722">
        <ele>291</ele>
        <time>2010-05-07T13:52:47Z</time>
      </trkpt>
      <trkpt lat="47.11304" lon="5.80713">
        <ele>291</ele>
        <time>2010-05-07T13:52:49Z</time>
      </trkpt>
      <trkpt lat="47.11317" lon="5.80704">
        <ele>291</ele>
        <time>2010-05-07T13:52:51Z</time>
      </trkpt>
      <trkpt lat="47.11329" lon="5.80696">
        <ele>291</ele>
        <time>2010-05-07T13:52:53Z</time>
      </trkpt>
      <trkpt lat="47.11342" lon="5.80689">
        <ele>291</ele>
        <time>2010-05-07T13:52:55Z</time>
      </trkpt>
      <trkpt lat="47.11355" lon="5.80681">
        <ele>291</ele>
        <time>2010-05-07T13:52:57Z</time>
      </trkpt>
      <trkpt lat="47.11368" lon="5.80672">
        <ele>291</ele>
        <time>2010-05-07T13:52:59Z</time>
      </trkpt>
      <trkpt lat="47.11382" lon="5.80662">
        <ele>286</ele>
        <time>2010-05-07T13:53:01Z</time>
      </trkpt>
      <trkpt lat="47.11396" lon="5.80653">
        <ele>286</ele>
        <time>2010-05-07T13:53:03Z</time>
      </trkpt>
      <trkpt lat="47.1141" lon="5.80644">
        <ele>286</ele>
        <time>2010-05-07T13:53:05Z</time>
      </trkpt>
      <trkpt lat="47.11426" lon="5.80637">
        <ele>286</ele>
        <time>2010-05-07T13:53:07Z</time>
      </trkpt>
      <trkpt lat="47.11442" lon="5.8063">
        <ele>286</ele>
        <time>2010-05-07T13:53:09Z</time>
      </trkpt>
      <trkpt lat="47.11451" lon="5.80625">
        <ele>286</ele>
        <time>2010-05-07T13:53:10Z</time>
      </trkpt>
      <trkpt lat="47.1146" lon="5.8062">
        <ele>286</ele>
        <time>2010-05-07T13:53:11Z</time>
      </trkpt>
      <trkpt lat="47.11469" lon="5.80614">
        <ele>286</ele>
        <time>2010-05-07T13:53:12Z</time>
      </trkpt>
      <trkpt lat="47.11477" lon="5.80606">
        <ele>286</ele>
        <time>2010-05-07T13:53:13Z</time>
      </trkpt>
      <trkpt lat="47.11485" lon="5.80596">
        <ele>281</ele>
        <time>2010-05-07T13:53:14Z</time>
      </trkpt>
      <trkpt lat="47.11492" lon="5.80585">
        <ele>281</ele>
        <time>2010-05-07T13:53:15Z</time>
      </trkpt>
      <trkpt lat="47.11498" lon="5.80572">
        <ele>281</ele>
        <time>2010-05-07T13:53:16Z</time>
      </trkpt>
      <trkpt lat="47.11504" lon="5.80558">
        <ele>281</ele>
        <time>2010-05-07T13:53:17Z</time>
      </trkpt>
      <trkpt lat="47.1151" lon="5.80543">
        <ele>281</ele>
        <time>2010-05-07T13:53:18Z</time>
      </trkpt>
      <trkpt lat="47.11515" lon="5.80526">
        <ele>281</ele>
        <time>2010-05-07T13:53:19Z</time>
      </trkpt>
      <trkpt lat="47.11519" lon="5.80511">
        <ele>281</ele>
        <time>2010-05-07T13:53:20Z</time>
      </trkpt>
      <trkpt lat="47.11523" lon="5.80494">
        <ele>281</ele>
        <time>2010-05-07T13:53:21Z</time>
      </trkpt>
      <trkpt lat="47.11526" lon="5.8048">
        <ele>275</ele>
        <time>2010-05-07T13:53:22Z</time>
      </trkpt>
      <trkpt lat="47.11529" lon="5.80466">
        <ele>275</ele>
        <time>2010-05-07T13:53:23Z</time>
      </trkpt>
      <trkpt lat="47.11534" lon="5.80448">
        <ele>275</ele>
        <time>2010-05-07T13:53:25Z</time>
      </trkpt>
      <trkpt lat="47.11537" lon="5.8043">
        <ele>275</ele>
        <time>2010-05-07T13:53:27Z</time>
      </trkpt>
      <trkpt lat="47.1154" lon="5.80418">
        <ele>280</ele>
        <time>2010-05-07T13:53:29Z</time>
      </trkpt>
      <trkpt lat="47.11547" lon="5.80401">
        <ele>286</ele>
        <time>2010-05-07T13:53:32Z</time>
      </trkpt>
      <trkpt lat="47.11555" lon="5.80386">
        <ele>292</ele>
        <time>2010-05-07T13:53:35Z</time>
      </trkpt>
      <trkpt lat="47.11564" lon="5.80374">
        <ele>292</ele>
        <time>2010-05-07T13:53:38Z</time>
      </trkpt>
      <trkpt lat="47.11575" lon="5.80361">
        <ele>298</ele>
        <time>2010-05-07T13:53:41Z</time>
      </trkpt>
      <trkpt lat="47.11587" lon="5.80353">
        <ele>298</ele>
        <time>2010-05-07T13:53:43Z</time>
      </trkpt>
      <trkpt lat="47.11601" lon="5.8034">
        <ele>298</ele>
        <time>2010-05-07T13:53:45Z</time>
      </trkpt>
      <trkpt lat="47.11615" lon="5.80331">
        <ele>298</ele>
        <time>2010-05-07T13:53:47Z</time>
      </trkpt>
      <trkpt lat="47.11631" lon="5.80326">
        <ele>298</ele>
        <time>2010-05-07T13:53:49Z</time>
      </trkpt>
      <trkpt lat="47.1164" lon="5.80322">
        <ele>298</ele>
        <time>2010-05-07T13:53:50Z</time>
      </trkpt>
      <trkpt lat="47.11649" lon="5.80319">
        <ele>298</ele>
        <time>2010-05-07T13:53:51Z</time>
      </trkpt>
      <trkpt lat="47.11658" lon="5.80315">
        <ele>298</ele>
        <time>2010-05-07T13:53:52Z</time>
      </trkpt>
      <trkpt lat="47.11674" lon="5.80309">
        <ele>298</ele>
        <time>2010-05-07T13:53:54Z</time>
      </trkpt>
      <trkpt lat="47.11691" lon="5.80305">
        <ele>298</ele>
        <time>2010-05-07T13:53:56Z</time>
      </trkpt>
      <trkpt lat="47.11706" lon="5.80301">
        <ele>298</ele>
        <time>2010-05-07T13:53:58Z</time>
      </trkpt>
      <trkpt lat="47.11719" lon="5.80299">
        <ele>298</ele>
        <time>2010-05-07T13:54:00Z</time>
      </trkpt>
      <trkpt lat="47.11732" lon="5.80296">
        <ele>298</ele>
        <time>2010-05-07T13:54:02Z</time>
      </trkpt>
      <trkpt lat="47.11746" lon="5.80292">
        <ele>298</ele>
        <time>2010-05-07T13:54:04Z</time>
      </trkpt>
      <trkpt lat="47.1176" lon="5.80288">
        <ele>298</ele>
        <time>2010-05-07T13:54:06Z</time>
      </trkpt>
      <trkpt lat="47.11773" lon="5.80287">
        <ele>298</ele>
        <time>2010-05-07T13:54:08Z</time>
      </trkpt>
      <trkpt lat="47.11787" lon="5.80283">
        <ele>298</ele>
        <time>2010-05-07T13:54:10Z</time>
      </trkpt>
      <trkpt lat="47.118" lon="5.80279">
        <ele>298</ele>
        <time>2010-05-07T13:54:12Z</time>
      </trkpt>
      <trkpt lat="47.11813" lon="5.80276">
        <ele>298</ele>
        <time>2010-05-07T13:54:14Z</time>
      </trkpt>
      <trkpt lat="47.11826" lon="5.80274">
        <ele>298</ele>
        <time>2010-05-07T13:54:16Z</time>
      </trkpt>
      <trkpt lat="47.11839" lon="5.80271">
        <ele>292</ele>
        <time>2010-05-07T13:54:18Z</time>
      </trkpt>
      <trkpt lat="47.11852" lon="5.80269">
        <ele>292</ele>
        <time>2010-05-07T13:54:20Z</time>
      </trkpt>
      <trkpt lat="47.11865" lon="5.80265">
        <ele>292</ele>
        <time>2010-05-07T13:54:22Z</time>
      </trkpt>
      <trkpt lat="47.11878" lon="5.80264">
        <ele>292</ele>
        <time>2010-05-07T13:54:24Z</time>
      </trkpt>
      <trkpt lat="47.11891" lon="5.80262">
        <ele>292</ele>
        <time>2010-05-07T13:54:26Z</time>
      </trkpt>
      <trkpt lat="47.11903" lon="5.80262">
        <ele>292</ele>
        <time>2010-05-07T13:54:28Z</time>
      </trkpt>
      <trkpt lat="47.11915" lon="5.80261">
        <ele>292</ele>
        <time>2010-05-07T13:54:30Z</time>
      </trkpt>
      <trkpt lat="47.11924" lon="5.8026">
        <ele>292</ele>
        <time>2010-05-07T13:54:32Z</time>
      </trkpt>
      <trkpt lat="47.11936" lon="5.80258">
        <ele>292</ele>
        <time>2010-05-07T13:54:34Z</time>
      </trkpt>
      <trkpt lat="47.11947" lon="5.80258">
        <ele>292</ele>
        <time>2010-05-07T13:54:36Z</time>
      </trkpt>
      <trkpt lat="47.11959" lon="5.80258">
        <ele>297</ele>
        <time>2010-05-07T13:54:38Z</time>
      </trkpt>
      <trkpt lat="47.1197" lon="5.8026">
        <ele>297</ele>
        <time>2010-05-07T13:54:40Z</time>
      </trkpt>
      <trkpt lat="47.11981" lon="5.80254">
        <ele>297</ele>
        <time>2010-05-07T13:54:42Z</time>
      </trkpt>
      <trkpt lat="47.11994" lon="5.8025">
        <ele>297</ele>
        <time>2010-05-07T13:54:44Z</time>
      </trkpt>
      <trkpt lat="47.12008" lon="5.80247">
        <ele>297</ele>
        <time>2010-05-07T13:54:46Z</time>
      </trkpt>
      <trkpt lat="47.12021" lon="5.80246">
        <ele>297</ele>
        <time>2010-05-07T13:54:48Z</time>
      </trkpt>
      <trkpt lat="47.12036" lon="5.80249">
        <ele>297</ele>
        <time>2010-05-07T13:54:50Z</time>
      </trkpt>
      <trkpt lat="47.12052" lon="5.80252">
        <ele>291</ele>
        <time>2010-05-07T13:54:52Z</time>
      </trkpt>
      <trkpt lat="47.12068" lon="5.80253">
        <ele>291</ele>
        <time>2010-05-07T13:54:54Z</time>
      </trkpt>
      <trkpt lat="47.12083" lon="5.80256">
        <ele>291</ele>
        <time>2010-05-07T13:54:56Z</time>
      </trkpt>
      <trkpt lat="47.12099" lon="5.80259">
        <ele>285</ele>
        <time>2010-05-07T13:54:58Z</time>
      </trkpt>
      <trkpt lat="47.12116" lon="5.80262">
        <ele>285</ele>
        <time>2010-05-07T13:55:00Z</time>
      </trkpt>
      <trkpt lat="47.12126" lon="5.80262">
        <ele>285</ele>
        <time>2010-05-07T13:55:01Z</time>
      </trkpt>
      <trkpt lat="47.12136" lon="5.80263">
        <ele>285</ele>
        <time>2010-05-07T13:55:02Z</time>
      </trkpt>
      <trkpt lat="47.12146" lon="5.80264">
        <ele>285</ele>
        <time>2010-05-07T13:55:03Z</time>
      </trkpt>
      <trkpt lat="47.12156" lon="5.80264">
        <ele>285</ele>
        <time>2010-05-07T13:55:04Z</time>
      </trkpt>
      <trkpt lat="47.12166" lon="5.80264">
        <ele>285</ele>
        <time>2010-05-07T13:55:05Z</time>
      </trkpt>
      <trkpt lat="47.12176" lon="5.80264">
        <ele>285</ele>
        <time>2010-05-07T13:55:06Z</time>
      </trkpt>
      <trkpt lat="47.12186" lon="5.80264">
        <ele>279</ele>
        <time>2010-05-07T13:55:07Z</time>
      </trkpt>
      <trkpt lat="47.12196" lon="5.80264">
        <ele>279</ele>
        <time>2010-05-07T13:55:08Z</time>
      </trkpt>
      <trkpt lat="47.12206" lon="5.80263">
        <ele>279</ele>
        <time>2010-05-07T13:55:09Z</time>
      </trkpt>
      <trkpt lat="47.12216" lon="5.80261">
        <ele>279</ele>
        <time>2010-05-07T13:55:10Z</time>
      </trkpt>
      <trkpt lat="47.12226" lon="5.80261">
        <ele>279</ele>
        <time>2010-05-07T13:55:11Z</time>
      </trkpt>
      <trkpt lat="47.12235" lon="5.80261">
        <ele>279</ele>
        <time>2010-05-07T13:55:12Z</time>
      </trkpt>
      <trkpt lat="47.12244" lon="5.8026">
        <ele>279</ele>
        <time>2010-05-07T13:55:13Z</time>
      </trkpt>
      <trkpt lat="47.12254" lon="5.80259">
        <ele>279</ele>
        <time>2010-05-07T13:55:14Z</time>
      </trkpt>
      <trkpt lat="47.12263" lon="5.80256">
        <ele>279</ele>
        <time>2010-05-07T13:55:15Z</time>
      </trkpt>
      <trkpt lat="47.12272" lon="5.80254">
        <ele>274</ele>
        <time>2010-05-07T13:55:16Z</time>
      </trkpt>
      <trkpt lat="47.1229" lon="5.80249">
        <ele>274</ele>
        <time>2010-05-07T13:55:18Z</time>
      </trkpt>
      <trkpt lat="47.12299" lon="5.80245">
        <ele>274</ele>
        <time>2010-05-07T13:55:19Z</time>
      </trkpt>
      <trkpt lat="47.12308" lon="5.80241">
        <ele>274</ele>
        <time>2010-05-07T13:55:20Z</time>
      </trkpt>
      <trkpt lat="47.12317" lon="5.80235">
        <ele>274</ele>
        <time>2010-05-07T13:55:21Z</time>
      </trkpt>
      <trkpt lat="47.12327" lon="5.8023">
        <ele>274</ele>
        <time>2010-05-07T13:55:22Z</time>
      </trkpt>
      <trkpt lat="47.12336" lon="5.80225">
        <ele>269</ele>
        <time>2010-05-07T13:55:23Z</time>
      </trkpt>
      <trkpt lat="47.12346" lon="5.80222">
        <ele>269</ele>
        <time>2010-05-07T13:55:24Z</time>
      </trkpt>
      <trkpt lat="47.12355" lon="5.80219">
        <ele>269</ele>
        <time>2010-05-07T13:55:25Z</time>
      </trkpt>
      <trkpt lat="47.12366" lon="5.80218">
        <ele>269</ele>
        <time>2010-05-07T13:55:26Z</time>
      </trkpt>
      <trkpt lat="47.12376" lon="5.80219">
        <ele>269</ele>
        <time>2010-05-07T13:55:27Z</time>
      </trkpt>
      <trkpt lat="47.12387" lon="5.80219">
        <ele>269</ele>
        <time>2010-05-07T13:55:28Z</time>
      </trkpt>
      <trkpt lat="47.12398" lon="5.80218">
        <ele>269</ele>
        <time>2010-05-07T13:55:29Z</time>
      </trkpt>
      <trkpt lat="47.12409" lon="5.80217">
        <ele>269</ele>
        <time>2010-05-07T13:55:30Z</time>
      </trkpt>
      <trkpt lat="47.1242" lon="5.80215">
        <ele>269</ele>
        <time>2010-05-07T13:55:31Z</time>
      </trkpt>
      <trkpt lat="47.12431" lon="5.8021">
        <ele>269</ele>
        <time>2010-05-07T13:55:32Z</time>
      </trkpt>
      <trkpt lat="47.12442" lon="5.80206">
        <ele>263</ele>
        <time>2010-05-07T13:55:33Z</time>
      </trkpt>
      <trkpt lat="47.12452" lon="5.80201">
        <ele>263</ele>
        <time>2010-05-07T13:55:34Z</time>
      </trkpt>
      <trkpt lat="47.12461" lon="5.80195">
        <ele>263</ele>
        <time>2010-05-07T13:55:35Z</time>
      </trkpt>
      <trkpt lat="47.12469" lon="5.80188">
        <ele>263</ele>
        <time>2010-05-07T13:55:36Z</time>
      </trkpt>
      <trkpt lat="47.12479" lon="5.80181">
        <ele>263</ele>
        <time>2010-05-07T13:55:37Z</time>
      </trkpt>
      <trkpt lat="47.12488" lon="5.80174">
        <ele>263</ele>
        <time>2010-05-07T13:55:38Z</time>
      </trkpt>
      <trkpt lat="47.12497" lon="5.80169">
        <ele>263</ele>
        <time>2010-05-07T13:55:39Z</time>
      </trkpt>
      <trkpt lat="47.12507" lon="5.80165">
        <ele>263</ele>
        <time>2010-05-07T13:55:40Z</time>
      </trkpt>
      <trkpt lat="47.12517" lon="5.80164">
        <ele>263</ele>
        <time>2010-05-07T13:55:41Z</time>
      </trkpt>
      <trkpt lat="47.12528" lon="5.80162">
        <ele>263</ele>
        <time>2010-05-07T13:55:42Z</time>
      </trkpt>
      <trkpt lat="47.12538" lon="5.80163">
        <ele>263</ele>
        <time>2010-05-07T13:55:43Z</time>
      </trkpt>
      <trkpt lat="47.12548" lon="5.80164">
        <ele>263</ele>
        <time>2010-05-07T13:55:44Z</time>
      </trkpt>
      <trkpt lat="47.12558" lon="5.80167">
        <ele>263</ele>
        <time>2010-05-07T13:55:45Z</time>
      </trkpt>
      <trkpt lat="47.12567" lon="5.80171">
        <ele>263</ele>
        <time>2010-05-07T13:55:46Z</time>
      </trkpt>
      <trkpt lat="47.12577" lon="5.80176">
        <ele>263</ele>
        <time>2010-05-07T13:55:47Z</time>
      </trkpt>
      <trkpt lat="47.12592" lon="5.80187">
        <ele>263</ele>
        <time>2010-05-07T13:55:49Z</time>
      </trkpt>
      <trkpt lat="47.12607" lon="5.80201">
        <ele>263</ele>
        <time>2010-05-07T13:55:51Z</time>
      </trkpt>
      <trkpt lat="47.12621" lon="5.80216">
        <ele>263</ele>
        <time>2010-05-07T13:55:53Z</time>
      </trkpt>
      <trkpt lat="47.12633" lon="5.80231">
        <ele>263</ele>
        <time>2010-05-07T13:55:55Z</time>
      </trkpt>
      <trkpt lat="47.12645" lon="5.80247">
        <ele>263</ele>
        <time>2010-05-07T13:55:57Z</time>
      </trkpt>
      <trkpt lat="47.12656" lon="5.80262">
        <ele>263</ele>
        <time>2010-05-07T13:55:59Z</time>
      </trkpt>
      <trkpt lat="47.12666" lon="5.80274">
        <ele>263</ele>
        <time>2010-05-07T13:56:01Z</time>
      </trkpt>
      <trkpt lat="47.12676" lon="5.80285">
        <ele>263</ele>
        <time>2010-05-07T13:56:03Z</time>
      </trkpt>
      <trkpt lat="47.12686" lon="5.80295">
        <ele>263</ele>
        <time>2010-05-07T13:56:05Z</time>
      </trkpt>
      <trkpt lat="47.12695" lon="5.80305">
        <ele>263</ele>
        <time>2010-05-07T13:56:07Z</time>
      </trkpt>
      <trkpt lat="47.12704" lon="5.80314">
        <ele>263</ele>
        <time>2010-05-07T13:56:09Z</time>
      </trkpt>
      <trkpt lat="47.12712" lon="5.80321">
        <ele>263</ele>
        <time>2010-05-07T13:56:11Z</time>
      </trkpt>
      <trkpt lat="47.1272" lon="5.80328">
        <ele>263</ele>
        <time>2010-05-07T13:56:13Z</time>
      </trkpt>
      <trkpt lat="47.12729" lon="5.80334">
        <ele>263</ele>
        <time>2010-05-07T13:56:15Z</time>
      </trkpt>
      <trkpt lat="47.1274" lon="5.80338">
        <ele>263</ele>
        <time>2010-05-07T13:56:18Z</time>
      </trkpt>
      <trkpt lat="47.12751" lon="5.80337">
        <ele>263</ele>
        <time>2010-05-07T13:56:21Z</time>
      </trkpt>
      <trkpt lat="47.12765" lon="5.80335">
        <ele>263</ele>
        <time>2010-05-07T13:56:24Z</time>
      </trkpt>
      <trkpt lat="47.12777" lon="5.80336">
        <ele>263</ele>
        <time>2010-05-07T13:56:26Z</time>
      </trkpt>
      <trkpt lat="47.12789" lon="5.80343">
        <ele>263</ele>
        <time>2010-05-07T13:56:28Z</time>
      </trkpt>
      <trkpt lat="47.128" lon="5.8035">
        <ele>263</ele>
        <time>2010-05-07T13:56:30Z</time>
      </trkpt>
      <trkpt lat="47.12811" lon="5.80357">
        <ele>263</ele>
        <time>2010-05-07T13:56:32Z</time>
      </trkpt>
      <trkpt lat="47.12821" lon="5.8036">
        <ele>263</ele>
        <time>2010-05-07T13:56:34Z</time>
      </trkpt>
      <trkpt lat="47.12832" lon="5.8036">
        <ele>263</ele>
        <time>2010-05-07T13:56:36Z</time>
      </trkpt>
      <trkpt lat="47.12843" lon="5.8036">
        <ele>263</ele>
        <time>2010-05-07T13:56:38Z</time>
      </trkpt>
      <trkpt lat="47.12855" lon="5.80361">
        <ele>263</ele>
        <time>2010-05-07T13:56:40Z</time>
      </trkpt>
      <trkpt lat="47.12867" lon="5.80364">
        <ele>263</ele>
        <time>2010-05-07T13:56:42Z</time>
      </trkpt>
      <trkpt lat="47.12879" lon="5.80369">
        <ele>263</ele>
        <time>2010-05-07T13:56:44Z</time>
      </trkpt>
      <trkpt lat="47.12891" lon="5.80373">
        <ele>263</ele>
        <time>2010-05-07T13:56:46Z</time>
      </trkpt>
      <trkpt lat="47.12903" lon="5.80376">
        <ele>263</ele>
        <time>2010-05-07T13:56:48Z</time>
      </trkpt>
      <trkpt lat="47.12913" lon="5.80377">
        <ele>263</ele>
        <time>2010-05-07T13:56:50Z</time>
      </trkpt>
      <trkpt lat="47.12926" lon="5.80382">
        <ele>263</ele>
        <time>2010-05-07T13:56:53Z</time>
      </trkpt>
      <trkpt lat="47.12937" lon="5.80384">
        <ele>263</ele>
        <time>2010-05-07T13:56:57Z</time>
      </trkpt>
      <trkpt lat="47.12946" lon="5.80377">
        <ele>263</ele>
        <time>2010-05-07T13:57:00Z</time>
      </trkpt>
      <trkpt lat="47.12953" lon="5.80364">
        <ele>263</ele>
        <time>2010-05-07T13:57:02Z</time>
      </trkpt>
      <trkpt lat="47.1296" lon="5.80349">
        <ele>263</ele>
        <time>2010-05-07T13:57:04Z</time>
      </trkpt>
      <trkpt lat="47.12968" lon="5.80333">
        <ele>263</ele>
        <time>2010-05-07T13:57:06Z</time>
      </trkpt>
      <trkpt lat="47.12978" lon="5.80319">
        <ele>263</ele>
        <time>2010-05-07T13:57:08Z</time>
      </trkpt>
      <trkpt lat="47.12989" lon="5.80307">
        <ele>263</ele>
        <time>2010-05-07T13:57:10Z</time>
      </trkpt>
      <trkpt lat="47.12999" lon="5.80296">
        <ele>263</ele>
        <time>2010-05-07T13:57:12Z</time>
      </trkpt>
      <trkpt lat="47.1301" lon="5.80288">
        <ele>263</ele>
        <time>2010-05-07T13:57:14Z</time>
      </trkpt>
      <trkpt lat="47.13021" lon="5.80283">
        <ele>263</ele>
        <time>2010-05-07T13:57:16Z</time>
      </trkpt>
      <trkpt lat="47.13031" lon="5.8028">
        <ele>263</ele>
        <time>2010-05-07T13:57:18Z</time>
      </trkpt>
      <trkpt lat="47.13041" lon="5.80277">
        <ele>263</ele>
        <time>2010-05-07T13:57:20Z</time>
      </trkpt>
      <trkpt lat="47.13051" lon="5.80275">
        <ele>263</ele>
        <time>2010-05-07T13:57:22Z</time>
      </trkpt>
      <trkpt lat="47.1306" lon="5.80272">
        <ele>263</ele>
        <time>2010-05-07T13:57:24Z</time>
      </trkpt>
      <trkpt lat="47.1307" lon="5.8027">
        <ele>263</ele>
        <time>2010-05-07T13:57:26Z</time>
      </trkpt>
      <trkpt lat="47.13079" lon="5.80269">
        <ele>263</ele>
        <time>2010-05-07T13:57:28Z</time>
      </trkpt>
      <trkpt lat="47.1309" lon="5.80266">
        <ele>263</ele>
        <time>2010-05-07T13:57:31Z</time>
      </trkpt>
      <trkpt lat="47.131" lon="5.80261">
        <ele>263</ele>
        <time>2010-05-07T13:57:33Z</time>
      </trkpt>
      <trkpt lat="47.13111" lon="5.80252">
        <ele>263</ele>
        <time>2010-05-07T13:57:36Z</time>
      </trkpt>
      <trkpt lat="47.13122" lon="5.80241">
        <ele>270</ele>
        <time>2010-05-07T13:57:39Z</time>
      </trkpt>
      <trkpt lat="47.13132" lon="5.80231">
        <ele>270</ele>
        <time>2010-05-07T13:57:42Z</time>
      </trkpt>
      <trkpt lat="47.13139" lon="5.80221">
        <ele>270</ele>
        <time>2010-05-07T13:57:45Z</time>
      </trkpt>
      <trkpt lat="47.13149" lon="5.80209">
        <ele>270</ele>
        <time>2010-05-07T13:57:48Z</time>
      </trkpt>
      <trkpt lat="47.13158" lon="5.802">
        <ele>270</ele>
        <time>2010-05-07T13:57:51Z</time>
      </trkpt>
      <trkpt lat="47.13168" lon="5.80186">
        <ele>270</ele>
        <time>2010-05-07T13:57:54Z</time>
      </trkpt>
      <trkpt lat="47.13176" lon="5.80174">
        <ele>270</ele>
        <time>2010-05-07T13:57:56Z</time>
      </trkpt>
      <trkpt lat="47.13183" lon="5.80165">
        <ele>270</ele>
        <time>2010-05-07T13:57:58Z</time>
      </trkpt>
      <trkpt lat="47.13192" lon="5.80152">
        <ele>270</ele>
        <time>2010-05-07T13:58:01Z</time>
      </trkpt>
      <trkpt lat="47.132" lon="5.80142">
        <ele>270</ele>
        <time>2010-05-07T13:58:04Z</time>
      </trkpt>
      <trkpt lat="47.1321" lon="5.80128">
        <ele>278</ele>
        <time>2010-05-07T13:58:07Z</time>
      </trkpt>
      <trkpt lat="47.13218" lon="5.80116">
        <ele>284</ele>
        <time>2010-05-07T13:58:10Z</time>
      </trkpt>
      <trkpt lat="47.13225" lon="5.80104">
        <ele>284</ele>
        <time>2010-05-07T13:58:14Z</time>
      </trkpt>
      <trkpt lat="47.13232" lon="5.8009">
        <ele>284</ele>
        <time>2010-05-07T13:58:17Z</time>
      </trkpt>
      <trkpt lat="47.13238" lon="5.80075">
        <ele>284</ele>
        <time>2010-05-07T13:58:20Z</time>
      </trkpt>
      <trkpt lat="47.13244" lon="5.80064">
        <ele>284</ele>
        <time>2010-05-07T13:58:22Z</time>
      </trkpt>
      <trkpt lat="47.13251" lon="5.80052">
        <ele>284</ele>
        <time>2010-05-07T13:58:24Z</time>
      </trkpt>
      <trkpt lat="47.13258" lon="5.8004">
        <ele>284</ele>
        <time>2010-05-07T13:58:26Z</time>
      </trkpt>
      <trkpt lat="47.13263" lon="5.80028">
        <ele>284</ele>
        <time>2010-05-07T13:58:28Z</time>
      </trkpt>
      <trkpt lat="47.1327" lon="5.80014">
        <ele>284</ele>
        <time>2010-05-07T13:58:30Z</time>
      </trkpt>
      <trkpt lat="47.13276" lon="5.80002">
        <ele>284</ele>
        <time>2010-05-07T13:58:32Z</time>
      </trkpt>
      <trkpt lat="47.13282" lon="5.79987">
        <ele>284</ele>
        <time>2010-05-07T13:58:35Z</time>
      </trkpt>
      <trkpt lat="47.13288" lon="5.79974">
        <ele>284</ele>
        <time>2010-05-07T13:58:37Z</time>
      </trkpt>
      <trkpt lat="47.13293" lon="5.79963">
        <ele>278</ele>
        <time>2010-05-07T13:58:39Z</time>
      </trkpt>
      <trkpt lat="47.13299" lon="5.79951">
        <ele>278</ele>
        <time>2010-05-07T13:58:41Z</time>
      </trkpt>
      <trkpt lat="47.13307" lon="5.79934">
        <ele>278</ele>
        <time>2010-05-07T13:58:44Z</time>
      </trkpt>
      <trkpt lat="47.13314" lon="5.79921">
        <ele>278</ele>
        <time>2010-05-07T13:58:47Z</time>
      </trkpt>
      <trkpt lat="47.13318" lon="5.79908">
        <ele>278</ele>
        <time>2010-05-07T13:58:50Z</time>
      </trkpt>
      <trkpt lat="47.13322" lon="5.79894">
        <ele>273</ele>
        <time>2010-05-07T13:58:54Z</time>
      </trkpt>
      <trkpt lat="47.13317" lon="5.79882">
        <ele>273</ele>
        <time>2010-05-07T13:59:00Z</time>
      </trkpt>
      <trkpt lat="47.13307" lon="5.7988">
        <ele>273</ele>
        <time>2010-05-07T13:59:23Z</time>
      </trkpt>
      <trkpt lat="47.13317" lon="5.79882">
        <ele>273</ele>
        <time>2010-05-07T14:00:21Z</time>
      </trkpt>
      <trkpt lat="47.13307" lon="5.7988">
        <ele>273</ele>
        <time>2010-05-07T14:01:08Z</time>
      </trkpt>
      <trkpt lat="47.13301" lon="5.7989">
        <ele>273</ele>
        <time>2010-05-07T14:02:27Z</time>
      </trkpt>
      <trkpt lat="47.1331" lon="5.79889">
        <ele>280</ele>
        <time>2010-05-07T14:02:38Z</time>
      </trkpt>
      <trkpt lat="47.13311" lon="5.79875">
        <ele>280</ele>
        <time>2010-05-07T14:03:05Z</time>
      </trkpt>
      <trkpt lat="47.13302" lon="5.7988">
        <ele>267</ele>
        <time>2010-05-07T14:03:54Z</time>
      </trkpt>
      <trkpt lat="47.13311" lon="5.79887">
        <ele>267</ele>
        <time>2010-05-07T14:05:58Z</time>
      </trkpt>
      <trkpt lat="47.1332" lon="5.79886">
        <ele>275</ele>
        <time>2010-05-07T14:06:20Z</time>
      </trkpt>
      <trkpt lat="47.13329" lon="5.7988">
        <ele>275</ele>
        <time>2010-05-07T14:06:26Z</time>
      </trkpt>
      <trkpt lat="47.13334" lon="5.79864">
        <ele>275</ele>
        <time>2010-05-07T14:06:30Z</time>
      </trkpt>
      <trkpt lat="47.13339" lon="5.79853">
        <ele>281</ele>
        <time>2010-05-07T14:06:33Z</time>
      </trkpt>
      <trkpt lat="47.13345" lon="5.79839">
        <ele>281</ele>
        <time>2010-05-07T14:06:37Z</time>
      </trkpt>
      <trkpt lat="47.13351" lon="5.7982">
        <ele>281</ele>
        <time>2010-05-07T14:06:41Z</time>
      </trkpt>
      <trkpt lat="47.13356" lon="5.79807">
        <ele>287</ele>
        <time>2010-05-07T14:06:42Z</time>
      </trkpt>
      <trkpt lat="47.13362" lon="5.79797">
        <ele>287</ele>
        <time>2010-05-07T14:06:44Z</time>
      </trkpt>
      <trkpt lat="47.13369" lon="5.79784">
        <ele>294</ele>
        <time>2010-05-07T14:06:47Z</time>
      </trkpt>
      <trkpt lat="47.13374" lon="5.79774">
        <ele>294</ele>
        <time>2010-05-07T14:06:48Z</time>
      </trkpt>
      <trkpt lat="47.13383" lon="5.79764">
        <ele>294</ele>
        <time>2010-05-07T14:06:51Z</time>
      </trkpt>
      <trkpt lat="47.13391" lon="5.79748">
        <ele>286</ele>
        <time>2010-05-07T14:06:53Z</time>
      </trkpt>
      <trkpt lat="47.13398" lon="5.79735">
        <ele>286</ele>
        <time>2010-05-07T14:06:55Z</time>
      </trkpt>
      <trkpt lat="47.13406" lon="5.79716">
        <ele>286</ele>
        <time>2010-05-07T14:06:57Z</time>
      </trkpt>
      <trkpt lat="47.13413" lon="5.79698">
        <ele>286</ele>
        <time>2010-05-07T14:06:59Z</time>
      </trkpt>
      <trkpt lat="47.13419" lon="5.79683">
        <ele>286</ele>
        <time>2010-05-07T14:07:01Z</time>
      </trkpt>
      <trkpt lat="47.13429" lon="5.79667">
        <ele>286</ele>
        <time>2010-05-07T14:07:03Z</time>
      </trkpt>
      <trkpt lat="47.13438" lon="5.79655">
        <ele>286</ele>
        <time>2010-05-07T14:07:05Z</time>
      </trkpt>
      <trkpt lat="47.13447" lon="5.79646">
        <ele>292</ele>
        <time>2010-05-07T14:07:07Z</time>
      </trkpt>
      <trkpt lat="47.13472" lon="5.79616">
        <ele>300</ele>
        <time>2010-05-07T14:07:12Z</time>
      </trkpt>
      <trkpt lat="47.1348" lon="5.79604">
        <ele>300</ele>
        <time>2010-05-07T14:07:13Z</time>
      </trkpt>
      <trkpt lat="47.13495" lon="5.7958">
        <ele>300</ele>
        <time>2010-05-07T14:07:15Z</time>
      </trkpt>
      <trkpt lat="47.13508" lon="5.79562">
        <ele>300</ele>
        <time>2010-05-07T14:07:17Z</time>
      </trkpt>
      <trkpt lat="47.13516" lon="5.79552">
        <ele>300</ele>
        <time>2010-05-07T14:07:18Z</time>
      </trkpt>
      <trkpt lat="47.13524" lon="5.79541">
        <ele>300</ele>
        <time>2010-05-07T14:07:19Z</time>
      </trkpt>
      <trkpt lat="47.13535" lon="5.79525">
        <ele>300</ele>
        <time>2010-05-07T14:07:21Z</time>
      </trkpt>
      <trkpt lat="47.13542" lon="5.79513">
        <ele>300</ele>
        <time>2010-05-07T14:07:22Z</time>
      </trkpt>
      <trkpt lat="47.13549" lon="5.79501">
        <ele>300</ele>
        <time>2010-05-07T14:07:23Z</time>
      </trkpt>
      <trkpt lat="47.13567" lon="5.7948">
        <ele>300</ele>
        <time>2010-05-07T14:07:26Z</time>
      </trkpt>
      <trkpt lat="47.13579" lon="5.79468">
        <ele>300</ele>
        <time>2010-05-07T14:07:27Z</time>
      </trkpt>
      <trkpt lat="47.13588" lon="5.79454">
        <ele>300</ele>
        <time>2010-05-07T14:07:28Z</time>
      </trkpt>
      <trkpt lat="47.13594" lon="5.79435">
        <ele>300</ele>
        <time>2010-05-07T14:07:29Z</time>
      </trkpt>
      <trkpt lat="47.136" lon="5.79413">
        <ele>300</ele>
        <time>2010-05-07T14:07:30Z</time>
      </trkpt>
      <trkpt lat="47.13604" lon="5.79398">
        <ele>294</ele>
        <time>2010-05-07T14:07:31Z</time>
      </trkpt>
      <trkpt lat="47.13608" lon="5.79382">
        <ele>294</ele>
        <time>2010-05-07T14:07:32Z</time>
      </trkpt>
      <trkpt lat="47.1362" lon="5.79338">
        <ele>294</ele>
        <time>2010-05-07T14:07:35Z</time>
      </trkpt>
      <trkpt lat="47.13626" lon="5.79315">
        <ele>289</ele>
        <time>2010-05-07T14:07:36Z</time>
      </trkpt>
      <trkpt lat="47.13631" lon="5.79297">
        <ele>289</ele>
        <time>2010-05-07T14:07:37Z</time>
      </trkpt>
      <trkpt lat="47.13636" lon="5.7928">
        <ele>281</ele>
        <time>2010-05-07T14:07:38Z</time>
      </trkpt>
      <trkpt lat="47.13642" lon="5.79266">
        <ele>274</ele>
        <time>2010-05-07T14:07:39Z</time>
      </trkpt>
      <trkpt lat="47.1365" lon="5.79248">
        <ele>269</ele>
        <time>2010-05-07T14:07:40Z</time>
      </trkpt>
      <trkpt lat="47.13657" lon="5.79233">
        <ele>269</ele>
        <time>2010-05-07T14:07:41Z</time>
      </trkpt>
      <trkpt lat="47.13664" lon="5.79219">
        <ele>263</ele>
        <time>2010-05-07T14:07:42Z</time>
      </trkpt>
      <trkpt lat="47.13668" lon="5.79205">
        <ele>263</ele>
        <time>2010-05-07T14:07:43Z</time>
      </trkpt>
      <trkpt lat="47.13672" lon="5.7919">
        <ele>256</ele>
        <time>2010-05-07T14:07:44Z</time>
      </trkpt>
      <trkpt lat="47.13678" lon="5.79165">
        <ele>256</ele>
        <time>2010-05-07T14:07:46Z</time>
      </trkpt>
      <trkpt lat="47.13682" lon="5.79153">
        <ele>251</ele>
        <time>2010-05-07T14:07:47Z</time>
      </trkpt>
      <trkpt lat="47.13686" lon="5.7914">
        <ele>251</ele>
        <time>2010-05-07T14:07:48Z</time>
      </trkpt>
      <trkpt lat="47.13694" lon="5.79119">
        <ele>240</ele>
        <time>2010-05-07T14:07:50Z</time>
      </trkpt>
      <trkpt lat="47.13699" lon="5.79104">
        <ele>240</ele>
        <time>2010-05-07T14:07:51Z</time>
      </trkpt>
      <trkpt lat="47.13703" lon="5.79092">
        <ele>240</ele>
        <time>2010-05-07T14:07:52Z</time>
      </trkpt>
      <trkpt lat="47.13707" lon="5.79077">
        <ele>240</ele>
        <time>2010-05-07T14:07:53Z</time>
      </trkpt>
      <trkpt lat="47.13711" lon="5.79065">
        <ele>240</ele>
        <time>2010-05-07T14:07:54Z</time>
      </trkpt>
      <trkpt lat="47.13722" lon="5.79043">
        <ele>240</ele>
        <time>2010-05-07T14:07:56Z</time>
      </trkpt>
      <trkpt lat="47.13731" lon="5.79021">
        <ele>240</ele>
        <time>2010-05-07T14:07:58Z</time>
      </trkpt>
      <trkpt lat="47.13735" lon="5.79008">
        <ele>240</ele>
        <time>2010-05-07T14:07:59Z</time>
      </trkpt>
      <trkpt lat="47.13745" lon="5.78988">
        <ele>240</ele>
        <time>2010-05-07T14:08:01Z</time>
      </trkpt>
      <trkpt lat="47.13753" lon="5.78965">
        <ele>234</ele>
        <time>2010-05-07T14:08:03Z</time>
      </trkpt>
      <trkpt lat="47.13759" lon="5.78952">
        <ele>234</ele>
        <time>2010-05-07T14:08:04Z</time>
      </trkpt>
      <trkpt lat="47.13764" lon="5.7894">
        <ele>234</ele>
        <time>2010-05-07T14:08:05Z</time>
      </trkpt>
      <trkpt lat="47.13775" lon="5.78919">
        <ele>228</ele>
        <time>2010-05-07T14:08:07Z</time>
      </trkpt>
      <trkpt lat="47.13783" lon="5.78902">
        <ele>228</ele>
        <time>2010-05-07T14:08:09Z</time>
      </trkpt>
      <trkpt lat="47.13788" lon="5.7889">
        <ele>228</ele>
        <time>2010-05-07T14:08:10Z</time>
      </trkpt>
      <trkpt lat="47.13793" lon="5.78878">
        <ele>228</ele>
        <time>2010-05-07T14:08:11Z</time>
      </trkpt>
      <trkpt lat="47.13799" lon="5.78865">
        <ele>233</ele>
        <time>2010-05-07T14:08:12Z</time>
      </trkpt>
      <trkpt lat="47.13805" lon="5.78855">
        <ele>233</ele>
        <time>2010-05-07T14:08:13Z</time>
      </trkpt>
      <trkpt lat="47.13814" lon="5.78834">
        <ele>233</ele>
        <time>2010-05-07T14:08:15Z</time>
      </trkpt>
      <trkpt lat="47.13821" lon="5.78809">
        <ele>233</ele>
        <time>2010-05-07T14:08:17Z</time>
      </trkpt>
      <trkpt lat="47.13827" lon="5.78795">
        <ele>240</ele>
        <time>2010-05-07T14:08:18Z</time>
      </trkpt>
      <trkpt lat="47.13833" lon="5.78781">
        <ele>235</ele>
        <time>2010-05-07T14:08:19Z</time>
      </trkpt>
      <trkpt lat="47.13843" lon="5.78765">
        <ele>235</ele>
        <time>2010-05-07T14:08:21Z</time>
      </trkpt>
      <trkpt lat="47.13852" lon="5.78756">
        <ele>235</ele>
        <time>2010-05-07T14:08:23Z</time>
      </trkpt>
      <trkpt lat="47.13863" lon="5.7875">
        <ele>244</ele>
        <time>2010-05-07T14:08:25Z</time>
      </trkpt>
      <trkpt lat="47.13876" lon="5.78737">
        <ele>249</ele>
        <time>2010-05-07T14:08:27Z</time>
      </trkpt>
      <trkpt lat="47.13888" lon="5.78724">
        <ele>259</ele>
        <time>2010-05-07T14:08:29Z</time>
      </trkpt>
      <trkpt lat="47.139" lon="5.78707">
        <ele>266</ele>
        <time>2010-05-07T14:08:31Z</time>
      </trkpt>
      <trkpt lat="47.13908" lon="5.78698">
        <ele>266</ele>
        <time>2010-05-07T14:08:32Z</time>
      </trkpt>
      <trkpt lat="47.13918" lon="5.78692">
        <ele>266</ele>
        <time>2010-05-07T14:08:33Z</time>
      </trkpt>
      <trkpt lat="47.13929" lon="5.78686">
        <ele>266</ele>
        <time>2010-05-07T14:08:34Z</time>
      </trkpt>
      <trkpt lat="47.13939" lon="5.78682">
        <ele>266</ele>
        <time>2010-05-07T14:08:35Z</time>
      </trkpt>
      <trkpt lat="47.13949" lon="5.78677">
        <ele>266</ele>
        <time>2010-05-07T14:08:36Z</time>
      </trkpt>
      <trkpt lat="47.1396" lon="5.78673">
        <ele>266</ele>
        <time>2010-05-07T14:08:37Z</time>
      </trkpt>
      <trkpt lat="47.13969" lon="5.78669">
        <ele>266</ele>
        <time>2010-05-07T14:08:38Z</time>
      </trkpt>
      <trkpt lat="47.1398" lon="5.78664">
        <ele>266</ele>
        <time>2010-05-07T14:08:39Z</time>
      </trkpt>
      <trkpt lat="47.13988" lon="5.78658">
        <ele>266</ele>
        <time>2010-05-07T14:08:40Z</time>
      </trkpt>
      <trkpt lat="47.13998" lon="5.78654">
        <ele>260</ele>
        <time>2010-05-07T14:08:41Z</time>
      </trkpt>
      <trkpt lat="47.14007" lon="5.78649">
        <ele>260</ele>
        <time>2010-05-07T14:08:42Z</time>
      </trkpt>
      <trkpt lat="47.14017" lon="5.78643">
        <ele>260</ele>
        <time>2010-05-07T14:08:43Z</time>
      </trkpt>
      <trkpt lat="47.14025" lon="5.78635">
        <ele>255</ele>
        <time>2010-05-07T14:08:44Z</time>
      </trkpt>
      <trkpt lat="47.14032" lon="5.78627">
        <ele>255</ele>
        <time>2010-05-07T14:08:45Z</time>
      </trkpt>
      <trkpt lat="47.14039" lon="5.78618">
        <ele>249</ele>
        <time>2010-05-07T14:08:46Z</time>
      </trkpt>
      <trkpt lat="47.14045" lon="5.78607">
        <ele>249</ele>
        <time>2010-05-07T14:08:47Z</time>
      </trkpt>
      <trkpt lat="47.14051" lon="5.78594">
        <ele>249</ele>
        <time>2010-05-07T14:08:48Z</time>
      </trkpt>
      <trkpt lat="47.14065" lon="5.78559">
        <ele>243</ele>
        <time>2010-05-07T14:08:51Z</time>
      </trkpt>
      <trkpt lat="47.14071" lon="5.78543">
        <ele>243</ele>
        <time>2010-05-07T14:08:52Z</time>
      </trkpt>
      <trkpt lat="47.14076" lon="5.7853">
        <ele>243</ele>
        <time>2010-05-07T14:08:53Z</time>
      </trkpt>
      <trkpt lat="47.14078" lon="5.78516">
        <ele>243</ele>
        <time>2010-05-07T14:08:54Z</time>
      </trkpt>
      <trkpt lat="47.1408" lon="5.78502">
        <ele>243</ele>
        <time>2010-05-07T14:08:55Z</time>
      </trkpt>
      <trkpt lat="47.14085" lon="5.78477">
        <ele>243</ele>
        <time>2010-05-07T14:08:57Z</time>
      </trkpt>
      <trkpt lat="47.14087" lon="5.78464">
        <ele>243</ele>
        <time>2010-05-07T14:08:58Z</time>
      </trkpt>
      <trkpt lat="47.14091" lon="5.7845">
        <ele>243</ele>
        <time>2010-05-07T14:08:59Z</time>
      </trkpt>
      <trkpt lat="47.14094" lon="5.78434">
        <ele>243</ele>
        <time>2010-05-07T14:09:00Z</time>
      </trkpt>
      <trkpt lat="47.14096" lon="5.78421">
        <ele>243</ele>
        <time>2010-05-07T14:09:01Z</time>
      </trkpt>
      <trkpt lat="47.141" lon="5.78406">
        <ele>243</ele>
        <time>2010-05-07T14:09:02Z</time>
      </trkpt>
      <trkpt lat="47.14104" lon="5.78391">
        <ele>243</ele>
        <time>2010-05-07T14:09:03Z</time>
      </trkpt>
      <trkpt lat="47.14107" lon="5.78375">
        <ele>243</ele>
        <time>2010-05-07T14:09:04Z</time>
      </trkpt>
      <trkpt lat="47.1411" lon="5.78361">
        <ele>243</ele>
        <time>2010-05-07T14:09:05Z</time>
      </trkpt>
      <trkpt lat="47.14114" lon="5.78345">
        <ele>243</ele>
        <time>2010-05-07T14:09:06Z</time>
      </trkpt>
      <trkpt lat="47.14118" lon="5.78331">
        <ele>236</ele>
        <time>2010-05-07T14:09:07Z</time>
      </trkpt>
      <trkpt lat="47.14121" lon="5.78317">
        <ele>236</ele>
        <time>2010-05-07T14:09:08Z</time>
      </trkpt>
      <trkpt lat="47.14125" lon="5.78303">
        <ele>236</ele>
        <time>2010-05-07T14:09:09Z</time>
      </trkpt>
      <trkpt lat="47.14127" lon="5.78289">
        <ele>236</ele>
        <time>2010-05-07T14:09:10Z</time>
      </trkpt>
      <trkpt lat="47.14129" lon="5.78274">
        <ele>236</ele>
        <time>2010-05-07T14:09:11Z</time>
      </trkpt>
      <trkpt lat="47.14134" lon="5.7826">
        <ele>236</ele>
        <time>2010-05-07T14:09:12Z</time>
      </trkpt>
      <trkpt lat="47.14137" lon="5.78246">
        <ele>236</ele>
        <time>2010-05-07T14:09:13Z</time>
      </trkpt>
      <trkpt lat="47.14141" lon="5.78232">
        <ele>236</ele>
        <time>2010-05-07T14:09:14Z</time>
      </trkpt>
      <trkpt lat="47.14144" lon="5.78218">
        <ele>236</ele>
        <time>2010-05-07T14:09:15Z</time>
      </trkpt>
      <trkpt lat="47.14147" lon="5.78204">
        <ele>236</ele>
        <time>2010-05-07T14:09:16Z</time>
      </trkpt>
      <trkpt lat="47.1415" lon="5.78192">
        <ele>236</ele>
        <time>2010-05-07T14:09:17Z</time>
      </trkpt>
      <trkpt lat="47.14153" lon="5.78179">
        <ele>230</ele>
        <time>2010-05-07T14:09:18Z</time>
      </trkpt>
      <trkpt lat="47.14156" lon="5.78166">
        <ele>230</ele>
        <time>2010-05-07T14:09:19Z</time>
      </trkpt>
      <trkpt lat="47.14159" lon="5.78151">
        <ele>230</ele>
        <time>2010-05-07T14:09:20Z</time>
      </trkpt>
      <trkpt lat="47.14163" lon="5.78138">
        <ele>230</ele>
        <time>2010-05-07T14:09:21Z</time>
      </trkpt>
      <trkpt lat="47.14167" lon="5.78126">
        <ele>230</ele>
        <time>2010-05-07T14:09:22Z</time>
      </trkpt>
      <trkpt lat="47.14172" lon="5.78105">
        <ele>230</ele>
        <time>2010-05-07T14:09:24Z</time>
      </trkpt>
      <trkpt lat="47.14178" lon="5.7808">
        <ele>230</ele>
        <time>2010-05-07T14:09:26Z</time>
      </trkpt>
      <trkpt lat="47.14183" lon="5.7806">
        <ele>230</ele>
        <time>2010-05-07T14:09:28Z</time>
      </trkpt>
      <trkpt lat="47.1419" lon="5.78035">
        <ele>230</ele>
        <time>2010-05-07T14:09:30Z</time>
      </trkpt>
      <trkpt lat="47.14196" lon="5.78013">
        <ele>236</ele>
        <time>2010-05-07T14:09:32Z</time>
      </trkpt>
      <trkpt lat="47.14199" lon="5.78">
        <ele>236</ele>
        <time>2010-05-07T14:09:33Z</time>
      </trkpt>
      <trkpt lat="47.14202" lon="5.77988">
        <ele>236</ele>
        <time>2010-05-07T14:09:34Z</time>
      </trkpt>
      <trkpt lat="47.14209" lon="5.77965">
        <ele>236</ele>
        <time>2010-05-07T14:09:36Z</time>
      </trkpt>
      <trkpt lat="47.14212" lon="5.77943">
        <ele>236</ele>
        <time>2010-05-07T14:09:38Z</time>
      </trkpt>
      <trkpt lat="47.14217" lon="5.77921">
        <ele>236</ele>
        <time>2010-05-07T14:09:40Z</time>
      </trkpt>
      <trkpt lat="47.14224" lon="5.77898">
        <ele>236</ele>
        <time>2010-05-07T14:09:42Z</time>
      </trkpt>
      <trkpt lat="47.14228" lon="5.77877">
        <ele>229</ele>
        <time>2010-05-07T14:09:44Z</time>
      </trkpt>
      <trkpt lat="47.14234" lon="5.77857">
        <ele>229</ele>
        <time>2010-05-07T14:09:46Z</time>
      </trkpt>
      <trkpt lat="47.14235" lon="5.77813">
        <ele>229</ele>
        <time>2010-05-07T14:09:51Z</time>
      </trkpt>
      <trkpt lat="47.14226" lon="5.77805">
        <ele>235</ele>
        <time>2010-05-07T14:09:53Z</time>
      </trkpt>
      <trkpt lat="47.14216" lon="5.77798">
        <ele>242</ele>
        <time>2010-05-07T14:09:55Z</time>
      </trkpt>
      <trkpt lat="47.14207" lon="5.77789">
        <ele>242</ele>
        <time>2010-05-07T14:09:57Z</time>
      </trkpt>
      <trkpt lat="47.14197" lon="5.77778">
        <ele>256</ele>
        <time>2010-05-07T14:10:00Z</time>
      </trkpt>
      <trkpt lat="47.14188" lon="5.77771">
        <ele>262</ele>
        <time>2010-05-07T14:10:03Z</time>
      </trkpt>
      <trkpt lat="47.14184" lon="5.77759">
        <ele>262</ele>
        <time>2010-05-07T14:10:06Z</time>
      </trkpt>
      <trkpt lat="47.1418" lon="5.77743">
        <ele>269</ele>
        <time>2010-05-07T14:10:10Z</time>
      </trkpt>
      <trkpt lat="47.14177" lon="5.7773">
        <ele>269</ele>
        <time>2010-05-07T14:10:13Z</time>
      </trkpt>
      <trkpt lat="47.14178" lon="5.77716">
        <ele>274</ele>
        <time>2010-05-07T14:10:15Z</time>
      </trkpt>
      <trkpt lat="47.14177" lon="5.77699">
        <ele>280</ele>
        <time>2010-05-07T14:10:18Z</time>
      </trkpt>
      <trkpt lat="47.14177" lon="5.77683">
        <ele>280</ele>
        <time>2010-05-07T14:10:20Z</time>
      </trkpt>
      <trkpt lat="47.14182" lon="5.7767">
        <ele>280</ele>
        <time>2010-05-07T14:10:21Z</time>
      </trkpt>
      <trkpt lat="47.14186" lon="5.77657">
        <ele>280</ele>
        <time>2010-05-07T14:10:22Z</time>
      </trkpt>
      <trkpt lat="47.14192" lon="5.77645">
        <ele>280</ele>
        <time>2010-05-07T14:10:23Z</time>
      </trkpt>
      <trkpt lat="47.14197" lon="5.77631">
        <ele>280</ele>
        <time>2010-05-07T14:10:24Z</time>
      </trkpt>
      <trkpt lat="47.14204" lon="5.77615">
        <ele>280</ele>
        <time>2010-05-07T14:10:25Z</time>
      </trkpt>
      <trkpt lat="47.14208" lon="5.77601">
        <ele>280</ele>
        <time>2010-05-07T14:10:26Z</time>
      </trkpt>
      <trkpt lat="47.14212" lon="5.77585">
        <ele>280</ele>
        <time>2010-05-07T14:10:27Z</time>
      </trkpt>
      <trkpt lat="47.14216" lon="5.77571">
        <ele>280</ele>
        <time>2010-05-07T14:10:28Z</time>
      </trkpt>
      <trkpt lat="47.14222" lon="5.77551">
        <ele>274</ele>
        <time>2010-05-07T14:10:29Z</time>
      </trkpt>
      <trkpt lat="47.14228" lon="5.77513">
        <ele>274</ele>
        <time>2010-05-07T14:10:32Z</time>
      </trkpt>
      <trkpt lat="47.14231" lon="5.7748">
        <ele>281</ele>
        <time>2010-05-07T14:10:34Z</time>
      </trkpt>
      <trkpt lat="47.14234" lon="5.77462">
        <ele>281</ele>
        <time>2010-05-07T14:10:35Z</time>
      </trkpt>
      <trkpt lat="47.14231" lon="5.77441">
        <ele>291</ele>
        <time>2010-05-07T14:10:37Z</time>
      </trkpt>
      <trkpt lat="47.14232" lon="5.77427">
        <ele>291</ele>
        <time>2010-05-07T14:10:38Z</time>
      </trkpt>
      <trkpt lat="47.14243" lon="5.7733">
        <ele>282</ele>
        <time>2010-05-07T14:10:39Z</time>
      </trkpt>
      <trkpt lat="47.14244" lon="5.77312">
        <ele>282</ele>
        <time>2010-05-07T14:10:40Z</time>
      </trkpt>
      <trkpt lat="47.14247" lon="5.77257">
        <ele>276</ele>
        <time>2010-05-07T14:10:41Z</time>
      </trkpt>
      <trkpt lat="47.14242" lon="5.77246">
        <ele>276</ele>
        <time>2010-05-07T14:10:42Z</time>
      </trkpt>
      <trkpt lat="47.14235" lon="5.77222">
        <ele>282</ele>
        <time>2010-05-07T14:10:44Z</time>
      </trkpt>
      <trkpt lat="47.14228" lon="5.77199">
        <ele>282</ele>
        <time>2010-05-07T14:10:46Z</time>
      </trkpt>
      <trkpt lat="47.14225" lon="5.77186">
        <ele>282</ele>
        <time>2010-05-07T14:10:47Z</time>
      </trkpt>
      <trkpt lat="47.14221" lon="5.77173">
        <ele>282</ele>
        <time>2010-05-07T14:10:48Z</time>
      </trkpt>
      <trkpt lat="47.14218" lon="5.7716">
        <ele>282</ele>
        <time>2010-05-07T14:10:49Z</time>
      </trkpt>
      <trkpt lat="47.14215" lon="5.77147">
        <ele>282</ele>
        <time>2010-05-07T14:10:50Z</time>
      </trkpt>
      <trkpt lat="47.14213" lon="5.77133">
        <ele>282</ele>
        <time>2010-05-07T14:10:51Z</time>
      </trkpt>
      <trkpt lat="47.1421" lon="5.7712">
        <ele>282</ele>
        <time>2010-05-07T14:10:52Z</time>
      </trkpt>
      <trkpt lat="47.14208" lon="5.77107">
        <ele>282</ele>
        <time>2010-05-07T14:10:53Z</time>
      </trkpt>
      <trkpt lat="47.14201" lon="5.77072">
        <ele>282</ele>
        <time>2010-05-07T14:10:55Z</time>
      </trkpt>
      <trkpt lat="47.14196" lon="5.77058">
        <ele>282</ele>
        <time>2010-05-07T14:10:56Z</time>
      </trkpt>
      <trkpt lat="47.14186" lon="5.77043">
        <ele>282</ele>
        <time>2010-05-07T14:10:58Z</time>
      </trkpt>
      <trkpt lat="47.14181" lon="5.77028">
        <ele>282</ele>
        <time>2010-05-07T14:11:00Z</time>
      </trkpt>
      <trkpt lat="47.14178" lon="5.77014">
        <ele>288</ele>
        <time>2010-05-07T14:11:03Z</time>
      </trkpt>
      <trkpt lat="47.14183" lon="5.76996">
        <ele>288</ele>
        <time>2010-05-07T14:11:05Z</time>
      </trkpt>
      <trkpt lat="47.14188" lon="5.76977">
        <ele>288</ele>
        <time>2010-05-07T14:11:07Z</time>
      </trkpt>
      <trkpt lat="47.1419" lon="5.76956">
        <ele>288</ele>
        <time>2010-05-07T14:11:09Z</time>
      </trkpt>
      <trkpt lat="47.14196" lon="5.76928">
        <ele>288</ele>
        <time>2010-05-07T14:11:11Z</time>
      </trkpt>
      <trkpt lat="47.14199" lon="5.76913">
        <ele>294</ele>
        <time>2010-05-07T14:11:12Z</time>
      </trkpt>
      <trkpt lat="47.14204" lon="5.76877">
        <ele>294</ele>
        <time>2010-05-07T14:11:15Z</time>
      </trkpt>
      <trkpt lat="47.1421" lon="5.76851">
        <ele>294</ele>
        <time>2010-05-07T14:11:17Z</time>
      </trkpt>
      <trkpt lat="47.14212" lon="5.76837">
        <ele>303</ele>
        <time>2010-05-07T14:11:18Z</time>
      </trkpt>
      <trkpt lat="47.14216" lon="5.76809">
        <ele>303</ele>
        <time>2010-05-07T14:11:20Z</time>
      </trkpt>
      <trkpt lat="47.1422" lon="5.76793">
        <ele>309</ele>
        <time>2010-05-07T14:11:21Z</time>
      </trkpt>
      <trkpt lat="47.14221" lon="5.76755">
        <ele>309</ele>
        <time>2010-05-07T14:11:22Z</time>
      </trkpt>
      <trkpt lat="47.14223" lon="5.76736">
        <ele>309</ele>
        <time>2010-05-07T14:11:23Z</time>
      </trkpt>
      <trkpt lat="47.14227" lon="5.76713">
        <ele>301</ele>
        <time>2010-05-07T14:11:24Z</time>
      </trkpt>
      <trkpt lat="47.14231" lon="5.76691">
        <ele>301</ele>
        <time>2010-05-07T14:11:25Z</time>
      </trkpt>
      <trkpt lat="47.14236" lon="5.76668">
        <ele>294</ele>
        <time>2010-05-07T14:11:26Z</time>
      </trkpt>
      <trkpt lat="47.1424" lon="5.76647">
        <ele>294</ele>
        <time>2010-05-07T14:11:27Z</time>
      </trkpt>
      <trkpt lat="47.14245" lon="5.76628">
        <ele>289</ele>
        <time>2010-05-07T14:11:28Z</time>
      </trkpt>
      <trkpt lat="47.14249" lon="5.76612">
        <ele>289</ele>
        <time>2010-05-07T14:11:29Z</time>
      </trkpt>
      <trkpt lat="47.14254" lon="5.76588">
        <ele>289</ele>
        <time>2010-05-07T14:11:30Z</time>
      </trkpt>
      <trkpt lat="47.14261" lon="5.76566">
        <ele>289</ele>
        <time>2010-05-07T14:11:31Z</time>
      </trkpt>
      <trkpt lat="47.14267" lon="5.76547">
        <ele>289</ele>
        <time>2010-05-07T14:11:32Z</time>
      </trkpt>
      <trkpt lat="47.1428" lon="5.7651">
        <ele>289</ele>
        <time>2010-05-07T14:11:35Z</time>
      </trkpt>
      <trkpt lat="47.14285" lon="5.76494">
        <ele>289</ele>
        <time>2010-05-07T14:11:36Z</time>
      </trkpt>
      <trkpt lat="47.1429" lon="5.7648">
        <ele>284</ele>
        <time>2010-05-07T14:11:37Z</time>
      </trkpt>
      <trkpt lat="47.14294" lon="5.76467">
        <ele>284</ele>
        <time>2010-05-07T14:11:38Z</time>
      </trkpt>
      <trkpt lat="47.143" lon="5.76451">
        <ele>284</ele>
        <time>2010-05-07T14:11:39Z</time>
      </trkpt>
      <trkpt lat="47.14294" lon="5.76427">
        <ele>262</ele>
        <time>2010-05-07T14:11:40Z</time>
      </trkpt>
      <trkpt lat="47.14295" lon="5.7641">
        <ele>262</ele>
        <time>2010-05-07T14:11:41Z</time>
      </trkpt>
      <trkpt lat="47.14298" lon="5.76392">
        <ele>262</ele>
        <time>2010-05-07T14:11:42Z</time>
      </trkpt>
      <trkpt lat="47.14303" lon="5.76373">
        <ele>262</ele>
        <time>2010-05-07T14:11:43Z</time>
      </trkpt>
      <trkpt lat="47.14309" lon="5.76355">
        <ele>262</ele>
        <time>2010-05-07T14:11:44Z</time>
      </trkpt>
      <trkpt lat="47.14319" lon="5.76331">
        <ele>250</ele>
        <time>2010-05-07T14:11:45Z</time>
      </trkpt>
      <trkpt lat="47.14329" lon="5.76307">
        <ele>239</ele>
        <time>2010-05-07T14:11:46Z</time>
      </trkpt>
      <trkpt lat="47.14338" lon="5.76282">
        <ele>234</ele>
        <time>2010-05-07T14:11:47Z</time>
      </trkpt>
      <trkpt lat="47.14343" lon="5.76262">
        <ele>234</ele>
        <time>2010-05-07T14:11:48Z</time>
      </trkpt>
      <trkpt lat="47.14348" lon="5.76245">
        <ele>234</ele>
        <time>2010-05-07T14:11:49Z</time>
      </trkpt>
      <trkpt lat="47.14354" lon="5.76228">
        <ele>234</ele>
        <time>2010-05-07T14:11:50Z</time>
      </trkpt>
      <trkpt lat="47.14362" lon="5.76215">
        <ele>234</ele>
        <time>2010-05-07T14:11:51Z</time>
      </trkpt>
      <trkpt lat="47.14371" lon="5.76203">
        <ele>234</ele>
        <time>2010-05-07T14:11:52Z</time>
      </trkpt>
      <trkpt lat="47.14381" lon="5.76192">
        <ele>224</ele>
        <time>2010-05-07T14:11:53Z</time>
      </trkpt>
      <trkpt lat="47.14386" lon="5.76181">
        <ele>224</ele>
        <time>2010-05-07T14:11:54Z</time>
      </trkpt>
      <trkpt lat="47.14396" lon="5.76172">
        <ele>224</ele>
        <time>2010-05-07T14:11:55Z</time>
      </trkpt>
      <trkpt lat="47.1441" lon="5.76169">
        <ele>214</ele>
        <time>2010-05-07T14:11:56Z</time>
      </trkpt>
      <trkpt lat="47.14419" lon="5.76162">
        <ele>214</ele>
        <time>2010-05-07T14:11:57Z</time>
      </trkpt>
      <trkpt lat="47.14426" lon="5.76153">
        <ele>214</ele>
        <time>2010-05-07T14:11:58Z</time>
      </trkpt>
      <trkpt lat="47.1444" lon="5.76144">
        <ele>214</ele>
        <time>2010-05-07T14:12:00Z</time>
      </trkpt>
      <trkpt lat="47.14456" lon="5.76131">
        <ele>214</ele>
        <time>2010-05-07T14:12:02Z</time>
      </trkpt>
      <trkpt lat="47.14468" lon="5.76112">
        <ele>220</ele>
        <time>2010-05-07T14:12:04Z</time>
      </trkpt>
      <trkpt lat="47.14479" lon="5.76097">
        <ele>220</ele>
        <time>2010-05-07T14:12:06Z</time>
      </trkpt>
      <trkpt lat="47.14492" lon="5.76082">
        <ele>220</ele>
        <time>2010-05-07T14:12:08Z</time>
      </trkpt>
      <trkpt lat="47.14508" lon="5.76073">
        <ele>220</ele>
        <time>2010-05-07T14:12:10Z</time>
      </trkpt>
      <trkpt lat="47.14522" lon="5.7607">
        <ele>220</ele>
        <time>2010-05-07T14:12:12Z</time>
      </trkpt>
      <trkpt lat="47.14533" lon="5.76071">
        <ele>230</ele>
        <time>2010-05-07T14:12:14Z</time>
      </trkpt>
      <trkpt lat="47.14547" lon="5.76071">
        <ele>237</ele>
        <time>2010-05-07T14:12:16Z</time>
      </trkpt>
      <trkpt lat="47.14563" lon="5.76075">
        <ele>243</ele>
        <time>2010-05-07T14:12:18Z</time>
      </trkpt>
      <trkpt lat="47.14571" lon="5.76079">
        <ele>243</ele>
        <time>2010-05-07T14:12:19Z</time>
      </trkpt>
      <trkpt lat="47.14587" lon="5.76086">
        <ele>249</ele>
        <time>2010-05-07T14:12:21Z</time>
      </trkpt>
      <trkpt lat="47.14596" lon="5.76093">
        <ele>249</ele>
        <time>2010-05-07T14:12:22Z</time>
      </trkpt>
      <trkpt lat="47.14606" lon="5.76097">
        <ele>249</ele>
        <time>2010-05-07T14:12:23Z</time>
      </trkpt>
      <trkpt lat="47.14644" lon="5.76105">
        <ele>249</ele>
        <time>2010-05-07T14:12:27Z</time>
      </trkpt>
      <trkpt lat="47.14654" lon="5.76115">
        <ele>249</ele>
        <time>2010-05-07T14:12:28Z</time>
      </trkpt>
      <trkpt lat="47.14668" lon="5.76122">
        <ele>249</ele>
        <time>2010-05-07T14:12:29Z</time>
      </trkpt>
      <trkpt lat="47.14682" lon="5.76127">
        <ele>249</ele>
        <time>2010-05-07T14:12:30Z</time>
      </trkpt>
      <trkpt lat="47.14693" lon="5.76133">
        <ele>249</ele>
        <time>2010-05-07T14:12:31Z</time>
      </trkpt>
      <trkpt lat="47.14706" lon="5.76138">
        <ele>249</ele>
        <time>2010-05-07T14:12:32Z</time>
      </trkpt>
      <trkpt lat="47.14719" lon="5.76148">
        <ele>249</ele>
        <time>2010-05-07T14:12:33Z</time>
      </trkpt>
      <trkpt lat="47.14733" lon="5.76159">
        <ele>240</ele>
        <time>2010-05-07T14:12:34Z</time>
      </trkpt>
      <trkpt lat="47.14742" lon="5.76162">
        <ele>240</ele>
        <time>2010-05-07T14:12:35Z</time>
      </trkpt>
      <trkpt lat="47.14761" lon="5.76169">
        <ele>235</ele>
        <time>2010-05-07T14:12:37Z</time>
      </trkpt>
      <trkpt lat="47.14772" lon="5.76173">
        <ele>235</ele>
        <time>2010-05-07T14:12:38Z</time>
      </trkpt>
      <trkpt lat="47.14782" lon="5.76176">
        <ele>235</ele>
        <time>2010-05-07T14:12:39Z</time>
      </trkpt>
      <trkpt lat="47.14791" lon="5.76178">
        <ele>235</ele>
        <time>2010-05-07T14:12:40Z</time>
      </trkpt>
      <trkpt lat="47.148" lon="5.76181">
        <ele>229</ele>
        <time>2010-05-07T14:12:41Z</time>
      </trkpt>
      <trkpt lat="47.14817" lon="5.76185">
        <ele>229</ele>
        <time>2010-05-07T14:12:43Z</time>
      </trkpt>
      <trkpt lat="47.14832" lon="5.76188">
        <ele>223</ele>
        <time>2010-05-07T14:12:45Z</time>
      </trkpt>
      <trkpt lat="47.14844" lon="5.76194">
        <ele>223</ele>
        <time>2010-05-07T14:12:47Z</time>
      </trkpt>
      <trkpt lat="47.14856" lon="5.76197">
        <ele>223</ele>
        <time>2010-05-07T14:12:49Z</time>
      </trkpt>
      <trkpt lat="47.14869" lon="5.76196">
        <ele>223</ele>
        <time>2010-05-07T14:12:51Z</time>
      </trkpt>
      <trkpt lat="47.1488" lon="5.76195">
        <ele>223</ele>
        <time>2010-05-07T14:12:53Z</time>
      </trkpt>
      <trkpt lat="47.14891" lon="5.76193">
        <ele>223</ele>
        <time>2010-05-07T14:12:55Z</time>
      </trkpt>
      <trkpt lat="47.149" lon="5.76194">
        <ele>223</ele>
        <time>2010-05-07T14:12:57Z</time>
      </trkpt>
      <trkpt lat="47.14912" lon="5.76193">
        <ele>223</ele>
        <time>2010-05-07T14:13:00Z</time>
      </trkpt>
      <trkpt lat="47.14923" lon="5.76184">
        <ele>223</ele>
        <time>2010-05-07T14:13:03Z</time>
      </trkpt>
      <trkpt lat="47.14929" lon="5.76168">
        <ele>223</ele>
        <time>2010-05-07T14:13:06Z</time>
      </trkpt>
      <trkpt lat="47.14933" lon="5.76179">
        <ele>223</ele>
        <time>2010-05-07T14:13:19Z</time>
      </trkpt>
      <trkpt lat="47.14926" lon="5.76169">
        <ele>236</ele>
        <time>2010-05-07T14:13:44Z</time>
      </trkpt>
      <trkpt lat="47.14923" lon="5.76155">
        <ele>236</ele>
        <time>2010-05-07T14:13:48Z</time>
      </trkpt>
      <trkpt lat="47.14923" lon="5.76139">
        <ele>236</ele>
        <time>2010-05-07T14:13:51Z</time>
      </trkpt>
      <trkpt lat="47.14924" lon="5.76122">
        <ele>236</ele>
        <time>2010-05-07T14:13:54Z</time>
      </trkpt>
      <trkpt lat="47.14918" lon="5.7611">
        <ele>236</ele>
        <time>2010-05-07T14:13:57Z</time>
      </trkpt>
      <trkpt lat="47.14908" lon="5.761">
        <ele>236</ele>
        <time>2010-05-07T14:14:00Z</time>
      </trkpt>
      <trkpt lat="47.14896" lon="5.76094">
        <ele>236</ele>
        <time>2010-05-07T14:14:02Z</time>
      </trkpt>
      <trkpt lat="47.14886" lon="5.76087">
        <ele>236</ele>
        <time>2010-05-07T14:14:04Z</time>
      </trkpt>
      <trkpt lat="47.14876" lon="5.76074">
        <ele>236</ele>
        <time>2010-05-07T14:14:07Z</time>
      </trkpt>
      <trkpt lat="47.14869" lon="5.76061">
        <ele>236</ele>
        <time>2010-05-07T14:14:10Z</time>
      </trkpt>
      <trkpt lat="47.14857" lon="5.76045">
        <ele>236</ele>
        <time>2010-05-07T14:14:14Z</time>
      </trkpt>
      <trkpt lat="47.1485" lon="5.76036">
        <ele>236</ele>
        <time>2010-05-07T14:14:16Z</time>
      </trkpt>
      <trkpt lat="47.14841" lon="5.76031">
        <ele>236</ele>
        <time>2010-05-07T14:14:18Z</time>
      </trkpt>
      <trkpt lat="47.14834" lon="5.76021">
        <ele>236</ele>
        <time>2010-05-07T14:14:20Z</time>
      </trkpt>
      <trkpt lat="47.14826" lon="5.76011">
        <ele>236</ele>
        <time>2010-05-07T14:14:22Z</time>
      </trkpt>
      <trkpt lat="47.14818" lon="5.76">
        <ele>236</ele>
        <time>2010-05-07T14:14:25Z</time>
      </trkpt>
      <trkpt lat="47.1481" lon="5.7599">
        <ele>236</ele>
        <time>2010-05-07T14:14:28Z</time>
      </trkpt>
      <trkpt lat="47.14802" lon="5.75983">
        <ele>236</ele>
        <time>2010-05-07T14:14:30Z</time>
      </trkpt>
      <trkpt lat="47.14796" lon="5.75972">
        <ele>229</ele>
        <time>2010-05-07T14:14:32Z</time>
      </trkpt>
      <trkpt lat="47.1479" lon="5.75958">
        <ele>229</ele>
        <time>2010-05-07T14:14:35Z</time>
      </trkpt>
      <trkpt lat="47.14785" lon="5.75945">
        <ele>229</ele>
        <time>2010-05-07T14:14:37Z</time>
      </trkpt>
      <trkpt lat="47.14779" lon="5.75933">
        <ele>229</ele>
        <time>2010-05-07T14:14:39Z</time>
      </trkpt>
      <trkpt lat="47.14772" lon="5.75917">
        <ele>222</ele>
        <time>2010-05-07T14:14:42Z</time>
      </trkpt>
      <trkpt lat="47.14763" lon="5.75913">
        <ele>222</ele>
        <time>2010-05-07T14:14:45Z</time>
      </trkpt>
      <trkpt lat="47.14755" lon="5.75906">
        <ele>222</ele>
        <time>2010-05-07T14:14:48Z</time>
      </trkpt>
      <trkpt lat="47.14745" lon="5.75905">
        <ele>222</ele>
        <time>2010-05-07T14:14:51Z</time>
      </trkpt>
      <trkpt lat="47.14736" lon="5.75896">
        <ele>222</ele>
        <time>2010-05-07T14:14:54Z</time>
      </trkpt>
      <trkpt lat="47.1473" lon="5.75882">
        <ele>229</ele>
        <time>2010-05-07T14:14:57Z</time>
      </trkpt>
      <trkpt lat="47.14726" lon="5.75868">
        <ele>229</ele>
        <time>2010-05-07T14:14:59Z</time>
      </trkpt>
      <trkpt lat="47.14723" lon="5.75854">
        <ele>229</ele>
        <time>2010-05-07T14:15:01Z</time>
      </trkpt>
      <trkpt lat="47.14718" lon="5.75837">
        <ele>229</ele>
        <time>2010-05-07T14:15:04Z</time>
      </trkpt>
      <trkpt lat="47.14712" lon="5.75821">
        <ele>229</ele>
        <time>2010-05-07T14:15:07Z</time>
      </trkpt>
      <trkpt lat="47.1471" lon="5.75804">
        <ele>229</ele>
        <time>2010-05-07T14:15:09Z</time>
      </trkpt>
      <trkpt lat="47.14706" lon="5.75791">
        <ele>229</ele>
        <time>2010-05-07T14:15:11Z</time>
      </trkpt>
      <trkpt lat="47.14703" lon="5.75773">
        <ele>229</ele>
        <time>2010-05-07T14:15:13Z</time>
      </trkpt>
      <trkpt lat="47.14701" lon="5.75755">
        <ele>229</ele>
        <time>2010-05-07T14:15:15Z</time>
      </trkpt>
      <trkpt lat="47.14698" lon="5.75738">
        <ele>224</ele>
        <time>2010-05-07T14:15:17Z</time>
      </trkpt>
      <trkpt lat="47.14695" lon="5.75722">
        <ele>224</ele>
        <time>2010-05-07T14:15:19Z</time>
      </trkpt>
      <trkpt lat="47.14691" lon="5.75709">
        <ele>224</ele>
        <time>2010-05-07T14:15:21Z</time>
      </trkpt>
      <trkpt lat="47.14689" lon="5.75695">
        <ele>224</ele>
        <time>2010-05-07T14:15:23Z</time>
      </trkpt>
      <trkpt lat="47.14685" lon="5.75678">
        <ele>224</ele>
        <time>2010-05-07T14:15:26Z</time>
      </trkpt>
      <trkpt lat="47.1468" lon="5.75665">
        <ele>216</ele>
        <time>2010-05-07T14:15:29Z</time>
      </trkpt>
      <trkpt lat="47.14678" lon="5.75652">
        <ele>216</ele>
        <time>2010-05-07T14:15:31Z</time>
      </trkpt>
      <trkpt lat="47.14674" lon="5.75633">
        <ele>216</ele>
        <time>2010-05-07T14:15:34Z</time>
      </trkpt>
      <trkpt lat="47.14671" lon="5.75619">
        <ele>216</ele>
        <time>2010-05-07T14:15:36Z</time>
      </trkpt>
      <trkpt lat="47.14667" lon="5.75605">
        <ele>216</ele>
        <time>2010-05-07T14:15:38Z</time>
      </trkpt>
      <trkpt lat="47.14662" lon="5.75587">
        <ele>216</ele>
        <time>2010-05-07T14:15:41Z</time>
      </trkpt>
      <trkpt lat="47.14659" lon="5.75575">
        <ele>216</ele>
        <time>2010-05-07T14:15:43Z</time>
      </trkpt>
      <trkpt lat="47.14655" lon="5.75557">
        <ele>216</ele>
        <time>2010-05-07T14:15:46Z</time>
      </trkpt>
      <trkpt lat="47.1465" lon="5.75539">
        <ele>216</ele>
        <time>2010-05-07T14:15:49Z</time>
      </trkpt>
      <trkpt lat="47.14646" lon="5.75526">
        <ele>216</ele>
        <time>2010-05-07T14:15:51Z</time>
      </trkpt>
      <trkpt lat="47.14643" lon="5.75513">
        <ele>216</ele>
        <time>2010-05-07T14:15:53Z</time>
      </trkpt>
      <trkpt lat="47.14639" lon="5.75499">
        <ele>216</ele>
        <time>2010-05-07T14:15:55Z</time>
      </trkpt>
      <trkpt lat="47.14636" lon="5.75483">
        <ele>216</ele>
        <time>2010-05-07T14:15:57Z</time>
      </trkpt>
      <trkpt lat="47.14631" lon="5.75466">
        <ele>216</ele>
        <time>2010-05-07T14:15:59Z</time>
      </trkpt>
      <trkpt lat="47.14628" lon="5.7545">
        <ele>216</ele>
        <time>2010-05-07T14:16:01Z</time>
      </trkpt>
      <trkpt lat="47.14624" lon="5.75433">
        <ele>216</ele>
        <time>2010-05-07T14:16:03Z</time>
      </trkpt>
      <trkpt lat="47.1462" lon="5.75416">
        <ele>216</ele>
        <time>2010-05-07T14:16:05Z</time>
      </trkpt>
      <trkpt lat="47.14618" lon="5.75399">
        <ele>216</ele>
        <time>2010-05-07T14:16:07Z</time>
      </trkpt>
      <trkpt lat="47.14614" lon="5.75381">
        <ele>216</ele>
        <time>2010-05-07T14:16:09Z</time>
      </trkpt>
      <trkpt lat="47.14614" lon="5.75362">
        <ele>216</ele>
        <time>2010-05-07T14:16:11Z</time>
      </trkpt>
      <trkpt lat="47.14614" lon="5.75342">
        <ele>216</ele>
        <time>2010-05-07T14:16:13Z</time>
      </trkpt>
      <trkpt lat="47.14618" lon="5.75304">
        <ele>216</ele>
        <time>2010-05-07T14:16:17Z</time>
      </trkpt>
      <trkpt lat="47.14629" lon="5.75257">
        <ele>216</ele>
        <time>2010-05-07T14:16:22Z</time>
      </trkpt>
      <trkpt lat="47.14633" lon="5.75245">
        <ele>216</ele>
        <time>2010-05-07T14:16:23Z</time>
      </trkpt>
      <trkpt lat="47.14637" lon="5.75232">
        <ele>216</ele>
        <time>2010-05-07T14:16:24Z</time>
      </trkpt>
      <trkpt lat="47.14644" lon="5.75215">
        <ele>216</ele>
        <time>2010-05-07T14:16:26Z</time>
      </trkpt>
      <trkpt lat="47.14649" lon="5.75198">
        <ele>216</ele>
        <time>2010-05-07T14:16:28Z</time>
      </trkpt>
      <trkpt lat="47.14655" lon="5.75182">
        <ele>211</ele>
        <time>2010-05-07T14:16:30Z</time>
      </trkpt>
      <trkpt lat="47.1466" lon="5.75163">
        <ele>211</ele>
        <time>2010-05-07T14:16:32Z</time>
      </trkpt>
      <trkpt lat="47.14666" lon="5.75145">
        <ele>211</ele>
        <time>2010-05-07T14:16:34Z</time>
      </trkpt>
      <trkpt lat="47.14673" lon="5.75128">
        <ele>211</ele>
        <time>2010-05-07T14:16:36Z</time>
      </trkpt>
      <trkpt lat="47.14679" lon="5.75112">
        <ele>211</ele>
        <time>2010-05-07T14:16:38Z</time>
      </trkpt>
      <trkpt lat="47.14685" lon="5.75095">
        <ele>211</ele>
        <time>2010-05-07T14:16:40Z</time>
      </trkpt>
      <trkpt lat="47.1469" lon="5.7508">
        <ele>211</ele>
        <time>2010-05-07T14:16:42Z</time>
      </trkpt>
      <trkpt lat="47.14696" lon="5.75065">
        <ele>211</ele>
        <time>2010-05-07T14:16:44Z</time>
      </trkpt>
      <trkpt lat="47.14703" lon="5.75049">
        <ele>211</ele>
        <time>2010-05-07T14:16:46Z</time>
      </trkpt>
      <trkpt lat="47.14709" lon="5.75031">
        <ele>211</ele>
        <time>2010-05-07T14:16:48Z</time>
      </trkpt>
      <trkpt lat="47.14716" lon="5.75016">
        <ele>211</ele>
        <time>2010-05-07T14:16:50Z</time>
      </trkpt>
      <trkpt lat="47.14724" lon="5.74997">
        <ele>211</ele>
        <time>2010-05-07T14:16:52Z</time>
      </trkpt>
      <trkpt lat="47.14731" lon="5.7498">
        <ele>211</ele>
        <time>2010-05-07T14:16:54Z</time>
      </trkpt>
      <trkpt lat="47.14739" lon="5.74962">
        <ele>211</ele>
        <time>2010-05-07T14:16:56Z</time>
      </trkpt>
      <trkpt lat="47.14747" lon="5.74943">
        <ele>211</ele>
        <time>2010-05-07T14:16:58Z</time>
      </trkpt>
      <trkpt lat="47.14755" lon="5.74925">
        <ele>211</ele>
        <time>2010-05-07T14:17:00Z</time>
      </trkpt>
      <trkpt lat="47.1476" lon="5.74908">
        <ele>211</ele>
        <time>2010-05-07T14:17:02Z</time>
      </trkpt>
      <trkpt lat="47.14764" lon="5.74892">
        <ele>211</ele>
        <time>2010-05-07T14:17:04Z</time>
      </trkpt>
      <trkpt lat="47.14769" lon="5.74872">
        <ele>211</ele>
        <time>2010-05-07T14:17:06Z</time>
      </trkpt>
      <trkpt lat="47.14772" lon="5.74859">
        <ele>211</ele>
        <time>2010-05-07T14:17:07Z</time>
      </trkpt>
      <trkpt lat="47.14775" lon="5.74836">
        <ele>211</ele>
        <time>2010-05-07T14:17:09Z</time>
      </trkpt>
      <trkpt lat="47.14777" lon="5.74813">
        <ele>211</ele>
        <time>2010-05-07T14:17:11Z</time>
      </trkpt>
      <trkpt lat="47.1478" lon="5.74792">
        <ele>211</ele>
        <time>2010-05-07T14:17:13Z</time>
      </trkpt>
      <trkpt lat="47.14783" lon="5.74774">
        <ele>211</ele>
        <time>2010-05-07T14:17:15Z</time>
      </trkpt>
      <trkpt lat="47.14786" lon="5.74755">
        <ele>211</ele>
        <time>2010-05-07T14:17:17Z</time>
      </trkpt>
      <trkpt lat="47.1479" lon="5.74736">
        <ele>211</ele>
        <time>2010-05-07T14:17:19Z</time>
      </trkpt>
      <trkpt lat="47.14793" lon="5.74715">
        <ele>211</ele>
        <time>2010-05-07T14:17:21Z</time>
      </trkpt>
      <trkpt lat="47.14798" lon="5.74695">
        <ele>211</ele>
        <time>2010-05-07T14:17:23Z</time>
      </trkpt>
      <trkpt lat="47.14801" lon="5.74675">
        <ele>211</ele>
        <time>2010-05-07T14:17:25Z</time>
      </trkpt>
      <trkpt lat="47.14806" lon="5.74654">
        <ele>211</ele>
        <time>2010-05-07T14:17:27Z</time>
      </trkpt>
      <trkpt lat="47.14811" lon="5.74635">
        <ele>211</ele>
        <time>2010-05-07T14:17:29Z</time>
      </trkpt>
      <trkpt lat="47.14817" lon="5.74615">
        <ele>211</ele>
        <time>2010-05-07T14:17:31Z</time>
      </trkpt>
      <trkpt lat="47.14823" lon="5.74596">
        <ele>211</ele>
        <time>2010-05-07T14:17:33Z</time>
      </trkpt>
      <trkpt lat="47.14829" lon="5.74578">
        <ele>211</ele>
        <time>2010-05-07T14:17:35Z</time>
      </trkpt>
      <trkpt lat="47.14836" lon="5.7456">
        <ele>211</ele>
        <time>2010-05-07T14:17:37Z</time>
      </trkpt>
      <trkpt lat="47.14842" lon="5.74543">
        <ele>211</ele>
        <time>2010-05-07T14:17:39Z</time>
      </trkpt>
      <trkpt lat="47.14849" lon="5.74524">
        <ele>211</ele>
        <time>2010-05-07T14:17:41Z</time>
      </trkpt>
      <trkpt lat="47.14857" lon="5.74505">
        <ele>211</ele>
        <time>2010-05-07T14:17:43Z</time>
      </trkpt>
      <trkpt lat="47.14864" lon="5.74486">
        <ele>211</ele>
        <time>2010-05-07T14:17:45Z</time>
      </trkpt>
      <trkpt lat="47.14871" lon="5.74469">
        <ele>211</ele>
        <time>2010-05-07T14:17:47Z</time>
      </trkpt>
      <trkpt lat="47.14878" lon="5.7445">
        <ele>211</ele>
        <time>2010-05-07T14:17:49Z</time>
      </trkpt>
      <trkpt lat="47.14885" lon="5.7443">
        <ele>211</ele>
        <time>2010-05-07T14:17:51Z</time>
      </trkpt>
      <trkpt lat="47.1489" lon="5.74412">
        <ele>211</ele>
        <time>2010-05-07T14:17:53Z</time>
      </trkpt>
      <trkpt lat="47.14894" lon="5.74392">
        <ele>211</ele>
        <time>2010-05-07T14:17:55Z</time>
      </trkpt>
      <trkpt lat="47.14896" lon="5.74372">
        <ele>211</ele>
        <time>2010-05-07T14:17:57Z</time>
      </trkpt>
      <trkpt lat="47.14896" lon="5.74351">
        <ele>211</ele>
        <time>2010-05-07T14:17:59Z</time>
      </trkpt>
      <trkpt lat="47.14896" lon="5.74333">
        <ele>211</ele>
        <time>2010-05-07T14:18:01Z</time>
      </trkpt>
      <trkpt lat="47.14896" lon="5.74313">
        <ele>211</ele>
        <time>2010-05-07T14:18:03Z</time>
      </trkpt>
      <trkpt lat="47.14894" lon="5.74294">
        <ele>211</ele>
        <time>2010-05-07T14:18:05Z</time>
      </trkpt>
      <trkpt lat="47.14892" lon="5.74274">
        <ele>211</ele>
        <time>2010-05-07T14:18:07Z</time>
      </trkpt>
      <trkpt lat="47.14891" lon="5.74253">
        <ele>211</ele>
        <time>2010-05-07T14:18:09Z</time>
      </trkpt>
      <trkpt lat="47.14889" lon="5.74233">
        <ele>211</ele>
        <time>2010-05-07T14:18:11Z</time>
      </trkpt>
      <trkpt lat="47.14887" lon="5.74212">
        <ele>211</ele>
        <time>2010-05-07T14:18:13Z</time>
      </trkpt>
      <trkpt lat="47.14885" lon="5.74191">
        <ele>211</ele>
        <time>2010-05-07T14:18:15Z</time>
      </trkpt>
      <trkpt lat="47.14883" lon="5.7417">
        <ele>211</ele>
        <time>2010-05-07T14:18:17Z</time>
      </trkpt>
      <trkpt lat="47.14881" lon="5.74149">
        <ele>211</ele>
        <time>2010-05-07T14:18:19Z</time>
      </trkpt>
      <trkpt lat="47.1488" lon="5.74128">
        <ele>211</ele>
        <time>2010-05-07T14:18:21Z</time>
      </trkpt>
      <trkpt lat="47.14878" lon="5.74106">
        <ele>211</ele>
        <time>2010-05-07T14:18:23Z</time>
      </trkpt>
      <trkpt lat="47.14876" lon="5.74086">
        <ele>211</ele>
        <time>2010-05-07T14:18:25Z</time>
      </trkpt>
      <trkpt lat="47.14874" lon="5.74064">
        <ele>211</ele>
        <time>2010-05-07T14:18:27Z</time>
      </trkpt>
      <trkpt lat="47.1487" lon="5.74042">
        <ele>211</ele>
        <time>2010-05-07T14:18:29Z</time>
      </trkpt>
      <trkpt lat="47.14867" lon="5.74021">
        <ele>211</ele>
        <time>2010-05-07T14:18:31Z</time>
      </trkpt>
      <trkpt lat="47.14861" lon="5.73998">
        <ele>211</ele>
        <time>2010-05-07T14:18:33Z</time>
      </trkpt>
      <trkpt lat="47.14855" lon="5.73975">
        <ele>211</ele>
        <time>2010-05-07T14:18:35Z</time>
      </trkpt>
      <trkpt lat="47.14849" lon="5.73952">
        <ele>211</ele>
        <time>2010-05-07T14:18:37Z</time>
      </trkpt>
      <trkpt lat="47.14847" lon="5.73939">
        <ele>211</ele>
        <time>2010-05-07T14:18:38Z</time>
      </trkpt>
      <trkpt lat="47.14845" lon="5.73914">
        <ele>211</ele>
        <time>2010-05-07T14:18:40Z</time>
      </trkpt>
      <trkpt lat="47.14845" lon="5.739">
        <ele>211</ele>
        <time>2010-05-07T14:18:41Z</time>
      </trkpt>
      <trkpt lat="47.14845" lon="5.73887">
        <ele>211</ele>
        <time>2010-05-07T14:18:42Z</time>
      </trkpt>
      <trkpt lat="47.14845" lon="5.73873">
        <ele>211</ele>
        <time>2010-05-07T14:18:43Z</time>
      </trkpt>
      <trkpt lat="47.14845" lon="5.73847">
        <ele>211</ele>
        <time>2010-05-07T14:18:45Z</time>
      </trkpt>
      <trkpt lat="47.14843" lon="5.73823">
        <ele>211</ele>
        <time>2010-05-07T14:18:47Z</time>
      </trkpt>
      <trkpt lat="47.14839" lon="5.738">
        <ele>211</ele>
        <time>2010-05-07T14:18:49Z</time>
      </trkpt>
      <trkpt lat="47.14835" lon="5.73778">
        <ele>211</ele>
        <time>2010-05-07T14:18:51Z</time>
      </trkpt>
      <trkpt lat="47.14831" lon="5.73758">
        <ele>211</ele>
        <time>2010-05-07T14:18:53Z</time>
      </trkpt>
      <trkpt lat="47.14826" lon="5.73739">
        <ele>211</ele>
        <time>2010-05-07T14:18:55Z</time>
      </trkpt>
      <trkpt lat="47.14821" lon="5.73721">
        <ele>211</ele>
        <time>2010-05-07T14:18:57Z</time>
      </trkpt>
      <trkpt lat="47.14817" lon="5.73702">
        <ele>211</ele>
        <time>2010-05-07T14:18:59Z</time>
      </trkpt>
      <trkpt lat="47.14813" lon="5.73683">
        <ele>211</ele>
        <time>2010-05-07T14:19:01Z</time>
      </trkpt>
      <trkpt lat="47.14808" lon="5.73664">
        <ele>211</ele>
        <time>2010-05-07T14:19:03Z</time>
      </trkpt>
      <trkpt lat="47.14803" lon="5.73644">
        <ele>211</ele>
        <time>2010-05-07T14:19:05Z</time>
      </trkpt>
      <trkpt lat="47.14799" lon="5.73625">
        <ele>211</ele>
        <time>2010-05-07T14:19:07Z</time>
      </trkpt>
      <trkpt lat="47.14794" lon="5.73604">
        <ele>211</ele>
        <time>2010-05-07T14:19:09Z</time>
      </trkpt>
      <trkpt lat="47.1479" lon="5.73583">
        <ele>211</ele>
        <time>2010-05-07T14:19:11Z</time>
      </trkpt>
      <trkpt lat="47.14785" lon="5.73564">
        <ele>211</ele>
        <time>2010-05-07T14:19:13Z</time>
      </trkpt>
      <trkpt lat="47.1478" lon="5.73543">
        <ele>211</ele>
        <time>2010-05-07T14:19:15Z</time>
      </trkpt>
      <trkpt lat="47.14775" lon="5.73523">
        <ele>211</ele>
        <time>2010-05-07T14:19:17Z</time>
      </trkpt>
      <trkpt lat="47.14771" lon="5.73502">
        <ele>211</ele>
        <time>2010-05-07T14:19:19Z</time>
      </trkpt>
      <trkpt lat="47.14765" lon="5.73483">
        <ele>211</ele>
        <time>2010-05-07T14:19:21Z</time>
      </trkpt>
      <trkpt lat="47.1476" lon="5.73462">
        <ele>211</ele>
        <time>2010-05-07T14:19:23Z</time>
      </trkpt>
      <trkpt lat="47.14756" lon="5.73443">
        <ele>211</ele>
        <time>2010-05-07T14:19:25Z</time>
      </trkpt>
      <trkpt lat="47.14751" lon="5.73423">
        <ele>211</ele>
        <time>2010-05-07T14:19:27Z</time>
      </trkpt>
      <trkpt lat="47.14746" lon="5.73404">
        <ele>211</ele>
        <time>2010-05-07T14:19:29Z</time>
      </trkpt>
      <trkpt lat="47.14741" lon="5.73385">
        <ele>211</ele>
        <time>2010-05-07T14:19:31Z</time>
      </trkpt>
      <trkpt lat="47.14737" lon="5.73364">
        <ele>216</ele>
        <time>2010-05-07T14:19:33Z</time>
      </trkpt>
      <trkpt lat="47.14733" lon="5.73344">
        <ele>216</ele>
        <time>2010-05-07T14:19:35Z</time>
      </trkpt>
      <trkpt lat="47.14728" lon="5.73325">
        <ele>216</ele>
        <time>2010-05-07T14:19:37Z</time>
      </trkpt>
      <trkpt lat="47.14723" lon="5.73305">
        <ele>216</ele>
        <time>2010-05-07T14:19:39Z</time>
      </trkpt>
      <trkpt lat="47.14717" lon="5.73286">
        <ele>216</ele>
        <time>2010-05-07T14:19:41Z</time>
      </trkpt>
      <trkpt lat="47.14711" lon="5.73267">
        <ele>216</ele>
        <time>2010-05-07T14:19:43Z</time>
      </trkpt>
      <trkpt lat="47.14706" lon="5.73247">
        <ele>216</ele>
        <time>2010-05-07T14:19:45Z</time>
      </trkpt>
      <trkpt lat="47.14701" lon="5.73228">
        <ele>216</ele>
        <time>2010-05-07T14:19:47Z</time>
      </trkpt>
      <trkpt lat="47.14695" lon="5.73209">
        <ele>216</ele>
        <time>2010-05-07T14:19:49Z</time>
      </trkpt>
      <trkpt lat="47.1469" lon="5.73189">
        <ele>216</ele>
        <time>2010-05-07T14:19:51Z</time>
      </trkpt>
      <trkpt lat="47.14685" lon="5.73167">
        <ele>216</ele>
        <time>2010-05-07T14:19:53Z</time>
      </trkpt>
      <trkpt lat="47.14679" lon="5.73147">
        <ele>216</ele>
        <time>2010-05-07T14:19:55Z</time>
      </trkpt>
      <trkpt lat="47.14674" lon="5.73127">
        <ele>216</ele>
        <time>2010-05-07T14:19:57Z</time>
      </trkpt>
      <trkpt lat="47.14669" lon="5.73107">
        <ele>216</ele>
        <time>2010-05-07T14:19:59Z</time>
      </trkpt>
      <trkpt lat="47.14664" lon="5.73087">
        <ele>216</ele>
        <time>2010-05-07T14:20:01Z</time>
      </trkpt>
      <trkpt lat="47.14659" lon="5.73066">
        <ele>216</ele>
        <time>2010-05-07T14:20:03Z</time>
      </trkpt>
      <trkpt lat="47.14655" lon="5.73044">
        <ele>216</ele>
        <time>2010-05-07T14:20:05Z</time>
      </trkpt>
      <trkpt lat="47.14651" lon="5.73024">
        <ele>216</ele>
        <time>2010-05-07T14:20:07Z</time>
      </trkpt>
      <trkpt lat="47.14647" lon="5.73004">
        <ele>216</ele>
        <time>2010-05-07T14:20:09Z</time>
      </trkpt>
      <trkpt lat="47.14644" lon="5.72982">
        <ele>216</ele>
        <time>2010-05-07T14:20:11Z</time>
      </trkpt>
      <trkpt lat="47.1464" lon="5.72962">
        <ele>216</ele>
        <time>2010-05-07T14:20:13Z</time>
      </trkpt>
      <trkpt lat="47.14634" lon="5.72946">
        <ele>216</ele>
        <time>2010-05-07T14:20:15Z</time>
      </trkpt>
      <trkpt lat="47.1463" lon="5.72928">
        <ele>216</ele>
        <time>2010-05-07T14:20:17Z</time>
      </trkpt>
      <trkpt lat="47.14626" lon="5.72908">
        <ele>216</ele>
        <time>2010-05-07T14:20:19Z</time>
      </trkpt>
      <trkpt lat="47.14622" lon="5.72887">
        <ele>216</ele>
        <time>2010-05-07T14:20:21Z</time>
      </trkpt>
      <trkpt lat="47.14617" lon="5.72867">
        <ele>216</ele>
        <time>2010-05-07T14:20:23Z</time>
      </trkpt>
      <trkpt lat="47.14615" lon="5.7285">
        <ele>216</ele>
        <time>2010-05-07T14:20:25Z</time>
      </trkpt>
      <trkpt lat="47.14614" lon="5.72835">
        <ele>216</ele>
        <time>2010-05-07T14:20:27Z</time>
      </trkpt>
      <trkpt lat="47.14608" lon="5.7282">
        <ele>216</ele>
        <time>2010-05-07T14:20:29Z</time>
      </trkpt>
      <trkpt lat="47.14601" lon="5.72806">
        <ele>216</ele>
        <time>2010-05-07T14:20:31Z</time>
      </trkpt>
      <trkpt lat="47.14597" lon="5.72792">
        <ele>216</ele>
        <time>2010-05-07T14:20:33Z</time>
      </trkpt>
      <trkpt lat="47.14591" lon="5.72778">
        <ele>216</ele>
        <time>2010-05-07T14:20:35Z</time>
      </trkpt>
      <trkpt lat="47.14579" lon="5.72769">
        <ele>216</ele>
        <time>2010-05-07T14:20:37Z</time>
      </trkpt>
      <trkpt lat="47.14571" lon="5.72765">
        <ele>224</ele>
        <time>2010-05-07T14:20:39Z</time>
      </trkpt>
      <trkpt lat="47.14563" lon="5.72757">
        <ele>231</ele>
        <time>2010-05-07T14:20:41Z</time>
      </trkpt>
      <trkpt lat="47.14555" lon="5.72743">
        <ele>231</ele>
        <time>2010-05-07T14:20:44Z</time>
      </trkpt>
      <trkpt lat="47.14549" lon="5.72732">
        <ele>231</ele>
        <time>2010-05-07T14:20:46Z</time>
      </trkpt>
      <trkpt lat="47.14545" lon="5.72717">
        <ele>242</ele>
        <time>2010-05-07T14:20:49Z</time>
      </trkpt>
      <trkpt lat="47.14541" lon="5.72704">
        <ele>248</ele>
        <time>2010-05-07T14:20:52Z</time>
      </trkpt>
      <trkpt lat="47.14538" lon="5.72691">
        <ele>254</ele>
        <time>2010-05-07T14:20:57Z</time>
      </trkpt>
      <trkpt lat="47.14533" lon="5.72679">
        <ele>254</ele>
        <time>2010-05-07T14:21:01Z</time>
      </trkpt>
      <trkpt lat="47.14524" lon="5.72674">
        <ele>254</ele>
        <time>2010-05-07T14:21:04Z</time>
      </trkpt>
      <trkpt lat="47.14514" lon="5.72664">
        <ele>254</ele>
        <time>2010-05-07T14:21:07Z</time>
      </trkpt>
      <trkpt lat="47.14505" lon="5.72654">
        <ele>254</ele>
        <time>2010-05-07T14:21:10Z</time>
      </trkpt>
      <trkpt lat="47.14495" lon="5.72643">
        <ele>260</ele>
        <time>2010-05-07T14:21:13Z</time>
      </trkpt>
      <trkpt lat="47.14483" lon="5.72634">
        <ele>260</ele>
        <time>2010-05-07T14:21:16Z</time>
      </trkpt>
      <trkpt lat="47.14473" lon="5.72628">
        <ele>260</ele>
        <time>2010-05-07T14:21:18Z</time>
      </trkpt>
      <trkpt lat="47.14462" lon="5.72621">
        <ele>260</ele>
        <time>2010-05-07T14:21:20Z</time>
      </trkpt>
      <trkpt lat="47.14452" lon="5.72617">
        <ele>255</ele>
        <time>2010-05-07T14:21:22Z</time>
      </trkpt>
      <trkpt lat="47.14442" lon="5.72608">
        <ele>255</ele>
        <time>2010-05-07T14:21:25Z</time>
      </trkpt>
      <trkpt lat="47.14431" lon="5.72599">
        <ele>255</ele>
        <time>2010-05-07T14:21:28Z</time>
      </trkpt>
      <trkpt lat="47.14421" lon="5.72589">
        <ele>255</ele>
        <time>2010-05-07T14:21:30Z</time>
      </trkpt>
      <trkpt lat="47.14413" lon="5.72579">
        <ele>261</ele>
        <time>2010-05-07T14:21:32Z</time>
      </trkpt>
      <trkpt lat="47.14405" lon="5.72565">
        <ele>261</ele>
        <time>2010-05-07T14:21:35Z</time>
      </trkpt>
      <trkpt lat="47.14399" lon="5.72549">
        <ele>261</ele>
        <time>2010-05-07T14:21:37Z</time>
      </trkpt>
      <trkpt lat="47.14395" lon="5.72537">
        <ele>261</ele>
        <time>2010-05-07T14:21:39Z</time>
      </trkpt>
      <trkpt lat="47.14389" lon="5.72525">
        <ele>261</ele>
        <time>2010-05-07T14:21:42Z</time>
      </trkpt>
      <trkpt lat="47.14381" lon="5.72514">
        <ele>261</ele>
        <time>2010-05-07T14:21:45Z</time>
      </trkpt>
      <trkpt lat="47.1437" lon="5.72508">
        <ele>261</ele>
        <time>2010-05-07T14:21:48Z</time>
      </trkpt>
      <trkpt lat="47.14359" lon="5.72503">
        <ele>261</ele>
        <time>2010-05-07T14:21:51Z</time>
      </trkpt>
      <trkpt lat="47.14349" lon="5.72495">
        <ele>261</ele>
        <time>2010-05-07T14:21:53Z</time>
      </trkpt>
      <trkpt lat="47.14341" lon="5.72488">
        <ele>261</ele>
        <time>2010-05-07T14:21:55Z</time>
      </trkpt>
      <trkpt lat="47.14332" lon="5.7248">
        <ele>261</ele>
        <time>2010-05-07T14:21:57Z</time>
      </trkpt>
      <trkpt lat="47.14324" lon="5.72471">
        <ele>261</ele>
        <time>2010-05-07T14:21:59Z</time>
      </trkpt>
      <trkpt lat="47.14316" lon="5.72463">
        <ele>266</ele>
        <time>2010-05-07T14:22:01Z</time>
      </trkpt>
      <trkpt lat="47.14308" lon="5.72456">
        <ele>266</ele>
        <time>2010-05-07T14:22:03Z</time>
      </trkpt>
      <trkpt lat="47.14301" lon="5.72444">
        <ele>266</ele>
        <time>2010-05-07T14:22:05Z</time>
      </trkpt>
      <trkpt lat="47.14294" lon="5.7243">
        <ele>266</ele>
        <time>2010-05-07T14:22:07Z</time>
      </trkpt>
      <trkpt lat="47.14288" lon="5.72421">
        <ele>266</ele>
        <time>2010-05-07T14:22:09Z</time>
      </trkpt>
      <trkpt lat="47.14282" lon="5.72409">
        <ele>266</ele>
        <time>2010-05-07T14:22:11Z</time>
      </trkpt>
      <trkpt lat="47.14276" lon="5.72398">
        <ele>266</ele>
        <time>2010-05-07T14:22:13Z</time>
      </trkpt>
      <trkpt lat="47.1427" lon="5.72387">
        <ele>271</ele>
        <time>2010-05-07T14:22:15Z</time>
      </trkpt>
      <trkpt lat="47.14264" lon="5.72374">
        <ele>271</ele>
        <time>2010-05-07T14:22:17Z</time>
      </trkpt>
      <trkpt lat="47.14257" lon="5.72362">
        <ele>271</ele>
        <time>2010-05-07T14:22:19Z</time>
      </trkpt>
      <trkpt lat="47.1425" lon="5.72349">
        <ele>271</ele>
        <time>2010-05-07T14:22:21Z</time>
      </trkpt>
      <trkpt lat="47.14243" lon="5.72337">
        <ele>271</ele>
        <time>2010-05-07T14:22:23Z</time>
      </trkpt>
      <trkpt lat="47.14234" lon="5.72327">
        <ele>266</ele>
        <time>2010-05-07T14:22:25Z</time>
      </trkpt>
      <trkpt lat="47.14226" lon="5.72318">
        <ele>266</ele>
        <time>2010-05-07T14:22:27Z</time>
      </trkpt>
      <trkpt lat="47.14218" lon="5.72308">
        <ele>266</ele>
        <time>2010-05-07T14:22:29Z</time>
      </trkpt>
      <trkpt lat="47.1421" lon="5.72297">
        <ele>259</ele>
        <time>2010-05-07T14:22:31Z</time>
      </trkpt>
      <trkpt lat="47.14202" lon="5.72286">
        <ele>259</ele>
        <time>2010-05-07T14:22:33Z</time>
      </trkpt>
      <trkpt lat="47.14193" lon="5.72274">
        <ele>259</ele>
        <time>2010-05-07T14:22:35Z</time>
      </trkpt>
      <trkpt lat="47.14184" lon="5.72263">
        <ele>252</ele>
        <time>2010-05-07T14:22:37Z</time>
      </trkpt>
      <trkpt lat="47.14174" lon="5.7225">
        <ele>252</ele>
        <time>2010-05-07T14:22:39Z</time>
      </trkpt>
      <trkpt lat="47.14166" lon="5.72238">
        <ele>247</ele>
        <time>2010-05-07T14:22:41Z</time>
      </trkpt>
      <trkpt lat="47.14156" lon="5.72226">
        <ele>247</ele>
        <time>2010-05-07T14:22:43Z</time>
      </trkpt>
      <trkpt lat="47.14147" lon="5.72215">
        <ele>247</ele>
        <time>2010-05-07T14:22:45Z</time>
      </trkpt>
      <trkpt lat="47.14139" lon="5.72205">
        <ele>247</ele>
        <time>2010-05-07T14:22:47Z</time>
      </trkpt>
      <trkpt lat="47.1413" lon="5.72194">
        <ele>247</ele>
        <time>2010-05-07T14:22:49Z</time>
      </trkpt>
      <trkpt lat="47.14122" lon="5.72183">
        <ele>247</ele>
        <time>2010-05-07T14:22:51Z</time>
      </trkpt>
      <trkpt lat="47.14115" lon="5.72172">
        <ele>247</ele>
        <time>2010-05-07T14:22:53Z</time>
      </trkpt>
      <trkpt lat="47.14108" lon="5.7216">
        <ele>247</ele>
        <time>2010-05-07T14:22:55Z</time>
      </trkpt>
      <trkpt lat="47.14099" lon="5.72146">
        <ele>247</ele>
        <time>2010-05-07T14:22:58Z</time>
      </trkpt>
      <trkpt lat="47.14091" lon="5.72133">
        <ele>247</ele>
        <time>2010-05-07T14:23:00Z</time>
      </trkpt>
      <trkpt lat="47.14082" lon="5.72119">
        <ele>247</ele>
        <time>2010-05-07T14:23:02Z</time>
      </trkpt>
      <trkpt lat="47.14075" lon="5.72105">
        <ele>247</ele>
        <time>2010-05-07T14:23:04Z</time>
      </trkpt>
      <trkpt lat="47.14068" lon="5.72092">
        <ele>241</ele>
        <time>2010-05-07T14:23:06Z</time>
      </trkpt>
      <trkpt lat="47.1406" lon="5.72078">
        <ele>241</ele>
        <time>2010-05-07T14:23:08Z</time>
      </trkpt>
      <trkpt lat="47.14052" lon="5.72062">
        <ele>241</ele>
        <time>2010-05-07T14:23:10Z</time>
      </trkpt>
      <trkpt lat="47.1405" lon="5.72049">
        <ele>235</ele>
        <time>2010-05-07T14:23:11Z</time>
      </trkpt>
      <trkpt lat="47.14049" lon="5.72034">
        <ele>235</ele>
        <time>2010-05-07T14:23:12Z</time>
      </trkpt>
      <trkpt lat="47.14049" lon="5.72019">
        <ele>235</ele>
        <time>2010-05-07T14:23:13Z</time>
      </trkpt>
      <trkpt lat="47.14047" lon="5.72005">
        <ele>235</ele>
        <time>2010-05-07T14:23:14Z</time>
      </trkpt>
      <trkpt lat="47.14044" lon="5.71992">
        <ele>227</ele>
        <time>2010-05-07T14:23:15Z</time>
      </trkpt>
      <trkpt lat="47.14034" lon="5.71974">
        <ele>227</ele>
        <time>2010-05-07T14:23:17Z</time>
      </trkpt>
      <trkpt lat="47.14026" lon="5.71956">
        <ele>221</ele>
        <time>2010-05-07T14:23:19Z</time>
      </trkpt>
      <trkpt lat="47.1402" lon="5.71936">
        <ele>221</ele>
        <time>2010-05-07T14:23:21Z</time>
      </trkpt>
      <trkpt lat="47.14014" lon="5.71917">
        <ele>221</ele>
        <time>2010-05-07T14:23:23Z</time>
      </trkpt>
      <trkpt lat="47.14006" lon="5.71902">
        <ele>221</ele>
        <time>2010-05-07T14:23:25Z</time>
      </trkpt>
      <trkpt lat="47.14" lon="5.71887">
        <ele>221</ele>
        <time>2010-05-07T14:23:27Z</time>
      </trkpt>
      <trkpt lat="47.13994" lon="5.71876">
        <ele>221</ele>
        <time>2010-05-07T14:23:29Z</time>
      </trkpt>
      <trkpt lat="47.13987" lon="5.7186">
        <ele>221</ele>
        <time>2010-05-07T14:23:31Z</time>
      </trkpt>
      <trkpt lat="47.13979" lon="5.71847">
        <ele>221</ele>
        <time>2010-05-07T14:23:33Z</time>
      </trkpt>
      <trkpt lat="47.13969" lon="5.71832">
        <ele>221</ele>
        <time>2010-05-07T14:23:35Z</time>
      </trkpt>
      <trkpt lat="47.1396" lon="5.71816">
        <ele>221</ele>
        <time>2010-05-07T14:23:37Z</time>
      </trkpt>
      <trkpt lat="47.13952" lon="5.71797">
        <ele>221</ele>
        <time>2010-05-07T14:23:39Z</time>
      </trkpt>
      <trkpt lat="47.13947" lon="5.71773">
        <ele>215</ele>
        <time>2010-05-07T14:23:41Z</time>
      </trkpt>
      <trkpt lat="47.13943" lon="5.71752">
        <ele>215</ele>
        <time>2010-05-07T14:23:43Z</time>
      </trkpt>
      <trkpt lat="47.13937" lon="5.71728">
        <ele>215</ele>
        <time>2010-05-07T14:23:45Z</time>
      </trkpt>
      <trkpt lat="47.13932" lon="5.71708">
        <ele>215</ele>
        <time>2010-05-07T14:23:47Z</time>
      </trkpt>
      <trkpt lat="47.13926" lon="5.71691">
        <ele>215</ele>
        <time>2010-05-07T14:23:49Z</time>
      </trkpt>
      <trkpt lat="47.13919" lon="5.71674">
        <ele>215</ele>
        <time>2010-05-07T14:23:51Z</time>
      </trkpt>
      <trkpt lat="47.13914" lon="5.71657">
        <ele>215</ele>
        <time>2010-05-07T14:23:53Z</time>
      </trkpt>
      <trkpt lat="47.13909" lon="5.71637">
        <ele>215</ele>
        <time>2010-05-07T14:23:55Z</time>
      </trkpt>
      <trkpt lat="47.13903" lon="5.71618">
        <ele>215</ele>
        <time>2010-05-07T14:23:57Z</time>
      </trkpt>
      <trkpt lat="47.13897" lon="5.71599">
        <ele>215</ele>
        <time>2010-05-07T14:23:59Z</time>
      </trkpt>
      <trkpt lat="47.13891" lon="5.71583">
        <ele>215</ele>
        <time>2010-05-07T14:24:01Z</time>
      </trkpt>
      <trkpt lat="47.13885" lon="5.71567">
        <ele>215</ele>
        <time>2010-05-07T14:24:03Z</time>
      </trkpt>
      <trkpt lat="47.13881" lon="5.71549">
        <ele>215</ele>
        <time>2010-05-07T14:24:05Z</time>
      </trkpt>
      <trkpt lat="47.13877" lon="5.71529">
        <ele>215</ele>
        <time>2010-05-07T14:24:07Z</time>
      </trkpt>
      <trkpt lat="47.13874" lon="5.71508">
        <ele>215</ele>
        <time>2010-05-07T14:24:09Z</time>
      </trkpt>
      <trkpt lat="47.1387" lon="5.71489">
        <ele>215</ele>
        <time>2010-05-07T14:24:11Z</time>
      </trkpt>
      <trkpt lat="47.13866" lon="5.71468">
        <ele>215</ele>
        <time>2010-05-07T14:24:13Z</time>
      </trkpt>
      <trkpt lat="47.13865" lon="5.71445">
        <ele>215</ele>
        <time>2010-05-07T14:24:15Z</time>
      </trkpt>
      <trkpt lat="47.13863" lon="5.71423">
        <ele>215</ele>
        <time>2010-05-07T14:24:17Z</time>
      </trkpt>
      <trkpt lat="47.13862" lon="5.71402">
        <ele>215</ele>
        <time>2010-05-07T14:24:19Z</time>
      </trkpt>
      <trkpt lat="47.1386" lon="5.71382">
        <ele>215</ele>
        <time>2010-05-07T14:24:21Z</time>
      </trkpt>
      <trkpt lat="47.13858" lon="5.71364">
        <ele>220</ele>
        <time>2010-05-07T14:24:23Z</time>
      </trkpt>
      <trkpt lat="47.13855" lon="5.71341">
        <ele>220</ele>
        <time>2010-05-07T14:24:25Z</time>
      </trkpt>
      <trkpt lat="47.13851" lon="5.71323">
        <ele>220</ele>
        <time>2010-05-07T14:24:27Z</time>
      </trkpt>
      <trkpt lat="47.13847" lon="5.71304">
        <ele>220</ele>
        <time>2010-05-07T14:24:29Z</time>
      </trkpt>
      <trkpt lat="47.13846" lon="5.71281">
        <ele>220</ele>
        <time>2010-05-07T14:24:31Z</time>
      </trkpt>
      <trkpt lat="47.13843" lon="5.71261">
        <ele>225</ele>
        <time>2010-05-07T14:24:33Z</time>
      </trkpt>
      <trkpt lat="47.13841" lon="5.71241">
        <ele>225</ele>
        <time>2010-05-07T14:24:35Z</time>
      </trkpt>
      <trkpt lat="47.13841" lon="5.71217">
        <ele>225</ele>
        <time>2010-05-07T14:24:37Z</time>
      </trkpt>
      <trkpt lat="47.13844" lon="5.71185">
        <ele>225</ele>
        <time>2010-05-07T14:24:39Z</time>
      </trkpt>
      <trkpt lat="47.13846" lon="5.71168">
        <ele>220</ele>
        <time>2010-05-07T14:24:40Z</time>
      </trkpt>
      <trkpt lat="47.13846" lon="5.71153">
        <ele>220</ele>
        <time>2010-05-07T14:24:41Z</time>
      </trkpt>
      <trkpt lat="47.13846" lon="5.71129">
        <ele>220</ele>
        <time>2010-05-07T14:24:43Z</time>
      </trkpt>
      <trkpt lat="47.13846" lon="5.71107">
        <ele>220</ele>
        <time>2010-05-07T14:24:45Z</time>
      </trkpt>
      <trkpt lat="47.13847" lon="5.71084">
        <ele>220</ele>
        <time>2010-05-07T14:24:47Z</time>
      </trkpt>
      <trkpt lat="47.13847" lon="5.71062">
        <ele>215</ele>
        <time>2010-05-07T14:24:49Z</time>
      </trkpt>
      <trkpt lat="47.13848" lon="5.71038">
        <ele>215</ele>
        <time>2010-05-07T14:24:51Z</time>
      </trkpt>
      <trkpt lat="47.1385" lon="5.71018">
        <ele>215</ele>
        <time>2010-05-07T14:24:53Z</time>
      </trkpt>
      <trkpt lat="47.13852" lon="5.70996">
        <ele>215</ele>
        <time>2010-05-07T14:24:55Z</time>
      </trkpt>
      <trkpt lat="47.13854" lon="5.70975">
        <ele>215</ele>
        <time>2010-05-07T14:24:57Z</time>
      </trkpt>
      <trkpt lat="47.13854" lon="5.70953">
        <ele>215</ele>
        <time>2010-05-07T14:24:59Z</time>
      </trkpt>
      <trkpt lat="47.13851" lon="5.70933">
        <ele>215</ele>
        <time>2010-05-07T14:25:01Z</time>
      </trkpt>
      <trkpt lat="47.13843" lon="5.70916">
        <ele>215</ele>
        <time>2010-05-07T14:25:03Z</time>
      </trkpt>
      <trkpt lat="47.13831" lon="5.70904">
        <ele>215</ele>
        <time>2010-05-07T14:25:05Z</time>
      </trkpt>
      <trkpt lat="47.13817" lon="5.7089">
        <ele>215</ele>
        <time>2010-05-07T14:25:07Z</time>
      </trkpt>
      <trkpt lat="47.13805" lon="5.70875">
        <ele>215</ele>
        <time>2010-05-07T14:25:09Z</time>
      </trkpt>
      <trkpt lat="47.13792" lon="5.70861">
        <ele>210</ele>
        <time>2010-05-07T14:25:11Z</time>
      </trkpt>
      <trkpt lat="47.13781" lon="5.70845">
        <ele>210</ele>
        <time>2010-05-07T14:25:13Z</time>
      </trkpt>
      <trkpt lat="47.1377" lon="5.70831">
        <ele>210</ele>
        <time>2010-05-07T14:25:15Z</time>
      </trkpt>
      <trkpt lat="47.13759" lon="5.70817">
        <ele>210</ele>
        <time>2010-05-07T14:25:17Z</time>
      </trkpt>
      <trkpt lat="47.13747" lon="5.70803">
        <ele>210</ele>
        <time>2010-05-07T14:25:19Z</time>
      </trkpt>
      <trkpt lat="47.13736" lon="5.70789">
        <ele>210</ele>
        <time>2010-05-07T14:25:21Z</time>
      </trkpt>
      <trkpt lat="47.13726" lon="5.70775">
        <ele>210</ele>
        <time>2010-05-07T14:25:23Z</time>
      </trkpt>
      <trkpt lat="47.13714" lon="5.70763">
        <ele>210</ele>
        <time>2010-05-07T14:25:25Z</time>
      </trkpt>
      <trkpt lat="47.13703" lon="5.70749">
        <ele>210</ele>
        <time>2010-05-07T14:25:27Z</time>
      </trkpt>
      <trkpt lat="47.13692" lon="5.70737">
        <ele>210</ele>
        <time>2010-05-07T14:25:29Z</time>
      </trkpt>
      <trkpt lat="47.13681" lon="5.70723">
        <ele>210</ele>
        <time>2010-05-07T14:25:31Z</time>
      </trkpt>
      <trkpt lat="47.1367" lon="5.70711">
        <ele>210</ele>
        <time>2010-05-07T14:25:33Z</time>
      </trkpt>
      <trkpt lat="47.13659" lon="5.70698">
        <ele>210</ele>
        <time>2010-05-07T14:25:35Z</time>
      </trkpt>
      <trkpt lat="47.13649" lon="5.70684">
        <ele>210</ele>
        <time>2010-05-07T14:25:37Z</time>
      </trkpt>
      <trkpt lat="47.13638" lon="5.70671">
        <ele>210</ele>
        <time>2010-05-07T14:25:39Z</time>
      </trkpt>
      <trkpt lat="47.13629" lon="5.70658">
        <ele>210</ele>
        <time>2010-05-07T14:25:41Z</time>
      </trkpt>
      <trkpt lat="47.13619" lon="5.70645">
        <ele>210</ele>
        <time>2010-05-07T14:25:43Z</time>
      </trkpt>
      <trkpt lat="47.13608" lon="5.70631">
        <ele>210</ele>
        <time>2010-05-07T14:25:45Z</time>
      </trkpt>
      <trkpt lat="47.13598" lon="5.7062">
        <ele>210</ele>
        <time>2010-05-07T14:25:47Z</time>
      </trkpt>
      <trkpt lat="47.13587" lon="5.70607">
        <ele>210</ele>
        <time>2010-05-07T14:25:49Z</time>
      </trkpt>
      <trkpt lat="47.13575" lon="5.70595">
        <ele>210</ele>
        <time>2010-05-07T14:25:51Z</time>
      </trkpt>
      <trkpt lat="47.13565" lon="5.70581">
        <ele>210</ele>
        <time>2010-05-07T14:25:53Z</time>
      </trkpt>
      <trkpt lat="47.13554" lon="5.70568">
        <ele>210</ele>
        <time>2010-05-07T14:25:55Z</time>
      </trkpt>
      <trkpt lat="47.13545" lon="5.70555">
        <ele>210</ele>
        <time>2010-05-07T14:25:57Z</time>
      </trkpt>
      <trkpt lat="47.13535" lon="5.70543">
        <ele>210</ele>
        <time>2010-05-07T14:25:59Z</time>
      </trkpt>
      <trkpt lat="47.13524" lon="5.70532">
        <ele>210</ele>
        <time>2010-05-07T14:26:01Z</time>
      </trkpt>
      <trkpt lat="47.13517" lon="5.70521">
        <ele>215</ele>
        <time>2010-05-07T14:26:03Z</time>
      </trkpt>
      <trkpt lat="47.13512" lon="5.70508">
        <ele>215</ele>
        <time>2010-05-07T14:26:05Z</time>
      </trkpt>
      <trkpt lat="47.13509" lon="5.70492">
        <ele>221</ele>
        <time>2010-05-07T14:26:07Z</time>
      </trkpt>
      <trkpt lat="47.13513" lon="5.70472">
        <ele>221</ele>
        <time>2010-05-07T14:26:09Z</time>
      </trkpt>
      <trkpt lat="47.13515" lon="5.7045">
        <ele>227</ele>
        <time>2010-05-07T14:26:11Z</time>
      </trkpt>
      <trkpt lat="47.13515" lon="5.70429">
        <ele>227</ele>
        <time>2010-05-07T14:26:13Z</time>
      </trkpt>
      <trkpt lat="47.13516" lon="5.7041">
        <ele>227</ele>
        <time>2010-05-07T14:26:15Z</time>
      </trkpt>
      <trkpt lat="47.13518" lon="5.70392">
        <ele>227</ele>
        <time>2010-05-07T14:26:17Z</time>
      </trkpt>
      <trkpt lat="47.13521" lon="5.70373">
        <ele>227</ele>
        <time>2010-05-07T14:26:19Z</time>
      </trkpt>
      <trkpt lat="47.13524" lon="5.70357">
        <ele>235</ele>
        <time>2010-05-07T14:26:21Z</time>
      </trkpt>
      <trkpt lat="47.13531" lon="5.70338">
        <ele>235</ele>
        <time>2010-05-07T14:26:23Z</time>
      </trkpt>
      <trkpt lat="47.13532" lon="5.70322">
        <ele>235</ele>
        <time>2010-05-07T14:26:25Z</time>
      </trkpt>
      <trkpt lat="47.13534" lon="5.70305">
        <ele>243</ele>
        <time>2010-05-07T14:26:27Z</time>
      </trkpt>
      <trkpt lat="47.13534" lon="5.7029">
        <ele>243</ele>
        <time>2010-05-07T14:26:29Z</time>
      </trkpt>
      <trkpt lat="47.13535" lon="5.70275">
        <ele>252</ele>
        <time>2010-05-07T14:26:31Z</time>
      </trkpt>
      <trkpt lat="47.13537" lon="5.7026">
        <ele>252</ele>
        <time>2010-05-07T14:26:33Z</time>
      </trkpt>
      <trkpt lat="47.13537" lon="5.70244">
        <ele>257</ele>
        <time>2010-05-07T14:26:35Z</time>
      </trkpt>
      <trkpt lat="47.13534" lon="5.70229">
        <ele>265</ele>
        <time>2010-05-07T14:26:38Z</time>
      </trkpt>
      <trkpt lat="47.13532" lon="5.70212">
        <ele>270</ele>
        <time>2010-05-07T14:26:41Z</time>
      </trkpt>
      <trkpt lat="47.1353" lon="5.70194">
        <ele>277</ele>
        <time>2010-05-07T14:26:44Z</time>
      </trkpt>
      <trkpt lat="47.13529" lon="5.70175">
        <ele>277</ele>
        <time>2010-05-07T14:26:47Z</time>
      </trkpt>
      <trkpt lat="47.13526" lon="5.70157">
        <ele>288</ele>
        <time>2010-05-07T14:26:50Z</time>
      </trkpt>
      <trkpt lat="47.13517" lon="5.70147">
        <ele>296</ele>
        <time>2010-05-07T14:26:53Z</time>
      </trkpt>
      <trkpt lat="47.13515" lon="5.70128">
        <ele>303</ele>
        <time>2010-05-07T14:26:56Z</time>
      </trkpt>
      <trkpt lat="47.13513" lon="5.70113">
        <ele>312</ele>
        <time>2010-05-07T14:26:59Z</time>
      </trkpt>
      <trkpt lat="47.13507" lon="5.701">
        <ele>320</ele>
        <time>2010-05-07T14:27:03Z</time>
      </trkpt>
      <trkpt lat="47.13499" lon="5.70087">
        <ele>328</ele>
        <time>2010-05-07T14:27:07Z</time>
      </trkpt>
      <trkpt lat="47.1349" lon="5.70083">
        <ele>333</ele>
        <time>2010-05-07T14:27:10Z</time>
      </trkpt>
      <trkpt lat="47.13486" lon="5.70066">
        <ele>340</ele>
        <time>2010-05-07T14:27:13Z</time>
      </trkpt>
      <trkpt lat="47.1348" lon="5.70048">
        <ele>345</ele>
        <time>2010-05-07T14:27:15Z</time>
      </trkpt>
      <trkpt lat="47.13474" lon="5.7003">
        <ele>353</ele>
        <time>2010-05-07T14:27:17Z</time>
      </trkpt>
      <trkpt lat="47.13471" lon="5.70012">
        <ele>359</ele>
        <time>2010-05-07T14:27:19Z</time>
      </trkpt>
      <trkpt lat="47.13466" lon="5.69993">
        <ele>369</ele>
        <time>2010-05-07T14:27:21Z</time>
      </trkpt>
      <trkpt lat="47.13463" lon="5.69971">
        <ele>377</ele>
        <time>2010-05-07T14:27:24Z</time>
      </trkpt>
      <trkpt lat="47.13462" lon="5.69952">
        <ele>382</ele>
        <time>2010-05-07T14:27:25Z</time>
      </trkpt>
      <trkpt lat="47.13455" lon="5.69926">
        <ele>391</ele>
        <time>2010-05-07T14:27:27Z</time>
      </trkpt>
      <trkpt lat="47.13451" lon="5.69901">
        <ele>397</ele>
        <time>2010-05-07T14:27:29Z</time>
      </trkpt>
      <trkpt lat="47.13447" lon="5.69878">
        <ele>402</ele>
        <time>2010-05-07T14:27:31Z</time>
      </trkpt>
      <trkpt lat="47.1344" lon="5.69862">
        <ele>402</ele>
        <time>2010-05-07T14:27:33Z</time>
      </trkpt>
      <trkpt lat="47.13433" lon="5.69839">
        <ele>402</ele>
        <time>2010-05-07T14:27:35Z</time>
      </trkpt>
      <trkpt lat="47.13427" lon="5.69816">
        <ele>411</ele>
        <time>2010-05-07T14:27:37Z</time>
      </trkpt>
      <trkpt lat="47.13419" lon="5.69798">
        <ele>411</ele>
        <time>2010-05-07T14:27:39Z</time>
      </trkpt>
      <trkpt lat="47.13412" lon="5.69775">
        <ele>417</ele>
        <time>2010-05-07T14:27:41Z</time>
      </trkpt>
      <trkpt lat="47.13408" lon="5.69762">
        <ele>417</ele>
        <time>2010-05-07T14:27:42Z</time>
      </trkpt>
      <trkpt lat="47.13401" lon="5.69749">
        <ele>423</ele>
        <time>2010-05-07T14:27:43Z</time>
      </trkpt>
      <trkpt lat="47.13394" lon="5.69738">
        <ele>423</ele>
        <time>2010-05-07T14:27:44Z</time>
      </trkpt>
      <trkpt lat="47.13389" lon="5.69726">
        <ele>429</ele>
        <time>2010-05-07T14:27:45Z</time>
      </trkpt>
      <trkpt lat="47.13383" lon="5.69713">
        <ele>429</ele>
        <time>2010-05-07T14:27:46Z</time>
      </trkpt>
      <trkpt lat="47.13374" lon="5.69691">
        <ele>435</ele>
        <time>2010-05-07T14:27:48Z</time>
      </trkpt>
      <trkpt lat="47.13369" lon="5.69679">
        <ele>435</ele>
        <time>2010-05-07T14:27:49Z</time>
      </trkpt>
      <trkpt lat="47.13361" lon="5.69657">
        <ele>435</ele>
        <time>2010-05-07T14:27:51Z</time>
      </trkpt>
      <trkpt lat="47.13349" lon="5.69644">
        <ele>421</ele>
        <time>2010-05-07T14:27:52Z</time>
      </trkpt>
      <trkpt lat="47.13341" lon="5.69624">
        <ele>421</ele>
        <time>2010-05-07T14:27:54Z</time>
      </trkpt>
      <trkpt lat="47.13333" lon="5.69604">
        <ele>421</ele>
        <time>2010-05-07T14:27:56Z</time>
      </trkpt>
      <trkpt lat="47.13326" lon="5.69585">
        <ele>421</ele>
        <time>2010-05-07T14:27:58Z</time>
      </trkpt>
      <trkpt lat="47.13319" lon="5.69566">
        <ele>421</ele>
        <time>2010-05-07T14:28:00Z</time>
      </trkpt>
      <trkpt lat="47.13311" lon="5.69549">
        <ele>421</ele>
        <time>2010-05-07T14:28:02Z</time>
      </trkpt>
      <trkpt lat="47.13304" lon="5.69531">
        <ele>421</ele>
        <time>2010-05-07T14:28:04Z</time>
      </trkpt>
      <trkpt lat="47.13298" lon="5.69512">
        <ele>421</ele>
        <time>2010-05-07T14:28:06Z</time>
      </trkpt>
      <trkpt lat="47.13292" lon="5.69493">
        <ele>415</ele>
        <time>2010-05-07T14:28:08Z</time>
      </trkpt>
      <trkpt lat="47.13285" lon="5.69474">
        <ele>415</ele>
        <time>2010-05-07T14:28:10Z</time>
      </trkpt>
      <trkpt lat="47.13279" lon="5.69453">
        <ele>415</ele>
        <time>2010-05-07T14:28:12Z</time>
      </trkpt>
      <trkpt lat="47.1327" lon="5.69433">
        <ele>407</ele>
        <time>2010-05-07T14:28:14Z</time>
      </trkpt>
      <trkpt lat="47.13263" lon="5.69413">
        <ele>407</ele>
        <time>2010-05-07T14:28:16Z</time>
      </trkpt>
      <trkpt lat="47.13256" lon="5.69394">
        <ele>407</ele>
        <time>2010-05-07T14:28:18Z</time>
      </trkpt>
      <trkpt lat="47.13249" lon="5.69376">
        <ele>402</ele>
        <time>2010-05-07T14:28:20Z</time>
      </trkpt>
      <trkpt lat="47.13241" lon="5.69366">
        <ele>385</ele>
        <time>2010-05-07T14:28:21Z</time>
      </trkpt>
      <trkpt lat="47.13236" lon="5.69355">
        <ele>378</ele>
        <time>2010-05-07T14:28:22Z</time>
      </trkpt>
      <trkpt lat="47.13225" lon="5.69335">
        <ele>367</ele>
        <time>2010-05-07T14:28:24Z</time>
      </trkpt>
      <trkpt lat="47.13221" lon="5.69319">
        <ele>356</ele>
        <time>2010-05-07T14:28:25Z</time>
      </trkpt>
      <trkpt lat="47.13216" lon="5.69306">
        <ele>349</ele>
        <time>2010-05-07T14:28:26Z</time>
      </trkpt>
      <trkpt lat="47.13211" lon="5.69293">
        <ele>340</ele>
        <time>2010-05-07T14:28:27Z</time>
      </trkpt>
      <trkpt lat="47.13204" lon="5.6928">
        <ele>332</ele>
        <time>2010-05-07T14:28:28Z</time>
      </trkpt>
      <trkpt lat="47.132" lon="5.69269">
        <ele>324</ele>
        <time>2010-05-07T14:28:29Z</time>
      </trkpt>
      <trkpt lat="47.1319" lon="5.69246">
        <ele>312</ele>
        <time>2010-05-07T14:28:31Z</time>
      </trkpt>
      <trkpt lat="47.13181" lon="5.69226">
        <ele>302</ele>
        <time>2010-05-07T14:28:33Z</time>
      </trkpt>
      <trkpt lat="47.13177" lon="5.69214">
        <ele>302</ele>
        <time>2010-05-07T14:28:34Z</time>
      </trkpt>
      <trkpt lat="47.13168" lon="5.69194">
        <ele>286</ele>
        <time>2010-05-07T14:28:36Z</time>
      </trkpt>
      <trkpt lat="47.1316" lon="5.69175">
        <ele>279</ele>
        <time>2010-05-07T14:28:38Z</time>
      </trkpt>
      <trkpt lat="47.13152" lon="5.69157">
        <ele>273</ele>
        <time>2010-05-07T14:28:40Z</time>
      </trkpt>
      <trkpt lat="47.13144" lon="5.69144">
        <ele>268</ele>
        <time>2010-05-07T14:28:42Z</time>
      </trkpt>
      <trkpt lat="47.13134" lon="5.6913">
        <ele>261</ele>
        <time>2010-05-07T14:28:44Z</time>
      </trkpt>
      <trkpt lat="47.13132" lon="5.69117">
        <ele>261</ele>
        <time>2010-05-07T14:28:46Z</time>
      </trkpt>
      <trkpt lat="47.13126" lon="5.69105">
        <ele>253</ele>
        <time>2010-05-07T14:28:48Z</time>
      </trkpt>
      <trkpt lat="47.13117" lon="5.69092">
        <ele>253</ele>
        <time>2010-05-07T14:28:51Z</time>
      </trkpt>
      <trkpt lat="47.13109" lon="5.69081">
        <ele>247</ele>
        <time>2010-05-07T14:28:53Z</time>
      </trkpt>
      <trkpt lat="47.131" lon="5.69074">
        <ele>247</ele>
        <time>2010-05-07T14:28:57Z</time>
      </trkpt>
      <trkpt lat="47.13099" lon="5.6906">
        <ele>253</ele>
        <time>2010-05-07T14:29:01Z</time>
      </trkpt>
      <trkpt lat="47.13095" lon="5.69043">
        <ele>253</ele>
        <time>2010-05-07T14:29:06Z</time>
      </trkpt>
      <trkpt lat="47.13101" lon="5.69027">
        <ele>253</ele>
        <time>2010-05-07T14:29:09Z</time>
      </trkpt>
      <trkpt lat="47.13111" lon="5.69008">
        <ele>253</ele>
        <time>2010-05-07T14:29:11Z</time>
      </trkpt>
      <trkpt lat="47.13117" lon="5.68997">
        <ele>253</ele>
        <time>2010-05-07T14:29:12Z</time>
      </trkpt>
      <trkpt lat="47.13123" lon="5.68987">
        <ele>248</ele>
        <time>2010-05-07T14:29:13Z</time>
      </trkpt>
      <trkpt lat="47.13131" lon="5.68967">
        <ele>248</ele>
        <time>2010-05-07T14:29:15Z</time>
      </trkpt>
      <trkpt lat="47.1314" lon="5.68948">
        <ele>239</ele>
        <time>2010-05-07T14:29:17Z</time>
      </trkpt>
      <trkpt lat="47.13149" lon="5.68933">
        <ele>239</ele>
        <time>2010-05-07T14:29:19Z</time>
      </trkpt>
      <trkpt lat="47.13157" lon="5.68912">
        <ele>228</ele>
        <time>2010-05-07T14:29:21Z</time>
      </trkpt>
      <trkpt lat="47.13164" lon="5.68894">
        <ele>228</ele>
        <time>2010-05-07T14:29:23Z</time>
      </trkpt>
      <trkpt lat="47.13169" lon="5.68877">
        <ele>228</ele>
        <time>2010-05-07T14:29:25Z</time>
      </trkpt>
      <trkpt lat="47.13174" lon="5.68857">
        <ele>222</ele>
        <time>2010-05-07T14:29:27Z</time>
      </trkpt>
      <trkpt lat="47.1318" lon="5.68837">
        <ele>222</ele>
        <time>2010-05-07T14:29:29Z</time>
      </trkpt>
      <trkpt lat="47.13185" lon="5.68819">
        <ele>216</ele>
        <time>2010-05-07T14:29:31Z</time>
      </trkpt>
      <trkpt lat="47.1319" lon="5.68802">
        <ele>216</ele>
        <time>2010-05-07T14:29:33Z</time>
      </trkpt>
      <trkpt lat="47.13195" lon="5.68785">
        <ele>216</ele>
        <time>2010-05-07T14:29:35Z</time>
      </trkpt>
      <trkpt lat="47.132" lon="5.68772">
        <ele>216</ele>
        <time>2010-05-07T14:29:37Z</time>
      </trkpt>
      <trkpt lat="47.13204" lon="5.68758">
        <ele>216</ele>
        <time>2010-05-07T14:29:39Z</time>
      </trkpt>
      <trkpt lat="47.13208" lon="5.68745">
        <ele>211</ele>
        <time>2010-05-07T14:29:41Z</time>
      </trkpt>
      <trkpt lat="47.13213" lon="5.68728">
        <ele>211</ele>
        <time>2010-05-07T14:29:44Z</time>
      </trkpt>
      <trkpt lat="47.13221" lon="5.68722">
        <ele>211</ele>
        <time>2010-05-07T14:29:48Z</time>
      </trkpt>
      <trkpt lat="47.1323" lon="5.68719">
        <ele>223</ele>
        <time>2010-05-07T14:30:05Z</time>
      </trkpt>
      <trkpt lat="47.13233" lon="5.68705">
        <ele>223</ele>
        <time>2010-05-07T14:31:24Z</time>
      </trkpt>
      <trkpt lat="47.13231" lon="5.68691">
        <ele>230</ele>
        <time>2010-05-07T14:31:28Z</time>
      </trkpt>
      <trkpt lat="47.13233" lon="5.68674">
        <ele>230</ele>
        <time>2010-05-07T14:31:32Z</time>
      </trkpt>
      <trkpt lat="47.13234" lon="5.68659">
        <ele>237</ele>
        <time>2010-05-07T14:31:35Z</time>
      </trkpt>
      <trkpt lat="47.13236" lon="5.68645">
        <ele>237</ele>
        <time>2010-05-07T14:31:37Z</time>
      </trkpt>
      <trkpt lat="47.13236" lon="5.68626">
        <ele>237</ele>
        <time>2010-05-07T14:31:40Z</time>
      </trkpt>
      <trkpt lat="47.13235" lon="5.68611">
        <ele>237</ele>
        <time>2010-05-07T14:31:42Z</time>
      </trkpt>
      <trkpt lat="47.13236" lon="5.68596">
        <ele>237</ele>
        <time>2010-05-07T14:31:44Z</time>
      </trkpt>
      <trkpt lat="47.13236" lon="5.68582">
        <ele>237</ele>
        <time>2010-05-07T14:31:46Z</time>
      </trkpt>
      <trkpt lat="47.13236" lon="5.68567">
        <ele>237</ele>
        <time>2010-05-07T14:31:48Z</time>
      </trkpt>
      <trkpt lat="47.13236" lon="5.68552">
        <ele>237</ele>
        <time>2010-05-07T14:31:50Z</time>
      </trkpt>
      <trkpt lat="47.13236" lon="5.68535">
        <ele>237</ele>
        <time>2010-05-07T14:31:52Z</time>
      </trkpt>
      <trkpt lat="47.13236" lon="5.68519">
        <ele>237</ele>
        <time>2010-05-07T14:31:54Z</time>
      </trkpt>
      <trkpt lat="47.13235" lon="5.68502">
        <ele>237</ele>
        <time>2010-05-07T14:31:56Z</time>
      </trkpt>
      <trkpt lat="47.13234" lon="5.68486">
        <ele>232</ele>
        <time>2010-05-07T14:31:58Z</time>
      </trkpt>
      <trkpt lat="47.13234" lon="5.6847">
        <ele>232</ele>
        <time>2010-05-07T14:32:00Z</time>
      </trkpt>
      <trkpt lat="47.13234" lon="5.68453">
        <ele>232</ele>
        <time>2010-05-07T14:32:02Z</time>
      </trkpt>
      <trkpt lat="47.13234" lon="5.68434">
        <ele>232</ele>
        <time>2010-05-07T14:32:04Z</time>
      </trkpt>
      <trkpt lat="47.13235" lon="5.68414">
        <ele>232</ele>
        <time>2010-05-07T14:32:06Z</time>
      </trkpt>
      <trkpt lat="47.13236" lon="5.68396">
        <ele>226</ele>
        <time>2010-05-07T14:32:08Z</time>
      </trkpt>
      <trkpt lat="47.13238" lon="5.68378">
        <ele>226</ele>
        <time>2010-05-07T14:32:10Z</time>
      </trkpt>
      <trkpt lat="47.13239" lon="5.6836">
        <ele>226</ele>
        <time>2010-05-07T14:32:12Z</time>
      </trkpt>
      <trkpt lat="47.13241" lon="5.68342">
        <ele>226</ele>
        <time>2010-05-07T14:32:14Z</time>
      </trkpt>
      <trkpt lat="47.13241" lon="5.68324">
        <ele>226</ele>
        <time>2010-05-07T14:32:16Z</time>
      </trkpt>
      <trkpt lat="47.1324" lon="5.68305">
        <ele>226</ele>
        <time>2010-05-07T14:32:18Z</time>
      </trkpt>
      <trkpt lat="47.13239" lon="5.68285">
        <ele>226</ele>
        <time>2010-05-07T14:32:20Z</time>
      </trkpt>
      <trkpt lat="47.13238" lon="5.68268">
        <ele>226</ele>
        <time>2010-05-07T14:32:22Z</time>
      </trkpt>
      <trkpt lat="47.13236" lon="5.6825">
        <ele>226</ele>
        <time>2010-05-07T14:32:24Z</time>
      </trkpt>
      <trkpt lat="47.13234" lon="5.68231">
        <ele>226</ele>
        <time>2010-05-07T14:32:26Z</time>
      </trkpt>
      <trkpt lat="47.13234" lon="5.68211">
        <ele>226</ele>
        <time>2010-05-07T14:32:28Z</time>
      </trkpt>
      <trkpt lat="47.13233" lon="5.68192">
        <ele>226</ele>
        <time>2010-05-07T14:32:30Z</time>
      </trkpt>
      <trkpt lat="47.13231" lon="5.68171">
        <ele>226</ele>
        <time>2010-05-07T14:32:32Z</time>
      </trkpt>
      <trkpt lat="47.13231" lon="5.68149">
        <ele>226</ele>
        <time>2010-05-07T14:32:34Z</time>
      </trkpt>
      <trkpt lat="47.1323" lon="5.68129">
        <ele>226</ele>
        <time>2010-05-07T14:32:36Z</time>
      </trkpt>
      <trkpt lat="47.13228" lon="5.68108">
        <ele>220</ele>
        <time>2010-05-07T14:32:38Z</time>
      </trkpt>
      <trkpt lat="47.13227" lon="5.68087">
        <ele>220</ele>
        <time>2010-05-07T14:32:40Z</time>
      </trkpt>
      <trkpt lat="47.13225" lon="5.68068">
        <ele>220</ele>
        <time>2010-05-07T14:32:42Z</time>
      </trkpt>
      <trkpt lat="47.13223" lon="5.68049">
        <ele>220</ele>
        <time>2010-05-07T14:32:44Z</time>
      </trkpt>
      <trkpt lat="47.13222" lon="5.6803">
        <ele>220</ele>
        <time>2010-05-07T14:32:46Z</time>
      </trkpt>
      <trkpt lat="47.1322" lon="5.6801">
        <ele>220</ele>
        <time>2010-05-07T14:32:48Z</time>
      </trkpt>
      <trkpt lat="47.13217" lon="5.67981">
        <ele>220</ele>
        <time>2010-05-07T14:32:51Z</time>
      </trkpt>
      <trkpt lat="47.13216" lon="5.67959">
        <ele>220</ele>
        <time>2010-05-07T14:32:53Z</time>
      </trkpt>
      <trkpt lat="47.13214" lon="5.67939">
        <ele>220</ele>
        <time>2010-05-07T14:32:55Z</time>
      </trkpt>
      <trkpt lat="47.13213" lon="5.6792">
        <ele>220</ele>
        <time>2010-05-07T14:32:57Z</time>
      </trkpt>
      <trkpt lat="47.13212" lon="5.67903">
        <ele>220</ele>
        <time>2010-05-07T14:32:59Z</time>
      </trkpt>
      <trkpt lat="47.13212" lon="5.67886">
        <ele>215</ele>
        <time>2010-05-07T14:33:01Z</time>
      </trkpt>
      <trkpt lat="47.13212" lon="5.6787">
        <ele>215</ele>
        <time>2010-05-07T14:33:03Z</time>
      </trkpt>
      <trkpt lat="47.13213" lon="5.67855">
        <ele>215</ele>
        <time>2010-05-07T14:33:05Z</time>
      </trkpt>
      <trkpt lat="47.13215" lon="5.6784">
        <ele>215</ele>
        <time>2010-05-07T14:33:07Z</time>
      </trkpt>
      <trkpt lat="47.1322" lon="5.67826">
        <ele>215</ele>
        <time>2010-05-07T14:33:09Z</time>
      </trkpt>
      <trkpt lat="47.13225" lon="5.67813">
        <ele>215</ele>
        <time>2010-05-07T14:33:11Z</time>
      </trkpt>
      <trkpt lat="47.13231" lon="5.67799">
        <ele>215</ele>
        <time>2010-05-07T14:33:13Z</time>
      </trkpt>
      <trkpt lat="47.13238" lon="5.67787">
        <ele>221</ele>
        <time>2010-05-07T14:33:15Z</time>
      </trkpt>
      <trkpt lat="47.13248" lon="5.67773">
        <ele>221</ele>
        <time>2010-05-07T14:33:17Z</time>
      </trkpt>
      <trkpt lat="47.13257" lon="5.6776">
        <ele>221</ele>
        <time>2010-05-07T14:33:19Z</time>
      </trkpt>
      <trkpt lat="47.13267" lon="5.67748">
        <ele>221</ele>
        <time>2010-05-07T14:33:21Z</time>
      </trkpt>
      <trkpt lat="47.13277" lon="5.67734">
        <ele>221</ele>
        <time>2010-05-07T14:33:23Z</time>
      </trkpt>
      <trkpt lat="47.13288" lon="5.67718">
        <ele>221</ele>
        <time>2010-05-07T14:33:25Z</time>
      </trkpt>
      <trkpt lat="47.13299" lon="5.67702">
        <ele>221</ele>
        <time>2010-05-07T14:33:27Z</time>
      </trkpt>
      <trkpt lat="47.13311" lon="5.67688">
        <ele>221</ele>
        <time>2010-05-07T14:33:29Z</time>
      </trkpt>
      <trkpt lat="47.13322" lon="5.67672">
        <ele>221</ele>
        <time>2010-05-07T14:33:31Z</time>
      </trkpt>
      <trkpt lat="47.13332" lon="5.67656">
        <ele>221</ele>
        <time>2010-05-07T14:33:33Z</time>
      </trkpt>
      <trkpt lat="47.13342" lon="5.67641">
        <ele>227</ele>
        <time>2010-05-07T14:33:35Z</time>
      </trkpt>
      <trkpt lat="47.13352" lon="5.67627">
        <ele>227</ele>
        <time>2010-05-07T14:33:37Z</time>
      </trkpt>
      <trkpt lat="47.13362" lon="5.67613">
        <ele>227</ele>
        <time>2010-05-07T14:33:39Z</time>
      </trkpt>
      <trkpt lat="47.13371" lon="5.67601">
        <ele>227</ele>
        <time>2010-05-07T14:33:41Z</time>
      </trkpt>
      <trkpt lat="47.1338" lon="5.67586">
        <ele>227</ele>
        <time>2010-05-07T14:33:43Z</time>
      </trkpt>
      <trkpt lat="47.13389" lon="5.67575">
        <ele>227</ele>
        <time>2010-05-07T14:33:45Z</time>
      </trkpt>
      <trkpt lat="47.13398" lon="5.67562">
        <ele>227</ele>
        <time>2010-05-07T14:33:47Z</time>
      </trkpt>
      <trkpt lat="47.13409" lon="5.67548">
        <ele>227</ele>
        <time>2010-05-07T14:33:49Z</time>
      </trkpt>
      <trkpt lat="47.13417" lon="5.67534">
        <ele>227</ele>
        <time>2010-05-07T14:33:51Z</time>
      </trkpt>
      <trkpt lat="47.13426" lon="5.67519">
        <ele>227</ele>
        <time>2010-05-07T14:33:53Z</time>
      </trkpt>
      <trkpt lat="47.13436" lon="5.67502">
        <ele>227</ele>
        <time>2010-05-07T14:33:55Z</time>
      </trkpt>
      <trkpt lat="47.13443" lon="5.67483">
        <ele>227</ele>
        <time>2010-05-07T14:33:57Z</time>
      </trkpt>
      <trkpt lat="47.13448" lon="5.67464">
        <ele>227</ele>
        <time>2010-05-07T14:33:59Z</time>
      </trkpt>
      <trkpt lat="47.13452" lon="5.67445">
        <ele>227</ele>
        <time>2010-05-07T14:34:01Z</time>
      </trkpt>
      <trkpt lat="47.13455" lon="5.6743">
        <ele>227</ele>
        <time>2010-05-07T14:34:03Z</time>
      </trkpt>
      <trkpt lat="47.1346" lon="5.67412">
        <ele>227</ele>
        <time>2010-05-07T14:34:05Z</time>
      </trkpt>
      <trkpt lat="47.13467" lon="5.67386">
        <ele>227</ele>
        <time>2010-05-07T14:34:08Z</time>
      </trkpt>
      <trkpt lat="47.13472" lon="5.67366">
        <ele>227</ele>
        <time>2010-05-07T14:34:10Z</time>
      </trkpt>
      <trkpt lat="47.13478" lon="5.67347">
        <ele>221</ele>
        <time>2010-05-07T14:34:12Z</time>
      </trkpt>
      <trkpt lat="47.13484" lon="5.67327">
        <ele>221</ele>
        <time>2010-05-07T14:34:14Z</time>
      </trkpt>
      <trkpt lat="47.1349" lon="5.67307">
        <ele>221</ele>
        <time>2010-05-07T14:34:16Z</time>
      </trkpt>
      <trkpt lat="47.13496" lon="5.67286">
        <ele>221</ele>
        <time>2010-05-07T14:34:18Z</time>
      </trkpt>
      <trkpt lat="47.13501" lon="5.67265">
        <ele>221</ele>
        <time>2010-05-07T14:34:20Z</time>
      </trkpt>
      <trkpt lat="47.13508" lon="5.67245">
        <ele>221</ele>
        <time>2010-05-07T14:34:22Z</time>
      </trkpt>
      <trkpt lat="47.13513" lon="5.67224">
        <ele>221</ele>
        <time>2010-05-07T14:34:24Z</time>
      </trkpt>
      <trkpt lat="47.1352" lon="5.67202">
        <ele>214</ele>
        <time>2010-05-07T14:34:26Z</time>
      </trkpt>
      <trkpt lat="47.13527" lon="5.67179">
        <ele>214</ele>
        <time>2010-05-07T14:34:28Z</time>
      </trkpt>
      <trkpt lat="47.13533" lon="5.67157">
        <ele>214</ele>
        <time>2010-05-07T14:34:30Z</time>
      </trkpt>
      <trkpt lat="47.13539" lon="5.67136">
        <ele>214</ele>
        <time>2010-05-07T14:34:32Z</time>
      </trkpt>
      <trkpt lat="47.13544" lon="5.67115">
        <ele>214</ele>
        <time>2010-05-07T14:34:34Z</time>
      </trkpt>
      <trkpt lat="47.13549" lon="5.67096">
        <ele>214</ele>
        <time>2010-05-07T14:34:36Z</time>
      </trkpt>
      <trkpt lat="47.13554" lon="5.67074">
        <ele>214</ele>
        <time>2010-05-07T14:34:38Z</time>
      </trkpt>
      <trkpt lat="47.1356" lon="5.67053">
        <ele>214</ele>
        <time>2010-05-07T14:34:40Z</time>
      </trkpt>
      <trkpt lat="47.13566" lon="5.67031">
        <ele>214</ele>
        <time>2010-05-07T14:34:42Z</time>
      </trkpt>
      <trkpt lat="47.13571" lon="5.67011">
        <ele>214</ele>
        <time>2010-05-07T14:34:44Z</time>
      </trkpt>
      <trkpt lat="47.13576" lon="5.66991">
        <ele>214</ele>
        <time>2010-05-07T14:34:46Z</time>
      </trkpt>
      <trkpt lat="47.13581" lon="5.66971">
        <ele>214</ele>
        <time>2010-05-07T14:34:48Z</time>
      </trkpt>
      <trkpt lat="47.13586" lon="5.6695">
        <ele>214</ele>
        <time>2010-05-07T14:34:50Z</time>
      </trkpt>
      <trkpt lat="47.13592" lon="5.6693">
        <ele>214</ele>
        <time>2010-05-07T14:34:52Z</time>
      </trkpt>
      <trkpt lat="47.13598" lon="5.66909">
        <ele>214</ele>
        <time>2010-05-07T14:34:54Z</time>
      </trkpt>
      <trkpt lat="47.13604" lon="5.66889">
        <ele>214</ele>
        <time>2010-05-07T14:34:56Z</time>
      </trkpt>
      <trkpt lat="47.13609" lon="5.66869">
        <ele>214</ele>
        <time>2010-05-07T14:34:58Z</time>
      </trkpt>
      <trkpt lat="47.13615" lon="5.6685">
        <ele>214</ele>
        <time>2010-05-07T14:35:00Z</time>
      </trkpt>
      <trkpt lat="47.13619" lon="5.6683">
        <ele>214</ele>
        <time>2010-05-07T14:35:02Z</time>
      </trkpt>
      <trkpt lat="47.13626" lon="5.6681">
        <ele>214</ele>
        <time>2010-05-07T14:35:04Z</time>
      </trkpt>
      <trkpt lat="47.13631" lon="5.6679">
        <ele>214</ele>
        <time>2010-05-07T14:35:06Z</time>
      </trkpt>
      <trkpt lat="47.13637" lon="5.66771">
        <ele>214</ele>
        <time>2010-05-07T14:35:08Z</time>
      </trkpt>
      <trkpt lat="47.13642" lon="5.66752">
        <ele>214</ele>
        <time>2010-05-07T14:35:10Z</time>
      </trkpt>
      <trkpt lat="47.13646" lon="5.66732">
        <ele>214</ele>
        <time>2010-05-07T14:35:12Z</time>
      </trkpt>
      <trkpt lat="47.13651" lon="5.66712">
        <ele>214</ele>
        <time>2010-05-07T14:35:14Z</time>
      </trkpt>
      <trkpt lat="47.13656" lon="5.66691">
        <ele>214</ele>
        <time>2010-05-07T14:35:16Z</time>
      </trkpt>
      <trkpt lat="47.13661" lon="5.66671">
        <ele>214</ele>
        <time>2010-05-07T14:35:18Z</time>
      </trkpt>
      <trkpt lat="47.13665" lon="5.66648">
        <ele>214</ele>
        <time>2010-05-07T14:35:20Z</time>
      </trkpt>
      <trkpt lat="47.1367" lon="5.66627">
        <ele>214</ele>
        <time>2010-05-07T14:35:22Z</time>
      </trkpt>
      <trkpt lat="47.13676" lon="5.66604">
        <ele>214</ele>
        <time>2010-05-07T14:35:24Z</time>
      </trkpt>
      <trkpt lat="47.13681" lon="5.66582">
        <ele>220</ele>
        <time>2010-05-07T14:35:26Z</time>
      </trkpt>
      <trkpt lat="47.13686" lon="5.6656">
        <ele>220</ele>
        <time>2010-05-07T14:35:28Z</time>
      </trkpt>
      <trkpt lat="47.13692" lon="5.66537">
        <ele>220</ele>
        <time>2010-05-07T14:35:30Z</time>
      </trkpt>
      <trkpt lat="47.13699" lon="5.66514">
        <ele>220</ele>
        <time>2010-05-07T14:35:32Z</time>
      </trkpt>
      <trkpt lat="47.13702" lon="5.66488">
        <ele>214</ele>
        <time>2010-05-07T14:35:34Z</time>
      </trkpt>
      <trkpt lat="47.13705" lon="5.66468">
        <ele>214</ele>
        <time>2010-05-07T14:35:36Z</time>
      </trkpt>
      <trkpt lat="47.13706" lon="5.66453">
        <ele>214</ele>
        <time>2010-05-07T14:35:37Z</time>
      </trkpt>
      <trkpt lat="47.13704" lon="5.6643">
        <ele>214</ele>
        <time>2010-05-07T14:35:39Z</time>
      </trkpt>
      <trkpt lat="47.13707" lon="5.66405">
        <ele>214</ele>
        <time>2010-05-07T14:35:41Z</time>
      </trkpt>
      <trkpt lat="47.13708" lon="5.66382">
        <ele>214</ele>
        <time>2010-05-07T14:35:43Z</time>
      </trkpt>
      <trkpt lat="47.1371" lon="5.66363">
        <ele>214</ele>
        <time>2010-05-07T14:35:45Z</time>
      </trkpt>
      <trkpt lat="47.13711" lon="5.66344">
        <ele>214</ele>
        <time>2010-05-07T14:35:47Z</time>
      </trkpt>
      <trkpt lat="47.13713" lon="5.6632">
        <ele>214</ele>
        <time>2010-05-07T14:35:49Z</time>
      </trkpt>
      <trkpt lat="47.13714" lon="5.66296">
        <ele>214</ele>
        <time>2010-05-07T14:35:51Z</time>
      </trkpt>
      <trkpt lat="47.13717" lon="5.66272">
        <ele>214</ele>
        <time>2010-05-07T14:35:53Z</time>
      </trkpt>
      <trkpt lat="47.13718" lon="5.66258">
        <ele>214</ele>
        <time>2010-05-07T14:35:54Z</time>
      </trkpt>
      <trkpt lat="47.13721" lon="5.66235">
        <ele>214</ele>
        <time>2010-05-07T14:35:56Z</time>
      </trkpt>
      <trkpt lat="47.13724" lon="5.66212">
        <ele>214</ele>
        <time>2010-05-07T14:35:58Z</time>
      </trkpt>
      <trkpt lat="47.13726" lon="5.66189">
        <ele>214</ele>
        <time>2010-05-07T14:36:00Z</time>
      </trkpt>
      <trkpt lat="47.13729" lon="5.66167">
        <ele>214</ele>
        <time>2010-05-07T14:36:02Z</time>
      </trkpt>
      <trkpt lat="47.1373" lon="5.66144">
        <ele>214</ele>
        <time>2010-05-07T14:36:04Z</time>
      </trkpt>
      <trkpt lat="47.13732" lon="5.66122">
        <ele>214</ele>
        <time>2010-05-07T14:36:06Z</time>
      </trkpt>
      <trkpt lat="47.13733" lon="5.66099">
        <ele>214</ele>
        <time>2010-05-07T14:36:08Z</time>
      </trkpt>
      <trkpt lat="47.13735" lon="5.66075">
        <ele>214</ele>
        <time>2010-05-07T14:36:10Z</time>
      </trkpt>
      <trkpt lat="47.13738" lon="5.66052">
        <ele>214</ele>
        <time>2010-05-07T14:36:12Z</time>
      </trkpt>
      <trkpt lat="47.1374" lon="5.66029">
        <ele>214</ele>
        <time>2010-05-07T14:36:14Z</time>
      </trkpt>
      <trkpt lat="47.13745" lon="5.66006">
        <ele>208</ele>
        <time>2010-05-07T14:36:16Z</time>
      </trkpt>
      <trkpt lat="47.13748" lon="5.65993">
        <ele>208</ele>
        <time>2010-05-07T14:36:17Z</time>
      </trkpt>
      <trkpt lat="47.13752" lon="5.6597">
        <ele>208</ele>
        <time>2010-05-07T14:36:19Z</time>
      </trkpt>
      <trkpt lat="47.13754" lon="5.65958">
        <ele>203</ele>
        <time>2010-05-07T14:36:20Z</time>
      </trkpt>
      <trkpt lat="47.13759" lon="5.65934">
        <ele>203</ele>
        <time>2010-05-07T14:36:22Z</time>
      </trkpt>
      <trkpt lat="47.13762" lon="5.6591">
        <ele>203</ele>
        <time>2010-05-07T14:36:24Z</time>
      </trkpt>
      <trkpt lat="47.13765" lon="5.65887">
        <ele>203</ele>
        <time>2010-05-07T14:36:26Z</time>
      </trkpt>
      <trkpt lat="47.13768" lon="5.65865">
        <ele>203</ele>
        <time>2010-05-07T14:36:28Z</time>
      </trkpt>
      <trkpt lat="47.1377" lon="5.65843">
        <ele>203</ele>
        <time>2010-05-07T14:36:30Z</time>
      </trkpt>
      <trkpt lat="47.13768" lon="5.65825">
        <ele>210</ele>
        <time>2010-05-07T14:36:32Z</time>
      </trkpt>
      <trkpt lat="47.13766" lon="5.65804">
        <ele>210</ele>
        <time>2010-05-07T14:36:34Z</time>
      </trkpt>
      <trkpt lat="47.13762" lon="5.65784">
        <ele>210</ele>
        <time>2010-05-07T14:36:36Z</time>
      </trkpt>
      <trkpt lat="47.13759" lon="5.65767">
        <ele>210</ele>
        <time>2010-05-07T14:36:38Z</time>
      </trkpt>
      <trkpt lat="47.13755" lon="5.65747">
        <ele>210</ele>
        <time>2010-05-07T14:36:40Z</time>
      </trkpt>
      <trkpt lat="47.13754" lon="5.65725">
        <ele>216</ele>
        <time>2010-05-07T14:36:42Z</time>
      </trkpt>
      <trkpt lat="47.1376" lon="5.65706">
        <ele>216</ele>
        <time>2010-05-07T14:36:44Z</time>
      </trkpt>
      <trkpt lat="47.1377" lon="5.65693">
        <ele>216</ele>
        <time>2010-05-07T14:36:46Z</time>
      </trkpt>
      <trkpt lat="47.13781" lon="5.65679">
        <ele>216</ele>
        <time>2010-05-07T14:36:48Z</time>
      </trkpt>
      <trkpt lat="47.13794" lon="5.65664">
        <ele>216</ele>
        <time>2010-05-07T14:36:50Z</time>
      </trkpt>
      <trkpt lat="47.13806" lon="5.65648">
        <ele>216</ele>
        <time>2010-05-07T14:36:52Z</time>
      </trkpt>
      <trkpt lat="47.13817" lon="5.65631">
        <ele>216</ele>
        <time>2010-05-07T14:36:54Z</time>
      </trkpt>
      <trkpt lat="47.13828" lon="5.65614">
        <ele>216</ele>
        <time>2010-05-07T14:36:56Z</time>
      </trkpt>
      <trkpt lat="47.1384" lon="5.65598">
        <ele>216</ele>
        <time>2010-05-07T14:36:58Z</time>
      </trkpt>
      <trkpt lat="47.13852" lon="5.65581">
        <ele>221</ele>
        <time>2010-05-07T14:37:00Z</time>
      </trkpt>
      <trkpt lat="47.13863" lon="5.65567">
        <ele>221</ele>
        <time>2010-05-07T14:37:02Z</time>
      </trkpt>
      <trkpt lat="47.13876" lon="5.65551">
        <ele>221</ele>
        <time>2010-05-07T14:37:04Z</time>
      </trkpt>
      <trkpt lat="47.13888" lon="5.65534">
        <ele>221</ele>
        <time>2010-05-07T14:37:06Z</time>
      </trkpt>
      <trkpt lat="47.13901" lon="5.65522">
        <ele>221</ele>
        <time>2010-05-07T14:37:08Z</time>
      </trkpt>
      <trkpt lat="47.13916" lon="5.65515">
        <ele>228</ele>
        <time>2010-05-07T14:37:10Z</time>
      </trkpt>
      <trkpt lat="47.13931" lon="5.65511">
        <ele>228</ele>
        <time>2010-05-07T14:37:12Z</time>
      </trkpt>
      <trkpt lat="47.13946" lon="5.65509">
        <ele>228</ele>
        <time>2010-05-07T14:37:14Z</time>
      </trkpt>
      <trkpt lat="47.13961" lon="5.65509">
        <ele>228</ele>
        <time>2010-05-07T14:37:16Z</time>
      </trkpt>
      <trkpt lat="47.13975" lon="5.65508">
        <ele>228</ele>
        <time>2010-05-07T14:37:18Z</time>
      </trkpt>
      <trkpt lat="47.13988" lon="5.65507">
        <ele>228</ele>
        <time>2010-05-07T14:37:20Z</time>
      </trkpt>
      <trkpt lat="47.14002" lon="5.65507">
        <ele>228</ele>
        <time>2010-05-07T14:37:22Z</time>
      </trkpt>
      <trkpt lat="47.14015" lon="5.65508">
        <ele>228</ele>
        <time>2010-05-07T14:37:24Z</time>
      </trkpt>
      <trkpt lat="47.14029" lon="5.65509">
        <ele>228</ele>
        <time>2010-05-07T14:37:26Z</time>
      </trkpt>
      <trkpt lat="47.14041" lon="5.65511">
        <ele>228</ele>
        <time>2010-05-07T14:37:28Z</time>
      </trkpt>
      <trkpt lat="47.14053" lon="5.65514">
        <ele>228</ele>
        <time>2010-05-07T14:37:30Z</time>
      </trkpt>
      <trkpt lat="47.14066" lon="5.65518">
        <ele>228</ele>
        <time>2010-05-07T14:37:32Z</time>
      </trkpt>
      <trkpt lat="47.14076" lon="5.65519">
        <ele>228</ele>
        <time>2010-05-07T14:37:34Z</time>
      </trkpt>
      <trkpt lat="47.14086" lon="5.65515">
        <ele>222</ele>
        <time>2010-05-07T14:37:36Z</time>
      </trkpt>
      <trkpt lat="47.14088" lon="5.655">
        <ele>222</ele>
        <time>2010-05-07T14:37:38Z</time>
      </trkpt>
      <trkpt lat="47.14084" lon="5.65485">
        <ele>222</ele>
        <time>2010-05-07T14:37:40Z</time>
      </trkpt>
      <trkpt lat="47.14073" lon="5.65474">
        <ele>222</ele>
        <time>2010-05-07T14:37:42Z</time>
      </trkpt>
      <trkpt lat="47.14062" lon="5.65461">
        <ele>222</ele>
        <time>2010-05-07T14:37:44Z</time>
      </trkpt>
      <trkpt lat="47.14052" lon="5.65448">
        <ele>216</ele>
        <time>2010-05-07T14:37:46Z</time>
      </trkpt>
      <trkpt lat="47.14042" lon="5.65435">
        <ele>216</ele>
        <time>2010-05-07T14:37:48Z</time>
      </trkpt>
      <trkpt lat="47.14033" lon="5.65422">
        <ele>216</ele>
        <time>2010-05-07T14:37:50Z</time>
      </trkpt>
      <trkpt lat="47.14022" lon="5.65409">
        <ele>216</ele>
        <time>2010-05-07T14:37:52Z</time>
      </trkpt>
      <trkpt lat="47.14012" lon="5.65394">
        <ele>210</ele>
        <time>2010-05-07T14:37:54Z</time>
      </trkpt>
      <trkpt lat="47.14" lon="5.65382">
        <ele>210</ele>
        <time>2010-05-07T14:37:56Z</time>
      </trkpt>
      <trkpt lat="47.13988" lon="5.65367">
        <ele>210</ele>
        <time>2010-05-07T14:37:58Z</time>
      </trkpt>
      <trkpt lat="47.13977" lon="5.65353">
        <ele>210</ele>
        <time>2010-05-07T14:38:00Z</time>
      </trkpt>
      <trkpt lat="47.13967" lon="5.65339">
        <ele>210</ele>
        <time>2010-05-07T14:38:02Z</time>
      </trkpt>
      <trkpt lat="47.13956" lon="5.65324">
        <ele>210</ele>
        <time>2010-05-07T14:38:04Z</time>
      </trkpt>
      <trkpt lat="47.13945" lon="5.65308">
        <ele>210</ele>
        <time>2010-05-07T14:38:06Z</time>
      </trkpt>
      <trkpt lat="47.13933" lon="5.65293">
        <ele>210</ele>
        <time>2010-05-07T14:38:08Z</time>
      </trkpt>
      <trkpt lat="47.1392" lon="5.65278">
        <ele>210</ele>
        <time>2010-05-07T14:38:10Z</time>
      </trkpt>
      <trkpt lat="47.13908" lon="5.65264">
        <ele>210</ele>
        <time>2010-05-07T14:38:12Z</time>
      </trkpt>
      <trkpt lat="47.13896" lon="5.65249">
        <ele>210</ele>
        <time>2010-05-07T14:38:14Z</time>
      </trkpt>
      <trkpt lat="47.13884" lon="5.65234">
        <ele>210</ele>
        <time>2010-05-07T14:38:16Z</time>
      </trkpt>
      <trkpt lat="47.13873" lon="5.65219">
        <ele>210</ele>
        <time>2010-05-07T14:38:18Z</time>
      </trkpt>
      <trkpt lat="47.13862" lon="5.65204">
        <ele>210</ele>
        <time>2010-05-07T14:38:20Z</time>
      </trkpt>
      <trkpt lat="47.13852" lon="5.65189">
        <ele>210</ele>
        <time>2010-05-07T14:38:22Z</time>
      </trkpt>
      <trkpt lat="47.13841" lon="5.65176">
        <ele>210</ele>
        <time>2010-05-07T14:38:24Z</time>
      </trkpt>
      <trkpt lat="47.1383" lon="5.65163">
        <ele>210</ele>
        <time>2010-05-07T14:38:26Z</time>
      </trkpt>
      <trkpt lat="47.13819" lon="5.65149">
        <ele>210</ele>
        <time>2010-05-07T14:38:28Z</time>
      </trkpt>
      <trkpt lat="47.13807" lon="5.65136">
        <ele>210</ele>
        <time>2010-05-07T14:38:30Z</time>
      </trkpt>
      <trkpt lat="47.13793" lon="5.65126">
        <ele>210</ele>
        <time>2010-05-07T14:38:32Z</time>
      </trkpt>
      <trkpt lat="47.1378" lon="5.65116">
        <ele>210</ele>
        <time>2010-05-07T14:38:34Z</time>
      </trkpt>
      <trkpt lat="47.13767" lon="5.65109">
        <ele>210</ele>
        <time>2010-05-07T14:38:36Z</time>
      </trkpt>
      <trkpt lat="47.13754" lon="5.65102">
        <ele>210</ele>
        <time>2010-05-07T14:38:38Z</time>
      </trkpt>
      <trkpt lat="47.13743" lon="5.65097">
        <ele>210</ele>
        <time>2010-05-07T14:38:40Z</time>
      </trkpt>
      <trkpt lat="47.1373" lon="5.65092">
        <ele>210</ele>
        <time>2010-05-07T14:38:42Z</time>
      </trkpt>
      <trkpt lat="47.13717" lon="5.65086">
        <ele>210</ele>
        <time>2010-05-07T14:38:44Z</time>
      </trkpt>
      <trkpt lat="47.13703" lon="5.65081">
        <ele>210</ele>
        <time>2010-05-07T14:38:46Z</time>
      </trkpt>
      <trkpt lat="47.13688" lon="5.65074">
        <ele>210</ele>
        <time>2010-05-07T14:38:48Z</time>
      </trkpt>
      <trkpt lat="47.13675" lon="5.65069">
        <ele>210</ele>
        <time>2010-05-07T14:38:50Z</time>
      </trkpt>
      <trkpt lat="47.13659" lon="5.65065">
        <ele>210</ele>
        <time>2010-05-07T14:38:52Z</time>
      </trkpt>
      <trkpt lat="47.13643" lon="5.65058">
        <ele>210</ele>
        <time>2010-05-07T14:38:54Z</time>
      </trkpt>
      <trkpt lat="47.13628" lon="5.65052">
        <ele>210</ele>
        <time>2010-05-07T14:38:56Z</time>
      </trkpt>
      <trkpt lat="47.13614" lon="5.65044">
        <ele>210</ele>
        <time>2010-05-07T14:38:58Z</time>
      </trkpt>
      <trkpt lat="47.13599" lon="5.65039">
        <ele>216</ele>
        <time>2010-05-07T14:39:00Z</time>
      </trkpt>
      <trkpt lat="47.13583" lon="5.65032">
        <ele>216</ele>
        <time>2010-05-07T14:39:02Z</time>
      </trkpt>
      <trkpt lat="47.13567" lon="5.65028">
        <ele>216</ele>
        <time>2010-05-07T14:39:04Z</time>
      </trkpt>
      <trkpt lat="47.13552" lon="5.65024">
        <ele>216</ele>
        <time>2010-05-07T14:39:06Z</time>
      </trkpt>
      <trkpt lat="47.13538" lon="5.65022">
        <ele>216</ele>
        <time>2010-05-07T14:39:08Z</time>
      </trkpt>
      <trkpt lat="47.13522" lon="5.65021">
        <ele>216</ele>
        <time>2010-05-07T14:39:10Z</time>
      </trkpt>
      <trkpt lat="47.13506" lon="5.65021">
        <ele>216</ele>
        <time>2010-05-07T14:39:12Z</time>
      </trkpt>
      <trkpt lat="47.1349" lon="5.6502">
        <ele>216</ele>
        <time>2010-05-07T14:39:14Z</time>
      </trkpt>
      <trkpt lat="47.13474" lon="5.65021">
        <ele>216</ele>
        <time>2010-05-07T14:39:16Z</time>
      </trkpt>
      <trkpt lat="47.13459" lon="5.65021">
        <ele>210</ele>
        <time>2010-05-07T14:39:18Z</time>
      </trkpt>
      <trkpt lat="47.13444" lon="5.65022">
        <ele>210</ele>
        <time>2010-05-07T14:39:20Z</time>
      </trkpt>
      <trkpt lat="47.13429" lon="5.65024">
        <ele>210</ele>
        <time>2010-05-07T14:39:22Z</time>
      </trkpt>
      <trkpt lat="47.13413" lon="5.65026">
        <ele>210</ele>
        <time>2010-05-07T14:39:24Z</time>
      </trkpt>
      <trkpt lat="47.134" lon="5.65028">
        <ele>210</ele>
        <time>2010-05-07T14:39:26Z</time>
      </trkpt>
      <trkpt lat="47.13386" lon="5.6503">
        <ele>210</ele>
        <time>2010-05-07T14:39:28Z</time>
      </trkpt>
      <trkpt lat="47.13372" lon="5.65032">
        <ele>210</ele>
        <time>2010-05-07T14:39:30Z</time>
      </trkpt>
      <trkpt lat="47.1336" lon="5.65037">
        <ele>210</ele>
        <time>2010-05-07T14:39:32Z</time>
      </trkpt>
      <trkpt lat="47.13348" lon="5.65043">
        <ele>210</ele>
        <time>2010-05-07T14:39:34Z</time>
      </trkpt>
      <trkpt lat="47.13337" lon="5.65051">
        <ele>210</ele>
        <time>2010-05-07T14:39:36Z</time>
      </trkpt>
      <trkpt lat="47.13329" lon="5.6506">
        <ele>216</ele>
        <time>2010-05-07T14:39:38Z</time>
      </trkpt>
      <trkpt lat="47.13322" lon="5.6507">
        <ele>216</ele>
        <time>2010-05-07T14:39:40Z</time>
      </trkpt>
      <trkpt lat="47.13314" lon="5.65083">
        <ele>216</ele>
        <time>2010-05-07T14:39:43Z</time>
      </trkpt>
      <trkpt lat="47.13304" lon="5.6509">
        <ele>222</ele>
        <time>2010-05-07T14:39:46Z</time>
      </trkpt>
      <trkpt lat="47.13295" lon="5.65091">
        <ele>222</ele>
        <time>2010-05-07T14:39:49Z</time>
      </trkpt>
      <trkpt lat="47.13284" lon="5.65088">
        <ele>222</ele>
        <time>2010-05-07T14:39:52Z</time>
      </trkpt>
      <trkpt lat="47.13274" lon="5.65083">
        <ele>228</ele>
        <time>2010-05-07T14:39:55Z</time>
      </trkpt>
      <trkpt lat="47.13266" lon="5.65074">
        <ele>228</ele>
        <time>2010-05-07T14:39:58Z</time>
      </trkpt>
      <trkpt lat="47.13257" lon="5.65064">
        <ele>235</ele>
        <time>2010-05-07T14:40:02Z</time>
      </trkpt>
      <trkpt lat="47.13248" lon="5.65055">
        <ele>235</ele>
        <time>2010-05-07T14:40:05Z</time>
      </trkpt>
      <trkpt lat="47.1324" lon="5.65044">
        <ele>235</ele>
        <time>2010-05-07T14:40:08Z</time>
      </trkpt>
      <trkpt lat="47.13233" lon="5.65028">
        <ele>243</ele>
        <time>2010-05-07T14:40:12Z</time>
      </trkpt>
      <trkpt lat="47.13233" lon="5.65014">
        <ele>248</ele>
        <time>2010-05-07T14:40:15Z</time>
      </trkpt>
      <trkpt lat="47.1323" lon="5.64995">
        <ele>248</ele>
        <time>2010-05-07T14:40:18Z</time>
      </trkpt>
      <trkpt lat="47.13225" lon="5.64981">
        <ele>255</ele>
        <time>2010-05-07T14:40:20Z</time>
      </trkpt>
      <trkpt lat="47.13221" lon="5.64966">
        <ele>255</ele>
        <time>2010-05-07T14:40:22Z</time>
      </trkpt>
      <trkpt lat="47.13218" lon="5.64949">
        <ele>255</ele>
        <time>2010-05-07T14:40:24Z</time>
      </trkpt>
      <trkpt lat="47.13216" lon="5.6493">
        <ele>255</ele>
        <time>2010-05-07T14:40:26Z</time>
      </trkpt>
      <trkpt lat="47.13215" lon="5.64909">
        <ele>250</ele>
        <time>2010-05-07T14:40:28Z</time>
      </trkpt>
      <trkpt lat="47.13209" lon="5.64889">
        <ele>250</ele>
        <time>2010-05-07T14:40:30Z</time>
      </trkpt>
      <trkpt lat="47.13207" lon="5.64866">
        <ele>250</ele>
        <time>2010-05-07T14:40:32Z</time>
      </trkpt>
      <trkpt lat="47.13204" lon="5.64844">
        <ele>250</ele>
        <time>2010-05-07T14:40:34Z</time>
      </trkpt>
      <trkpt lat="47.13204" lon="5.64818">
        <ele>244</ele>
        <time>2010-05-07T14:40:36Z</time>
      </trkpt>
      <trkpt lat="47.13202" lon="5.64793">
        <ele>244</ele>
        <time>2010-05-07T14:40:38Z</time>
      </trkpt>
      <trkpt lat="47.13203" lon="5.64779">
        <ele>244</ele>
        <time>2010-05-07T14:40:39Z</time>
      </trkpt>
      <trkpt lat="47.13202" lon="5.64765">
        <ele>244</ele>
        <time>2010-05-07T14:40:40Z</time>
      </trkpt>
      <trkpt lat="47.13203" lon="5.64751">
        <ele>237</ele>
        <time>2010-05-07T14:40:41Z</time>
      </trkpt>
      <trkpt lat="47.13202" lon="5.64737">
        <ele>237</ele>
        <time>2010-05-07T14:40:42Z</time>
      </trkpt>
      <trkpt lat="47.13201" lon="5.64721">
        <ele>237</ele>
        <time>2010-05-07T14:40:43Z</time>
      </trkpt>
      <trkpt lat="47.13201" lon="5.64705">
        <ele>237</ele>
        <time>2010-05-07T14:40:44Z</time>
      </trkpt>
      <trkpt lat="47.132" lon="5.64689">
        <ele>237</ele>
        <time>2010-05-07T14:40:45Z</time>
      </trkpt>
      <trkpt lat="47.132" lon="5.64674">
        <ele>237</ele>
        <time>2010-05-07T14:40:46Z</time>
      </trkpt>
      <trkpt lat="47.132" lon="5.64659">
        <ele>237</ele>
        <time>2010-05-07T14:40:47Z</time>
      </trkpt>
      <trkpt lat="47.13199" lon="5.64644">
        <ele>237</ele>
        <time>2010-05-07T14:40:48Z</time>
      </trkpt>
      <trkpt lat="47.132" lon="5.64628">
        <ele>231</ele>
        <time>2010-05-07T14:40:49Z</time>
      </trkpt>
      <trkpt lat="47.13201" lon="5.64612">
        <ele>231</ele>
        <time>2010-05-07T14:40:50Z</time>
      </trkpt>
      <trkpt lat="47.13208" lon="5.64583">
        <ele>231</ele>
        <time>2010-05-07T14:40:52Z</time>
      </trkpt>
      <trkpt lat="47.13217" lon="5.64573">
        <ele>231</ele>
        <time>2010-05-07T14:40:53Z</time>
      </trkpt>
      <trkpt lat="47.13225" lon="5.64567">
        <ele>231</ele>
        <time>2010-05-07T14:40:54Z</time>
      </trkpt>
      <trkpt lat="47.13241" lon="5.64553">
        <ele>231</ele>
        <time>2010-05-07T14:40:56Z</time>
      </trkpt>
      <trkpt lat="47.13256" lon="5.64542">
        <ele>231</ele>
        <time>2010-05-07T14:40:58Z</time>
      </trkpt>
      <trkpt lat="47.13272" lon="5.6453">
        <ele>223</ele>
        <time>2010-05-07T14:41:00Z</time>
      </trkpt>
      <trkpt lat="47.13286" lon="5.64515">
        <ele>223</ele>
        <time>2010-05-07T14:41:02Z</time>
      </trkpt>
      <trkpt lat="47.13292" lon="5.64504">
        <ele>223</ele>
        <time>2010-05-07T14:41:03Z</time>
      </trkpt>
      <trkpt lat="47.13299" lon="5.64481">
        <ele>223</ele>
        <time>2010-05-07T14:41:05Z</time>
      </trkpt>
      <trkpt lat="47.13303" lon="5.64468">
        <ele>223</ele>
        <time>2010-05-07T14:41:06Z</time>
      </trkpt>
      <trkpt lat="47.13306" lon="5.64455">
        <ele>223</ele>
        <time>2010-05-07T14:41:07Z</time>
      </trkpt>
      <trkpt lat="47.13312" lon="5.64431">
        <ele>215</ele>
        <time>2010-05-07T14:41:09Z</time>
      </trkpt>
      <trkpt lat="47.13318" lon="5.6441">
        <ele>215</ele>
        <time>2010-05-07T14:41:11Z</time>
      </trkpt>
      <trkpt lat="47.13326" lon="5.64386">
        <ele>215</ele>
        <time>2010-05-07T14:41:13Z</time>
      </trkpt>
      <trkpt lat="47.13346" lon="5.64345">
        <ele>209</ele>
        <time>2010-05-07T14:41:17Z</time>
      </trkpt>
      <trkpt lat="47.13361" lon="5.6433">
        <ele>209</ele>
        <time>2010-05-07T14:41:19Z</time>
      </trkpt>
      <trkpt lat="47.13368" lon="5.64322">
        <ele>209</ele>
        <time>2010-05-07T14:41:20Z</time>
      </trkpt>
      <trkpt lat="47.13383" lon="5.64312">
        <ele>209</ele>
        <time>2010-05-07T14:41:22Z</time>
      </trkpt>
      <trkpt lat="47.13398" lon="5.64302">
        <ele>209</ele>
        <time>2010-05-07T14:41:24Z</time>
      </trkpt>
      <trkpt lat="47.13405" lon="5.64293">
        <ele>209</ele>
        <time>2010-05-07T14:41:25Z</time>
      </trkpt>
      <trkpt lat="47.13412" lon="5.64284">
        <ele>209</ele>
        <time>2010-05-07T14:41:26Z</time>
      </trkpt>
      <trkpt lat="47.13419" lon="5.64275">
        <ele>203</ele>
        <time>2010-05-07T14:41:27Z</time>
      </trkpt>
      <trkpt lat="47.13431" lon="5.64258">
        <ele>203</ele>
        <time>2010-05-07T14:41:29Z</time>
      </trkpt>
      <trkpt lat="47.13438" lon="5.64247">
        <ele>203</ele>
        <time>2010-05-07T14:41:30Z</time>
      </trkpt>
      <trkpt lat="47.13446" lon="5.64232">
        <ele>203</ele>
        <time>2010-05-07T14:41:32Z</time>
      </trkpt>
      <trkpt lat="47.13456" lon="5.64214">
        <ele>203</ele>
        <time>2010-05-07T14:41:34Z</time>
      </trkpt>
      <trkpt lat="47.13464" lon="5.64198">
        <ele>203</ele>
        <time>2010-05-07T14:41:36Z</time>
      </trkpt>
      <trkpt lat="47.13472" lon="5.64181">
        <ele>203</ele>
        <time>2010-05-07T14:41:38Z</time>
      </trkpt>
      <trkpt lat="47.13477" lon="5.64169">
        <ele>203</ele>
        <time>2010-05-07T14:41:39Z</time>
      </trkpt>
      <trkpt lat="47.13486" lon="5.64149">
        <ele>203</ele>
        <time>2010-05-07T14:41:41Z</time>
      </trkpt>
      <trkpt lat="47.13494" lon="5.64129">
        <ele>203</ele>
        <time>2010-05-07T14:41:43Z</time>
      </trkpt>
      <trkpt lat="47.13503" lon="5.6411">
        <ele>203</ele>
        <time>2010-05-07T14:41:45Z</time>
      </trkpt>
      <trkpt lat="47.13512" lon="5.64094">
        <ele>203</ele>
        <time>2010-05-07T14:41:47Z</time>
      </trkpt>
      <trkpt lat="47.1352" lon="5.64077">
        <ele>203</ele>
        <time>2010-05-07T14:41:49Z</time>
      </trkpt>
      <trkpt lat="47.13529" lon="5.64059">
        <ele>203</ele>
        <time>2010-05-07T14:41:51Z</time>
      </trkpt>
      <trkpt lat="47.13539" lon="5.64041">
        <ele>203</ele>
        <time>2010-05-07T14:41:53Z</time>
      </trkpt>
      <trkpt lat="47.13545" lon="5.64025">
        <ele>203</ele>
        <time>2010-05-07T14:41:55Z</time>
      </trkpt>
      <trkpt lat="47.13547" lon="5.64012">
        <ele>213</ele>
        <time>2010-05-07T14:41:57Z</time>
      </trkpt>
      <trkpt lat="47.13548" lon="5.63992">
        <ele>213</ele>
        <time>2010-05-07T14:42:00Z</time>
      </trkpt>
      <trkpt lat="47.13552" lon="5.63974">
        <ele>213</ele>
        <time>2010-05-07T14:42:02Z</time>
      </trkpt>
      <trkpt lat="47.13558" lon="5.63958">
        <ele>213</ele>
        <time>2010-05-07T14:42:04Z</time>
      </trkpt>
      <trkpt lat="47.13561" lon="5.63941">
        <ele>213</ele>
        <time>2010-05-07T14:42:06Z</time>
      </trkpt>
      <trkpt lat="47.13566" lon="5.63923">
        <ele>213</ele>
        <time>2010-05-07T14:42:08Z</time>
      </trkpt>
      <trkpt lat="47.13568" lon="5.6391">
        <ele>205</ele>
        <time>2010-05-07T14:42:10Z</time>
      </trkpt>
      <trkpt lat="47.1357" lon="5.63891">
        <ele>212</ele>
        <time>2010-05-07T14:42:13Z</time>
      </trkpt>
      <trkpt lat="47.13573" lon="5.63859">
        <ele>212</ele>
        <time>2010-05-07T14:42:17Z</time>
      </trkpt>
      <trkpt lat="47.13572" lon="5.63841">
        <ele>212</ele>
        <time>2010-05-07T14:42:19Z</time>
      </trkpt>
      <trkpt lat="47.13573" lon="5.63825">
        <ele>212</ele>
        <time>2010-05-07T14:42:21Z</time>
      </trkpt>
      <trkpt lat="47.13571" lon="5.63811">
        <ele>222</ele>
        <time>2010-05-07T14:42:23Z</time>
      </trkpt>
      <trkpt lat="47.13568" lon="5.63795">
        <ele>222</ele>
        <time>2010-05-07T14:42:25Z</time>
      </trkpt>
      <trkpt lat="47.13561" lon="5.63783">
        <ele>222</ele>
        <time>2010-05-07T14:42:27Z</time>
      </trkpt>
      <trkpt lat="47.13552" lon="5.6377">
        <ele>222</ele>
        <time>2010-05-07T14:42:29Z</time>
      </trkpt>
      <trkpt lat="47.13544" lon="5.63758">
        <ele>222</ele>
        <time>2010-05-07T14:42:31Z</time>
      </trkpt>
      <trkpt lat="47.1354" lon="5.63741">
        <ele>230</ele>
        <time>2010-05-07T14:42:33Z</time>
      </trkpt>
      <trkpt lat="47.13535" lon="5.63723">
        <ele>230</ele>
        <time>2010-05-07T14:42:35Z</time>
      </trkpt>
      <trkpt lat="47.13534" lon="5.63705">
        <ele>230</ele>
        <time>2010-05-07T14:42:37Z</time>
      </trkpt>
      <trkpt lat="47.13535" lon="5.63686">
        <ele>240</ele>
        <time>2010-05-07T14:42:39Z</time>
      </trkpt>
      <trkpt lat="47.13537" lon="5.63665">
        <ele>240</ele>
        <time>2010-05-07T14:42:41Z</time>
      </trkpt>
      <trkpt lat="47.13539" lon="5.63651">
        <ele>253</ele>
        <time>2010-05-07T14:42:43Z</time>
      </trkpt>
      <trkpt lat="47.13541" lon="5.63632">
        <ele>260</ele>
        <time>2010-05-07T14:42:45Z</time>
      </trkpt>
      <trkpt lat="47.13547" lon="5.63614">
        <ele>260</ele>
        <time>2010-05-07T14:42:47Z</time>
      </trkpt>
      <trkpt lat="47.13551" lon="5.63597">
        <ele>260</ele>
        <time>2010-05-07T14:42:49Z</time>
      </trkpt>
      <trkpt lat="47.13555" lon="5.63583">
        <ele>267</ele>
        <time>2010-05-07T14:42:51Z</time>
      </trkpt>
      <trkpt lat="47.13561" lon="5.63561">
        <ele>267</ele>
        <time>2010-05-07T14:42:53Z</time>
      </trkpt>
      <trkpt lat="47.13565" lon="5.63546">
        <ele>267</ele>
        <time>2010-05-07T14:42:54Z</time>
      </trkpt>
      <trkpt lat="47.13568" lon="5.63533">
        <ele>267</ele>
        <time>2010-05-07T14:42:55Z</time>
      </trkpt>
      <trkpt lat="47.13576" lon="5.63513">
        <ele>267</ele>
        <time>2010-05-07T14:42:57Z</time>
      </trkpt>
      <trkpt lat="47.13583" lon="5.63498">
        <ele>274</ele>
        <time>2010-05-07T14:42:59Z</time>
      </trkpt>
      <trkpt lat="47.13591" lon="5.63475">
        <ele>280</ele>
        <time>2010-05-07T14:43:01Z</time>
      </trkpt>
      <trkpt lat="47.13594" lon="5.63463">
        <ele>280</ele>
        <time>2010-05-07T14:43:02Z</time>
      </trkpt>
      <trkpt lat="47.13598" lon="5.63443">
        <ele>288</ele>
        <time>2010-05-07T14:43:04Z</time>
      </trkpt>
      <trkpt lat="47.13605" lon="5.63422">
        <ele>288</ele>
        <time>2010-05-07T14:43:06Z</time>
      </trkpt>
      <trkpt lat="47.13613" lon="5.63406">
        <ele>288</ele>
        <time>2010-05-07T14:43:08Z</time>
      </trkpt>
      <trkpt lat="47.13619" lon="5.63395">
        <ele>288</ele>
        <time>2010-05-07T14:43:09Z</time>
      </trkpt>
      <trkpt lat="47.13624" lon="5.63382">
        <ele>288</ele>
        <time>2010-05-07T14:43:10Z</time>
      </trkpt>
      <trkpt lat="47.13633" lon="5.6337">
        <ele>288</ele>
        <time>2010-05-07T14:43:11Z</time>
      </trkpt>
      <trkpt lat="47.13643" lon="5.6335">
        <ele>288</ele>
        <time>2010-05-07T14:43:13Z</time>
      </trkpt>
      <trkpt lat="47.13648" lon="5.63338">
        <ele>293</ele>
        <time>2010-05-07T14:43:14Z</time>
      </trkpt>
      <trkpt lat="47.13656" lon="5.63316">
        <ele>293</ele>
        <time>2010-05-07T14:43:16Z</time>
      </trkpt>
      <trkpt lat="47.13661" lon="5.63297">
        <ele>299</ele>
        <time>2010-05-07T14:43:18Z</time>
      </trkpt>
      <trkpt lat="47.13668" lon="5.63279">
        <ele>299</ele>
        <time>2010-05-07T14:43:20Z</time>
      </trkpt>
      <trkpt lat="47.13674" lon="5.63264">
        <ele>299</ele>
        <time>2010-05-07T14:43:22Z</time>
      </trkpt>
      <trkpt lat="47.13682" lon="5.63237">
        <ele>307</ele>
        <time>2010-05-07T14:43:26Z</time>
      </trkpt>
      <trkpt lat="47.13687" lon="5.63219">
        <ele>307</ele>
        <time>2010-05-07T14:43:28Z</time>
      </trkpt>
      <trkpt lat="47.13694" lon="5.63201">
        <ele>307</ele>
        <time>2010-05-07T14:43:30Z</time>
      </trkpt>
      <trkpt lat="47.13696" lon="5.63184">
        <ele>318</ele>
        <time>2010-05-07T14:43:32Z</time>
      </trkpt>
      <trkpt lat="47.137" lon="5.63169">
        <ele>325</ele>
        <time>2010-05-07T14:43:34Z</time>
      </trkpt>
      <trkpt lat="47.13703" lon="5.63157">
        <ele>325</ele>
        <time>2010-05-07T14:43:36Z</time>
      </trkpt>
      <trkpt lat="47.13709" lon="5.63141">
        <ele>337</ele>
        <time>2010-05-07T14:43:38Z</time>
      </trkpt>
      <trkpt lat="47.13716" lon="5.63122">
        <ele>345</ele>
        <time>2010-05-07T14:43:40Z</time>
      </trkpt>
      <trkpt lat="47.13722" lon="5.63104">
        <ele>345</ele>
        <time>2010-05-07T14:43:42Z</time>
      </trkpt>
      <trkpt lat="47.13729" lon="5.63087">
        <ele>351</ele>
        <time>2010-05-07T14:43:44Z</time>
      </trkpt>
      <trkpt lat="47.1373" lon="5.63074">
        <ele>359</ele>
        <time>2010-05-07T14:43:46Z</time>
      </trkpt>
      <trkpt lat="47.13732" lon="5.6306">
        <ele>367</ele>
        <time>2010-05-07T14:43:48Z</time>
      </trkpt>
      <trkpt lat="47.13734" lon="5.63046">
        <ele>367</ele>
        <time>2010-05-07T14:43:51Z</time>
      </trkpt>
      <trkpt lat="47.13739" lon="5.63032">
        <ele>376</ele>
        <time>2010-05-07T14:43:53Z</time>
      </trkpt>
      <trkpt lat="47.13746" lon="5.63016">
        <ele>376</ele>
        <time>2010-05-07T14:43:55Z</time>
      </trkpt>
      <trkpt lat="47.13753" lon="5.62998">
        <ele>382</ele>
        <time>2010-05-07T14:43:57Z</time>
      </trkpt>
      <trkpt lat="47.13765" lon="5.62975">
        <ele>382</ele>
        <time>2010-05-07T14:43:59Z</time>
      </trkpt>
      <trkpt lat="47.13784" lon="5.62937">
        <ele>389</ele>
        <time>2010-05-07T14:44:03Z</time>
      </trkpt>
      <trkpt lat="47.13785" lon="5.62918">
        <ele>389</ele>
        <time>2010-05-07T14:44:05Z</time>
      </trkpt>
      <trkpt lat="47.13784" lon="5.62897">
        <ele>389</ele>
        <time>2010-05-07T14:44:07Z</time>
      </trkpt>
      <trkpt lat="47.13789" lon="5.62861">
        <ele>389</ele>
        <time>2010-05-07T14:44:11Z</time>
      </trkpt>
      <trkpt lat="47.13787" lon="5.62847">
        <ele>389</ele>
        <time>2010-05-07T14:44:12Z</time>
      </trkpt>
      <trkpt lat="47.13784" lon="5.62828">
        <ele>389</ele>
        <time>2010-05-07T14:44:14Z</time>
      </trkpt>
      <trkpt lat="47.13786" lon="5.62807">
        <ele>389</ele>
        <time>2010-05-07T14:44:16Z</time>
      </trkpt>
      <trkpt lat="47.13787" lon="5.62789">
        <ele>389</ele>
        <time>2010-05-07T14:44:18Z</time>
      </trkpt>
      <trkpt lat="47.13792" lon="5.62763">
        <ele>389</ele>
        <time>2010-05-07T14:44:21Z</time>
      </trkpt>
      <trkpt lat="47.13794" lon="5.62749">
        <ele>389</ele>
        <time>2010-05-07T14:44:22Z</time>
      </trkpt>
      <trkpt lat="47.13793" lon="5.62732">
        <ele>383</ele>
        <time>2010-05-07T14:44:24Z</time>
      </trkpt>
      <trkpt lat="47.13792" lon="5.62714">
        <ele>383</ele>
        <time>2010-05-07T14:44:26Z</time>
      </trkpt>
      <trkpt lat="47.13795" lon="5.62697">
        <ele>395</ele>
        <time>2010-05-07T14:44:28Z</time>
      </trkpt>
      <trkpt lat="47.138" lon="5.6268">
        <ele>401</ele>
        <time>2010-05-07T14:44:30Z</time>
      </trkpt>
      <trkpt lat="47.13803" lon="5.62663">
        <ele>409</ele>
        <time>2010-05-07T14:44:32Z</time>
      </trkpt>
      <trkpt lat="47.13803" lon="5.62644">
        <ele>409</ele>
        <time>2010-05-07T14:44:34Z</time>
      </trkpt>
      <trkpt lat="47.13804" lon="5.62623">
        <ele>416</ele>
        <time>2010-05-07T14:44:36Z</time>
      </trkpt>
      <trkpt lat="47.13806" lon="5.62602">
        <ele>422</ele>
        <time>2010-05-07T14:44:38Z</time>
      </trkpt>
      <trkpt lat="47.13808" lon="5.62582">
        <ele>422</ele>
        <time>2010-05-07T14:44:40Z</time>
      </trkpt>
      <trkpt lat="47.13809" lon="5.62561">
        <ele>422</ele>
        <time>2010-05-07T14:44:42Z</time>
      </trkpt>
      <trkpt lat="47.13809" lon="5.62539">
        <ele>430</ele>
        <time>2010-05-07T14:44:44Z</time>
      </trkpt>
      <trkpt lat="47.1381" lon="5.62518">
        <ele>430</ele>
        <time>2010-05-07T14:44:46Z</time>
      </trkpt>
      <trkpt lat="47.13808" lon="5.62497">
        <ele>435</ele>
        <time>2010-05-07T14:44:48Z</time>
      </trkpt>
      <trkpt lat="47.13808" lon="5.62464">
        <ele>435</ele>
        <time>2010-05-07T14:44:51Z</time>
      </trkpt>
      <trkpt lat="47.13802" lon="5.62442">
        <ele>442</ele>
        <time>2010-05-07T14:44:53Z</time>
      </trkpt>
      <trkpt lat="47.13798" lon="5.62423">
        <ele>442</ele>
        <time>2010-05-07T14:44:55Z</time>
      </trkpt>
      <trkpt lat="47.13795" lon="5.62401">
        <ele>442</ele>
        <time>2010-05-07T14:44:57Z</time>
      </trkpt>
      <trkpt lat="47.13791" lon="5.62379">
        <ele>448</ele>
        <time>2010-05-07T14:44:59Z</time>
      </trkpt>
      <trkpt lat="47.13787" lon="5.62356">
        <ele>448</ele>
        <time>2010-05-07T14:45:01Z</time>
      </trkpt>
      <trkpt lat="47.13784" lon="5.62335">
        <ele>448</ele>
        <time>2010-05-07T14:45:03Z</time>
      </trkpt>
      <trkpt lat="47.13784" lon="5.62311">
        <ele>448</ele>
        <time>2010-05-07T14:45:05Z</time>
      </trkpt>
      <trkpt lat="47.13784" lon="5.6229">
        <ele>448</ele>
        <time>2010-05-07T14:45:07Z</time>
      </trkpt>
      <trkpt lat="47.13784" lon="5.62268">
        <ele>448</ele>
        <time>2010-05-07T14:45:09Z</time>
      </trkpt>
      <trkpt lat="47.13783" lon="5.62248">
        <ele>448</ele>
        <time>2010-05-07T14:45:11Z</time>
      </trkpt>
      <trkpt lat="47.1378" lon="5.62229">
        <ele>448</ele>
        <time>2010-05-07T14:45:13Z</time>
      </trkpt>
      <trkpt lat="47.13777" lon="5.62209">
        <ele>448</ele>
        <time>2010-05-07T14:45:15Z</time>
      </trkpt>
      <trkpt lat="47.1377" lon="5.62191">
        <ele>448</ele>
        <time>2010-05-07T14:45:17Z</time>
      </trkpt>
      <trkpt lat="47.13761" lon="5.62162">
        <ele>448</ele>
        <time>2010-05-07T14:45:20Z</time>
      </trkpt>
      <trkpt lat="47.13754" lon="5.6214">
        <ele>448</ele>
        <time>2010-05-07T14:45:22Z</time>
      </trkpt>
      <trkpt lat="47.13744" lon="5.62122">
        <ele>448</ele>
        <time>2010-05-07T14:45:24Z</time>
      </trkpt>
      <trkpt lat="47.13739" lon="5.62101">
        <ele>448</ele>
        <time>2010-05-07T14:45:26Z</time>
      </trkpt>
      <trkpt lat="47.13732" lon="5.62079">
        <ele>448</ele>
        <time>2010-05-07T14:45:28Z</time>
      </trkpt>
      <trkpt lat="47.13726" lon="5.62058">
        <ele>448</ele>
        <time>2010-05-07T14:45:30Z</time>
      </trkpt>
      <trkpt lat="47.13722" lon="5.62035">
        <ele>448</ele>
        <time>2010-05-07T14:45:32Z</time>
      </trkpt>
      <trkpt lat="47.13716" lon="5.62014">
        <ele>448</ele>
        <time>2010-05-07T14:45:34Z</time>
      </trkpt>
      <trkpt lat="47.13708" lon="5.61991">
        <ele>448</ele>
        <time>2010-05-07T14:45:36Z</time>
      </trkpt>
      <trkpt lat="47.137" lon="5.61971">
        <ele>441</ele>
        <time>2010-05-07T14:45:38Z</time>
      </trkpt>
      <trkpt lat="47.13694" lon="5.61952">
        <ele>441</ele>
        <time>2010-05-07T14:45:40Z</time>
      </trkpt>
      <trkpt lat="47.13686" lon="5.61943">
        <ele>441</ele>
        <time>2010-05-07T14:45:41Z</time>
      </trkpt>
      <trkpt lat="47.13675" lon="5.61926">
        <ele>441</ele>
        <time>2010-05-07T14:45:43Z</time>
      </trkpt>
      <trkpt lat="47.13664" lon="5.6191">
        <ele>441</ele>
        <time>2010-05-07T14:45:45Z</time>
      </trkpt>
      <trkpt lat="47.13653" lon="5.61893">
        <ele>441</ele>
        <time>2010-05-07T14:45:47Z</time>
      </trkpt>
      <trkpt lat="47.1364" lon="5.61877">
        <ele>441</ele>
        <time>2010-05-07T14:45:49Z</time>
      </trkpt>
      <trkpt lat="47.13629" lon="5.61867">
        <ele>441</ele>
        <time>2010-05-07T14:45:51Z</time>
      </trkpt>
      <trkpt lat="47.1362" lon="5.61854">
        <ele>441</ele>
        <time>2010-05-07T14:45:53Z</time>
      </trkpt>
      <trkpt lat="47.13611" lon="5.61837">
        <ele>441</ele>
        <time>2010-05-07T14:45:55Z</time>
      </trkpt>
      <trkpt lat="47.13602" lon="5.61818">
        <ele>441</ele>
        <time>2010-05-07T14:45:57Z</time>
      </trkpt>
      <trkpt lat="47.13594" lon="5.61797">
        <ele>441</ele>
        <time>2010-05-07T14:45:59Z</time>
      </trkpt>
      <trkpt lat="47.13588" lon="5.61774">
        <ele>441</ele>
        <time>2010-05-07T14:46:01Z</time>
      </trkpt>
      <trkpt lat="47.13581" lon="5.61754">
        <ele>441</ele>
        <time>2010-05-07T14:46:03Z</time>
      </trkpt>
      <trkpt lat="47.13577" lon="5.61736">
        <ele>441</ele>
        <time>2010-05-07T14:46:05Z</time>
      </trkpt>
      <trkpt lat="47.13577" lon="5.61714">
        <ele>441</ele>
        <time>2010-05-07T14:46:07Z</time>
      </trkpt>
      <trkpt lat="47.13574" lon="5.61685">
        <ele>447</ele>
        <time>2010-05-07T14:46:10Z</time>
      </trkpt>
      <trkpt lat="47.13566" lon="5.61678">
        <ele>447</ele>
        <time>2010-05-07T14:46:11Z</time>
      </trkpt>
      <trkpt lat="47.13564" lon="5.61657">
        <ele>447</ele>
        <time>2010-05-07T14:46:13Z</time>
      </trkpt>
      <trkpt lat="47.13561" lon="5.61635">
        <ele>447</ele>
        <time>2010-05-07T14:46:15Z</time>
      </trkpt>
      <trkpt lat="47.13555" lon="5.61613">
        <ele>447</ele>
        <time>2010-05-07T14:46:17Z</time>
      </trkpt>
      <trkpt lat="47.1355" lon="5.61591">
        <ele>447</ele>
        <time>2010-05-07T14:46:19Z</time>
      </trkpt>
      <trkpt lat="47.13547" lon="5.61569">
        <ele>447</ele>
        <time>2010-05-07T14:46:21Z</time>
      </trkpt>
      <trkpt lat="47.13541" lon="5.61553">
        <ele>447</ele>
        <time>2010-05-07T14:46:23Z</time>
      </trkpt>
      <trkpt lat="47.13534" lon="5.61537">
        <ele>447</ele>
        <time>2010-05-07T14:46:25Z</time>
      </trkpt>
      <trkpt lat="47.13527" lon="5.61518">
        <ele>447</ele>
        <time>2010-05-07T14:46:27Z</time>
      </trkpt>
      <trkpt lat="47.1352" lon="5.61498">
        <ele>447</ele>
        <time>2010-05-07T14:46:29Z</time>
      </trkpt>
      <trkpt lat="47.13514" lon="5.61478">
        <ele>447</ele>
        <time>2010-05-07T14:46:31Z</time>
      </trkpt>
      <trkpt lat="47.13507" lon="5.61459">
        <ele>447</ele>
        <time>2010-05-07T14:46:33Z</time>
      </trkpt>
      <trkpt lat="47.13501" lon="5.61438">
        <ele>447</ele>
        <time>2010-05-07T14:46:35Z</time>
      </trkpt>
      <trkpt lat="47.13493" lon="5.61421">
        <ele>447</ele>
        <time>2010-05-07T14:46:37Z</time>
      </trkpt>
      <trkpt lat="47.13485" lon="5.614">
        <ele>447</ele>
        <time>2010-05-07T14:46:39Z</time>
      </trkpt>
      <trkpt lat="47.13477" lon="5.61382">
        <ele>447</ele>
        <time>2010-05-07T14:46:41Z</time>
      </trkpt>
      <trkpt lat="47.13471" lon="5.61361">
        <ele>447</ele>
        <time>2010-05-07T14:46:43Z</time>
      </trkpt>
      <trkpt lat="47.13458" lon="5.61334">
        <ele>447</ele>
        <time>2010-05-07T14:46:46Z</time>
      </trkpt>
      <trkpt lat="47.13449" lon="5.61315">
        <ele>447</ele>
        <time>2010-05-07T14:46:48Z</time>
      </trkpt>
      <trkpt lat="47.13438" lon="5.61299">
        <ele>447</ele>
        <time>2010-05-07T14:46:50Z</time>
      </trkpt>
      <trkpt lat="47.13428" lon="5.61279">
        <ele>447</ele>
        <time>2010-05-07T14:46:52Z</time>
      </trkpt>
      <trkpt lat="47.13419" lon="5.61261">
        <ele>442</ele>
        <time>2010-05-07T14:46:54Z</time>
      </trkpt>
      <trkpt lat="47.1341" lon="5.61244">
        <ele>442</ele>
        <time>2010-05-07T14:46:56Z</time>
      </trkpt>
      <trkpt lat="47.13401" lon="5.61226">
        <ele>442</ele>
        <time>2010-05-07T14:46:58Z</time>
      </trkpt>
      <trkpt lat="47.13391" lon="5.6121">
        <ele>442</ele>
        <time>2010-05-07T14:47:00Z</time>
      </trkpt>
      <trkpt lat="47.13382" lon="5.61192">
        <ele>442</ele>
        <time>2010-05-07T14:47:02Z</time>
      </trkpt>
      <trkpt lat="47.13372" lon="5.61173">
        <ele>442</ele>
        <time>2010-05-07T14:47:04Z</time>
      </trkpt>
      <trkpt lat="47.13361" lon="5.61155">
        <ele>442</ele>
        <time>2010-05-07T14:47:06Z</time>
      </trkpt>
      <trkpt lat="47.13352" lon="5.61136">
        <ele>442</ele>
        <time>2010-05-07T14:47:08Z</time>
      </trkpt>
      <trkpt lat="47.13342" lon="5.61117">
        <ele>442</ele>
        <time>2010-05-07T14:47:10Z</time>
      </trkpt>
      <trkpt lat="47.13336" lon="5.61097">
        <ele>442</ele>
        <time>2010-05-07T14:47:12Z</time>
      </trkpt>
      <trkpt lat="47.13326" lon="5.61079">
        <ele>442</ele>
        <time>2010-05-07T14:47:14Z</time>
      </trkpt>
      <trkpt lat="47.1332" lon="5.61056">
        <ele>442</ele>
        <time>2010-05-07T14:47:16Z</time>
      </trkpt>
      <trkpt lat="47.13314" lon="5.61036">
        <ele>442</ele>
        <time>2010-05-07T14:47:18Z</time>
      </trkpt>
      <trkpt lat="47.13304" lon="5.61018">
        <ele>442</ele>
        <time>2010-05-07T14:47:20Z</time>
      </trkpt>
      <trkpt lat="47.1329" lon="5.61003">
        <ele>436</ele>
        <time>2010-05-07T14:47:22Z</time>
      </trkpt>
      <trkpt lat="47.1328" lon="5.60996">
        <ele>436</ele>
        <time>2010-05-07T14:47:23Z</time>
      </trkpt>
      <trkpt lat="47.13271" lon="5.6098">
        <ele>436</ele>
        <time>2010-05-07T14:47:25Z</time>
      </trkpt>
      <trkpt lat="47.1326" lon="5.60963">
        <ele>436</ele>
        <time>2010-05-07T14:47:27Z</time>
      </trkpt>
      <trkpt lat="47.13254" lon="5.60944">
        <ele>436</ele>
        <time>2010-05-07T14:47:29Z</time>
      </trkpt>
      <trkpt lat="47.13246" lon="5.60927">
        <ele>436</ele>
        <time>2010-05-07T14:47:31Z</time>
      </trkpt>
      <trkpt lat="47.1324" lon="5.60906">
        <ele>436</ele>
        <time>2010-05-07T14:47:33Z</time>
      </trkpt>
      <trkpt lat="47.13237" lon="5.60886">
        <ele>436</ele>
        <time>2010-05-07T14:47:35Z</time>
      </trkpt>
      <trkpt lat="47.1323" lon="5.60877">
        <ele>436</ele>
        <time>2010-05-07T14:47:36Z</time>
      </trkpt>
      <trkpt lat="47.1322" lon="5.60859">
        <ele>436</ele>
        <time>2010-05-07T14:47:38Z</time>
      </trkpt>
      <trkpt lat="47.1321" lon="5.60839">
        <ele>436</ele>
        <time>2010-05-07T14:47:40Z</time>
      </trkpt>
      <trkpt lat="47.13202" lon="5.60822">
        <ele>436</ele>
        <time>2010-05-07T14:47:42Z</time>
      </trkpt>
      <trkpt lat="47.13195" lon="5.60802">
        <ele>436</ele>
        <time>2010-05-07T14:47:44Z</time>
      </trkpt>
      <trkpt lat="47.1319" lon="5.60782">
        <ele>436</ele>
        <time>2010-05-07T14:47:46Z</time>
      </trkpt>
      <trkpt lat="47.13184" lon="5.60763">
        <ele>436</ele>
        <time>2010-05-07T14:47:48Z</time>
      </trkpt>
      <trkpt lat="47.13176" lon="5.60744">
        <ele>436</ele>
        <time>2010-05-07T14:47:50Z</time>
      </trkpt>
      <trkpt lat="47.13163" lon="5.60714">
        <ele>436</ele>
        <time>2010-05-07T14:47:53Z</time>
      </trkpt>
      <trkpt lat="47.13158" lon="5.60702">
        <ele>436</ele>
        <time>2010-05-07T14:47:54Z</time>
      </trkpt>
      <trkpt lat="47.13152" lon="5.60682">
        <ele>436</ele>
        <time>2010-05-07T14:47:56Z</time>
      </trkpt>
      <trkpt lat="47.13141" lon="5.60663">
        <ele>436</ele>
        <time>2010-05-07T14:47:58Z</time>
      </trkpt>
      <trkpt lat="47.13135" lon="5.60643">
        <ele>436</ele>
        <time>2010-05-07T14:48:00Z</time>
      </trkpt>
      <trkpt lat="47.13122" lon="5.60616">
        <ele>436</ele>
        <time>2010-05-07T14:48:03Z</time>
      </trkpt>
      <trkpt lat="47.13112" lon="5.60598">
        <ele>436</ele>
        <time>2010-05-07T14:48:05Z</time>
      </trkpt>
      <trkpt lat="47.13106" lon="5.60579">
        <ele>430</ele>
        <time>2010-05-07T14:48:07Z</time>
      </trkpt>
      <trkpt lat="47.13095" lon="5.60563">
        <ele>430</ele>
        <time>2010-05-07T14:48:09Z</time>
      </trkpt>
      <trkpt lat="47.13087" lon="5.60543">
        <ele>430</ele>
        <time>2010-05-07T14:48:11Z</time>
      </trkpt>
      <trkpt lat="47.13079" lon="5.60528">
        <ele>430</ele>
        <time>2010-05-07T14:48:13Z</time>
      </trkpt>
      <trkpt lat="47.13073" lon="5.60512">
        <ele>430</ele>
        <time>2010-05-07T14:48:15Z</time>
      </trkpt>
      <trkpt lat="47.13067" lon="5.60499">
        <ele>430</ele>
        <time>2010-05-07T14:48:17Z</time>
      </trkpt>
      <trkpt lat="47.13059" lon="5.60491">
        <ele>430</ele>
        <time>2010-05-07T14:48:19Z</time>
      </trkpt>
      <trkpt lat="47.13052" lon="5.60482">
        <ele>430</ele>
        <time>2010-05-07T14:48:21Z</time>
      </trkpt>
      <trkpt lat="47.13044" lon="5.60472">
        <ele>430</ele>
        <time>2010-05-07T14:48:23Z</time>
      </trkpt>
      <trkpt lat="47.13035" lon="5.6046">
        <ele>430</ele>
        <time>2010-05-07T14:48:25Z</time>
      </trkpt>
      <trkpt lat="47.13026" lon="5.60446">
        <ele>430</ele>
        <time>2010-05-07T14:48:27Z</time>
      </trkpt>
      <trkpt lat="47.13019" lon="5.6043">
        <ele>430</ele>
        <time>2010-05-07T14:48:29Z</time>
      </trkpt>
      <trkpt lat="47.13008" lon="5.60417">
        <ele>425</ele>
        <time>2010-05-07T14:48:31Z</time>
      </trkpt>
      <trkpt lat="47.12997" lon="5.60403">
        <ele>425</ele>
        <time>2010-05-07T14:48:33Z</time>
      </trkpt>
      <trkpt lat="47.12985" lon="5.60392">
        <ele>425</ele>
        <time>2010-05-07T14:48:35Z</time>
      </trkpt>
      <trkpt lat="47.12975" lon="5.60381">
        <ele>425</ele>
        <time>2010-05-07T14:48:37Z</time>
      </trkpt>
      <trkpt lat="47.12964" lon="5.60375">
        <ele>425</ele>
        <time>2010-05-07T14:48:39Z</time>
      </trkpt>
      <trkpt lat="47.12944" lon="5.60374">
        <ele>425</ele>
        <time>2010-05-07T14:48:43Z</time>
      </trkpt>
      <trkpt lat="47.12934" lon="5.60375">
        <ele>425</ele>
        <time>2010-05-07T14:48:45Z</time>
      </trkpt>
      <trkpt lat="47.12924" lon="5.60378">
        <ele>425</ele>
        <time>2010-05-07T14:48:47Z</time>
      </trkpt>
      <trkpt lat="47.12913" lon="5.60375">
        <ele>425</ele>
        <time>2010-05-07T14:48:49Z</time>
      </trkpt>
      <trkpt lat="47.12905" lon="5.60366">
        <ele>425</ele>
        <time>2010-05-07T14:48:51Z</time>
      </trkpt>
      <trkpt lat="47.12899" lon="5.60354">
        <ele>425</ele>
        <time>2010-05-07T14:48:53Z</time>
      </trkpt>
      <trkpt lat="47.12895" lon="5.60339">
        <ele>425</ele>
        <time>2010-05-07T14:48:55Z</time>
      </trkpt>
      <trkpt lat="47.12894" lon="5.60319">
        <ele>425</ele>
        <time>2010-05-07T14:48:57Z</time>
      </trkpt>
      <trkpt lat="47.12892" lon="5.603">
        <ele>425</ele>
        <time>2010-05-07T14:48:59Z</time>
      </trkpt>
      <trkpt lat="47.12891" lon="5.60284">
        <ele>425</ele>
        <time>2010-05-07T14:49:01Z</time>
      </trkpt>
      <trkpt lat="47.12891" lon="5.60268">
        <ele>425</ele>
        <time>2010-05-07T14:49:03Z</time>
      </trkpt>
      <trkpt lat="47.12891" lon="5.60251">
        <ele>425</ele>
        <time>2010-05-07T14:49:05Z</time>
      </trkpt>
      <trkpt lat="47.12892" lon="5.60233">
        <ele>425</ele>
        <time>2010-05-07T14:49:07Z</time>
      </trkpt>
      <trkpt lat="47.12879" lon="5.60221">
        <ele>407</ele>
        <time>2010-05-07T14:49:08Z</time>
      </trkpt>
      <trkpt lat="47.12879" lon="5.60202">
        <ele>407</ele>
        <time>2010-05-07T14:49:10Z</time>
      </trkpt>
      <trkpt lat="47.12879" lon="5.6018">
        <ele>407</ele>
        <time>2010-05-07T14:49:12Z</time>
      </trkpt>
      <trkpt lat="47.12879" lon="5.60159">
        <ele>407</ele>
        <time>2010-05-07T14:49:14Z</time>
      </trkpt>
      <trkpt lat="47.12881" lon="5.60136">
        <ele>407</ele>
        <time>2010-05-07T14:49:16Z</time>
      </trkpt>
      <trkpt lat="47.12888" lon="5.60112">
        <ele>407</ele>
        <time>2010-05-07T14:49:18Z</time>
      </trkpt>
      <trkpt lat="47.12892" lon="5.60086">
        <ele>407</ele>
        <time>2010-05-07T14:49:20Z</time>
      </trkpt>
      <trkpt lat="47.12823" lon="5.60059">
        <ele>338</ele>
        <time>2010-05-07T14:49:21Z</time>
      </trkpt>
      <trkpt lat="47.12823" lon="5.60034">
        <ele>338</ele>
        <time>2010-05-07T14:49:23Z</time>
      </trkpt>
      <trkpt lat="47.12825" lon="5.60021">
        <ele>338</ele>
        <time>2010-05-07T14:49:24Z</time>
      </trkpt>
      <trkpt lat="47.12827" lon="5.59998">
        <ele>338</ele>
        <time>2010-05-07T14:49:26Z</time>
      </trkpt>
      <trkpt lat="47.12826" lon="5.59975">
        <ele>338</ele>
        <time>2010-05-07T14:49:28Z</time>
      </trkpt>
      <trkpt lat="47.128" lon="5.59949">
        <ele>315</ele>
        <time>2010-05-07T14:49:30Z</time>
      </trkpt>
      <trkpt lat="47.12786" lon="5.59924">
        <ele>298</ele>
        <time>2010-05-07T14:49:32Z</time>
      </trkpt>
      <trkpt lat="47.12775" lon="5.59899">
        <ele>284</ele>
        <time>2010-05-07T14:49:34Z</time>
      </trkpt>
      <trkpt lat="47.12765" lon="5.59874">
        <ele>268</ele>
        <time>2010-05-07T14:49:36Z</time>
      </trkpt>
      <trkpt lat="47.12761" lon="5.59861">
        <ele>261</ele>
        <time>2010-05-07T14:49:37Z</time>
      </trkpt>
      <trkpt lat="47.12757" lon="5.59848">
        <ele>253</ele>
        <time>2010-05-07T14:49:38Z</time>
      </trkpt>
      <trkpt lat="47.12754" lon="5.59836">
        <ele>253</ele>
        <time>2010-05-07T14:49:39Z</time>
      </trkpt>
      <trkpt lat="47.12751" lon="5.59823">
        <ele>242</ele>
        <time>2010-05-07T14:49:40Z</time>
      </trkpt>
      <trkpt lat="47.1275" lon="5.59809">
        <ele>242</ele>
        <time>2010-05-07T14:49:41Z</time>
      </trkpt>
      <trkpt lat="47.12748" lon="5.59796">
        <ele>233</ele>
        <time>2010-05-07T14:49:42Z</time>
      </trkpt>
      <trkpt lat="47.12748" lon="5.59782">
        <ele>233</ele>
        <time>2010-05-07T14:49:43Z</time>
      </trkpt>
      <trkpt lat="47.12748" lon="5.59768">
        <ele>223</ele>
        <time>2010-05-07T14:49:44Z</time>
      </trkpt>
      <trkpt lat="47.12746" lon="5.59754">
        <ele>217</ele>
        <time>2010-05-07T14:49:45Z</time>
      </trkpt>
      <trkpt lat="47.12747" lon="5.59729">
        <ele>211</ele>
        <time>2010-05-07T14:49:47Z</time>
      </trkpt>
      <trkpt lat="47.12743" lon="5.59705">
        <ele>202</ele>
        <time>2010-05-07T14:49:49Z</time>
      </trkpt>
      <trkpt lat="47.12735" lon="5.59683">
        <ele>202</ele>
        <time>2010-05-07T14:49:51Z</time>
      </trkpt>
      <trkpt lat="47.12732" lon="5.59659">
        <ele>197</ele>
        <time>2010-05-07T14:49:53Z</time>
      </trkpt>
      <trkpt lat="47.1273" lon="5.59639">
        <ele>197</ele>
        <time>2010-05-07T14:49:55Z</time>
      </trkpt>
      <trkpt lat="47.12729" lon="5.59618">
        <ele>197</ele>
        <time>2010-05-07T14:49:57Z</time>
      </trkpt>
      <trkpt lat="47.12728" lon="5.59596">
        <ele>197</ele>
        <time>2010-05-07T14:49:59Z</time>
      </trkpt>
      <trkpt lat="47.12727" lon="5.59573">
        <ele>197</ele>
        <time>2010-05-07T14:50:01Z</time>
      </trkpt>
      <trkpt lat="47.12726" lon="5.59551">
        <ele>197</ele>
        <time>2010-05-07T14:50:03Z</time>
      </trkpt>
      <trkpt lat="47.12726" lon="5.59527">
        <ele>197</ele>
        <time>2010-05-07T14:50:05Z</time>
      </trkpt>
      <trkpt lat="47.12724" lon="5.59505">
        <ele>203</ele>
        <time>2010-05-07T14:50:07Z</time>
      </trkpt>
      <trkpt lat="47.12724" lon="5.59482">
        <ele>203</ele>
        <time>2010-05-07T14:50:09Z</time>
      </trkpt>
      <trkpt lat="47.12724" lon="5.59459">
        <ele>203</ele>
        <time>2010-05-07T14:50:11Z</time>
      </trkpt>
      <trkpt lat="47.12723" lon="5.59438">
        <ele>203</ele>
        <time>2010-05-07T14:50:13Z</time>
      </trkpt>
      <trkpt lat="47.12723" lon="5.59415">
        <ele>203</ele>
        <time>2010-05-07T14:50:15Z</time>
      </trkpt>
      <trkpt lat="47.12721" lon="5.59394">
        <ele>209</ele>
        <time>2010-05-07T14:50:17Z</time>
      </trkpt>
      <trkpt lat="47.1272" lon="5.5937">
        <ele>209</ele>
        <time>2010-05-07T14:50:19Z</time>
      </trkpt>
      <trkpt lat="47.1272" lon="5.59347">
        <ele>209</ele>
        <time>2010-05-07T14:50:21Z</time>
      </trkpt>
      <trkpt lat="47.1272" lon="5.59324">
        <ele>209</ele>
        <time>2010-05-07T14:50:23Z</time>
      </trkpt>
      <trkpt lat="47.1272" lon="5.59302">
        <ele>209</ele>
        <time>2010-05-07T14:50:25Z</time>
      </trkpt>
      <trkpt lat="47.12719" lon="5.59279">
        <ele>209</ele>
        <time>2010-05-07T14:50:27Z</time>
      </trkpt>
      <trkpt lat="47.12719" lon="5.59256">
        <ele>209</ele>
        <time>2010-05-07T14:50:29Z</time>
      </trkpt>
      <trkpt lat="47.12719" lon="5.59233">
        <ele>209</ele>
        <time>2010-05-07T14:50:31Z</time>
      </trkpt>
      <trkpt lat="47.12718" lon="5.5921">
        <ele>209</ele>
        <time>2010-05-07T14:50:33Z</time>
      </trkpt>
      <trkpt lat="47.12718" lon="5.59188">
        <ele>209</ele>
        <time>2010-05-07T14:50:35Z</time>
      </trkpt>
      <trkpt lat="47.12716" lon="5.59164">
        <ele>209</ele>
        <time>2010-05-07T14:50:37Z</time>
      </trkpt>
      <trkpt lat="47.12715" lon="5.59143">
        <ele>209</ele>
        <time>2010-05-07T14:50:39Z</time>
      </trkpt>
      <trkpt lat="47.12713" lon="5.59121">
        <ele>209</ele>
        <time>2010-05-07T14:50:41Z</time>
      </trkpt>
      <trkpt lat="47.1271" lon="5.59099">
        <ele>209</ele>
        <time>2010-05-07T14:50:43Z</time>
      </trkpt>
      <trkpt lat="47.12705" lon="5.59076">
        <ele>209</ele>
        <time>2010-05-07T14:50:45Z</time>
      </trkpt>
      <trkpt lat="47.12699" lon="5.59056">
        <ele>209</ele>
        <time>2010-05-07T14:50:47Z</time>
      </trkpt>
      <trkpt lat="47.12692" lon="5.59038">
        <ele>209</ele>
        <time>2010-05-07T14:50:49Z</time>
      </trkpt>
      <trkpt lat="47.12682" lon="5.59021">
        <ele>209</ele>
        <time>2010-05-07T14:50:51Z</time>
      </trkpt>
      <trkpt lat="47.12669" lon="5.59007">
        <ele>209</ele>
        <time>2010-05-07T14:50:53Z</time>
      </trkpt>
      <trkpt lat="47.12656" lon="5.58994">
        <ele>209</ele>
        <time>2010-05-07T14:50:55Z</time>
      </trkpt>
      <trkpt lat="47.12644" lon="5.5898">
        <ele>209</ele>
        <time>2010-05-07T14:50:57Z</time>
      </trkpt>
      <trkpt lat="47.1263" lon="5.58966">
        <ele>209</ele>
        <time>2010-05-07T14:50:59Z</time>
      </trkpt>
      <trkpt lat="47.12619" lon="5.5895">
        <ele>209</ele>
        <time>2010-05-07T14:51:01Z</time>
      </trkpt>
      <trkpt lat="47.12609" lon="5.58932">
        <ele>209</ele>
        <time>2010-05-07T14:51:03Z</time>
      </trkpt>
      <trkpt lat="47.12599" lon="5.58915">
        <ele>209</ele>
        <time>2010-05-07T14:51:05Z</time>
      </trkpt>
      <trkpt lat="47.12592" lon="5.58895">
        <ele>209</ele>
        <time>2010-05-07T14:51:07Z</time>
      </trkpt>
      <trkpt lat="47.12586" lon="5.58874">
        <ele>209</ele>
        <time>2010-05-07T14:51:09Z</time>
      </trkpt>
      <trkpt lat="47.12579" lon="5.58853">
        <ele>209</ele>
        <time>2010-05-07T14:51:11Z</time>
      </trkpt>
      <trkpt lat="47.12573" lon="5.5883">
        <ele>209</ele>
        <time>2010-05-07T14:51:13Z</time>
      </trkpt>
      <trkpt lat="47.1257" lon="5.58807">
        <ele>209</ele>
        <time>2010-05-07T14:51:15Z</time>
      </trkpt>
      <trkpt lat="47.12567" lon="5.58784">
        <ele>209</ele>
        <time>2010-05-07T14:51:17Z</time>
      </trkpt>
      <trkpt lat="47.12565" lon="5.58762">
        <ele>209</ele>
        <time>2010-05-07T14:51:19Z</time>
      </trkpt>
      <trkpt lat="47.12564" lon="5.5874">
        <ele>209</ele>
        <time>2010-05-07T14:51:21Z</time>
      </trkpt>
      <trkpt lat="47.12563" lon="5.58718">
        <ele>209</ele>
        <time>2010-05-07T14:51:23Z</time>
      </trkpt>
      <trkpt lat="47.12561" lon="5.58696">
        <ele>209</ele>
        <time>2010-05-07T14:51:25Z</time>
      </trkpt>
      <trkpt lat="47.12558" lon="5.58675">
        <ele>209</ele>
        <time>2010-05-07T14:51:27Z</time>
      </trkpt>
      <trkpt lat="47.12554" lon="5.58654">
        <ele>209</ele>
        <time>2010-05-07T14:51:29Z</time>
      </trkpt>
      <trkpt lat="47.1255" lon="5.58634">
        <ele>209</ele>
        <time>2010-05-07T14:51:31Z</time>
      </trkpt>
      <trkpt lat="47.12549" lon="5.58612">
        <ele>209</ele>
        <time>2010-05-07T14:51:33Z</time>
      </trkpt>
      <trkpt lat="47.12548" lon="5.5859">
        <ele>214</ele>
        <time>2010-05-07T14:51:35Z</time>
      </trkpt>
      <trkpt lat="47.1255" lon="5.58568">
        <ele>214</ele>
        <time>2010-05-07T14:51:37Z</time>
      </trkpt>
      <trkpt lat="47.12552" lon="5.58546">
        <ele>214</ele>
        <time>2010-05-07T14:51:39Z</time>
      </trkpt>
      <trkpt lat="47.12555" lon="5.58524">
        <ele>214</ele>
        <time>2010-05-07T14:51:41Z</time>
      </trkpt>
      <trkpt lat="47.12559" lon="5.58502">
        <ele>214</ele>
        <time>2010-05-07T14:51:43Z</time>
      </trkpt>
      <trkpt lat="47.12565" lon="5.58481">
        <ele>214</ele>
        <time>2010-05-07T14:51:45Z</time>
      </trkpt>
      <trkpt lat="47.12569" lon="5.5846">
        <ele>214</ele>
        <time>2010-05-07T14:51:47Z</time>
      </trkpt>
      <trkpt lat="47.12575" lon="5.5844">
        <ele>214</ele>
        <time>2010-05-07T14:51:49Z</time>
      </trkpt>
      <trkpt lat="47.1258" lon="5.5842">
        <ele>214</ele>
        <time>2010-05-07T14:51:51Z</time>
      </trkpt>
      <trkpt lat="47.12585" lon="5.58398">
        <ele>214</ele>
        <time>2010-05-07T14:51:53Z</time>
      </trkpt>
      <trkpt lat="47.12587" lon="5.58375">
        <ele>214</ele>
        <time>2010-05-07T14:51:55Z</time>
      </trkpt>
      <trkpt lat="47.12588" lon="5.58356">
        <ele>214</ele>
        <time>2010-05-07T14:51:57Z</time>
      </trkpt>
      <trkpt lat="47.12588" lon="5.58334">
        <ele>214</ele>
        <time>2010-05-07T14:51:59Z</time>
      </trkpt>
      <trkpt lat="47.12585" lon="5.58311">
        <ele>214</ele>
        <time>2010-05-07T14:52:01Z</time>
      </trkpt>
      <trkpt lat="47.12583" lon="5.5829">
        <ele>214</ele>
        <time>2010-05-07T14:52:03Z</time>
      </trkpt>
      <trkpt lat="47.12582" lon="5.58266">
        <ele>214</ele>
        <time>2010-05-07T14:52:05Z</time>
      </trkpt>
      <trkpt lat="47.12579" lon="5.58246">
        <ele>214</ele>
        <time>2010-05-07T14:52:07Z</time>
      </trkpt>
      <trkpt lat="47.12576" lon="5.58225">
        <ele>214</ele>
        <time>2010-05-07T14:52:09Z</time>
      </trkpt>
      <trkpt lat="47.12574" lon="5.58204">
        <ele>214</ele>
        <time>2010-05-07T14:52:11Z</time>
      </trkpt>
      <trkpt lat="47.12571" lon="5.58184">
        <ele>214</ele>
        <time>2010-05-07T14:52:13Z</time>
      </trkpt>
      <trkpt lat="47.12566" lon="5.58165">
        <ele>214</ele>
        <time>2010-05-07T14:52:15Z</time>
      </trkpt>
      <trkpt lat="47.12563" lon="5.58143">
        <ele>214</ele>
        <time>2010-05-07T14:52:17Z</time>
      </trkpt>
      <trkpt lat="47.12559" lon="5.58124">
        <ele>214</ele>
        <time>2010-05-07T14:52:19Z</time>
      </trkpt>
      <trkpt lat="47.12556" lon="5.58104">
        <ele>214</ele>
        <time>2010-05-07T14:52:21Z</time>
      </trkpt>
      <trkpt lat="47.12552" lon="5.58085">
        <ele>214</ele>
        <time>2010-05-07T14:52:23Z</time>
      </trkpt>
      <trkpt lat="47.12548" lon="5.58066">
        <ele>214</ele>
        <time>2010-05-07T14:52:25Z</time>
      </trkpt>
      <trkpt lat="47.12543" lon="5.58048">
        <ele>214</ele>
        <time>2010-05-07T14:52:27Z</time>
      </trkpt>
      <trkpt lat="47.12539" lon="5.58028">
        <ele>214</ele>
        <time>2010-05-07T14:52:29Z</time>
      </trkpt>
      <trkpt lat="47.12536" lon="5.58007">
        <ele>214</ele>
        <time>2010-05-07T14:52:31Z</time>
      </trkpt>
      <trkpt lat="47.12533" lon="5.57987">
        <ele>214</ele>
        <time>2010-05-07T14:52:33Z</time>
      </trkpt>
      <trkpt lat="47.1253" lon="5.57966">
        <ele>214</ele>
        <time>2010-05-07T14:52:35Z</time>
      </trkpt>
      <trkpt lat="47.12526" lon="5.57947">
        <ele>214</ele>
        <time>2010-05-07T14:52:37Z</time>
      </trkpt>
      <trkpt lat="47.12523" lon="5.57927">
        <ele>214</ele>
        <time>2010-05-07T14:52:39Z</time>
      </trkpt>
      <trkpt lat="47.1252" lon="5.57906">
        <ele>214</ele>
        <time>2010-05-07T14:52:41Z</time>
      </trkpt>
      <trkpt lat="47.12518" lon="5.57886">
        <ele>214</ele>
        <time>2010-05-07T14:52:43Z</time>
      </trkpt>
      <trkpt lat="47.12514" lon="5.57866">
        <ele>214</ele>
        <time>2010-05-07T14:52:45Z</time>
      </trkpt>
      <trkpt lat="47.12509" lon="5.57846">
        <ele>214</ele>
        <time>2010-05-07T14:52:47Z</time>
      </trkpt>
      <trkpt lat="47.12505" lon="5.57826">
        <ele>214</ele>
        <time>2010-05-07T14:52:49Z</time>
      </trkpt>
      <trkpt lat="47.12502" lon="5.57804">
        <ele>214</ele>
        <time>2010-05-07T14:52:51Z</time>
      </trkpt>
      <trkpt lat="47.12498" lon="5.57783">
        <ele>214</ele>
        <time>2010-05-07T14:52:53Z</time>
      </trkpt>
      <trkpt lat="47.12495" lon="5.5776">
        <ele>214</ele>
        <time>2010-05-07T14:52:55Z</time>
      </trkpt>
      <trkpt lat="47.1249" lon="5.57739">
        <ele>214</ele>
        <time>2010-05-07T14:52:57Z</time>
      </trkpt>
      <trkpt lat="47.12487" lon="5.57718">
        <ele>214</ele>
        <time>2010-05-07T14:52:59Z</time>
      </trkpt>
      <trkpt lat="47.12482" lon="5.57697">
        <ele>214</ele>
        <time>2010-05-07T14:53:01Z</time>
      </trkpt>
      <trkpt lat="47.12477" lon="5.57676">
        <ele>214</ele>
        <time>2010-05-07T14:53:03Z</time>
      </trkpt>
      <trkpt lat="47.12472" lon="5.57654">
        <ele>214</ele>
        <time>2010-05-07T14:53:05Z</time>
      </trkpt>
      <trkpt lat="47.12468" lon="5.57632">
        <ele>214</ele>
        <time>2010-05-07T14:53:07Z</time>
      </trkpt>
      <trkpt lat="47.12463" lon="5.57611">
        <ele>214</ele>
        <time>2010-05-07T14:53:09Z</time>
      </trkpt>
      <trkpt lat="47.12457" lon="5.57592">
        <ele>214</ele>
        <time>2010-05-07T14:53:11Z</time>
      </trkpt>
      <trkpt lat="47.12452" lon="5.5757">
        <ele>214</ele>
        <time>2010-05-07T14:53:13Z</time>
      </trkpt>
      <trkpt lat="47.12447" lon="5.57548">
        <ele>214</ele>
        <time>2010-05-07T14:53:15Z</time>
      </trkpt>
      <trkpt lat="47.12441" lon="5.57526">
        <ele>214</ele>
        <time>2010-05-07T14:53:17Z</time>
      </trkpt>
      <trkpt lat="47.12435" lon="5.57503">
        <ele>214</ele>
        <time>2010-05-07T14:53:19Z</time>
      </trkpt>
      <trkpt lat="47.1243" lon="5.57481">
        <ele>214</ele>
        <time>2010-05-07T14:53:21Z</time>
      </trkpt>
      <trkpt lat="47.12426" lon="5.57468">
        <ele>214</ele>
        <time>2010-05-07T14:53:22Z</time>
      </trkpt>
      <trkpt lat="47.12422" lon="5.57445">
        <ele>214</ele>
        <time>2010-05-07T14:53:24Z</time>
      </trkpt>
      <trkpt lat="47.12419" lon="5.57433">
        <ele>214</ele>
        <time>2010-05-07T14:53:25Z</time>
      </trkpt>
      <trkpt lat="47.12417" lon="5.5742">
        <ele>214</ele>
        <time>2010-05-07T14:53:26Z</time>
      </trkpt>
      <trkpt lat="47.12411" lon="5.57396">
        <ele>214</ele>
        <time>2010-05-07T14:53:28Z</time>
      </trkpt>
      <trkpt lat="47.12409" lon="5.57383">
        <ele>214</ele>
        <time>2010-05-07T14:53:29Z</time>
      </trkpt>
      <trkpt lat="47.12406" lon="5.57371">
        <ele>214</ele>
        <time>2010-05-07T14:53:30Z</time>
      </trkpt>
      <trkpt lat="47.12404" lon="5.57358">
        <ele>214</ele>
        <time>2010-05-07T14:53:31Z</time>
      </trkpt>
      <trkpt lat="47.12399" lon="5.57333">
        <ele>214</ele>
        <time>2010-05-07T14:53:33Z</time>
      </trkpt>
      <trkpt lat="47.12397" lon="5.5732">
        <ele>214</ele>
        <time>2010-05-07T14:53:34Z</time>
      </trkpt>
      <trkpt lat="47.12394" lon="5.57308">
        <ele>214</ele>
        <time>2010-05-07T14:53:35Z</time>
      </trkpt>
      <trkpt lat="47.12392" lon="5.57295">
        <ele>214</ele>
        <time>2010-05-07T14:53:36Z</time>
      </trkpt>
      <trkpt lat="47.12389" lon="5.57283">
        <ele>214</ele>
        <time>2010-05-07T14:53:37Z</time>
      </trkpt>
      <trkpt lat="47.12387" lon="5.57269">
        <ele>214</ele>
        <time>2010-05-07T14:53:38Z</time>
      </trkpt>
      <trkpt lat="47.12384" lon="5.57256">
        <ele>214</ele>
        <time>2010-05-07T14:53:39Z</time>
      </trkpt>
      <trkpt lat="47.12382" lon="5.57244">
        <ele>214</ele>
        <time>2010-05-07T14:53:40Z</time>
      </trkpt>
      <trkpt lat="47.12379" lon="5.5723">
        <ele>214</ele>
        <time>2010-05-07T14:53:41Z</time>
      </trkpt>
      <trkpt lat="47.12376" lon="5.57218">
        <ele>214</ele>
        <time>2010-05-07T14:53:42Z</time>
      </trkpt>
      <trkpt lat="47.12372" lon="5.57205">
        <ele>214</ele>
        <time>2010-05-07T14:53:43Z</time>
      </trkpt>
      <trkpt lat="47.1237" lon="5.57193">
        <ele>214</ele>
        <time>2010-05-07T14:53:44Z</time>
      </trkpt>
      <trkpt lat="47.12365" lon="5.57169">
        <ele>214</ele>
        <time>2010-05-07T14:53:46Z</time>
      </trkpt>
      <trkpt lat="47.12361" lon="5.57157">
        <ele>214</ele>
        <time>2010-05-07T14:53:47Z</time>
      </trkpt>
      <trkpt lat="47.12357" lon="5.57132">
        <ele>209</ele>
        <time>2010-05-07T14:53:49Z</time>
      </trkpt>
      <trkpt lat="47.12352" lon="5.57109">
        <ele>209</ele>
        <time>2010-05-07T14:53:51Z</time>
      </trkpt>
      <trkpt lat="47.12348" lon="5.57086">
        <ele>209</ele>
        <time>2010-05-07T14:53:53Z</time>
      </trkpt>
      <trkpt lat="47.12344" lon="5.57063">
        <ele>209</ele>
        <time>2010-05-07T14:53:55Z</time>
      </trkpt>
      <trkpt lat="47.12341" lon="5.57041">
        <ele>209</ele>
        <time>2010-05-07T14:53:57Z</time>
      </trkpt>
      <trkpt lat="47.12336" lon="5.57018">
        <ele>203</ele>
        <time>2010-05-07T14:53:59Z</time>
      </trkpt>
      <trkpt lat="47.12333" lon="5.56996">
        <ele>203</ele>
        <time>2010-05-07T14:54:01Z</time>
      </trkpt>
      <trkpt lat="47.12329" lon="5.56973">
        <ele>203</ele>
        <time>2010-05-07T14:54:03Z</time>
      </trkpt>
      <trkpt lat="47.12323" lon="5.56953">
        <ele>203</ele>
        <time>2010-05-07T14:54:05Z</time>
      </trkpt>
      <trkpt lat="47.12318" lon="5.56931">
        <ele>203</ele>
        <time>2010-05-07T14:54:07Z</time>
      </trkpt>
      <trkpt lat="47.12314" lon="5.56909">
        <ele>203</ele>
        <time>2010-05-07T14:54:09Z</time>
      </trkpt>
      <trkpt lat="47.12309" lon="5.56888">
        <ele>203</ele>
        <time>2010-05-07T14:54:11Z</time>
      </trkpt>
      <trkpt lat="47.12305" lon="5.56864">
        <ele>203</ele>
        <time>2010-05-07T14:54:13Z</time>
      </trkpt>
      <trkpt lat="47.12304" lon="5.56841">
        <ele>208</ele>
        <time>2010-05-07T14:54:15Z</time>
      </trkpt>
      <trkpt lat="47.12304" lon="5.56827">
        <ele>208</ele>
        <time>2010-05-07T14:54:16Z</time>
      </trkpt>
      <trkpt lat="47.12303" lon="5.56801">
        <ele>208</ele>
        <time>2010-05-07T14:54:18Z</time>
      </trkpt>
      <trkpt lat="47.12303" lon="5.56776">
        <ele>208</ele>
        <time>2010-05-07T14:54:20Z</time>
      </trkpt>
      <trkpt lat="47.12303" lon="5.5675">
        <ele>208</ele>
        <time>2010-05-07T14:54:22Z</time>
      </trkpt>
      <trkpt lat="47.12304" lon="5.56736">
        <ele>202</ele>
        <time>2010-05-07T14:54:23Z</time>
      </trkpt>
      <trkpt lat="47.12303" lon="5.56713">
        <ele>202</ele>
        <time>2010-05-07T14:54:25Z</time>
      </trkpt>
      <trkpt lat="47.12304" lon="5.56691">
        <ele>202</ele>
        <time>2010-05-07T14:54:27Z</time>
      </trkpt>
      <trkpt lat="47.12305" lon="5.56665">
        <ele>202</ele>
        <time>2010-05-07T14:54:29Z</time>
      </trkpt>
      <trkpt lat="47.12306" lon="5.56641">
        <ele>202</ele>
        <time>2010-05-07T14:54:31Z</time>
      </trkpt>
      <trkpt lat="47.12306" lon="5.5662">
        <ele>202</ele>
        <time>2010-05-07T14:54:33Z</time>
      </trkpt>
      <trkpt lat="47.12308" lon="5.56603">
        <ele>202</ele>
        <time>2010-05-07T14:54:35Z</time>
      </trkpt>
      <trkpt lat="47.12311" lon="5.56588">
        <ele>202</ele>
        <time>2010-05-07T14:54:37Z</time>
      </trkpt>
      <trkpt lat="47.12315" lon="5.56574">
        <ele>202</ele>
        <time>2010-05-07T14:54:39Z</time>
      </trkpt>
      <trkpt lat="47.12322" lon="5.56557">
        <ele>202</ele>
        <time>2010-05-07T14:54:42Z</time>
      </trkpt>
      <trkpt lat="47.12328" lon="5.56545">
        <ele>202</ele>
        <time>2010-05-07T14:54:44Z</time>
      </trkpt>
      <trkpt lat="47.12334" lon="5.56534">
        <ele>202</ele>
        <time>2010-05-07T14:54:46Z</time>
      </trkpt>
      <trkpt lat="47.12342" lon="5.56524">
        <ele>202</ele>
        <time>2010-05-07T14:54:48Z</time>
      </trkpt>
      <trkpt lat="47.12349" lon="5.56514">
        <ele>202</ele>
        <time>2010-05-07T14:54:50Z</time>
      </trkpt>
      <trkpt lat="47.12358" lon="5.56502">
        <ele>202</ele>
        <time>2010-05-07T14:54:52Z</time>
      </trkpt>
      <trkpt lat="47.12365" lon="5.56493">
        <ele>202</ele>
        <time>2010-05-07T14:54:54Z</time>
      </trkpt>
      <trkpt lat="47.12372" lon="5.56483">
        <ele>202</ele>
        <time>2010-05-07T14:54:56Z</time>
      </trkpt>
      <trkpt lat="47.12379" lon="5.56473">
        <ele>202</ele>
        <time>2010-05-07T14:54:58Z</time>
      </trkpt>
      <trkpt lat="47.12386" lon="5.56463">
        <ele>202</ele>
        <time>2010-05-07T14:55:00Z</time>
      </trkpt>
      <trkpt lat="47.12393" lon="5.56453">
        <ele>202</ele>
        <time>2010-05-07T14:55:02Z</time>
      </trkpt>
      <trkpt lat="47.12401" lon="5.56441">
        <ele>202</ele>
        <time>2010-05-07T14:55:04Z</time>
      </trkpt>
      <trkpt lat="47.12409" lon="5.5643">
        <ele>208</ele>
        <time>2010-05-07T14:55:06Z</time>
      </trkpt>
      <trkpt lat="47.12417" lon="5.56418">
        <ele>208</ele>
        <time>2010-05-07T14:55:08Z</time>
      </trkpt>
      <trkpt lat="47.12425" lon="5.56407">
        <ele>208</ele>
        <time>2010-05-07T14:55:10Z</time>
      </trkpt>
      <trkpt lat="47.12432" lon="5.56397">
        <ele>208</ele>
        <time>2010-05-07T14:55:12Z</time>
      </trkpt>
      <trkpt lat="47.12441" lon="5.56383">
        <ele>208</ele>
        <time>2010-05-07T14:55:15Z</time>
      </trkpt>
      <trkpt lat="47.12448" lon="5.5637">
        <ele>213</ele>
        <time>2010-05-07T14:55:17Z</time>
      </trkpt>
      <trkpt lat="47.12453" lon="5.56355">
        <ele>213</ele>
        <time>2010-05-07T14:55:19Z</time>
      </trkpt>
      <trkpt lat="47.12456" lon="5.56342">
        <ele>213</ele>
        <time>2010-05-07T14:55:21Z</time>
      </trkpt>
      <trkpt lat="47.12458" lon="5.56329">
        <ele>213</ele>
        <time>2010-05-07T14:55:23Z</time>
      </trkpt>
      <trkpt lat="47.12463" lon="5.56314">
        <ele>213</ele>
        <time>2010-05-07T14:55:27Z</time>
      </trkpt>
      <trkpt lat="47.12457" lon="5.56303">
        <ele>213</ele>
        <time>2010-05-07T14:55:34Z</time>
      </trkpt>
      <trkpt lat="47.12449" lon="5.56297">
        <ele>213</ele>
        <time>2010-05-07T14:55:37Z</time>
      </trkpt>
      <trkpt lat="47.12441" lon="5.56291">
        <ele>213</ele>
        <time>2010-05-07T14:55:39Z</time>
      </trkpt>
      <trkpt lat="47.12428" lon="5.56284">
        <ele>213</ele>
        <time>2010-05-07T14:55:41Z</time>
      </trkpt>
      <trkpt lat="47.12414" lon="5.56279">
        <ele>213</ele>
        <time>2010-05-07T14:55:43Z</time>
      </trkpt>
      <trkpt lat="47.12403" lon="5.56272">
        <ele>213</ele>
        <time>2010-05-07T14:55:45Z</time>
      </trkpt>
      <trkpt lat="47.12392" lon="5.56266">
        <ele>213</ele>
        <time>2010-05-07T14:55:47Z</time>
      </trkpt>
      <trkpt lat="47.12381" lon="5.56258">
        <ele>213</ele>
        <time>2010-05-07T14:55:49Z</time>
      </trkpt>
      <trkpt lat="47.12369" lon="5.56244">
        <ele>213</ele>
        <time>2010-05-07T14:55:51Z</time>
      </trkpt>
      <trkpt lat="47.1236" lon="5.5623">
        <ele>213</ele>
        <time>2010-05-07T14:55:53Z</time>
      </trkpt>
      <trkpt lat="47.1235" lon="5.56217">
        <ele>213</ele>
        <time>2010-05-07T14:55:55Z</time>
      </trkpt>
      <trkpt lat="47.12341" lon="5.56204">
        <ele>213</ele>
        <time>2010-05-07T14:55:57Z</time>
      </trkpt>
      <trkpt lat="47.12331" lon="5.56192">
        <ele>213</ele>
        <time>2010-05-07T14:55:59Z</time>
      </trkpt>
      <trkpt lat="47.12325" lon="5.56177">
        <ele>208</ele>
        <time>2010-05-07T14:56:01Z</time>
      </trkpt>
      <trkpt lat="47.12317" lon="5.56166">
        <ele>208</ele>
        <time>2010-05-07T14:56:03Z</time>
      </trkpt>
      <trkpt lat="47.12308" lon="5.56158">
        <ele>208</ele>
        <time>2010-05-07T14:56:05Z</time>
      </trkpt>
      <trkpt lat="47.123" lon="5.56148">
        <ele>208</ele>
        <time>2010-05-07T14:56:07Z</time>
      </trkpt>
      <trkpt lat="47.12291" lon="5.5614">
        <ele>208</ele>
        <time>2010-05-07T14:56:09Z</time>
      </trkpt>
      <trkpt lat="47.12282" lon="5.56133">
        <ele>208</ele>
        <time>2010-05-07T14:56:11Z</time>
      </trkpt>
      <trkpt lat="47.12273" lon="5.56122">
        <ele>208</ele>
        <time>2010-05-07T14:56:14Z</time>
      </trkpt>
      <trkpt lat="47.12268" lon="5.56106">
        <ele>208</ele>
        <time>2010-05-07T14:56:16Z</time>
      </trkpt>
      <trkpt lat="47.12263" lon="5.56095">
        <ele>208</ele>
        <time>2010-05-07T14:56:18Z</time>
      </trkpt>
      <trkpt lat="47.12255" lon="5.56087">
        <ele>214</ele>
        <time>2010-05-07T14:56:20Z</time>
      </trkpt>
      <trkpt lat="47.12246" lon="5.56072">
        <ele>214</ele>
        <time>2010-05-07T14:56:22Z</time>
      </trkpt>
      <trkpt lat="47.12236" lon="5.5606">
        <ele>214</ele>
        <time>2010-05-07T14:56:24Z</time>
      </trkpt>
      <trkpt lat="47.12226" lon="5.56046">
        <ele>214</ele>
        <time>2010-05-07T14:56:26Z</time>
      </trkpt>
      <trkpt lat="47.12216" lon="5.56033">
        <ele>214</ele>
        <time>2010-05-07T14:56:28Z</time>
      </trkpt>
      <trkpt lat="47.12206" lon="5.56019">
        <ele>214</ele>
        <time>2010-05-07T14:56:30Z</time>
      </trkpt>
      <trkpt lat="47.12199" lon="5.56002">
        <ele>214</ele>
        <time>2010-05-07T14:56:32Z</time>
      </trkpt>
      <trkpt lat="47.12188" lon="5.55987">
        <ele>214</ele>
        <time>2010-05-07T14:56:34Z</time>
      </trkpt>
      <trkpt lat="47.12178" lon="5.55973">
        <ele>214</ele>
        <time>2010-05-07T14:56:36Z</time>
      </trkpt>
      <trkpt lat="47.12167" lon="5.5596">
        <ele>214</ele>
        <time>2010-05-07T14:56:38Z</time>
      </trkpt>
      <trkpt lat="47.12157" lon="5.55948">
        <ele>214</ele>
        <time>2010-05-07T14:56:40Z</time>
      </trkpt>
      <trkpt lat="47.12146" lon="5.55937">
        <ele>214</ele>
        <time>2010-05-07T14:56:42Z</time>
      </trkpt>
      <trkpt lat="47.12136" lon="5.55927">
        <ele>214</ele>
        <time>2010-05-07T14:56:44Z</time>
      </trkpt>
      <trkpt lat="47.12124" lon="5.55917">
        <ele>214</ele>
        <time>2010-05-07T14:56:46Z</time>
      </trkpt>
      <trkpt lat="47.12113" lon="5.55906">
        <ele>220</ele>
        <time>2010-05-07T14:56:48Z</time>
      </trkpt>
      <trkpt lat="47.12103" lon="5.55891">
        <ele>220</ele>
        <time>2010-05-07T14:56:50Z</time>
      </trkpt>
      <trkpt lat="47.12095" lon="5.55882">
        <ele>220</ele>
        <time>2010-05-07T14:56:52Z</time>
      </trkpt>
      <trkpt lat="47.12086" lon="5.55875">
        <ele>226</ele>
        <time>2010-05-07T14:56:54Z</time>
      </trkpt>
      <trkpt lat="47.12076" lon="5.55868">
        <ele>226</ele>
        <time>2010-05-07T14:56:56Z</time>
      </trkpt>
      <trkpt lat="47.12068" lon="5.55858">
        <ele>226</ele>
        <time>2010-05-07T14:56:58Z</time>
      </trkpt>
      <trkpt lat="47.1206" lon="5.55846">
        <ele>226</ele>
        <time>2010-05-07T14:57:00Z</time>
      </trkpt>
      <trkpt lat="47.12052" lon="5.55834">
        <ele>226</ele>
        <time>2010-05-07T14:57:02Z</time>
      </trkpt>
      <trkpt lat="47.12044" lon="5.55817">
        <ele>226</ele>
        <time>2010-05-07T14:57:04Z</time>
      </trkpt>
      <trkpt lat="47.12036" lon="5.55803">
        <ele>226</ele>
        <time>2010-05-07T14:57:06Z</time>
      </trkpt>
      <trkpt lat="47.12029" lon="5.55789">
        <ele>226</ele>
        <time>2010-05-07T14:57:08Z</time>
      </trkpt>
      <trkpt lat="47.12019" lon="5.55773">
        <ele>226</ele>
        <time>2010-05-07T14:57:10Z</time>
      </trkpt>
      <trkpt lat="47.1201" lon="5.55759">
        <ele>219</ele>
        <time>2010-05-07T14:57:12Z</time>
      </trkpt>
      <trkpt lat="47.12002" lon="5.55745">
        <ele>219</ele>
        <time>2010-05-07T14:57:14Z</time>
      </trkpt>
      <trkpt lat="47.11992" lon="5.55734">
        <ele>219</ele>
        <time>2010-05-07T14:57:16Z</time>
      </trkpt>
      <trkpt lat="47.11982" lon="5.55719">
        <ele>219</ele>
        <time>2010-05-07T14:57:18Z</time>
      </trkpt>
      <trkpt lat="47.11973" lon="5.55707">
        <ele>219</ele>
        <time>2010-05-07T14:57:20Z</time>
      </trkpt>
      <trkpt lat="47.11963" lon="5.55697">
        <ele>219</ele>
        <time>2010-05-07T14:57:22Z</time>
      </trkpt>
      <trkpt lat="47.11953" lon="5.55686">
        <ele>219</ele>
        <time>2010-05-07T14:57:24Z</time>
      </trkpt>
      <trkpt lat="47.11942" lon="5.55677">
        <ele>219</ele>
        <time>2010-05-07T14:57:26Z</time>
      </trkpt>
      <trkpt lat="47.11933" lon="5.55667">
        <ele>219</ele>
        <time>2010-05-07T14:57:28Z</time>
      </trkpt>
      <trkpt lat="47.11924" lon="5.55659">
        <ele>219</ele>
        <time>2010-05-07T14:57:30Z</time>
      </trkpt>
      <trkpt lat="47.11915" lon="5.55649">
        <ele>219</ele>
        <time>2010-05-07T14:57:32Z</time>
      </trkpt>
      <trkpt lat="47.11905" lon="5.55636">
        <ele>225</ele>
        <time>2010-05-07T14:57:34Z</time>
      </trkpt>
      <trkpt lat="47.11894" lon="5.55618">
        <ele>225</ele>
        <time>2010-05-07T14:57:36Z</time>
      </trkpt>
      <trkpt lat="47.11886" lon="5.55597">
        <ele>225</ele>
        <time>2010-05-07T14:57:38Z</time>
      </trkpt>
      <trkpt lat="47.11876" lon="5.55578">
        <ele>225</ele>
        <time>2010-05-07T14:57:40Z</time>
      </trkpt>
      <trkpt lat="47.11866" lon="5.55565">
        <ele>225</ele>
        <time>2010-05-07T14:57:42Z</time>
      </trkpt>
      <trkpt lat="47.11857" lon="5.55556">
        <ele>225</ele>
        <time>2010-05-07T14:57:44Z</time>
      </trkpt>
      <trkpt lat="47.11848" lon="5.55542">
        <ele>225</ele>
        <time>2010-05-07T14:57:46Z</time>
      </trkpt>
      <trkpt lat="47.11838" lon="5.55532">
        <ele>225</ele>
        <time>2010-05-07T14:57:48Z</time>
      </trkpt>
      <trkpt lat="47.11827" lon="5.55523">
        <ele>225</ele>
        <time>2010-05-07T14:57:50Z</time>
      </trkpt>
      <trkpt lat="47.11816" lon="5.55516">
        <ele>225</ele>
        <time>2010-05-07T14:57:52Z</time>
      </trkpt>
      <trkpt lat="47.11805" lon="5.55509">
        <ele>231</ele>
        <time>2010-05-07T14:57:54Z</time>
      </trkpt>
      <trkpt lat="47.11794" lon="5.55497">
        <ele>231</ele>
        <time>2010-05-07T14:57:56Z</time>
      </trkpt>
      <trkpt lat="47.11784" lon="5.55482">
        <ele>231</ele>
        <time>2010-05-07T14:57:58Z</time>
      </trkpt>
      <trkpt lat="47.11773" lon="5.55472">
        <ele>231</ele>
        <time>2010-05-07T14:58:00Z</time>
      </trkpt>
      <trkpt lat="47.11762" lon="5.55463">
        <ele>231</ele>
        <time>2010-05-07T14:58:02Z</time>
      </trkpt>
      <trkpt lat="47.11751" lon="5.55454">
        <ele>231</ele>
        <time>2010-05-07T14:58:04Z</time>
      </trkpt>
      <trkpt lat="47.1174" lon="5.55446">
        <ele>237</ele>
        <time>2010-05-07T14:58:06Z</time>
      </trkpt>
      <trkpt lat="47.11729" lon="5.55436">
        <ele>237</ele>
        <time>2010-05-07T14:58:08Z</time>
      </trkpt>
      <trkpt lat="47.11719" lon="5.55423">
        <ele>237</ele>
        <time>2010-05-07T14:58:10Z</time>
      </trkpt>
      <trkpt lat="47.11709" lon="5.5541">
        <ele>237</ele>
        <time>2010-05-07T14:58:12Z</time>
      </trkpt>
      <trkpt lat="47.11699" lon="5.55398">
        <ele>237</ele>
        <time>2010-05-07T14:58:14Z</time>
      </trkpt>
      <trkpt lat="47.11689" lon="5.55384">
        <ele>237</ele>
        <time>2010-05-07T14:58:16Z</time>
      </trkpt>
      <trkpt lat="47.11679" lon="5.55367">
        <ele>237</ele>
        <time>2010-05-07T14:58:18Z</time>
      </trkpt>
      <trkpt lat="47.11669" lon="5.55355">
        <ele>237</ele>
        <time>2010-05-07T14:58:20Z</time>
      </trkpt>
      <trkpt lat="47.11659" lon="5.55339">
        <ele>237</ele>
        <time>2010-05-07T14:58:22Z</time>
      </trkpt>
      <trkpt lat="47.11649" lon="5.55324">
        <ele>237</ele>
        <time>2010-05-07T14:58:24Z</time>
      </trkpt>
      <trkpt lat="47.11639" lon="5.55312">
        <ele>237</ele>
        <time>2010-05-07T14:58:26Z</time>
      </trkpt>
      <trkpt lat="47.11628" lon="5.55296">
        <ele>237</ele>
        <time>2010-05-07T14:58:28Z</time>
      </trkpt>
      <trkpt lat="47.11617" lon="5.55279">
        <ele>237</ele>
        <time>2010-05-07T14:58:30Z</time>
      </trkpt>
      <trkpt lat="47.11606" lon="5.55262">
        <ele>237</ele>
        <time>2010-05-07T14:58:32Z</time>
      </trkpt>
      <trkpt lat="47.11595" lon="5.55247">
        <ele>237</ele>
        <time>2010-05-07T14:58:34Z</time>
      </trkpt>
      <trkpt lat="47.11585" lon="5.55233">
        <ele>237</ele>
        <time>2010-05-07T14:58:36Z</time>
      </trkpt>
      <trkpt lat="47.11575" lon="5.55215">
        <ele>237</ele>
        <time>2010-05-07T14:58:38Z</time>
      </trkpt>
      <trkpt lat="47.11565" lon="5.55194">
        <ele>237</ele>
        <time>2010-05-07T14:58:40Z</time>
      </trkpt>
      <trkpt lat="47.11555" lon="5.55174">
        <ele>237</ele>
        <time>2010-05-07T14:58:42Z</time>
      </trkpt>
      <trkpt lat="47.11545" lon="5.55154">
        <ele>237</ele>
        <time>2010-05-07T14:58:44Z</time>
      </trkpt>
      <trkpt lat="47.11534" lon="5.55136">
        <ele>231</ele>
        <time>2010-05-07T14:58:46Z</time>
      </trkpt>
      <trkpt lat="47.11524" lon="5.55116">
        <ele>231</ele>
        <time>2010-05-07T14:58:48Z</time>
      </trkpt>
      <trkpt lat="47.11515" lon="5.55092">
        <ele>222</ele>
        <time>2010-05-07T14:58:50Z</time>
      </trkpt>
      <trkpt lat="47.11505" lon="5.55074">
        <ele>222</ele>
        <time>2010-05-07T14:58:52Z</time>
      </trkpt>
      <trkpt lat="47.11494" lon="5.55059">
        <ele>222</ele>
        <time>2010-05-07T14:58:54Z</time>
      </trkpt>
      <trkpt lat="47.11484" lon="5.5504">
        <ele>222</ele>
        <time>2010-05-07T14:58:56Z</time>
      </trkpt>
      <trkpt lat="47.11474" lon="5.55026">
        <ele>222</ele>
        <time>2010-05-07T14:58:58Z</time>
      </trkpt>
      <trkpt lat="47.11466" lon="5.55012">
        <ele>222</ele>
        <time>2010-05-07T14:59:00Z</time>
      </trkpt>
      <trkpt lat="47.11457" lon="5.54997">
        <ele>222</ele>
        <time>2010-05-07T14:59:02Z</time>
      </trkpt>
      <trkpt lat="47.11447" lon="5.5498">
        <ele>222</ele>
        <time>2010-05-07T14:59:04Z</time>
      </trkpt>
      <trkpt lat="47.11436" lon="5.54967">
        <ele>222</ele>
        <time>2010-05-07T14:59:06Z</time>
      </trkpt>
      <trkpt lat="47.11426" lon="5.54955">
        <ele>222</ele>
        <time>2010-05-07T14:59:08Z</time>
      </trkpt>
      <trkpt lat="47.11414" lon="5.54949">
        <ele>227</ele>
        <time>2010-05-07T14:59:10Z</time>
      </trkpt>
      <trkpt lat="47.11403" lon="5.54936">
        <ele>227</ele>
        <time>2010-05-07T14:59:12Z</time>
      </trkpt>
      <trkpt lat="47.11393" lon="5.54917">
        <ele>227</ele>
        <time>2010-05-07T14:59:14Z</time>
      </trkpt>
      <trkpt lat="47.1139" lon="5.54901">
        <ele>222</ele>
        <time>2010-05-07T14:59:15Z</time>
      </trkpt>
      <trkpt lat="47.11386" lon="5.54888">
        <ele>222</ele>
        <time>2010-05-07T14:59:16Z</time>
      </trkpt>
      <trkpt lat="47.11376" lon="5.54866">
        <ele>216</ele>
        <time>2010-05-07T14:59:18Z</time>
      </trkpt>
      <trkpt lat="47.11366" lon="5.54851">
        <ele>216</ele>
        <time>2010-05-07T14:59:20Z</time>
      </trkpt>
      <trkpt lat="47.11354" lon="5.54835">
        <ele>216</ele>
        <time>2010-05-07T14:59:22Z</time>
      </trkpt>
      <trkpt lat="47.11343" lon="5.54819">
        <ele>208</ele>
        <time>2010-05-07T14:59:24Z</time>
      </trkpt>
      <trkpt lat="47.11335" lon="5.54812">
        <ele>208</ele>
        <time>2010-05-07T14:59:25Z</time>
      </trkpt>
      <trkpt lat="47.11326" lon="5.54808">
        <ele>208</ele>
        <time>2010-05-07T14:59:26Z</time>
      </trkpt>
      <trkpt lat="47.11311" lon="5.548">
        <ele>208</ele>
        <time>2010-05-07T14:59:28Z</time>
      </trkpt>
      <trkpt lat="47.11296" lon="5.54796">
        <ele>208</ele>
        <time>2010-05-07T14:59:30Z</time>
      </trkpt>
      <trkpt lat="47.11282" lon="5.54791">
        <ele>208</ele>
        <time>2010-05-07T14:59:32Z</time>
      </trkpt>
      <trkpt lat="47.11271" lon="5.54785">
        <ele>208</ele>
        <time>2010-05-07T14:59:34Z</time>
      </trkpt>
      <trkpt lat="47.11256" lon="5.54782">
        <ele>214</ele>
        <time>2010-05-07T14:59:36Z</time>
      </trkpt>
      <trkpt lat="47.11242" lon="5.54778">
        <ele>214</ele>
        <time>2010-05-07T14:59:38Z</time>
      </trkpt>
      <trkpt lat="47.11228" lon="5.54774">
        <ele>214</ele>
        <time>2010-05-07T14:59:40Z</time>
      </trkpt>
      <trkpt lat="47.11214" lon="5.54771">
        <ele>221</ele>
        <time>2010-05-07T14:59:42Z</time>
      </trkpt>
      <trkpt lat="47.11199" lon="5.54766">
        <ele>221</ele>
        <time>2010-05-07T14:59:44Z</time>
      </trkpt>
      <trkpt lat="47.11188" lon="5.54764">
        <ele>221</ele>
        <time>2010-05-07T14:59:46Z</time>
      </trkpt>
      <trkpt lat="47.11177" lon="5.54756">
        <ele>221</ele>
        <time>2010-05-07T14:59:48Z</time>
      </trkpt>
      <trkpt lat="47.11164" lon="5.5475">
        <ele>221</ele>
        <time>2010-05-07T14:59:50Z</time>
      </trkpt>
      <trkpt lat="47.11151" lon="5.54743">
        <ele>221</ele>
        <time>2010-05-07T14:59:52Z</time>
      </trkpt>
      <trkpt lat="47.11137" lon="5.54735">
        <ele>221</ele>
        <time>2010-05-07T14:59:54Z</time>
      </trkpt>
      <trkpt lat="47.11128" lon="5.54728">
        <ele>216</ele>
        <time>2010-05-07T14:59:56Z</time>
      </trkpt>
      <trkpt lat="47.11118" lon="5.54724">
        <ele>216</ele>
        <time>2010-05-07T14:59:58Z</time>
      </trkpt>
      <trkpt lat="47.11107" lon="5.5472">
        <ele>216</ele>
        <time>2010-05-07T15:00:00Z</time>
      </trkpt>
      <trkpt lat="47.11096" lon="5.54717">
        <ele>222</ele>
        <time>2010-05-07T15:00:02Z</time>
      </trkpt>
      <trkpt lat="47.11084" lon="5.54715">
        <ele>222</ele>
        <time>2010-05-07T15:00:04Z</time>
      </trkpt>
      <trkpt lat="47.11076" lon="5.54712">
        <ele>227</ele>
        <time>2010-05-07T15:00:06Z</time>
      </trkpt>
      <trkpt lat="47.11066" lon="5.54709">
        <ele>227</ele>
        <time>2010-05-07T15:00:08Z</time>
      </trkpt>
      <trkpt lat="47.11057" lon="5.54705">
        <ele>227</ele>
        <time>2010-05-07T15:00:10Z</time>
      </trkpt>
      <trkpt lat="47.11046" lon="5.54701">
        <ele>236</ele>
        <time>2010-05-07T15:00:12Z</time>
      </trkpt>
      <trkpt lat="47.11034" lon="5.54696">
        <ele>236</ele>
        <time>2010-05-07T15:00:14Z</time>
      </trkpt>
      <trkpt lat="47.11024" lon="5.54692">
        <ele>236</ele>
        <time>2010-05-07T15:00:16Z</time>
      </trkpt>
      <trkpt lat="47.11011" lon="5.54689">
        <ele>241</ele>
        <time>2010-05-07T15:00:18Z</time>
      </trkpt>
      <trkpt lat="47.10998" lon="5.54685">
        <ele>241</ele>
        <time>2010-05-07T15:00:20Z</time>
      </trkpt>
      <trkpt lat="47.10984" lon="5.54677">
        <ele>241</ele>
        <time>2010-05-07T15:00:22Z</time>
      </trkpt>
      <trkpt lat="47.10971" lon="5.54671">
        <ele>241</ele>
        <time>2010-05-07T15:00:24Z</time>
      </trkpt>
      <trkpt lat="47.10955" lon="5.54664">
        <ele>241</ele>
        <time>2010-05-07T15:00:26Z</time>
      </trkpt>
      <trkpt lat="47.10945" lon="5.54653">
        <ele>241</ele>
        <time>2010-05-07T15:00:28Z</time>
      </trkpt>
      <trkpt lat="47.10933" lon="5.54643">
        <ele>241</ele>
        <time>2010-05-07T15:00:30Z</time>
      </trkpt>
      <trkpt lat="47.10922" lon="5.54636">
        <ele>241</ele>
        <time>2010-05-07T15:00:32Z</time>
      </trkpt>
      <trkpt lat="47.10911" lon="5.5463">
        <ele>241</ele>
        <time>2010-05-07T15:00:34Z</time>
      </trkpt>
      <trkpt lat="47.10901" lon="5.54623">
        <ele>241</ele>
        <time>2010-05-07T15:00:36Z</time>
      </trkpt>
      <trkpt lat="47.1089" lon="5.54617">
        <ele>241</ele>
        <time>2010-05-07T15:00:38Z</time>
      </trkpt>
      <trkpt lat="47.1088" lon="5.5461">
        <ele>241</ele>
        <time>2010-05-07T15:00:40Z</time>
      </trkpt>
      <trkpt lat="47.10871" lon="5.54602">
        <ele>235</ele>
        <time>2010-05-07T15:00:42Z</time>
      </trkpt>
      <trkpt lat="47.10858" lon="5.54596">
        <ele>235</ele>
        <time>2010-05-07T15:00:44Z</time>
      </trkpt>
      <trkpt lat="47.10847" lon="5.54588">
        <ele>228</ele>
        <time>2010-05-07T15:00:46Z</time>
      </trkpt>
      <trkpt lat="47.10839" lon="5.54583">
        <ele>228</ele>
        <time>2010-05-07T15:00:48Z</time>
      </trkpt>
      <trkpt lat="47.1083" lon="5.54579">
        <ele>235</ele>
        <time>2010-05-07T15:00:50Z</time>
      </trkpt>
      <trkpt lat="47.1082" lon="5.54572">
        <ele>235</ele>
        <time>2010-05-07T15:00:52Z</time>
      </trkpt>
      <trkpt lat="47.10812" lon="5.54565">
        <ele>235</ele>
        <time>2010-05-07T15:00:54Z</time>
      </trkpt>
      <trkpt lat="47.108" lon="5.5456">
        <ele>235</ele>
        <time>2010-05-07T15:00:56Z</time>
      </trkpt>
      <trkpt lat="47.10789" lon="5.54555">
        <ele>235</ele>
        <time>2010-05-07T15:00:58Z</time>
      </trkpt>
      <trkpt lat="47.10776" lon="5.54548">
        <ele>235</ele>
        <time>2010-05-07T15:01:00Z</time>
      </trkpt>
      <trkpt lat="47.10763" lon="5.5454">
        <ele>229</ele>
        <time>2010-05-07T15:01:02Z</time>
      </trkpt>
      <trkpt lat="47.10748" lon="5.54534">
        <ele>229</ele>
        <time>2010-05-07T15:01:04Z</time>
      </trkpt>
      <trkpt lat="47.10735" lon="5.54529">
        <ele>229</ele>
        <time>2010-05-07T15:01:06Z</time>
      </trkpt>
      <trkpt lat="47.10722" lon="5.54523">
        <ele>229</ele>
        <time>2010-05-07T15:01:08Z</time>
      </trkpt>
      <trkpt lat="47.10708" lon="5.54518">
        <ele>229</ele>
        <time>2010-05-07T15:01:10Z</time>
      </trkpt>
      <trkpt lat="47.10697" lon="5.54516">
        <ele>229</ele>
        <time>2010-05-07T15:01:12Z</time>
      </trkpt>
      <trkpt lat="47.10684" lon="5.54512">
        <ele>229</ele>
        <time>2010-05-07T15:01:14Z</time>
      </trkpt>
      <trkpt lat="47.10673" lon="5.54508">
        <ele>229</ele>
        <time>2010-05-07T15:01:16Z</time>
      </trkpt>
      <trkpt lat="47.10662" lon="5.54504">
        <ele>236</ele>
        <time>2010-05-07T15:01:18Z</time>
      </trkpt>
      <trkpt lat="47.10649" lon="5.54499">
        <ele>236</ele>
        <time>2010-05-07T15:01:20Z</time>
      </trkpt>
      <trkpt lat="47.10635" lon="5.54492">
        <ele>236</ele>
        <time>2010-05-07T15:01:22Z</time>
      </trkpt>
      <trkpt lat="47.10623" lon="5.54488">
        <ele>236</ele>
        <time>2010-05-07T15:01:24Z</time>
      </trkpt>
      <trkpt lat="47.10611" lon="5.54483">
        <ele>236</ele>
        <time>2010-05-07T15:01:26Z</time>
      </trkpt>
      <trkpt lat="47.10598" lon="5.54478">
        <ele>236</ele>
        <time>2010-05-07T15:01:28Z</time>
      </trkpt>
      <trkpt lat="47.10586" lon="5.54472">
        <ele>236</ele>
        <time>2010-05-07T15:01:30Z</time>
      </trkpt>
      <trkpt lat="47.10573" lon="5.54466">
        <ele>236</ele>
        <time>2010-05-07T15:01:32Z</time>
      </trkpt>
      <trkpt lat="47.10561" lon="5.54462">
        <ele>236</ele>
        <time>2010-05-07T15:01:34Z</time>
      </trkpt>
      <trkpt lat="47.10547" lon="5.54456">
        <ele>236</ele>
        <time>2010-05-07T15:01:36Z</time>
      </trkpt>
      <trkpt lat="47.10534" lon="5.54451">
        <ele>236</ele>
        <time>2010-05-07T15:01:38Z</time>
      </trkpt>
      <trkpt lat="47.1052" lon="5.54443">
        <ele>236</ele>
        <time>2010-05-07T15:01:40Z</time>
      </trkpt>
      <trkpt lat="47.10508" lon="5.54437">
        <ele>229</ele>
        <time>2010-05-07T15:01:42Z</time>
      </trkpt>
      <trkpt lat="47.10495" lon="5.5443">
        <ele>229</ele>
        <time>2010-05-07T15:01:44Z</time>
      </trkpt>
      <trkpt lat="47.10482" lon="5.54424">
        <ele>229</ele>
        <time>2010-05-07T15:01:46Z</time>
      </trkpt>
      <trkpt lat="47.10467" lon="5.54418">
        <ele>229</ele>
        <time>2010-05-07T15:01:48Z</time>
      </trkpt>
      <trkpt lat="47.10454" lon="5.54414">
        <ele>229</ele>
        <time>2010-05-07T15:01:50Z</time>
      </trkpt>
      <trkpt lat="47.10441" lon="5.5441">
        <ele>229</ele>
        <time>2010-05-07T15:01:52Z</time>
      </trkpt>
      <trkpt lat="47.10429" lon="5.54403">
        <ele>229</ele>
        <time>2010-05-07T15:01:54Z</time>
      </trkpt>
      <trkpt lat="47.1042" lon="5.54399">
        <ele>229</ele>
        <time>2010-05-07T15:01:56Z</time>
      </trkpt>
      <trkpt lat="47.10411" lon="5.54391">
        <ele>229</ele>
        <time>2010-05-07T15:01:58Z</time>
      </trkpt>
      <trkpt lat="47.10399" lon="5.54384">
        <ele>229</ele>
        <time>2010-05-07T15:02:00Z</time>
      </trkpt>
      <trkpt lat="47.10386" lon="5.54377">
        <ele>229</ele>
        <time>2010-05-07T15:02:02Z</time>
      </trkpt>
      <trkpt lat="47.10372" lon="5.54372">
        <ele>229</ele>
        <time>2010-05-07T15:02:04Z</time>
      </trkpt>
      <trkpt lat="47.10359" lon="5.54367">
        <ele>235</ele>
        <time>2010-05-07T15:02:06Z</time>
      </trkpt>
      <trkpt lat="47.10346" lon="5.54363">
        <ele>235</ele>
        <time>2010-05-07T15:02:08Z</time>
      </trkpt>
      <trkpt lat="47.10332" lon="5.54358">
        <ele>235</ele>
        <time>2010-05-07T15:02:10Z</time>
      </trkpt>
      <trkpt lat="47.10319" lon="5.54354">
        <ele>235</ele>
        <time>2010-05-07T15:02:12Z</time>
      </trkpt>
      <trkpt lat="47.10306" lon="5.5435">
        <ele>241</ele>
        <time>2010-05-07T15:02:14Z</time>
      </trkpt>
      <trkpt lat="47.10293" lon="5.54345">
        <ele>241</ele>
        <time>2010-05-07T15:02:16Z</time>
      </trkpt>
      <trkpt lat="47.10281" lon="5.5434">
        <ele>241</ele>
        <time>2010-05-07T15:02:18Z</time>
      </trkpt>
      <trkpt lat="47.10268" lon="5.54335">
        <ele>241</ele>
        <time>2010-05-07T15:02:20Z</time>
      </trkpt>
      <trkpt lat="47.10255" lon="5.5433">
        <ele>241</ele>
        <time>2010-05-07T15:02:22Z</time>
      </trkpt>
      <trkpt lat="47.10243" lon="5.54323">
        <ele>241</ele>
        <time>2010-05-07T15:02:24Z</time>
      </trkpt>
      <trkpt lat="47.1023" lon="5.54318">
        <ele>241</ele>
        <time>2010-05-07T15:02:26Z</time>
      </trkpt>
      <trkpt lat="47.10219" lon="5.54313">
        <ele>241</ele>
        <time>2010-05-07T15:02:28Z</time>
      </trkpt>
      <trkpt lat="47.10208" lon="5.54307">
        <ele>241</ele>
        <time>2010-05-07T15:02:30Z</time>
      </trkpt>
      <trkpt lat="47.10197" lon="5.54298">
        <ele>241</ele>
        <time>2010-05-07T15:02:32Z</time>
      </trkpt>
      <trkpt lat="47.10182" lon="5.54291">
        <ele>241</ele>
        <time>2010-05-07T15:02:34Z</time>
      </trkpt>
      <trkpt lat="47.10164" lon="5.54281">
        <ele>241</ele>
        <time>2010-05-07T15:02:37Z</time>
      </trkpt>
      <trkpt lat="47.10149" lon="5.5427">
        <ele>241</ele>
        <time>2010-05-07T15:02:40Z</time>
      </trkpt>
      <trkpt lat="47.10138" lon="5.54258">
        <ele>241</ele>
        <time>2010-05-07T15:02:42Z</time>
      </trkpt>
      <trkpt lat="47.1013" lon="5.54248">
        <ele>248</ele>
        <time>2010-05-07T15:02:44Z</time>
      </trkpt>
      <trkpt lat="47.10122" lon="5.54238">
        <ele>248</ele>
        <time>2010-05-07T15:02:46Z</time>
      </trkpt>
      <trkpt lat="47.10114" lon="5.54229">
        <ele>248</ele>
        <time>2010-05-07T15:02:48Z</time>
      </trkpt>
      <trkpt lat="47.10098" lon="5.54212">
        <ele>253</ele>
        <time>2010-05-07T15:02:52Z</time>
      </trkpt>
      <trkpt lat="47.10091" lon="5.54201">
        <ele>253</ele>
        <time>2010-05-07T15:02:54Z</time>
      </trkpt>
      <trkpt lat="47.10083" lon="5.5419">
        <ele>253</ele>
        <time>2010-05-07T15:02:56Z</time>
      </trkpt>
      <trkpt lat="47.10074" lon="5.54177">
        <ele>253</ele>
        <time>2010-05-07T15:02:58Z</time>
      </trkpt>
      <trkpt lat="47.10065" lon="5.54165">
        <ele>253</ele>
        <time>2010-05-07T15:03:00Z</time>
      </trkpt>
      <trkpt lat="47.10055" lon="5.54149">
        <ele>253</ele>
        <time>2010-05-07T15:03:02Z</time>
      </trkpt>
      <trkpt lat="47.10043" lon="5.54135">
        <ele>253</ele>
        <time>2010-05-07T15:03:04Z</time>
      </trkpt>
      <trkpt lat="47.1003" lon="5.54118">
        <ele>253</ele>
        <time>2010-05-07T15:03:06Z</time>
      </trkpt>
      <trkpt lat="47.10021" lon="5.54083">
        <ele>253</ele>
        <time>2010-05-07T15:03:09Z</time>
      </trkpt>
      <trkpt lat="47.10014" lon="5.54074">
        <ele>253</ele>
        <time>2010-05-07T15:03:10Z</time>
      </trkpt>
      <trkpt lat="47.10007" lon="5.54064">
        <ele>253</ele>
        <time>2010-05-07T15:03:11Z</time>
      </trkpt>
      <trkpt lat="47.09997" lon="5.54046">
        <ele>253</ele>
        <time>2010-05-07T15:03:13Z</time>
      </trkpt>
      <trkpt lat="47.09986" lon="5.54029">
        <ele>253</ele>
        <time>2010-05-07T15:03:15Z</time>
      </trkpt>
      <trkpt lat="47.09979" lon="5.5401">
        <ele>253</ele>
        <time>2010-05-07T15:03:17Z</time>
      </trkpt>
      <trkpt lat="47.09931" lon="5.54014">
        <ele>253</ele>
        <time>2010-05-07T15:03:18Z</time>
      </trkpt>
      <trkpt lat="47.099" lon="5.54001">
        <ele>253</ele>
        <time>2010-05-07T15:03:20Z</time>
      </trkpt>
      <trkpt lat="47.09896" lon="5.53989">
        <ele>253</ele>
        <time>2010-05-07T15:03:21Z</time>
      </trkpt>
      <trkpt lat="47.09884" lon="5.5397">
        <ele>253</ele>
        <time>2010-05-07T15:03:23Z</time>
      </trkpt>
      <trkpt lat="47.09879" lon="5.5396">
        <ele>247</ele>
        <time>2010-05-07T15:03:24Z</time>
      </trkpt>
      <trkpt lat="47.09867" lon="5.53941">
        <ele>247</ele>
        <time>2010-05-07T15:03:26Z</time>
      </trkpt>
      <trkpt lat="47.09851" lon="5.53922">
        <ele>238</ele>
        <time>2010-05-07T15:03:28Z</time>
      </trkpt>
      <trkpt lat="47.09837" lon="5.53902">
        <ele>231</ele>
        <time>2010-05-07T15:03:30Z</time>
      </trkpt>
      <trkpt lat="47.09824" lon="5.53886">
        <ele>231</ele>
        <time>2010-05-07T15:03:32Z</time>
      </trkpt>
      <trkpt lat="47.09813" lon="5.5387">
        <ele>222</ele>
        <time>2010-05-07T15:03:34Z</time>
      </trkpt>
      <trkpt lat="47.09803" lon="5.53852">
        <ele>222</ele>
        <time>2010-05-07T15:03:36Z</time>
      </trkpt>
      <trkpt lat="47.09793" lon="5.53837">
        <ele>222</ele>
        <time>2010-05-07T15:03:38Z</time>
      </trkpt>
      <trkpt lat="47.09787" lon="5.5382">
        <ele>214</ele>
        <time>2010-05-07T15:03:40Z</time>
      </trkpt>
      <trkpt lat="47.09782" lon="5.53802">
        <ele>208</ele>
        <time>2010-05-07T15:03:42Z</time>
      </trkpt>
      <trkpt lat="47.09778" lon="5.53787">
        <ele>208</ele>
        <time>2010-05-07T15:03:44Z</time>
      </trkpt>
      <trkpt lat="47.09774" lon="5.53774">
        <ele>208</ele>
        <time>2010-05-07T15:03:46Z</time>
      </trkpt>
      <trkpt lat="47.09772" lon="5.53759">
        <ele>208</ele>
        <time>2010-05-07T15:03:49Z</time>
      </trkpt>
      <trkpt lat="47.09767" lon="5.53742">
        <ele>208</ele>
        <time>2010-05-07T15:03:54Z</time>
      </trkpt>
      <trkpt lat="47.09762" lon="5.53731">
        <ele>208</ele>
        <time>2010-05-07T15:03:56Z</time>
      </trkpt>
      <trkpt lat="47.09758" lon="5.53715">
        <ele>208</ele>
        <time>2010-05-07T15:03:58Z</time>
      </trkpt>
      <trkpt lat="47.09755" lon="5.53699">
        <ele>208</ele>
        <time>2010-05-07T15:04:00Z</time>
      </trkpt>
      <trkpt lat="47.09751" lon="5.53683">
        <ele>208</ele>
        <time>2010-05-07T15:04:02Z</time>
      </trkpt>
      <trkpt lat="47.09746" lon="5.53666">
        <ele>208</ele>
        <time>2010-05-07T15:04:04Z</time>
      </trkpt>
      <trkpt lat="47.09742" lon="5.53649">
        <ele>215</ele>
        <time>2010-05-07T15:04:06Z</time>
      </trkpt>
      <trkpt lat="47.09737" lon="5.53631">
        <ele>215</ele>
        <time>2010-05-07T15:04:08Z</time>
      </trkpt>
      <trkpt lat="47.09733" lon="5.53612">
        <ele>215</ele>
        <time>2010-05-07T15:04:10Z</time>
      </trkpt>
      <trkpt lat="47.0973" lon="5.53594">
        <ele>215</ele>
        <time>2010-05-07T15:04:12Z</time>
      </trkpt>
      <trkpt lat="47.09727" lon="5.53576">
        <ele>215</ele>
        <time>2010-05-07T15:04:14Z</time>
      </trkpt>
      <trkpt lat="47.09722" lon="5.53554">
        <ele>215</ele>
        <time>2010-05-07T15:04:16Z</time>
      </trkpt>
      <trkpt lat="47.09721" lon="5.5354">
        <ele>215</ele>
        <time>2010-05-07T15:04:17Z</time>
      </trkpt>
      <trkpt lat="47.09718" lon="5.53516">
        <ele>215</ele>
        <time>2010-05-07T15:04:19Z</time>
      </trkpt>
      <trkpt lat="47.09717" lon="5.53493">
        <ele>215</ele>
        <time>2010-05-07T15:04:21Z</time>
      </trkpt>
      <trkpt lat="47.09713" lon="5.53469">
        <ele>208</ele>
        <time>2010-05-07T15:04:23Z</time>
      </trkpt>
      <trkpt lat="47.09708" lon="5.53445">
        <ele>208</ele>
        <time>2010-05-07T15:04:25Z</time>
      </trkpt>
      <trkpt lat="47.09702" lon="5.53423">
        <ele>208</ele>
        <time>2010-05-07T15:04:27Z</time>
      </trkpt>
      <trkpt lat="47.09698" lon="5.53401">
        <ele>208</ele>
        <time>2010-05-07T15:04:29Z</time>
      </trkpt>
      <trkpt lat="47.09694" lon="5.53378">
        <ele>202</ele>
        <time>2010-05-07T15:04:31Z</time>
      </trkpt>
      <trkpt lat="47.09691" lon="5.53354">
        <ele>202</ele>
        <time>2010-05-07T15:04:33Z</time>
      </trkpt>
      <trkpt lat="47.09689" lon="5.53331">
        <ele>202</ele>
        <time>2010-05-07T15:04:35Z</time>
      </trkpt>
      <trkpt lat="47.09687" lon="5.53307">
        <ele>202</ele>
        <time>2010-05-07T15:04:37Z</time>
      </trkpt>
      <trkpt lat="47.09684" lon="5.53288">
        <ele>202</ele>
        <time>2010-05-07T15:04:39Z</time>
      </trkpt>
      <trkpt lat="47.09681" lon="5.53266">
        <ele>202</ele>
        <time>2010-05-07T15:04:41Z</time>
      </trkpt>
      <trkpt lat="47.09676" lon="5.53246">
        <ele>202</ele>
        <time>2010-05-07T15:04:43Z</time>
      </trkpt>
      <trkpt lat="47.0967" lon="5.53228">
        <ele>202</ele>
        <time>2010-05-07T15:04:45Z</time>
      </trkpt>
      <trkpt lat="47.09665" lon="5.53211">
        <ele>202</ele>
        <time>2010-05-07T15:04:47Z</time>
      </trkpt>
      <trkpt lat="47.09662" lon="5.53196">
        <ele>207</ele>
        <time>2010-05-07T15:04:49Z</time>
      </trkpt>
      <trkpt lat="47.0966" lon="5.53177">
        <ele>214</ele>
        <time>2010-05-07T15:04:52Z</time>
      </trkpt>
      <trkpt lat="47.09651" lon="5.53166">
        <ele>214</ele>
        <time>2010-05-07T15:04:54Z</time>
      </trkpt>
      <trkpt lat="47.09646" lon="5.53148">
        <ele>214</ele>
        <time>2010-05-07T15:04:56Z</time>
      </trkpt>
      <trkpt lat="47.09644" lon="5.53128">
        <ele>214</ele>
        <time>2010-05-07T15:04:58Z</time>
      </trkpt>
      <trkpt lat="47.09639" lon="5.53107">
        <ele>214</ele>
        <time>2010-05-07T15:05:00Z</time>
      </trkpt>
      <trkpt lat="47.09635" lon="5.53088">
        <ele>214</ele>
        <time>2010-05-07T15:05:02Z</time>
      </trkpt>
      <trkpt lat="47.09629" lon="5.53071">
        <ele>214</ele>
        <time>2010-05-07T15:05:04Z</time>
      </trkpt>
      <trkpt lat="47.09623" lon="5.53053">
        <ele>222</ele>
        <time>2010-05-07T15:05:06Z</time>
      </trkpt>
      <trkpt lat="47.09618" lon="5.53032">
        <ele>222</ele>
        <time>2010-05-07T15:05:08Z</time>
      </trkpt>
      <trkpt lat="47.09614" lon="5.5301">
        <ele>222</ele>
        <time>2010-05-07T15:05:10Z</time>
      </trkpt>
      <trkpt lat="47.09611" lon="5.52998">
        <ele>222</ele>
        <time>2010-05-07T15:05:11Z</time>
      </trkpt>
      <trkpt lat="47.09607" lon="5.52978">
        <ele>222</ele>
        <time>2010-05-07T15:05:13Z</time>
      </trkpt>
      <trkpt lat="47.09602" lon="5.52966">
        <ele>222</ele>
        <time>2010-05-07T15:05:15Z</time>
      </trkpt>
      <trkpt lat="47.09599" lon="5.52946">
        <ele>222</ele>
        <time>2010-05-07T15:05:17Z</time>
      </trkpt>
      <trkpt lat="47.09595" lon="5.52923">
        <ele>222</ele>
        <time>2010-05-07T15:05:19Z</time>
      </trkpt>
      <trkpt lat="47.09588" lon="5.52907">
        <ele>222</ele>
        <time>2010-05-07T15:05:21Z</time>
      </trkpt>
      <trkpt lat="47.09584" lon="5.52891">
        <ele>222</ele>
        <time>2010-05-07T15:05:23Z</time>
      </trkpt>
      <trkpt lat="47.09579" lon="5.5286">
        <ele>222</ele>
        <time>2010-05-07T15:05:26Z</time>
      </trkpt>
      <trkpt lat="47.09578" lon="5.52839">
        <ele>222</ele>
        <time>2010-05-07T15:05:27Z</time>
      </trkpt>
      <trkpt lat="47.09575" lon="5.52824">
        <ele>222</ele>
        <time>2010-05-07T15:05:28Z</time>
      </trkpt>
      <trkpt lat="47.09573" lon="5.52812">
        <ele>222</ele>
        <time>2010-05-07T15:05:29Z</time>
      </trkpt>
      <trkpt lat="47.09571" lon="5.52787">
        <ele>212</ele>
        <time>2010-05-07T15:05:31Z</time>
      </trkpt>
      <trkpt lat="47.09568" lon="5.52766">
        <ele>212</ele>
        <time>2010-05-07T15:05:33Z</time>
      </trkpt>
      <trkpt lat="47.09564" lon="5.52748">
        <ele>212</ele>
        <time>2010-05-07T15:05:35Z</time>
      </trkpt>
      <trkpt lat="47.0956" lon="5.52731">
        <ele>212</ele>
        <time>2010-05-07T15:05:37Z</time>
      </trkpt>
      <trkpt lat="47.09557" lon="5.52713">
        <ele>205</ele>
        <time>2010-05-07T15:05:39Z</time>
      </trkpt>
      <trkpt lat="47.09554" lon="5.52699">
        <ele>205</ele>
        <time>2010-05-07T15:05:41Z</time>
      </trkpt>
      <trkpt lat="47.09552" lon="5.52686">
        <ele>205</ele>
        <time>2010-05-07T15:05:44Z</time>
      </trkpt>
      <trkpt lat="47.09543" lon="5.52682">
        <ele>211</ele>
        <time>2010-05-07T15:05:51Z</time>
      </trkpt>
      <trkpt lat="47.09532" lon="5.52682">
        <ele>211</ele>
        <time>2010-05-07T15:05:55Z</time>
      </trkpt>
      <trkpt lat="47.09527" lon="5.52663">
        <ele>211</ele>
        <time>2010-05-07T15:05:58Z</time>
      </trkpt>
      <trkpt lat="47.09524" lon="5.52645">
        <ele>206</ele>
        <time>2010-05-07T15:06:00Z</time>
      </trkpt>
      <trkpt lat="47.09519" lon="5.52626">
        <ele>206</ele>
        <time>2010-05-07T15:06:02Z</time>
      </trkpt>
      <trkpt lat="47.09515" lon="5.52607">
        <ele>206</ele>
        <time>2010-05-07T15:06:04Z</time>
      </trkpt>
      <trkpt lat="47.09511" lon="5.52587">
        <ele>206</ele>
        <time>2010-05-07T15:06:06Z</time>
      </trkpt>
      <trkpt lat="47.09507" lon="5.52568">
        <ele>206</ele>
        <time>2010-05-07T15:06:08Z</time>
      </trkpt>
      <trkpt lat="47.09502" lon="5.5255">
        <ele>206</ele>
        <time>2010-05-07T15:06:10Z</time>
      </trkpt>
      <trkpt lat="47.09498" lon="5.5253">
        <ele>206</ele>
        <time>2010-05-07T15:06:12Z</time>
      </trkpt>
      <trkpt lat="47.09494" lon="5.5251">
        <ele>206</ele>
        <time>2010-05-07T15:06:14Z</time>
      </trkpt>
      <trkpt lat="47.09489" lon="5.52491">
        <ele>206</ele>
        <time>2010-05-07T15:06:16Z</time>
      </trkpt>
      <trkpt lat="47.09485" lon="5.52472">
        <ele>206</ele>
        <time>2010-05-07T15:06:18Z</time>
      </trkpt>
      <trkpt lat="47.0948" lon="5.52453">
        <ele>206</ele>
        <time>2010-05-07T15:06:20Z</time>
      </trkpt>
      <trkpt lat="47.09475" lon="5.52433">
        <ele>206</ele>
        <time>2010-05-07T15:06:22Z</time>
      </trkpt>
      <trkpt lat="47.09471" lon="5.52414">
        <ele>206</ele>
        <time>2010-05-07T15:06:24Z</time>
      </trkpt>
      <trkpt lat="47.09465" lon="5.52394">
        <ele>206</ele>
        <time>2010-05-07T15:06:26Z</time>
      </trkpt>
      <trkpt lat="47.0946" lon="5.52374">
        <ele>206</ele>
        <time>2010-05-07T15:06:28Z</time>
      </trkpt>
      <trkpt lat="47.09454" lon="5.52355">
        <ele>206</ele>
        <time>2010-05-07T15:06:30Z</time>
      </trkpt>
      <trkpt lat="47.0945" lon="5.52335">
        <ele>206</ele>
        <time>2010-05-07T15:06:32Z</time>
      </trkpt>
      <trkpt lat="47.09446" lon="5.52316">
        <ele>206</ele>
        <time>2010-05-07T15:06:34Z</time>
      </trkpt>
      <trkpt lat="47.09443" lon="5.52297">
        <ele>206</ele>
        <time>2010-05-07T15:06:36Z</time>
      </trkpt>
      <trkpt lat="47.09439" lon="5.52278">
        <ele>206</ele>
        <time>2010-05-07T15:06:38Z</time>
      </trkpt>
      <trkpt lat="47.09437" lon="5.52258">
        <ele>206</ele>
        <time>2010-05-07T15:06:40Z</time>
      </trkpt>
      <trkpt lat="47.09434" lon="5.52239">
        <ele>206</ele>
        <time>2010-05-07T15:06:42Z</time>
      </trkpt>
      <trkpt lat="47.0943" lon="5.52223">
        <ele>206</ele>
        <time>2010-05-07T15:06:44Z</time>
      </trkpt>
      <trkpt lat="47.09426" lon="5.52207">
        <ele>206</ele>
        <time>2010-05-07T15:06:46Z</time>
      </trkpt>
      <trkpt lat="47.09423" lon="5.52189">
        <ele>206</ele>
        <time>2010-05-07T15:06:48Z</time>
      </trkpt>
      <trkpt lat="47.09419" lon="5.5217">
        <ele>206</ele>
        <time>2010-05-07T15:06:50Z</time>
      </trkpt>
      <trkpt lat="47.09415" lon="5.52151">
        <ele>206</ele>
        <time>2010-05-07T15:06:52Z</time>
      </trkpt>
      <trkpt lat="47.09411" lon="5.52132">
        <ele>206</ele>
        <time>2010-05-07T15:06:54Z</time>
      </trkpt>
      <trkpt lat="47.09407" lon="5.52113">
        <ele>206</ele>
        <time>2010-05-07T15:06:56Z</time>
      </trkpt>
      <trkpt lat="47.09403" lon="5.52093">
        <ele>206</ele>
        <time>2010-05-07T15:06:58Z</time>
      </trkpt>
      <trkpt lat="47.09399" lon="5.52074">
        <ele>206</ele>
        <time>2010-05-07T15:07:00Z</time>
      </trkpt>
      <trkpt lat="47.09394" lon="5.52055">
        <ele>206</ele>
        <time>2010-05-07T15:07:02Z</time>
      </trkpt>
      <trkpt lat="47.09392" lon="5.52035">
        <ele>206</ele>
        <time>2010-05-07T15:07:04Z</time>
      </trkpt>
      <trkpt lat="47.09389" lon="5.52015">
        <ele>206</ele>
        <time>2010-05-07T15:07:06Z</time>
      </trkpt>
      <trkpt lat="47.09385" lon="5.51993">
        <ele>206</ele>
        <time>2010-05-07T15:07:08Z</time>
      </trkpt>
      <trkpt lat="47.09381" lon="5.51973">
        <ele>206</ele>
        <time>2010-05-07T15:07:10Z</time>
      </trkpt>
      <trkpt lat="47.09376" lon="5.51954">
        <ele>206</ele>
        <time>2010-05-07T15:07:12Z</time>
      </trkpt>
      <trkpt lat="47.09371" lon="5.51934">
        <ele>211</ele>
        <time>2010-05-07T15:07:14Z</time>
      </trkpt>
      <trkpt lat="47.09366" lon="5.51913">
        <ele>211</ele>
        <time>2010-05-07T15:07:16Z</time>
      </trkpt>
      <trkpt lat="47.09361" lon="5.51893">
        <ele>211</ele>
        <time>2010-05-07T15:07:18Z</time>
      </trkpt>
      <trkpt lat="47.09358" lon="5.5187">
        <ele>211</ele>
        <time>2010-05-07T15:07:20Z</time>
      </trkpt>
      <trkpt lat="47.09354" lon="5.51849">
        <ele>211</ele>
        <time>2010-05-07T15:07:22Z</time>
      </trkpt>
      <trkpt lat="47.09349" lon="5.51829">
        <ele>211</ele>
        <time>2010-05-07T15:07:24Z</time>
      </trkpt>
      <trkpt lat="47.09347" lon="5.51809">
        <ele>211</ele>
        <time>2010-05-07T15:07:26Z</time>
      </trkpt>
      <trkpt lat="47.09343" lon="5.51789">
        <ele>211</ele>
        <time>2010-05-07T15:07:28Z</time>
      </trkpt>
      <trkpt lat="47.0934" lon="5.51769">
        <ele>211</ele>
        <time>2010-05-07T15:07:30Z</time>
      </trkpt>
      <trkpt lat="47.09336" lon="5.51749">
        <ele>211</ele>
        <time>2010-05-07T15:07:32Z</time>
      </trkpt>
      <trkpt lat="47.09332" lon="5.51731">
        <ele>211</ele>
        <time>2010-05-07T15:07:34Z</time>
      </trkpt>
      <trkpt lat="47.09327" lon="5.51714">
        <ele>211</ele>
        <time>2010-05-07T15:07:36Z</time>
      </trkpt>
      <trkpt lat="47.09323" lon="5.51692">
        <ele>211</ele>
        <time>2010-05-07T15:07:38Z</time>
      </trkpt>
      <trkpt lat="47.09319" lon="5.51673">
        <ele>211</ele>
        <time>2010-05-07T15:07:40Z</time>
      </trkpt>
      <trkpt lat="47.09316" lon="5.5165">
        <ele>211</ele>
        <time>2010-05-07T15:07:42Z</time>
      </trkpt>
      <trkpt lat="47.09312" lon="5.51629">
        <ele>211</ele>
        <time>2010-05-07T15:07:44Z</time>
      </trkpt>
      <trkpt lat="47.09308" lon="5.51611">
        <ele>211</ele>
        <time>2010-05-07T15:07:46Z</time>
      </trkpt>
      <trkpt lat="47.09304" lon="5.51591">
        <ele>211</ele>
        <time>2010-05-07T15:07:48Z</time>
      </trkpt>
      <trkpt lat="47.093" lon="5.51571">
        <ele>211</ele>
        <time>2010-05-07T15:07:50Z</time>
      </trkpt>
      <trkpt lat="47.09298" lon="5.51552">
        <ele>211</ele>
        <time>2010-05-07T15:07:52Z</time>
      </trkpt>
      <trkpt lat="47.09298" lon="5.51531">
        <ele>211</ele>
        <time>2010-05-07T15:07:54Z</time>
      </trkpt>
      <trkpt lat="47.09294" lon="5.51507">
        <ele>211</ele>
        <time>2010-05-07T15:07:56Z</time>
      </trkpt>
      <trkpt lat="47.0929" lon="5.51487">
        <ele>211</ele>
        <time>2010-05-07T15:07:58Z</time>
      </trkpt>
      <trkpt lat="47.09287" lon="5.51467">
        <ele>211</ele>
        <time>2010-05-07T15:08:00Z</time>
      </trkpt>
      <trkpt lat="47.09285" lon="5.51444">
        <ele>205</ele>
        <time>2010-05-07T15:08:02Z</time>
      </trkpt>
      <trkpt lat="47.09284" lon="5.51423">
        <ele>205</ele>
        <time>2010-05-07T15:08:04Z</time>
      </trkpt>
      <trkpt lat="47.09284" lon="5.51401">
        <ele>205</ele>
        <time>2010-05-07T15:08:06Z</time>
      </trkpt>
      <trkpt lat="47.09282" lon="5.51381">
        <ele>205</ele>
        <time>2010-05-07T15:08:08Z</time>
      </trkpt>
      <trkpt lat="47.09281" lon="5.51361">
        <ele>205</ele>
        <time>2010-05-07T15:08:10Z</time>
      </trkpt>
      <trkpt lat="47.0928" lon="5.51341">
        <ele>205</ele>
        <time>2010-05-07T15:08:12Z</time>
      </trkpt>
      <trkpt lat="47.09278" lon="5.51324">
        <ele>205</ele>
        <time>2010-05-07T15:08:14Z</time>
      </trkpt>
      <trkpt lat="47.09278" lon="5.51305">
        <ele>205</ele>
        <time>2010-05-07T15:08:16Z</time>
      </trkpt>
      <trkpt lat="47.09277" lon="5.51289">
        <ele>205</ele>
        <time>2010-05-07T15:08:18Z</time>
      </trkpt>
      <trkpt lat="47.09277" lon="5.51274">
        <ele>205</ele>
        <time>2010-05-07T15:08:20Z</time>
      </trkpt>
      <trkpt lat="47.09277" lon="5.51256">
        <ele>205</ele>
        <time>2010-05-07T15:08:22Z</time>
      </trkpt>
      <trkpt lat="47.09276" lon="5.51234">
        <ele>205</ele>
        <time>2010-05-07T15:08:24Z</time>
      </trkpt>
      <trkpt lat="47.09276" lon="5.51213">
        <ele>211</ele>
        <time>2010-05-07T15:08:26Z</time>
      </trkpt>
      <trkpt lat="47.09276" lon="5.51196">
        <ele>211</ele>
        <time>2010-05-07T15:08:28Z</time>
      </trkpt>
      <trkpt lat="47.09276" lon="5.51175">
        <ele>219</ele>
        <time>2010-05-07T15:08:30Z</time>
      </trkpt>
      <trkpt lat="47.09276" lon="5.51153">
        <ele>219</ele>
        <time>2010-05-07T15:08:32Z</time>
      </trkpt>
      <trkpt lat="47.09278" lon="5.51132">
        <ele>219</ele>
        <time>2010-05-07T15:08:34Z</time>
      </trkpt>
      <trkpt lat="47.09277" lon="5.51113">
        <ele>219</ele>
        <time>2010-05-07T15:08:36Z</time>
      </trkpt>
      <trkpt lat="47.09276" lon="5.51096">
        <ele>224</ele>
        <time>2010-05-07T15:08:38Z</time>
      </trkpt>
      <trkpt lat="47.09279" lon="5.51072">
        <ele>218</ele>
        <time>2010-05-07T15:08:40Z</time>
      </trkpt>
      <trkpt lat="47.09281" lon="5.51059">
        <ele>218</ele>
        <time>2010-05-07T15:08:41Z</time>
      </trkpt>
      <trkpt lat="47.09283" lon="5.51046">
        <ele>211</ele>
        <time>2010-05-07T15:08:42Z</time>
      </trkpt>
      <trkpt lat="47.09286" lon="5.51024">
        <ele>211</ele>
        <time>2010-05-07T15:08:44Z</time>
      </trkpt>
      <trkpt lat="47.09287" lon="5.51005">
        <ele>205</ele>
        <time>2010-05-07T15:08:46Z</time>
      </trkpt>
      <trkpt lat="47.09289" lon="5.50985">
        <ele>205</ele>
        <time>2010-05-07T15:08:48Z</time>
      </trkpt>
      <trkpt lat="47.0929" lon="5.50966">
        <ele>205</ele>
        <time>2010-05-07T15:08:50Z</time>
      </trkpt>
      <trkpt lat="47.09291" lon="5.50947">
        <ele>205</ele>
        <time>2010-05-07T15:08:52Z</time>
      </trkpt>
      <trkpt lat="47.09292" lon="5.5093">
        <ele>205</ele>
        <time>2010-05-07T15:08:54Z</time>
      </trkpt>
      <trkpt lat="47.09294" lon="5.50913">
        <ele>205</ele>
        <time>2010-05-07T15:08:56Z</time>
      </trkpt>
      <trkpt lat="47.09295" lon="5.50898">
        <ele>211</ele>
        <time>2010-05-07T15:08:58Z</time>
      </trkpt>
      <trkpt lat="47.09299" lon="5.50883">
        <ele>211</ele>
        <time>2010-05-07T15:09:00Z</time>
      </trkpt>
      <trkpt lat="47.09305" lon="5.50867">
        <ele>211</ele>
        <time>2010-05-07T15:09:02Z</time>
      </trkpt>
      <trkpt lat="47.09308" lon="5.50853">
        <ele>211</ele>
        <time>2010-05-07T15:09:04Z</time>
      </trkpt>
      <trkpt lat="47.09308" lon="5.5084">
        <ele>219</ele>
        <time>2010-05-07T15:09:07Z</time>
      </trkpt>
      <trkpt lat="47.093" lon="5.50828">
        <ele>224</ele>
        <time>2010-05-07T15:09:11Z</time>
      </trkpt>
      <trkpt lat="47.09293" lon="5.50817">
        <ele>231</ele>
        <time>2010-05-07T15:09:13Z</time>
      </trkpt>
      <trkpt lat="47.09285" lon="5.50807">
        <ele>236</ele>
        <time>2010-05-07T15:09:15Z</time>
      </trkpt>
      <trkpt lat="47.09285" lon="5.50789">
        <ele>236</ele>
        <time>2010-05-07T15:09:17Z</time>
      </trkpt>
      <trkpt lat="47.09284" lon="5.50769">
        <ele>236</ele>
        <time>2010-05-07T15:09:19Z</time>
      </trkpt>
      <trkpt lat="47.09286" lon="5.50754">
        <ele>236</ele>
        <time>2010-05-07T15:09:20Z</time>
      </trkpt>
      <trkpt lat="47.09286" lon="5.50735">
        <ele>236</ele>
        <time>2010-05-07T15:09:22Z</time>
      </trkpt>
      <trkpt lat="47.09288" lon="5.50713">
        <ele>236</ele>
        <time>2010-05-07T15:09:24Z</time>
      </trkpt>
      <trkpt lat="47.09289" lon="5.50692">
        <ele>236</ele>
        <time>2010-05-07T15:09:26Z</time>
      </trkpt>
      <trkpt lat="47.09288" lon="5.50674">
        <ele>242</ele>
        <time>2010-05-07T15:09:28Z</time>
      </trkpt>
      <trkpt lat="47.09288" lon="5.50656">
        <ele>242</ele>
        <time>2010-05-07T15:09:30Z</time>
      </trkpt>
      <trkpt lat="47.09288" lon="5.50635">
        <ele>242</ele>
        <time>2010-05-07T15:09:32Z</time>
      </trkpt>
      <trkpt lat="47.0929" lon="5.50612">
        <ele>242</ele>
        <time>2010-05-07T15:09:34Z</time>
      </trkpt>
      <trkpt lat="47.09294" lon="5.50588">
        <ele>242</ele>
        <time>2010-05-07T15:09:36Z</time>
      </trkpt>
      <trkpt lat="47.09295" lon="5.50566">
        <ele>242</ele>
        <time>2010-05-07T15:09:38Z</time>
      </trkpt>
      <trkpt lat="47.09297" lon="5.50547">
        <ele>236</ele>
        <time>2010-05-07T15:09:40Z</time>
      </trkpt>
      <trkpt lat="47.09296" lon="5.50532">
        <ele>236</ele>
        <time>2010-05-07T15:09:42Z</time>
      </trkpt>
      <trkpt lat="47.09294" lon="5.50515">
        <ele>236</ele>
        <time>2010-05-07T15:09:44Z</time>
      </trkpt>
      <trkpt lat="47.09293" lon="5.50498">
        <ele>242</ele>
        <time>2010-05-07T15:09:46Z</time>
      </trkpt>
      <trkpt lat="47.09292" lon="5.5048">
        <ele>248</ele>
        <time>2010-05-07T15:09:49Z</time>
      </trkpt>
      <trkpt lat="47.09295" lon="5.50466">
        <ele>248</ele>
        <time>2010-05-07T15:09:52Z</time>
      </trkpt>
      <trkpt lat="47.09294" lon="5.5045">
        <ele>248</ele>
        <time>2010-05-07T15:09:55Z</time>
      </trkpt>
      <trkpt lat="47.0929" lon="5.50434">
        <ele>248</ele>
        <time>2010-05-07T15:09:58Z</time>
      </trkpt>
      <trkpt lat="47.09289" lon="5.5042">
        <ele>238</ele>
        <time>2010-05-07T15:10:00Z</time>
      </trkpt>
      <trkpt lat="47.09291" lon="5.50403">
        <ele>232</ele>
        <time>2010-05-07T15:10:02Z</time>
      </trkpt>
      <trkpt lat="47.09291" lon="5.5039">
        <ele>232</ele>
        <time>2010-05-07T15:10:04Z</time>
      </trkpt>
      <trkpt lat="47.09294" lon="5.50373">
        <ele>232</ele>
        <time>2010-05-07T15:10:06Z</time>
      </trkpt>
      <trkpt lat="47.09297" lon="5.50355">
        <ele>232</ele>
        <time>2010-05-07T15:10:08Z</time>
      </trkpt>
      <trkpt lat="47.09301" lon="5.50339">
        <ele>232</ele>
        <time>2010-05-07T15:10:10Z</time>
      </trkpt>
      <trkpt lat="47.09307" lon="5.50328">
        <ele>240</ele>
        <time>2010-05-07T15:10:12Z</time>
      </trkpt>
      <trkpt lat="47.09318" lon="5.50321">
        <ele>240</ele>
        <time>2010-05-07T15:10:15Z</time>
      </trkpt>
      <trkpt lat="47.09335" lon="5.50308">
        <ele>240</ele>
        <time>2010-05-07T15:10:20Z</time>
      </trkpt>
      <trkpt lat="47.09345" lon="5.50295">
        <ele>234</ele>
        <time>2010-05-07T15:10:25Z</time>
      </trkpt>
      <trkpt lat="47.09342" lon="5.5028">
        <ele>234</ele>
        <time>2010-05-07T15:10:28Z</time>
      </trkpt>
      <trkpt lat="47.09342" lon="5.50261">
        <ele>228</ele>
        <time>2010-05-07T15:10:30Z</time>
      </trkpt>
      <trkpt lat="47.09345" lon="5.50242">
        <ele>228</ele>
        <time>2010-05-07T15:10:32Z</time>
      </trkpt>
      <trkpt lat="47.09346" lon="5.50226">
        <ele>228</ele>
        <time>2010-05-07T15:10:34Z</time>
      </trkpt>
      <trkpt lat="47.09345" lon="5.50211">
        <ele>238</ele>
        <time>2010-05-07T15:10:36Z</time>
      </trkpt>
      <trkpt lat="47.09348" lon="5.50193">
        <ele>238</ele>
        <time>2010-05-07T15:10:38Z</time>
      </trkpt>
      <trkpt lat="47.09353" lon="5.50171">
        <ele>238</ele>
        <time>2010-05-07T15:10:40Z</time>
      </trkpt>
      <trkpt lat="47.09354" lon="5.50153">
        <ele>238</ele>
        <time>2010-05-07T15:10:42Z</time>
      </trkpt>
      <trkpt lat="47.09354" lon="5.50135">
        <ele>238</ele>
        <time>2010-05-07T15:10:45Z</time>
      </trkpt>
      <trkpt lat="47.09354" lon="5.50116">
        <ele>238</ele>
        <time>2010-05-07T15:10:48Z</time>
      </trkpt>
      <trkpt lat="47.09359" lon="5.50096">
        <ele>231</ele>
        <time>2010-05-07T15:10:51Z</time>
      </trkpt>
      <trkpt lat="47.09363" lon="5.50064">
        <ele>225</ele>
        <time>2010-05-07T15:10:56Z</time>
      </trkpt>
      <trkpt lat="47.09361" lon="5.5005">
        <ele>225</ele>
        <time>2010-05-07T15:10:58Z</time>
      </trkpt>
      <trkpt lat="47.09364" lon="5.50034">
        <ele>217</ele>
        <time>2010-05-07T15:11:01Z</time>
      </trkpt>
      <trkpt lat="47.09368" lon="5.50022">
        <ele>217</ele>
        <time>2010-05-07T15:11:30Z</time>
      </trkpt>
      <trkpt lat="47.09367" lon="5.50008">
        <ele>217</ele>
        <time>2010-05-07T15:12:30Z</time>
      </trkpt>
      <trkpt lat="47.09367" lon="5.49992">
        <ele>223</ele>
        <time>2010-05-07T15:12:34Z</time>
      </trkpt>
      <trkpt lat="47.09369" lon="5.49978">
        <ele>223</ele>
        <time>2010-05-07T15:12:36Z</time>
      </trkpt>
      <trkpt lat="47.0937" lon="5.49963">
        <ele>223</ele>
        <time>2010-05-07T15:12:39Z</time>
      </trkpt>
      <trkpt lat="47.09367" lon="5.49949">
        <ele>223</ele>
        <time>2010-05-07T15:12:42Z</time>
      </trkpt>
      <trkpt lat="47.09364" lon="5.49934">
        <ele>223</ele>
        <time>2010-05-07T15:12:45Z</time>
      </trkpt>
      <trkpt lat="47.09362" lon="5.49922">
        <ele>223</ele>
        <time>2010-05-07T15:12:48Z</time>
      </trkpt>
      <trkpt lat="47.09362" lon="5.49907">
        <ele>223</ele>
        <time>2010-05-07T15:12:52Z</time>
      </trkpt>
      <trkpt lat="47.09356" lon="5.4992">
        <ele>210</ele>
        <time>2010-05-07T15:13:06Z</time>
      </trkpt>
      <trkpt lat="47.09346" lon="5.49906">
        <ele>210</ele>
        <time>2010-05-07T15:13:16Z</time>
      </trkpt>
      <trkpt lat="47.09331" lon="5.49905">
        <ele>216</ele>
        <time>2010-05-07T15:13:18Z</time>
      </trkpt>
      <trkpt lat="47.09319" lon="5.49897">
        <ele>216</ele>
        <time>2010-05-07T15:13:20Z</time>
      </trkpt>
      <trkpt lat="47.09313" lon="5.49883">
        <ele>216</ele>
        <time>2010-05-07T15:13:23Z</time>
      </trkpt>
      <trkpt lat="47.09302" lon="5.49877">
        <ele>225</ele>
        <time>2010-05-07T15:13:26Z</time>
      </trkpt>
      <trkpt lat="47.09289" lon="5.49874">
        <ele>225</ele>
        <time>2010-05-07T15:13:28Z</time>
      </trkpt>
      <trkpt lat="47.0928" lon="5.49864">
        <ele>225</ele>
        <time>2010-05-07T15:13:32Z</time>
      </trkpt>
      <trkpt lat="47.09271" lon="5.49862">
        <ele>230</ele>
        <time>2010-05-07T15:13:34Z</time>
      </trkpt>
      <trkpt lat="47.09262" lon="5.49847">
        <ele>230</ele>
        <time>2010-05-07T15:13:37Z</time>
      </trkpt>
      <trkpt lat="47.09254" lon="5.4984">
        <ele>224</ele>
        <time>2010-05-07T15:13:39Z</time>
      </trkpt>
      <trkpt lat="47.09244" lon="5.49834">
        <ele>224</ele>
        <time>2010-05-07T15:13:41Z</time>
      </trkpt>
      <trkpt lat="47.09234" lon="5.49829">
        <ele>224</ele>
        <time>2010-05-07T15:13:43Z</time>
      </trkpt>
      <trkpt lat="47.09226" lon="5.49824">
        <ele>231</ele>
        <time>2010-05-07T15:13:45Z</time>
      </trkpt>
      <trkpt lat="47.09214" lon="5.49817">
        <ele>231</ele>
        <time>2010-05-07T15:13:47Z</time>
      </trkpt>
      <trkpt lat="47.092" lon="5.4981">
        <ele>236</ele>
        <time>2010-05-07T15:13:49Z</time>
      </trkpt>
      <trkpt lat="47.09188" lon="5.49799">
        <ele>236</ele>
        <time>2010-05-07T15:13:51Z</time>
      </trkpt>
      <trkpt lat="47.09177" lon="5.49788">
        <ele>236</ele>
        <time>2010-05-07T15:13:53Z</time>
      </trkpt>
      <trkpt lat="47.09167" lon="5.49777">
        <ele>228</ele>
        <time>2010-05-07T15:13:55Z</time>
      </trkpt>
      <trkpt lat="47.09157" lon="5.49771">
        <ele>228</ele>
        <time>2010-05-07T15:13:57Z</time>
      </trkpt>
      <trkpt lat="47.09146" lon="5.49765">
        <ele>228</ele>
        <time>2010-05-07T15:13:59Z</time>
      </trkpt>
      <trkpt lat="47.09135" lon="5.49764">
        <ele>236</ele>
        <time>2010-05-07T15:14:02Z</time>
      </trkpt>
      <trkpt lat="47.09123" lon="5.49765">
        <ele>241</ele>
        <time>2010-05-07T15:14:08Z</time>
      </trkpt>
      <trkpt lat="47.09121" lon="5.49752">
        <ele>241</ele>
        <time>2010-05-07T15:14:13Z</time>
      </trkpt>
      <trkpt lat="47.09122" lon="5.49738">
        <ele>235</ele>
        <time>2010-05-07T15:14:16Z</time>
      </trkpt>
      <trkpt lat="47.09126" lon="5.49722">
        <ele>226</ele>
        <time>2010-05-07T15:14:19Z</time>
      </trkpt>
      <trkpt lat="47.09119" lon="5.49706">
        <ele>219</ele>
        <time>2010-05-07T15:14:22Z</time>
      </trkpt>
      <trkpt lat="47.09108" lon="5.49698">
        <ele>219</ele>
        <time>2010-05-07T15:14:25Z</time>
      </trkpt>
      <trkpt lat="47.09097" lon="5.49691">
        <ele>219</ele>
        <time>2010-05-07T15:14:28Z</time>
      </trkpt>
      <trkpt lat="47.09088" lon="5.49689">
        <ele>219</ele>
        <time>2010-05-07T15:14:30Z</time>
      </trkpt>
      <trkpt lat="47.09082" lon="5.49679">
        <ele>219</ele>
        <time>2010-05-07T15:14:33Z</time>
      </trkpt>
      <trkpt lat="47.09076" lon="5.49669">
        <ele>219</ele>
        <time>2010-05-07T15:14:35Z</time>
      </trkpt>
      <trkpt lat="47.09065" lon="5.49664">
        <ele>219</ele>
        <time>2010-05-07T15:14:37Z</time>
      </trkpt>
      <trkpt lat="47.09051" lon="5.49666">
        <ele>226</ele>
        <time>2010-05-07T15:14:39Z</time>
      </trkpt>
      <trkpt lat="47.09041" lon="5.49661">
        <ele>226</ele>
        <time>2010-05-07T15:14:41Z</time>
      </trkpt>
      <trkpt lat="47.09034" lon="5.4965">
        <ele>226</ele>
        <time>2010-05-07T15:14:44Z</time>
      </trkpt>
      <trkpt lat="47.09027" lon="5.49641">
        <ele>226</ele>
        <time>2010-05-07T15:14:46Z</time>
      </trkpt>
      <trkpt lat="47.09018" lon="5.49635">
        <ele>226</ele>
        <time>2010-05-07T15:14:48Z</time>
      </trkpt>
      <trkpt lat="47.09005" lon="5.49627">
        <ele>219</ele>
        <time>2010-05-07T15:14:51Z</time>
      </trkpt>
      <trkpt lat="47.08995" lon="5.49627">
        <ele>225</ele>
        <time>2010-05-07T15:14:53Z</time>
      </trkpt>
      <trkpt lat="47.08988" lon="5.49615">
        <ele>225</ele>
        <time>2010-05-07T15:14:56Z</time>
      </trkpt>
      <trkpt lat="47.08974" lon="5.49612">
        <ele>233</ele>
        <time>2010-05-07T15:14:59Z</time>
      </trkpt>
      <trkpt lat="47.08964" lon="5.49609">
        <ele>233</ele>
        <time>2010-05-07T15:15:01Z</time>
      </trkpt>
      <trkpt lat="47.08956" lon="5.49598">
        <ele>233</ele>
        <time>2010-05-07T15:15:03Z</time>
      </trkpt>
      <trkpt lat="47.08948" lon="5.49587">
        <ele>233</ele>
        <time>2010-05-07T15:15:05Z</time>
      </trkpt>
      <trkpt lat="47.08942" lon="5.49573">
        <ele>233</ele>
        <time>2010-05-07T15:15:07Z</time>
      </trkpt>
      <trkpt lat="47.08936" lon="5.49559">
        <ele>233</ele>
        <time>2010-05-07T15:15:09Z</time>
      </trkpt>
      <trkpt lat="47.08929" lon="5.49549">
        <ele>233</ele>
        <time>2010-05-07T15:15:11Z</time>
      </trkpt>
      <trkpt lat="47.08924" lon="5.49534">
        <ele>228</ele>
        <time>2010-05-07T15:15:13Z</time>
      </trkpt>
      <trkpt lat="47.08922" lon="5.49516">
        <ele>228</ele>
        <time>2010-05-07T15:15:15Z</time>
      </trkpt>
      <trkpt lat="47.08919" lon="5.49501">
        <ele>228</ele>
        <time>2010-05-07T15:15:17Z</time>
      </trkpt>
      <trkpt lat="47.08916" lon="5.49485">
        <ele>219</ele>
        <time>2010-05-07T15:15:19Z</time>
      </trkpt>
      <trkpt lat="47.08914" lon="5.49469">
        <ele>219</ele>
        <time>2010-05-07T15:15:21Z</time>
      </trkpt>
      <trkpt lat="47.08911" lon="5.49452">
        <ele>212</ele>
        <time>2010-05-07T15:15:23Z</time>
      </trkpt>
      <trkpt lat="47.0891" lon="5.49435">
        <ele>212</ele>
        <time>2010-05-07T15:15:25Z</time>
      </trkpt>
      <trkpt lat="47.0891" lon="5.4942">
        <ele>212</ele>
        <time>2010-05-07T15:15:27Z</time>
      </trkpt>
      <trkpt lat="47.08908" lon="5.49406">
        <ele>212</ele>
        <time>2010-05-07T15:15:29Z</time>
      </trkpt>
      <trkpt lat="47.08906" lon="5.4939">
        <ele>205</ele>
        <time>2010-05-07T15:15:31Z</time>
      </trkpt>
      <trkpt lat="47.08901" lon="5.49377">
        <ele>205</ele>
        <time>2010-05-07T15:15:33Z</time>
      </trkpt>
      <trkpt lat="47.08895" lon="5.49365">
        <ele>205</ele>
        <time>2010-05-07T15:15:35Z</time>
      </trkpt>
      <trkpt lat="47.08889" lon="5.49351">
        <ele>205</ele>
        <time>2010-05-07T15:15:37Z</time>
      </trkpt>
      <trkpt lat="47.08883" lon="5.49336">
        <ele>205</ele>
        <time>2010-05-07T15:15:39Z</time>
      </trkpt>
      <trkpt lat="47.08877" lon="5.49323">
        <ele>205</ele>
        <time>2010-05-07T15:15:41Z</time>
      </trkpt>
      <trkpt lat="47.08873" lon="5.49309">
        <ele>205</ele>
        <time>2010-05-07T15:15:43Z</time>
      </trkpt>
      <trkpt lat="47.08873" lon="5.49293">
        <ele>198</ele>
        <time>2010-05-07T15:15:45Z</time>
      </trkpt>
      <trkpt lat="47.08868" lon="5.49281">
        <ele>205</ele>
        <time>2010-05-07T15:15:48Z</time>
      </trkpt>
      <trkpt lat="47.08875" lon="5.49272">
        <ele>205</ele>
        <time>2010-05-07T15:15:52Z</time>
      </trkpt>
      <trkpt lat="47.08881" lon="5.49255">
        <ele>205</ele>
        <time>2010-05-07T15:15:56Z</time>
      </trkpt>
      <trkpt lat="47.08875" lon="5.49241">
        <ele>211</ele>
        <time>2010-05-07T15:15:58Z</time>
      </trkpt>
      <trkpt lat="47.0887" lon="5.49222">
        <ele>211</ele>
        <time>2010-05-07T15:16:00Z</time>
      </trkpt>
      <trkpt lat="47.08866" lon="5.49208">
        <ele>211</ele>
        <time>2010-05-07T15:16:02Z</time>
      </trkpt>
      <trkpt lat="47.08861" lon="5.49195">
        <ele>211</ele>
        <time>2010-05-07T15:16:04Z</time>
      </trkpt>
      <trkpt lat="47.08857" lon="5.49182">
        <ele>211</ele>
        <time>2010-05-07T15:16:06Z</time>
      </trkpt>
      <trkpt lat="47.08844" lon="5.49173">
        <ele>216</ele>
        <time>2010-05-07T15:16:09Z</time>
      </trkpt>
      <trkpt lat="47.08832" lon="5.49169">
        <ele>216</ele>
        <time>2010-05-07T15:16:11Z</time>
      </trkpt>
      <trkpt lat="47.08819" lon="5.49164">
        <ele>216</ele>
        <time>2010-05-07T15:16:13Z</time>
      </trkpt>
      <trkpt lat="47.08804" lon="5.49161">
        <ele>223</ele>
        <time>2010-05-07T15:16:15Z</time>
      </trkpt>
      <trkpt lat="47.08792" lon="5.49153">
        <ele>223</ele>
        <time>2010-05-07T15:16:17Z</time>
      </trkpt>
      <trkpt lat="47.08781" lon="5.49142">
        <ele>223</ele>
        <time>2010-05-07T15:16:19Z</time>
      </trkpt>
      <trkpt lat="47.08767" lon="5.49134">
        <ele>223</ele>
        <time>2010-05-07T15:16:21Z</time>
      </trkpt>
      <trkpt lat="47.08757" lon="5.49121">
        <ele>223</ele>
        <time>2010-05-07T15:16:23Z</time>
      </trkpt>
      <trkpt lat="47.08748" lon="5.49108">
        <ele>223</ele>
        <time>2010-05-07T15:16:25Z</time>
      </trkpt>
      <trkpt lat="47.08741" lon="5.49092">
        <ele>223</ele>
        <time>2010-05-07T15:16:27Z</time>
      </trkpt>
      <trkpt lat="47.08738" lon="5.49074">
        <ele>214</ele>
        <time>2010-05-07T15:16:29Z</time>
      </trkpt>
      <trkpt lat="47.08732" lon="5.49058">
        <ele>214</ele>
        <time>2010-05-07T15:16:31Z</time>
      </trkpt>
      <trkpt lat="47.08724" lon="5.49043">
        <ele>214</ele>
        <time>2010-05-07T15:16:33Z</time>
      </trkpt>
      <trkpt lat="47.08718" lon="5.49028">
        <ele>214</ele>
        <time>2010-05-07T15:16:35Z</time>
      </trkpt>
    </trkseg>
  </trk>
</gpx>